<?xml version="1.0" encoding="UTF-8" standalone="no" ?>
<gpx xmlns="http://www.topografix.com/GPX/1/1" xmlns:xsi="http://www.w3.org/2001/XMLSchema-instance" xsi:schemaLocation="http://www.topografix.com/GPX/1/1 http://www.topografix.com/GPX/1/1/gpx.xsd" version="1.1" creator="VisuGPX - https://www.visugpx.com">
  <metadata>
    <name>1000 DU SUD 2022_J3</name>
    <desc><![CDATA[Bourg d'Oisans-Saillans]]></desc>
  </metadata>
  <trk>
    <name><![CDATA[1000 DU SUD 2022_J3_1]]></name>
    <trkseg>
      <trkpt lat="45.05505" lon="6.02991">
        <ele>726</ele>
        <time>2021-12-29T09:01:14Z</time>
      </trkpt>
      <trkpt lat="45.05487" lon="6.02985">
        <ele>727</ele>
        <time>2021-12-29T09:01:17Z</time>
      </trkpt>
      <trkpt lat="45.05468" lon="6.02988">
        <ele>728</ele>
        <time>2021-12-29T09:01:21Z</time>
      </trkpt>
      <trkpt lat="45.05421" lon="6.03004">
        <ele>730</ele>
        <time>2021-12-29T09:01:29Z</time>
      </trkpt>
      <trkpt lat="45.05368" lon="6.03032">
        <ele>727</ele>
        <time>2021-12-29T09:01:39Z</time>
      </trkpt>
      <trkpt lat="45.05255" lon="6.03102">
        <ele>722</ele>
        <time>2021-12-29T09:02:01Z</time>
      </trkpt>
      <trkpt lat="45.05245" lon="6.02952">
        <ele>730</ele>
        <time>2021-12-29T09:02:20Z</time>
      </trkpt>
      <trkpt lat="45.05212" lon="6.0296">
        <ele>729</ele>
        <time>2021-12-29T09:02:26Z</time>
      </trkpt>
      <trkpt lat="45.05172" lon="6.02954">
        <ele>729</ele>
        <time>2021-12-29T09:02:33Z</time>
      </trkpt>
      <trkpt lat="45.05098" lon="6.02932">
        <ele>727</ele>
        <time>2021-12-29T09:02:47Z</time>
      </trkpt>
      <trkpt lat="45.05041" lon="6.02899">
        <ele>727</ele>
        <time>2021-12-29T09:02:58Z</time>
      </trkpt>
      <trkpt lat="45.04996" lon="6.02862">
        <ele>728</ele>
        <time>2021-12-29T09:03:07Z</time>
      </trkpt>
      <trkpt lat="45.04954" lon="6.02816">
        <ele>728</ele>
        <time>2021-12-29T09:03:16Z</time>
      </trkpt>
      <trkpt lat="45.0495" lon="6.02805">
        <ele>730</ele>
        <time>2021-12-29T09:03:18Z</time>
      </trkpt>
      <trkpt lat="45.04914" lon="6.02741">
        <ele>741</ele>
        <time>2021-12-29T09:03:28Z</time>
      </trkpt>
      <trkpt lat="45.04905" lon="6.02729">
        <ele>748</ele>
        <time>2021-12-29T09:03:30Z</time>
      </trkpt>
      <trkpt lat="45.04897" lon="6.02722">
        <ele>753</ele>
        <time>2021-12-29T09:03:32Z</time>
      </trkpt>
      <trkpt lat="45.04887" lon="6.02719">
        <ele>757</ele>
        <time>2021-12-29T09:03:34Z</time>
      </trkpt>
      <trkpt lat="45.04871" lon="6.02718">
        <ele>762</ele>
        <time>2021-12-29T09:03:37Z</time>
      </trkpt>
      <trkpt lat="45.04815" lon="6.02744">
        <ele>763</ele>
        <time>2021-12-29T09:03:47Z</time>
      </trkpt>
      <trkpt lat="45.04785" lon="6.02763">
        <ele>762</ele>
        <time>2021-12-29T09:03:53Z</time>
      </trkpt>
      <trkpt lat="45.04748" lon="6.02795">
        <ele>761</ele>
        <time>2021-12-29T09:04:01Z</time>
      </trkpt>
      <trkpt lat="45.04742" lon="6.02797">
        <ele>761</ele>
        <time>2021-12-29T09:04:02Z</time>
      </trkpt>
      <trkpt lat="45.04701" lon="6.02773">
        <ele>770</ele>
        <time>2021-12-29T09:04:10Z</time>
      </trkpt>
      <trkpt lat="45.04692" lon="6.02767">
        <ele>773</ele>
        <time>2021-12-29T09:04:12Z</time>
      </trkpt>
      <trkpt lat="45.04659" lon="6.0274">
        <ele>783</ele>
        <time>2021-12-29T09:04:18Z</time>
      </trkpt>
      <trkpt lat="45.04649" lon="6.02737">
        <ele>786</ele>
        <time>2021-12-29T09:04:20Z</time>
      </trkpt>
      <trkpt lat="45.04637" lon="6.0274">
        <ele>787</ele>
        <time>2021-12-29T09:04:22Z</time>
      </trkpt>
      <trkpt lat="45.04592" lon="6.02768">
        <ele>786</ele>
        <time>2021-12-29T09:04:31Z</time>
      </trkpt>
      <trkpt lat="45.04573" lon="6.02774">
        <ele>789</ele>
        <time>2021-12-29T09:04:35Z</time>
      </trkpt>
      <trkpt lat="45.04555" lon="6.02783">
        <ele>791</ele>
        <time>2021-12-29T09:04:38Z</time>
      </trkpt>
      <trkpt lat="45.0453" lon="6.02806">
        <ele>792</ele>
        <time>2021-12-29T09:04:43Z</time>
      </trkpt>
      <trkpt lat="45.04518" lon="6.02811">
        <ele>793</ele>
        <time>2021-12-29T09:04:46Z</time>
      </trkpt>
      <trkpt lat="45.04474" lon="6.02813">
        <ele>802</ele>
        <time>2021-12-29T09:04:53Z</time>
      </trkpt>
      <trkpt lat="45.0444" lon="6.02834">
        <ele>803</ele>
        <time>2021-12-29T09:05:00Z</time>
      </trkpt>
      <trkpt lat="45.04419" lon="6.02835">
        <ele>807</ele>
        <time>2021-12-29T09:05:04Z</time>
      </trkpt>
      <trkpt lat="45.04396" lon="6.02843">
        <ele>811</ele>
        <time>2021-12-29T09:05:08Z</time>
      </trkpt>
      <trkpt lat="45.04366" lon="6.02863">
        <ele>814</ele>
        <time>2021-12-29T09:05:14Z</time>
      </trkpt>
      <trkpt lat="45.04347" lon="6.02879">
        <ele>814</ele>
        <time>2021-12-29T09:05:18Z</time>
      </trkpt>
      <trkpt lat="45.04326" lon="6.02891">
        <ele>816</ele>
        <time>2021-12-29T09:05:22Z</time>
      </trkpt>
      <trkpt lat="45.04294" lon="6.02905">
        <ele>818</ele>
        <time>2021-12-29T09:05:28Z</time>
      </trkpt>
      <trkpt lat="45.04271" lon="6.02922">
        <ele>818</ele>
        <time>2021-12-29T09:05:32Z</time>
      </trkpt>
      <trkpt lat="45.04256" lon="6.02927">
        <ele>820</ele>
        <time>2021-12-29T09:05:35Z</time>
      </trkpt>
      <trkpt lat="45.04237" lon="6.02924">
        <ele>823</ele>
        <time>2021-12-29T09:05:38Z</time>
      </trkpt>
      <trkpt lat="45.042" lon="6.02931">
        <ele>826</ele>
        <time>2021-12-29T09:05:45Z</time>
      </trkpt>
      <trkpt lat="45.04175" lon="6.02939">
        <ele>827</ele>
        <time>2021-12-29T09:05:50Z</time>
      </trkpt>
      <trkpt lat="45.04144" lon="6.0296">
        <ele>842</ele>
        <time>2021-12-29T09:05:56Z</time>
      </trkpt>
      <trkpt lat="45.04102" lon="6.0297">
        <ele>872</ele>
        <time>2021-12-29T09:06:03Z</time>
      </trkpt>
      <trkpt lat="45.0409" lon="6.02982">
        <ele>877</ele>
        <time>2021-12-29T09:06:06Z</time>
      </trkpt>
      <trkpt lat="45.04078" lon="6.03015">
        <ele>872</ele>
        <time>2021-12-29T09:06:11Z</time>
      </trkpt>
      <trkpt lat="45.04067" lon="6.03048">
        <ele>866</ele>
        <time>2021-12-29T09:06:15Z</time>
      </trkpt>
      <trkpt lat="45.0405" lon="6.03099">
        <ele>866</ele>
        <time>2021-12-29T09:06:22Z</time>
      </trkpt>
      <trkpt lat="45.04022" lon="6.03152">
        <ele>888</ele>
        <time>2021-12-29T09:06:31Z</time>
      </trkpt>
      <trkpt lat="45.04009" lon="6.03168">
        <ele>902</ele>
        <time>2021-12-29T09:06:34Z</time>
      </trkpt>
      <trkpt lat="45.04005" lon="6.03188">
        <ele>894</ele>
        <time>2021-12-29T09:06:36Z</time>
      </trkpt>
      <trkpt lat="45.03974" lon="6.03276">
        <ele>873</ele>
        <time>2021-12-29T09:06:49Z</time>
      </trkpt>
      <trkpt lat="45.03968" lon="6.03283">
        <ele>877</ele>
        <time>2021-12-29T09:06:50Z</time>
      </trkpt>
      <trkpt lat="45.03808" lon="6.03355">
        <ele>978</ele>
        <time>2021-12-29T09:07:20Z</time>
      </trkpt>
      <trkpt lat="45.03794" lon="6.03373">
        <ele>983</ele>
        <time>2021-12-29T09:07:23Z</time>
      </trkpt>
      <trkpt lat="45.03788" lon="6.03399">
        <ele>978</ele>
        <time>2021-12-29T09:07:27Z</time>
      </trkpt>
      <trkpt lat="45.03792" lon="6.03551">
        <ele>924</ele>
        <time>2021-12-29T09:07:46Z</time>
      </trkpt>
      <trkpt lat="45.03788" lon="6.03596">
        <ele>908</ele>
        <time>2021-12-29T09:07:52Z</time>
      </trkpt>
      <trkpt lat="45.03781" lon="6.03635">
        <ele>893</ele>
        <time>2021-12-29T09:07:57Z</time>
      </trkpt>
      <trkpt lat="45.03779" lon="6.03644">
        <ele>890</ele>
        <time>2021-12-29T09:07:58Z</time>
      </trkpt>
      <trkpt lat="45.03771" lon="6.03671">
        <ele>887</ele>
        <time>2021-12-29T09:08:02Z</time>
      </trkpt>
      <trkpt lat="45.03765" lon="6.03682">
        <ele>889</ele>
        <time>2021-12-29T09:08:03Z</time>
      </trkpt>
      <trkpt lat="45.03745" lon="6.03702">
        <ele>902</ele>
        <time>2021-12-29T09:08:08Z</time>
      </trkpt>
      <trkpt lat="45.03735" lon="6.03716">
        <ele>901</ele>
        <time>2021-12-29T09:08:10Z</time>
      </trkpt>
      <trkpt lat="45.03731" lon="6.03727">
        <ele>896</ele>
        <time>2021-12-29T09:08:12Z</time>
      </trkpt>
      <trkpt lat="45.03727" lon="6.03732">
        <ele>896</ele>
        <time>2021-12-29T09:08:13Z</time>
      </trkpt>
      <trkpt lat="45.03721" lon="6.03733">
        <ele>900</ele>
        <time>2021-12-29T09:08:14Z</time>
      </trkpt>
      <trkpt lat="45.03718" lon="6.03739">
        <ele>899</ele>
        <time>2021-12-29T09:08:15Z</time>
      </trkpt>
      <trkpt lat="45.03715" lon="6.03744">
        <ele>898</ele>
        <time>2021-12-29T09:08:15Z</time>
      </trkpt>
      <trkpt lat="45.03715" lon="6.03752">
        <ele>892</ele>
        <time>2021-12-29T09:08:16Z</time>
      </trkpt>
      <trkpt lat="45.03716" lon="6.03759">
        <ele>885</ele>
        <time>2021-12-29T09:08:17Z</time>
      </trkpt>
      <trkpt lat="45.03712" lon="6.0377">
        <ele>878</ele>
        <time>2021-12-29T09:08:19Z</time>
      </trkpt>
      <trkpt lat="45.03693" lon="6.0378">
        <ele>888</ele>
        <time>2021-12-29T09:08:23Z</time>
      </trkpt>
      <trkpt lat="45.03683" lon="6.03789">
        <ele>892</ele>
        <time>2021-12-29T09:08:25Z</time>
      </trkpt>
      <trkpt lat="45.03675" lon="6.0379">
        <ele>899</ele>
        <time>2021-12-29T09:08:26Z</time>
      </trkpt>
      <trkpt lat="45.03662" lon="6.03787">
        <ele>919</ele>
        <time>2021-12-29T09:08:28Z</time>
      </trkpt>
      <trkpt lat="45.03655" lon="6.03789">
        <ele>931</ele>
        <time>2021-12-29T09:08:30Z</time>
      </trkpt>
      <trkpt lat="45.03649" lon="6.03793">
        <ele>940</ele>
        <time>2021-12-29T09:08:31Z</time>
      </trkpt>
      <trkpt lat="45.03642" lon="6.03806">
        <ele>946</ele>
        <time>2021-12-29T09:08:33Z</time>
      </trkpt>
      <trkpt lat="45.03631" lon="6.03811">
        <ele>964</ele>
        <time>2021-12-29T09:08:35Z</time>
      </trkpt>
      <trkpt lat="45.03624" lon="6.03823">
        <ele>971</ele>
        <time>2021-12-29T09:08:37Z</time>
      </trkpt>
      <trkpt lat="45.03602" lon="6.03873">
        <ele>967</ele>
        <time>2021-12-29T09:08:44Z</time>
      </trkpt>
      <trkpt lat="45.03592" lon="6.03888">
        <ele>969</ele>
        <time>2021-12-29T09:08:47Z</time>
      </trkpt>
      <trkpt lat="45.03587" lon="6.03906">
        <ele>959</ele>
        <time>2021-12-29T09:08:49Z</time>
      </trkpt>
      <trkpt lat="45.03573" lon="6.0392">
        <ele>972</ele>
        <time>2021-12-29T09:08:52Z</time>
      </trkpt>
      <trkpt lat="45.03565" lon="6.03942">
        <ele>952</ele>
        <time>2021-12-29T09:08:56Z</time>
      </trkpt>
      <trkpt lat="45.03553" lon="6.03957">
        <ele>957</ele>
        <time>2021-12-29T09:08:58Z</time>
      </trkpt>
      <trkpt lat="45.03545" lon="6.03973">
        <ele>951</ele>
        <time>2021-12-29T09:09:01Z</time>
      </trkpt>
      <trkpt lat="45.03528" lon="6.03991">
        <ele>971</ele>
        <time>2021-12-29T09:09:05Z</time>
      </trkpt>
      <trkpt lat="45.03524" lon="6.03992">
        <ele>981</ele>
        <time>2021-12-29T09:09:05Z</time>
      </trkpt>
      <trkpt lat="45.03498" lon="6.03987">
        <ele>1060</ele>
        <time>2021-12-29T09:09:10Z</time>
      </trkpt>
      <trkpt lat="45.03479" lon="6.04">
        <ele>1059</ele>
        <time>2021-12-29T09:09:14Z</time>
      </trkpt>
      <trkpt lat="45.03467" lon="6.04044">
        <ele>987</ele>
        <time>2021-12-29T09:09:20Z</time>
      </trkpt>
      <trkpt lat="45.03455" lon="6.04106">
        <ele>910</ele>
        <time>2021-12-29T09:09:28Z</time>
      </trkpt>
      <trkpt lat="45.0345" lon="6.04155">
        <ele>868</ele>
        <time>2021-12-29T09:09:34Z</time>
      </trkpt>
      <trkpt lat="45.03442" lon="6.04191">
        <ele>850</ele>
        <time>2021-12-29T09:09:39Z</time>
      </trkpt>
      <trkpt lat="45.03439" lon="6.04196">
        <ele>850</ele>
        <time>2021-12-29T09:09:40Z</time>
      </trkpt>
      <trkpt lat="45.03433" lon="6.042">
        <ele>855</ele>
        <time>2021-12-29T09:09:41Z</time>
      </trkpt>
      <trkpt lat="45.0342" lon="6.04204">
        <ele>869</ele>
        <time>2021-12-29T09:09:43Z</time>
      </trkpt>
      <trkpt lat="45.03388" lon="6.04206">
        <ele>898</ele>
        <time>2021-12-29T09:09:49Z</time>
      </trkpt>
      <trkpt lat="45.0337" lon="6.04197">
        <ele>924</ele>
        <time>2021-12-29T09:09:52Z</time>
      </trkpt>
      <trkpt lat="45.03363" lon="6.04197">
        <ele>931</ele>
        <time>2021-12-29T09:09:53Z</time>
      </trkpt>
      <trkpt lat="45.03346" lon="6.04202">
        <ele>941</ele>
        <time>2021-12-29T09:09:57Z</time>
      </trkpt>
      <trkpt lat="45.03333" lon="6.04202">
        <ele>953</ele>
        <time>2021-12-29T09:09:59Z</time>
      </trkpt>
      <trkpt lat="45.03324" lon="6.04199">
        <ele>965</ele>
        <time>2021-12-29T09:10:00Z</time>
      </trkpt>
      <trkpt lat="45.03312" lon="6.04192">
        <ele>983</ele>
        <time>2021-12-29T09:10:03Z</time>
      </trkpt>
      <trkpt lat="45.03285" lon="6.04185">
        <ele>1013</ele>
        <time>2021-12-29T09:10:08Z</time>
      </trkpt>
      <trkpt lat="45.03259" lon="6.04173">
        <ele>1047</ele>
        <time>2021-12-29T09:10:13Z</time>
      </trkpt>
      <trkpt lat="45.0325" lon="6.04172">
        <ele>1055</ele>
        <time>2021-12-29T09:10:14Z</time>
      </trkpt>
      <trkpt lat="45.0324" lon="6.04175">
        <ele>1058</ele>
        <time>2021-12-29T09:10:16Z</time>
      </trkpt>
      <trkpt lat="45.0322" lon="6.04189">
        <ele>1059</ele>
        <time>2021-12-29T09:10:20Z</time>
      </trkpt>
      <trkpt lat="45.03204" lon="6.04204">
        <ele>1059</ele>
        <time>2021-12-29T09:10:23Z</time>
      </trkpt>
      <trkpt lat="45.03193" lon="6.04217">
        <ele>1060</ele>
        <time>2021-12-29T09:10:26Z</time>
      </trkpt>
      <trkpt lat="45.03185" lon="6.0423">
        <ele>1060</ele>
        <time>2021-12-29T09:10:28Z</time>
      </trkpt>
      <trkpt lat="45.03183" lon="6.04245">
        <ele>1054</ele>
        <time>2021-12-29T09:10:30Z</time>
      </trkpt>
      <trkpt lat="45.0316" lon="6.043">
        <ele>1026</ele>
        <time>2021-12-29T09:10:38Z</time>
      </trkpt>
      <trkpt lat="45.0316" lon="6.04318">
        <ele>1010</ele>
        <time>2021-12-29T09:10:40Z</time>
      </trkpt>
      <trkpt lat="45.03156" lon="6.04345">
        <ele>990</ele>
        <time>2021-12-29T09:10:44Z</time>
      </trkpt>
      <trkpt lat="45.03144" lon="6.04372">
        <ele>983</ele>
        <time>2021-12-29T09:10:48Z</time>
      </trkpt>
      <trkpt lat="45.03135" lon="6.04385">
        <ele>982</ele>
        <time>2021-12-29T09:10:50Z</time>
      </trkpt>
      <trkpt lat="45.03127" lon="6.04393">
        <ele>985</ele>
        <time>2021-12-29T09:10:52Z</time>
      </trkpt>
      <trkpt lat="45.03108" lon="6.04399">
        <ele>1000</ele>
        <time>2021-12-29T09:10:55Z</time>
      </trkpt>
      <trkpt lat="45.03091" lon="6.044">
        <ele>1017</ele>
        <time>2021-12-29T09:10:58Z</time>
      </trkpt>
      <trkpt lat="45.0308" lon="6.04397">
        <ele>1029</ele>
        <time>2021-12-29T09:11:00Z</time>
      </trkpt>
      <trkpt lat="45.0305" lon="6.044">
        <ele>1044</ele>
        <time>2021-12-29T09:11:06Z</time>
      </trkpt>
      <trkpt lat="45.03046" lon="6.04402">
        <ele>1045</ele>
        <time>2021-12-29T09:11:06Z</time>
      </trkpt>
      <trkpt lat="45.03041" lon="6.04408">
        <ele>1044</ele>
        <time>2021-12-29T09:11:08Z</time>
      </trkpt>
      <trkpt lat="45.03033" lon="6.04428">
        <ele>1036</ele>
        <time>2021-12-29T09:11:10Z</time>
      </trkpt>
      <trkpt lat="45.03018" lon="6.04453">
        <ele>1029</ele>
        <time>2021-12-29T09:11:15Z</time>
      </trkpt>
      <trkpt lat="45.03013" lon="6.04455">
        <ele>1032</ele>
        <time>2021-12-29T09:11:16Z</time>
      </trkpt>
      <trkpt lat="45.03009" lon="6.04454">
        <ele>1035</ele>
        <time>2021-12-29T09:11:16Z</time>
      </trkpt>
      <trkpt lat="45.03" lon="6.04445">
        <ele>1047</ele>
        <time>2021-12-29T09:11:18Z</time>
      </trkpt>
      <trkpt lat="45.02995" lon="6.04445">
        <ele>1051</ele>
        <time>2021-12-29T09:11:19Z</time>
      </trkpt>
      <trkpt lat="45.02991" lon="6.04448">
        <ele>1053</ele>
        <time>2021-12-29T09:11:20Z</time>
      </trkpt>
      <trkpt lat="45.02988" lon="6.04454">
        <ele>1053</ele>
        <time>2021-12-29T09:11:21Z</time>
      </trkpt>
      <trkpt lat="45.02983" lon="6.04475">
        <ele>1046</ele>
        <time>2021-12-29T09:11:24Z</time>
      </trkpt>
      <trkpt lat="45.02958" lon="6.0452">
        <ele>1048</ele>
        <time>2021-12-29T09:11:31Z</time>
      </trkpt>
      <trkpt lat="45.02956" lon="6.0453">
        <ele>1045</ele>
        <time>2021-12-29T09:11:32Z</time>
      </trkpt>
      <trkpt lat="45.02957" lon="6.04544">
        <ele>1038</ele>
        <time>2021-12-29T09:11:34Z</time>
      </trkpt>
      <trkpt lat="45.02954" lon="6.04555">
        <ele>1037</ele>
        <time>2021-12-29T09:11:35Z</time>
      </trkpt>
      <trkpt lat="45.02953" lon="6.04569">
        <ele>1032</ele>
        <time>2021-12-29T09:11:37Z</time>
      </trkpt>
      <trkpt lat="45.02945" lon="6.04583">
        <ele>1035</ele>
        <time>2021-12-29T09:11:39Z</time>
      </trkpt>
      <trkpt lat="45.02942" lon="6.04598">
        <ele>1029</ele>
        <time>2021-12-29T09:11:41Z</time>
      </trkpt>
      <trkpt lat="45.02935" lon="6.04606">
        <ele>1033</ele>
        <time>2021-12-29T09:11:43Z</time>
      </trkpt>
      <trkpt lat="45.02922" lon="6.04646">
        <ele>1026</ele>
        <time>2021-12-29T09:11:48Z</time>
      </trkpt>
      <trkpt lat="45.02919" lon="6.04648">
        <ele>1029</ele>
        <time>2021-12-29T09:11:49Z</time>
      </trkpt>
      <trkpt lat="45.02888" lon="6.04652">
        <ele>1043</ele>
        <time>2021-12-29T09:11:55Z</time>
      </trkpt>
      <trkpt lat="45.02873" lon="6.04658">
        <ele>1047</ele>
        <time>2021-12-29T09:11:57Z</time>
      </trkpt>
      <trkpt lat="45.02863" lon="6.04664">
        <ele>1049</ele>
        <time>2021-12-29T09:11:59Z</time>
      </trkpt>
      <trkpt lat="45.02842" lon="6.04683">
        <ele>1046</ele>
        <time>2021-12-29T09:12:04Z</time>
      </trkpt>
      <trkpt lat="45.02821" lon="6.04693">
        <ele>1050</ele>
        <time>2021-12-29T09:12:08Z</time>
      </trkpt>
      <trkpt lat="45.02808" lon="6.04697">
        <ele>1054</ele>
        <time>2021-12-29T09:12:10Z</time>
      </trkpt>
      <trkpt lat="45.02798" lon="6.04704">
        <ele>1055</ele>
        <time>2021-12-29T09:12:12Z</time>
      </trkpt>
      <trkpt lat="45.02789" lon="6.04718">
        <ele>1052</ele>
        <time>2021-12-29T09:12:14Z</time>
      </trkpt>
      <trkpt lat="45.0278" lon="6.04723">
        <ele>1055</ele>
        <time>2021-12-29T09:12:16Z</time>
      </trkpt>
      <trkpt lat="45.02769" lon="6.0472">
        <ele>1063</ele>
        <time>2021-12-29T09:12:18Z</time>
      </trkpt>
      <trkpt lat="45.0276" lon="6.04724">
        <ele>1067</ele>
        <time>2021-12-29T09:12:20Z</time>
      </trkpt>
      <trkpt lat="45.02741" lon="6.0477">
        <ele>1053</ele>
        <time>2021-12-29T09:12:27Z</time>
      </trkpt>
      <trkpt lat="45.0273" lon="6.04777">
        <ele>1057</ele>
        <time>2021-12-29T09:12:29Z</time>
      </trkpt>
      <trkpt lat="45.02708" lon="6.04786">
        <ele>1070</ele>
        <time>2021-12-29T09:12:33Z</time>
      </trkpt>
      <trkpt lat="45.0267" lon="6.04787">
        <ele>1104</ele>
        <time>2021-12-29T09:12:40Z</time>
      </trkpt>
      <trkpt lat="45.02658" lon="6.04792">
        <ele>1110</ele>
        <time>2021-12-29T09:12:42Z</time>
      </trkpt>
      <trkpt lat="45.02633" lon="6.0482">
        <ele>1114</ele>
        <time>2021-12-29T09:12:47Z</time>
      </trkpt>
      <trkpt lat="45.02627" lon="6.04838">
        <ele>1106</ele>
        <time>2021-12-29T09:12:50Z</time>
      </trkpt>
      <trkpt lat="45.02618" lon="6.04849">
        <ele>1097</ele>
        <time>2021-12-29T09:12:52Z</time>
      </trkpt>
      <trkpt lat="45.02574" lon="6.04859">
        <ele>1118</ele>
        <time>2021-12-29T09:13:00Z</time>
      </trkpt>
      <trkpt lat="45.02568" lon="6.04857">
        <ele>1124</ele>
        <time>2021-12-29T09:13:01Z</time>
      </trkpt>
      <trkpt lat="45.02565" lon="6.0485">
        <ele>1133</ele>
        <time>2021-12-29T09:13:02Z</time>
      </trkpt>
      <trkpt lat="45.0257" lon="6.04843">
        <ele>1138</ele>
        <time>2021-12-29T09:13:03Z</time>
      </trkpt>
      <trkpt lat="45.02585" lon="6.04844">
        <ele>1129</ele>
        <time>2021-12-29T09:13:06Z</time>
      </trkpt>
      <trkpt lat="45.02595" lon="6.04841">
        <ele>1125</ele>
        <time>2021-12-29T09:13:08Z</time>
      </trkpt>
      <trkpt lat="45.02604" lon="6.04832">
        <ele>1129</ele>
        <time>2021-12-29T09:13:10Z</time>
      </trkpt>
      <trkpt lat="45.02617" lon="6.04811">
        <ele>1128</ele>
        <time>2021-12-29T09:13:13Z</time>
      </trkpt>
      <trkpt lat="45.02623" lon="6.04786">
        <ele>1135</ele>
        <time>2021-12-29T09:13:17Z</time>
      </trkpt>
      <trkpt lat="45.02627" lon="6.04775">
        <ele>1137</ele>
        <time>2021-12-29T09:13:18Z</time>
      </trkpt>
      <trkpt lat="45.02632" lon="6.04769">
        <ele>1136</ele>
        <time>2021-12-29T09:13:19Z</time>
      </trkpt>
      <trkpt lat="45.02648" lon="6.04756">
        <ele>1132</ele>
        <time>2021-12-29T09:13:23Z</time>
      </trkpt>
      <trkpt lat="45.02655" lon="6.04754">
        <ele>1128</ele>
        <time>2021-12-29T09:13:24Z</time>
      </trkpt>
      <trkpt lat="45.02668" lon="6.04756">
        <ele>1119</ele>
        <time>2021-12-29T09:13:26Z</time>
      </trkpt>
      <trkpt lat="45.02677" lon="6.04751">
        <ele>1115</ele>
        <time>2021-12-29T09:13:28Z</time>
      </trkpt>
      <trkpt lat="45.02684" lon="6.04746">
        <ele>1111</ele>
        <time>2021-12-29T09:13:29Z</time>
      </trkpt>
      <trkpt lat="45.02689" lon="6.04737">
        <ele>1110</ele>
        <time>2021-12-29T09:13:31Z</time>
      </trkpt>
      <trkpt lat="45.02702" lon="6.0469">
        <ele>1113</ele>
        <time>2021-12-29T09:13:37Z</time>
      </trkpt>
      <trkpt lat="45.02702" lon="6.04681">
        <ele>1116</ele>
        <time>2021-12-29T09:13:38Z</time>
      </trkpt>
      <trkpt lat="45.02692" lon="6.0466">
        <ele>1127</ele>
        <time>2021-12-29T09:13:41Z</time>
      </trkpt>
      <trkpt lat="45.02689" lon="6.0465">
        <ele>1132</ele>
        <time>2021-12-29T09:13:43Z</time>
      </trkpt>
      <trkpt lat="45.02695" lon="6.04631">
        <ele>1135</ele>
        <time>2021-12-29T09:13:45Z</time>
      </trkpt>
      <trkpt lat="45.02695" lon="6.04621">
        <ele>1139</ele>
        <time>2021-12-29T09:13:47Z</time>
      </trkpt>
      <trkpt lat="45.027" lon="6.04614">
        <ele>1139</ele>
        <time>2021-12-29T09:13:48Z</time>
      </trkpt>
      <trkpt lat="45.02726" lon="6.04605">
        <ele>1131</ele>
        <time>2021-12-29T09:13:53Z</time>
      </trkpt>
      <trkpt lat="45.02729" lon="6.046">
        <ele>1132</ele>
        <time>2021-12-29T09:13:54Z</time>
      </trkpt>
      <trkpt lat="45.02731" lon="6.04588">
        <ele>1136</ele>
        <time>2021-12-29T09:13:55Z</time>
      </trkpt>
      <trkpt lat="45.02736" lon="6.04576">
        <ele>1139</ele>
        <time>2021-12-29T09:13:57Z</time>
      </trkpt>
      <trkpt lat="45.02745" lon="6.0457">
        <ele>1137</ele>
        <time>2021-12-29T09:13:59Z</time>
      </trkpt>
      <trkpt lat="45.02789" lon="6.04558">
        <ele>1128</ele>
        <time>2021-12-29T09:14:07Z</time>
      </trkpt>
      <trkpt lat="45.02802" lon="6.04551">
        <ele>1127</ele>
        <time>2021-12-29T09:14:09Z</time>
      </trkpt>
      <trkpt lat="45.02811" lon="6.04542">
        <ele>1129</ele>
        <time>2021-12-29T09:14:11Z</time>
      </trkpt>
      <trkpt lat="45.02834" lon="6.04499">
        <ele>1140</ele>
        <time>2021-12-29T09:14:18Z</time>
      </trkpt>
      <trkpt lat="45.02868" lon="6.0446">
        <ele>1143</ele>
        <time>2021-12-29T09:14:26Z</time>
      </trkpt>
      <trkpt lat="45.0288" lon="6.04443">
        <ele>1145</ele>
        <time>2021-12-29T09:14:29Z</time>
      </trkpt>
      <trkpt lat="45.02886" lon="6.04428">
        <ele>1150</ele>
        <time>2021-12-29T09:14:31Z</time>
      </trkpt>
      <trkpt lat="45.02899" lon="6.04415">
        <ele>1150</ele>
        <time>2021-12-29T09:14:34Z</time>
      </trkpt>
      <trkpt lat="45.02902" lon="6.04411">
        <ele>1151</ele>
        <time>2021-12-29T09:14:34Z</time>
      </trkpt>
      <trkpt lat="45.02901" lon="6.04406">
        <ele>1155</ele>
        <time>2021-12-29T09:14:35Z</time>
      </trkpt>
      <trkpt lat="45.02899" lon="6.04404">
        <ele>1158</ele>
        <time>2021-12-29T09:14:35Z</time>
      </trkpt>
      <trkpt lat="45.02894" lon="6.04404">
        <ele>1161</ele>
        <time>2021-12-29T09:14:36Z</time>
      </trkpt>
      <trkpt lat="45.02891" lon="6.04407">
        <ele>1160</ele>
        <time>2021-12-29T09:14:37Z</time>
      </trkpt>
      <trkpt lat="45.02888" lon="6.04411">
        <ele>1159</ele>
        <time>2021-12-29T09:14:38Z</time>
      </trkpt>
      <trkpt lat="45.02873" lon="6.04436">
        <ele>1153</ele>
        <time>2021-12-29T09:14:42Z</time>
      </trkpt>
      <trkpt lat="45.0281" lon="6.04488">
        <ele>1153</ele>
        <time>2021-12-29T09:14:55Z</time>
      </trkpt>
      <trkpt lat="45.02783" lon="6.04496">
        <ele>1157</ele>
        <time>2021-12-29T09:15:00Z</time>
      </trkpt>
      <trkpt lat="45.02752" lon="6.04496">
        <ele>1165</ele>
        <time>2021-12-29T09:15:05Z</time>
      </trkpt>
      <trkpt lat="45.0272" lon="6.04501">
        <ele>1175</ele>
        <time>2021-12-29T09:15:11Z</time>
      </trkpt>
      <trkpt lat="45.02694" lon="6.04524">
        <ele>1176</ele>
        <time>2021-12-29T09:15:16Z</time>
      </trkpt>
      <trkpt lat="45.0267" lon="6.04537">
        <ele>1181</ele>
        <time>2021-12-29T09:15:21Z</time>
      </trkpt>
      <trkpt lat="45.02655" lon="6.04555">
        <ele>1180</ele>
        <time>2021-12-29T09:15:24Z</time>
      </trkpt>
      <trkpt lat="45.02617" lon="6.04577">
        <ele>1190</ele>
        <time>2021-12-29T09:15:32Z</time>
      </trkpt>
      <trkpt lat="45.02592" lon="6.04611">
        <ele>1195</ele>
        <time>2021-12-29T09:15:38Z</time>
      </trkpt>
      <trkpt lat="45.02586" lon="6.04654">
        <ele>1191</ele>
        <time>2021-12-29T09:15:43Z</time>
      </trkpt>
      <trkpt lat="45.02578" lon="6.04677">
        <ele>1190</ele>
        <time>2021-12-29T09:15:47Z</time>
      </trkpt>
      <trkpt lat="45.02543" lon="6.04723">
        <ele>1198</ele>
        <time>2021-12-29T09:15:55Z</time>
      </trkpt>
      <trkpt lat="45.02517" lon="6.0474">
        <ele>1208</ele>
        <time>2021-12-29T09:16:00Z</time>
      </trkpt>
      <trkpt lat="45.02504" lon="6.04757">
        <ele>1211</ele>
        <time>2021-12-29T09:16:03Z</time>
      </trkpt>
      <trkpt lat="45.02492" lon="6.04796">
        <ele>1203</ele>
        <time>2021-12-29T09:16:09Z</time>
      </trkpt>
      <trkpt lat="45.02463" lon="6.04844">
        <ele>1195</ele>
        <time>2021-12-29T09:16:17Z</time>
      </trkpt>
      <trkpt lat="45.02436" lon="6.04858">
        <ele>1199</ele>
        <time>2021-12-29T09:16:22Z</time>
      </trkpt>
      <trkpt lat="45.02387" lon="6.0487">
        <ele>1221</ele>
        <time>2021-12-29T09:16:31Z</time>
      </trkpt>
      <trkpt lat="45.02372" lon="6.04884">
        <ele>1224</ele>
        <time>2021-12-29T09:16:34Z</time>
      </trkpt>
      <trkpt lat="45.02363" lon="6.04905">
        <ele>1223</ele>
        <time>2021-12-29T09:16:37Z</time>
      </trkpt>
      <trkpt lat="45.02358" lon="6.04925">
        <ele>1218</ele>
        <time>2021-12-29T09:16:40Z</time>
      </trkpt>
      <trkpt lat="45.02351" lon="6.04943">
        <ele>1214</ele>
        <time>2021-12-29T09:16:42Z</time>
      </trkpt>
      <trkpt lat="45.02332" lon="6.04962">
        <ele>1224</ele>
        <time>2021-12-29T09:16:46Z</time>
      </trkpt>
      <trkpt lat="45.02323" lon="6.04975">
        <ele>1224</ele>
        <time>2021-12-29T09:16:49Z</time>
      </trkpt>
      <trkpt lat="45.02314" lon="6.04982">
        <ele>1227</ele>
        <time>2021-12-29T09:16:50Z</time>
      </trkpt>
      <trkpt lat="45.02312" lon="6.04978">
        <ele>1229</ele>
        <time>2021-12-29T09:16:51Z</time>
      </trkpt>
      <trkpt lat="45.02318" lon="6.04966">
        <ele>1230</ele>
        <time>2021-12-29T09:16:53Z</time>
      </trkpt>
      <trkpt lat="45.02329" lon="6.0496">
        <ele>1227</ele>
        <time>2021-12-29T09:16:55Z</time>
      </trkpt>
      <trkpt lat="45.02335" lon="6.04951">
        <ele>1226</ele>
        <time>2021-12-29T09:16:57Z</time>
      </trkpt>
      <trkpt lat="45.02335" lon="6.0494">
        <ele>1231</ele>
        <time>2021-12-29T09:16:58Z</time>
      </trkpt>
      <trkpt lat="45.02331" lon="6.0491">
        <ele>1245</ele>
        <time>2021-12-29T09:17:02Z</time>
      </trkpt>
      <trkpt lat="45.02335" lon="6.04891">
        <ele>1247</ele>
        <time>2021-12-29T09:17:04Z</time>
      </trkpt>
      <trkpt lat="45.02345" lon="6.04877">
        <ele>1244</ele>
        <time>2021-12-29T09:17:07Z</time>
      </trkpt>
      <trkpt lat="45.02356" lon="6.04868">
        <ele>1240</ele>
        <time>2021-12-29T09:17:09Z</time>
      </trkpt>
      <trkpt lat="45.02367" lon="6.04853">
        <ele>1239</ele>
        <time>2021-12-29T09:17:12Z</time>
      </trkpt>
      <trkpt lat="45.02376" lon="6.04823">
        <ele>1245</ele>
        <time>2021-12-29T09:17:16Z</time>
      </trkpt>
      <trkpt lat="45.02387" lon="6.04801">
        <ele>1246</ele>
        <time>2021-12-29T09:17:19Z</time>
      </trkpt>
      <trkpt lat="45.02395" lon="6.04767">
        <ele>1251</ele>
        <time>2021-12-29T09:17:24Z</time>
      </trkpt>
      <trkpt lat="45.02399" lon="6.04728">
        <ele>1258</ele>
        <time>2021-12-29T09:17:29Z</time>
      </trkpt>
      <trkpt lat="45.02408" lon="6.04688">
        <ele>1264</ele>
        <time>2021-12-29T09:17:34Z</time>
      </trkpt>
      <trkpt lat="45.02418" lon="6.04667">
        <ele>1264</ele>
        <time>2021-12-29T09:17:37Z</time>
      </trkpt>
      <trkpt lat="45.02427" lon="6.04638">
        <ele>1265</ele>
        <time>2021-12-29T09:17:41Z</time>
      </trkpt>
      <trkpt lat="45.02433" lon="6.04583">
        <ele>1272</ele>
        <time>2021-12-29T09:17:48Z</time>
      </trkpt>
      <trkpt lat="45.02452" lon="6.04529">
        <ele>1281</ele>
        <time>2021-12-29T09:17:56Z</time>
      </trkpt>
      <trkpt lat="45.02481" lon="6.04486">
        <ele>1283</ele>
        <time>2021-12-29T09:18:03Z</time>
      </trkpt>
      <trkpt lat="45.02498" lon="6.0445">
        <ele>1289</ele>
        <time>2021-12-29T09:18:09Z</time>
      </trkpt>
      <trkpt lat="45.02536" lon="6.04413">
        <ele>1286</ele>
        <time>2021-12-29T09:18:17Z</time>
      </trkpt>
      <trkpt lat="45.02559" lon="6.044">
        <ele>1282</ele>
        <time>2021-12-29T09:18:21Z</time>
      </trkpt>
      <trkpt lat="45.02569" lon="6.0439">
        <ele>1282</ele>
        <time>2021-12-29T09:18:23Z</time>
      </trkpt>
      <trkpt lat="45.02563" lon="6.0438">
        <ele>1289</ele>
        <time>2021-12-29T09:18:25Z</time>
      </trkpt>
      <trkpt lat="45.02528" lon="6.04403">
        <ele>1295</ele>
        <time>2021-12-29T09:18:32Z</time>
      </trkpt>
      <trkpt lat="45.02496" lon="6.0442">
        <ele>1302</ele>
        <time>2021-12-29T09:18:38Z</time>
      </trkpt>
      <trkpt lat="45.02426" lon="6.04485">
        <ele>1310</ele>
        <time>2021-12-29T09:18:53Z</time>
      </trkpt>
      <trkpt lat="45.02399" lon="6.04503">
        <ele>1314</ele>
        <time>2021-12-29T09:18:58Z</time>
      </trkpt>
      <trkpt lat="45.02368" lon="6.04542">
        <ele>1315</ele>
        <time>2021-12-29T09:19:06Z</time>
      </trkpt>
      <trkpt lat="45.02342" lon="6.04588">
        <ele>1311</ele>
        <time>2021-12-29T09:19:13Z</time>
      </trkpt>
      <trkpt lat="45.02285" lon="6.04627">
        <ele>1320</ele>
        <time>2021-12-29T09:19:24Z</time>
      </trkpt>
      <trkpt lat="45.02229" lon="6.04658">
        <ele>1328</ele>
        <time>2021-12-29T09:19:35Z</time>
      </trkpt>
      <trkpt lat="45.02206" lon="6.04658">
        <ele>1335</ele>
        <time>2021-12-29T09:19:39Z</time>
      </trkpt>
      <trkpt lat="45.02175" lon="6.04678">
        <ele>1340</ele>
        <time>2021-12-29T09:19:45Z</time>
      </trkpt>
      <trkpt lat="45.02155" lon="6.04699">
        <ele>1342</ele>
        <time>2021-12-29T09:19:50Z</time>
      </trkpt>
      <trkpt lat="45.02119" lon="6.0473">
        <ele>1344</ele>
        <time>2021-12-29T09:19:57Z</time>
      </trkpt>
      <trkpt lat="45.0211" lon="6.04748">
        <ele>1340</ele>
        <time>2021-12-29T09:20:00Z</time>
      </trkpt>
      <trkpt lat="45.02107" lon="6.0476">
        <ele>1340</ele>
        <time>2021-12-29T09:20:02Z</time>
      </trkpt>
      <trkpt lat="45.02106" lon="6.04773">
        <ele>1340</ele>
        <time>2021-12-29T09:20:03Z</time>
      </trkpt>
      <trkpt lat="45.02112" lon="6.04786">
        <ele>1337</ele>
        <time>2021-12-29T09:20:05Z</time>
      </trkpt>
      <trkpt lat="45.0212" lon="6.04794">
        <ele>1335</ele>
        <time>2021-12-29T09:20:07Z</time>
      </trkpt>
      <trkpt lat="45.02122" lon="6.04805">
        <ele>1334</ele>
        <time>2021-12-29T09:20:08Z</time>
      </trkpt>
      <trkpt lat="45.02119" lon="6.04819">
        <ele>1334</ele>
        <time>2021-12-29T09:20:10Z</time>
      </trkpt>
      <trkpt lat="45.02111" lon="6.04831">
        <ele>1335</ele>
        <time>2021-12-29T09:20:12Z</time>
      </trkpt>
      <trkpt lat="45.02106" lon="6.04846">
        <ele>1337</ele>
        <time>2021-12-29T09:20:14Z</time>
      </trkpt>
      <trkpt lat="45.02104" lon="6.04865">
        <ele>1338</ele>
        <time>2021-12-29T09:20:17Z</time>
      </trkpt>
      <trkpt lat="45.02106" lon="6.04884">
        <ele>1338</ele>
        <time>2021-12-29T09:20:19Z</time>
      </trkpt>
      <trkpt lat="45.02104" lon="6.04899">
        <ele>1340</ele>
        <time>2021-12-29T09:20:21Z</time>
      </trkpt>
      <trkpt lat="45.02095" lon="6.04912">
        <ele>1344</ele>
        <time>2021-12-29T09:20:23Z</time>
      </trkpt>
      <trkpt lat="45.02093" lon="6.04927">
        <ele>1344</ele>
        <time>2021-12-29T09:20:25Z</time>
      </trkpt>
      <trkpt lat="45.02079" lon="6.04956">
        <ele>1347</ele>
        <time>2021-12-29T09:20:30Z</time>
      </trkpt>
      <trkpt lat="45.02057" lon="6.04975">
        <ele>1354</ele>
        <time>2021-12-29T09:20:34Z</time>
      </trkpt>
      <trkpt lat="45.02045" lon="6.04994">
        <ele>1356</ele>
        <time>2021-12-29T09:20:37Z</time>
      </trkpt>
      <trkpt lat="45.02009" lon="6.05022">
        <ele>1361</ele>
        <time>2021-12-29T09:20:45Z</time>
      </trkpt>
      <trkpt lat="45.01994" lon="6.05047">
        <ele>1358</ele>
        <time>2021-12-29T09:20:49Z</time>
      </trkpt>
      <trkpt lat="45.01985" lon="6.0505">
        <ele>1359</ele>
        <time>2021-12-29T09:20:51Z</time>
      </trkpt>
      <trkpt lat="45.01978" lon="6.05042">
        <ele>1363</ele>
        <time>2021-12-29T09:20:52Z</time>
      </trkpt>
      <trkpt lat="45.01973" lon="6.05027">
        <ele>1369</ele>
        <time>2021-12-29T09:20:54Z</time>
      </trkpt>
      <trkpt lat="45.01959" lon="6.05018">
        <ele>1375</ele>
        <time>2021-12-29T09:20:57Z</time>
      </trkpt>
      <trkpt lat="45.01919" lon="6.05032">
        <ele>1381</ele>
        <time>2021-12-29T09:21:04Z</time>
      </trkpt>
      <trkpt lat="45.01887" lon="6.05032">
        <ele>1378</ele>
        <time>2021-12-29T09:21:10Z</time>
      </trkpt>
      <trkpt lat="45.01821" lon="6.05008">
        <ele>1369</ele>
        <time>2021-12-29T09:21:22Z</time>
      </trkpt>
      <trkpt lat="45.01789" lon="6.05031">
        <ele>1342</ele>
        <time>2021-12-29T09:21:28Z</time>
      </trkpt>
      <trkpt lat="45.01779" lon="6.05021">
        <ele>1339</ele>
        <time>2021-12-29T09:21:31Z</time>
      </trkpt>
      <trkpt lat="45.01785" lon="6.05008">
        <ele>1348</ele>
        <time>2021-12-29T09:21:33Z</time>
      </trkpt>
      <trkpt lat="45.0181" lon="6.05001">
        <ele>1365</ele>
        <time>2021-12-29T09:21:37Z</time>
      </trkpt>
      <trkpt lat="45.01828" lon="6.04983">
        <ele>1378</ele>
        <time>2021-12-29T09:21:41Z</time>
      </trkpt>
      <trkpt lat="45.01852" lon="6.04971">
        <ele>1386</ele>
        <time>2021-12-29T09:21:46Z</time>
      </trkpt>
      <trkpt lat="45.01863" lon="6.04957">
        <ele>1390</ele>
        <time>2021-12-29T09:21:48Z</time>
      </trkpt>
      <trkpt lat="45.01877" lon="6.049">
        <ele>1399</ele>
        <time>2021-12-29T09:21:56Z</time>
      </trkpt>
      <trkpt lat="45.01901" lon="6.04875">
        <ele>1401</ele>
        <time>2021-12-29T09:22:01Z</time>
      </trkpt>
      <trkpt lat="45.01904" lon="6.04856">
        <ele>1401</ele>
        <time>2021-12-29T09:22:04Z</time>
      </trkpt>
      <trkpt lat="45.01896" lon="6.04826">
        <ele>1403</ele>
        <time>2021-12-29T09:22:08Z</time>
      </trkpt>
      <trkpt lat="45.01885" lon="6.0482">
        <ele>1405</ele>
        <time>2021-12-29T09:22:10Z</time>
      </trkpt>
      <trkpt lat="45.01827" lon="6.04809">
        <ele>1409</ele>
        <time>2021-12-29T09:22:20Z</time>
      </trkpt>
      <trkpt lat="45.01778" lon="6.04782">
        <ele>1408</ele>
        <time>2021-12-29T09:22:29Z</time>
      </trkpt>
      <trkpt lat="45.01753" lon="6.04762">
        <ele>1410</ele>
        <time>2021-12-29T09:22:35Z</time>
      </trkpt>
      <trkpt lat="45.01717" lon="6.04727">
        <ele>1405</ele>
        <time>2021-12-29T09:22:42Z</time>
      </trkpt>
      <trkpt lat="45.01694" lon="6.04696">
        <ele>1400</ele>
        <time>2021-12-29T09:22:48Z</time>
      </trkpt>
      <trkpt lat="45.01694" lon="6.04683">
        <ele>1403</ele>
        <time>2021-12-29T09:22:50Z</time>
      </trkpt>
      <trkpt lat="45.017" lon="6.04679">
        <ele>1407</ele>
        <time>2021-12-29T09:22:51Z</time>
      </trkpt>
      <trkpt lat="45.01719" lon="6.04712">
        <ele>1409</ele>
        <time>2021-12-29T09:22:56Z</time>
      </trkpt>
      <trkpt lat="45.01746" lon="6.0473">
        <ele>1417</ele>
        <time>2021-12-29T09:23:01Z</time>
      </trkpt>
      <trkpt lat="45.01763" lon="6.04732">
        <ele>1421</ele>
        <time>2021-12-29T09:23:05Z</time>
      </trkpt>
      <trkpt lat="45.01851" lon="6.04721">
        <ele>1438</ele>
        <time>2021-12-29T09:23:20Z</time>
      </trkpt>
      <trkpt lat="45.01878" lon="6.04726">
        <ele>1434</ele>
        <time>2021-12-29T09:23:25Z</time>
      </trkpt>
      <trkpt lat="45.01882" lon="6.04722">
        <ele>1435</ele>
        <time>2021-12-29T09:23:26Z</time>
      </trkpt>
      <trkpt lat="45.01881" lon="6.04711">
        <ele>1440</ele>
        <time>2021-12-29T09:23:27Z</time>
      </trkpt>
      <trkpt lat="45.01839" lon="6.04708">
        <ele>1444</ele>
        <time>2021-12-29T09:23:35Z</time>
      </trkpt>
      <trkpt lat="45.0178" lon="6.04691">
        <ele>1437</ele>
        <time>2021-12-29T09:23:46Z</time>
      </trkpt>
      <trkpt lat="45.01763" lon="6.04663">
        <ele>1439</ele>
        <time>2021-12-29T09:23:50Z</time>
      </trkpt>
      <trkpt lat="45.01769" lon="6.0464">
        <ele>1439</ele>
        <time>2021-12-29T09:23:53Z</time>
      </trkpt>
      <trkpt lat="45.01794" lon="6.0459">
        <ele>1446</ele>
        <time>2021-12-29T09:24:01Z</time>
      </trkpt>
      <trkpt lat="45.0181" lon="6.0456">
        <ele>1455</ele>
        <time>2021-12-29T09:24:06Z</time>
      </trkpt>
      <trkpt lat="45.0182" lon="6.04521">
        <ele>1462</ele>
        <time>2021-12-29T09:24:11Z</time>
      </trkpt>
      <trkpt lat="45.01819" lon="6.04498">
        <ele>1462</ele>
        <time>2021-12-29T09:24:14Z</time>
      </trkpt>
      <trkpt lat="45.0182" lon="6.04483">
        <ele>1465</ele>
        <time>2021-12-29T09:24:16Z</time>
      </trkpt>
      <trkpt lat="45.0182" lon="6.04452">
        <ele>1470</ele>
        <time>2021-12-29T09:24:20Z</time>
      </trkpt>
      <trkpt lat="45.01818" lon="6.04439">
        <ele>1471</ele>
        <time>2021-12-29T09:24:21Z</time>
      </trkpt>
      <trkpt lat="45.01821" lon="6.0443">
        <ele>1475</ele>
        <time>2021-12-29T09:24:23Z</time>
      </trkpt>
      <trkpt lat="45.0182" lon="6.04412">
        <ele>1477</ele>
        <time>2021-12-29T09:24:25Z</time>
      </trkpt>
      <trkpt lat="45.01805" lon="6.04358">
        <ele>1482</ele>
        <time>2021-12-29T09:24:32Z</time>
      </trkpt>
      <trkpt lat="45.01798" lon="6.04336">
        <ele>1484</ele>
        <time>2021-12-29T09:24:35Z</time>
      </trkpt>
      <trkpt lat="45.01785" lon="6.04306">
        <ele>1481</ele>
        <time>2021-12-29T09:24:40Z</time>
      </trkpt>
      <trkpt lat="45.01778" lon="6.04258">
        <ele>1486</ele>
        <time>2021-12-29T09:24:46Z</time>
      </trkpt>
      <trkpt lat="45.01776" lon="6.04232">
        <ele>1487</ele>
        <time>2021-12-29T09:24:49Z</time>
      </trkpt>
      <trkpt lat="45.01776" lon="6.04211">
        <ele>1488</ele>
        <time>2021-12-29T09:24:52Z</time>
      </trkpt>
      <trkpt lat="45.01784" lon="6.04151">
        <ele>1495</ele>
        <time>2021-12-29T09:24:59Z</time>
      </trkpt>
      <trkpt lat="45.01784" lon="6.04124">
        <ele>1496</ele>
        <time>2021-12-29T09:25:03Z</time>
      </trkpt>
      <trkpt lat="45.01781" lon="6.0408">
        <ele>1496</ele>
        <time>2021-12-29T09:25:08Z</time>
      </trkpt>
      <trkpt lat="45.01785" lon="6.0407">
        <ele>1498</ele>
        <time>2021-12-29T09:25:10Z</time>
      </trkpt>
      <trkpt lat="45.01792" lon="6.0407">
        <ele>1502</ele>
        <time>2021-12-29T09:25:11Z</time>
      </trkpt>
      <trkpt lat="45.01792" lon="6.04081">
        <ele>1502</ele>
        <time>2021-12-29T09:25:12Z</time>
      </trkpt>
      <trkpt lat="45.0179" lon="6.04094">
        <ele>1500</ele>
        <time>2021-12-29T09:25:14Z</time>
      </trkpt>
      <trkpt lat="45.0179" lon="6.04108">
        <ele>1500</ele>
        <time>2021-12-29T09:25:16Z</time>
      </trkpt>
      <trkpt lat="45.01797" lon="6.04157">
        <ele>1502</ele>
        <time>2021-12-29T09:25:22Z</time>
      </trkpt>
      <trkpt lat="45.01814" lon="6.04243">
        <ele>1506</ele>
        <time>2021-12-29T09:25:33Z</time>
      </trkpt>
      <trkpt lat="45.01827" lon="6.04285">
        <ele>1508</ele>
        <time>2021-12-29T09:25:39Z</time>
      </trkpt>
      <trkpt lat="45.01834" lon="6.04299">
        <ele>1510</ele>
        <time>2021-12-29T09:25:41Z</time>
      </trkpt>
      <trkpt lat="45.01871" lon="6.04334">
        <ele>1521</ele>
        <time>2021-12-29T09:25:49Z</time>
      </trkpt>
      <trkpt lat="45.01885" lon="6.04354">
        <ele>1522</ele>
        <time>2021-12-29T09:25:53Z</time>
      </trkpt>
      <trkpt lat="45.01905" lon="6.04415">
        <ele>1518</ele>
        <time>2021-12-29T09:26:01Z</time>
      </trkpt>
      <trkpt lat="45.01913" lon="6.04422">
        <ele>1520</ele>
        <time>2021-12-29T09:26:03Z</time>
      </trkpt>
      <trkpt lat="45.01932" lon="6.04424">
        <ele>1518</ele>
        <time>2021-12-29T09:26:06Z</time>
      </trkpt>
      <trkpt lat="45.01952" lon="6.04421">
        <ele>1515</ele>
        <time>2021-12-29T09:26:10Z</time>
      </trkpt>
      <trkpt lat="45.01991" lon="6.04375">
        <ele>1524</ele>
        <time>2021-12-29T09:26:19Z</time>
      </trkpt>
      <trkpt lat="45.0199" lon="6.0436">
        <ele>1530</ele>
        <time>2021-12-29T09:26:21Z</time>
      </trkpt>
      <trkpt lat="45.01986" lon="6.04357">
        <ele>1531</ele>
        <time>2021-12-29T09:26:22Z</time>
      </trkpt>
      <trkpt lat="45.01977" lon="6.04362">
        <ele>1530</ele>
        <time>2021-12-29T09:26:23Z</time>
      </trkpt>
      <trkpt lat="45.01963" lon="6.04374">
        <ele>1527</ele>
        <time>2021-12-29T09:26:26Z</time>
      </trkpt>
      <trkpt lat="45.01952" lon="6.04368">
        <ele>1530</ele>
        <time>2021-12-29T09:26:28Z</time>
      </trkpt>
      <trkpt lat="45.0194" lon="6.0432">
        <ele>1542</ele>
        <time>2021-12-29T09:26:35Z</time>
      </trkpt>
      <trkpt lat="45.01936" lon="6.04309">
        <ele>1544</ele>
        <time>2021-12-29T09:26:36Z</time>
      </trkpt>
      <trkpt lat="45.0192" lon="6.04289">
        <ele>1546</ele>
        <time>2021-12-29T09:26:40Z</time>
      </trkpt>
      <trkpt lat="45.01877" lon="6.04214">
        <ele>1540</ele>
        <time>2021-12-29T09:26:52Z</time>
      </trkpt>
      <trkpt lat="45.01874" lon="6.04203">
        <ele>1541</ele>
        <time>2021-12-29T09:26:54Z</time>
      </trkpt>
      <trkpt lat="45.01869" lon="6.04184">
        <ele>1542</ele>
        <time>2021-12-29T09:26:56Z</time>
      </trkpt>
      <trkpt lat="45.01867" lon="6.04145">
        <ele>1544</ele>
        <time>2021-12-29T09:27:01Z</time>
      </trkpt>
      <trkpt lat="45.01873" lon="6.04108">
        <ele>1549</ele>
        <time>2021-12-29T09:27:06Z</time>
      </trkpt>
      <trkpt lat="45.01898" lon="6.04041">
        <ele>1562</ele>
        <time>2021-12-29T09:27:15Z</time>
      </trkpt>
      <trkpt lat="45.01902" lon="6.04013">
        <ele>1561</ele>
        <time>2021-12-29T09:27:19Z</time>
      </trkpt>
      <trkpt lat="45.01901" lon="6.03994">
        <ele>1560</ele>
        <time>2021-12-29T09:27:21Z</time>
      </trkpt>
      <trkpt lat="45.01896" lon="6.03934">
        <ele>1556</ele>
        <time>2021-12-29T09:27:29Z</time>
      </trkpt>
      <trkpt lat="45.019" lon="6.03907">
        <ele>1559</ele>
        <time>2021-12-29T09:27:32Z</time>
      </trkpt>
      <trkpt lat="45.01919" lon="6.03856">
        <ele>1570</ele>
        <time>2021-12-29T09:27:40Z</time>
      </trkpt>
      <trkpt lat="45.01923" lon="6.03829">
        <ele>1573</ele>
        <time>2021-12-29T09:27:43Z</time>
      </trkpt>
      <trkpt lat="45.01912" lon="6.03811">
        <ele>1574</ele>
        <time>2021-12-29T09:27:46Z</time>
      </trkpt>
      <trkpt lat="45.01866" lon="6.03776">
        <ele>1574</ele>
        <time>2021-12-29T09:27:55Z</time>
      </trkpt>
      <trkpt lat="45.01838" lon="6.03761">
        <ele>1575</ele>
        <time>2021-12-29T09:28:01Z</time>
      </trkpt>
      <trkpt lat="45.0184" lon="6.03754">
        <ele>1577</ele>
        <time>2021-12-29T09:28:02Z</time>
      </trkpt>
      <trkpt lat="45.01855" lon="6.03755">
        <ele>1579</ele>
        <time>2021-12-29T09:28:04Z</time>
      </trkpt>
      <trkpt lat="45.01954" lon="6.03734">
        <ele>1597</ele>
        <time>2021-12-29T09:28:22Z</time>
      </trkpt>
      <trkpt lat="45.01974" lon="6.03738">
        <ele>1600</ele>
        <time>2021-12-29T09:28:26Z</time>
      </trkpt>
      <trkpt lat="45.01996" lon="6.03759">
        <ele>1602</ele>
        <time>2021-12-29T09:28:31Z</time>
      </trkpt>
      <trkpt lat="45.02005" lon="6.03757">
        <ele>1604</ele>
        <time>2021-12-29T09:28:32Z</time>
      </trkpt>
      <trkpt lat="45.02004" lon="6.03744">
        <ele>1605</ele>
        <time>2021-12-29T09:28:34Z</time>
      </trkpt>
      <trkpt lat="45.01973" lon="6.03697">
        <ele>1607</ele>
        <time>2021-12-29T09:28:42Z</time>
      </trkpt>
      <trkpt lat="45.01888" lon="6.0363">
        <ele>1609</ele>
        <time>2021-12-29T09:28:59Z</time>
      </trkpt>
      <trkpt lat="45.0186" lon="6.03613">
        <ele>1608</ele>
        <time>2021-12-29T09:29:05Z</time>
      </trkpt>
      <trkpt lat="45.01858" lon="6.03606">
        <ele>1609</ele>
        <time>2021-12-29T09:29:06Z</time>
      </trkpt>
      <trkpt lat="45.01864" lon="6.03602">
        <ele>1611</ele>
        <time>2021-12-29T09:29:07Z</time>
      </trkpt>
      <trkpt lat="45.01893" lon="6.03608">
        <ele>1615</ele>
        <time>2021-12-29T09:29:12Z</time>
      </trkpt>
      <trkpt lat="45.01916" lon="6.03606">
        <ele>1620</ele>
        <time>2021-12-29T09:29:16Z</time>
      </trkpt>
      <trkpt lat="45.01962" lon="6.03599">
        <ele>1625</ele>
        <time>2021-12-29T09:29:24Z</time>
      </trkpt>
      <trkpt lat="45.01978" lon="6.03612">
        <ele>1624</ele>
        <time>2021-12-29T09:29:28Z</time>
      </trkpt>
      <trkpt lat="45.0199" lon="6.0362">
        <ele>1623</ele>
        <time>2021-12-29T09:29:30Z</time>
      </trkpt>
      <trkpt lat="45.0201" lon="6.03615">
        <ele>1626</ele>
        <time>2021-12-29T09:29:34Z</time>
      </trkpt>
      <trkpt lat="45.02067" lon="6.03592">
        <ele>1637</ele>
        <time>2021-12-29T09:29:44Z</time>
      </trkpt>
      <trkpt lat="45.02098" lon="6.03564">
        <ele>1646</ele>
        <time>2021-12-29T09:29:51Z</time>
      </trkpt>
      <trkpt lat="45.02114" lon="6.03569">
        <ele>1647</ele>
        <time>2021-12-29T09:29:54Z</time>
      </trkpt>
      <trkpt lat="45.02124" lon="6.0358">
        <ele>1647</ele>
        <time>2021-12-29T09:29:56Z</time>
      </trkpt>
      <trkpt lat="45.02135" lon="6.03601">
        <ele>1646</ele>
        <time>2021-12-29T09:29:59Z</time>
      </trkpt>
      <trkpt lat="45.02154" lon="6.03627">
        <ele>1647</ele>
        <time>2021-12-29T09:30:04Z</time>
      </trkpt>
      <trkpt lat="45.02169" lon="6.03695">
        <ele>1649</ele>
        <time>2021-12-29T09:30:13Z</time>
      </trkpt>
      <trkpt lat="45.02177" lon="6.03781">
        <ele>1649</ele>
        <time>2021-12-29T09:30:24Z</time>
      </trkpt>
      <trkpt lat="45.02186" lon="6.03791">
        <ele>1647</ele>
        <time>2021-12-29T09:30:26Z</time>
      </trkpt>
      <trkpt lat="45.02203" lon="6.03796">
        <ele>1645</ele>
        <time>2021-12-29T09:30:29Z</time>
      </trkpt>
      <trkpt lat="45.02219" lon="6.03792">
        <ele>1644</ele>
        <time>2021-12-29T09:30:32Z</time>
      </trkpt>
      <trkpt lat="45.02266" lon="6.03758">
        <ele>1643</ele>
        <time>2021-12-29T09:30:41Z</time>
      </trkpt>
      <trkpt lat="45.0235" lon="6.03696">
        <ele>1644</ele>
        <time>2021-12-29T09:30:58Z</time>
      </trkpt>
      <trkpt lat="45.02427" lon="6.03654">
        <ele>1649</ele>
        <time>2021-12-29T09:31:13Z</time>
      </trkpt>
      <trkpt lat="45.02461" lon="6.03642">
        <ele>1648</ele>
        <time>2021-12-29T09:31:19Z</time>
      </trkpt>
      <trkpt lat="45.02514" lon="6.03587">
        <ele>1658</ele>
        <time>2021-12-29T09:31:31Z</time>
      </trkpt>
      <trkpt lat="45.02541" lon="6.03572">
        <ele>1657</ele>
        <time>2021-12-29T09:31:36Z</time>
      </trkpt>
      <trkpt lat="45.02564" lon="6.03548">
        <ele>1657</ele>
        <time>2021-12-29T09:31:41Z</time>
      </trkpt>
      <trkpt lat="45.02582" lon="6.03513">
        <ele>1659</ele>
        <time>2021-12-29T09:31:46Z</time>
      </trkpt>
      <trkpt lat="45.0259" lon="6.03485">
        <ele>1662</ele>
        <time>2021-12-29T09:31:50Z</time>
      </trkpt>
      <trkpt lat="45.02599" lon="6.03443">
        <ele>1670</ele>
        <time>2021-12-29T09:31:56Z</time>
      </trkpt>
      <trkpt lat="45.02615" lon="6.034">
        <ele>1673</ele>
        <time>2021-12-29T09:32:02Z</time>
      </trkpt>
      <trkpt lat="45.02648" lon="6.03355">
        <ele>1668</ele>
        <time>2021-12-29T09:32:10Z</time>
      </trkpt>
      <trkpt lat="45.02694" lon="6.03238">
        <ele>1671</ele>
        <time>2021-12-29T09:32:27Z</time>
      </trkpt>
      <trkpt lat="45.02701" lon="6.03184">
        <ele>1686</ele>
        <time>2021-12-29T09:32:34Z</time>
      </trkpt>
      <trkpt lat="45.02715" lon="6.03169">
        <ele>1686</ele>
        <time>2021-12-29T09:32:37Z</time>
      </trkpt>
      <trkpt lat="45.02771" lon="6.03199">
        <ele>1659</ele>
        <time>2021-12-29T09:32:47Z</time>
      </trkpt>
      <trkpt lat="45.02832" lon="6.0326">
        <ele>1634</ele>
        <time>2021-12-29T09:33:01Z</time>
      </trkpt>
      <trkpt lat="45.02843" lon="6.03244">
        <ele>1634</ele>
        <time>2021-12-29T09:33:03Z</time>
      </trkpt>
      <trkpt lat="45.02851" lon="6.03216">
        <ele>1640</ele>
        <time>2021-12-29T09:33:07Z</time>
      </trkpt>
      <trkpt lat="45.02854" lon="6.03168">
        <ele>1656</ele>
        <time>2021-12-29T09:33:13Z</time>
      </trkpt>
      <trkpt lat="45.02863" lon="6.03128">
        <ele>1666</ele>
        <time>2021-12-29T09:33:19Z</time>
      </trkpt>
      <trkpt lat="45.02893" lon="6.03052">
        <ele>1679</ele>
        <time>2021-12-29T09:33:30Z</time>
      </trkpt>
      <trkpt lat="45.02905" lon="6.03052">
        <ele>1672</ele>
        <time>2021-12-29T09:33:32Z</time>
      </trkpt>
      <trkpt lat="45.02924" lon="6.03069">
        <ele>1656</ele>
        <time>2021-12-29T09:33:36Z</time>
      </trkpt>
      <trkpt lat="45.02951" lon="6.03071">
        <ele>1651</ele>
        <time>2021-12-29T09:33:41Z</time>
      </trkpt>
      <trkpt lat="45.03001" lon="6.03066">
        <ele>1647</ele>
        <time>2021-12-29T09:33:49Z</time>
      </trkpt>
      <trkpt lat="45.03029" lon="6.03067">
        <ele>1637</ele>
        <time>2021-12-29T09:33:54Z</time>
      </trkpt>
      <trkpt lat="45.03041" lon="6.03061">
        <ele>1635</ele>
        <time>2021-12-29T09:33:57Z</time>
      </trkpt>
      <trkpt lat="45.03057" lon="6.03034">
        <ele>1637</ele>
        <time>2021-12-29T09:34:01Z</time>
      </trkpt>
      <trkpt lat="45.03076" lon="6.02976">
        <ele>1642</ele>
        <time>2021-12-29T09:34:09Z</time>
      </trkpt>
      <trkpt lat="45.03081" lon="6.02899">
        <ele>1656</ele>
        <time>2021-12-29T09:34:19Z</time>
      </trkpt>
      <trkpt lat="45.03099" lon="6.02851">
        <ele>1658</ele>
        <time>2021-12-29T09:34:26Z</time>
      </trkpt>
      <trkpt lat="45.03106" lon="6.02824">
        <ele>1663</ele>
        <time>2021-12-29T09:34:29Z</time>
      </trkpt>
      <trkpt lat="45.03117" lon="6.02803">
        <ele>1664</ele>
        <time>2021-12-29T09:34:33Z</time>
      </trkpt>
      <trkpt lat="45.03189" lon="6.02786">
        <ele>1631</ele>
        <time>2021-12-29T09:34:46Z</time>
      </trkpt>
      <trkpt lat="45.03211" lon="6.0274">
        <ele>1637</ele>
        <time>2021-12-29T09:34:53Z</time>
      </trkpt>
      <trkpt lat="45.03245" lon="6.02648">
        <ele>1652</ele>
        <time>2021-12-29T09:35:06Z</time>
      </trkpt>
      <trkpt lat="45.03267" lon="6.0262">
        <ele>1651</ele>
        <time>2021-12-29T09:35:11Z</time>
      </trkpt>
      <trkpt lat="45.03298" lon="6.02602">
        <ele>1642</ele>
        <time>2021-12-29T09:35:17Z</time>
      </trkpt>
      <trkpt lat="45.0332" lon="6.02577">
        <ele>1643</ele>
        <time>2021-12-29T09:35:22Z</time>
      </trkpt>
      <trkpt lat="45.03338" lon="6.02568">
        <ele>1639</ele>
        <time>2021-12-29T09:35:25Z</time>
      </trkpt>
      <trkpt lat="45.03364" lon="6.02566">
        <ele>1630</ele>
        <time>2021-12-29T09:35:30Z</time>
      </trkpt>
      <trkpt lat="45.03385" lon="6.0257">
        <ele>1620</ele>
        <time>2021-12-29T09:35:34Z</time>
      </trkpt>
      <trkpt lat="45.03401" lon="6.02552">
        <ele>1622</ele>
        <time>2021-12-29T09:35:37Z</time>
      </trkpt>
      <trkpt lat="45.03411" lon="6.02521">
        <ele>1633</ele>
        <time>2021-12-29T09:35:42Z</time>
      </trkpt>
      <trkpt lat="45.03421" lon="6.02478">
        <ele>1646</ele>
        <time>2021-12-29T09:35:47Z</time>
      </trkpt>
      <trkpt lat="45.03435" lon="6.02472">
        <ele>1637</ele>
        <time>2021-12-29T09:35:50Z</time>
      </trkpt>
      <trkpt lat="45.03443" lon="6.02451">
        <ele>1640</ele>
        <time>2021-12-29T09:35:53Z</time>
      </trkpt>
      <trkpt lat="45.03443" lon="6.0241">
        <ele>1660</ele>
        <time>2021-12-29T09:35:58Z</time>
      </trkpt>
      <trkpt lat="45.0346" lon="6.02375">
        <ele>1666</ele>
        <time>2021-12-29T09:36:03Z</time>
      </trkpt>
      <trkpt lat="45.03478" lon="6.02355">
        <ele>1664</ele>
        <time>2021-12-29T09:36:07Z</time>
      </trkpt>
      <trkpt lat="45.03564" lon="6.02296">
        <ele>1649</ele>
        <time>2021-12-29T09:36:24Z</time>
      </trkpt>
      <trkpt lat="45.03574" lon="6.02286">
        <ele>1648</ele>
        <time>2021-12-29T09:36:27Z</time>
      </trkpt>
      <trkpt lat="45.03584" lon="6.02264">
        <ele>1653</ele>
        <time>2021-12-29T09:36:30Z</time>
      </trkpt>
      <trkpt lat="45.03592" lon="6.02236">
        <ele>1659</ele>
        <time>2021-12-29T09:36:34Z</time>
      </trkpt>
      <trkpt lat="45.03614" lon="6.02198">
        <ele>1655</ele>
        <time>2021-12-29T09:36:40Z</time>
      </trkpt>
      <trkpt lat="45.03626" lon="6.0218">
        <ele>1651</ele>
        <time>2021-12-29T09:36:43Z</time>
      </trkpt>
      <trkpt lat="45.03629" lon="6.02167">
        <ele>1653</ele>
        <time>2021-12-29T09:36:45Z</time>
      </trkpt>
      <trkpt lat="45.03627" lon="6.02155">
        <ele>1657</ele>
        <time>2021-12-29T09:36:46Z</time>
      </trkpt>
      <trkpt lat="45.03614" lon="6.02136">
        <ele>1670</ele>
        <time>2021-12-29T09:36:50Z</time>
      </trkpt>
      <trkpt lat="45.03612" lon="6.02126">
        <ele>1673</ele>
        <time>2021-12-29T09:36:51Z</time>
      </trkpt>
      <trkpt lat="45.03611" lon="6.02102">
        <ele>1678</ele>
        <time>2021-12-29T09:36:54Z</time>
      </trkpt>
      <trkpt lat="45.03618" lon="6.02074">
        <ele>1677</ele>
        <time>2021-12-29T09:36:58Z</time>
      </trkpt>
      <trkpt lat="45.03641" lon="6.02031">
        <ele>1669</ele>
        <time>2021-12-29T09:37:04Z</time>
      </trkpt>
      <trkpt lat="45.03662" lon="6.01998">
        <ele>1669</ele>
        <time>2021-12-29T09:37:10Z</time>
      </trkpt>
      <trkpt lat="45.03673" lon="6.01985">
        <ele>1669</ele>
        <time>2021-12-29T09:37:13Z</time>
      </trkpt>
      <trkpt lat="45.03684" lon="6.01966">
        <ele>1671</ele>
        <time>2021-12-29T09:37:16Z</time>
      </trkpt>
      <trkpt lat="45.03693" lon="6.01954">
        <ele>1672</ele>
        <time>2021-12-29T09:37:18Z</time>
      </trkpt>
      <trkpt lat="45.03694" lon="6.01947">
        <ele>1674</ele>
        <time>2021-12-29T09:37:19Z</time>
      </trkpt>
      <trkpt lat="45.03691" lon="6.01944">
        <ele>1675</ele>
        <time>2021-12-29T09:37:19Z</time>
      </trkpt>
      <trkpt lat="45.03681" lon="6.01949">
        <ele>1675</ele>
        <time>2021-12-29T09:37:21Z</time>
      </trkpt>
      <trkpt lat="45.03664" lon="6.01979">
        <ele>1672</ele>
        <time>2021-12-29T09:37:26Z</time>
      </trkpt>
      <trkpt lat="45.03635" lon="6.01999">
        <ele>1675</ele>
        <time>2021-12-29T09:37:32Z</time>
      </trkpt>
      <trkpt lat="45.03629" lon="6.02001">
        <ele>1677</ele>
        <time>2021-12-29T09:37:33Z</time>
      </trkpt>
      <trkpt lat="45.03621" lon="6.01998">
        <ele>1679</ele>
        <time>2021-12-29T09:37:34Z</time>
      </trkpt>
      <trkpt lat="45.03618" lon="6.01991">
        <ele>1680</ele>
        <time>2021-12-29T09:37:35Z</time>
      </trkpt>
      <trkpt lat="45.03613" lon="6.01973">
        <ele>1681</ele>
        <time>2021-12-29T09:37:38Z</time>
      </trkpt>
      <trkpt lat="45.03609" lon="6.01964">
        <ele>1682</ele>
        <time>2021-12-29T09:37:39Z</time>
      </trkpt>
      <trkpt lat="45.03575" lon="6.01889">
        <ele>1678</ele>
        <time>2021-12-29T09:37:50Z</time>
      </trkpt>
      <trkpt lat="45.0357" lon="6.01874">
        <ele>1677</ele>
        <time>2021-12-29T09:37:53Z</time>
      </trkpt>
      <trkpt lat="45.03567" lon="6.01857">
        <ele>1675</ele>
        <time>2021-12-29T09:37:55Z</time>
      </trkpt>
      <trkpt lat="45.03567" lon="6.0184">
        <ele>1674</ele>
        <time>2021-12-29T09:37:57Z</time>
      </trkpt>
      <trkpt lat="45.03573" lon="6.01821">
        <ele>1674</ele>
        <time>2021-12-29T09:38:00Z</time>
      </trkpt>
      <trkpt lat="45.03576" lon="6.01779">
        <ele>1673</ele>
        <time>2021-12-29T09:38:05Z</time>
      </trkpt>
      <trkpt lat="45.03568" lon="6.01725">
        <ele>1667</ele>
        <time>2021-12-29T09:38:12Z</time>
      </trkpt>
      <trkpt lat="45.03574" lon="6.01678">
        <ele>1662</ele>
        <time>2021-12-29T09:38:18Z</time>
      </trkpt>
      <trkpt lat="45.03586" lon="6.01641">
        <ele>1657</ele>
        <time>2021-12-29T09:38:23Z</time>
      </trkpt>
      <trkpt lat="45.03607" lon="6.01609">
        <ele>1653</ele>
        <time>2021-12-29T09:38:28Z</time>
      </trkpt>
      <trkpt lat="45.03645" lon="6.01565">
        <ele>1654</ele>
        <time>2021-12-29T09:38:37Z</time>
      </trkpt>
      <trkpt lat="45.03654" lon="6.01538">
        <ele>1652</ele>
        <time>2021-12-29T09:38:41Z</time>
      </trkpt>
      <trkpt lat="45.0366" lon="6.0148">
        <ele>1645</ele>
        <time>2021-12-29T09:38:48Z</time>
      </trkpt>
      <trkpt lat="45.03672" lon="6.01452">
        <ele>1647</ele>
        <time>2021-12-29T09:38:52Z</time>
      </trkpt>
      <trkpt lat="45.03682" lon="6.01432">
        <ele>1650</ele>
        <time>2021-12-29T09:38:55Z</time>
      </trkpt>
      <trkpt lat="45.03684" lon="6.0142">
        <ele>1650</ele>
        <time>2021-12-29T09:38:57Z</time>
      </trkpt>
      <trkpt lat="45.03677" lon="6.01414">
        <ele>1646</ele>
        <time>2021-12-29T09:38:58Z</time>
      </trkpt>
      <trkpt lat="45.03621" lon="6.01499">
        <ele>1634</ele>
        <time>2021-12-29T09:39:13Z</time>
      </trkpt>
      <trkpt lat="45.03583" lon="6.01538">
        <ele>1629</ele>
        <time>2021-12-29T09:39:21Z</time>
      </trkpt>
      <trkpt lat="45.03479" lon="6.0162">
        <ele>1619</ele>
        <time>2021-12-29T09:39:43Z</time>
      </trkpt>
      <trkpt lat="45.03412" lon="6.01678">
        <ele>1615</ele>
        <time>2021-12-29T09:39:57Z</time>
      </trkpt>
      <trkpt lat="45.03368" lon="6.01674">
        <ele>1607</ele>
        <time>2021-12-29T09:40:04Z</time>
      </trkpt>
      <trkpt lat="45.03303" lon="6.01674">
        <ele>1598</ele>
        <time>2021-12-29T09:40:16Z</time>
      </trkpt>
      <trkpt lat="45.03231" lon="6.01712">
        <ele>1598</ele>
        <time>2021-12-29T09:40:30Z</time>
      </trkpt>
      <trkpt lat="45.03105" lon="6.01839">
        <ele>1598</ele>
        <time>2021-12-29T09:40:57Z</time>
      </trkpt>
      <trkpt lat="45.0308" lon="6.01892">
        <ele>1602</ele>
        <time>2021-12-29T09:41:05Z</time>
      </trkpt>
      <trkpt lat="45.03056" lon="6.01928">
        <ele>1606</ele>
        <time>2021-12-29T09:41:11Z</time>
      </trkpt>
      <trkpt lat="45.03025" lon="6.01959">
        <ele>1612</ele>
        <time>2021-12-29T09:41:18Z</time>
      </trkpt>
      <trkpt lat="45.0303" lon="6.01964">
        <ele>1614</ele>
        <time>2021-12-29T09:41:19Z</time>
      </trkpt>
      <trkpt lat="45.02997" lon="6.01971">
        <ele>1614</ele>
        <time>2021-12-29T09:41:25Z</time>
      </trkpt>
      <trkpt lat="45.02958" lon="6.01946">
        <ele>1607</ele>
        <time>2021-12-29T09:41:33Z</time>
      </trkpt>
      <trkpt lat="45.02883" lon="6.0183">
        <ele>1590</ele>
        <time>2021-12-29T09:41:53Z</time>
      </trkpt>
      <trkpt lat="45.02845" lon="6.01778">
        <ele>1582</ele>
        <time>2021-12-29T09:42:02Z</time>
      </trkpt>
      <trkpt lat="45.02802" lon="6.01761">
        <ele>1581</ele>
        <time>2021-12-29T09:42:10Z</time>
      </trkpt>
      <trkpt lat="45.02771" lon="6.01745">
        <ele>1578</ele>
        <time>2021-12-29T09:42:16Z</time>
      </trkpt>
      <trkpt lat="45.02746" lon="6.01744">
        <ele>1579</ele>
        <time>2021-12-29T09:42:20Z</time>
      </trkpt>
      <trkpt lat="45.02743" lon="6.01738">
        <ele>1578</ele>
        <time>2021-12-29T09:42:21Z</time>
      </trkpt>
      <trkpt lat="45.0275" lon="6.0173">
        <ele>1574</ele>
        <time>2021-12-29T09:42:23Z</time>
      </trkpt>
      <trkpt lat="45.02789" lon="6.0173">
        <ele>1573</ele>
        <time>2021-12-29T09:42:30Z</time>
      </trkpt>
      <trkpt lat="45.02828" lon="6.01711">
        <ele>1567</ele>
        <time>2021-12-29T09:42:37Z</time>
      </trkpt>
      <trkpt lat="45.02903" lon="6.0172">
        <ele>1565</ele>
        <time>2021-12-29T09:42:50Z</time>
      </trkpt>
      <trkpt lat="45.02957" lon="6.0171">
        <ele>1563</ele>
        <time>2021-12-29T09:43:00Z</time>
      </trkpt>
      <trkpt lat="45.02983" lon="6.01699">
        <ele>1561</ele>
        <time>2021-12-29T09:43:05Z</time>
      </trkpt>
      <trkpt lat="45.03006" lon="6.01662">
        <ele>1553</ele>
        <time>2021-12-29T09:43:11Z</time>
      </trkpt>
      <trkpt lat="45.03063" lon="6.01631">
        <ele>1548</ele>
        <time>2021-12-29T09:43:22Z</time>
      </trkpt>
      <trkpt lat="45.03102" lon="6.01605">
        <ele>1543</ele>
        <time>2021-12-29T09:43:30Z</time>
      </trkpt>
      <trkpt lat="45.03181" lon="6.01565">
        <ele>1537</ele>
        <time>2021-12-29T09:43:45Z</time>
      </trkpt>
      <trkpt lat="45.03221" lon="6.01529">
        <ele>1531</ele>
        <time>2021-12-29T09:43:53Z</time>
      </trkpt>
      <trkpt lat="45.03251" lon="6.01489">
        <ele>1522</ele>
        <time>2021-12-29T09:44:00Z</time>
      </trkpt>
      <trkpt lat="45.03281" lon="6.01469">
        <ele>1522</ele>
        <time>2021-12-29T09:44:06Z</time>
      </trkpt>
      <trkpt lat="45.03328" lon="6.01447">
        <ele>1522</ele>
        <time>2021-12-29T09:44:15Z</time>
      </trkpt>
      <trkpt lat="45.03361" lon="6.01422">
        <ele>1521</ele>
        <time>2021-12-29T09:44:22Z</time>
      </trkpt>
      <trkpt lat="45.03387" lon="6.01393">
        <ele>1520</ele>
        <time>2021-12-29T09:44:28Z</time>
      </trkpt>
      <trkpt lat="45.03403" lon="6.01359">
        <ele>1517</ele>
        <time>2021-12-29T09:44:33Z</time>
      </trkpt>
      <trkpt lat="45.03414" lon="6.01322">
        <ele>1513</ele>
        <time>2021-12-29T09:44:38Z</time>
      </trkpt>
      <trkpt lat="45.03421" lon="6.01307">
        <ele>1515</ele>
        <time>2021-12-29T09:44:40Z</time>
      </trkpt>
      <trkpt lat="45.03423" lon="6.01296">
        <ele>1515</ele>
        <time>2021-12-29T09:44:42Z</time>
      </trkpt>
      <trkpt lat="45.03411" lon="6.01264">
        <ele>1506</ele>
        <time>2021-12-29T09:44:46Z</time>
      </trkpt>
      <trkpt lat="45.03409" lon="6.01243">
        <ele>1503</ele>
        <time>2021-12-29T09:44:49Z</time>
      </trkpt>
      <trkpt lat="45.03412" lon="6.01214">
        <ele>1498</ele>
        <time>2021-12-29T09:44:52Z</time>
      </trkpt>
      <trkpt lat="45.03418" lon="6.01191">
        <ele>1497</ele>
        <time>2021-12-29T09:44:56Z</time>
      </trkpt>
      <trkpt lat="45.03433" lon="6.01146">
        <ele>1495</ele>
        <time>2021-12-29T09:45:02Z</time>
      </trkpt>
      <trkpt lat="45.03458" lon="6.01085">
        <ele>1490</ele>
        <time>2021-12-29T09:45:11Z</time>
      </trkpt>
      <trkpt lat="45.03489" lon="6.01043">
        <ele>1490</ele>
        <time>2021-12-29T09:45:18Z</time>
      </trkpt>
      <trkpt lat="45.03517" lon="6.01013">
        <ele>1491</ele>
        <time>2021-12-29T09:45:25Z</time>
      </trkpt>
      <trkpt lat="45.03531" lon="6.01003">
        <ele>1494</ele>
        <time>2021-12-29T09:45:27Z</time>
      </trkpt>
      <trkpt lat="45.03534" lon="6.00995">
        <ele>1492</ele>
        <time>2021-12-29T09:45:28Z</time>
      </trkpt>
      <trkpt lat="45.03531" lon="6.0099">
        <ele>1488</ele>
        <time>2021-12-29T09:45:29Z</time>
      </trkpt>
      <trkpt lat="45.03526" lon="6.0099">
        <ele>1486</ele>
        <time>2021-12-29T09:45:30Z</time>
      </trkpt>
      <trkpt lat="45.03496" lon="6.01007">
        <ele>1479</ele>
        <time>2021-12-29T09:45:36Z</time>
      </trkpt>
      <trkpt lat="45.03456" lon="6.01047">
        <ele>1475</ele>
        <time>2021-12-29T09:45:45Z</time>
      </trkpt>
      <trkpt lat="45.03383" lon="6.01136">
        <ele>1467</ele>
        <time>2021-12-29T09:46:02Z</time>
      </trkpt>
      <trkpt lat="45.03366" lon="6.0117">
        <ele>1468</ele>
        <time>2021-12-29T09:46:07Z</time>
      </trkpt>
      <trkpt lat="45.03341" lon="6.01234">
        <ele>1473</ele>
        <time>2021-12-29T09:46:16Z</time>
      </trkpt>
      <trkpt lat="45.03337" lon="6.0124">
        <ele>1473</ele>
        <time>2021-12-29T09:46:17Z</time>
      </trkpt>
      <trkpt lat="45.03326" lon="6.01243">
        <ele>1470</ele>
        <time>2021-12-29T09:46:19Z</time>
      </trkpt>
      <trkpt lat="45.03319" lon="6.01242">
        <ele>1468</ele>
        <time>2021-12-29T09:46:20Z</time>
      </trkpt>
      <trkpt lat="45.03309" lon="6.01234">
        <ele>1464</ele>
        <time>2021-12-29T09:46:23Z</time>
      </trkpt>
      <trkpt lat="45.03293" lon="6.01229">
        <ele>1458</ele>
        <time>2021-12-29T09:46:25Z</time>
      </trkpt>
      <trkpt lat="45.03275" lon="6.0123">
        <ele>1454</ele>
        <time>2021-12-29T09:46:29Z</time>
      </trkpt>
      <trkpt lat="45.03253" lon="6.01235">
        <ele>1451</ele>
        <time>2021-12-29T09:46:33Z</time>
      </trkpt>
      <trkpt lat="45.03218" lon="6.01257">
        <ele>1451</ele>
        <time>2021-12-29T09:46:39Z</time>
      </trkpt>
      <trkpt lat="45.03174" lon="6.01279">
        <ele>1448</ele>
        <time>2021-12-29T09:46:48Z</time>
      </trkpt>
      <trkpt lat="45.03162" lon="6.0129">
        <ele>1450</ele>
        <time>2021-12-29T09:46:50Z</time>
      </trkpt>
      <trkpt lat="45.03153" lon="6.01291">
        <ele>1450</ele>
        <time>2021-12-29T09:46:52Z</time>
      </trkpt>
      <trkpt lat="45.03148" lon="6.01289">
        <ele>1450</ele>
        <time>2021-12-29T09:46:53Z</time>
      </trkpt>
      <trkpt lat="45.03146" lon="6.01284">
        <ele>1449</ele>
        <time>2021-12-29T09:46:54Z</time>
      </trkpt>
      <trkpt lat="45.03149" lon="6.01278">
        <ele>1447</ele>
        <time>2021-12-29T09:46:54Z</time>
      </trkpt>
      <trkpt lat="45.0316" lon="6.01272">
        <ele>1445</ele>
        <time>2021-12-29T09:46:57Z</time>
      </trkpt>
      <trkpt lat="45.03172" lon="6.01262">
        <ele>1444</ele>
        <time>2021-12-29T09:46:59Z</time>
      </trkpt>
      <trkpt lat="45.03209" lon="6.01207">
        <ele>1435</ele>
        <time>2021-12-29T09:47:09Z</time>
      </trkpt>
      <trkpt lat="45.03238" lon="6.01176">
        <ele>1428</ele>
        <time>2021-12-29T09:47:15Z</time>
      </trkpt>
      <trkpt lat="45.03251" lon="6.01168">
        <ele>1427</ele>
        <time>2021-12-29T09:47:18Z</time>
      </trkpt>
      <trkpt lat="45.03277" lon="6.0116">
        <ele>1432</ele>
        <time>2021-12-29T09:47:22Z</time>
      </trkpt>
      <trkpt lat="45.03292" lon="6.01161">
        <ele>1437</ele>
        <time>2021-12-29T09:47:25Z</time>
      </trkpt>
      <trkpt lat="45.03299" lon="6.01157">
        <ele>1438</ele>
        <time>2021-12-29T09:47:26Z</time>
      </trkpt>
      <trkpt lat="45.03303" lon="6.01149">
        <ele>1437</ele>
        <time>2021-12-29T09:47:28Z</time>
      </trkpt>
      <trkpt lat="45.03305" lon="6.01129">
        <ele>1432</ele>
        <time>2021-12-29T09:47:30Z</time>
      </trkpt>
      <trkpt lat="45.03313" lon="6.01106">
        <ele>1428</ele>
        <time>2021-12-29T09:47:33Z</time>
      </trkpt>
      <trkpt lat="45.03318" lon="6.01076">
        <ele>1421</ele>
        <time>2021-12-29T09:47:37Z</time>
      </trkpt>
      <trkpt lat="45.03339" lon="6.01032">
        <ele>1419</ele>
        <time>2021-12-29T09:47:44Z</time>
      </trkpt>
      <trkpt lat="45.03355" lon="6.00985">
        <ele>1413</ele>
        <time>2021-12-29T09:47:50Z</time>
      </trkpt>
      <trkpt lat="45.03369" lon="6.00957">
        <ele>1410</ele>
        <time>2021-12-29T09:47:55Z</time>
      </trkpt>
      <trkpt lat="45.03404" lon="6.00918">
        <ele>1411</ele>
        <time>2021-12-29T09:48:03Z</time>
      </trkpt>
      <trkpt lat="45.03421" lon="6.0089">
        <ele>1407</ele>
        <time>2021-12-29T09:48:07Z</time>
      </trkpt>
      <trkpt lat="45.03436" lon="6.00874">
        <ele>1405</ele>
        <time>2021-12-29T09:48:11Z</time>
      </trkpt>
      <trkpt lat="45.03485" lon="6.00844">
        <ele>1408</ele>
        <time>2021-12-29T09:48:20Z</time>
      </trkpt>
      <trkpt lat="45.03492" lon="6.00835">
        <ele>1406</ele>
        <time>2021-12-29T09:48:22Z</time>
      </trkpt>
      <trkpt lat="45.03508" lon="6.00795">
        <ele>1395</ele>
        <time>2021-12-29T09:48:28Z</time>
      </trkpt>
      <trkpt lat="45.03543" lon="6.00742">
        <ele>1384</ele>
        <time>2021-12-29T09:48:37Z</time>
      </trkpt>
      <trkpt lat="45.03585" lon="6.00692">
        <ele>1375</ele>
        <time>2021-12-29T09:48:46Z</time>
      </trkpt>
      <trkpt lat="45.03712" lon="6.00574">
        <ele>1364</ele>
        <time>2021-12-29T09:49:14Z</time>
      </trkpt>
      <trkpt lat="45.03752" lon="6.00556">
        <ele>1363</ele>
        <time>2021-12-29T09:49:21Z</time>
      </trkpt>
      <trkpt lat="45.03773" lon="6.00553">
        <ele>1361</ele>
        <time>2021-12-29T09:49:25Z</time>
      </trkpt>
      <trkpt lat="45.038" lon="6.00557">
        <ele>1360</ele>
        <time>2021-12-29T09:49:30Z</time>
      </trkpt>
      <trkpt lat="45.03824" lon="6.00575">
        <ele>1366</ele>
        <time>2021-12-29T09:49:34Z</time>
      </trkpt>
      <trkpt lat="45.03825" lon="6.00565">
        <ele>1362</ele>
        <time>2021-12-29T09:49:36Z</time>
      </trkpt>
      <trkpt lat="45.03806" lon="6.00548">
        <ele>1357</ele>
        <time>2021-12-29T09:49:40Z</time>
      </trkpt>
      <trkpt lat="45.03769" lon="6.0053">
        <ele>1352</ele>
        <time>2021-12-29T09:49:47Z</time>
      </trkpt>
      <trkpt lat="45.0373" lon="6.00518">
        <ele>1345</ele>
        <time>2021-12-29T09:49:54Z</time>
      </trkpt>
      <trkpt lat="45.03688" lon="6.00526">
        <ele>1341</ele>
        <time>2021-12-29T09:50:01Z</time>
      </trkpt>
      <trkpt lat="45.03639" lon="6.00544">
        <ele>1330</ele>
        <time>2021-12-29T09:50:10Z</time>
      </trkpt>
      <trkpt lat="45.03602" lon="6.00563">
        <ele>1320</ele>
        <time>2021-12-29T09:50:17Z</time>
      </trkpt>
      <trkpt lat="45.03588" lon="6.00578">
        <ele>1320</ele>
        <time>2021-12-29T09:50:20Z</time>
      </trkpt>
      <trkpt lat="45.03583" lon="6.00576">
        <ele>1316</ele>
        <time>2021-12-29T09:50:21Z</time>
      </trkpt>
      <trkpt lat="45.03582" lon="6.00567">
        <ele>1312</ele>
        <time>2021-12-29T09:50:22Z</time>
      </trkpt>
      <trkpt lat="45.03591" lon="6.00558">
        <ele>1312</ele>
        <time>2021-12-29T09:50:24Z</time>
      </trkpt>
      <trkpt lat="45.03624" lon="6.0053">
        <ele>1317</ele>
        <time>2021-12-29T09:50:31Z</time>
      </trkpt>
      <trkpt lat="45.03644" lon="6.00505">
        <ele>1317</ele>
        <time>2021-12-29T09:50:36Z</time>
      </trkpt>
      <trkpt lat="45.03708" lon="6.00454">
        <ele>1310</ele>
        <time>2021-12-29T09:50:49Z</time>
      </trkpt>
      <trkpt lat="45.03732" lon="6.00451">
        <ele>1312</ele>
        <time>2021-12-29T09:50:53Z</time>
      </trkpt>
      <trkpt lat="45.03832" lon="6.00486">
        <ele>1331</ele>
        <time>2021-12-29T09:51:12Z</time>
      </trkpt>
      <trkpt lat="45.03848" lon="6.00483">
        <ele>1331</ele>
        <time>2021-12-29T09:51:15Z</time>
      </trkpt>
      <trkpt lat="45.03863" lon="6.00437">
        <ele>1314</ele>
        <time>2021-12-29T09:51:21Z</time>
      </trkpt>
      <trkpt lat="45.03891" lon="6.00412">
        <ele>1305</ele>
        <time>2021-12-29T09:51:27Z</time>
      </trkpt>
      <trkpt lat="45.03916" lon="6.00376">
        <ele>1290</ele>
        <time>2021-12-29T09:51:33Z</time>
      </trkpt>
      <trkpt lat="45.03948" lon="6.00335">
        <ele>1287</ele>
        <time>2021-12-29T09:51:41Z</time>
      </trkpt>
      <trkpt lat="45.04027" lon="6.00245">
        <ele>1281</ele>
        <time>2021-12-29T09:51:59Z</time>
      </trkpt>
      <trkpt lat="45.04046" lon="6.00211">
        <ele>1270</ele>
        <time>2021-12-29T09:52:04Z</time>
      </trkpt>
      <trkpt lat="45.04059" lon="6.00185">
        <ele>1264</ele>
        <time>2021-12-29T09:52:08Z</time>
      </trkpt>
      <trkpt lat="45.04072" lon="6.0017">
        <ele>1263</ele>
        <time>2021-12-29T09:52:11Z</time>
      </trkpt>
      <trkpt lat="45.04085" lon="6.00163">
        <ele>1267</ele>
        <time>2021-12-29T09:52:14Z</time>
      </trkpt>
      <trkpt lat="45.04105" lon="6.00159">
        <ele>1269</ele>
        <time>2021-12-29T09:52:17Z</time>
      </trkpt>
      <trkpt lat="45.0412" lon="6.00162">
        <ele>1273</ele>
        <time>2021-12-29T09:52:20Z</time>
      </trkpt>
      <trkpt lat="45.04133" lon="6.00177">
        <ele>1282</ele>
        <time>2021-12-29T09:52:23Z</time>
      </trkpt>
      <trkpt lat="45.04146" lon="6.00186">
        <ele>1288</ele>
        <time>2021-12-29T09:52:26Z</time>
      </trkpt>
      <trkpt lat="45.04166" lon="6.00184">
        <ele>1291</ele>
        <time>2021-12-29T09:52:29Z</time>
      </trkpt>
      <trkpt lat="45.04177" lon="6.00176">
        <ele>1292</ele>
        <time>2021-12-29T09:52:31Z</time>
      </trkpt>
      <trkpt lat="45.04181" lon="6.00168">
        <ele>1290</ele>
        <time>2021-12-29T09:52:33Z</time>
      </trkpt>
      <trkpt lat="45.04181" lon="6.00157">
        <ele>1287</ele>
        <time>2021-12-29T09:52:34Z</time>
      </trkpt>
      <trkpt lat="45.04156" lon="6.00083">
        <ele>1255</ele>
        <time>2021-12-29T09:52:44Z</time>
      </trkpt>
      <trkpt lat="45.04151" lon="6.00054">
        <ele>1244</ele>
        <time>2021-12-29T09:52:48Z</time>
      </trkpt>
      <trkpt lat="45.04158" lon="6.00034">
        <ele>1240</ele>
        <time>2021-12-29T09:52:51Z</time>
      </trkpt>
      <trkpt lat="45.04177" lon="6.0001">
        <ele>1242</ele>
        <time>2021-12-29T09:52:55Z</time>
      </trkpt>
      <trkpt lat="45.04199" lon="5.99992">
        <ele>1249</ele>
        <time>2021-12-29T09:53:00Z</time>
      </trkpt>
      <trkpt lat="45.04226" lon="5.99982">
        <ele>1263</ele>
        <time>2021-12-29T09:53:05Z</time>
      </trkpt>
      <trkpt lat="45.0424" lon="5.9994">
        <ele>1255</ele>
        <time>2021-12-29T09:53:11Z</time>
      </trkpt>
      <trkpt lat="45.04243" lon="5.99923">
        <ele>1250</ele>
        <time>2021-12-29T09:53:13Z</time>
      </trkpt>
      <trkpt lat="45.0424" lon="5.99906">
        <ele>1244</ele>
        <time>2021-12-29T09:53:15Z</time>
      </trkpt>
      <trkpt lat="45.0423" lon="5.9989">
        <ele>1235</ele>
        <time>2021-12-29T09:53:18Z</time>
      </trkpt>
      <trkpt lat="45.04214" lon="5.99872">
        <ele>1222</ele>
        <time>2021-12-29T09:53:22Z</time>
      </trkpt>
      <trkpt lat="45.04203" lon="5.99844">
        <ele>1211</ele>
        <time>2021-12-29T09:53:26Z</time>
      </trkpt>
      <trkpt lat="45.04195" lon="5.9982">
        <ele>1203</ele>
        <time>2021-12-29T09:53:29Z</time>
      </trkpt>
      <trkpt lat="45.04192" lon="5.99787">
        <ele>1200</ele>
        <time>2021-12-29T09:53:33Z</time>
      </trkpt>
      <trkpt lat="45.04198" lon="5.9977">
        <ele>1203</ele>
        <time>2021-12-29T09:53:35Z</time>
      </trkpt>
      <trkpt lat="45.04239" lon="5.99739">
        <ele>1218</ele>
        <time>2021-12-29T09:53:44Z</time>
      </trkpt>
      <trkpt lat="45.04265" lon="5.99726">
        <ele>1221</ele>
        <time>2021-12-29T09:53:49Z</time>
      </trkpt>
      <trkpt lat="45.04297" lon="5.99718">
        <ele>1224</ele>
        <time>2021-12-29T09:53:54Z</time>
      </trkpt>
      <trkpt lat="45.04324" lon="5.99707">
        <ele>1223</ele>
        <time>2021-12-29T09:53:59Z</time>
      </trkpt>
      <trkpt lat="45.04384" lon="5.9969">
        <ele>1221</ele>
        <time>2021-12-29T09:54:10Z</time>
      </trkpt>
      <trkpt lat="45.04434" lon="5.99661">
        <ele>1208</ele>
        <time>2021-12-29T09:54:20Z</time>
      </trkpt>
      <trkpt lat="45.04485" lon="5.99644">
        <ele>1207</ele>
        <time>2021-12-29T09:54:29Z</time>
      </trkpt>
      <trkpt lat="45.04502" lon="5.99635">
        <ele>1206</ele>
        <time>2021-12-29T09:54:32Z</time>
      </trkpt>
      <trkpt lat="45.04515" lon="5.99633">
        <ele>1212</ele>
        <time>2021-12-29T09:54:35Z</time>
      </trkpt>
      <trkpt lat="45.04532" lon="5.99641">
        <ele>1223</ele>
        <time>2021-12-29T09:54:38Z</time>
      </trkpt>
      <trkpt lat="45.04539" lon="5.99638">
        <ele>1225</ele>
        <time>2021-12-29T09:54:39Z</time>
      </trkpt>
      <trkpt lat="45.04544" lon="5.99631">
        <ele>1224</ele>
        <time>2021-12-29T09:54:41Z</time>
      </trkpt>
      <trkpt lat="45.04547" lon="5.99612">
        <ele>1217</ele>
        <time>2021-12-29T09:54:43Z</time>
      </trkpt>
      <trkpt lat="45.04552" lon="5.99567">
        <ele>1199</ele>
        <time>2021-12-29T09:54:49Z</time>
      </trkpt>
      <trkpt lat="45.04569" lon="5.99512">
        <ele>1182</ele>
        <time>2021-12-29T09:54:56Z</time>
      </trkpt>
      <trkpt lat="45.04594" lon="5.99483">
        <ele>1183</ele>
        <time>2021-12-29T09:55:02Z</time>
      </trkpt>
      <trkpt lat="45.04613" lon="5.99466">
        <ele>1187</ele>
        <time>2021-12-29T09:55:06Z</time>
      </trkpt>
      <trkpt lat="45.04637" lon="5.99439">
        <ele>1189</ele>
        <time>2021-12-29T09:55:11Z</time>
      </trkpt>
      <trkpt lat="45.04649" lon="5.99417">
        <ele>1185</ele>
        <time>2021-12-29T09:55:15Z</time>
      </trkpt>
      <trkpt lat="45.04657" lon="5.99385">
        <ele>1170</ele>
        <time>2021-12-29T09:55:19Z</time>
      </trkpt>
      <trkpt lat="45.04693" lon="5.99347">
        <ele>1169</ele>
        <time>2021-12-29T09:55:27Z</time>
      </trkpt>
      <trkpt lat="45.04712" lon="5.99329">
        <ele>1171</ele>
        <time>2021-12-29T09:55:31Z</time>
      </trkpt>
      <trkpt lat="45.04721" lon="5.99312">
        <ele>1169</ele>
        <time>2021-12-29T09:55:34Z</time>
      </trkpt>
      <trkpt lat="45.04728" lon="5.99281">
        <ele>1158</ele>
        <time>2021-12-29T09:55:38Z</time>
      </trkpt>
      <trkpt lat="45.04741" lon="5.99255">
        <ele>1153</ele>
        <time>2021-12-29T09:55:42Z</time>
      </trkpt>
      <trkpt lat="45.04756" lon="5.99242">
        <ele>1153</ele>
        <time>2021-12-29T09:55:45Z</time>
      </trkpt>
      <trkpt lat="45.04781" lon="5.99235">
        <ele>1151</ele>
        <time>2021-12-29T09:55:50Z</time>
      </trkpt>
      <trkpt lat="45.04799" lon="5.99232">
        <ele>1150</ele>
        <time>2021-12-29T09:55:53Z</time>
      </trkpt>
      <trkpt lat="45.0482" lon="5.99239">
        <ele>1154</ele>
        <time>2021-12-29T09:55:57Z</time>
      </trkpt>
      <trkpt lat="45.04839" lon="5.99252">
        <ele>1160</ele>
        <time>2021-12-29T09:56:01Z</time>
      </trkpt>
      <trkpt lat="45.04871" lon="5.99266">
        <ele>1158</ele>
        <time>2021-12-29T09:56:07Z</time>
      </trkpt>
      <trkpt lat="45.05003" lon="5.99305">
        <ele>1139</ele>
        <time>2021-12-29T09:56:30Z</time>
      </trkpt>
      <trkpt lat="45.05023" lon="5.99314">
        <ele>1133</ele>
        <time>2021-12-29T09:56:34Z</time>
      </trkpt>
      <trkpt lat="45.05036" lon="5.99324">
        <ele>1131</ele>
        <time>2021-12-29T09:56:37Z</time>
      </trkpt>
      <trkpt lat="45.05065" lon="5.99369">
        <ele>1138</ele>
        <time>2021-12-29T09:56:45Z</time>
      </trkpt>
      <trkpt lat="45.05072" lon="5.99375">
        <ele>1138</ele>
        <time>2021-12-29T09:56:46Z</time>
      </trkpt>
      <trkpt lat="45.05078" lon="5.9937">
        <ele>1132</ele>
        <time>2021-12-29T09:56:47Z</time>
      </trkpt>
      <trkpt lat="45.05074" lon="5.99357">
        <ele>1128</ele>
        <time>2021-12-29T09:56:49Z</time>
      </trkpt>
      <trkpt lat="45.05066" lon="5.99343">
        <ele>1126</ele>
        <time>2021-12-29T09:56:51Z</time>
      </trkpt>
      <trkpt lat="45.05052" lon="5.99328">
        <ele>1125</ele>
        <time>2021-12-29T09:56:54Z</time>
      </trkpt>
      <trkpt lat="45.05035" lon="5.993">
        <ele>1119</ele>
        <time>2021-12-29T09:56:59Z</time>
      </trkpt>
      <trkpt lat="45.04999" lon="5.9927">
        <ele>1124</ele>
        <time>2021-12-29T09:57:06Z</time>
      </trkpt>
      <trkpt lat="45.04959" lon="5.99242">
        <ele>1121</ele>
        <time>2021-12-29T09:57:14Z</time>
      </trkpt>
      <trkpt lat="45.04921" lon="5.99219">
        <ele>1120</ele>
        <time>2021-12-29T09:57:22Z</time>
      </trkpt>
      <trkpt lat="45.04876" lon="5.99187">
        <ele>1118</ele>
        <time>2021-12-29T09:57:31Z</time>
      </trkpt>
      <trkpt lat="45.04832" lon="5.99145">
        <ele>1114</ele>
        <time>2021-12-29T09:57:40Z</time>
      </trkpt>
      <trkpt lat="45.0481" lon="5.9911">
        <ele>1099</ele>
        <time>2021-12-29T09:57:46Z</time>
      </trkpt>
      <trkpt lat="45.04779" lon="5.99055">
        <ele>1076</ele>
        <time>2021-12-29T09:57:55Z</time>
      </trkpt>
      <trkpt lat="45.04772" lon="5.99059">
        <ele>1077</ele>
        <time>2021-12-29T09:57:56Z</time>
      </trkpt>
      <trkpt lat="45.04763" lon="5.99076">
        <ele>1082</ele>
        <time>2021-12-29T09:57:59Z</time>
      </trkpt>
      <trkpt lat="45.04757" lon="5.99076">
        <ele>1082</ele>
        <time>2021-12-29T09:58:00Z</time>
      </trkpt>
      <trkpt lat="45.04756" lon="5.99067">
        <ele>1079</ele>
        <time>2021-12-29T09:58:01Z</time>
      </trkpt>
      <trkpt lat="45.04769" lon="5.9904">
        <ele>1070</ele>
        <time>2021-12-29T09:58:05Z</time>
      </trkpt>
      <trkpt lat="45.04776" lon="5.99035">
        <ele>1068</ele>
        <time>2021-12-29T09:58:07Z</time>
      </trkpt>
      <trkpt lat="45.04786" lon="5.99041">
        <ele>1071</ele>
        <time>2021-12-29T09:58:09Z</time>
      </trkpt>
      <trkpt lat="45.04814" lon="5.99073">
        <ele>1085</ele>
        <time>2021-12-29T09:58:15Z</time>
      </trkpt>
      <trkpt lat="45.04855" lon="5.99112">
        <ele>1093</ele>
        <time>2021-12-29T09:58:24Z</time>
      </trkpt>
      <trkpt lat="45.04884" lon="5.99134">
        <ele>1091</ele>
        <time>2021-12-29T09:58:30Z</time>
      </trkpt>
      <trkpt lat="45.04938" lon="5.99161">
        <ele>1085</ele>
        <time>2021-12-29T09:58:40Z</time>
      </trkpt>
      <trkpt lat="45.04964" lon="5.99168">
        <ele>1080</ele>
        <time>2021-12-29T09:58:44Z</time>
      </trkpt>
      <trkpt lat="45.04992" lon="5.99172">
        <ele>1073</ele>
        <time>2021-12-29T09:58:50Z</time>
      </trkpt>
      <trkpt lat="45.05001" lon="5.99177">
        <ele>1073</ele>
        <time>2021-12-29T09:58:51Z</time>
      </trkpt>
      <trkpt lat="45.05012" lon="5.99177">
        <ele>1063</ele>
        <time>2021-12-29T09:58:53Z</time>
      </trkpt>
      <trkpt lat="45.05016" lon="5.99173">
        <ele>1057</ele>
        <time>2021-12-29T09:58:54Z</time>
      </trkpt>
      <trkpt lat="45.05013" lon="5.99165">
        <ele>1055</ele>
        <time>2021-12-29T09:58:55Z</time>
      </trkpt>
      <trkpt lat="45.05" lon="5.99151">
        <ele>1059</ele>
        <time>2021-12-29T09:58:58Z</time>
      </trkpt>
      <trkpt lat="45.04984" lon="5.99144">
        <ele>1060</ele>
        <time>2021-12-29T09:59:01Z</time>
      </trkpt>
      <trkpt lat="45.04959" lon="5.99144">
        <ele>1069</ele>
        <time>2021-12-29T09:59:06Z</time>
      </trkpt>
      <trkpt lat="45.04908" lon="5.9911">
        <ele>1071</ele>
        <time>2021-12-29T09:59:16Z</time>
      </trkpt>
      <trkpt lat="45.0487" lon="5.99075">
        <ele>1072</ele>
        <time>2021-12-29T09:59:24Z</time>
      </trkpt>
      <trkpt lat="45.04841" lon="5.99018">
        <ele>1060</ele>
        <time>2021-12-29T09:59:32Z</time>
      </trkpt>
      <trkpt lat="45.04828" lon="5.98964">
        <ele>1044</ele>
        <time>2021-12-29T09:59:40Z</time>
      </trkpt>
      <trkpt lat="45.04798" lon="5.98926">
        <ele>1033</ele>
        <time>2021-12-29T09:59:47Z</time>
      </trkpt>
      <trkpt lat="45.04782" lon="5.98908">
        <ele>1027</ele>
        <time>2021-12-29T09:59:50Z</time>
      </trkpt>
      <trkpt lat="45.04768" lon="5.98898">
        <ele>1023</ele>
        <time>2021-12-29T09:59:53Z</time>
      </trkpt>
      <trkpt lat="45.04755" lon="5.98898">
        <ele>1024</ele>
        <time>2021-12-29T09:59:56Z</time>
      </trkpt>
      <trkpt lat="45.04725" lon="5.98914">
        <ele>1020</ele>
        <time>2021-12-29T10:00:01Z</time>
      </trkpt>
      <trkpt lat="45.04703" lon="5.98933">
        <ele>1015</ele>
        <time>2021-12-29T10:00:06Z</time>
      </trkpt>
      <trkpt lat="45.0469" lon="5.98951">
        <ele>1013</ele>
        <time>2021-12-29T10:00:09Z</time>
      </trkpt>
      <trkpt lat="45.04684" lon="5.98975">
        <ele>1016</ele>
        <time>2021-12-29T10:00:12Z</time>
      </trkpt>
      <trkpt lat="45.04676" lon="5.98984">
        <ele>1014</ele>
        <time>2021-12-29T10:00:14Z</time>
      </trkpt>
      <trkpt lat="45.04671" lon="5.98982">
        <ele>1011</ele>
        <time>2021-12-29T10:00:15Z</time>
      </trkpt>
      <trkpt lat="45.04672" lon="5.98969">
        <ele>1009</ele>
        <time>2021-12-29T10:00:17Z</time>
      </trkpt>
      <trkpt lat="45.04675" lon="5.98959">
        <ele>1008</ele>
        <time>2021-12-29T10:00:18Z</time>
      </trkpt>
      <trkpt lat="45.0469" lon="5.98927">
        <ele>1007</ele>
        <time>2021-12-29T10:00:23Z</time>
      </trkpt>
      <trkpt lat="45.04716" lon="5.98885">
        <ele>1006</ele>
        <time>2021-12-29T10:00:30Z</time>
      </trkpt>
      <trkpt lat="45.04751" lon="5.98849">
        <ele>1004</ele>
        <time>2021-12-29T10:00:38Z</time>
      </trkpt>
      <trkpt lat="45.0476" lon="5.98849">
        <ele>1003</ele>
        <time>2021-12-29T10:00:39Z</time>
      </trkpt>
      <trkpt lat="45.04774" lon="5.98853">
        <ele>1004</ele>
        <time>2021-12-29T10:00:42Z</time>
      </trkpt>
      <trkpt lat="45.04818" lon="5.9888">
        <ele>1013</ele>
        <time>2021-12-29T10:00:50Z</time>
      </trkpt>
      <trkpt lat="45.04848" lon="5.98905">
        <ele>1017</ele>
        <time>2021-12-29T10:00:56Z</time>
      </trkpt>
      <trkpt lat="45.04856" lon="5.98905">
        <ele>1013</ele>
        <time>2021-12-29T10:00:58Z</time>
      </trkpt>
      <trkpt lat="45.04862" lon="5.98902">
        <ele>1009</ele>
        <time>2021-12-29T10:00:59Z</time>
      </trkpt>
      <trkpt lat="45.04863" lon="5.98892">
        <ele>1004</ele>
        <time>2021-12-29T10:01:00Z</time>
      </trkpt>
      <trkpt lat="45.04857" lon="5.98883">
        <ele>1003</ele>
        <time>2021-12-29T10:01:02Z</time>
      </trkpt>
      <trkpt lat="45.04825" lon="5.98851">
        <ele>999</ele>
        <time>2021-12-29T10:01:09Z</time>
      </trkpt>
      <trkpt lat="45.04771" lon="5.9881">
        <ele>987</ele>
        <time>2021-12-29T10:01:20Z</time>
      </trkpt>
      <trkpt lat="45.0475" lon="5.98802">
        <ele>986</ele>
        <time>2021-12-29T10:01:24Z</time>
      </trkpt>
      <trkpt lat="45.04729" lon="5.98806">
        <ele>984</ele>
        <time>2021-12-29T10:01:27Z</time>
      </trkpt>
      <trkpt lat="45.04663" lon="5.98847">
        <ele>982</ele>
        <time>2021-12-29T10:01:40Z</time>
      </trkpt>
      <trkpt lat="45.0465" lon="5.98861">
        <ele>986</ele>
        <time>2021-12-29T10:01:43Z</time>
      </trkpt>
      <trkpt lat="45.04641" lon="5.98885">
        <ele>990</ele>
        <time>2021-12-29T10:01:46Z</time>
      </trkpt>
      <trkpt lat="45.04636" lon="5.98892">
        <ele>990</ele>
        <time>2021-12-29T10:01:48Z</time>
      </trkpt>
      <trkpt lat="45.0463" lon="5.98891">
        <ele>990</ele>
        <time>2021-12-29T10:01:49Z</time>
      </trkpt>
      <trkpt lat="45.04627" lon="5.98887">
        <ele>990</ele>
        <time>2021-12-29T10:01:50Z</time>
      </trkpt>
      <trkpt lat="45.04628" lon="5.98875">
        <ele>990</ele>
        <time>2021-12-29T10:01:51Z</time>
      </trkpt>
      <trkpt lat="45.04634" lon="5.98857">
        <ele>988</ele>
        <time>2021-12-29T10:01:54Z</time>
      </trkpt>
      <trkpt lat="45.04643" lon="5.9884">
        <ele>986</ele>
        <time>2021-12-29T10:01:56Z</time>
      </trkpt>
      <trkpt lat="45.04656" lon="5.98823">
        <ele>980</ele>
        <time>2021-12-29T10:01:59Z</time>
      </trkpt>
      <trkpt lat="45.04671" lon="5.9881">
        <ele>976</ele>
        <time>2021-12-29T10:02:02Z</time>
      </trkpt>
      <trkpt lat="45.04682" lon="5.9879">
        <ele>974</ele>
        <time>2021-12-29T10:02:06Z</time>
      </trkpt>
      <trkpt lat="45.04685" lon="5.98773">
        <ele>970</ele>
        <time>2021-12-29T10:02:08Z</time>
      </trkpt>
      <trkpt lat="45.0469" lon="5.98761">
        <ele>968</ele>
        <time>2021-12-29T10:02:10Z</time>
      </trkpt>
      <trkpt lat="45.04739" lon="5.987">
        <ele>953</ele>
        <time>2021-12-29T10:02:21Z</time>
      </trkpt>
      <trkpt lat="45.04756" lon="5.98685">
        <ele>947</ele>
        <time>2021-12-29T10:02:25Z</time>
      </trkpt>
      <trkpt lat="45.04771" lon="5.98683">
        <ele>945</ele>
        <time>2021-12-29T10:02:27Z</time>
      </trkpt>
      <trkpt lat="45.0479" lon="5.98688">
        <ele>946</ele>
        <time>2021-12-29T10:02:31Z</time>
      </trkpt>
      <trkpt lat="45.04809" lon="5.98696">
        <ele>946</ele>
        <time>2021-12-29T10:02:34Z</time>
      </trkpt>
      <trkpt lat="45.04847" lon="5.98703">
        <ele>944</ele>
        <time>2021-12-29T10:02:41Z</time>
      </trkpt>
      <trkpt lat="45.0486" lon="5.98715">
        <ele>944</ele>
        <time>2021-12-29T10:02:44Z</time>
      </trkpt>
      <trkpt lat="45.04871" lon="5.98738">
        <ele>945</ele>
        <time>2021-12-29T10:02:48Z</time>
      </trkpt>
      <trkpt lat="45.04882" lon="5.98779">
        <ele>953</ele>
        <time>2021-12-29T10:02:53Z</time>
      </trkpt>
      <trkpt lat="45.04895" lon="5.98797">
        <ele>955</ele>
        <time>2021-12-29T10:02:56Z</time>
      </trkpt>
      <trkpt lat="45.04919" lon="5.98816">
        <ele>952</ele>
        <time>2021-12-29T10:03:01Z</time>
      </trkpt>
      <trkpt lat="45.0493" lon="5.98817">
        <ele>949</ele>
        <time>2021-12-29T10:03:03Z</time>
      </trkpt>
      <trkpt lat="45.04932" lon="5.98811">
        <ele>947</ele>
        <time>2021-12-29T10:03:04Z</time>
      </trkpt>
      <trkpt lat="45.04928" lon="5.98801">
        <ele>945</ele>
        <time>2021-12-29T10:03:05Z</time>
      </trkpt>
      <trkpt lat="45.04896" lon="5.9875">
        <ele>940</ele>
        <time>2021-12-29T10:03:14Z</time>
      </trkpt>
      <trkpt lat="45.04888" lon="5.98702">
        <ele>937</ele>
        <time>2021-12-29T10:03:20Z</time>
      </trkpt>
      <trkpt lat="45.04878" lon="5.98681">
        <ele>936</ele>
        <time>2021-12-29T10:03:23Z</time>
      </trkpt>
      <trkpt lat="45.04848" lon="5.98654">
        <ele>938</ele>
        <time>2021-12-29T10:03:30Z</time>
      </trkpt>
      <trkpt lat="45.04845" lon="5.98644">
        <ele>940</ele>
        <time>2021-12-29T10:03:31Z</time>
      </trkpt>
      <trkpt lat="45.04838" lon="5.98595">
        <ele>947</ele>
        <time>2021-12-29T10:03:37Z</time>
      </trkpt>
      <trkpt lat="45.04839" lon="5.98587">
        <ele>949</ele>
        <time>2021-12-29T10:03:38Z</time>
      </trkpt>
      <trkpt lat="45.04844" lon="5.98583">
        <ele>950</ele>
        <time>2021-12-29T10:03:39Z</time>
      </trkpt>
      <trkpt lat="45.04851" lon="5.98577">
        <ele>955</ele>
        <time>2021-12-29T10:03:41Z</time>
      </trkpt>
      <trkpt lat="45.04862" lon="5.98574">
        <ele>958</ele>
        <time>2021-12-29T10:03:43Z</time>
      </trkpt>
      <trkpt lat="45.04891" lon="5.98581">
        <ele>961</ele>
        <time>2021-12-29T10:03:48Z</time>
      </trkpt>
      <trkpt lat="45.04914" lon="5.9859">
        <ele>962</ele>
        <time>2021-12-29T10:03:52Z</time>
      </trkpt>
      <trkpt lat="45.04929" lon="5.98608">
        <ele>957</ele>
        <time>2021-12-29T10:03:56Z</time>
      </trkpt>
      <trkpt lat="45.04948" lon="5.98619">
        <ele>955</ele>
        <time>2021-12-29T10:03:59Z</time>
      </trkpt>
      <trkpt lat="45.04976" lon="5.98641">
        <ele>952</ele>
        <time>2021-12-29T10:04:05Z</time>
      </trkpt>
      <trkpt lat="45.04993" lon="5.98664">
        <ele>948</ele>
        <time>2021-12-29T10:04:09Z</time>
      </trkpt>
      <trkpt lat="45.05005" lon="5.98694">
        <ele>943</ele>
        <time>2021-12-29T10:04:14Z</time>
      </trkpt>
      <trkpt lat="45.05011" lon="5.98718">
        <ele>939</ele>
        <time>2021-12-29T10:04:17Z</time>
      </trkpt>
      <trkpt lat="45.05023" lon="5.98737">
        <ele>938</ele>
        <time>2021-12-29T10:04:20Z</time>
      </trkpt>
      <trkpt lat="45.05028" lon="5.98758">
        <ele>935</ele>
        <time>2021-12-29T10:04:23Z</time>
      </trkpt>
      <trkpt lat="45.05033" lon="5.98761">
        <ele>936</ele>
        <time>2021-12-29T10:04:24Z</time>
      </trkpt>
      <trkpt lat="45.0508" lon="5.98753">
        <ele>952</ele>
        <time>2021-12-29T10:04:32Z</time>
      </trkpt>
      <trkpt lat="45.05099" lon="5.98737">
        <ele>960</ele>
        <time>2021-12-29T10:04:36Z</time>
      </trkpt>
      <trkpt lat="45.05111" lon="5.98736">
        <ele>962</ele>
        <time>2021-12-29T10:04:38Z</time>
      </trkpt>
      <trkpt lat="45.05121" lon="5.98739">
        <ele>963</ele>
        <time>2021-12-29T10:04:40Z</time>
      </trkpt>
      <trkpt lat="45.05128" lon="5.98747">
        <ele>962</ele>
        <time>2021-12-29T10:04:42Z</time>
      </trkpt>
      <trkpt lat="45.05133" lon="5.98783">
        <ele>956</ele>
        <time>2021-12-29T10:04:46Z</time>
      </trkpt>
      <trkpt lat="45.05141" lon="5.98793">
        <ele>956</ele>
        <time>2021-12-29T10:04:48Z</time>
      </trkpt>
      <trkpt lat="45.05143" lon="5.9875">
        <ele>963</ele>
        <time>2021-12-29T10:04:54Z</time>
      </trkpt>
      <trkpt lat="45.05141" lon="5.98738">
        <ele>966</ele>
        <time>2021-12-29T10:04:55Z</time>
      </trkpt>
      <trkpt lat="45.05137" lon="5.98729">
        <ele>968</ele>
        <time>2021-12-29T10:04:57Z</time>
      </trkpt>
      <trkpt lat="45.05133" lon="5.98723">
        <ele>969</ele>
        <time>2021-12-29T10:04:58Z</time>
      </trkpt>
      <trkpt lat="45.05127" lon="5.98719">
        <ele>970</ele>
        <time>2021-12-29T10:04:59Z</time>
      </trkpt>
      <trkpt lat="45.05108" lon="5.98716">
        <ele>968</ele>
        <time>2021-12-29T10:05:02Z</time>
      </trkpt>
      <trkpt lat="45.05077" lon="5.98719">
        <ele>961</ele>
        <time>2021-12-29T10:05:08Z</time>
      </trkpt>
      <trkpt lat="45.05062" lon="5.98714">
        <ele>957</ele>
        <time>2021-12-29T10:05:10Z</time>
      </trkpt>
      <trkpt lat="45.05042" lon="5.98702">
        <ele>954</ele>
        <time>2021-12-29T10:05:14Z</time>
      </trkpt>
      <trkpt lat="45.05029" lon="5.98688">
        <ele>953</ele>
        <time>2021-12-29T10:05:17Z</time>
      </trkpt>
      <trkpt lat="45.05021" lon="5.98671">
        <ele>955</ele>
        <time>2021-12-29T10:05:20Z</time>
      </trkpt>
      <trkpt lat="45.05015" lon="5.98644">
        <ele>960</ele>
        <time>2021-12-29T10:05:23Z</time>
      </trkpt>
      <trkpt lat="45.05012" lon="5.98622">
        <ele>965</ele>
        <time>2021-12-29T10:05:26Z</time>
      </trkpt>
      <trkpt lat="45.05017" lon="5.98586">
        <ele>976</ele>
        <time>2021-12-29T10:05:31Z</time>
      </trkpt>
      <trkpt lat="45.05015" lon="5.98571">
        <ele>979</ele>
        <time>2021-12-29T10:05:33Z</time>
      </trkpt>
      <trkpt lat="45.05008" lon="5.98559">
        <ele>981</ele>
        <time>2021-12-29T10:05:35Z</time>
      </trkpt>
      <trkpt lat="45.05" lon="5.98549">
        <ele>981</ele>
        <time>2021-12-29T10:05:37Z</time>
      </trkpt>
      <trkpt lat="45.04981" lon="5.98537">
        <ele>983</ele>
        <time>2021-12-29T10:05:40Z</time>
      </trkpt>
      <trkpt lat="45.04958" lon="5.9853">
        <ele>984</ele>
        <time>2021-12-29T10:05:44Z</time>
      </trkpt>
      <trkpt lat="45.04928" lon="5.98536">
        <ele>981</ele>
        <time>2021-12-29T10:05:50Z</time>
      </trkpt>
      <trkpt lat="45.04917" lon="5.98533">
        <ele>982</ele>
        <time>2021-12-29T10:05:52Z</time>
      </trkpt>
      <trkpt lat="45.04903" lon="5.98521">
        <ele>985</ele>
        <time>2021-12-29T10:05:55Z</time>
      </trkpt>
      <trkpt lat="45.04879" lon="5.98495">
        <ele>995</ele>
        <time>2021-12-29T10:06:00Z</time>
      </trkpt>
      <trkpt lat="45.04859" lon="5.98483">
        <ele>1000</ele>
        <time>2021-12-29T10:06:04Z</time>
      </trkpt>
      <trkpt lat="45.04816" lon="5.98491">
        <ele>997</ele>
        <time>2021-12-29T10:06:12Z</time>
      </trkpt>
      <trkpt lat="45.04795" lon="5.98486">
        <ele>999</ele>
        <time>2021-12-29T10:06:15Z</time>
      </trkpt>
      <trkpt lat="45.04729" lon="5.98459">
        <ele>1013</ele>
        <time>2021-12-29T10:06:28Z</time>
      </trkpt>
      <trkpt lat="45.04709" lon="5.98456">
        <ele>1017</ele>
        <time>2021-12-29T10:06:31Z</time>
      </trkpt>
      <trkpt lat="45.04514" lon="5.98451">
        <ele>1013</ele>
        <time>2021-12-29T10:07:06Z</time>
      </trkpt>
      <trkpt lat="45.045" lon="5.98447">
        <ele>1013</ele>
        <time>2021-12-29T10:07:09Z</time>
      </trkpt>
      <trkpt lat="45.04479" lon="5.98438">
        <ele>1011</ele>
        <time>2021-12-29T10:07:12Z</time>
      </trkpt>
      <trkpt lat="45.04462" lon="5.98426">
        <ele>1011</ele>
        <time>2021-12-29T10:07:16Z</time>
      </trkpt>
      <trkpt lat="45.04448" lon="5.98411">
        <ele>1013</ele>
        <time>2021-12-29T10:07:19Z</time>
      </trkpt>
      <trkpt lat="45.04434" lon="5.98394">
        <ele>1016</ele>
        <time>2021-12-29T10:07:22Z</time>
      </trkpt>
      <trkpt lat="45.04417" lon="5.98368">
        <ele>1023</ele>
        <time>2021-12-29T10:07:27Z</time>
      </trkpt>
      <trkpt lat="45.04405" lon="5.98346">
        <ele>1029</ele>
        <time>2021-12-29T10:07:30Z</time>
      </trkpt>
      <trkpt lat="45.04395" lon="5.98331">
        <ele>1032</ele>
        <time>2021-12-29T10:07:33Z</time>
      </trkpt>
      <trkpt lat="45.04386" lon="5.98325">
        <ele>1032</ele>
        <time>2021-12-29T10:07:35Z</time>
      </trkpt>
      <trkpt lat="45.04373" lon="5.9832">
        <ele>1030</ele>
        <time>2021-12-29T10:07:37Z</time>
      </trkpt>
      <trkpt lat="45.04317" lon="5.98308">
        <ele>1019</ele>
        <time>2021-12-29T10:07:47Z</time>
      </trkpt>
      <trkpt lat="45.04293" lon="5.98294">
        <ele>1019</ele>
        <time>2021-12-29T10:07:52Z</time>
      </trkpt>
      <trkpt lat="45.04195" lon="5.98207">
        <ele>1021</ele>
        <time>2021-12-29T10:08:12Z</time>
      </trkpt>
      <trkpt lat="45.04175" lon="5.98183">
        <ele>1022</ele>
        <time>2021-12-29T10:08:17Z</time>
      </trkpt>
      <trkpt lat="45.04115" lon="5.98122">
        <ele>1022</ele>
        <time>2021-12-29T10:08:30Z</time>
      </trkpt>
      <trkpt lat="45.04096" lon="5.98098">
        <ele>1019</ele>
        <time>2021-12-29T10:08:35Z</time>
      </trkpt>
      <trkpt lat="45.04088" lon="5.98086">
        <ele>1017</ele>
        <time>2021-12-29T10:08:37Z</time>
      </trkpt>
      <trkpt lat="45.04081" lon="5.98063">
        <ele>1017</ele>
        <time>2021-12-29T10:08:40Z</time>
      </trkpt>
      <trkpt lat="45.04079" lon="5.97984">
        <ele>1025</ele>
        <time>2021-12-29T10:08:50Z</time>
      </trkpt>
      <trkpt lat="45.04076" lon="5.97972">
        <ele>1027</ele>
        <time>2021-12-29T10:08:51Z</time>
      </trkpt>
      <trkpt lat="45.04054" lon="5.97929">
        <ele>1030</ele>
        <time>2021-12-29T10:08:58Z</time>
      </trkpt>
      <trkpt lat="45.04046" lon="5.97894">
        <ele>1037</ele>
        <time>2021-12-29T10:09:03Z</time>
      </trkpt>
      <trkpt lat="45.04038" lon="5.97881">
        <ele>1038</ele>
        <time>2021-12-29T10:09:05Z</time>
      </trkpt>
      <trkpt lat="45.04009" lon="5.9785">
        <ele>1038</ele>
        <time>2021-12-29T10:09:11Z</time>
      </trkpt>
      <trkpt lat="45.03995" lon="5.97843">
        <ele>1037</ele>
        <time>2021-12-29T10:09:14Z</time>
      </trkpt>
      <trkpt lat="45.03985" lon="5.97836">
        <ele>1038</ele>
        <time>2021-12-29T10:09:16Z</time>
      </trkpt>
      <trkpt lat="45.03958" lon="5.97829">
        <ele>1035</ele>
        <time>2021-12-29T10:09:21Z</time>
      </trkpt>
      <trkpt lat="45.0394" lon="5.97817">
        <ele>1034</ele>
        <time>2021-12-29T10:09:24Z</time>
      </trkpt>
      <trkpt lat="45.03936" lon="5.97802">
        <ele>1034</ele>
        <time>2021-12-29T10:09:26Z</time>
      </trkpt>
      <trkpt lat="45.03926" lon="5.97777">
        <ele>1033</ele>
        <time>2021-12-29T10:09:30Z</time>
      </trkpt>
      <trkpt lat="45.03897" lon="5.97759">
        <ele>1038</ele>
        <time>2021-12-29T10:09:36Z</time>
      </trkpt>
      <trkpt lat="45.03892" lon="5.97754">
        <ele>1040</ele>
        <time>2021-12-29T10:09:37Z</time>
      </trkpt>
      <trkpt lat="45.0388" lon="5.9773">
        <ele>1044</ele>
        <time>2021-12-29T10:09:40Z</time>
      </trkpt>
      <trkpt lat="45.03817" lon="5.97655">
        <ele>1058</ele>
        <time>2021-12-29T10:09:55Z</time>
      </trkpt>
      <trkpt lat="45.03813" lon="5.97646">
        <ele>1059</ele>
        <time>2021-12-29T10:09:56Z</time>
      </trkpt>
      <trkpt lat="45.03775" lon="5.97559">
        <ele>1064</ele>
        <time>2021-12-29T10:10:09Z</time>
      </trkpt>
      <trkpt lat="45.03738" lon="5.97465">
        <ele>1068</ele>
        <time>2021-12-29T10:10:23Z</time>
      </trkpt>
      <trkpt lat="45.03733" lon="5.97458">
        <ele>1068</ele>
        <time>2021-12-29T10:10:24Z</time>
      </trkpt>
      <trkpt lat="45.03726" lon="5.97457">
        <ele>1069</ele>
        <time>2021-12-29T10:10:25Z</time>
      </trkpt>
      <trkpt lat="45.03723" lon="5.97461">
        <ele>1070</ele>
        <time>2021-12-29T10:10:26Z</time>
      </trkpt>
      <trkpt lat="45.03722" lon="5.97467">
        <ele>1070</ele>
        <time>2021-12-29T10:10:27Z</time>
      </trkpt>
      <trkpt lat="45.03723" lon="5.97477">
        <ele>1069</ele>
        <time>2021-12-29T10:10:28Z</time>
      </trkpt>
      <trkpt lat="45.03738" lon="5.9751">
        <ele>1067</ele>
        <time>2021-12-29T10:10:33Z</time>
      </trkpt>
      <trkpt lat="45.03743" lon="5.97532">
        <ele>1068</ele>
        <time>2021-12-29T10:10:36Z</time>
      </trkpt>
      <trkpt lat="45.0374" lon="5.97594">
        <ele>1075</ele>
        <time>2021-12-29T10:10:44Z</time>
      </trkpt>
      <trkpt lat="45.03742" lon="5.97616">
        <ele>1080</ele>
        <time>2021-12-29T10:10:46Z</time>
      </trkpt>
      <trkpt lat="45.03745" lon="5.9764">
        <ele>1085</ele>
        <time>2021-12-29T10:10:50Z</time>
      </trkpt>
      <trkpt lat="45.03757" lon="5.97681">
        <ele>1089</ele>
        <time>2021-12-29T10:10:55Z</time>
      </trkpt>
      <trkpt lat="45.03798" lon="5.97743">
        <ele>1078</ele>
        <time>2021-12-29T10:11:06Z</time>
      </trkpt>
      <trkpt lat="45.03798" lon="5.97761">
        <ele>1077</ele>
        <time>2021-12-29T10:11:08Z</time>
      </trkpt>
      <trkpt lat="45.03792" lon="5.97777">
        <ele>1077</ele>
        <time>2021-12-29T10:11:10Z</time>
      </trkpt>
      <trkpt lat="45.03788" lon="5.97783">
        <ele>1078</ele>
        <time>2021-12-29T10:11:11Z</time>
      </trkpt>
      <trkpt lat="45.03731" lon="5.97826">
        <ele>1102</ele>
        <time>2021-12-29T10:11:23Z</time>
      </trkpt>
      <trkpt lat="45.03713" lon="5.97841">
        <ele>1110</ele>
        <time>2021-12-29T10:11:27Z</time>
      </trkpt>
      <trkpt lat="45.0371" lon="5.97842">
        <ele>1112</ele>
        <time>2021-12-29T10:11:27Z</time>
      </trkpt>
      <trkpt lat="45.03706" lon="5.97841">
        <ele>1115</ele>
        <time>2021-12-29T10:11:28Z</time>
      </trkpt>
      <trkpt lat="45.03703" lon="5.97834">
        <ele>1118</ele>
        <time>2021-12-29T10:11:29Z</time>
      </trkpt>
      <trkpt lat="45.03705" lon="5.97824">
        <ele>1118</ele>
        <time>2021-12-29T10:11:30Z</time>
      </trkpt>
      <trkpt lat="45.03732" lon="5.97806">
        <ele>1105</ele>
        <time>2021-12-29T10:11:35Z</time>
      </trkpt>
      <trkpt lat="45.03749" lon="5.97785">
        <ele>1099</ele>
        <time>2021-12-29T10:11:39Z</time>
      </trkpt>
      <trkpt lat="45.03758" lon="5.97769">
        <ele>1097</ele>
        <time>2021-12-29T10:11:42Z</time>
      </trkpt>
      <trkpt lat="45.0376" lon="5.97761">
        <ele>1097</ele>
        <time>2021-12-29T10:11:43Z</time>
      </trkpt>
      <trkpt lat="45.0376" lon="5.97754">
        <ele>1098</ele>
        <time>2021-12-29T10:11:44Z</time>
      </trkpt>
      <trkpt lat="45.03758" lon="5.97746">
        <ele>1099</ele>
        <time>2021-12-29T10:11:45Z</time>
      </trkpt>
      <trkpt lat="45.03753" lon="5.97739">
        <ele>1101</ele>
        <time>2021-12-29T10:11:46Z</time>
      </trkpt>
      <trkpt lat="45.03717" lon="5.97714">
        <ele>1112</ele>
        <time>2021-12-29T10:11:53Z</time>
      </trkpt>
      <trkpt lat="45.03658" lon="5.97667">
        <ele>1123</ele>
        <time>2021-12-29T10:12:06Z</time>
      </trkpt>
      <trkpt lat="45.03593" lon="5.97626">
        <ele>1129</ele>
        <time>2021-12-29T10:12:18Z</time>
      </trkpt>
      <trkpt lat="45.03549" lon="5.97589">
        <ele>1130</ele>
        <time>2021-12-29T10:12:27Z</time>
      </trkpt>
      <trkpt lat="45.03519" lon="5.97552">
        <ele>1131</ele>
        <time>2021-12-29T10:12:34Z</time>
      </trkpt>
      <trkpt lat="45.03504" lon="5.97526">
        <ele>1132</ele>
        <time>2021-12-29T10:12:39Z</time>
      </trkpt>
      <trkpt lat="45.03501" lon="5.97516">
        <ele>1131</ele>
        <time>2021-12-29T10:12:40Z</time>
      </trkpt>
      <trkpt lat="45.03498" lon="5.97497">
        <ele>1129</ele>
        <time>2021-12-29T10:12:42Z</time>
      </trkpt>
      <trkpt lat="45.035" lon="5.9747">
        <ele>1125</ele>
        <time>2021-12-29T10:12:46Z</time>
      </trkpt>
      <trkpt lat="45.03499" lon="5.9746">
        <ele>1123</ele>
        <time>2021-12-29T10:12:47Z</time>
      </trkpt>
      <trkpt lat="45.03496" lon="5.97453">
        <ele>1123</ele>
        <time>2021-12-29T10:12:48Z</time>
      </trkpt>
      <trkpt lat="45.03488" lon="5.97443">
        <ele>1123</ele>
        <time>2021-12-29T10:12:50Z</time>
      </trkpt>
      <trkpt lat="45.03464" lon="5.97424">
        <ele>1125</ele>
        <time>2021-12-29T10:12:55Z</time>
      </trkpt>
      <trkpt lat="45.03447" lon="5.97415">
        <ele>1127</ele>
        <time>2021-12-29T10:12:58Z</time>
      </trkpt>
      <trkpt lat="45.03417" lon="5.97409">
        <ele>1132</ele>
        <time>2021-12-29T10:13:04Z</time>
      </trkpt>
      <trkpt lat="45.03343" lon="5.97419">
        <ele>1137</ele>
        <time>2021-12-29T10:13:17Z</time>
      </trkpt>
      <trkpt lat="45.03334" lon="5.97424">
        <ele>1138</ele>
        <time>2021-12-29T10:13:18Z</time>
      </trkpt>
      <trkpt lat="45.03324" lon="5.97433">
        <ele>1139</ele>
        <time>2021-12-29T10:13:21Z</time>
      </trkpt>
      <trkpt lat="45.03275" lon="5.97488">
        <ele>1149</ele>
        <time>2021-12-29T10:13:32Z</time>
      </trkpt>
      <trkpt lat="45.03267" lon="5.97494">
        <ele>1151</ele>
        <time>2021-12-29T10:13:33Z</time>
      </trkpt>
      <trkpt lat="45.03246" lon="5.97495">
        <ele>1154</ele>
        <time>2021-12-29T10:13:37Z</time>
      </trkpt>
      <trkpt lat="45.03213" lon="5.97506">
        <ele>1159</ele>
        <time>2021-12-29T10:13:43Z</time>
      </trkpt>
      <trkpt lat="45.03201" lon="5.97506">
        <ele>1161</ele>
        <time>2021-12-29T10:13:45Z</time>
      </trkpt>
      <trkpt lat="45.03172" lon="5.97499">
        <ele>1162</ele>
        <time>2021-12-29T10:13:50Z</time>
      </trkpt>
      <trkpt lat="45.03136" lon="5.97495">
        <ele>1166</ele>
        <time>2021-12-29T10:13:57Z</time>
      </trkpt>
      <trkpt lat="45.03093" lon="5.97494">
        <ele>1172</ele>
        <time>2021-12-29T10:14:05Z</time>
      </trkpt>
      <trkpt lat="45.03081" lon="5.9749">
        <ele>1173</ele>
        <time>2021-12-29T10:14:07Z</time>
      </trkpt>
      <trkpt lat="45.0306" lon="5.97479">
        <ele>1176</ele>
        <time>2021-12-29T10:14:11Z</time>
      </trkpt>
      <trkpt lat="45.02977" lon="5.97421">
        <ele>1180</ele>
        <time>2021-12-29T10:14:27Z</time>
      </trkpt>
      <trkpt lat="45.02919" lon="5.97398">
        <ele>1190</ele>
        <time>2021-12-29T10:14:38Z</time>
      </trkpt>
      <trkpt lat="45.02897" lon="5.97384">
        <ele>1193</ele>
        <time>2021-12-29T10:14:42Z</time>
      </trkpt>
      <trkpt lat="45.02881" lon="5.97369">
        <ele>1194</ele>
        <time>2021-12-29T10:14:46Z</time>
      </trkpt>
      <trkpt lat="45.02857" lon="5.97352">
        <ele>1196</ele>
        <time>2021-12-29T10:14:50Z</time>
      </trkpt>
      <trkpt lat="45.02802" lon="5.97326">
        <ele>1199</ele>
        <time>2021-12-29T10:15:01Z</time>
      </trkpt>
      <trkpt lat="45.02783" lon="5.97316">
        <ele>1200</ele>
        <time>2021-12-29T10:15:04Z</time>
      </trkpt>
      <trkpt lat="45.02754" lon="5.97292">
        <ele>1201</ele>
        <time>2021-12-29T10:15:10Z</time>
      </trkpt>
      <trkpt lat="45.0275" lon="5.97291">
        <ele>1201</ele>
        <time>2021-12-29T10:15:11Z</time>
      </trkpt>
      <trkpt lat="45.02746" lon="5.97292">
        <ele>1201</ele>
        <time>2021-12-29T10:15:12Z</time>
      </trkpt>
      <trkpt lat="45.02745" lon="5.97296">
        <ele>1202</ele>
        <time>2021-12-29T10:15:12Z</time>
      </trkpt>
      <trkpt lat="45.02745" lon="5.97302">
        <ele>1202</ele>
        <time>2021-12-29T10:15:13Z</time>
      </trkpt>
      <trkpt lat="45.02749" lon="5.97309">
        <ele>1203</ele>
        <time>2021-12-29T10:15:14Z</time>
      </trkpt>
      <trkpt lat="45.02779" lon="5.9734">
        <ele>1204</ele>
        <time>2021-12-29T10:15:21Z</time>
      </trkpt>
      <trkpt lat="45.0284" lon="5.9742">
        <ele>1211</ele>
        <time>2021-12-29T10:15:36Z</time>
      </trkpt>
      <trkpt lat="45.02963" lon="5.97544">
        <ele>1219</ele>
        <time>2021-12-29T10:16:02Z</time>
      </trkpt>
      <trkpt lat="45.03015" lon="5.97587">
        <ele>1226</ele>
        <time>2021-12-29T10:16:13Z</time>
      </trkpt>
      <trkpt lat="45.0302" lon="5.97593">
        <ele>1226</ele>
        <time>2021-12-29T10:16:14Z</time>
      </trkpt>
      <trkpt lat="45.0302" lon="5.97602">
        <ele>1229</ele>
        <time>2021-12-29T10:16:15Z</time>
      </trkpt>
      <trkpt lat="45.03015" lon="5.97607">
        <ele>1232</ele>
        <time>2021-12-29T10:16:17Z</time>
      </trkpt>
      <trkpt lat="45.0301" lon="5.97606">
        <ele>1233</ele>
        <time>2021-12-29T10:16:17Z</time>
      </trkpt>
      <trkpt lat="45.0299" lon="5.97585">
        <ele>1231</ele>
        <time>2021-12-29T10:16:22Z</time>
      </trkpt>
      <trkpt lat="45.0298" lon="5.97579">
        <ele>1230</ele>
        <time>2021-12-29T10:16:24Z</time>
      </trkpt>
      <trkpt lat="45.02768" lon="5.97475">
        <ele>1240</ele>
        <time>2021-12-29T10:17:04Z</time>
      </trkpt>
      <trkpt lat="45.02743" lon="5.97472">
        <ele>1243</ele>
        <time>2021-12-29T10:17:08Z</time>
      </trkpt>
      <trkpt lat="45.02672" lon="5.97476">
        <ele>1253</ele>
        <time>2021-12-29T10:17:21Z</time>
      </trkpt>
      <trkpt lat="45.02648" lon="5.97475">
        <ele>1256</ele>
        <time>2021-12-29T10:17:25Z</time>
      </trkpt>
      <trkpt lat="45.0263" lon="5.97472">
        <ele>1257</ele>
        <time>2021-12-29T10:17:28Z</time>
      </trkpt>
      <trkpt lat="45.02474" lon="5.97428">
        <ele>1271</ele>
        <time>2021-12-29T10:17:57Z</time>
      </trkpt>
      <trkpt lat="45.02438" lon="5.97413">
        <ele>1272</ele>
        <time>2021-12-29T10:18:03Z</time>
      </trkpt>
      <trkpt lat="45.02347" lon="5.97369">
        <ele>1276</ele>
        <time>2021-12-29T10:18:20Z</time>
      </trkpt>
      <trkpt lat="45.02315" lon="5.97357">
        <ele>1278</ele>
        <time>2021-12-29T10:18:26Z</time>
      </trkpt>
      <trkpt lat="45.02285" lon="5.97352">
        <ele>1282</ele>
        <time>2021-12-29T10:18:32Z</time>
      </trkpt>
      <trkpt lat="45.02032" lon="5.97321">
        <ele>1309</ele>
        <time>2021-12-29T10:19:17Z</time>
      </trkpt>
      <trkpt lat="45.02011" lon="5.97318">
        <ele>1312</ele>
        <time>2021-12-29T10:19:21Z</time>
      </trkpt>
      <trkpt lat="45.01963" lon="5.97303">
        <ele>1316</ele>
        <time>2021-12-29T10:19:29Z</time>
      </trkpt>
      <trkpt lat="45.01949" lon="5.97296">
        <ele>1316</ele>
        <time>2021-12-29T10:19:32Z</time>
      </trkpt>
      <trkpt lat="45.01935" lon="5.9728">
        <ele>1314</ele>
        <time>2021-12-29T10:19:35Z</time>
      </trkpt>
      <trkpt lat="45.0189" lon="5.97188">
        <ele>1312</ele>
        <time>2021-12-29T10:19:49Z</time>
      </trkpt>
      <trkpt lat="45.01874" lon="5.9717">
        <ele>1314</ele>
        <time>2021-12-29T10:19:53Z</time>
      </trkpt>
      <trkpt lat="45.01802" lon="5.97114">
        <ele>1325</ele>
        <time>2021-12-29T10:20:08Z</time>
      </trkpt>
      <trkpt lat="45.01604" lon="5.9695">
        <ele>1342</ele>
        <time>2021-12-29T10:20:48Z</time>
      </trkpt>
      <trkpt lat="45.0157" lon="5.96926">
        <ele>1344</ele>
        <time>2021-12-29T10:20:55Z</time>
      </trkpt>
      <trkpt lat="45.01557" lon="5.96919">
        <ele>1346</ele>
        <time>2021-12-29T10:20:58Z</time>
      </trkpt>
      <trkpt lat="45.01288" lon="5.96833">
        <ele>1362</ele>
        <time>2021-12-29T10:21:47Z</time>
      </trkpt>
      <trkpt lat="45.01249" lon="5.96822">
        <ele>1365</ele>
        <time>2021-12-29T10:21:54Z</time>
      </trkpt>
      <trkpt lat="45.0057" lon="5.96695">
        <ele>1368</ele>
        <time>2021-12-29T10:23:56Z</time>
      </trkpt>
      <trkpt lat="45.00531" lon="5.96692">
        <ele>1365</ele>
        <time>2021-12-29T10:24:03Z</time>
      </trkpt>
      <trkpt lat="45.00493" lon="5.96697">
        <ele>1363</ele>
        <time>2021-12-29T10:24:09Z</time>
      </trkpt>
      <trkpt lat="45.00453" lon="5.96712">
        <ele>1360</ele>
        <time>2021-12-29T10:24:17Z</time>
      </trkpt>
      <trkpt lat="45.00416" lon="5.9673">
        <ele>1356</ele>
        <time>2021-12-29T10:24:24Z</time>
      </trkpt>
      <trkpt lat="45.0038" lon="5.96751">
        <ele>1353</ele>
        <time>2021-12-29T10:24:31Z</time>
      </trkpt>
      <trkpt lat="45.00366" lon="5.96758">
        <ele>1352</ele>
        <time>2021-12-29T10:24:33Z</time>
      </trkpt>
      <trkpt lat="45.00293" lon="5.96793">
        <ele>1349</ele>
        <time>2021-12-29T10:24:47Z</time>
      </trkpt>
      <trkpt lat="45.00134" lon="5.96877">
        <ele>1334</ele>
        <time>2021-12-29T10:25:17Z</time>
      </trkpt>
      <trkpt lat="45.00069" lon="5.96909">
        <ele>1327</ele>
        <time>2021-12-29T10:25:29Z</time>
      </trkpt>
      <trkpt lat="45.00042" lon="5.96926">
        <ele>1325</ele>
        <time>2021-12-29T10:25:35Z</time>
      </trkpt>
      <trkpt lat="45.0002" lon="5.96943">
        <ele>1323</ele>
        <time>2021-12-29T10:25:39Z</time>
      </trkpt>
      <trkpt lat="44.99986" lon="5.96978">
        <ele>1320</ele>
        <time>2021-12-29T10:25:47Z</time>
      </trkpt>
      <trkpt lat="44.99903" lon="5.97067">
        <ele>1311</ele>
        <time>2021-12-29T10:26:05Z</time>
      </trkpt>
      <trkpt lat="44.99831" lon="5.97129">
        <ele>1306</ele>
        <time>2021-12-29T10:26:20Z</time>
      </trkpt>
      <trkpt lat="44.99687" lon="5.97246">
        <ele>1295</ele>
        <time>2021-12-29T10:26:50Z</time>
      </trkpt>
      <trkpt lat="44.99668" lon="5.97263">
        <ele>1295</ele>
        <time>2021-12-29T10:26:54Z</time>
      </trkpt>
      <trkpt lat="44.99645" lon="5.97293">
        <ele>1294</ele>
        <time>2021-12-29T10:26:59Z</time>
      </trkpt>
      <trkpt lat="44.99637" lon="5.97299">
        <ele>1294</ele>
        <time>2021-12-29T10:27:01Z</time>
      </trkpt>
      <trkpt lat="44.99631" lon="5.97298">
        <ele>1293</ele>
        <time>2021-12-29T10:27:02Z</time>
      </trkpt>
      <trkpt lat="44.99625" lon="5.97292">
        <ele>1292</ele>
        <time>2021-12-29T10:27:03Z</time>
      </trkpt>
      <trkpt lat="44.99623" lon="5.97283">
        <ele>1291</ele>
        <time>2021-12-29T10:27:04Z</time>
      </trkpt>
      <trkpt lat="44.99617" lon="5.97142">
        <ele>1280</ele>
        <time>2021-12-29T10:27:22Z</time>
      </trkpt>
      <trkpt lat="44.99613" lon="5.9711">
        <ele>1277</ele>
        <time>2021-12-29T10:27:26Z</time>
      </trkpt>
      <trkpt lat="44.996" lon="5.97024">
        <ele>1272</ele>
        <time>2021-12-29T10:27:37Z</time>
      </trkpt>
      <trkpt lat="44.99585" lon="5.96936">
        <ele>1266</ele>
        <time>2021-12-29T10:27:49Z</time>
      </trkpt>
      <trkpt lat="44.99579" lon="5.96896">
        <ele>1264</ele>
        <time>2021-12-29T10:27:54Z</time>
      </trkpt>
      <trkpt lat="44.99523" lon="5.96564">
        <ele>1244</ele>
        <time>2021-12-29T10:28:37Z</time>
      </trkpt>
      <trkpt lat="44.9952" lon="5.96556">
        <ele>1243</ele>
        <time>2021-12-29T10:28:38Z</time>
      </trkpt>
      <trkpt lat="44.99514" lon="5.9655">
        <ele>1243</ele>
        <time>2021-12-29T10:28:39Z</time>
      </trkpt>
      <trkpt lat="44.99501" lon="5.96552">
        <ele>1241</ele>
        <time>2021-12-29T10:28:42Z</time>
      </trkpt>
      <trkpt lat="44.99479" lon="5.96578">
        <ele>1238</ele>
        <time>2021-12-29T10:28:47Z</time>
      </trkpt>
      <trkpt lat="44.99454" lon="5.96603">
        <ele>1236</ele>
        <time>2021-12-29T10:28:52Z</time>
      </trkpt>
      <trkpt lat="44.99402" lon="5.96643">
        <ele>1232</ele>
        <time>2021-12-29T10:29:03Z</time>
      </trkpt>
      <trkpt lat="44.99321" lon="5.96702">
        <ele>1223</ele>
        <time>2021-12-29T10:29:19Z</time>
      </trkpt>
      <trkpt lat="44.99152" lon="5.96858">
        <ele>1205</ele>
        <time>2021-12-29T10:29:55Z</time>
      </trkpt>
      <trkpt lat="44.99135" lon="5.96875">
        <ele>1204</ele>
        <time>2021-12-29T10:29:59Z</time>
      </trkpt>
      <trkpt lat="44.9912" lon="5.96884">
        <ele>1203</ele>
        <time>2021-12-29T10:30:01Z</time>
      </trkpt>
      <trkpt lat="44.99115" lon="5.96884">
        <ele>1203</ele>
        <time>2021-12-29T10:30:02Z</time>
      </trkpt>
      <trkpt lat="44.99109" lon="5.9688">
        <ele>1202</ele>
        <time>2021-12-29T10:30:03Z</time>
      </trkpt>
      <trkpt lat="44.99103" lon="5.96865">
        <ele>1200</ele>
        <time>2021-12-29T10:30:06Z</time>
      </trkpt>
      <trkpt lat="44.99046" lon="5.96611">
        <ele>1189</ele>
        <time>2021-12-29T10:30:39Z</time>
      </trkpt>
      <trkpt lat="44.99041" lon="5.966">
        <ele>1188</ele>
        <time>2021-12-29T10:30:41Z</time>
      </trkpt>
      <trkpt lat="44.99034" lon="5.96594">
        <ele>1187</ele>
        <time>2021-12-29T10:30:42Z</time>
      </trkpt>
      <trkpt lat="44.99027" lon="5.96594">
        <ele>1186</ele>
        <time>2021-12-29T10:30:44Z</time>
      </trkpt>
      <trkpt lat="44.9902" lon="5.96598">
        <ele>1186</ele>
        <time>2021-12-29T10:30:45Z</time>
      </trkpt>
      <trkpt lat="44.98793" lon="5.9687">
        <ele>1163</ele>
        <time>2021-12-29T10:31:38Z</time>
      </trkpt>
      <trkpt lat="44.9871" lon="5.96966">
        <ele>1153</ele>
        <time>2021-12-29T10:31:57Z</time>
      </trkpt>
      <trkpt lat="44.98671" lon="5.96959">
        <ele>1146</ele>
        <time>2021-12-29T10:32:04Z</time>
      </trkpt>
      <trkpt lat="44.98636" lon="5.9696">
        <ele>1141</ele>
        <time>2021-12-29T10:32:10Z</time>
      </trkpt>
      <trkpt lat="44.98601" lon="5.96966">
        <ele>1137</ele>
        <time>2021-12-29T10:32:16Z</time>
      </trkpt>
      <trkpt lat="44.98597" lon="5.96928">
        <ele>1137</ele>
        <time>2021-12-29T10:32:21Z</time>
      </trkpt>
      <trkpt lat="44.98591" lon="5.96906">
        <ele>1137</ele>
        <time>2021-12-29T10:32:24Z</time>
      </trkpt>
      <trkpt lat="44.98585" lon="5.9689">
        <ele>1136</ele>
        <time>2021-12-29T10:32:26Z</time>
      </trkpt>
      <trkpt lat="44.98572" lon="5.96866">
        <ele>1135</ele>
        <time>2021-12-29T10:32:30Z</time>
      </trkpt>
      <trkpt lat="44.98511" lon="5.96791">
        <ele>1127</ele>
        <time>2021-12-29T10:32:45Z</time>
      </trkpt>
      <trkpt lat="44.98417" lon="5.96662">
        <ele>1117</ele>
        <time>2021-12-29T10:33:08Z</time>
      </trkpt>
      <trkpt lat="44.98327" lon="5.96546">
        <ele>1105</ele>
        <time>2021-12-29T10:33:30Z</time>
      </trkpt>
      <trkpt lat="44.98316" lon="5.96529">
        <ele>1105</ele>
        <time>2021-12-29T10:33:33Z</time>
      </trkpt>
      <trkpt lat="44.98304" lon="5.96505">
        <ele>1105</ele>
        <time>2021-12-29T10:33:36Z</time>
      </trkpt>
      <trkpt lat="44.98298" lon="5.96489">
        <ele>1105</ele>
        <time>2021-12-29T10:33:39Z</time>
      </trkpt>
      <trkpt lat="44.98268" lon="5.96377">
        <ele>1107</ele>
        <time>2021-12-29T10:33:54Z</time>
      </trkpt>
      <trkpt lat="44.98263" lon="5.96362">
        <ele>1108</ele>
        <time>2021-12-29T10:33:56Z</time>
      </trkpt>
      <trkpt lat="44.98246" lon="5.96339">
        <ele>1108</ele>
        <time>2021-12-29T10:34:00Z</time>
      </trkpt>
      <trkpt lat="44.98232" lon="5.9633">
        <ele>1106</ele>
        <time>2021-12-29T10:34:03Z</time>
      </trkpt>
      <trkpt lat="44.98218" lon="5.96326">
        <ele>1104</ele>
        <time>2021-12-29T10:34:05Z</time>
      </trkpt>
      <trkpt lat="44.98205" lon="5.96325">
        <ele>1102</ele>
        <time>2021-12-29T10:34:07Z</time>
      </trkpt>
      <trkpt lat="44.98194" lon="5.96328">
        <ele>1100</ele>
        <time>2021-12-29T10:34:09Z</time>
      </trkpt>
      <trkpt lat="44.98177" lon="5.96338">
        <ele>1097</ele>
        <time>2021-12-29T10:34:13Z</time>
      </trkpt>
      <trkpt lat="44.98085" lon="5.96403">
        <ele>1087</ele>
        <time>2021-12-29T10:34:31Z</time>
      </trkpt>
      <trkpt lat="44.98071" lon="5.96407">
        <ele>1086</ele>
        <time>2021-12-29T10:34:34Z</time>
      </trkpt>
      <trkpt lat="44.98051" lon="5.96408">
        <ele>1084</ele>
        <time>2021-12-29T10:34:37Z</time>
      </trkpt>
      <trkpt lat="44.98038" lon="5.96402">
        <ele>1083</ele>
        <time>2021-12-29T10:34:40Z</time>
      </trkpt>
      <trkpt lat="44.98023" lon="5.96387">
        <ele>1081</ele>
        <time>2021-12-29T10:34:43Z</time>
      </trkpt>
      <trkpt lat="44.98012" lon="5.96372">
        <ele>1080</ele>
        <time>2021-12-29T10:34:46Z</time>
      </trkpt>
      <trkpt lat="44.97959" lon="5.96281">
        <ele>1072</ele>
        <time>2021-12-29T10:35:00Z</time>
      </trkpt>
      <trkpt lat="44.97932" lon="5.96231">
        <ele>1067</ele>
        <time>2021-12-29T10:35:08Z</time>
      </trkpt>
      <trkpt lat="44.97921" lon="5.96214">
        <ele>1065</ele>
        <time>2021-12-29T10:35:11Z</time>
      </trkpt>
      <trkpt lat="44.9791" lon="5.96206">
        <ele>1063</ele>
        <time>2021-12-29T10:35:13Z</time>
      </trkpt>
      <trkpt lat="44.97895" lon="5.96198">
        <ele>1062</ele>
        <time>2021-12-29T10:35:16Z</time>
      </trkpt>
      <trkpt lat="44.97684" lon="5.96131">
        <ele>1053</ele>
        <time>2021-12-29T10:35:55Z</time>
      </trkpt>
      <trkpt lat="44.97462" lon="5.96055">
        <ele>1041</ele>
        <time>2021-12-29T10:36:35Z</time>
      </trkpt>
      <trkpt lat="44.97395" lon="5.96035">
        <ele>1036</ele>
        <time>2021-12-29T10:36:48Z</time>
      </trkpt>
      <trkpt lat="44.97105" lon="5.95939">
        <ele>1028</ele>
        <time>2021-12-29T10:37:41Z</time>
      </trkpt>
      <trkpt lat="44.97091" lon="5.95936">
        <ele>1028</ele>
        <time>2021-12-29T10:37:43Z</time>
      </trkpt>
      <trkpt lat="44.97078" lon="5.95935">
        <ele>1028</ele>
        <time>2021-12-29T10:37:45Z</time>
      </trkpt>
      <trkpt lat="44.97066" lon="5.9594">
        <ele>1027</ele>
        <time>2021-12-29T10:37:48Z</time>
      </trkpt>
      <trkpt lat="44.97061" lon="5.95943">
        <ele>1027</ele>
        <time>2021-12-29T10:37:49Z</time>
      </trkpt>
      <trkpt lat="44.9705" lon="5.95961">
        <ele>1026</ele>
        <time>2021-12-29T10:37:52Z</time>
      </trkpt>
      <trkpt lat="44.97035" lon="5.95995">
        <ele>1023</ele>
        <time>2021-12-29T10:37:57Z</time>
      </trkpt>
      <trkpt lat="44.97" lon="5.96065">
        <ele>1024</ele>
        <time>2021-12-29T10:38:07Z</time>
      </trkpt>
      <trkpt lat="44.96991" lon="5.96076">
        <ele>1024</ele>
        <time>2021-12-29T10:38:10Z</time>
      </trkpt>
      <trkpt lat="44.96975" lon="5.96087">
        <ele>1023</ele>
        <time>2021-12-29T10:38:13Z</time>
      </trkpt>
      <trkpt lat="44.96894" lon="5.96125">
        <ele>1022</ele>
        <time>2021-12-29T10:38:28Z</time>
      </trkpt>
      <trkpt lat="44.96859" lon="5.96131">
        <ele>1021</ele>
        <time>2021-12-29T10:38:34Z</time>
      </trkpt>
      <trkpt lat="44.96838" lon="5.9613">
        <ele>1021</ele>
        <time>2021-12-29T10:38:38Z</time>
      </trkpt>
      <trkpt lat="44.96743" lon="5.96108">
        <ele>1020</ele>
        <time>2021-12-29T10:38:55Z</time>
      </trkpt>
      <trkpt lat="44.96661" lon="5.96086">
        <ele>1019</ele>
        <time>2021-12-29T10:39:10Z</time>
      </trkpt>
      <trkpt lat="44.966" lon="5.96092">
        <ele>1023</ele>
        <time>2021-12-29T10:39:21Z</time>
      </trkpt>
      <trkpt lat="44.96582" lon="5.9609">
        <ele>1023</ele>
        <time>2021-12-29T10:39:24Z</time>
      </trkpt>
      <trkpt lat="44.96537" lon="5.96078">
        <ele>1017</ele>
        <time>2021-12-29T10:39:32Z</time>
      </trkpt>
      <trkpt lat="44.96516" lon="5.96074">
        <ele>1016</ele>
        <time>2021-12-29T10:39:36Z</time>
      </trkpt>
      <trkpt lat="44.96504" lon="5.96075">
        <ele>1015</ele>
        <time>2021-12-29T10:39:38Z</time>
      </trkpt>
      <trkpt lat="44.96492" lon="5.96082">
        <ele>1014</ele>
        <time>2021-12-29T10:39:40Z</time>
      </trkpt>
      <trkpt lat="44.96481" lon="5.96093">
        <ele>1015</ele>
        <time>2021-12-29T10:39:43Z</time>
      </trkpt>
      <trkpt lat="44.96454" lon="5.96134">
        <ele>1024</ele>
        <time>2021-12-29T10:39:50Z</time>
      </trkpt>
      <trkpt lat="44.96447" lon="5.96141">
        <ele>1025</ele>
        <time>2021-12-29T10:39:51Z</time>
      </trkpt>
      <trkpt lat="44.96435" lon="5.96144">
        <ele>1024</ele>
        <time>2021-12-29T10:39:53Z</time>
      </trkpt>
      <trkpt lat="44.96397" lon="5.96123">
        <ele>1015</ele>
        <time>2021-12-29T10:40:01Z</time>
      </trkpt>
      <trkpt lat="44.96385" lon="5.9612">
        <ele>1013</ele>
        <time>2021-12-29T10:40:03Z</time>
      </trkpt>
      <trkpt lat="44.96374" lon="5.96122">
        <ele>1014</ele>
        <time>2021-12-29T10:40:05Z</time>
      </trkpt>
      <trkpt lat="44.96364" lon="5.96127">
        <ele>1015</ele>
        <time>2021-12-29T10:40:07Z</time>
      </trkpt>
      <trkpt lat="44.96326" lon="5.96155">
        <ele>1021</ele>
        <time>2021-12-29T10:40:14Z</time>
      </trkpt>
      <trkpt lat="44.96316" lon="5.96156">
        <ele>1020</ele>
        <time>2021-12-29T10:40:16Z</time>
      </trkpt>
      <trkpt lat="44.96307" lon="5.96156">
        <ele>1019</ele>
        <time>2021-12-29T10:40:18Z</time>
      </trkpt>
      <trkpt lat="44.96237" lon="5.96137">
        <ele>1006</ele>
        <time>2021-12-29T10:40:30Z</time>
      </trkpt>
      <trkpt lat="44.96222" lon="5.96136">
        <ele>1005</ele>
        <time>2021-12-29T10:40:33Z</time>
      </trkpt>
      <trkpt lat="44.9621" lon="5.96138">
        <ele>1004</ele>
        <time>2021-12-29T10:40:35Z</time>
      </trkpt>
      <trkpt lat="44.96181" lon="5.96149">
        <ele>1005</ele>
        <time>2021-12-29T10:40:41Z</time>
      </trkpt>
      <trkpt lat="44.96151" lon="5.96156">
        <ele>1005</ele>
        <time>2021-12-29T10:40:46Z</time>
      </trkpt>
      <trkpt lat="44.96121" lon="5.96158">
        <ele>1004</ele>
        <time>2021-12-29T10:40:51Z</time>
      </trkpt>
      <trkpt lat="44.96109" lon="5.96153">
        <ele>1003</ele>
        <time>2021-12-29T10:40:54Z</time>
      </trkpt>
      <trkpt lat="44.96084" lon="5.96132">
        <ele>998</ele>
        <time>2021-12-29T10:40:59Z</time>
      </trkpt>
      <trkpt lat="44.96069" lon="5.96124">
        <ele>996</ele>
        <time>2021-12-29T10:41:02Z</time>
      </trkpt>
      <trkpt lat="44.96053" lon="5.96119">
        <ele>994</ele>
        <time>2021-12-29T10:41:05Z</time>
      </trkpt>
      <trkpt lat="44.95939" lon="5.96101">
        <ele>984</ele>
        <time>2021-12-29T10:41:25Z</time>
      </trkpt>
      <trkpt lat="44.95922" lon="5.96102">
        <ele>983</ele>
        <time>2021-12-29T10:41:28Z</time>
      </trkpt>
      <trkpt lat="44.95909" lon="5.96106">
        <ele>983</ele>
        <time>2021-12-29T10:41:30Z</time>
      </trkpt>
      <trkpt lat="44.95896" lon="5.96116">
        <ele>984</ele>
        <time>2021-12-29T10:41:33Z</time>
      </trkpt>
      <trkpt lat="44.95867" lon="5.96143">
        <ele>987</ele>
        <time>2021-12-29T10:41:39Z</time>
      </trkpt>
      <trkpt lat="44.95853" lon="5.96151">
        <ele>988</ele>
        <time>2021-12-29T10:41:42Z</time>
      </trkpt>
      <trkpt lat="44.95812" lon="5.96158">
        <ele>985</ele>
        <time>2021-12-29T10:41:49Z</time>
      </trkpt>
      <trkpt lat="44.95765" lon="5.9617">
        <ele>979</ele>
        <time>2021-12-29T10:41:58Z</time>
      </trkpt>
      <trkpt lat="44.95751" lon="5.96171">
        <ele>977</ele>
        <time>2021-12-29T10:42:00Z</time>
      </trkpt>
      <trkpt lat="44.95739" lon="5.96169">
        <ele>976</ele>
        <time>2021-12-29T10:42:02Z</time>
      </trkpt>
      <trkpt lat="44.95729" lon="5.96164">
        <ele>975</ele>
        <time>2021-12-29T10:42:04Z</time>
      </trkpt>
      <trkpt lat="44.9571" lon="5.96148">
        <ele>974</ele>
        <time>2021-12-29T10:42:08Z</time>
      </trkpt>
      <trkpt lat="44.95699" lon="5.96145">
        <ele>973</ele>
        <time>2021-12-29T10:42:10Z</time>
      </trkpt>
      <trkpt lat="44.9569" lon="5.96146">
        <ele>973</ele>
        <time>2021-12-29T10:42:12Z</time>
      </trkpt>
      <trkpt lat="44.9567" lon="5.96159">
        <ele>972</ele>
        <time>2021-12-29T10:42:16Z</time>
      </trkpt>
      <trkpt lat="44.9566" lon="5.96169">
        <ele>972</ele>
        <time>2021-12-29T10:42:18Z</time>
      </trkpt>
      <trkpt lat="44.95587" lon="5.96225">
        <ele>969</ele>
        <time>2021-12-29T10:42:33Z</time>
      </trkpt>
      <trkpt lat="44.95577" lon="5.96237">
        <ele>969</ele>
        <time>2021-12-29T10:42:35Z</time>
      </trkpt>
      <trkpt lat="44.95432" lon="5.96464">
        <ele>963</ele>
        <time>2021-12-29T10:43:13Z</time>
      </trkpt>
      <trkpt lat="44.95413" lon="5.96492">
        <ele>961</ele>
        <time>2021-12-29T10:43:18Z</time>
      </trkpt>
      <trkpt lat="44.9539" lon="5.96519">
        <ele>962</ele>
        <time>2021-12-29T10:43:24Z</time>
      </trkpt>
      <trkpt lat="44.95319" lon="5.96584">
        <ele>959</ele>
        <time>2021-12-29T10:43:39Z</time>
      </trkpt>
      <trkpt lat="44.95293" lon="5.96606">
        <ele>967</ele>
        <time>2021-12-29T10:43:44Z</time>
      </trkpt>
      <trkpt lat="44.95275" lon="5.96615">
        <ele>970</ele>
        <time>2021-12-29T10:43:48Z</time>
      </trkpt>
      <trkpt lat="44.95192" lon="5.9664">
        <ele>974</ele>
        <time>2021-12-29T10:44:03Z</time>
      </trkpt>
      <trkpt lat="44.9517" lon="5.96642">
        <ele>973</ele>
        <time>2021-12-29T10:44:07Z</time>
      </trkpt>
      <trkpt lat="44.95118" lon="5.96638">
        <ele>970</ele>
        <time>2021-12-29T10:44:16Z</time>
      </trkpt>
      <trkpt lat="44.95091" lon="5.9664">
        <ele>969</ele>
        <time>2021-12-29T10:44:21Z</time>
      </trkpt>
      <trkpt lat="44.9507" lon="5.96645">
        <ele>968</ele>
        <time>2021-12-29T10:44:24Z</time>
      </trkpt>
      <trkpt lat="44.95029" lon="5.9666">
        <ele>962</ele>
        <time>2021-12-29T10:44:32Z</time>
      </trkpt>
      <trkpt lat="44.94966" lon="5.9666">
        <ele>951</ele>
        <time>2021-12-29T10:44:43Z</time>
      </trkpt>
      <trkpt lat="44.9494" lon="5.96668">
        <ele>948</ele>
        <time>2021-12-29T10:44:48Z</time>
      </trkpt>
      <trkpt lat="44.94843" lon="5.96707">
        <ele>940</ele>
        <time>2021-12-29T10:45:06Z</time>
      </trkpt>
      <trkpt lat="44.94806" lon="5.96726">
        <ele>938</ele>
        <time>2021-12-29T10:45:13Z</time>
      </trkpt>
      <trkpt lat="44.94792" lon="5.96736">
        <ele>938</ele>
        <time>2021-12-29T10:45:16Z</time>
      </trkpt>
      <trkpt lat="44.94685" lon="5.96827">
        <ele>931</ele>
        <time>2021-12-29T10:45:38Z</time>
      </trkpt>
      <trkpt lat="44.94648" lon="5.96868">
        <ele>930</ele>
        <time>2021-12-29T10:45:46Z</time>
      </trkpt>
      <trkpt lat="44.9464" lon="5.96876">
        <ele>930</ele>
        <time>2021-12-29T10:45:48Z</time>
      </trkpt>
      <trkpt lat="44.94634" lon="5.96882">
        <ele>930</ele>
        <time>2021-12-29T10:45:49Z</time>
      </trkpt>
      <trkpt lat="44.94565" lon="5.96968">
        <ele>926</ele>
        <time>2021-12-29T10:46:06Z</time>
      </trkpt>
      <trkpt lat="44.94518" lon="5.97017">
        <ele>921</ele>
        <time>2021-12-29T10:46:16Z</time>
      </trkpt>
      <trkpt lat="44.94505" lon="5.97026">
        <ele>920</ele>
        <time>2021-12-29T10:46:19Z</time>
      </trkpt>
      <trkpt lat="44.94291" lon="5.97144">
        <ele>912</ele>
        <time>2021-12-29T10:46:59Z</time>
      </trkpt>
      <trkpt lat="44.94216" lon="5.97184">
        <ele>910</ele>
        <time>2021-12-29T10:47:14Z</time>
      </trkpt>
      <trkpt lat="44.94167" lon="5.97202">
        <ele>908</ele>
        <time>2021-12-29T10:47:23Z</time>
      </trkpt>
      <trkpt lat="44.93983" lon="5.97254">
        <ele>902</ele>
        <time>2021-12-29T10:47:56Z</time>
      </trkpt>
      <trkpt lat="44.93787" lon="5.97313">
        <ele>902</ele>
        <time>2021-12-29T10:48:32Z</time>
      </trkpt>
      <trkpt lat="44.93773" lon="5.9732">
        <ele>903</ele>
        <time>2021-12-29T10:48:34Z</time>
      </trkpt>
      <trkpt lat="44.93743" lon="5.97344">
        <ele>904</ele>
        <time>2021-12-29T10:48:41Z</time>
      </trkpt>
      <trkpt lat="44.93676" lon="5.97404">
        <ele>901</ele>
        <time>2021-12-29T10:48:55Z</time>
      </trkpt>
      <trkpt lat="44.93666" lon="5.97413">
        <ele>901</ele>
        <time>2021-12-29T10:48:57Z</time>
      </trkpt>
      <trkpt lat="44.93664" lon="5.97415">
        <ele>901</ele>
        <time>2021-12-29T10:48:57Z</time>
      </trkpt>
      <trkpt lat="44.93658" lon="5.97415">
        <ele>901</ele>
        <time>2021-12-29T10:48:58Z</time>
      </trkpt>
      <trkpt lat="44.93652" lon="5.9741">
        <ele>901</ele>
        <time>2021-12-29T10:49:00Z</time>
      </trkpt>
      <trkpt lat="44.93539" lon="5.97282">
        <ele>892</ele>
        <time>2021-12-29T10:49:25Z</time>
      </trkpt>
      <trkpt lat="44.93528" lon="5.97266">
        <ele>891</ele>
        <time>2021-12-29T10:49:28Z</time>
      </trkpt>
      <trkpt lat="44.93485" lon="5.9723">
        <ele>888</ele>
        <time>2021-12-29T10:49:37Z</time>
      </trkpt>
      <trkpt lat="44.93406" lon="5.97147">
        <ele>882</ele>
        <time>2021-12-29T10:49:55Z</time>
      </trkpt>
      <trkpt lat="44.93383" lon="5.97129">
        <ele>881</ele>
        <time>2021-12-29T10:49:59Z</time>
      </trkpt>
      <trkpt lat="44.93341" lon="5.97105">
        <ele>879</ele>
        <time>2021-12-29T10:50:07Z</time>
      </trkpt>
      <trkpt lat="44.93328" lon="5.97102">
        <ele>878</ele>
        <time>2021-12-29T10:50:10Z</time>
      </trkpt>
      <trkpt lat="44.93314" lon="5.97102">
        <ele>878</ele>
        <time>2021-12-29T10:50:12Z</time>
      </trkpt>
      <trkpt lat="44.93191" lon="5.97113">
        <ele>875</ele>
        <time>2021-12-29T10:50:34Z</time>
      </trkpt>
      <trkpt lat="44.93165" lon="5.97111">
        <ele>874</ele>
        <time>2021-12-29T10:50:39Z</time>
      </trkpt>
      <trkpt lat="44.93148" lon="5.97106">
        <ele>874</ele>
        <time>2021-12-29T10:50:42Z</time>
      </trkpt>
      <trkpt lat="44.93068" lon="5.97067">
        <ele>874</ele>
        <time>2021-12-29T10:50:57Z</time>
      </trkpt>
      <trkpt lat="44.9303" lon="5.97044">
        <ele>874</ele>
        <time>2021-12-29T10:51:04Z</time>
      </trkpt>
      <trkpt lat="44.9302" lon="5.97036">
        <ele>874</ele>
        <time>2021-12-29T10:51:06Z</time>
      </trkpt>
      <trkpt lat="44.92954" lon="5.96955">
        <ele>872</ele>
        <time>2021-12-29T10:51:22Z</time>
      </trkpt>
      <trkpt lat="44.92941" lon="5.96944">
        <ele>871</ele>
        <time>2021-12-29T10:51:24Z</time>
      </trkpt>
      <trkpt lat="44.92904" lon="5.96922">
        <ele>871</ele>
        <time>2021-12-29T10:51:32Z</time>
      </trkpt>
      <trkpt lat="44.92885" lon="5.96908">
        <ele>871</ele>
        <time>2021-12-29T10:51:35Z</time>
      </trkpt>
      <trkpt lat="44.928" lon="5.96825">
        <ele>869</ele>
        <time>2021-12-29T10:51:54Z</time>
      </trkpt>
      <trkpt lat="44.92787" lon="5.96814">
        <ele>869</ele>
        <time>2021-12-29T10:51:57Z</time>
      </trkpt>
      <trkpt lat="44.92747" lon="5.96773">
        <ele>868</ele>
        <time>2021-12-29T10:52:05Z</time>
      </trkpt>
      <trkpt lat="44.92709" lon="5.9672">
        <ele>866</ele>
        <time>2021-12-29T10:52:15Z</time>
      </trkpt>
      <trkpt lat="44.92696" lon="5.96708">
        <ele>865</ele>
        <time>2021-12-29T10:52:18Z</time>
      </trkpt>
      <trkpt lat="44.92672" lon="5.96695">
        <ele>864</ele>
        <time>2021-12-29T10:52:22Z</time>
      </trkpt>
      <trkpt lat="44.92652" lon="5.96693">
        <ele>865</ele>
        <time>2021-12-29T10:52:26Z</time>
      </trkpt>
      <trkpt lat="44.92609" lon="5.96684">
        <ele>865</ele>
        <time>2021-12-29T10:52:33Z</time>
      </trkpt>
      <trkpt lat="44.92517" lon="5.96652">
        <ele>865</ele>
        <time>2021-12-29T10:52:50Z</time>
      </trkpt>
      <trkpt lat="44.92499" lon="5.96644">
        <ele>865</ele>
        <time>2021-12-29T10:52:54Z</time>
      </trkpt>
      <trkpt lat="44.92488" lon="5.96636">
        <ele>863</ele>
        <time>2021-12-29T10:52:56Z</time>
      </trkpt>
      <trkpt lat="44.92455" lon="5.96599">
        <ele>858</ele>
        <time>2021-12-29T10:53:03Z</time>
      </trkpt>
      <trkpt lat="44.92437" lon="5.96583">
        <ele>855</ele>
        <time>2021-12-29T10:53:07Z</time>
      </trkpt>
      <trkpt lat="44.92417" lon="5.96569">
        <ele>853</ele>
        <time>2021-12-29T10:53:11Z</time>
      </trkpt>
      <trkpt lat="44.92236" lon="5.96466">
        <ele>847</ele>
        <time>2021-12-29T10:53:46Z</time>
      </trkpt>
      <trkpt lat="44.92211" lon="5.96455">
        <ele>849</ele>
        <time>2021-12-29T10:53:51Z</time>
      </trkpt>
      <trkpt lat="44.92196" lon="5.96444">
        <ele>849</ele>
        <time>2021-12-29T10:53:54Z</time>
      </trkpt>
      <trkpt lat="44.92159" lon="5.96403">
        <ele>849</ele>
        <time>2021-12-29T10:54:02Z</time>
      </trkpt>
      <trkpt lat="44.92144" lon="5.96389">
        <ele>849</ele>
        <time>2021-12-29T10:54:05Z</time>
      </trkpt>
      <trkpt lat="44.92088" lon="5.96342">
        <ele>848</ele>
        <time>2021-12-29T10:54:17Z</time>
      </trkpt>
      <trkpt lat="44.9201" lon="5.96283">
        <ele>845</ele>
        <time>2021-12-29T10:54:32Z</time>
      </trkpt>
      <trkpt lat="44.91941" lon="5.96217">
        <ele>841</ele>
        <time>2021-12-29T10:54:47Z</time>
      </trkpt>
      <trkpt lat="44.91887" lon="5.96196">
        <ele>841</ele>
        <time>2021-12-29T10:54:57Z</time>
      </trkpt>
      <trkpt lat="44.91861" lon="5.96188">
        <ele>841</ele>
        <time>2021-12-29T10:55:02Z</time>
      </trkpt>
      <trkpt lat="44.91854" lon="5.96186">
        <ele>841</ele>
        <time>2021-12-29T10:55:03Z</time>
      </trkpt>
      <trkpt lat="44.91834" lon="5.9618">
        <ele>841</ele>
        <time>2021-12-29T10:55:07Z</time>
      </trkpt>
      <trkpt lat="44.91823" lon="5.96173">
        <ele>844</ele>
        <time>2021-12-29T10:55:09Z</time>
      </trkpt>
      <trkpt lat="44.91812" lon="5.96153">
        <ele>846</ele>
        <time>2021-12-29T10:55:12Z</time>
      </trkpt>
      <trkpt lat="44.91802" lon="5.96122">
        <ele>846</ele>
        <time>2021-12-29T10:55:16Z</time>
      </trkpt>
      <trkpt lat="44.91799" lon="5.96097">
        <ele>844</ele>
        <time>2021-12-29T10:55:20Z</time>
      </trkpt>
      <trkpt lat="44.91791" lon="5.9607">
        <ele>843</ele>
        <time>2021-12-29T10:55:23Z</time>
      </trkpt>
      <trkpt lat="44.91783" lon="5.96047">
        <ele>842</ele>
        <time>2021-12-29T10:55:27Z</time>
      </trkpt>
      <trkpt lat="44.9177" lon="5.96026">
        <ele>842</ele>
        <time>2021-12-29T10:55:30Z</time>
      </trkpt>
      <trkpt lat="44.91748" lon="5.95993">
        <ele>840</ele>
        <time>2021-12-29T10:55:36Z</time>
      </trkpt>
      <trkpt lat="44.91715" lon="5.95953">
        <ele>853</ele>
        <time>2021-12-29T10:55:44Z</time>
      </trkpt>
      <trkpt lat="44.91705" lon="5.95939">
        <ele>856</ele>
        <time>2021-12-29T10:55:46Z</time>
      </trkpt>
      <trkpt lat="44.91701" lon="5.95924">
        <ele>854</ele>
        <time>2021-12-29T10:55:48Z</time>
      </trkpt>
      <trkpt lat="44.91698" lon="5.95908">
        <ele>853</ele>
        <time>2021-12-29T10:55:50Z</time>
      </trkpt>
      <trkpt lat="44.91701" lon="5.95836">
        <ele>847</ele>
        <time>2021-12-29T10:55:59Z</time>
      </trkpt>
      <trkpt lat="44.917" lon="5.95814">
        <ele>846</ele>
        <time>2021-12-29T10:56:02Z</time>
      </trkpt>
      <trkpt lat="44.9168" lon="5.95716">
        <ele>839</ele>
        <time>2021-12-29T10:56:15Z</time>
      </trkpt>
      <trkpt lat="44.91666" lon="5.95663">
        <ele>830</ele>
        <time>2021-12-29T10:56:22Z</time>
      </trkpt>
      <trkpt lat="44.91611" lon="5.95497">
        <ele>832</ele>
        <time>2021-12-29T10:56:45Z</time>
      </trkpt>
      <trkpt lat="44.91584" lon="5.95421">
        <ele>824</ele>
        <time>2021-12-29T10:56:56Z</time>
      </trkpt>
      <trkpt lat="44.91536" lon="5.95317">
        <ele>828</ele>
        <time>2021-12-29T10:57:11Z</time>
      </trkpt>
      <trkpt lat="44.91505" lon="5.95253">
        <ele>819</ele>
        <time>2021-12-29T10:57:21Z</time>
      </trkpt>
      <trkpt lat="44.91476" lon="5.95206">
        <ele>823</ele>
        <time>2021-12-29T10:57:29Z</time>
      </trkpt>
      <trkpt lat="44.91418" lon="5.95122">
        <ele>813</ele>
        <time>2021-12-29T10:57:44Z</time>
      </trkpt>
      <trkpt lat="44.91399" lon="5.95103">
        <ele>812</ele>
        <time>2021-12-29T10:57:48Z</time>
      </trkpt>
      <trkpt lat="44.91385" lon="5.95095">
        <ele>811</ele>
        <time>2021-12-29T10:57:51Z</time>
      </trkpt>
      <trkpt lat="44.91368" lon="5.9509">
        <ele>810</ele>
        <time>2021-12-29T10:57:54Z</time>
      </trkpt>
      <trkpt lat="44.9132" lon="5.95086">
        <ele>809</ele>
        <time>2021-12-29T10:58:02Z</time>
      </trkpt>
      <trkpt lat="44.91269" lon="5.95076">
        <ele>805</ele>
        <time>2021-12-29T10:58:12Z</time>
      </trkpt>
      <trkpt lat="44.91211" lon="5.95074">
        <ele>807</ele>
        <time>2021-12-29T10:58:22Z</time>
      </trkpt>
      <trkpt lat="44.91165" lon="5.95062">
        <ele>808</ele>
        <time>2021-12-29T10:58:30Z</time>
      </trkpt>
      <trkpt lat="44.91081" lon="5.95044">
        <ele>805</ele>
        <time>2021-12-29T10:58:45Z</time>
      </trkpt>
      <trkpt lat="44.91042" lon="5.95027">
        <ele>805</ele>
        <time>2021-12-29T10:58:53Z</time>
      </trkpt>
      <trkpt lat="44.90986" lon="5.94993">
        <ele>803</ele>
        <time>2021-12-29T10:59:03Z</time>
      </trkpt>
      <trkpt lat="44.90965" lon="5.94977">
        <ele>802</ele>
        <time>2021-12-29T10:59:08Z</time>
      </trkpt>
      <trkpt lat="44.90918" lon="5.94925">
        <ele>801</ele>
        <time>2021-12-29T10:59:18Z</time>
      </trkpt>
      <trkpt lat="44.90898" lon="5.9491">
        <ele>801</ele>
        <time>2021-12-29T10:59:22Z</time>
      </trkpt>
      <trkpt lat="44.90879" lon="5.94902">
        <ele>800</ele>
        <time>2021-12-29T10:59:26Z</time>
      </trkpt>
      <trkpt lat="44.90823" lon="5.94892">
        <ele>798</ele>
        <time>2021-12-29T10:59:36Z</time>
      </trkpt>
      <trkpt lat="44.9077" lon="5.94877">
        <ele>796</ele>
        <time>2021-12-29T10:59:45Z</time>
      </trkpt>
      <trkpt lat="44.90729" lon="5.94869">
        <ele>797</ele>
        <time>2021-12-29T10:59:53Z</time>
      </trkpt>
      <trkpt lat="44.90715" lon="5.94863">
        <ele>798</ele>
        <time>2021-12-29T10:59:55Z</time>
      </trkpt>
      <trkpt lat="44.90628" lon="5.9478">
        <ele>797</ele>
        <time>2021-12-29T11:00:14Z</time>
      </trkpt>
      <trkpt lat="44.90607" lon="5.9477">
        <ele>798</ele>
        <time>2021-12-29T11:00:18Z</time>
      </trkpt>
      <trkpt lat="44.90571" lon="5.94761">
        <ele>801</ele>
        <time>2021-12-29T11:00:25Z</time>
      </trkpt>
      <trkpt lat="44.90534" lon="5.94761">
        <ele>802</ele>
        <time>2021-12-29T11:00:31Z</time>
      </trkpt>
      <trkpt lat="44.90474" lon="5.94774">
        <ele>803</ele>
        <time>2021-12-29T11:00:42Z</time>
      </trkpt>
      <trkpt lat="44.90394" lon="5.94794">
        <ele>805</ele>
        <time>2021-12-29T11:00:56Z</time>
      </trkpt>
      <trkpt lat="44.90367" lon="5.94804">
        <ele>806</ele>
        <time>2021-12-29T11:01:01Z</time>
      </trkpt>
      <trkpt lat="44.90307" lon="5.94821">
        <ele>809</ele>
        <time>2021-12-29T11:01:12Z</time>
      </trkpt>
      <trkpt lat="44.90207" lon="5.94865">
        <ele>811</ele>
        <time>2021-12-29T11:01:31Z</time>
      </trkpt>
      <trkpt lat="44.90159" lon="5.94894">
        <ele>809</ele>
        <time>2021-12-29T11:01:40Z</time>
      </trkpt>
      <trkpt lat="44.90146" lon="5.94896">
        <ele>807</ele>
        <time>2021-12-29T11:01:43Z</time>
      </trkpt>
      <trkpt lat="44.90145" lon="5.94879">
        <ele>807</ele>
        <time>2021-12-29T11:01:45Z</time>
      </trkpt>
      <trkpt lat="44.90154" lon="5.94819">
        <ele>807</ele>
        <time>2021-12-29T11:01:52Z</time>
      </trkpt>
      <trkpt lat="44.90153" lon="5.94806">
        <ele>806</ele>
        <time>2021-12-29T11:01:54Z</time>
      </trkpt>
      <trkpt lat="44.90111" lon="5.94679">
        <ele>798</ele>
        <time>2021-12-29T11:02:12Z</time>
      </trkpt>
      <trkpt lat="44.90088" lon="5.94624">
        <ele>797</ele>
        <time>2021-12-29T11:02:20Z</time>
      </trkpt>
      <trkpt lat="44.90081" lon="5.94616">
        <ele>796</ele>
        <time>2021-12-29T11:02:21Z</time>
      </trkpt>
      <trkpt lat="44.90068" lon="5.94608">
        <ele>795</ele>
        <time>2021-12-29T11:02:24Z</time>
      </trkpt>
      <trkpt lat="44.90059" lon="5.94605">
        <ele>794</ele>
        <time>2021-12-29T11:02:26Z</time>
      </trkpt>
      <trkpt lat="44.90029" lon="5.94606">
        <ele>792</ele>
        <time>2021-12-29T11:02:31Z</time>
      </trkpt>
      <trkpt lat="44.90023" lon="5.94603">
        <ele>791</ele>
        <time>2021-12-29T11:02:32Z</time>
      </trkpt>
      <trkpt lat="44.90016" lon="5.94594">
        <ele>790</ele>
        <time>2021-12-29T11:02:34Z</time>
      </trkpt>
      <trkpt lat="44.90008" lon="5.94577">
        <ele>788</ele>
        <time>2021-12-29T11:02:36Z</time>
      </trkpt>
      <trkpt lat="44.90005" lon="5.94556">
        <ele>786</ele>
        <time>2021-12-29T11:02:39Z</time>
      </trkpt>
      <trkpt lat="44.90004" lon="5.94542">
        <ele>786</ele>
        <time>2021-12-29T11:02:41Z</time>
      </trkpt>
      <trkpt lat="44.9001" lon="5.94516">
        <ele>785</ele>
        <time>2021-12-29T11:02:44Z</time>
      </trkpt>
      <trkpt lat="44.90028" lon="5.94458">
        <ele>786</ele>
        <time>2021-12-29T11:02:52Z</time>
      </trkpt>
      <trkpt lat="44.9003" lon="5.94437">
        <ele>786</ele>
        <time>2021-12-29T11:02:55Z</time>
      </trkpt>
      <trkpt lat="44.9003" lon="5.94381">
        <ele>785</ele>
        <time>2021-12-29T11:03:02Z</time>
      </trkpt>
      <trkpt lat="44.90024" lon="5.94342">
        <ele>784</ele>
        <time>2021-12-29T11:03:07Z</time>
      </trkpt>
      <trkpt lat="44.90012" lon="5.94303">
        <ele>781</ele>
        <time>2021-12-29T11:03:12Z</time>
      </trkpt>
      <trkpt lat="44.89988" lon="5.94258">
        <ele>777</ele>
        <time>2021-12-29T11:03:19Z</time>
      </trkpt>
      <trkpt lat="44.89924" lon="5.94069">
        <ele>777</ele>
        <time>2021-12-29T11:03:46Z</time>
      </trkpt>
      <trkpt lat="44.89919" lon="5.94031">
        <ele>777</ele>
        <time>2021-12-29T11:03:51Z</time>
      </trkpt>
      <trkpt lat="44.89964" lon="5.93738">
        <ele>775</ele>
        <time>2021-12-29T11:04:28Z</time>
      </trkpt>
      <trkpt lat="44.89979" lon="5.93675">
        <ele>771</ele>
        <time>2021-12-29T11:04:37Z</time>
      </trkpt>
      <trkpt lat="44.90003" lon="5.93589">
        <ele>769</ele>
        <time>2021-12-29T11:04:48Z</time>
      </trkpt>
      <trkpt lat="44.90011" lon="5.93549">
        <ele>770</ele>
        <time>2021-12-29T11:04:54Z</time>
      </trkpt>
      <trkpt lat="44.90013" lon="5.93506">
        <ele>771</ele>
        <time>2021-12-29T11:04:59Z</time>
      </trkpt>
      <trkpt lat="44.90009" lon="5.93433">
        <ele>770</ele>
        <time>2021-12-29T11:05:08Z</time>
      </trkpt>
      <trkpt lat="44.89993" lon="5.93317">
        <ele>763</ele>
        <time>2021-12-29T11:05:23Z</time>
      </trkpt>
      <trkpt lat="44.89978" lon="5.93244">
        <ele>759</ele>
        <time>2021-12-29T11:05:33Z</time>
      </trkpt>
      <trkpt lat="44.89969" lon="5.93225">
        <ele>759</ele>
        <time>2021-12-29T11:05:36Z</time>
      </trkpt>
      <trkpt lat="44.89938" lon="5.93181">
        <ele>759</ele>
        <time>2021-12-29T11:05:44Z</time>
      </trkpt>
      <trkpt lat="44.89773" lon="5.92893">
        <ele>750</ele>
        <time>2021-12-29T11:06:30Z</time>
      </trkpt>
      <trkpt lat="44.8973" lon="5.92837">
        <ele>750</ele>
        <time>2021-12-29T11:06:41Z</time>
      </trkpt>
      <trkpt lat="44.89645" lon="5.92715">
        <ele>751</ele>
        <time>2021-12-29T11:07:02Z</time>
      </trkpt>
      <trkpt lat="44.89627" lon="5.9268">
        <ele>750</ele>
        <time>2021-12-29T11:07:08Z</time>
      </trkpt>
      <trkpt lat="44.89626" lon="5.92667">
        <ele>748</ele>
        <time>2021-12-29T11:07:09Z</time>
      </trkpt>
      <trkpt lat="44.89627" lon="5.92659">
        <ele>747</ele>
        <time>2021-12-29T11:07:10Z</time>
      </trkpt>
      <trkpt lat="44.89632" lon="5.92646">
        <ele>744</ele>
        <time>2021-12-29T11:07:12Z</time>
      </trkpt>
      <trkpt lat="44.89639" lon="5.92635">
        <ele>742</ele>
        <time>2021-12-29T11:07:14Z</time>
      </trkpt>
      <trkpt lat="44.89636" lon="5.9263">
        <ele>742</ele>
        <time>2021-12-29T11:07:15Z</time>
      </trkpt>
      <trkpt lat="44.8959" lon="5.92613">
        <ele>745</ele>
        <time>2021-12-29T11:07:23Z</time>
      </trkpt>
      <trkpt lat="44.89578" lon="5.92611">
        <ele>746</ele>
        <time>2021-12-29T11:07:25Z</time>
      </trkpt>
      <trkpt lat="44.89536" lon="5.92593">
        <ele>747</ele>
        <time>2021-12-29T11:07:33Z</time>
      </trkpt>
      <trkpt lat="44.8946" lon="5.92588">
        <ele>755</ele>
        <time>2021-12-29T11:07:47Z</time>
      </trkpt>
      <trkpt lat="44.89438" lon="5.9258">
        <ele>757</ele>
        <time>2021-12-29T11:07:51Z</time>
      </trkpt>
      <trkpt lat="44.89365" lon="5.92528">
        <ele>762</ele>
        <time>2021-12-29T11:08:05Z</time>
      </trkpt>
      <trkpt lat="44.89353" lon="5.92515">
        <ele>763</ele>
        <time>2021-12-29T11:08:08Z</time>
      </trkpt>
      <trkpt lat="44.89346" lon="5.92503">
        <ele>763</ele>
        <time>2021-12-29T11:08:10Z</time>
      </trkpt>
      <trkpt lat="44.89336" lon="5.92475">
        <ele>762</ele>
        <time>2021-12-29T11:08:14Z</time>
      </trkpt>
      <trkpt lat="44.89332" lon="5.92468">
        <ele>762</ele>
        <time>2021-12-29T11:08:15Z</time>
      </trkpt>
      <trkpt lat="44.89326" lon="5.92464">
        <ele>763</ele>
        <time>2021-12-29T11:08:16Z</time>
      </trkpt>
      <trkpt lat="44.89314" lon="5.92469">
        <ele>765</ele>
        <time>2021-12-29T11:08:19Z</time>
      </trkpt>
      <trkpt lat="44.89309" lon="5.92476">
        <ele>766</ele>
        <time>2021-12-29T11:08:20Z</time>
      </trkpt>
      <trkpt lat="44.89305" lon="5.92489">
        <ele>767</ele>
        <time>2021-12-29T11:08:22Z</time>
      </trkpt>
      <trkpt lat="44.89304" lon="5.92519">
        <ele>770</ele>
        <time>2021-12-29T11:08:25Z</time>
      </trkpt>
      <trkpt lat="44.89301" lon="5.92537">
        <ele>771</ele>
        <time>2021-12-29T11:08:28Z</time>
      </trkpt>
      <trkpt lat="44.89296" lon="5.92541">
        <ele>772</ele>
        <time>2021-12-29T11:08:29Z</time>
      </trkpt>
      <trkpt lat="44.89286" lon="5.92538">
        <ele>772</ele>
        <time>2021-12-29T11:08:31Z</time>
      </trkpt>
      <trkpt lat="44.89272" lon="5.92514">
        <ele>772</ele>
        <time>2021-12-29T11:08:34Z</time>
      </trkpt>
      <trkpt lat="44.89265" lon="5.92505">
        <ele>773</ele>
        <time>2021-12-29T11:08:36Z</time>
      </trkpt>
      <trkpt lat="44.8925" lon="5.92494">
        <ele>774</ele>
        <time>2021-12-29T11:08:39Z</time>
      </trkpt>
      <trkpt lat="44.89234" lon="5.9249">
        <ele>775</ele>
        <time>2021-12-29T11:08:42Z</time>
      </trkpt>
      <trkpt lat="44.89219" lon="5.92494">
        <ele>777</ele>
        <time>2021-12-29T11:08:45Z</time>
      </trkpt>
      <trkpt lat="44.89162" lon="5.92531">
        <ele>783</ele>
        <time>2021-12-29T11:08:56Z</time>
      </trkpt>
      <trkpt lat="44.89149" lon="5.92562">
        <ele>784</ele>
        <time>2021-12-29T11:09:00Z</time>
      </trkpt>
      <trkpt lat="44.89107" lon="5.92616">
        <ele>790</ele>
        <time>2021-12-29T11:09:11Z</time>
      </trkpt>
      <trkpt lat="44.89102" lon="5.92625">
        <ele>791</ele>
        <time>2021-12-29T11:09:12Z</time>
      </trkpt>
      <trkpt lat="44.89085" lon="5.92647">
        <ele>794</ele>
        <time>2021-12-29T11:09:16Z</time>
      </trkpt>
      <trkpt lat="44.89081" lon="5.92665">
        <ele>794</ele>
        <time>2021-12-29T11:09:19Z</time>
      </trkpt>
      <trkpt lat="44.89081" lon="5.92691">
        <ele>797</ele>
        <time>2021-12-29T11:09:22Z</time>
      </trkpt>
      <trkpt lat="44.89077" lon="5.92707">
        <ele>799</ele>
        <time>2021-12-29T11:09:24Z</time>
      </trkpt>
      <trkpt lat="44.89071" lon="5.9271">
        <ele>801</ele>
        <time>2021-12-29T11:09:25Z</time>
      </trkpt>
      <trkpt lat="44.89064" lon="5.9271">
        <ele>802</ele>
        <time>2021-12-29T11:09:26Z</time>
      </trkpt>
      <trkpt lat="44.8906" lon="5.92707">
        <ele>803</ele>
        <time>2021-12-29T11:09:27Z</time>
      </trkpt>
      <trkpt lat="44.89056" lon="5.92699">
        <ele>803</ele>
        <time>2021-12-29T11:09:28Z</time>
      </trkpt>
      <trkpt lat="44.8905" lon="5.92666">
        <ele>800</ele>
        <time>2021-12-29T11:09:33Z</time>
      </trkpt>
      <trkpt lat="44.89029" lon="5.92622">
        <ele>803</ele>
        <time>2021-12-29T11:09:39Z</time>
      </trkpt>
      <trkpt lat="44.89023" lon="5.92588">
        <ele>803</ele>
        <time>2021-12-29T11:09:44Z</time>
      </trkpt>
      <trkpt lat="44.89011" lon="5.92551">
        <ele>803</ele>
        <time>2021-12-29T11:09:49Z</time>
      </trkpt>
      <trkpt lat="44.89006" lon="5.92493">
        <ele>800</ele>
        <time>2021-12-29T11:09:56Z</time>
      </trkpt>
      <trkpt lat="44.88998" lon="5.92453">
        <ele>800</ele>
        <time>2021-12-29T11:10:01Z</time>
      </trkpt>
      <trkpt lat="44.88984" lon="5.9241">
        <ele>800</ele>
        <time>2021-12-29T11:10:07Z</time>
      </trkpt>
      <trkpt lat="44.8898" lon="5.92404">
        <ele>800</ele>
        <time>2021-12-29T11:10:08Z</time>
      </trkpt>
      <trkpt lat="44.88974" lon="5.924">
        <ele>801</ele>
        <time>2021-12-29T11:10:10Z</time>
      </trkpt>
      <trkpt lat="44.88966" lon="5.924">
        <ele>802</ele>
        <time>2021-12-29T11:10:11Z</time>
      </trkpt>
      <trkpt lat="44.88952" lon="5.92405">
        <ele>804</ele>
        <time>2021-12-29T11:10:14Z</time>
      </trkpt>
      <trkpt lat="44.88945" lon="5.9241">
        <ele>805</ele>
        <time>2021-12-29T11:10:15Z</time>
      </trkpt>
      <trkpt lat="44.8894" lon="5.92418">
        <ele>806</ele>
        <time>2021-12-29T11:10:16Z</time>
      </trkpt>
      <trkpt lat="44.88939" lon="5.92427">
        <ele>807</ele>
        <time>2021-12-29T11:10:18Z</time>
      </trkpt>
      <trkpt lat="44.88946" lon="5.92492">
        <ele>808</ele>
        <time>2021-12-29T11:10:26Z</time>
      </trkpt>
      <trkpt lat="44.88947" lon="5.92522">
        <ele>810</ele>
        <time>2021-12-29T11:10:30Z</time>
      </trkpt>
      <trkpt lat="44.88944" lon="5.92532">
        <ele>812</ele>
        <time>2021-12-29T11:10:31Z</time>
      </trkpt>
      <trkpt lat="44.88937" lon="5.92534">
        <ele>813</ele>
        <time>2021-12-29T11:10:32Z</time>
      </trkpt>
      <trkpt lat="44.8893" lon="5.92533">
        <ele>814</ele>
        <time>2021-12-29T11:10:34Z</time>
      </trkpt>
      <trkpt lat="44.88924" lon="5.92528">
        <ele>814</ele>
        <time>2021-12-29T11:10:35Z</time>
      </trkpt>
      <trkpt lat="44.889" lon="5.92434">
        <ele>813</ele>
        <time>2021-12-29T11:10:47Z</time>
      </trkpt>
      <trkpt lat="44.88895" lon="5.92426">
        <ele>814</ele>
        <time>2021-12-29T11:10:49Z</time>
      </trkpt>
      <trkpt lat="44.8889" lon="5.92422">
        <ele>814</ele>
        <time>2021-12-29T11:10:50Z</time>
      </trkpt>
      <trkpt lat="44.88883" lon="5.92422">
        <ele>816</ele>
        <time>2021-12-29T11:10:51Z</time>
      </trkpt>
      <trkpt lat="44.88875" lon="5.92432">
        <ele>818</ele>
        <time>2021-12-29T11:10:53Z</time>
      </trkpt>
      <trkpt lat="44.88874" lon="5.92441">
        <ele>818</ele>
        <time>2021-12-29T11:10:54Z</time>
      </trkpt>
      <trkpt lat="44.88879" lon="5.92585">
        <ele>827</ele>
        <time>2021-12-29T11:11:12Z</time>
      </trkpt>
      <trkpt lat="44.88886" lon="5.92629">
        <ele>829</ele>
        <time>2021-12-29T11:11:18Z</time>
      </trkpt>
      <trkpt lat="44.88886" lon="5.9264">
        <ele>830</ele>
        <time>2021-12-29T11:11:19Z</time>
      </trkpt>
      <trkpt lat="44.88882" lon="5.92646">
        <ele>832</ele>
        <time>2021-12-29T11:11:20Z</time>
      </trkpt>
      <trkpt lat="44.88877" lon="5.92649">
        <ele>833</ele>
        <time>2021-12-29T11:11:21Z</time>
      </trkpt>
      <trkpt lat="44.88871" lon="5.92645">
        <ele>834</ele>
        <time>2021-12-29T11:11:22Z</time>
      </trkpt>
      <trkpt lat="44.88847" lon="5.926">
        <ele>834</ele>
        <time>2021-12-29T11:11:30Z</time>
      </trkpt>
      <trkpt lat="44.88839" lon="5.92591">
        <ele>835</ele>
        <time>2021-12-29T11:11:31Z</time>
      </trkpt>
      <trkpt lat="44.88785" lon="5.92554">
        <ele>844</ele>
        <time>2021-12-29T11:11:42Z</time>
      </trkpt>
      <trkpt lat="44.88768" lon="5.92535">
        <ele>847</ele>
        <time>2021-12-29T11:11:46Z</time>
      </trkpt>
      <trkpt lat="44.88736" lon="5.92486">
        <ele>852</ele>
        <time>2021-12-29T11:11:54Z</time>
      </trkpt>
      <trkpt lat="44.88687" lon="5.92434">
        <ele>861</ele>
        <time>2021-12-29T11:12:05Z</time>
      </trkpt>
      <trkpt lat="44.88681" lon="5.9243">
        <ele>863</ele>
        <time>2021-12-29T11:12:06Z</time>
      </trkpt>
      <trkpt lat="44.88675" lon="5.9243">
        <ele>864</ele>
        <time>2021-12-29T11:12:07Z</time>
      </trkpt>
      <trkpt lat="44.88673" lon="5.92433">
        <ele>865</ele>
        <time>2021-12-29T11:12:08Z</time>
      </trkpt>
      <trkpt lat="44.88678" lon="5.92506">
        <ele>868</ele>
        <time>2021-12-29T11:12:17Z</time>
      </trkpt>
      <trkpt lat="44.88675" lon="5.92521">
        <ele>869</ele>
        <time>2021-12-29T11:12:19Z</time>
      </trkpt>
      <trkpt lat="44.8867" lon="5.92533">
        <ele>870</ele>
        <time>2021-12-29T11:12:21Z</time>
      </trkpt>
      <trkpt lat="44.8861" lon="5.9263">
        <ele>902</ele>
        <time>2021-12-29T11:12:37Z</time>
      </trkpt>
      <trkpt lat="44.88608" lon="5.92638">
        <ele>904</ele>
        <time>2021-12-29T11:12:38Z</time>
      </trkpt>
      <trkpt lat="44.88609" lon="5.92646">
        <ele>906</ele>
        <time>2021-12-29T11:12:39Z</time>
      </trkpt>
      <trkpt lat="44.88637" lon="5.92718">
        <ele>908</ele>
        <time>2021-12-29T11:12:50Z</time>
      </trkpt>
      <trkpt lat="44.8867" lon="5.92773">
        <ele>905</ele>
        <time>2021-12-29T11:12:59Z</time>
      </trkpt>
      <trkpt lat="44.8867" lon="5.9278">
        <ele>907</ele>
        <time>2021-12-29T11:13:00Z</time>
      </trkpt>
      <trkpt lat="44.88667" lon="5.92783">
        <ele>909</ele>
        <time>2021-12-29T11:13:00Z</time>
      </trkpt>
      <trkpt lat="44.88661" lon="5.92785">
        <ele>912</ele>
        <time>2021-12-29T11:13:01Z</time>
      </trkpt>
      <trkpt lat="44.88654" lon="5.92782">
        <ele>915</ele>
        <time>2021-12-29T11:13:03Z</time>
      </trkpt>
      <trkpt lat="44.88637" lon="5.92766">
        <ele>919</ele>
        <time>2021-12-29T11:13:06Z</time>
      </trkpt>
      <trkpt lat="44.88607" lon="5.92726">
        <ele>925</ele>
        <time>2021-12-29T11:13:14Z</time>
      </trkpt>
      <trkpt lat="44.88583" lon="5.92675">
        <ele>924</ele>
        <time>2021-12-29T11:13:21Z</time>
      </trkpt>
      <trkpt lat="44.88531" lon="5.92626">
        <ele>937</ele>
        <time>2021-12-29T11:13:32Z</time>
      </trkpt>
      <trkpt lat="44.88469" lon="5.92578">
        <ele>946</ele>
        <time>2021-12-29T11:13:45Z</time>
      </trkpt>
      <trkpt lat="44.88441" lon="5.9255">
        <ele>951</ele>
        <time>2021-12-29T11:13:51Z</time>
      </trkpt>
      <trkpt lat="44.88437" lon="5.92551">
        <ele>952</ele>
        <time>2021-12-29T11:13:52Z</time>
      </trkpt>
      <trkpt lat="44.88433" lon="5.92555">
        <ele>954</ele>
        <time>2021-12-29T11:13:53Z</time>
      </trkpt>
      <trkpt lat="44.88431" lon="5.92562">
        <ele>955</ele>
        <time>2021-12-29T11:13:54Z</time>
      </trkpt>
      <trkpt lat="44.88442" lon="5.92585">
        <ele>954</ele>
        <time>2021-12-29T11:13:57Z</time>
      </trkpt>
      <trkpt lat="44.88466" lon="5.92625">
        <ele>959</ele>
        <time>2021-12-29T11:14:04Z</time>
      </trkpt>
      <trkpt lat="44.88472" lon="5.92632">
        <ele>960</ele>
        <time>2021-12-29T11:14:05Z</time>
      </trkpt>
      <trkpt lat="44.88492" lon="5.92636">
        <ele>956</ele>
        <time>2021-12-29T11:14:09Z</time>
      </trkpt>
      <trkpt lat="44.88498" lon="5.92646">
        <ele>958</ele>
        <time>2021-12-29T11:14:10Z</time>
      </trkpt>
      <trkpt lat="44.8851" lon="5.92677">
        <ele>963</ele>
        <time>2021-12-29T11:14:15Z</time>
      </trkpt>
      <trkpt lat="44.88526" lon="5.92725">
        <ele>972</ele>
        <time>2021-12-29T11:14:22Z</time>
      </trkpt>
      <trkpt lat="44.88538" lon="5.92769">
        <ele>979</ele>
        <time>2021-12-29T11:14:28Z</time>
      </trkpt>
      <trkpt lat="44.88555" lon="5.92848">
        <ele>988</ele>
        <time>2021-12-29T11:14:38Z</time>
      </trkpt>
      <trkpt lat="44.88579" lon="5.92952">
        <ele>996</ele>
        <time>2021-12-29T11:14:52Z</time>
      </trkpt>
      <trkpt lat="44.8859" lon="5.92989">
        <ele>999</ele>
        <time>2021-12-29T11:14:57Z</time>
      </trkpt>
      <trkpt lat="44.88595" lon="5.93015">
        <ele>1003</ele>
        <time>2021-12-29T11:15:00Z</time>
      </trkpt>
      <trkpt lat="44.88593" lon="5.93057">
        <ele>1011</ele>
        <time>2021-12-29T11:15:05Z</time>
      </trkpt>
      <trkpt lat="44.88584" lon="5.93123">
        <ele>1029</ele>
        <time>2021-12-29T11:15:14Z</time>
      </trkpt>
      <trkpt lat="44.88595" lon="5.93143">
        <ele>1035</ele>
        <time>2021-12-29T11:15:17Z</time>
      </trkpt>
      <trkpt lat="44.88599" lon="5.93145">
        <ele>1035</ele>
        <time>2021-12-29T11:15:18Z</time>
      </trkpt>
      <trkpt lat="44.88627" lon="5.93136">
        <ele>1030</ele>
        <time>2021-12-29T11:15:23Z</time>
      </trkpt>
      <trkpt lat="44.88653" lon="5.93132">
        <ele>1027</ele>
        <time>2021-12-29T11:15:28Z</time>
      </trkpt>
      <trkpt lat="44.88662" lon="5.93128">
        <ele>1024</ele>
        <time>2021-12-29T11:15:29Z</time>
      </trkpt>
      <trkpt lat="44.88689" lon="5.93106">
        <ele>1019</ele>
        <time>2021-12-29T11:15:35Z</time>
      </trkpt>
      <trkpt lat="44.88705" lon="5.93099">
        <ele>1020</ele>
        <time>2021-12-29T11:15:38Z</time>
      </trkpt>
      <trkpt lat="44.88718" lon="5.93096">
        <ele>1023</ele>
        <time>2021-12-29T11:15:40Z</time>
      </trkpt>
      <trkpt lat="44.88727" lon="5.931">
        <ele>1027</ele>
        <time>2021-12-29T11:15:42Z</time>
      </trkpt>
      <trkpt lat="44.88741" lon="5.93113">
        <ele>1035</ele>
        <time>2021-12-29T11:15:45Z</time>
      </trkpt>
      <trkpt lat="44.88751" lon="5.93119">
        <ele>1040</ele>
        <time>2021-12-29T11:15:47Z</time>
      </trkpt>
      <trkpt lat="44.88768" lon="5.9312">
        <ele>1043</ele>
        <time>2021-12-29T11:15:50Z</time>
      </trkpt>
      <trkpt lat="44.88775" lon="5.93116">
        <ele>1043</ele>
        <time>2021-12-29T11:15:51Z</time>
      </trkpt>
      <trkpt lat="44.88791" lon="5.93099">
        <ele>1040</ele>
        <time>2021-12-29T11:15:55Z</time>
      </trkpt>
      <trkpt lat="44.8882" lon="5.93085">
        <ele>1042</ele>
        <time>2021-12-29T11:16:00Z</time>
      </trkpt>
      <trkpt lat="44.88858" lon="5.93056">
        <ele>1039</ele>
        <time>2021-12-29T11:16:08Z</time>
      </trkpt>
      <trkpt lat="44.88869" lon="5.9305">
        <ele>1039</ele>
        <time>2021-12-29T11:16:10Z</time>
      </trkpt>
      <trkpt lat="44.88877" lon="5.9305">
        <ele>1040</ele>
        <time>2021-12-29T11:16:11Z</time>
      </trkpt>
      <trkpt lat="44.88885" lon="5.93057">
        <ele>1043</ele>
        <time>2021-12-29T11:16:13Z</time>
      </trkpt>
      <trkpt lat="44.88893" lon="5.93082">
        <ele>1051</ele>
        <time>2021-12-29T11:16:17Z</time>
      </trkpt>
      <trkpt lat="44.88927" lon="5.93126">
        <ele>1057</ele>
        <time>2021-12-29T11:16:25Z</time>
      </trkpt>
      <trkpt lat="44.88937" lon="5.93136">
        <ele>1054</ele>
        <time>2021-12-29T11:16:27Z</time>
      </trkpt>
      <trkpt lat="44.88946" lon="5.93152">
        <ele>1054</ele>
        <time>2021-12-29T11:16:30Z</time>
      </trkpt>
      <trkpt lat="44.88954" lon="5.93173">
        <ele>1054</ele>
        <time>2021-12-29T11:16:33Z</time>
      </trkpt>
      <trkpt lat="44.88957" lon="5.93194">
        <ele>1057</ele>
        <time>2021-12-29T11:16:35Z</time>
      </trkpt>
      <trkpt lat="44.88959" lon="5.93225">
        <ele>1063</ele>
        <time>2021-12-29T11:16:39Z</time>
      </trkpt>
      <trkpt lat="44.88947" lon="5.93281">
        <ele>1077</ele>
        <time>2021-12-29T11:16:47Z</time>
      </trkpt>
      <trkpt lat="44.88948" lon="5.93295">
        <ele>1079</ele>
        <time>2021-12-29T11:16:48Z</time>
      </trkpt>
      <trkpt lat="44.88961" lon="5.9335">
        <ele>1081</ele>
        <time>2021-12-29T11:16:56Z</time>
      </trkpt>
      <trkpt lat="44.88964" lon="5.93377">
        <ele>1083</ele>
        <time>2021-12-29T11:16:59Z</time>
      </trkpt>
      <trkpt lat="44.88963" lon="5.93386">
        <ele>1084</ele>
        <time>2021-12-29T11:17:00Z</time>
      </trkpt>
      <trkpt lat="44.88942" lon="5.93433">
        <ele>1095</ele>
        <time>2021-12-29T11:17:07Z</time>
      </trkpt>
      <trkpt lat="44.88938" lon="5.93449">
        <ele>1098</ele>
        <time>2021-12-29T11:17:09Z</time>
      </trkpt>
      <trkpt lat="44.88938" lon="5.93459">
        <ele>1099</ele>
        <time>2021-12-29T11:17:11Z</time>
      </trkpt>
      <trkpt lat="44.88942" lon="5.93467">
        <ele>1098</ele>
        <time>2021-12-29T11:17:12Z</time>
      </trkpt>
      <trkpt lat="44.88967" lon="5.93494">
        <ele>1094</ele>
        <time>2021-12-29T11:17:17Z</time>
      </trkpt>
      <trkpt lat="44.88969" lon="5.93505">
        <ele>1094</ele>
        <time>2021-12-29T11:17:19Z</time>
      </trkpt>
      <trkpt lat="44.8896" lon="5.93544">
        <ele>1101</ele>
        <time>2021-12-29T11:17:24Z</time>
      </trkpt>
      <trkpt lat="44.88958" lon="5.93572">
        <ele>1105</ele>
        <time>2021-12-29T11:17:28Z</time>
      </trkpt>
      <trkpt lat="44.8896" lon="5.93583">
        <ele>1106</ele>
        <time>2021-12-29T11:17:29Z</time>
      </trkpt>
      <trkpt lat="44.88975" lon="5.93614">
        <ele>1103</ele>
        <time>2021-12-29T11:17:34Z</time>
      </trkpt>
      <trkpt lat="44.88977" lon="5.93626">
        <ele>1102</ele>
        <time>2021-12-29T11:17:35Z</time>
      </trkpt>
      <trkpt lat="44.88977" lon="5.93637">
        <ele>1102</ele>
        <time>2021-12-29T11:17:37Z</time>
      </trkpt>
      <trkpt lat="44.88974" lon="5.93649">
        <ele>1103</ele>
        <time>2021-12-29T11:17:38Z</time>
      </trkpt>
      <trkpt lat="44.88969" lon="5.93654">
        <ele>1104</ele>
        <time>2021-12-29T11:17:39Z</time>
      </trkpt>
      <trkpt lat="44.88961" lon="5.93661">
        <ele>1106</ele>
        <time>2021-12-29T11:17:41Z</time>
      </trkpt>
      <trkpt lat="44.88946" lon="5.93667">
        <ele>1110</ele>
        <time>2021-12-29T11:17:44Z</time>
      </trkpt>
      <trkpt lat="44.88934" lon="5.93676">
        <ele>1112</ele>
        <time>2021-12-29T11:17:46Z</time>
      </trkpt>
      <trkpt lat="44.88872" lon="5.93765">
        <ele>1123</ele>
        <time>2021-12-29T11:18:02Z</time>
      </trkpt>
      <trkpt lat="44.88865" lon="5.93789">
        <ele>1125</ele>
        <time>2021-12-29T11:18:05Z</time>
      </trkpt>
      <trkpt lat="44.88856" lon="5.93851">
        <ele>1129</ele>
        <time>2021-12-29T11:18:13Z</time>
      </trkpt>
      <trkpt lat="44.88859" lon="5.93938">
        <ele>1140</ele>
        <time>2021-12-29T11:18:24Z</time>
      </trkpt>
      <trkpt lat="44.88868" lon="5.93971">
        <ele>1146</ele>
        <time>2021-12-29T11:18:29Z</time>
      </trkpt>
      <trkpt lat="44.88888" lon="5.94002">
        <ele>1149</ele>
        <time>2021-12-29T11:18:34Z</time>
      </trkpt>
      <trkpt lat="44.88897" lon="5.94029">
        <ele>1149</ele>
        <time>2021-12-29T11:18:38Z</time>
      </trkpt>
      <trkpt lat="44.88899" lon="5.94044">
        <ele>1150</ele>
        <time>2021-12-29T11:18:40Z</time>
      </trkpt>
      <trkpt lat="44.88896" lon="5.94061">
        <ele>1152</ele>
        <time>2021-12-29T11:18:42Z</time>
      </trkpt>
      <trkpt lat="44.88875" lon="5.94096">
        <ele>1163</ele>
        <time>2021-12-29T11:18:48Z</time>
      </trkpt>
      <trkpt lat="44.88873" lon="5.94108">
        <ele>1166</ele>
        <time>2021-12-29T11:18:49Z</time>
      </trkpt>
      <trkpt lat="44.88874" lon="5.9412">
        <ele>1169</ele>
        <time>2021-12-29T11:18:51Z</time>
      </trkpt>
      <trkpt lat="44.8888" lon="5.94136">
        <ele>1170</ele>
        <time>2021-12-29T11:18:53Z</time>
      </trkpt>
      <trkpt lat="44.88894" lon="5.94152">
        <ele>1170</ele>
        <time>2021-12-29T11:18:56Z</time>
      </trkpt>
      <trkpt lat="44.8894" lon="5.94175">
        <ele>1169</ele>
        <time>2021-12-29T11:19:05Z</time>
      </trkpt>
      <trkpt lat="44.88996" lon="5.9419">
        <ele>1172</ele>
        <time>2021-12-29T11:19:15Z</time>
      </trkpt>
      <trkpt lat="44.89023" lon="5.94181">
        <ele>1172</ele>
        <time>2021-12-29T11:19:20Z</time>
      </trkpt>
      <trkpt lat="44.89027" lon="5.94185">
        <ele>1174</ele>
        <time>2021-12-29T11:19:21Z</time>
      </trkpt>
      <trkpt lat="44.89027" lon="5.9419">
        <ele>1176</ele>
        <time>2021-12-29T11:19:21Z</time>
      </trkpt>
      <trkpt lat="44.89025" lon="5.94197">
        <ele>1178</ele>
        <time>2021-12-29T11:19:22Z</time>
      </trkpt>
      <trkpt lat="44.89012" lon="5.94205">
        <ele>1179</ele>
        <time>2021-12-29T11:19:25Z</time>
      </trkpt>
      <trkpt lat="44.88992" lon="5.94206">
        <ele>1178</ele>
        <time>2021-12-29T11:19:28Z</time>
      </trkpt>
      <trkpt lat="44.8883" lon="5.94195">
        <ele>1205</ele>
        <time>2021-12-29T11:19:57Z</time>
      </trkpt>
      <trkpt lat="44.88815" lon="5.94183">
        <ele>1206</ele>
        <time>2021-12-29T11:20:00Z</time>
      </trkpt>
      <trkpt lat="44.88804" lon="5.94156">
        <ele>1202</ele>
        <time>2021-12-29T11:20:04Z</time>
      </trkpt>
      <trkpt lat="44.88797" lon="5.94134">
        <ele>1199</ele>
        <time>2021-12-29T11:20:07Z</time>
      </trkpt>
      <trkpt lat="44.88782" lon="5.94114">
        <ele>1200</ele>
        <time>2021-12-29T11:20:11Z</time>
      </trkpt>
      <trkpt lat="44.88768" lon="5.94102">
        <ele>1202</ele>
        <time>2021-12-29T11:20:14Z</time>
      </trkpt>
      <trkpt lat="44.88753" lon="5.94093">
        <ele>1206</ele>
        <time>2021-12-29T11:20:17Z</time>
      </trkpt>
      <trkpt lat="44.88684" lon="5.94034">
        <ele>1222</ele>
        <time>2021-12-29T11:20:31Z</time>
      </trkpt>
      <trkpt lat="44.88644" lon="5.93942">
        <ele>1234</ele>
        <time>2021-12-29T11:20:45Z</time>
      </trkpt>
      <trkpt lat="44.88641" lon="5.93904">
        <ele>1233</ele>
        <time>2021-12-29T11:20:50Z</time>
      </trkpt>
      <trkpt lat="44.88646" lon="5.93869">
        <ele>1227</ele>
        <time>2021-12-29T11:20:54Z</time>
      </trkpt>
      <trkpt lat="44.88607" lon="5.93794">
        <ele>1238</ele>
        <time>2021-12-29T11:21:06Z</time>
      </trkpt>
      <trkpt lat="44.885" lon="5.93669">
        <ele>1255</ele>
        <time>2021-12-29T11:21:31Z</time>
      </trkpt>
      <trkpt lat="44.88489" lon="5.93658">
        <ele>1255</ele>
        <time>2021-12-29T11:21:33Z</time>
      </trkpt>
      <trkpt lat="44.88466" lon="5.93643">
        <ele>1256</ele>
        <time>2021-12-29T11:21:37Z</time>
      </trkpt>
      <trkpt lat="44.88446" lon="5.93633">
        <ele>1257</ele>
        <time>2021-12-29T11:21:41Z</time>
      </trkpt>
      <trkpt lat="44.88405" lon="5.93629">
        <ele>1268</ele>
        <time>2021-12-29T11:21:49Z</time>
      </trkpt>
      <trkpt lat="44.88389" lon="5.9363">
        <ele>1274</ele>
        <time>2021-12-29T11:21:51Z</time>
      </trkpt>
      <trkpt lat="44.88367" lon="5.93634">
        <ele>1284</ele>
        <time>2021-12-29T11:21:55Z</time>
      </trkpt>
      <trkpt lat="44.88359" lon="5.93632">
        <ele>1285</ele>
        <time>2021-12-29T11:21:57Z</time>
      </trkpt>
      <trkpt lat="44.88336" lon="5.93609">
        <ele>1281</ele>
        <time>2021-12-29T11:22:02Z</time>
      </trkpt>
      <trkpt lat="44.88326" lon="5.93593">
        <ele>1277</ele>
        <time>2021-12-29T11:22:05Z</time>
      </trkpt>
      <trkpt lat="44.88315" lon="5.93586">
        <ele>1280</ele>
        <time>2021-12-29T11:22:07Z</time>
      </trkpt>
      <trkpt lat="44.88275" lon="5.93575">
        <ele>1299</ele>
        <time>2021-12-29T11:22:14Z</time>
      </trkpt>
      <trkpt lat="44.88266" lon="5.93562">
        <ele>1301</ele>
        <time>2021-12-29T11:22:16Z</time>
      </trkpt>
      <trkpt lat="44.88244" lon="5.93505">
        <ele>1303</ele>
        <time>2021-12-29T11:22:24Z</time>
      </trkpt>
      <trkpt lat="44.88225" lon="5.9342">
        <ele>1311</ele>
        <time>2021-12-29T11:22:36Z</time>
      </trkpt>
      <trkpt lat="44.88214" lon="5.93348">
        <ele>1313</ele>
        <time>2021-12-29T11:22:45Z</time>
      </trkpt>
      <trkpt lat="44.8821" lon="5.93261">
        <ele>1304</ele>
        <time>2021-12-29T11:22:56Z</time>
      </trkpt>
      <trkpt lat="44.88207" lon="5.93245">
        <ele>1301</ele>
        <time>2021-12-29T11:22:58Z</time>
      </trkpt>
      <trkpt lat="44.88199" lon="5.93224">
        <ele>1297</ele>
        <time>2021-12-29T11:23:01Z</time>
      </trkpt>
      <trkpt lat="44.88192" lon="5.93219">
        <ele>1297</ele>
        <time>2021-12-29T11:23:02Z</time>
      </trkpt>
      <trkpt lat="44.88181" lon="5.93217">
        <ele>1300</ele>
        <time>2021-12-29T11:23:04Z</time>
      </trkpt>
      <trkpt lat="44.88163" lon="5.93228">
        <ele>1308</ele>
        <time>2021-12-29T11:23:08Z</time>
      </trkpt>
      <trkpt lat="44.88131" lon="5.93262">
        <ele>1316</ele>
        <time>2021-12-29T11:23:15Z</time>
      </trkpt>
      <trkpt lat="44.88077" lon="5.93331">
        <ele>1340</ele>
        <time>2021-12-29T11:23:28Z</time>
      </trkpt>
      <trkpt lat="44.88065" lon="5.93344">
        <ele>1346</ele>
        <time>2021-12-29T11:23:31Z</time>
      </trkpt>
      <trkpt lat="44.88" lon="5.93361">
        <ele>1356</ele>
        <time>2021-12-29T11:23:42Z</time>
      </trkpt>
      <trkpt lat="44.8799" lon="5.93358">
        <ele>1360</ele>
        <time>2021-12-29T11:23:44Z</time>
      </trkpt>
      <trkpt lat="44.87967" lon="5.93337">
        <ele>1363</ele>
        <time>2021-12-29T11:23:49Z</time>
      </trkpt>
      <trkpt lat="44.87955" lon="5.93323">
        <ele>1365</ele>
        <time>2021-12-29T11:23:52Z</time>
      </trkpt>
      <trkpt lat="44.87952" lon="5.93288">
        <ele>1356</ele>
        <time>2021-12-29T11:23:56Z</time>
      </trkpt>
      <trkpt lat="44.8794" lon="5.93269">
        <ele>1358</ele>
        <time>2021-12-29T11:24:00Z</time>
      </trkpt>
      <trkpt lat="44.87924" lon="5.93249">
        <ele>1361</ele>
        <time>2021-12-29T11:24:03Z</time>
      </trkpt>
      <trkpt lat="44.87906" lon="5.93239">
        <ele>1366</ele>
        <time>2021-12-29T11:24:07Z</time>
      </trkpt>
      <trkpt lat="44.87876" lon="5.93229">
        <ele>1379</ele>
        <time>2021-12-29T11:24:12Z</time>
      </trkpt>
      <trkpt lat="44.87866" lon="5.93219">
        <ele>1382</ele>
        <time>2021-12-29T11:24:14Z</time>
      </trkpt>
      <trkpt lat="44.87849" lon="5.9318">
        <ele>1380</ele>
        <time>2021-12-29T11:24:20Z</time>
      </trkpt>
      <trkpt lat="44.87837" lon="5.93146">
        <ele>1384</ele>
        <time>2021-12-29T11:24:25Z</time>
      </trkpt>
      <trkpt lat="44.87838" lon="5.93122">
        <ele>1383</ele>
        <time>2021-12-29T11:24:28Z</time>
      </trkpt>
      <trkpt lat="44.87842" lon="5.93094">
        <ele>1379</ele>
        <time>2021-12-29T11:24:32Z</time>
      </trkpt>
      <trkpt lat="44.87839" lon="5.93076">
        <ele>1380</ele>
        <time>2021-12-29T11:24:34Z</time>
      </trkpt>
      <trkpt lat="44.87832" lon="5.93058">
        <ele>1384</ele>
        <time>2021-12-29T11:24:37Z</time>
      </trkpt>
      <trkpt lat="44.87804" lon="5.93014">
        <ele>1402</ele>
        <time>2021-12-29T11:24:44Z</time>
      </trkpt>
      <trkpt lat="44.87799" lon="5.92998">
        <ele>1404</ele>
        <time>2021-12-29T11:24:46Z</time>
      </trkpt>
      <trkpt lat="44.87797" lon="5.92893">
        <ele>1404</ele>
        <time>2021-12-29T11:24:59Z</time>
      </trkpt>
      <trkpt lat="44.87793" lon="5.9287">
        <ele>1407</ele>
        <time>2021-12-29T11:25:02Z</time>
      </trkpt>
      <trkpt lat="44.87785" lon="5.92845">
        <ele>1413</ele>
        <time>2021-12-29T11:25:06Z</time>
      </trkpt>
      <trkpt lat="44.87782" lon="5.92821">
        <ele>1414</ele>
        <time>2021-12-29T11:25:09Z</time>
      </trkpt>
      <trkpt lat="44.87782" lon="5.92784">
        <ele>1411</ele>
        <time>2021-12-29T11:25:14Z</time>
      </trkpt>
      <trkpt lat="44.87776" lon="5.92751">
        <ele>1413</ele>
        <time>2021-12-29T11:25:18Z</time>
      </trkpt>
      <trkpt lat="44.87759" lon="5.92708">
        <ele>1409</ele>
        <time>2021-12-29T11:25:24Z</time>
      </trkpt>
      <trkpt lat="44.87752" lon="5.92701">
        <ele>1410</ele>
        <time>2021-12-29T11:25:26Z</time>
      </trkpt>
      <trkpt lat="44.87746" lon="5.92699">
        <ele>1411</ele>
        <time>2021-12-29T11:25:27Z</time>
      </trkpt>
      <trkpt lat="44.87732" lon="5.92699">
        <ele>1414</ele>
        <time>2021-12-29T11:25:29Z</time>
      </trkpt>
      <trkpt lat="44.87724" lon="5.92696">
        <ele>1414</ele>
        <time>2021-12-29T11:25:31Z</time>
      </trkpt>
      <trkpt lat="44.87714" lon="5.9269">
        <ele>1413</ele>
        <time>2021-12-29T11:25:33Z</time>
      </trkpt>
      <trkpt lat="44.87705" lon="5.92688">
        <ele>1414</ele>
        <time>2021-12-29T11:25:34Z</time>
      </trkpt>
      <trkpt lat="44.87697" lon="5.9269">
        <ele>1416</ele>
        <time>2021-12-29T11:25:36Z</time>
      </trkpt>
      <trkpt lat="44.87687" lon="5.927">
        <ele>1421</ele>
        <time>2021-12-29T11:25:38Z</time>
      </trkpt>
      <trkpt lat="44.87646" lon="5.92756">
        <ele>1448</ele>
        <time>2021-12-29T11:25:48Z</time>
      </trkpt>
      <trkpt lat="44.87618" lon="5.92777">
        <ele>1458</ele>
        <time>2021-12-29T11:25:54Z</time>
      </trkpt>
      <trkpt lat="44.87607" lon="5.92781">
        <ele>1460</ele>
        <time>2021-12-29T11:25:56Z</time>
      </trkpt>
      <trkpt lat="44.87603" lon="5.92773">
        <ele>1459</ele>
        <time>2021-12-29T11:25:57Z</time>
      </trkpt>
      <trkpt lat="44.87602" lon="5.92762">
        <ele>1457</ele>
        <time>2021-12-29T11:25:58Z</time>
      </trkpt>
      <trkpt lat="44.87608" lon="5.92728">
        <ele>1449</ele>
        <time>2021-12-29T11:26:03Z</time>
      </trkpt>
      <trkpt lat="44.87616" lon="5.92698">
        <ele>1440</ele>
        <time>2021-12-29T11:26:07Z</time>
      </trkpt>
      <trkpt lat="44.8762" lon="5.9267">
        <ele>1431</ele>
        <time>2021-12-29T11:26:10Z</time>
      </trkpt>
      <trkpt lat="44.8762" lon="5.92594">
        <ele>1414</ele>
        <time>2021-12-29T11:26:20Z</time>
      </trkpt>
      <trkpt lat="44.87608" lon="5.92551">
        <ele>1408</ele>
        <time>2021-12-29T11:26:26Z</time>
      </trkpt>
      <trkpt lat="44.87601" lon="5.92537">
        <ele>1407</ele>
        <time>2021-12-29T11:26:28Z</time>
      </trkpt>
      <trkpt lat="44.87589" lon="5.92524">
        <ele>1406</ele>
        <time>2021-12-29T11:26:31Z</time>
      </trkpt>
      <trkpt lat="44.87585" lon="5.92518">
        <ele>1406</ele>
        <time>2021-12-29T11:26:32Z</time>
      </trkpt>
      <trkpt lat="44.87584" lon="5.92513">
        <ele>1405</ele>
        <time>2021-12-29T11:26:32Z</time>
      </trkpt>
      <trkpt lat="44.87586" lon="5.92508">
        <ele>1403</ele>
        <time>2021-12-29T11:26:33Z</time>
      </trkpt>
      <trkpt lat="44.87591" lon="5.92504">
        <ele>1401</ele>
        <time>2021-12-29T11:26:34Z</time>
      </trkpt>
      <trkpt lat="44.87602" lon="5.92501">
        <ele>1397</ele>
        <time>2021-12-29T11:26:36Z</time>
      </trkpt>
      <trkpt lat="44.87615" lon="5.92502">
        <ele>1395</ele>
        <time>2021-12-29T11:26:38Z</time>
      </trkpt>
      <trkpt lat="44.8763" lon="5.92508">
        <ele>1393</ele>
        <time>2021-12-29T11:26:41Z</time>
      </trkpt>
      <trkpt lat="44.87634" lon="5.92501">
        <ele>1391</ele>
        <time>2021-12-29T11:26:42Z</time>
      </trkpt>
      <trkpt lat="44.87633" lon="5.92481">
        <ele>1388</ele>
        <time>2021-12-29T11:26:45Z</time>
      </trkpt>
      <trkpt lat="44.87634" lon="5.92471">
        <ele>1386</ele>
        <time>2021-12-29T11:26:46Z</time>
      </trkpt>
      <trkpt lat="44.87643" lon="5.92442">
        <ele>1380</ele>
        <time>2021-12-29T11:26:50Z</time>
      </trkpt>
      <trkpt lat="44.87649" lon="5.92417">
        <ele>1376</ele>
        <time>2021-12-29T11:26:53Z</time>
      </trkpt>
      <trkpt lat="44.87651" lon="5.92389">
        <ele>1375</ele>
        <time>2021-12-29T11:26:57Z</time>
      </trkpt>
      <trkpt lat="44.87647" lon="5.92358">
        <ele>1374</ele>
        <time>2021-12-29T11:27:01Z</time>
      </trkpt>
      <trkpt lat="44.87639" lon="5.92327">
        <ele>1374</ele>
        <time>2021-12-29T11:27:05Z</time>
      </trkpt>
      <trkpt lat="44.87631" lon="5.92316">
        <ele>1376</ele>
        <time>2021-12-29T11:27:07Z</time>
      </trkpt>
      <trkpt lat="44.87623" lon="5.92309">
        <ele>1377</ele>
        <time>2021-12-29T11:27:09Z</time>
      </trkpt>
      <trkpt lat="44.87586" lon="5.92293">
        <ele>1383</ele>
        <time>2021-12-29T11:27:16Z</time>
      </trkpt>
      <trkpt lat="44.87572" lon="5.92283">
        <ele>1383</ele>
        <time>2021-12-29T11:27:18Z</time>
      </trkpt>
      <trkpt lat="44.87553" lon="5.92264">
        <ele>1381</ele>
        <time>2021-12-29T11:27:23Z</time>
      </trkpt>
      <trkpt lat="44.8754" lon="5.92238">
        <ele>1381</ele>
        <time>2021-12-29T11:27:27Z</time>
      </trkpt>
      <trkpt lat="44.87519" lon="5.92177">
        <ele>1383</ele>
        <time>2021-12-29T11:27:35Z</time>
      </trkpt>
      <trkpt lat="44.87477" lon="5.92109">
        <ele>1383</ele>
        <time>2021-12-29T11:27:47Z</time>
      </trkpt>
      <trkpt lat="44.87437" lon="5.92056">
        <ele>1383</ele>
        <time>2021-12-29T11:27:56Z</time>
      </trkpt>
      <trkpt lat="44.87379" lon="5.91998">
        <ele>1378</ele>
        <time>2021-12-29T11:28:09Z</time>
      </trkpt>
      <trkpt lat="44.87364" lon="5.91977">
        <ele>1373</ele>
        <time>2021-12-29T11:28:13Z</time>
      </trkpt>
      <trkpt lat="44.87358" lon="5.91962">
        <ele>1372</ele>
        <time>2021-12-29T11:28:15Z</time>
      </trkpt>
      <trkpt lat="44.87357" lon="5.91949">
        <ele>1373</ele>
        <time>2021-12-29T11:28:17Z</time>
      </trkpt>
      <trkpt lat="44.87362" lon="5.91909">
        <ele>1378</ele>
        <time>2021-12-29T11:28:22Z</time>
      </trkpt>
      <trkpt lat="44.87361" lon="5.91891">
        <ele>1378</ele>
        <time>2021-12-29T11:28:24Z</time>
      </trkpt>
      <trkpt lat="44.87349" lon="5.91853">
        <ele>1375</ele>
        <time>2021-12-29T11:28:29Z</time>
      </trkpt>
      <trkpt lat="44.8733" lon="5.91809">
        <ele>1370</ele>
        <time>2021-12-29T11:28:36Z</time>
      </trkpt>
      <trkpt lat="44.87326" lon="5.91782">
        <ele>1368</ele>
        <time>2021-12-29T11:28:39Z</time>
      </trkpt>
      <trkpt lat="44.87327" lon="5.91767">
        <ele>1368</ele>
        <time>2021-12-29T11:28:41Z</time>
      </trkpt>
      <trkpt lat="44.87332" lon="5.91753">
        <ele>1370</ele>
        <time>2021-12-29T11:28:43Z</time>
      </trkpt>
      <trkpt lat="44.87342" lon="5.91741">
        <ele>1369</ele>
        <time>2021-12-29T11:28:45Z</time>
      </trkpt>
      <trkpt lat="44.87419" lon="5.91687">
        <ele>1367</ele>
        <time>2021-12-29T11:29:01Z</time>
      </trkpt>
      <trkpt lat="44.87433" lon="5.91675">
        <ele>1367</ele>
        <time>2021-12-29T11:29:04Z</time>
      </trkpt>
      <trkpt lat="44.87437" lon="5.91662">
        <ele>1366</ele>
        <time>2021-12-29T11:29:05Z</time>
      </trkpt>
      <trkpt lat="44.87435" lon="5.91653">
        <ele>1364</ele>
        <time>2021-12-29T11:29:07Z</time>
      </trkpt>
      <trkpt lat="44.87429" lon="5.91654">
        <ele>1363</ele>
        <time>2021-12-29T11:29:08Z</time>
      </trkpt>
      <trkpt lat="44.8742" lon="5.9166">
        <ele>1363</ele>
        <time>2021-12-29T11:29:09Z</time>
      </trkpt>
      <trkpt lat="44.87407" lon="5.91664">
        <ele>1362</ele>
        <time>2021-12-29T11:29:12Z</time>
      </trkpt>
      <trkpt lat="44.87388" lon="5.91661">
        <ele>1360</ele>
        <time>2021-12-29T11:29:15Z</time>
      </trkpt>
      <trkpt lat="44.87375" lon="5.91651">
        <ele>1357</ele>
        <time>2021-12-29T11:29:18Z</time>
      </trkpt>
      <trkpt lat="44.87354" lon="5.9164">
        <ele>1352</ele>
        <time>2021-12-29T11:29:22Z</time>
      </trkpt>
      <trkpt lat="44.87234" lon="5.91622">
        <ele>1337</ele>
        <time>2021-12-29T11:29:43Z</time>
      </trkpt>
      <trkpt lat="44.87191" lon="5.9162">
        <ele>1330</ele>
        <time>2021-12-29T11:29:51Z</time>
      </trkpt>
      <trkpt lat="44.87158" lon="5.91629">
        <ele>1324</ele>
        <time>2021-12-29T11:29:57Z</time>
      </trkpt>
      <trkpt lat="44.8715" lon="5.91629">
        <ele>1322</ele>
        <time>2021-12-29T11:29:58Z</time>
      </trkpt>
      <trkpt lat="44.8714" lon="5.91624">
        <ele>1319</ele>
        <time>2021-12-29T11:30:00Z</time>
      </trkpt>
      <trkpt lat="44.87122" lon="5.91607">
        <ele>1315</ele>
        <time>2021-12-29T11:30:04Z</time>
      </trkpt>
      <trkpt lat="44.87082" lon="5.91577">
        <ele>1308</ele>
        <time>2021-12-29T11:30:12Z</time>
      </trkpt>
      <trkpt lat="44.86893" lon="5.91445">
        <ele>1297</ele>
        <time>2021-12-29T11:30:50Z</time>
      </trkpt>
      <trkpt lat="44.86836" lon="5.9139">
        <ele>1294</ele>
        <time>2021-12-29T11:31:02Z</time>
      </trkpt>
      <trkpt lat="44.86812" lon="5.9136">
        <ele>1290</ele>
        <time>2021-12-29T11:31:08Z</time>
      </trkpt>
      <trkpt lat="44.86803" lon="5.91343">
        <ele>1289</ele>
        <time>2021-12-29T11:31:10Z</time>
      </trkpt>
      <trkpt lat="44.86791" lon="5.91289">
        <ele>1284</ele>
        <time>2021-12-29T11:31:17Z</time>
      </trkpt>
      <trkpt lat="44.8679" lon="5.91274">
        <ele>1284</ele>
        <time>2021-12-29T11:31:19Z</time>
      </trkpt>
      <trkpt lat="44.86792" lon="5.91247">
        <ele>1283</ele>
        <time>2021-12-29T11:31:23Z</time>
      </trkpt>
      <trkpt lat="44.86803" lon="5.91224">
        <ele>1281</ele>
        <time>2021-12-29T11:31:26Z</time>
      </trkpt>
      <trkpt lat="44.86811" lon="5.91214">
        <ele>1281</ele>
        <time>2021-12-29T11:31:28Z</time>
      </trkpt>
      <trkpt lat="44.8682" lon="5.91207">
        <ele>1281</ele>
        <time>2021-12-29T11:31:30Z</time>
      </trkpt>
      <trkpt lat="44.86848" lon="5.91201">
        <ele>1280</ele>
        <time>2021-12-29T11:31:35Z</time>
      </trkpt>
      <trkpt lat="44.86866" lon="5.912">
        <ele>1278</ele>
        <time>2021-12-29T11:31:38Z</time>
      </trkpt>
      <trkpt lat="44.8688" lon="5.91202">
        <ele>1278</ele>
        <time>2021-12-29T11:31:41Z</time>
      </trkpt>
      <trkpt lat="44.86937" lon="5.91222">
        <ele>1277</ele>
        <time>2021-12-29T11:31:51Z</time>
      </trkpt>
      <trkpt lat="44.86962" lon="5.91237">
        <ele>1276</ele>
        <time>2021-12-29T11:31:56Z</time>
      </trkpt>
      <trkpt lat="44.86975" lon="5.91242">
        <ele>1275</ele>
        <time>2021-12-29T11:31:58Z</time>
      </trkpt>
      <trkpt lat="44.86984" lon="5.91237">
        <ele>1273</ele>
        <time>2021-12-29T11:32:00Z</time>
      </trkpt>
      <trkpt lat="44.86996" lon="5.91215">
        <ele>1268</ele>
        <time>2021-12-29T11:32:04Z</time>
      </trkpt>
      <trkpt lat="44.8701" lon="5.91203">
        <ele>1266</ele>
        <time>2021-12-29T11:32:07Z</time>
      </trkpt>
      <trkpt lat="44.87021" lon="5.91187">
        <ele>1263</ele>
        <time>2021-12-29T11:32:09Z</time>
      </trkpt>
      <trkpt lat="44.8703" lon="5.91169">
        <ele>1261</ele>
        <time>2021-12-29T11:32:12Z</time>
      </trkpt>
      <trkpt lat="44.87034" lon="5.91157">
        <ele>1259</ele>
        <time>2021-12-29T11:32:14Z</time>
      </trkpt>
      <trkpt lat="44.87037" lon="5.91138">
        <ele>1258</ele>
        <time>2021-12-29T11:32:16Z</time>
      </trkpt>
      <trkpt lat="44.87034" lon="5.9112">
        <ele>1257</ele>
        <time>2021-12-29T11:32:19Z</time>
      </trkpt>
      <trkpt lat="44.87022" lon="5.91095">
        <ele>1254</ele>
        <time>2021-12-29T11:32:22Z</time>
      </trkpt>
      <trkpt lat="44.87006" lon="5.91073">
        <ele>1252</ele>
        <time>2021-12-29T11:32:26Z</time>
      </trkpt>
      <trkpt lat="44.86988" lon="5.91056">
        <ele>1251</ele>
        <time>2021-12-29T11:32:30Z</time>
      </trkpt>
      <trkpt lat="44.86973" lon="5.91048">
        <ele>1250</ele>
        <time>2021-12-29T11:32:33Z</time>
      </trkpt>
      <trkpt lat="44.86957" lon="5.91045">
        <ele>1249</ele>
        <time>2021-12-29T11:32:36Z</time>
      </trkpt>
      <trkpt lat="44.86942" lon="5.91047">
        <ele>1248</ele>
        <time>2021-12-29T11:32:39Z</time>
      </trkpt>
      <trkpt lat="44.86933" lon="5.91044">
        <ele>1247</ele>
        <time>2021-12-29T11:32:40Z</time>
      </trkpt>
      <trkpt lat="44.86921" lon="5.91035">
        <ele>1245</ele>
        <time>2021-12-29T11:32:43Z</time>
      </trkpt>
      <trkpt lat="44.86847" lon="5.90939">
        <ele>1235</ele>
        <time>2021-12-29T11:33:01Z</time>
      </trkpt>
      <trkpt lat="44.86835" lon="5.90929">
        <ele>1233</ele>
        <time>2021-12-29T11:33:03Z</time>
      </trkpt>
      <trkpt lat="44.86822" lon="5.90922">
        <ele>1232</ele>
        <time>2021-12-29T11:33:06Z</time>
      </trkpt>
      <trkpt lat="44.86765" lon="5.90898">
        <ele>1227</ele>
        <time>2021-12-29T11:33:16Z</time>
      </trkpt>
      <trkpt lat="44.86694" lon="5.90853">
        <ele>1217</ele>
        <time>2021-12-29T11:33:30Z</time>
      </trkpt>
      <trkpt lat="44.86687" lon="5.90837">
        <ele>1214</ele>
        <time>2021-12-29T11:33:32Z</time>
      </trkpt>
      <trkpt lat="44.86657" lon="5.90825">
        <ele>1211</ele>
        <time>2021-12-29T11:33:38Z</time>
      </trkpt>
      <trkpt lat="44.86645" lon="5.90826">
        <ele>1209</ele>
        <time>2021-12-29T11:33:40Z</time>
      </trkpt>
      <trkpt lat="44.86634" lon="5.90835">
        <ele>1208</ele>
        <time>2021-12-29T11:33:42Z</time>
      </trkpt>
      <trkpt lat="44.8662" lon="5.90864">
        <ele>1208</ele>
        <time>2021-12-29T11:33:47Z</time>
      </trkpt>
      <trkpt lat="44.86615" lon="5.9088">
        <ele>1208</ele>
        <time>2021-12-29T11:33:49Z</time>
      </trkpt>
      <trkpt lat="44.86609" lon="5.9092">
        <ele>1208</ele>
        <time>2021-12-29T11:33:54Z</time>
      </trkpt>
      <trkpt lat="44.86607" lon="5.90958">
        <ele>1209</ele>
        <time>2021-12-29T11:33:59Z</time>
      </trkpt>
      <trkpt lat="44.86608" lon="5.91036">
        <ele>1211</ele>
        <time>2021-12-29T11:34:09Z</time>
      </trkpt>
      <trkpt lat="44.86606" lon="5.91088">
        <ele>1212</ele>
        <time>2021-12-29T11:34:15Z</time>
      </trkpt>
      <trkpt lat="44.86599" lon="5.91157">
        <ele>1214</ele>
        <time>2021-12-29T11:34:24Z</time>
      </trkpt>
      <trkpt lat="44.86593" lon="5.91193">
        <ele>1212</ele>
        <time>2021-12-29T11:34:29Z</time>
      </trkpt>
      <trkpt lat="44.86582" lon="5.91227">
        <ele>1209</ele>
        <time>2021-12-29T11:34:33Z</time>
      </trkpt>
      <trkpt lat="44.86581" lon="5.91245">
        <ele>1209</ele>
        <time>2021-12-29T11:34:36Z</time>
      </trkpt>
      <trkpt lat="44.86588" lon="5.91275">
        <ele>1210</ele>
        <time>2021-12-29T11:34:40Z</time>
      </trkpt>
      <trkpt lat="44.86607" lon="5.91329">
        <ele>1215</ele>
        <time>2021-12-29T11:34:47Z</time>
      </trkpt>
      <trkpt lat="44.86616" lon="5.91366">
        <ele>1216</ele>
        <time>2021-12-29T11:34:52Z</time>
      </trkpt>
      <trkpt lat="44.86623" lon="5.91413">
        <ele>1215</ele>
        <time>2021-12-29T11:34:58Z</time>
      </trkpt>
      <trkpt lat="44.86633" lon="5.9144">
        <ele>1216</ele>
        <time>2021-12-29T11:35:02Z</time>
      </trkpt>
      <trkpt lat="44.86658" lon="5.91484">
        <ele>1216</ele>
        <time>2021-12-29T11:35:09Z</time>
      </trkpt>
      <trkpt lat="44.86679" lon="5.91516">
        <ele>1218</ele>
        <time>2021-12-29T11:35:15Z</time>
      </trkpt>
      <trkpt lat="44.86709" lon="5.91548">
        <ele>1222</ele>
        <time>2021-12-29T11:35:21Z</time>
      </trkpt>
      <trkpt lat="44.86734" lon="5.91571">
        <ele>1223</ele>
        <time>2021-12-29T11:35:27Z</time>
      </trkpt>
      <trkpt lat="44.86746" lon="5.91575">
        <ele>1224</ele>
        <time>2021-12-29T11:35:29Z</time>
      </trkpt>
      <trkpt lat="44.86756" lon="5.91581">
        <ele>1225</ele>
        <time>2021-12-29T11:35:31Z</time>
      </trkpt>
      <trkpt lat="44.86763" lon="5.9159">
        <ele>1226</ele>
        <time>2021-12-29T11:35:33Z</time>
      </trkpt>
      <trkpt lat="44.86764" lon="5.91601">
        <ele>1227</ele>
        <time>2021-12-29T11:35:34Z</time>
      </trkpt>
      <trkpt lat="44.86761" lon="5.91612">
        <ele>1226</ele>
        <time>2021-12-29T11:35:36Z</time>
      </trkpt>
      <trkpt lat="44.86737" lon="5.91618">
        <ele>1223</ele>
        <time>2021-12-29T11:35:40Z</time>
      </trkpt>
      <trkpt lat="44.86715" lon="5.91619">
        <ele>1222</ele>
        <time>2021-12-29T11:35:44Z</time>
      </trkpt>
      <trkpt lat="44.86658" lon="5.91613">
        <ele>1220</ele>
        <time>2021-12-29T11:35:54Z</time>
      </trkpt>
      <trkpt lat="44.86631" lon="5.91604">
        <ele>1220</ele>
        <time>2021-12-29T11:35:59Z</time>
      </trkpt>
      <trkpt lat="44.86614" lon="5.91596">
        <ele>1219</ele>
        <time>2021-12-29T11:36:02Z</time>
      </trkpt>
      <trkpt lat="44.866" lon="5.91583">
        <ele>1217</ele>
        <time>2021-12-29T11:36:05Z</time>
      </trkpt>
      <trkpt lat="44.86583" lon="5.91563">
        <ele>1214</ele>
        <time>2021-12-29T11:36:09Z</time>
      </trkpt>
      <trkpt lat="44.86565" lon="5.91546">
        <ele>1218</ele>
        <time>2021-12-29T11:36:13Z</time>
      </trkpt>
      <trkpt lat="44.8652" lon="5.91493">
        <ele>1220</ele>
        <time>2021-12-29T11:36:23Z</time>
      </trkpt>
      <trkpt lat="44.86488" lon="5.91443">
        <ele>1221</ele>
        <time>2021-12-29T11:36:32Z</time>
      </trkpt>
      <trkpt lat="44.86461" lon="5.9139">
        <ele>1221</ele>
        <time>2021-12-29T11:36:40Z</time>
      </trkpt>
      <trkpt lat="44.86438" lon="5.91349">
        <ele>1221</ele>
        <time>2021-12-29T11:36:47Z</time>
      </trkpt>
      <trkpt lat="44.8641" lon="5.91254">
        <ele>1216</ele>
        <time>2021-12-29T11:37:00Z</time>
      </trkpt>
      <trkpt lat="44.86393" lon="5.91219">
        <ele>1221</ele>
        <time>2021-12-29T11:37:05Z</time>
      </trkpt>
      <trkpt lat="44.86381" lon="5.91184">
        <ele>1222</ele>
        <time>2021-12-29T11:37:10Z</time>
      </trkpt>
      <trkpt lat="44.86247" lon="5.90846">
        <ele>1218</ele>
        <time>2021-12-29T11:37:59Z</time>
      </trkpt>
      <trkpt lat="44.8621" lon="5.90727">
        <ele>1216</ele>
        <time>2021-12-29T11:38:15Z</time>
      </trkpt>
      <trkpt lat="44.86208" lon="5.90691">
        <ele>1210</ele>
        <time>2021-12-29T11:38:20Z</time>
      </trkpt>
      <trkpt lat="44.86164" lon="5.90598">
        <ele>1210</ele>
        <time>2021-12-29T11:38:34Z</time>
      </trkpt>
      <trkpt lat="44.86132" lon="5.90558">
        <ele>1211</ele>
        <time>2021-12-29T11:38:41Z</time>
      </trkpt>
      <trkpt lat="44.86116" lon="5.90541">
        <ele>1213</ele>
        <time>2021-12-29T11:38:45Z</time>
      </trkpt>
      <trkpt lat="44.86107" lon="5.90519">
        <ele>1213</ele>
        <time>2021-12-29T11:38:48Z</time>
      </trkpt>
      <trkpt lat="44.86106" lon="5.90425">
        <ele>1199</ele>
        <time>2021-12-29T11:39:00Z</time>
      </trkpt>
      <trkpt lat="44.86084" lon="5.90349">
        <ele>1195</ele>
        <time>2021-12-29T11:39:10Z</time>
      </trkpt>
      <trkpt lat="44.86072" lon="5.90327">
        <ele>1191</ele>
        <time>2021-12-29T11:39:14Z</time>
      </trkpt>
      <trkpt lat="44.86062" lon="5.90315">
        <ele>1188</ele>
        <time>2021-12-29T11:39:16Z</time>
      </trkpt>
      <trkpt lat="44.86049" lon="5.90311">
        <ele>1186</ele>
        <time>2021-12-29T11:39:18Z</time>
      </trkpt>
      <trkpt lat="44.86029" lon="5.90316">
        <ele>1186</ele>
        <time>2021-12-29T11:39:22Z</time>
      </trkpt>
      <trkpt lat="44.8599" lon="5.90352">
        <ele>1193</ele>
        <time>2021-12-29T11:39:30Z</time>
      </trkpt>
      <trkpt lat="44.85977" lon="5.90358">
        <ele>1193</ele>
        <time>2021-12-29T11:39:33Z</time>
      </trkpt>
      <trkpt lat="44.85948" lon="5.90363">
        <ele>1191</ele>
        <time>2021-12-29T11:39:38Z</time>
      </trkpt>
      <trkpt lat="44.85855" lon="5.90402">
        <ele>1196</ele>
        <time>2021-12-29T11:39:55Z</time>
      </trkpt>
      <trkpt lat="44.85729" lon="5.90444">
        <ele>1201</ele>
        <time>2021-12-29T11:40:18Z</time>
      </trkpt>
      <trkpt lat="44.85643" lon="5.90455">
        <ele>1206</ele>
        <time>2021-12-29T11:40:34Z</time>
      </trkpt>
      <trkpt lat="44.85586" lon="5.90468">
        <ele>1211</ele>
        <time>2021-12-29T11:40:44Z</time>
      </trkpt>
      <trkpt lat="44.85573" lon="5.90468">
        <ele>1211</ele>
        <time>2021-12-29T11:40:46Z</time>
      </trkpt>
      <trkpt lat="44.8554" lon="5.90457">
        <ele>1212</ele>
        <time>2021-12-29T11:40:52Z</time>
      </trkpt>
      <trkpt lat="44.85519" lon="5.90466">
        <ele>1212</ele>
        <time>2021-12-29T11:40:56Z</time>
      </trkpt>
      <trkpt lat="44.85503" lon="5.90483">
        <ele>1211</ele>
        <time>2021-12-29T11:41:00Z</time>
      </trkpt>
      <trkpt lat="44.85474" lon="5.90531">
        <ele>1208</ele>
        <time>2021-12-29T11:41:08Z</time>
      </trkpt>
      <trkpt lat="44.85436" lon="5.90607">
        <ele>1202</ele>
        <time>2021-12-29T11:41:19Z</time>
      </trkpt>
      <trkpt lat="44.85423" lon="5.90627">
        <ele>1201</ele>
        <time>2021-12-29T11:41:23Z</time>
      </trkpt>
      <trkpt lat="44.85407" lon="5.90642">
        <ele>1200</ele>
        <time>2021-12-29T11:41:26Z</time>
      </trkpt>
      <trkpt lat="44.85322" lon="5.90686">
        <ele>1193</ele>
        <time>2021-12-29T11:41:42Z</time>
      </trkpt>
      <trkpt lat="44.85284" lon="5.90712">
        <ele>1190</ele>
        <time>2021-12-29T11:41:50Z</time>
      </trkpt>
      <trkpt lat="44.8526" lon="5.90738">
        <ele>1186</ele>
        <time>2021-12-29T11:41:55Z</time>
      </trkpt>
      <trkpt lat="44.85254" lon="5.90753">
        <ele>1184</ele>
        <time>2021-12-29T11:41:57Z</time>
      </trkpt>
      <trkpt lat="44.85253" lon="5.90787">
        <ele>1181</ele>
        <time>2021-12-29T11:42:02Z</time>
      </trkpt>
      <trkpt lat="44.85255" lon="5.90846">
        <ele>1179</ele>
        <time>2021-12-29T11:42:09Z</time>
      </trkpt>
      <trkpt lat="44.85246" lon="5.90867">
        <ele>1178</ele>
        <time>2021-12-29T11:42:12Z</time>
      </trkpt>
      <trkpt lat="44.85207" lon="5.90939">
        <ele>1171</ele>
        <time>2021-12-29T11:42:24Z</time>
      </trkpt>
      <trkpt lat="44.85134" lon="5.91125">
        <ele>1160</ele>
        <time>2021-12-29T11:42:51Z</time>
      </trkpt>
      <trkpt lat="44.85129" lon="5.91131">
        <ele>1159</ele>
        <time>2021-12-29T11:42:52Z</time>
      </trkpt>
      <trkpt lat="44.85123" lon="5.91128">
        <ele>1158</ele>
        <time>2021-12-29T11:42:53Z</time>
      </trkpt>
      <trkpt lat="44.85121" lon="5.91122">
        <ele>1157</ele>
        <time>2021-12-29T11:42:54Z</time>
      </trkpt>
      <trkpt lat="44.85123" lon="5.91104">
        <ele>1156</ele>
        <time>2021-12-29T11:42:56Z</time>
      </trkpt>
      <trkpt lat="44.8512" lon="5.91037">
        <ele>1154</ele>
        <time>2021-12-29T11:43:04Z</time>
      </trkpt>
      <trkpt lat="44.85115" lon="5.91023">
        <ele>1154</ele>
        <time>2021-12-29T11:43:06Z</time>
      </trkpt>
      <trkpt lat="44.85106" lon="5.91016">
        <ele>1152</ele>
        <time>2021-12-29T11:43:08Z</time>
      </trkpt>
      <trkpt lat="44.85097" lon="5.91013">
        <ele>1151</ele>
        <time>2021-12-29T11:43:10Z</time>
      </trkpt>
      <trkpt lat="44.85091" lon="5.91019">
        <ele>1150</ele>
        <time>2021-12-29T11:43:11Z</time>
      </trkpt>
      <trkpt lat="44.85081" lon="5.9104">
        <ele>1148</ele>
        <time>2021-12-29T11:43:14Z</time>
      </trkpt>
      <trkpt lat="44.85045" lon="5.91072">
        <ele>1145</ele>
        <time>2021-12-29T11:43:22Z</time>
      </trkpt>
      <trkpt lat="44.85022" lon="5.91097">
        <ele>1141</ele>
        <time>2021-12-29T11:43:27Z</time>
      </trkpt>
      <trkpt lat="44.84985" lon="5.91127">
        <ele>1137</ele>
        <time>2021-12-29T11:43:35Z</time>
      </trkpt>
      <trkpt lat="44.8496" lon="5.91178">
        <ele>1132</ele>
        <time>2021-12-29T11:43:43Z</time>
      </trkpt>
      <trkpt lat="44.8494" lon="5.91225">
        <ele>1131</ele>
        <time>2021-12-29T11:43:49Z</time>
      </trkpt>
      <trkpt lat="44.84924" lon="5.91271">
        <ele>1133</ele>
        <time>2021-12-29T11:43:56Z</time>
      </trkpt>
      <trkpt lat="44.84921" lon="5.91286">
        <ele>1135</ele>
        <time>2021-12-29T11:43:58Z</time>
      </trkpt>
      <trkpt lat="44.84916" lon="5.91296">
        <ele>1136</ele>
        <time>2021-12-29T11:43:59Z</time>
      </trkpt>
      <trkpt lat="44.84905" lon="5.91301">
        <ele>1138</ele>
        <time>2021-12-29T11:44:02Z</time>
      </trkpt>
      <trkpt lat="44.84892" lon="5.91297">
        <ele>1137</ele>
        <time>2021-12-29T11:44:04Z</time>
      </trkpt>
      <trkpt lat="44.84861" lon="5.91278">
        <ele>1133</ele>
        <time>2021-12-29T11:44:10Z</time>
      </trkpt>
      <trkpt lat="44.84845" lon="5.91274">
        <ele>1132</ele>
        <time>2021-12-29T11:44:13Z</time>
      </trkpt>
      <trkpt lat="44.84798" lon="5.91277">
        <ele>1129</ele>
        <time>2021-12-29T11:44:21Z</time>
      </trkpt>
      <trkpt lat="44.84752" lon="5.91291">
        <ele>1129</ele>
        <time>2021-12-29T11:44:30Z</time>
      </trkpt>
      <trkpt lat="44.84694" lon="5.91332">
        <ele>1122</ele>
        <time>2021-12-29T11:44:41Z</time>
      </trkpt>
      <trkpt lat="44.84638" lon="5.91395">
        <ele>1125</ele>
        <time>2021-12-29T11:44:54Z</time>
      </trkpt>
      <trkpt lat="44.84594" lon="5.91465">
        <ele>1125</ele>
        <time>2021-12-29T11:45:06Z</time>
      </trkpt>
      <trkpt lat="44.84586" lon="5.91486">
        <ele>1127</ele>
        <time>2021-12-29T11:45:09Z</time>
      </trkpt>
      <trkpt lat="44.84582" lon="5.91504">
        <ele>1131</ele>
        <time>2021-12-29T11:45:11Z</time>
      </trkpt>
      <trkpt lat="44.84575" lon="5.91512">
        <ele>1132</ele>
        <time>2021-12-29T11:45:13Z</time>
      </trkpt>
      <trkpt lat="44.84538" lon="5.91526">
        <ele>1125</ele>
        <time>2021-12-29T11:45:19Z</time>
      </trkpt>
      <trkpt lat="44.84526" lon="5.91533">
        <ele>1123</ele>
        <time>2021-12-29T11:45:22Z</time>
      </trkpt>
      <trkpt lat="44.84454" lon="5.91592">
        <ele>1124</ele>
        <time>2021-12-29T11:45:37Z</time>
      </trkpt>
      <trkpt lat="44.84389" lon="5.91638">
        <ele>1128</ele>
        <time>2021-12-29T11:45:49Z</time>
      </trkpt>
      <trkpt lat="44.84362" lon="5.91651">
        <ele>1128</ele>
        <time>2021-12-29T11:45:55Z</time>
      </trkpt>
      <trkpt lat="44.84326" lon="5.91661">
        <ele>1126</ele>
        <time>2021-12-29T11:46:01Z</time>
      </trkpt>
      <trkpt lat="44.84293" lon="5.91662">
        <ele>1126</ele>
        <time>2021-12-29T11:46:07Z</time>
      </trkpt>
      <trkpt lat="44.84258" lon="5.9165">
        <ele>1119</ele>
        <time>2021-12-29T11:46:13Z</time>
      </trkpt>
      <trkpt lat="44.8422" lon="5.91629">
        <ele>1105</ele>
        <time>2021-12-29T11:46:21Z</time>
      </trkpt>
      <trkpt lat="44.84208" lon="5.91626">
        <ele>1102</ele>
        <time>2021-12-29T11:46:23Z</time>
      </trkpt>
      <trkpt lat="44.84198" lon="5.9163">
        <ele>1102</ele>
        <time>2021-12-29T11:46:25Z</time>
      </trkpt>
      <trkpt lat="44.84188" lon="5.91639">
        <ele>1105</ele>
        <time>2021-12-29T11:46:27Z</time>
      </trkpt>
      <trkpt lat="44.84182" lon="5.91656">
        <ele>1110</ele>
        <time>2021-12-29T11:46:29Z</time>
      </trkpt>
      <trkpt lat="44.84182" lon="5.91669">
        <ele>1114</ele>
        <time>2021-12-29T11:46:31Z</time>
      </trkpt>
      <trkpt lat="44.84184" lon="5.91684">
        <ele>1115</ele>
        <time>2021-12-29T11:46:33Z</time>
      </trkpt>
      <trkpt lat="44.84194" lon="5.91714">
        <ele>1119</ele>
        <time>2021-12-29T11:46:37Z</time>
      </trkpt>
      <trkpt lat="44.84196" lon="5.91731">
        <ele>1121</ele>
        <time>2021-12-29T11:46:39Z</time>
      </trkpt>
      <trkpt lat="44.84192" lon="5.91817">
        <ele>1121</ele>
        <time>2021-12-29T11:46:50Z</time>
      </trkpt>
      <trkpt lat="44.84188" lon="5.91849">
        <ele>1119</ele>
        <time>2021-12-29T11:46:54Z</time>
      </trkpt>
      <trkpt lat="44.8416" lon="5.91947">
        <ele>1106</ele>
        <time>2021-12-29T11:47:07Z</time>
      </trkpt>
      <trkpt lat="44.84158" lon="5.91964">
        <ele>1105</ele>
        <time>2021-12-29T11:47:10Z</time>
      </trkpt>
      <trkpt lat="44.84161" lon="5.91986">
        <ele>1105</ele>
        <time>2021-12-29T11:47:12Z</time>
      </trkpt>
      <trkpt lat="44.84172" lon="5.9201">
        <ele>1105</ele>
        <time>2021-12-29T11:47:16Z</time>
      </trkpt>
      <trkpt lat="44.84188" lon="5.92029">
        <ele>1105</ele>
        <time>2021-12-29T11:47:20Z</time>
      </trkpt>
      <trkpt lat="44.84209" lon="5.92049">
        <ele>1106</ele>
        <time>2021-12-29T11:47:24Z</time>
      </trkpt>
      <trkpt lat="44.8427" lon="5.92085">
        <ele>1114</ele>
        <time>2021-12-29T11:47:36Z</time>
      </trkpt>
      <trkpt lat="44.84284" lon="5.92099">
        <ele>1115</ele>
        <time>2021-12-29T11:47:39Z</time>
      </trkpt>
      <trkpt lat="44.84301" lon="5.9212">
        <ele>1114</ele>
        <time>2021-12-29T11:47:43Z</time>
      </trkpt>
      <trkpt lat="44.84311" lon="5.92138">
        <ele>1112</ele>
        <time>2021-12-29T11:47:46Z</time>
      </trkpt>
      <trkpt lat="44.84334" lon="5.922">
        <ele>1110</ele>
        <time>2021-12-29T11:47:55Z</time>
      </trkpt>
      <trkpt lat="44.84342" lon="5.92223">
        <ele>1112</ele>
        <time>2021-12-29T11:47:58Z</time>
      </trkpt>
      <trkpt lat="44.8434" lon="5.92236">
        <ele>1111</ele>
        <time>2021-12-29T11:48:00Z</time>
      </trkpt>
      <trkpt lat="44.84334" lon="5.92243">
        <ele>1108</ele>
        <time>2021-12-29T11:48:01Z</time>
      </trkpt>
      <trkpt lat="44.84325" lon="5.92245">
        <ele>1107</ele>
        <time>2021-12-29T11:48:03Z</time>
      </trkpt>
      <trkpt lat="44.84317" lon="5.92239">
        <ele>1106</ele>
        <time>2021-12-29T11:48:04Z</time>
      </trkpt>
      <trkpt lat="44.84301" lon="5.9222">
        <ele>1102</ele>
        <time>2021-12-29T11:48:08Z</time>
      </trkpt>
      <trkpt lat="44.84288" lon="5.92212">
        <ele>1098</ele>
        <time>2021-12-29T11:48:11Z</time>
      </trkpt>
      <trkpt lat="44.84278" lon="5.9221">
        <ele>1096</ele>
        <time>2021-12-29T11:48:12Z</time>
      </trkpt>
      <trkpt lat="44.84259" lon="5.92218">
        <ele>1092</ele>
        <time>2021-12-29T11:48:16Z</time>
      </trkpt>
      <trkpt lat="44.84214" lon="5.92249">
        <ele>1088</ele>
        <time>2021-12-29T11:48:25Z</time>
      </trkpt>
      <trkpt lat="44.84161" lon="5.92295">
        <ele>1088</ele>
        <time>2021-12-29T11:48:36Z</time>
      </trkpt>
      <trkpt lat="44.84137" lon="5.92332">
        <ele>1095</ele>
        <time>2021-12-29T11:48:42Z</time>
      </trkpt>
      <trkpt lat="44.84078" lon="5.92369">
        <ele>1095</ele>
        <time>2021-12-29T11:48:54Z</time>
      </trkpt>
      <trkpt lat="44.84053" lon="5.92373">
        <ele>1093</ele>
        <time>2021-12-29T11:48:58Z</time>
      </trkpt>
      <trkpt lat="44.83988" lon="5.92399">
        <ele>1089</ele>
        <time>2021-12-29T11:49:10Z</time>
      </trkpt>
      <trkpt lat="44.83956" lon="5.92406">
        <ele>1083</ele>
        <time>2021-12-29T11:49:16Z</time>
      </trkpt>
      <trkpt lat="44.83896" lon="5.92433">
        <ele>1079</ele>
        <time>2021-12-29T11:49:27Z</time>
      </trkpt>
      <trkpt lat="44.83822" lon="5.92461">
        <ele>1077</ele>
        <time>2021-12-29T11:49:41Z</time>
      </trkpt>
      <trkpt lat="44.83798" lon="5.92463">
        <ele>1075</ele>
        <time>2021-12-29T11:49:45Z</time>
      </trkpt>
      <trkpt lat="44.83757" lon="5.92456">
        <ele>1070</ele>
        <time>2021-12-29T11:49:52Z</time>
      </trkpt>
      <trkpt lat="44.83741" lon="5.92456">
        <ele>1069</ele>
        <time>2021-12-29T11:49:55Z</time>
      </trkpt>
      <trkpt lat="44.83702" lon="5.92461">
        <ele>1066</ele>
        <time>2021-12-29T11:50:02Z</time>
      </trkpt>
      <trkpt lat="44.8363" lon="5.92481">
        <ele>1061</ele>
        <time>2021-12-29T11:50:15Z</time>
      </trkpt>
      <trkpt lat="44.83613" lon="5.92487">
        <ele>1059</ele>
        <time>2021-12-29T11:50:18Z</time>
      </trkpt>
      <trkpt lat="44.83577" lon="5.92508">
        <ele>1056</ele>
        <time>2021-12-29T11:50:25Z</time>
      </trkpt>
      <trkpt lat="44.83567" lon="5.92522">
        <ele>1056</ele>
        <time>2021-12-29T11:50:28Z</time>
      </trkpt>
      <trkpt lat="44.83558" lon="5.92543">
        <ele>1058</ele>
        <time>2021-12-29T11:50:31Z</time>
      </trkpt>
      <trkpt lat="44.8355" lon="5.92572">
        <ele>1062</ele>
        <time>2021-12-29T11:50:35Z</time>
      </trkpt>
      <trkpt lat="44.83539" lon="5.92588">
        <ele>1062</ele>
        <time>2021-12-29T11:50:38Z</time>
      </trkpt>
      <trkpt lat="44.83529" lon="5.92596">
        <ele>1062</ele>
        <time>2021-12-29T11:50:40Z</time>
      </trkpt>
      <trkpt lat="44.8352" lon="5.92598">
        <ele>1060</ele>
        <time>2021-12-29T11:50:41Z</time>
      </trkpt>
      <trkpt lat="44.83508" lon="5.92592">
        <ele>1056</ele>
        <time>2021-12-29T11:50:44Z</time>
      </trkpt>
      <trkpt lat="44.83492" lon="5.92577">
        <ele>1050</ele>
        <time>2021-12-29T11:50:47Z</time>
      </trkpt>
      <trkpt lat="44.83476" lon="5.92569">
        <ele>1046</ele>
        <time>2021-12-29T11:50:50Z</time>
      </trkpt>
      <trkpt lat="44.83457" lon="5.92567">
        <ele>1043</ele>
        <time>2021-12-29T11:50:53Z</time>
      </trkpt>
      <trkpt lat="44.83436" lon="5.92573">
        <ele>1041</ele>
        <time>2021-12-29T11:50:57Z</time>
      </trkpt>
      <trkpt lat="44.83415" lon="5.92584">
        <ele>1041</ele>
        <time>2021-12-29T11:51:01Z</time>
      </trkpt>
      <trkpt lat="44.83394" lon="5.92604">
        <ele>1040</ele>
        <time>2021-12-29T11:51:06Z</time>
      </trkpt>
      <trkpt lat="44.83327" lon="5.92691">
        <ele>1036</ele>
        <time>2021-12-29T11:51:22Z</time>
      </trkpt>
      <trkpt lat="44.8331" lon="5.92716">
        <ele>1034</ele>
        <time>2021-12-29T11:51:26Z</time>
      </trkpt>
      <trkpt lat="44.83262" lon="5.928">
        <ele>1028</ele>
        <time>2021-12-29T11:51:40Z</time>
      </trkpt>
      <trkpt lat="44.83244" lon="5.92848">
        <ele>1024</ele>
        <time>2021-12-29T11:51:47Z</time>
      </trkpt>
      <trkpt lat="44.83233" lon="5.92886">
        <ele>1022</ele>
        <time>2021-12-29T11:51:52Z</time>
      </trkpt>
      <trkpt lat="44.83227" lon="5.9292">
        <ele>1021</ele>
        <time>2021-12-29T11:51:56Z</time>
      </trkpt>
      <trkpt lat="44.83229" lon="5.92971">
        <ele>1018</ele>
        <time>2021-12-29T11:52:03Z</time>
      </trkpt>
      <trkpt lat="44.83238" lon="5.93005">
        <ele>1019</ele>
        <time>2021-12-29T11:52:07Z</time>
      </trkpt>
      <trkpt lat="44.83264" lon="5.93074">
        <ele>1016</ele>
        <time>2021-12-29T11:52:17Z</time>
      </trkpt>
      <trkpt lat="44.8328" lon="5.93103">
        <ele>1016</ele>
        <time>2021-12-29T11:52:22Z</time>
      </trkpt>
      <trkpt lat="44.83302" lon="5.9313">
        <ele>1020</ele>
        <time>2021-12-29T11:52:27Z</time>
      </trkpt>
      <trkpt lat="44.83315" lon="5.93158">
        <ele>1020</ele>
        <time>2021-12-29T11:52:31Z</time>
      </trkpt>
      <trkpt lat="44.83323" lon="5.93196">
        <ele>1019</ele>
        <time>2021-12-29T11:52:36Z</time>
      </trkpt>
      <trkpt lat="44.83326" lon="5.93243">
        <ele>1016</ele>
        <time>2021-12-29T11:52:42Z</time>
      </trkpt>
      <trkpt lat="44.8332" lon="5.93284">
        <ele>1011</ele>
        <time>2021-12-29T11:52:48Z</time>
      </trkpt>
      <trkpt lat="44.83318" lon="5.9332">
        <ele>1009</ele>
        <time>2021-12-29T11:52:52Z</time>
      </trkpt>
      <trkpt lat="44.83326" lon="5.93367">
        <ele>1007</ele>
        <time>2021-12-29T11:52:58Z</time>
      </trkpt>
      <trkpt lat="44.83338" lon="5.93399">
        <ele>1008</ele>
        <time>2021-12-29T11:53:03Z</time>
      </trkpt>
      <trkpt lat="44.83359" lon="5.93444">
        <ele>1016</ele>
        <time>2021-12-29T11:53:10Z</time>
      </trkpt>
      <trkpt lat="44.8336" lon="5.93465">
        <ele>1017</ele>
        <time>2021-12-29T11:53:12Z</time>
      </trkpt>
      <trkpt lat="44.83356" lon="5.93483">
        <ele>1016</ele>
        <time>2021-12-29T11:53:15Z</time>
      </trkpt>
      <trkpt lat="44.8334" lon="5.93511">
        <ele>1012</ele>
        <time>2021-12-29T11:53:19Z</time>
      </trkpt>
      <trkpt lat="44.83293" lon="5.93579">
        <ele>1006</ele>
        <time>2021-12-29T11:53:31Z</time>
      </trkpt>
      <trkpt lat="44.83267" lon="5.93621">
        <ele>1004</ele>
        <time>2021-12-29T11:53:38Z</time>
      </trkpt>
      <trkpt lat="44.83245" lon="5.93672">
        <ele>1004</ele>
        <time>2021-12-29T11:53:46Z</time>
      </trkpt>
      <trkpt lat="44.83239" lon="5.93695">
        <ele>1004</ele>
        <time>2021-12-29T11:53:49Z</time>
      </trkpt>
      <trkpt lat="44.8324" lon="5.93729">
        <ele>1006</ele>
        <time>2021-12-29T11:53:53Z</time>
      </trkpt>
      <trkpt lat="44.83248" lon="5.93759">
        <ele>1009</ele>
        <time>2021-12-29T11:53:57Z</time>
      </trkpt>
      <trkpt lat="44.83257" lon="5.93809">
        <ele>1005</ele>
        <time>2021-12-29T11:54:04Z</time>
      </trkpt>
      <trkpt lat="44.83266" lon="5.93828">
        <ele>1004</ele>
        <time>2021-12-29T11:54:07Z</time>
      </trkpt>
      <trkpt lat="44.83279" lon="5.93842">
        <ele>1005</ele>
        <time>2021-12-29T11:54:09Z</time>
      </trkpt>
      <trkpt lat="44.83304" lon="5.93853">
        <ele>1007</ele>
        <time>2021-12-29T11:54:14Z</time>
      </trkpt>
      <trkpt lat="44.83385" lon="5.93913">
        <ele>1014</ele>
        <time>2021-12-29T11:54:30Z</time>
      </trkpt>
      <trkpt lat="44.83401" lon="5.9393">
        <ele>1016</ele>
        <time>2021-12-29T11:54:34Z</time>
      </trkpt>
      <trkpt lat="44.83407" lon="5.93941">
        <ele>1016</ele>
        <time>2021-12-29T11:54:36Z</time>
      </trkpt>
      <trkpt lat="44.83409" lon="5.93957">
        <ele>1014</ele>
        <time>2021-12-29T11:54:38Z</time>
      </trkpt>
      <trkpt lat="44.83404" lon="5.93965">
        <ele>1011</ele>
        <time>2021-12-29T11:54:39Z</time>
      </trkpt>
      <trkpt lat="44.83386" lon="5.93968">
        <ele>1007</ele>
        <time>2021-12-29T11:54:42Z</time>
      </trkpt>
      <trkpt lat="44.83368" lon="5.93976">
        <ele>1003</ele>
        <time>2021-12-29T11:54:46Z</time>
      </trkpt>
      <trkpt lat="44.8335" lon="5.94005">
        <ele>999</ele>
        <time>2021-12-29T11:54:51Z</time>
      </trkpt>
      <trkpt lat="44.83333" lon="5.94024">
        <ele>999</ele>
        <time>2021-12-29T11:54:54Z</time>
      </trkpt>
      <trkpt lat="44.83319" lon="5.94032">
        <ele>999</ele>
        <time>2021-12-29T11:54:57Z</time>
      </trkpt>
      <trkpt lat="44.83251" lon="5.94046">
        <ele>996</ele>
        <time>2021-12-29T11:55:09Z</time>
      </trkpt>
      <trkpt lat="44.8317" lon="5.94072">
        <ele>1004</ele>
        <time>2021-12-29T11:55:24Z</time>
      </trkpt>
      <trkpt lat="44.8316" lon="5.94071">
        <ele>1006</ele>
        <time>2021-12-29T11:55:26Z</time>
      </trkpt>
      <trkpt lat="44.83151" lon="5.94066">
        <ele>1008</ele>
        <time>2021-12-29T11:55:28Z</time>
      </trkpt>
      <trkpt lat="44.83099" lon="5.94005">
        <ele>999</ele>
        <time>2021-12-29T11:55:40Z</time>
      </trkpt>
      <trkpt lat="44.83054" lon="5.93962">
        <ele>997</ele>
        <time>2021-12-29T11:55:49Z</time>
      </trkpt>
      <trkpt lat="44.83014" lon="5.93916">
        <ele>995</ele>
        <time>2021-12-29T11:55:58Z</time>
      </trkpt>
      <trkpt lat="44.82997" lon="5.93888">
        <ele>993</ele>
        <time>2021-12-29T11:56:03Z</time>
      </trkpt>
      <trkpt lat="44.82966" lon="5.93816">
        <ele>984</ele>
        <time>2021-12-29T11:56:14Z</time>
      </trkpt>
      <trkpt lat="44.82939" lon="5.93742">
        <ele>980</ele>
        <time>2021-12-29T11:56:24Z</time>
      </trkpt>
      <trkpt lat="44.82933" lon="5.9372">
        <ele>978</ele>
        <time>2021-12-29T11:56:27Z</time>
      </trkpt>
      <trkpt lat="44.82922" lon="5.93619">
        <ele>973</ele>
        <time>2021-12-29T11:56:40Z</time>
      </trkpt>
      <trkpt lat="44.82926" lon="5.93582">
        <ele>973</ele>
        <time>2021-12-29T11:56:45Z</time>
      </trkpt>
      <trkpt lat="44.82931" lon="5.93545">
        <ele>965</ele>
        <time>2021-12-29T11:56:50Z</time>
      </trkpt>
      <trkpt lat="44.82928" lon="5.93522">
        <ele>962</ele>
        <time>2021-12-29T11:56:53Z</time>
      </trkpt>
      <trkpt lat="44.82922" lon="5.9351">
        <ele>961</ele>
        <time>2021-12-29T11:56:54Z</time>
      </trkpt>
      <trkpt lat="44.82912" lon="5.935">
        <ele>961</ele>
        <time>2021-12-29T11:56:57Z</time>
      </trkpt>
      <trkpt lat="44.82896" lon="5.93491">
        <ele>959</ele>
        <time>2021-12-29T11:57:00Z</time>
      </trkpt>
      <trkpt lat="44.8288" lon="5.93487">
        <ele>957</ele>
        <time>2021-12-29T11:57:03Z</time>
      </trkpt>
      <trkpt lat="44.82864" lon="5.93487">
        <ele>957</ele>
        <time>2021-12-29T11:57:05Z</time>
      </trkpt>
      <trkpt lat="44.82818" lon="5.93494">
        <ele>955</ele>
        <time>2021-12-29T11:57:14Z</time>
      </trkpt>
      <trkpt lat="44.82794" lon="5.93504">
        <ele>951</ele>
        <time>2021-12-29T11:57:18Z</time>
      </trkpt>
      <trkpt lat="44.82779" lon="5.93521">
        <ele>949</ele>
        <time>2021-12-29T11:57:21Z</time>
      </trkpt>
      <trkpt lat="44.82775" lon="5.93532">
        <ele>950</ele>
        <time>2021-12-29T11:57:23Z</time>
      </trkpt>
      <trkpt lat="44.82768" lon="5.93665">
        <ele>953</ele>
        <time>2021-12-29T11:57:40Z</time>
      </trkpt>
      <trkpt lat="44.82773" lon="5.93701">
        <ele>953</ele>
        <time>2021-12-29T11:57:45Z</time>
      </trkpt>
      <trkpt lat="44.82774" lon="5.93774">
        <ele>949</ele>
        <time>2021-12-29T11:57:54Z</time>
      </trkpt>
      <trkpt lat="44.82768" lon="5.93912">
        <ele>943</ele>
        <time>2021-12-29T11:58:11Z</time>
      </trkpt>
      <trkpt lat="44.82764" lon="5.93938">
        <ele>943</ele>
        <time>2021-12-29T11:58:15Z</time>
      </trkpt>
      <trkpt lat="44.82714" lon="5.94066">
        <ele>938</ele>
        <time>2021-12-29T11:58:33Z</time>
      </trkpt>
      <trkpt lat="44.82702" lon="5.94091">
        <ele>937</ele>
        <time>2021-12-29T11:58:37Z</time>
      </trkpt>
      <trkpt lat="44.82688" lon="5.94116">
        <ele>936</ele>
        <time>2021-12-29T11:58:41Z</time>
      </trkpt>
      <trkpt lat="44.82666" lon="5.94139">
        <ele>931</ele>
        <time>2021-12-29T11:58:46Z</time>
      </trkpt>
      <trkpt lat="44.8254" lon="5.94242">
        <ele>913</ele>
        <time>2021-12-29T11:59:12Z</time>
      </trkpt>
      <trkpt lat="44.82507" lon="5.94281">
        <ele>907</ele>
        <time>2021-12-29T11:59:19Z</time>
      </trkpt>
      <trkpt lat="44.82497" lon="5.94303">
        <ele>907</ele>
        <time>2021-12-29T11:59:23Z</time>
      </trkpt>
      <trkpt lat="44.82488" lon="5.94332">
        <ele>908</ele>
        <time>2021-12-29T11:59:27Z</time>
      </trkpt>
      <trkpt lat="44.82486" lon="5.94355">
        <ele>907</ele>
        <time>2021-12-29T11:59:29Z</time>
      </trkpt>
      <trkpt lat="44.82492" lon="5.94403">
        <ele>907</ele>
        <time>2021-12-29T11:59:36Z</time>
      </trkpt>
      <trkpt lat="44.82487" lon="5.94435">
        <ele>905</ele>
        <time>2021-12-29T11:59:40Z</time>
      </trkpt>
      <trkpt lat="44.8248" lon="5.94465">
        <ele>904</ele>
        <time>2021-12-29T11:59:44Z</time>
      </trkpt>
      <trkpt lat="44.82467" lon="5.94492">
        <ele>902</ele>
        <time>2021-12-29T11:59:48Z</time>
      </trkpt>
      <trkpt lat="44.82446" lon="5.94515">
        <ele>898</ele>
        <time>2021-12-29T11:59:53Z</time>
      </trkpt>
      <trkpt lat="44.82428" lon="5.94545">
        <ele>896</ele>
        <time>2021-12-29T11:59:58Z</time>
      </trkpt>
      <trkpt lat="44.8238" lon="5.94642">
        <ele>895</ele>
        <time>2021-12-29T12:00:12Z</time>
      </trkpt>
      <trkpt lat="44.82334" lon="5.9474">
        <ele>891</ele>
        <time>2021-12-29T12:00:27Z</time>
      </trkpt>
      <trkpt lat="44.82326" lon="5.94758">
        <ele>891</ele>
        <time>2021-12-29T12:00:30Z</time>
      </trkpt>
      <trkpt lat="44.82321" lon="5.94778">
        <ele>891</ele>
        <time>2021-12-29T12:00:33Z</time>
      </trkpt>
      <trkpt lat="44.82313" lon="5.94814">
        <ele>890</ele>
        <time>2021-12-29T12:00:37Z</time>
      </trkpt>
      <trkpt lat="44.82308" lon="5.94855">
        <ele>890</ele>
        <time>2021-12-29T12:00:43Z</time>
      </trkpt>
      <trkpt lat="44.82306" lon="5.94862">
        <ele>890</ele>
        <time>2021-12-29T12:00:44Z</time>
      </trkpt>
      <trkpt lat="44.82299" lon="5.94867">
        <ele>889</ele>
        <time>2021-12-29T12:00:45Z</time>
      </trkpt>
      <trkpt lat="44.82294" lon="5.94867">
        <ele>888</ele>
        <time>2021-12-29T12:00:46Z</time>
      </trkpt>
      <trkpt lat="44.82292" lon="5.94926">
        <ele>889</ele>
        <time>2021-12-29T12:00:53Z</time>
      </trkpt>
      <trkpt lat="44.82296" lon="5.95096">
        <ele>892</ele>
        <time>2021-12-29T12:01:15Z</time>
      </trkpt>
      <trkpt lat="44.82299" lon="5.95139">
        <ele>894</ele>
        <time>2021-12-29T12:01:20Z</time>
      </trkpt>
      <trkpt lat="44.82312" lon="5.9521">
        <ele>896</ele>
        <time>2021-12-29T12:01:30Z</time>
      </trkpt>
      <trkpt lat="44.82312" lon="5.95235">
        <ele>896</ele>
        <time>2021-12-29T12:01:33Z</time>
      </trkpt>
      <trkpt lat="44.82307" lon="5.95247">
        <ele>897</ele>
        <time>2021-12-29T12:01:34Z</time>
      </trkpt>
      <trkpt lat="44.823" lon="5.95256">
        <ele>898</ele>
        <time>2021-12-29T12:01:36Z</time>
      </trkpt>
      <trkpt lat="44.82289" lon="5.95261">
        <ele>900</ele>
        <time>2021-12-29T12:01:38Z</time>
      </trkpt>
      <trkpt lat="44.82284" lon="5.95262">
        <ele>901</ele>
        <time>2021-12-29T12:01:39Z</time>
      </trkpt>
      <trkpt lat="44.82268" lon="5.95253">
        <ele>901</ele>
        <time>2021-12-29T12:01:42Z</time>
      </trkpt>
      <trkpt lat="44.82259" lon="5.9524">
        <ele>901</ele>
        <time>2021-12-29T12:01:44Z</time>
      </trkpt>
      <trkpt lat="44.82254" lon="5.95226">
        <ele>899</ele>
        <time>2021-12-29T12:01:46Z</time>
      </trkpt>
      <trkpt lat="44.82231" lon="5.95141">
        <ele>903</ele>
        <time>2021-12-29T12:01:58Z</time>
      </trkpt>
      <trkpt lat="44.82224" lon="5.9512">
        <ele>905</ele>
        <time>2021-12-29T12:02:01Z</time>
      </trkpt>
      <trkpt lat="44.82182" lon="5.95021">
        <ele>913</ele>
        <time>2021-12-29T12:02:15Z</time>
      </trkpt>
      <trkpt lat="44.8217" lon="5.94999">
        <ele>913</ele>
        <time>2021-12-29T12:02:19Z</time>
      </trkpt>
      <trkpt lat="44.82126" lon="5.94934">
        <ele>922</ele>
        <time>2021-12-29T12:02:30Z</time>
      </trkpt>
      <trkpt lat="44.82103" lon="5.94897">
        <ele>924</ele>
        <time>2021-12-29T12:02:36Z</time>
      </trkpt>
      <trkpt lat="44.82091" lon="5.94865">
        <ele>923</ele>
        <time>2021-12-29T12:02:41Z</time>
      </trkpt>
      <trkpt lat="44.82066" lon="5.94781">
        <ele>920</ele>
        <time>2021-12-29T12:02:53Z</time>
      </trkpt>
      <trkpt lat="44.82039" lon="5.94705">
        <ele>923</ele>
        <time>2021-12-29T12:03:03Z</time>
      </trkpt>
      <trkpt lat="44.82019" lon="5.94631">
        <ele>925</ele>
        <time>2021-12-29T12:03:13Z</time>
      </trkpt>
      <trkpt lat="44.82004" lon="5.94616">
        <ele>929</ele>
        <time>2021-12-29T12:03:17Z</time>
      </trkpt>
      <trkpt lat="44.81996" lon="5.94615">
        <ele>930</ele>
        <time>2021-12-29T12:03:18Z</time>
      </trkpt>
      <trkpt lat="44.81978" lon="5.94619">
        <ele>931</ele>
        <time>2021-12-29T12:03:21Z</time>
      </trkpt>
      <trkpt lat="44.81972" lon="5.94627">
        <ele>932</ele>
        <time>2021-12-29T12:03:23Z</time>
      </trkpt>
      <trkpt lat="44.81969" lon="5.94633">
        <ele>932</ele>
        <time>2021-12-29T12:03:24Z</time>
      </trkpt>
      <trkpt lat="44.8197" lon="5.94648">
        <ele>933</ele>
        <time>2021-12-29T12:03:25Z</time>
      </trkpt>
      <trkpt lat="44.81973" lon="5.94657">
        <ele>933</ele>
        <time>2021-12-29T12:03:27Z</time>
      </trkpt>
      <trkpt lat="44.81968" lon="5.94712">
        <ele>935</ele>
        <time>2021-12-29T12:03:34Z</time>
      </trkpt>
      <trkpt lat="44.81951" lon="5.94745">
        <ele>938</ele>
        <time>2021-12-29T12:03:39Z</time>
      </trkpt>
      <trkpt lat="44.81934" lon="5.94766">
        <ele>941</ele>
        <time>2021-12-29T12:03:43Z</time>
      </trkpt>
      <trkpt lat="44.81925" lon="5.94773">
        <ele>942</ele>
        <time>2021-12-29T12:03:45Z</time>
      </trkpt>
      <trkpt lat="44.81918" lon="5.94775">
        <ele>943</ele>
        <time>2021-12-29T12:03:46Z</time>
      </trkpt>
      <trkpt lat="44.81876" lon="5.94756">
        <ele>943</ele>
        <time>2021-12-29T12:03:54Z</time>
      </trkpt>
      <trkpt lat="44.81809" lon="5.94736">
        <ele>942</ele>
        <time>2021-12-29T12:04:06Z</time>
      </trkpt>
      <trkpt lat="44.81799" lon="5.94737">
        <ele>941</ele>
        <time>2021-12-29T12:04:08Z</time>
      </trkpt>
      <trkpt lat="44.81796" lon="5.94739">
        <ele>941</ele>
        <time>2021-12-29T12:04:08Z</time>
      </trkpt>
      <trkpt lat="44.81792" lon="5.94745">
        <ele>941</ele>
        <time>2021-12-29T12:04:09Z</time>
      </trkpt>
      <trkpt lat="44.81775" lon="5.94786">
        <ele>942</ele>
        <time>2021-12-29T12:04:15Z</time>
      </trkpt>
      <trkpt lat="44.81767" lon="5.94814">
        <ele>943</ele>
        <time>2021-12-29T12:04:19Z</time>
      </trkpt>
      <trkpt lat="44.81765" lon="5.94833">
        <ele>944</ele>
        <time>2021-12-29T12:04:22Z</time>
      </trkpt>
      <trkpt lat="44.81732" lon="5.94834">
        <ele>944</ele>
        <time>2021-12-29T12:04:28Z</time>
      </trkpt>
      <trkpt lat="44.81726" lon="5.94837">
        <ele>944</ele>
        <time>2021-12-29T12:04:29Z</time>
      </trkpt>
      <trkpt lat="44.81716" lon="5.94789">
        <ele>942</ele>
        <time>2021-12-29T12:04:35Z</time>
      </trkpt>
      <trkpt lat="44.81709" lon="5.9477">
        <ele>941</ele>
        <time>2021-12-29T12:04:38Z</time>
      </trkpt>
      <trkpt lat="44.81704" lon="5.94761">
        <ele>941</ele>
        <time>2021-12-29T12:04:39Z</time>
      </trkpt>
      <trkpt lat="44.81692" lon="5.94748">
        <ele>940</ele>
        <time>2021-12-29T12:04:42Z</time>
      </trkpt>
      <trkpt lat="44.81682" lon="5.94742">
        <ele>940</ele>
        <time>2021-12-29T12:04:44Z</time>
      </trkpt>
      <trkpt lat="44.81668" lon="5.94736">
        <ele>939</ele>
        <time>2021-12-29T12:04:46Z</time>
      </trkpt>
      <trkpt lat="44.8149" lon="5.94713">
        <ele>935</ele>
        <time>2021-12-29T12:05:18Z</time>
      </trkpt>
      <trkpt lat="44.81471" lon="5.94715">
        <ele>931</ele>
        <time>2021-12-29T12:05:22Z</time>
      </trkpt>
      <trkpt lat="44.81456" lon="5.94721">
        <ele>929</ele>
        <time>2021-12-29T12:05:24Z</time>
      </trkpt>
      <trkpt lat="44.81441" lon="5.94732">
        <ele>929</ele>
        <time>2021-12-29T12:05:27Z</time>
      </trkpt>
      <trkpt lat="44.81393" lon="5.94779">
        <ele>935</ele>
        <time>2021-12-29T12:05:38Z</time>
      </trkpt>
      <trkpt lat="44.81332" lon="5.94807">
        <ele>931</ele>
        <time>2021-12-29T12:05:49Z</time>
      </trkpt>
      <trkpt lat="44.81314" lon="5.94821">
        <ele>929</ele>
        <time>2021-12-29T12:05:53Z</time>
      </trkpt>
      <trkpt lat="44.81284" lon="5.94857">
        <ele>930</ele>
        <time>2021-12-29T12:06:00Z</time>
      </trkpt>
      <trkpt lat="44.81229" lon="5.94939">
        <ele>942</ele>
        <time>2021-12-29T12:06:14Z</time>
      </trkpt>
      <trkpt lat="44.81217" lon="5.94949">
        <ele>944</ele>
        <time>2021-12-29T12:06:17Z</time>
      </trkpt>
      <trkpt lat="44.81205" lon="5.94954">
        <ele>945</ele>
        <time>2021-12-29T12:06:19Z</time>
      </trkpt>
      <trkpt lat="44.8119" lon="5.94954">
        <ele>944</ele>
        <time>2021-12-29T12:06:21Z</time>
      </trkpt>
      <trkpt lat="44.81121" lon="5.94934">
        <ele>926</ele>
        <time>2021-12-29T12:06:34Z</time>
      </trkpt>
      <trkpt lat="44.8111" lon="5.94935">
        <ele>925</ele>
        <time>2021-12-29T12:06:36Z</time>
      </trkpt>
      <trkpt lat="44.81097" lon="5.9494">
        <ele>925</ele>
        <time>2021-12-29T12:06:38Z</time>
      </trkpt>
      <trkpt lat="44.81091" lon="5.94946">
        <ele>926</ele>
        <time>2021-12-29T12:06:40Z</time>
      </trkpt>
      <trkpt lat="44.81076" lon="5.94965">
        <ele>929</ele>
        <time>2021-12-29T12:06:43Z</time>
      </trkpt>
      <trkpt lat="44.81024" lon="5.95053">
        <ele>948</ele>
        <time>2021-12-29T12:06:58Z</time>
      </trkpt>
      <trkpt lat="44.81018" lon="5.9506">
        <ele>950</ele>
        <time>2021-12-29T12:06:59Z</time>
      </trkpt>
      <trkpt lat="44.81007" lon="5.95067">
        <ele>951</ele>
        <time>2021-12-29T12:07:01Z</time>
      </trkpt>
      <trkpt lat="44.81001" lon="5.95069">
        <ele>950</ele>
        <time>2021-12-29T12:07:02Z</time>
      </trkpt>
      <trkpt lat="44.80985" lon="5.95068">
        <ele>950</ele>
        <time>2021-12-29T12:07:05Z</time>
      </trkpt>
      <trkpt lat="44.80917" lon="5.95047">
        <ele>938</ele>
        <time>2021-12-29T12:07:18Z</time>
      </trkpt>
      <trkpt lat="44.80907" lon="5.95045">
        <ele>934</ele>
        <time>2021-12-29T12:07:19Z</time>
      </trkpt>
      <trkpt lat="44.80888" lon="5.95046">
        <ele>929</ele>
        <time>2021-12-29T12:07:23Z</time>
      </trkpt>
      <trkpt lat="44.80875" lon="5.9505">
        <ele>927</ele>
        <time>2021-12-29T12:07:25Z</time>
      </trkpt>
      <trkpt lat="44.80859" lon="5.95058">
        <ele>926</ele>
        <time>2021-12-29T12:07:28Z</time>
      </trkpt>
      <trkpt lat="44.80845" lon="5.95075">
        <ele>929</ele>
        <time>2021-12-29T12:07:31Z</time>
      </trkpt>
      <trkpt lat="44.80819" lon="5.95119">
        <ele>933</ele>
        <time>2021-12-29T12:07:39Z</time>
      </trkpt>
      <trkpt lat="44.80793" lon="5.95156">
        <ele>931</ele>
        <time>2021-12-29T12:07:45Z</time>
      </trkpt>
      <trkpt lat="44.8072" lon="5.95236">
        <ele>918</ele>
        <time>2021-12-29T12:08:02Z</time>
      </trkpt>
      <trkpt lat="44.80708" lon="5.95256">
        <ele>917</ele>
        <time>2021-12-29T12:08:05Z</time>
      </trkpt>
      <trkpt lat="44.80699" lon="5.95281">
        <ele>917</ele>
        <time>2021-12-29T12:08:09Z</time>
      </trkpt>
      <trkpt lat="44.80695" lon="5.95301">
        <ele>918</ele>
        <time>2021-12-29T12:08:11Z</time>
      </trkpt>
      <trkpt lat="44.80674" lon="5.9541">
        <ele>927</ele>
        <time>2021-12-29T12:08:25Z</time>
      </trkpt>
      <trkpt lat="44.80667" lon="5.95423">
        <ele>927</ele>
        <time>2021-12-29T12:08:27Z</time>
      </trkpt>
      <trkpt lat="44.80657" lon="5.95432">
        <ele>929</ele>
        <time>2021-12-29T12:08:30Z</time>
      </trkpt>
      <trkpt lat="44.80651" lon="5.95435">
        <ele>929</ele>
        <time>2021-12-29T12:08:31Z</time>
      </trkpt>
      <trkpt lat="44.80608" lon="5.95437">
        <ele>922</ele>
        <time>2021-12-29T12:08:38Z</time>
      </trkpt>
      <trkpt lat="44.80589" lon="5.9544">
        <ele>919</ele>
        <time>2021-12-29T12:08:42Z</time>
      </trkpt>
      <trkpt lat="44.80564" lon="5.95455">
        <ele>916</ele>
        <time>2021-12-29T12:08:47Z</time>
      </trkpt>
      <trkpt lat="44.8055" lon="5.9547">
        <ele>916</ele>
        <time>2021-12-29T12:08:50Z</time>
      </trkpt>
      <trkpt lat="44.80545" lon="5.95478">
        <ele>916</ele>
        <time>2021-12-29T12:08:51Z</time>
      </trkpt>
      <trkpt lat="44.80539" lon="5.95498">
        <ele>919</ele>
        <time>2021-12-29T12:08:54Z</time>
      </trkpt>
      <trkpt lat="44.80538" lon="5.9552">
        <ele>923</ele>
        <time>2021-12-29T12:08:57Z</time>
      </trkpt>
      <trkpt lat="44.80553" lon="5.95575">
        <ele>939</ele>
        <time>2021-12-29T12:09:04Z</time>
      </trkpt>
      <trkpt lat="44.80555" lon="5.95586">
        <ele>942</ele>
        <time>2021-12-29T12:09:05Z</time>
      </trkpt>
      <trkpt lat="44.80554" lon="5.95604">
        <ele>946</ele>
        <time>2021-12-29T12:09:08Z</time>
      </trkpt>
      <trkpt lat="44.80551" lon="5.95613">
        <ele>948</ele>
        <time>2021-12-29T12:09:09Z</time>
      </trkpt>
      <trkpt lat="44.80544" lon="5.95627">
        <ele>949</ele>
        <time>2021-12-29T12:09:11Z</time>
      </trkpt>
      <trkpt lat="44.80535" lon="5.95636">
        <ele>949</ele>
        <time>2021-12-29T12:09:13Z</time>
      </trkpt>
      <trkpt lat="44.80516" lon="5.95645">
        <ele>946</ele>
        <time>2021-12-29T12:09:17Z</time>
      </trkpt>
      <trkpt lat="44.80493" lon="5.95653">
        <ele>943</ele>
        <time>2021-12-29T12:09:21Z</time>
      </trkpt>
      <trkpt lat="44.80432" lon="5.95665">
        <ele>938</ele>
        <time>2021-12-29T12:09:32Z</time>
      </trkpt>
      <trkpt lat="44.80421" lon="5.95669">
        <ele>937</ele>
        <time>2021-12-29T12:09:34Z</time>
      </trkpt>
      <trkpt lat="44.804" lon="5.95685">
        <ele>936</ele>
        <time>2021-12-29T12:09:38Z</time>
      </trkpt>
      <trkpt lat="44.80382" lon="5.95707">
        <ele>936</ele>
        <time>2021-12-29T12:09:42Z</time>
      </trkpt>
      <trkpt lat="44.8036" lon="5.95756">
        <ele>942</ele>
        <time>2021-12-29T12:09:50Z</time>
      </trkpt>
      <trkpt lat="44.80332" lon="5.95842">
        <ele>948</ele>
        <time>2021-12-29T12:10:02Z</time>
      </trkpt>
      <trkpt lat="44.80325" lon="5.9587">
        <ele>947</ele>
        <time>2021-12-29T12:10:05Z</time>
      </trkpt>
      <trkpt lat="44.80318" lon="5.95921">
        <ele>949</ele>
        <time>2021-12-29T12:10:12Z</time>
      </trkpt>
      <trkpt lat="44.80316" lon="5.95955">
        <ele>950</ele>
        <time>2021-12-29T12:10:16Z</time>
      </trkpt>
      <trkpt lat="44.80318" lon="5.9597">
        <ele>952</ele>
        <time>2021-12-29T12:10:18Z</time>
      </trkpt>
      <trkpt lat="44.8032" lon="5.96014">
        <ele>957</ele>
        <time>2021-12-29T12:10:24Z</time>
      </trkpt>
      <trkpt lat="44.80306" lon="5.96095">
        <ele>959</ele>
        <time>2021-12-29T12:10:34Z</time>
      </trkpt>
      <trkpt lat="44.80295" lon="5.96153">
        <ele>959</ele>
        <time>2021-12-29T12:10:42Z</time>
      </trkpt>
      <trkpt lat="44.8028" lon="5.96191">
        <ele>957</ele>
        <time>2021-12-29T12:10:47Z</time>
      </trkpt>
      <trkpt lat="44.80242" lon="5.96255">
        <ele>950</ele>
        <time>2021-12-29T12:10:58Z</time>
      </trkpt>
      <trkpt lat="44.80193" lon="5.96321">
        <ele>942</ele>
        <time>2021-12-29T12:11:10Z</time>
      </trkpt>
      <trkpt lat="44.80182" lon="5.96341">
        <ele>941</ele>
        <time>2021-12-29T12:11:13Z</time>
      </trkpt>
      <trkpt lat="44.80174" lon="5.96363">
        <ele>938</ele>
        <time>2021-12-29T12:11:16Z</time>
      </trkpt>
      <trkpt lat="44.80171" lon="5.9638">
        <ele>937</ele>
        <time>2021-12-29T12:11:18Z</time>
      </trkpt>
      <trkpt lat="44.80168" lon="5.96431">
        <ele>935</ele>
        <time>2021-12-29T12:11:25Z</time>
      </trkpt>
      <trkpt lat="44.80168" lon="5.96466">
        <ele>933</ele>
        <time>2021-12-29T12:11:29Z</time>
      </trkpt>
      <trkpt lat="44.80163" lon="5.96499">
        <ele>930</ele>
        <time>2021-12-29T12:11:34Z</time>
      </trkpt>
      <trkpt lat="44.80152" lon="5.96544">
        <ele>927</ele>
        <time>2021-12-29T12:11:40Z</time>
      </trkpt>
      <trkpt lat="44.80108" lon="5.96687">
        <ele>917</ele>
        <time>2021-12-29T12:11:59Z</time>
      </trkpt>
      <trkpt lat="44.80067" lon="5.96809">
        <ele>912</ele>
        <time>2021-12-29T12:12:16Z</time>
      </trkpt>
      <trkpt lat="44.80044" lon="5.96858">
        <ele>910</ele>
        <time>2021-12-29T12:12:24Z</time>
      </trkpt>
      <trkpt lat="44.80031" lon="5.96882">
        <ele>909</ele>
        <time>2021-12-29T12:12:28Z</time>
      </trkpt>
      <trkpt lat="44.80013" lon="5.9691">
        <ele>908</ele>
        <time>2021-12-29T12:12:32Z</time>
      </trkpt>
      <trkpt lat="44.79961" lon="5.96971">
        <ele>904</ele>
        <time>2021-12-29T12:12:44Z</time>
      </trkpt>
      <trkpt lat="44.79949" lon="5.96988">
        <ele>903</ele>
        <time>2021-12-29T12:12:47Z</time>
      </trkpt>
      <trkpt lat="44.79935" lon="5.97014">
        <ele>902</ele>
        <time>2021-12-29T12:12:52Z</time>
      </trkpt>
      <trkpt lat="44.7993" lon="5.97025">
        <ele>902</ele>
        <time>2021-12-29T12:12:53Z</time>
      </trkpt>
      <trkpt lat="44.79924" lon="5.97053">
        <ele>901</ele>
        <time>2021-12-29T12:12:57Z</time>
      </trkpt>
      <trkpt lat="44.79921" lon="5.97086">
        <ele>900</ele>
        <time>2021-12-29T12:13:01Z</time>
      </trkpt>
      <trkpt lat="44.79921" lon="5.97101">
        <ele>899</ele>
        <time>2021-12-29T12:13:03Z</time>
      </trkpt>
      <trkpt lat="44.79926" lon="5.97131">
        <ele>899</ele>
        <time>2021-12-29T12:13:07Z</time>
      </trkpt>
      <trkpt lat="44.79933" lon="5.97157">
        <ele>899</ele>
        <time>2021-12-29T12:13:10Z</time>
      </trkpt>
      <trkpt lat="44.79943" lon="5.97184">
        <ele>899</ele>
        <time>2021-12-29T12:13:14Z</time>
      </trkpt>
      <trkpt lat="44.79976" lon="5.9726">
        <ele>901</ele>
        <time>2021-12-29T12:13:25Z</time>
      </trkpt>
      <trkpt lat="44.79985" lon="5.97291">
        <ele>902</ele>
        <time>2021-12-29T12:13:30Z</time>
      </trkpt>
      <trkpt lat="44.7999" lon="5.97324">
        <ele>902</ele>
        <time>2021-12-29T12:13:34Z</time>
      </trkpt>
      <trkpt lat="44.79991" lon="5.9737">
        <ele>901</ele>
        <time>2021-12-29T12:13:40Z</time>
      </trkpt>
      <trkpt lat="44.79987" lon="5.9741">
        <ele>899</ele>
        <time>2021-12-29T12:13:45Z</time>
      </trkpt>
      <trkpt lat="44.79977" lon="5.97441">
        <ele>898</ele>
        <time>2021-12-29T12:13:49Z</time>
      </trkpt>
      <trkpt lat="44.7997" lon="5.97454">
        <ele>897</ele>
        <time>2021-12-29T12:13:51Z</time>
      </trkpt>
      <trkpt lat="44.79954" lon="5.97472">
        <ele>895</ele>
        <time>2021-12-29T12:13:55Z</time>
      </trkpt>
      <trkpt lat="44.79938" lon="5.97486">
        <ele>892</ele>
        <time>2021-12-29T12:13:58Z</time>
      </trkpt>
      <trkpt lat="44.79928" lon="5.97491">
        <ele>890</ele>
        <time>2021-12-29T12:14:00Z</time>
      </trkpt>
      <trkpt lat="44.79909" lon="5.97493">
        <ele>887</ele>
        <time>2021-12-29T12:14:03Z</time>
      </trkpt>
      <trkpt lat="44.7989" lon="5.9749">
        <ele>886</ele>
        <time>2021-12-29T12:14:07Z</time>
      </trkpt>
      <trkpt lat="44.79875" lon="5.97483">
        <ele>884</ele>
        <time>2021-12-29T12:14:10Z</time>
      </trkpt>
      <trkpt lat="44.7985" lon="5.97463">
        <ele>881</ele>
        <time>2021-12-29T12:14:15Z</time>
      </trkpt>
      <trkpt lat="44.79831" lon="5.97451">
        <ele>879</ele>
        <time>2021-12-29T12:14:19Z</time>
      </trkpt>
      <trkpt lat="44.79821" lon="5.97451">
        <ele>877</ele>
        <time>2021-12-29T12:14:20Z</time>
      </trkpt>
      <trkpt lat="44.79815" lon="5.97453">
        <ele>876</ele>
        <time>2021-12-29T12:14:21Z</time>
      </trkpt>
      <trkpt lat="44.79805" lon="5.97462">
        <ele>874</ele>
        <time>2021-12-29T12:14:24Z</time>
      </trkpt>
      <trkpt lat="44.79799" lon="5.97474">
        <ele>873</ele>
        <time>2021-12-29T12:14:25Z</time>
      </trkpt>
      <trkpt lat="44.79798" lon="5.97489">
        <ele>873</ele>
        <time>2021-12-29T12:14:27Z</time>
      </trkpt>
      <trkpt lat="44.79799" lon="5.97511">
        <ele>873</ele>
        <time>2021-12-29T12:14:30Z</time>
      </trkpt>
      <trkpt lat="44.7981" lon="5.97601">
        <ele>874</ele>
        <time>2021-12-29T12:14:42Z</time>
      </trkpt>
      <trkpt lat="44.79812" lon="5.97631">
        <ele>874</ele>
        <time>2021-12-29T12:14:45Z</time>
      </trkpt>
      <trkpt lat="44.7981" lon="5.97651">
        <ele>874</ele>
        <time>2021-12-29T12:14:48Z</time>
      </trkpt>
      <trkpt lat="44.79808" lon="5.97665">
        <ele>873</ele>
        <time>2021-12-29T12:14:50Z</time>
      </trkpt>
      <trkpt lat="44.79795" lon="5.97698">
        <ele>871</ele>
        <time>2021-12-29T12:14:54Z</time>
      </trkpt>
      <trkpt lat="44.79787" lon="5.97712">
        <ele>869</ele>
        <time>2021-12-29T12:14:57Z</time>
      </trkpt>
      <trkpt lat="44.79773" lon="5.97729">
        <ele>865</ele>
        <time>2021-12-29T12:15:00Z</time>
      </trkpt>
      <trkpt lat="44.79718" lon="5.97774">
        <ele>858</ele>
        <time>2021-12-29T12:15:11Z</time>
      </trkpt>
      <trkpt lat="44.79687" lon="5.97797">
        <ele>857</ele>
        <time>2021-12-29T12:15:18Z</time>
      </trkpt>
      <trkpt lat="44.79674" lon="5.978">
        <ele>856</ele>
        <time>2021-12-29T12:15:20Z</time>
      </trkpt>
      <trkpt lat="44.79657" lon="5.97797">
        <ele>854</ele>
        <time>2021-12-29T12:15:23Z</time>
      </trkpt>
      <trkpt lat="44.79642" lon="5.97789">
        <ele>852</ele>
        <time>2021-12-29T12:15:26Z</time>
      </trkpt>
      <trkpt lat="44.79614" lon="5.97762">
        <ele>844</ele>
        <time>2021-12-29T12:15:32Z</time>
      </trkpt>
      <trkpt lat="44.796" lon="5.97754">
        <ele>841</ele>
        <time>2021-12-29T12:15:35Z</time>
      </trkpt>
      <trkpt lat="44.79584" lon="5.9775">
        <ele>839</ele>
        <time>2021-12-29T12:15:37Z</time>
      </trkpt>
      <trkpt lat="44.79517" lon="5.97743">
        <ele>836</ele>
        <time>2021-12-29T12:15:49Z</time>
      </trkpt>
      <trkpt lat="44.79504" lon="5.97739">
        <ele>834</ele>
        <time>2021-12-29T12:15:52Z</time>
      </trkpt>
      <trkpt lat="44.79472" lon="5.97709">
        <ele>822</ele>
        <time>2021-12-29T12:15:59Z</time>
      </trkpt>
      <trkpt lat="44.79459" lon="5.97701">
        <ele>818</ele>
        <time>2021-12-29T12:16:01Z</time>
      </trkpt>
      <trkpt lat="44.79442" lon="5.97698">
        <ele>814</ele>
        <time>2021-12-29T12:16:04Z</time>
      </trkpt>
      <trkpt lat="44.79421" lon="5.97706">
        <ele>813</ele>
        <time>2021-12-29T12:16:08Z</time>
      </trkpt>
      <trkpt lat="44.7941" lon="5.97714">
        <ele>812</ele>
        <time>2021-12-29T12:16:10Z</time>
      </trkpt>
      <trkpt lat="44.79395" lon="5.97731">
        <ele>810</ele>
        <time>2021-12-29T12:16:14Z</time>
      </trkpt>
      <trkpt lat="44.79376" lon="5.9778">
        <ele>813</ele>
        <time>2021-12-29T12:16:21Z</time>
      </trkpt>
      <trkpt lat="44.79356" lon="5.97812">
        <ele>810</ele>
        <time>2021-12-29T12:16:26Z</time>
      </trkpt>
      <trkpt lat="44.79305" lon="5.97871">
        <ele>800</ele>
        <time>2021-12-29T12:16:38Z</time>
      </trkpt>
      <trkpt lat="44.79275" lon="5.9792">
        <ele>796</ele>
        <time>2021-12-29T12:16:46Z</time>
      </trkpt>
      <trkpt lat="44.79256" lon="5.97941">
        <ele>792</ele>
        <time>2021-12-29T12:16:50Z</time>
      </trkpt>
      <trkpt lat="44.79247" lon="5.97948">
        <ele>790</ele>
        <time>2021-12-29T12:16:52Z</time>
      </trkpt>
      <trkpt lat="44.79242" lon="5.97931">
        <ele>788</ele>
        <time>2021-12-29T12:16:54Z</time>
      </trkpt>
      <trkpt lat="44.79254" lon="5.97887">
        <ele>787</ele>
        <time>2021-12-29T12:17:00Z</time>
      </trkpt>
      <trkpt lat="44.79285" lon="5.97816">
        <ele>789</ele>
        <time>2021-12-29T12:17:11Z</time>
      </trkpt>
      <trkpt lat="44.79324" lon="5.97756">
        <ele>791</ele>
        <time>2021-12-29T12:17:21Z</time>
      </trkpt>
      <trkpt lat="44.7934" lon="5.97708">
        <ele>789</ele>
        <time>2021-12-29T12:17:28Z</time>
      </trkpt>
      <trkpt lat="44.79381" lon="5.97647">
        <ele>792</ele>
        <time>2021-12-29T12:17:39Z</time>
      </trkpt>
      <trkpt lat="44.79412" lon="5.97624">
        <ele>797</ele>
        <time>2021-12-29T12:17:45Z</time>
      </trkpt>
      <trkpt lat="44.79428" lon="5.97606">
        <ele>798</ele>
        <time>2021-12-29T12:17:48Z</time>
      </trkpt>
      <trkpt lat="44.79434" lon="5.97568">
        <ele>795</ele>
        <time>2021-12-29T12:17:53Z</time>
      </trkpt>
      <trkpt lat="44.79436" lon="5.97523">
        <ele>794</ele>
        <time>2021-12-29T12:17:59Z</time>
      </trkpt>
      <trkpt lat="44.79422" lon="5.9747">
        <ele>791</ele>
        <time>2021-12-29T12:18:06Z</time>
      </trkpt>
      <trkpt lat="44.79409" lon="5.97439">
        <ele>789</ele>
        <time>2021-12-29T12:18:11Z</time>
      </trkpt>
      <trkpt lat="44.79365" lon="5.97353">
        <ele>780</ele>
        <time>2021-12-29T12:18:24Z</time>
      </trkpt>
      <trkpt lat="44.79352" lon="5.97309">
        <ele>779</ele>
        <time>2021-12-29T12:18:30Z</time>
      </trkpt>
      <trkpt lat="44.7934" lon="5.97291">
        <ele>779</ele>
        <time>2021-12-29T12:18:33Z</time>
      </trkpt>
      <trkpt lat="44.79295" lon="5.97284">
        <ele>790</ele>
        <time>2021-12-29T12:18:41Z</time>
      </trkpt>
      <trkpt lat="44.79268" lon="5.97309">
        <ele>789</ele>
        <time>2021-12-29T12:18:47Z</time>
      </trkpt>
      <trkpt lat="44.79207" lon="5.9738">
        <ele>784</ele>
        <time>2021-12-29T12:19:01Z</time>
      </trkpt>
      <trkpt lat="44.79161" lon="5.97424">
        <ele>779</ele>
        <time>2021-12-29T12:19:11Z</time>
      </trkpt>
      <trkpt lat="44.79053" lon="5.97507">
        <ele>780</ele>
        <time>2021-12-29T12:19:33Z</time>
      </trkpt>
      <trkpt lat="44.79009" lon="5.97553">
        <ele>783</ele>
        <time>2021-12-29T12:19:43Z</time>
      </trkpt>
      <trkpt lat="44.78951" lon="5.97639">
        <ele>791</ele>
        <time>2021-12-29T12:19:58Z</time>
      </trkpt>
      <trkpt lat="44.78918" lon="5.9775">
        <ele>781</ele>
        <time>2021-12-29T12:20:13Z</time>
      </trkpt>
      <trkpt lat="44.78901" lon="5.97772">
        <ele>779</ele>
        <time>2021-12-29T12:20:17Z</time>
      </trkpt>
      <trkpt lat="44.78879" lon="5.97777">
        <ele>779</ele>
        <time>2021-12-29T12:20:21Z</time>
      </trkpt>
      <trkpt lat="44.7886" lon="5.97773">
        <ele>781</ele>
        <time>2021-12-29T12:20:24Z</time>
      </trkpt>
      <trkpt lat="44.78839" lon="5.97755">
        <ele>786</ele>
        <time>2021-12-29T12:20:29Z</time>
      </trkpt>
      <trkpt lat="44.78792" lon="5.97741">
        <ele>783</ele>
        <time>2021-12-29T12:20:37Z</time>
      </trkpt>
      <trkpt lat="44.78764" lon="5.97714">
        <ele>788</ele>
        <time>2021-12-29T12:20:43Z</time>
      </trkpt>
      <trkpt lat="44.78686" lon="5.97619">
        <ele>799</ele>
        <time>2021-12-29T12:21:02Z</time>
      </trkpt>
      <trkpt lat="44.78646" lon="5.9758">
        <ele>802</ele>
        <time>2021-12-29T12:21:10Z</time>
      </trkpt>
      <trkpt lat="44.78617" lon="5.97533">
        <ele>815</ele>
        <time>2021-12-29T12:21:18Z</time>
      </trkpt>
      <trkpt lat="44.78528" lon="5.97515">
        <ele>805</ele>
        <time>2021-12-29T12:21:34Z</time>
      </trkpt>
      <trkpt lat="44.78504" lon="5.97506">
        <ele>804</ele>
        <time>2021-12-29T12:21:39Z</time>
      </trkpt>
      <trkpt lat="44.78442" lon="5.97447">
        <ele>812</ele>
        <time>2021-12-29T12:21:52Z</time>
      </trkpt>
      <trkpt lat="44.78386" lon="5.97406">
        <ele>814</ele>
        <time>2021-12-29T12:22:03Z</time>
      </trkpt>
      <trkpt lat="44.78353" lon="5.97402">
        <ele>812</ele>
        <time>2021-12-29T12:22:09Z</time>
      </trkpt>
      <trkpt lat="44.78324" lon="5.97408">
        <ele>810</ele>
        <time>2021-12-29T12:22:14Z</time>
      </trkpt>
      <trkpt lat="44.78261" lon="5.97429">
        <ele>809</ele>
        <time>2021-12-29T12:22:26Z</time>
      </trkpt>
      <trkpt lat="44.77997" lon="5.97569">
        <ele>822</ele>
        <time>2021-12-29T12:23:16Z</time>
      </trkpt>
      <trkpt lat="44.77967" lon="5.97581">
        <ele>820</ele>
        <time>2021-12-29T12:23:21Z</time>
      </trkpt>
      <trkpt lat="44.77908" lon="5.97626">
        <ele>818</ele>
        <time>2021-12-29T12:23:33Z</time>
      </trkpt>
      <trkpt lat="44.7772" lon="5.97809">
        <ele>831</ele>
        <time>2021-12-29T12:24:14Z</time>
      </trkpt>
      <trkpt lat="44.77619" lon="5.97889">
        <ele>839</ele>
        <time>2021-12-29T12:24:35Z</time>
      </trkpt>
      <trkpt lat="44.77588" lon="5.97893">
        <ele>843</ele>
        <time>2021-12-29T12:24:40Z</time>
      </trkpt>
      <trkpt lat="44.77542" lon="5.9787">
        <ele>845</ele>
        <time>2021-12-29T12:24:49Z</time>
      </trkpt>
      <trkpt lat="44.77485" lon="5.9782">
        <ele>849</ele>
        <time>2021-12-29T12:25:01Z</time>
      </trkpt>
      <trkpt lat="44.77433" lon="5.97797">
        <ele>854</ele>
        <time>2021-12-29T12:25:11Z</time>
      </trkpt>
      <trkpt lat="44.77355" lon="5.97783">
        <ele>857</ele>
        <time>2021-12-29T12:25:25Z</time>
      </trkpt>
      <trkpt lat="44.7733" lon="5.97768">
        <ele>860</ele>
        <time>2021-12-29T12:25:29Z</time>
      </trkpt>
      <trkpt lat="44.77308" lon="5.97732">
        <ele>864</ele>
        <time>2021-12-29T12:25:35Z</time>
      </trkpt>
      <trkpt lat="44.77282" lon="5.97707">
        <ele>866</ele>
        <time>2021-12-29T12:25:41Z</time>
      </trkpt>
      <trkpt lat="44.77192" lon="5.97722">
        <ele>865</ele>
        <time>2021-12-29T12:25:57Z</time>
      </trkpt>
      <trkpt lat="44.77137" lon="5.97749">
        <ele>865</ele>
        <time>2021-12-29T12:26:07Z</time>
      </trkpt>
      <trkpt lat="44.76998" lon="5.97791">
        <ele>863</ele>
        <time>2021-12-29T12:26:33Z</time>
      </trkpt>
      <trkpt lat="44.76978" lon="5.97794">
        <ele>864</ele>
        <time>2021-12-29T12:26:36Z</time>
      </trkpt>
      <trkpt lat="44.7688" lon="5.97774">
        <ele>871</ele>
        <time>2021-12-29T12:26:54Z</time>
      </trkpt>
      <trkpt lat="44.76817" lon="5.97808">
        <ele>874</ele>
        <time>2021-12-29T12:27:06Z</time>
      </trkpt>
      <trkpt lat="44.768" lon="5.97812">
        <ele>874</ele>
        <time>2021-12-29T12:27:09Z</time>
      </trkpt>
      <trkpt lat="44.76689" lon="5.97793">
        <ele>872</ele>
        <time>2021-12-29T12:27:29Z</time>
      </trkpt>
      <trkpt lat="44.76643" lon="5.97791">
        <ele>871</ele>
        <time>2021-12-29T12:27:37Z</time>
      </trkpt>
      <trkpt lat="44.76623" lon="5.97785">
        <ele>871</ele>
        <time>2021-12-29T12:27:41Z</time>
      </trkpt>
      <trkpt lat="44.76602" lon="5.97763">
        <ele>872</ele>
        <time>2021-12-29T12:27:45Z</time>
      </trkpt>
      <trkpt lat="44.76581" lon="5.97737">
        <ele>873</ele>
        <time>2021-12-29T12:27:50Z</time>
      </trkpt>
      <trkpt lat="44.76564" lon="5.97725">
        <ele>875</ele>
        <time>2021-12-29T12:27:54Z</time>
      </trkpt>
      <trkpt lat="44.76549" lon="5.97726">
        <ele>876</ele>
        <time>2021-12-29T12:27:56Z</time>
      </trkpt>
      <trkpt lat="44.76368" lon="5.97954">
        <ele>882</ele>
        <time>2021-12-29T12:28:40Z</time>
      </trkpt>
      <trkpt lat="44.76347" lon="5.97976">
        <ele>883</ele>
        <time>2021-12-29T12:28:44Z</time>
      </trkpt>
      <trkpt lat="44.76337" lon="5.97986">
        <ele>883</ele>
        <time>2021-12-29T12:28:46Z</time>
      </trkpt>
      <trkpt lat="44.76332" lon="5.97988">
        <ele>883</ele>
        <time>2021-12-29T12:28:47Z</time>
      </trkpt>
      <trkpt lat="44.76283" lon="5.9793">
        <ele>889</ele>
        <time>2021-12-29T12:28:59Z</time>
      </trkpt>
      <trkpt lat="44.76273" lon="5.97921">
        <ele>890</ele>
        <time>2021-12-29T12:29:01Z</time>
      </trkpt>
      <trkpt lat="44.76264" lon="5.97918">
        <ele>890</ele>
        <time>2021-12-29T12:29:03Z</time>
      </trkpt>
      <trkpt lat="44.76251" lon="5.97921">
        <ele>891</ele>
        <time>2021-12-29T12:29:05Z</time>
      </trkpt>
      <trkpt lat="44.76218" lon="5.97936">
        <ele>891</ele>
        <time>2021-12-29T12:29:11Z</time>
      </trkpt>
      <trkpt lat="44.76181" lon="5.97946">
        <ele>891</ele>
        <time>2021-12-29T12:29:18Z</time>
      </trkpt>
      <trkpt lat="44.7608" lon="5.97959">
        <ele>892</ele>
        <time>2021-12-29T12:29:36Z</time>
      </trkpt>
      <trkpt lat="44.76038" lon="5.97968">
        <ele>893</ele>
        <time>2021-12-29T12:29:43Z</time>
      </trkpt>
      <trkpt lat="44.75999" lon="5.97962">
        <ele>896</ele>
        <time>2021-12-29T12:29:50Z</time>
      </trkpt>
      <trkpt lat="44.75962" lon="5.97974">
        <ele>898</ele>
        <time>2021-12-29T12:29:57Z</time>
      </trkpt>
      <trkpt lat="44.75906" lon="5.98023">
        <ele>897</ele>
        <time>2021-12-29T12:30:09Z</time>
      </trkpt>
      <trkpt lat="44.75886" lon="5.98036">
        <ele>900</ele>
        <time>2021-12-29T12:30:13Z</time>
      </trkpt>
      <trkpt lat="44.75799" lon="5.98076">
        <ele>905</ele>
        <time>2021-12-29T12:30:29Z</time>
      </trkpt>
      <trkpt lat="44.75737" lon="5.98126">
        <ele>908</ele>
        <time>2021-12-29T12:30:42Z</time>
      </trkpt>
      <trkpt lat="44.75551" lon="5.98227">
        <ele>919</ele>
        <time>2021-12-29T12:31:17Z</time>
      </trkpt>
      <trkpt lat="44.75507" lon="5.98268">
        <ele>922</ele>
        <time>2021-12-29T12:31:27Z</time>
      </trkpt>
      <trkpt lat="44.7546" lon="5.9833">
        <ele>924</ele>
        <time>2021-12-29T12:31:38Z</time>
      </trkpt>
      <trkpt lat="44.75437" lon="5.98356">
        <ele>924</ele>
        <time>2021-12-29T12:31:43Z</time>
      </trkpt>
      <trkpt lat="44.75302" lon="5.98427">
        <ele>923</ele>
        <time>2021-12-29T12:32:09Z</time>
      </trkpt>
      <trkpt lat="44.75268" lon="5.98451">
        <ele>923</ele>
        <time>2021-12-29T12:32:16Z</time>
      </trkpt>
      <trkpt lat="44.75243" lon="5.98483">
        <ele>921</ele>
        <time>2021-12-29T12:32:22Z</time>
      </trkpt>
      <trkpt lat="44.75145" lon="5.98672">
        <ele>915</ele>
        <time>2021-12-29T12:32:51Z</time>
      </trkpt>
      <trkpt lat="44.75139" lon="5.98691">
        <ele>915</ele>
        <time>2021-12-29T12:32:54Z</time>
      </trkpt>
      <trkpt lat="44.75125" lon="5.98743">
        <ele>915</ele>
        <time>2021-12-29T12:33:01Z</time>
      </trkpt>
      <trkpt lat="44.7511" lon="5.98814">
        <ele>913</ele>
        <time>2021-12-29T12:33:10Z</time>
      </trkpt>
      <trkpt lat="44.7511" lon="5.98833">
        <ele>912</ele>
        <time>2021-12-29T12:33:13Z</time>
      </trkpt>
      <trkpt lat="44.75113" lon="5.98847">
        <ele>912</ele>
        <time>2021-12-29T12:33:15Z</time>
      </trkpt>
      <trkpt lat="44.75118" lon="5.98862">
        <ele>912</ele>
        <time>2021-12-29T12:33:17Z</time>
      </trkpt>
      <trkpt lat="44.75131" lon="5.98892">
        <ele>912</ele>
        <time>2021-12-29T12:33:21Z</time>
      </trkpt>
      <trkpt lat="44.75139" lon="5.98917">
        <ele>911</ele>
        <time>2021-12-29T12:33:25Z</time>
      </trkpt>
      <trkpt lat="44.75142" lon="5.98942">
        <ele>910</ele>
        <time>2021-12-29T12:33:28Z</time>
      </trkpt>
      <trkpt lat="44.75143" lon="5.98982">
        <ele>908</ele>
        <time>2021-12-29T12:33:33Z</time>
      </trkpt>
      <trkpt lat="44.75145" lon="5.98998">
        <ele>908</ele>
        <time>2021-12-29T12:33:35Z</time>
      </trkpt>
      <trkpt lat="44.75151" lon="5.99017">
        <ele>905</ele>
        <time>2021-12-29T12:33:38Z</time>
      </trkpt>
      <trkpt lat="44.75174" lon="5.99072">
        <ele>899</ele>
        <time>2021-12-29T12:33:46Z</time>
      </trkpt>
      <trkpt lat="44.75176" lon="5.99082">
        <ele>898</ele>
        <time>2021-12-29T12:33:47Z</time>
      </trkpt>
      <trkpt lat="44.75173" lon="5.99088">
        <ele>896</ele>
        <time>2021-12-29T12:33:48Z</time>
      </trkpt>
      <trkpt lat="44.75169" lon="5.99089">
        <ele>896</ele>
        <time>2021-12-29T12:33:49Z</time>
      </trkpt>
      <trkpt lat="44.75166" lon="5.99085">
        <ele>897</ele>
        <time>2021-12-29T12:33:49Z</time>
      </trkpt>
      <trkpt lat="44.75152" lon="5.99049">
        <ele>902</ele>
        <time>2021-12-29T12:33:54Z</time>
      </trkpt>
      <trkpt lat="44.75142" lon="5.99039">
        <ele>903</ele>
        <time>2021-12-29T12:33:57Z</time>
      </trkpt>
      <trkpt lat="44.75132" lon="5.99036">
        <ele>904</ele>
        <time>2021-12-29T12:33:58Z</time>
      </trkpt>
      <trkpt lat="44.75124" lon="5.99039">
        <ele>904</ele>
        <time>2021-12-29T12:34:00Z</time>
      </trkpt>
      <trkpt lat="44.75116" lon="5.99046">
        <ele>904</ele>
        <time>2021-12-29T12:34:02Z</time>
      </trkpt>
      <trkpt lat="44.75114" lon="5.9906">
        <ele>903</ele>
        <time>2021-12-29T12:34:03Z</time>
      </trkpt>
      <trkpt lat="44.75119" lon="5.99135">
        <ele>891</ele>
        <time>2021-12-29T12:34:13Z</time>
      </trkpt>
      <trkpt lat="44.75117" lon="5.99155">
        <ele>887</ele>
        <time>2021-12-29T12:34:15Z</time>
      </trkpt>
      <trkpt lat="44.75112" lon="5.99166">
        <ele>885</ele>
        <time>2021-12-29T12:34:17Z</time>
      </trkpt>
      <trkpt lat="44.75104" lon="5.99172">
        <ele>884</ele>
        <time>2021-12-29T12:34:19Z</time>
      </trkpt>
      <trkpt lat="44.75057" lon="5.99188">
        <ele>886</ele>
        <time>2021-12-29T12:34:27Z</time>
      </trkpt>
      <trkpt lat="44.75028" lon="5.99207">
        <ele>885</ele>
        <time>2021-12-29T12:34:33Z</time>
      </trkpt>
      <trkpt lat="44.74998" lon="5.99235">
        <ele>882</ele>
        <time>2021-12-29T12:34:39Z</time>
      </trkpt>
      <trkpt lat="44.74887" lon="5.99355">
        <ele>878</ele>
        <time>2021-12-29T12:35:04Z</time>
      </trkpt>
      <trkpt lat="44.74838" lon="5.9943">
        <ele>869</ele>
        <time>2021-12-29T12:35:17Z</time>
      </trkpt>
      <trkpt lat="44.74806" lon="5.99465">
        <ele>868</ele>
        <time>2021-12-29T12:35:24Z</time>
      </trkpt>
      <trkpt lat="44.74763" lon="5.99492">
        <ele>869</ele>
        <time>2021-12-29T12:35:33Z</time>
      </trkpt>
      <trkpt lat="44.74732" lon="5.99507">
        <ele>869</ele>
        <time>2021-12-29T12:35:39Z</time>
      </trkpt>
      <trkpt lat="44.74682" lon="5.99537">
        <ele>867</ele>
        <time>2021-12-29T12:35:48Z</time>
      </trkpt>
      <trkpt lat="44.74618" lon="5.99541">
        <ele>866</ele>
        <time>2021-12-29T12:36:00Z</time>
      </trkpt>
      <trkpt lat="44.74571" lon="5.99538">
        <ele>866</ele>
        <time>2021-12-29T12:36:08Z</time>
      </trkpt>
      <trkpt lat="44.7452" lon="5.99562">
        <ele>861</ele>
        <time>2021-12-29T12:36:18Z</time>
      </trkpt>
      <trkpt lat="44.74495" lon="5.99582">
        <ele>857</ele>
        <time>2021-12-29T12:36:23Z</time>
      </trkpt>
      <trkpt lat="44.74464" lon="5.99624">
        <ele>858</ele>
        <time>2021-12-29T12:36:30Z</time>
      </trkpt>
      <trkpt lat="44.74341" lon="5.99891">
        <ele>862</ele>
        <time>2021-12-29T12:37:11Z</time>
      </trkpt>
      <trkpt lat="44.74307" lon="5.99942">
        <ele>861</ele>
        <time>2021-12-29T12:37:19Z</time>
      </trkpt>
      <trkpt lat="44.74254" lon="6.00039">
        <ele>859</ele>
        <time>2021-12-29T12:37:35Z</time>
      </trkpt>
      <trkpt lat="44.74222" lon="6.00181">
        <ele>855</ele>
        <time>2021-12-29T12:37:54Z</time>
      </trkpt>
      <trkpt lat="44.74214" lon="6.00198">
        <ele>854</ele>
        <time>2021-12-29T12:37:56Z</time>
      </trkpt>
      <trkpt lat="44.74192" lon="6.00234">
        <ele>852</ele>
        <time>2021-12-29T12:38:02Z</time>
      </trkpt>
      <trkpt lat="44.7417" lon="6.00246">
        <ele>852</ele>
        <time>2021-12-29T12:38:07Z</time>
      </trkpt>
      <trkpt lat="44.74116" lon="6.00263">
        <ele>852</ele>
        <time>2021-12-29T12:38:16Z</time>
      </trkpt>
      <trkpt lat="44.73956" lon="6.00283">
        <ele>851</ele>
        <time>2021-12-29T12:38:45Z</time>
      </trkpt>
      <trkpt lat="44.73943" lon="6.00285">
        <ele>851</ele>
        <time>2021-12-29T12:38:47Z</time>
      </trkpt>
      <trkpt lat="44.73801" lon="6.00294">
        <ele>853</ele>
        <time>2021-12-29T12:39:13Z</time>
      </trkpt>
      <trkpt lat="44.73764" lon="6.00301">
        <ele>853</ele>
        <time>2021-12-29T12:39:19Z</time>
      </trkpt>
      <trkpt lat="44.73722" lon="6.00321">
        <ele>851</ele>
        <time>2021-12-29T12:39:27Z</time>
      </trkpt>
      <trkpt lat="44.7369" lon="6.0033">
        <ele>851</ele>
        <time>2021-12-29T12:39:33Z</time>
      </trkpt>
      <trkpt lat="44.73672" lon="6.00335">
        <ele>851</ele>
        <time>2021-12-29T12:39:36Z</time>
      </trkpt>
      <trkpt lat="44.73611" lon="6.00347">
        <ele>853</ele>
        <time>2021-12-29T12:39:47Z</time>
      </trkpt>
      <trkpt lat="44.73535" lon="6.00356">
        <ele>857</ele>
        <time>2021-12-29T12:40:01Z</time>
      </trkpt>
      <trkpt lat="44.73513" lon="6.00363">
        <ele>858</ele>
        <time>2021-12-29T12:40:05Z</time>
      </trkpt>
      <trkpt lat="44.73508" lon="6.00367">
        <ele>857</ele>
        <time>2021-12-29T12:40:06Z</time>
      </trkpt>
      <trkpt lat="44.73506" lon="6.00372">
        <ele>856</ele>
        <time>2021-12-29T12:40:06Z</time>
      </trkpt>
      <trkpt lat="44.73496" lon="6.00369">
        <ele>857</ele>
        <time>2021-12-29T12:40:08Z</time>
      </trkpt>
      <trkpt lat="44.73473" lon="6.00373">
        <ele>858</ele>
        <time>2021-12-29T12:40:12Z</time>
      </trkpt>
      <trkpt lat="44.73412" lon="6.00394">
        <ele>856</ele>
        <time>2021-12-29T12:40:24Z</time>
      </trkpt>
      <trkpt lat="44.73355" lon="6.00408">
        <ele>857</ele>
        <time>2021-12-29T12:40:34Z</time>
      </trkpt>
      <trkpt lat="44.733" lon="6.00427">
        <ele>858</ele>
        <time>2021-12-29T12:40:44Z</time>
      </trkpt>
      <trkpt lat="44.73207" lon="6.00474">
        <ele>861</ele>
        <time>2021-12-29T12:41:02Z</time>
      </trkpt>
      <trkpt lat="44.73183" lon="6.0049">
        <ele>862</ele>
        <time>2021-12-29T12:41:06Z</time>
      </trkpt>
      <trkpt lat="44.73159" lon="6.00512">
        <ele>863</ele>
        <time>2021-12-29T12:41:11Z</time>
      </trkpt>
      <trkpt lat="44.73135" lon="6.00539">
        <ele>864</ele>
        <time>2021-12-29T12:41:17Z</time>
      </trkpt>
      <trkpt lat="44.73047" lon="6.00646">
        <ele>863</ele>
        <time>2021-12-29T12:41:38Z</time>
      </trkpt>
      <trkpt lat="44.72589" lon="6.01133">
        <ele>878</ele>
        <time>2021-12-29T12:43:20Z</time>
      </trkpt>
      <trkpt lat="44.72581" lon="6.01125">
        <ele>880</ele>
        <time>2021-12-29T12:43:21Z</time>
      </trkpt>
      <trkpt lat="44.72575" lon="6.01122">
        <ele>881</ele>
        <time>2021-12-29T12:43:23Z</time>
      </trkpt>
      <trkpt lat="44.72551" lon="6.01119">
        <ele>884</ele>
        <time>2021-12-29T12:43:27Z</time>
      </trkpt>
      <trkpt lat="44.72517" lon="6.01106">
        <ele>888</ele>
        <time>2021-12-29T12:43:33Z</time>
      </trkpt>
      <trkpt lat="44.72491" lon="6.01099">
        <ele>892</ele>
        <time>2021-12-29T12:43:38Z</time>
      </trkpt>
      <trkpt lat="44.72486" lon="6.01092">
        <ele>893</ele>
        <time>2021-12-29T12:43:39Z</time>
      </trkpt>
      <trkpt lat="44.72484" lon="6.01083">
        <ele>894</ele>
        <time>2021-12-29T12:43:40Z</time>
      </trkpt>
      <trkpt lat="44.72487" lon="6.01075">
        <ele>895</ele>
        <time>2021-12-29T12:43:41Z</time>
      </trkpt>
      <trkpt lat="44.72526" lon="6.01044">
        <ele>896</ele>
        <time>2021-12-29T12:43:49Z</time>
      </trkpt>
      <trkpt lat="44.726" lon="6.00792">
        <ele>918</ele>
        <time>2021-12-29T12:44:24Z</time>
      </trkpt>
      <trkpt lat="44.72619" lon="6.00774">
        <ele>917</ele>
        <time>2021-12-29T12:44:28Z</time>
      </trkpt>
      <trkpt lat="44.72653" lon="6.00696">
        <ele>920</ele>
        <time>2021-12-29T12:44:39Z</time>
      </trkpt>
      <trkpt lat="44.72661" lon="6.00663">
        <ele>923</ele>
        <time>2021-12-29T12:44:44Z</time>
      </trkpt>
      <trkpt lat="44.72664" lon="6.00627">
        <ele>927</ele>
        <time>2021-12-29T12:44:48Z</time>
      </trkpt>
      <trkpt lat="44.72671" lon="6.00598">
        <ele>929</ele>
        <time>2021-12-29T12:44:52Z</time>
      </trkpt>
      <trkpt lat="44.7267" lon="6.00528">
        <ele>937</ele>
        <time>2021-12-29T12:45:01Z</time>
      </trkpt>
      <trkpt lat="44.72688" lon="6.00446">
        <ele>943</ele>
        <time>2021-12-29T12:45:12Z</time>
      </trkpt>
      <trkpt lat="44.72678" lon="6.00412">
        <ele>947</ele>
        <time>2021-12-29T12:45:17Z</time>
      </trkpt>
      <trkpt lat="44.72673" lon="6.00411">
        <ele>947</ele>
        <time>2021-12-29T12:45:18Z</time>
      </trkpt>
      <trkpt lat="44.72555" lon="6.00517">
        <ele>947</ele>
        <time>2021-12-29T12:45:43Z</time>
      </trkpt>
      <trkpt lat="44.72532" lon="6.00556">
        <ele>945</ele>
        <time>2021-12-29T12:45:49Z</time>
      </trkpt>
      <trkpt lat="44.7251" lon="6.00583">
        <ele>944</ele>
        <time>2021-12-29T12:45:54Z</time>
      </trkpt>
      <trkpt lat="44.72486" lon="6.00609">
        <ele>944</ele>
        <time>2021-12-29T12:45:59Z</time>
      </trkpt>
      <trkpt lat="44.72451" lon="6.00641">
        <ele>944</ele>
        <time>2021-12-29T12:46:07Z</time>
      </trkpt>
      <trkpt lat="44.72415" lon="6.0067">
        <ele>946</ele>
        <time>2021-12-29T12:46:14Z</time>
      </trkpt>
      <trkpt lat="44.72359" lon="6.00722">
        <ele>946</ele>
        <time>2021-12-29T12:46:26Z</time>
      </trkpt>
      <trkpt lat="44.72303" lon="6.00767">
        <ele>945</ele>
        <time>2021-12-29T12:46:38Z</time>
      </trkpt>
      <trkpt lat="44.72278" lon="6.00767">
        <ele>947</ele>
        <time>2021-12-29T12:46:42Z</time>
      </trkpt>
      <trkpt lat="44.72166" lon="6.0073">
        <ele>954</ele>
        <time>2021-12-29T12:47:03Z</time>
      </trkpt>
      <trkpt lat="44.72133" lon="6.00717">
        <ele>962</ele>
        <time>2021-12-29T12:47:09Z</time>
      </trkpt>
      <trkpt lat="44.72118" lon="6.00716">
        <ele>966</ele>
        <time>2021-12-29T12:47:11Z</time>
      </trkpt>
      <trkpt lat="44.72087" lon="6.00727">
        <ele>971</ele>
        <time>2021-12-29T12:47:17Z</time>
      </trkpt>
      <trkpt lat="44.72044" lon="6.00835">
        <ele>971</ele>
        <time>2021-12-29T12:47:33Z</time>
      </trkpt>
      <trkpt lat="44.71965" lon="6.00919">
        <ele>971</ele>
        <time>2021-12-29T12:47:50Z</time>
      </trkpt>
      <trkpt lat="44.71821" lon="6.01136">
        <ele>985</ele>
        <time>2021-12-29T12:48:28Z</time>
      </trkpt>
      <trkpt lat="44.7168" lon="6.01284">
        <ele>990</ele>
        <time>2021-12-29T12:48:59Z</time>
      </trkpt>
      <trkpt lat="44.71589" lon="6.0129">
        <ele>994</ele>
        <time>2021-12-29T12:49:15Z</time>
      </trkpt>
      <trkpt lat="44.71557" lon="6.01311">
        <ele>996</ele>
        <time>2021-12-29T12:49:22Z</time>
      </trkpt>
      <trkpt lat="44.71523" lon="6.0137">
        <ele>998</ele>
        <time>2021-12-29T12:49:31Z</time>
      </trkpt>
      <trkpt lat="44.7151" lon="6.0139">
        <ele>999</ele>
        <time>2021-12-29T12:49:35Z</time>
      </trkpt>
      <trkpt lat="44.71495" lon="6.01405">
        <ele>1000</ele>
        <time>2021-12-29T12:49:38Z</time>
      </trkpt>
      <trkpt lat="44.7148" lon="6.01414">
        <ele>1001</ele>
        <time>2021-12-29T12:49:41Z</time>
      </trkpt>
      <trkpt lat="44.71472" lon="6.01416">
        <ele>1002</ele>
        <time>2021-12-29T12:49:42Z</time>
      </trkpt>
      <trkpt lat="44.71423" lon="6.01378">
        <ele>1006</ele>
        <time>2021-12-29T12:49:52Z</time>
      </trkpt>
      <trkpt lat="44.71409" lon="6.01361">
        <ele>1007</ele>
        <time>2021-12-29T12:49:56Z</time>
      </trkpt>
      <trkpt lat="44.71402" lon="6.01361">
        <ele>1007</ele>
        <time>2021-12-29T12:49:57Z</time>
      </trkpt>
      <trkpt lat="44.71368" lon="6.01338">
        <ele>1009</ele>
        <time>2021-12-29T12:50:04Z</time>
      </trkpt>
      <trkpt lat="44.71335" lon="6.01366">
        <ele>1009</ele>
        <time>2021-12-29T12:50:10Z</time>
      </trkpt>
      <trkpt lat="44.71257" lon="6.01427">
        <ele>1013</ele>
        <time>2021-12-29T12:50:26Z</time>
      </trkpt>
      <trkpt lat="44.7123" lon="6.01443">
        <ele>1015</ele>
        <time>2021-12-29T12:50:31Z</time>
      </trkpt>
      <trkpt lat="44.71197" lon="6.01454">
        <ele>1018</ele>
        <time>2021-12-29T12:50:38Z</time>
      </trkpt>
      <trkpt lat="44.71128" lon="6.01469">
        <ele>1026</ele>
        <time>2021-12-29T12:50:50Z</time>
      </trkpt>
      <trkpt lat="44.71019" lon="6.0152">
        <ele>1037</ele>
        <time>2021-12-29T12:51:10Z</time>
      </trkpt>
      <trkpt lat="44.70955" lon="6.01584">
        <ele>1042</ele>
        <time>2021-12-29T12:51:24Z</time>
      </trkpt>
      <trkpt lat="44.70926" lon="6.01599">
        <ele>1045</ele>
        <time>2021-12-29T12:51:30Z</time>
      </trkpt>
      <trkpt lat="44.70883" lon="6.01602">
        <ele>1051</ele>
        <time>2021-12-29T12:51:38Z</time>
      </trkpt>
      <trkpt lat="44.70833" lon="6.01611">
        <ele>1059</ele>
        <time>2021-12-29T12:51:46Z</time>
      </trkpt>
      <trkpt lat="44.70823" lon="6.01593">
        <ele>1061</ele>
        <time>2021-12-29T12:51:49Z</time>
      </trkpt>
      <trkpt lat="44.70823" lon="6.0156">
        <ele>1062</ele>
        <time>2021-12-29T12:51:54Z</time>
      </trkpt>
      <trkpt lat="44.70812" lon="6.01545">
        <ele>1065</ele>
        <time>2021-12-29T12:51:56Z</time>
      </trkpt>
      <trkpt lat="44.70799" lon="6.01554">
        <ele>1067</ele>
        <time>2021-12-29T12:51:59Z</time>
      </trkpt>
      <trkpt lat="44.70781" lon="6.01659">
        <ele>1065</ele>
        <time>2021-12-29T12:52:13Z</time>
      </trkpt>
      <trkpt lat="44.70765" lon="6.01687">
        <ele>1065</ele>
        <time>2021-12-29T12:52:17Z</time>
      </trkpt>
      <trkpt lat="44.70735" lon="6.01698">
        <ele>1066</ele>
        <time>2021-12-29T12:52:23Z</time>
      </trkpt>
      <trkpt lat="44.70693" lon="6.01703">
        <ele>1067</ele>
        <time>2021-12-29T12:52:30Z</time>
      </trkpt>
      <trkpt lat="44.70677" lon="6.01693">
        <ele>1067</ele>
        <time>2021-12-29T12:52:33Z</time>
      </trkpt>
      <trkpt lat="44.70631" lon="6.01635">
        <ele>1071</ele>
        <time>2021-12-29T12:52:44Z</time>
      </trkpt>
      <trkpt lat="44.70601" lon="6.01589">
        <ele>1074</ele>
        <time>2021-12-29T12:52:52Z</time>
      </trkpt>
      <trkpt lat="44.70576" lon="6.01574">
        <ele>1076</ele>
        <time>2021-12-29T12:52:57Z</time>
      </trkpt>
      <trkpt lat="44.7053" lon="6.01558">
        <ele>1078</ele>
        <time>2021-12-29T12:53:05Z</time>
      </trkpt>
      <trkpt lat="44.70476" lon="6.01519">
        <ele>1084</ele>
        <time>2021-12-29T12:53:16Z</time>
      </trkpt>
      <trkpt lat="44.70436" lon="6.01486">
        <ele>1089</ele>
        <time>2021-12-29T12:53:24Z</time>
      </trkpt>
      <trkpt lat="44.70407" lon="6.01484">
        <ele>1092</ele>
        <time>2021-12-29T12:53:30Z</time>
      </trkpt>
      <trkpt lat="44.70383" lon="6.01495">
        <ele>1093</ele>
        <time>2021-12-29T12:53:34Z</time>
      </trkpt>
      <trkpt lat="44.70354" lon="6.0152">
        <ele>1094</ele>
        <time>2021-12-29T12:53:40Z</time>
      </trkpt>
      <trkpt lat="44.70326" lon="6.01556">
        <ele>1094</ele>
        <time>2021-12-29T12:53:47Z</time>
      </trkpt>
      <trkpt lat="44.70313" lon="6.0158">
        <ele>1093</ele>
        <time>2021-12-29T12:53:51Z</time>
      </trkpt>
      <trkpt lat="44.70297" lon="6.01599">
        <ele>1093</ele>
        <time>2021-12-29T12:53:54Z</time>
      </trkpt>
      <trkpt lat="44.70246" lon="6.01652">
        <ele>1091</ele>
        <time>2021-12-29T12:54:06Z</time>
      </trkpt>
      <trkpt lat="44.70219" lon="6.01635">
        <ele>1093</ele>
        <time>2021-12-29T12:54:11Z</time>
      </trkpt>
      <trkpt lat="44.70185" lon="6.01629">
        <ele>1094</ele>
        <time>2021-12-29T12:54:17Z</time>
      </trkpt>
      <trkpt lat="44.70107" lon="6.01627">
        <ele>1097</ele>
        <time>2021-12-29T12:54:31Z</time>
      </trkpt>
      <trkpt lat="44.70099" lon="6.01623">
        <ele>1097</ele>
        <time>2021-12-29T12:54:32Z</time>
      </trkpt>
      <trkpt lat="44.70028" lon="6.01562">
        <ele>1101</ele>
        <time>2021-12-29T12:54:47Z</time>
      </trkpt>
      <trkpt lat="44.70008" lon="6.01556">
        <ele>1100</ele>
        <time>2021-12-29T12:54:51Z</time>
      </trkpt>
      <trkpt lat="44.69984" lon="6.01559">
        <ele>1100</ele>
        <time>2021-12-29T12:54:55Z</time>
      </trkpt>
      <trkpt lat="44.6994" lon="6.01569">
        <ele>1101</ele>
        <time>2021-12-29T12:55:03Z</time>
      </trkpt>
      <trkpt lat="44.6989" lon="6.01574">
        <ele>1102</ele>
        <time>2021-12-29T12:55:12Z</time>
      </trkpt>
      <trkpt lat="44.69852" lon="6.0158">
        <ele>1104</ele>
        <time>2021-12-29T12:55:19Z</time>
      </trkpt>
      <trkpt lat="44.69843" lon="6.01578">
        <ele>1104</ele>
        <time>2021-12-29T12:55:20Z</time>
      </trkpt>
      <trkpt lat="44.6981" lon="6.01306">
        <ele>1116</ele>
        <time>2021-12-29T12:55:55Z</time>
      </trkpt>
      <trkpt lat="44.69793" lon="6.01245">
        <ele>1122</ele>
        <time>2021-12-29T12:56:04Z</time>
      </trkpt>
      <trkpt lat="44.69775" lon="6.01203">
        <ele>1126</ele>
        <time>2021-12-29T12:56:10Z</time>
      </trkpt>
      <trkpt lat="44.69767" lon="6.01195">
        <ele>1127</ele>
        <time>2021-12-29T12:56:12Z</time>
      </trkpt>
      <trkpt lat="44.6976" lon="6.01195">
        <ele>1127</ele>
        <time>2021-12-29T12:56:13Z</time>
      </trkpt>
      <trkpt lat="44.69731" lon="6.01204">
        <ele>1126</ele>
        <time>2021-12-29T12:56:18Z</time>
      </trkpt>
      <trkpt lat="44.69719" lon="6.01206">
        <ele>1125</ele>
        <time>2021-12-29T12:56:20Z</time>
      </trkpt>
      <trkpt lat="44.69664" lon="6.01192">
        <ele>1126</ele>
        <time>2021-12-29T12:56:30Z</time>
      </trkpt>
      <trkpt lat="44.69643" lon="6.01195">
        <ele>1127</ele>
        <time>2021-12-29T12:56:34Z</time>
      </trkpt>
      <trkpt lat="44.69598" lon="6.01216">
        <ele>1127</ele>
        <time>2021-12-29T12:56:42Z</time>
      </trkpt>
      <trkpt lat="44.69576" lon="6.01223">
        <ele>1127</ele>
        <time>2021-12-29T12:56:46Z</time>
      </trkpt>
      <trkpt lat="44.69572" lon="6.01218">
        <ele>1128</ele>
        <time>2021-12-29T12:56:47Z</time>
      </trkpt>
      <trkpt lat="44.69555" lon="6.01166">
        <ele>1133</ele>
        <time>2021-12-29T12:56:55Z</time>
      </trkpt>
      <trkpt lat="44.69539" lon="6.01116">
        <ele>1141</ele>
        <time>2021-12-29T12:57:02Z</time>
      </trkpt>
      <trkpt lat="44.69538" lon="6.01098">
        <ele>1143</ele>
        <time>2021-12-29T12:57:04Z</time>
      </trkpt>
      <trkpt lat="44.69535" lon="6.01087">
        <ele>1144</ele>
        <time>2021-12-29T12:57:05Z</time>
      </trkpt>
      <trkpt lat="44.69527" lon="6.01081">
        <ele>1146</ele>
        <time>2021-12-29T12:57:07Z</time>
      </trkpt>
      <trkpt lat="44.69521" lon="6.01081">
        <ele>1146</ele>
        <time>2021-12-29T12:57:08Z</time>
      </trkpt>
      <trkpt lat="44.69498" lon="6.01094">
        <ele>1146</ele>
        <time>2021-12-29T12:57:12Z</time>
      </trkpt>
      <trkpt lat="44.69475" lon="6.01101">
        <ele>1147</ele>
        <time>2021-12-29T12:57:17Z</time>
      </trkpt>
      <trkpt lat="44.69456" lon="6.01098">
        <ele>1148</ele>
        <time>2021-12-29T12:57:20Z</time>
      </trkpt>
      <trkpt lat="44.6942" lon="6.01076">
        <ele>1153</ele>
        <time>2021-12-29T12:57:27Z</time>
      </trkpt>
      <trkpt lat="44.69412" lon="6.01074">
        <ele>1154</ele>
        <time>2021-12-29T12:57:28Z</time>
      </trkpt>
      <trkpt lat="44.69403" lon="6.01074">
        <ele>1155</ele>
        <time>2021-12-29T12:57:30Z</time>
      </trkpt>
      <trkpt lat="44.69383" lon="6.0108">
        <ele>1157</ele>
        <time>2021-12-29T12:57:34Z</time>
      </trkpt>
      <trkpt lat="44.69353" lon="6.01103">
        <ele>1160</ele>
        <time>2021-12-29T12:57:40Z</time>
      </trkpt>
      <trkpt lat="44.69292" lon="6.01199">
        <ele>1161</ele>
        <time>2021-12-29T12:57:56Z</time>
      </trkpt>
      <trkpt lat="44.69286" lon="6.01205">
        <ele>1161</ele>
        <time>2021-12-29T12:57:57Z</time>
      </trkpt>
      <trkpt lat="44.6928" lon="6.01208">
        <ele>1162</ele>
        <time>2021-12-29T12:57:58Z</time>
      </trkpt>
      <trkpt lat="44.69266" lon="6.01207">
        <ele>1163</ele>
        <time>2021-12-29T12:58:01Z</time>
      </trkpt>
      <trkpt lat="44.69233" lon="6.01188">
        <ele>1164</ele>
        <time>2021-12-29T12:58:07Z</time>
      </trkpt>
      <trkpt lat="44.69218" lon="6.01171">
        <ele>1164</ele>
        <time>2021-12-29T12:58:11Z</time>
      </trkpt>
      <trkpt lat="44.69205" lon="6.01148">
        <ele>1166</ele>
        <time>2021-12-29T12:58:14Z</time>
      </trkpt>
      <trkpt lat="44.69194" lon="6.01126">
        <ele>1167</ele>
        <time>2021-12-29T12:58:18Z</time>
      </trkpt>
      <trkpt lat="44.6919" lon="6.01113">
        <ele>1168</ele>
        <time>2021-12-29T12:58:20Z</time>
      </trkpt>
      <trkpt lat="44.69182" lon="6.01059">
        <ele>1173</ele>
        <time>2021-12-29T12:58:27Z</time>
      </trkpt>
      <trkpt lat="44.69181" lon="6.01039">
        <ele>1175</ele>
        <time>2021-12-29T12:58:29Z</time>
      </trkpt>
      <trkpt lat="44.69186" lon="6.0099">
        <ele>1180</ele>
        <time>2021-12-29T12:58:35Z</time>
      </trkpt>
      <trkpt lat="44.69186" lon="6.00978">
        <ele>1181</ele>
        <time>2021-12-29T12:58:37Z</time>
      </trkpt>
      <trkpt lat="44.69184" lon="6.00965">
        <ele>1181</ele>
        <time>2021-12-29T12:58:39Z</time>
      </trkpt>
      <trkpt lat="44.69175" lon="6.00936">
        <ele>1181</ele>
        <time>2021-12-29T12:58:43Z</time>
      </trkpt>
      <trkpt lat="44.69174" lon="6.00925">
        <ele>1182</ele>
        <time>2021-12-29T12:58:44Z</time>
      </trkpt>
      <trkpt lat="44.69177" lon="6.00901">
        <ele>1183</ele>
        <time>2021-12-29T12:58:47Z</time>
      </trkpt>
      <trkpt lat="44.69181" lon="6.00891">
        <ele>1184</ele>
        <time>2021-12-29T12:58:49Z</time>
      </trkpt>
      <trkpt lat="44.69187" lon="6.00883">
        <ele>1186</ele>
        <time>2021-12-29T12:58:50Z</time>
      </trkpt>
      <trkpt lat="44.69209" lon="6.00865">
        <ele>1191</ele>
        <time>2021-12-29T12:58:55Z</time>
      </trkpt>
      <trkpt lat="44.69215" lon="6.00857">
        <ele>1192</ele>
        <time>2021-12-29T12:58:56Z</time>
      </trkpt>
      <trkpt lat="44.69238" lon="6.0081">
        <ele>1197</ele>
        <time>2021-12-29T12:59:03Z</time>
      </trkpt>
      <trkpt lat="44.69254" lon="6.00791">
        <ele>1199</ele>
        <time>2021-12-29T12:59:07Z</time>
      </trkpt>
      <trkpt lat="44.69272" lon="6.00774">
        <ele>1200</ele>
        <time>2021-12-29T12:59:11Z</time>
      </trkpt>
      <trkpt lat="44.69302" lon="6.00753">
        <ele>1204</ele>
        <time>2021-12-29T12:59:17Z</time>
      </trkpt>
      <trkpt lat="44.69325" lon="6.00742">
        <ele>1208</ele>
        <time>2021-12-29T12:59:21Z</time>
      </trkpt>
      <trkpt lat="44.69332" lon="6.00735">
        <ele>1209</ele>
        <time>2021-12-29T12:59:23Z</time>
      </trkpt>
      <trkpt lat="44.69338" lon="6.00726">
        <ele>1210</ele>
        <time>2021-12-29T12:59:24Z</time>
      </trkpt>
      <trkpt lat="44.69362" lon="6.00678">
        <ele>1213</ele>
        <time>2021-12-29T12:59:32Z</time>
      </trkpt>
      <trkpt lat="44.69404" lon="6.00616">
        <ele>1224</ele>
        <time>2021-12-29T12:59:42Z</time>
      </trkpt>
      <trkpt lat="44.69411" lon="6.00608">
        <ele>1226</ele>
        <time>2021-12-29T12:59:44Z</time>
      </trkpt>
      <trkpt lat="44.69418" lon="6.00602">
        <ele>1229</ele>
        <time>2021-12-29T12:59:45Z</time>
      </trkpt>
      <trkpt lat="44.69435" lon="6.00595">
        <ele>1229</ele>
        <time>2021-12-29T12:59:49Z</time>
      </trkpt>
      <trkpt lat="44.69442" lon="6.0059">
        <ele>1229</ele>
        <time>2021-12-29T12:59:50Z</time>
      </trkpt>
      <trkpt lat="44.69448" lon="6.00581">
        <ele>1230</ele>
        <time>2021-12-29T12:59:52Z</time>
      </trkpt>
      <trkpt lat="44.69465" lon="6.00537">
        <ele>1237</ele>
        <time>2021-12-29T12:59:58Z</time>
      </trkpt>
      <trkpt lat="44.69481" lon="6.00504">
        <ele>1243</ele>
        <time>2021-12-29T13:00:03Z</time>
      </trkpt>
      <trkpt lat="44.69492" lon="6.0049">
        <ele>1247</ele>
        <time>2021-12-29T13:00:06Z</time>
      </trkpt>
      <trkpt lat="44.69499" lon="6.00488">
        <ele>1247</ele>
        <time>2021-12-29T13:00:07Z</time>
      </trkpt>
      <trkpt lat="44.69507" lon="6.0049">
        <ele>1249</ele>
        <time>2021-12-29T13:00:08Z</time>
      </trkpt>
      <trkpt lat="44.69533" lon="6.0051">
        <ele>1249</ele>
        <time>2021-12-29T13:00:14Z</time>
      </trkpt>
      <trkpt lat="44.69572" lon="6.00533">
        <ele>1251</ele>
        <time>2021-12-29T13:00:21Z</time>
      </trkpt>
      <trkpt lat="44.69592" lon="6.00549">
        <ele>1249</ele>
        <time>2021-12-29T13:00:25Z</time>
      </trkpt>
      <trkpt lat="44.696" lon="6.00558">
        <ele>1248</ele>
        <time>2021-12-29T13:00:27Z</time>
      </trkpt>
      <trkpt lat="44.69625" lon="6.0059">
        <ele>1242</ele>
        <time>2021-12-29T13:00:33Z</time>
      </trkpt>
      <trkpt lat="44.69637" lon="6.00597">
        <ele>1242</ele>
        <time>2021-12-29T13:00:35Z</time>
      </trkpt>
      <trkpt lat="44.69646" lon="6.00595">
        <ele>1244</ele>
        <time>2021-12-29T13:00:37Z</time>
      </trkpt>
      <trkpt lat="44.69671" lon="6.00576">
        <ele>1251</ele>
        <time>2021-12-29T13:00:42Z</time>
      </trkpt>
      <trkpt lat="44.6968" lon="6.00566">
        <ele>1252</ele>
        <time>2021-12-29T13:00:44Z</time>
      </trkpt>
      <trkpt lat="44.69684" lon="6.00556">
        <ele>1254</ele>
        <time>2021-12-29T13:00:46Z</time>
      </trkpt>
      <trkpt lat="44.69703" lon="6.00524">
        <ele>1258</ele>
        <time>2021-12-29T13:00:51Z</time>
      </trkpt>
      <trkpt lat="44.69732" lon="6.00486">
        <ele>1263</ele>
        <time>2021-12-29T13:00:58Z</time>
      </trkpt>
      <trkpt lat="44.69772" lon="6.00429">
        <ele>1271</ele>
        <time>2021-12-29T13:01:08Z</time>
      </trkpt>
      <trkpt lat="44.69795" lon="6.00411">
        <ele>1271</ele>
        <time>2021-12-29T13:01:13Z</time>
      </trkpt>
      <trkpt lat="44.698" lon="6.00404">
        <ele>1272</ele>
        <time>2021-12-29T13:01:14Z</time>
      </trkpt>
      <trkpt lat="44.69805" lon="6.00395">
        <ele>1274</ele>
        <time>2021-12-29T13:01:15Z</time>
      </trkpt>
      <trkpt lat="44.69811" lon="6.00358">
        <ele>1283</ele>
        <time>2021-12-29T13:01:20Z</time>
      </trkpt>
      <trkpt lat="44.69817" lon="6.00335">
        <ele>1287</ele>
        <time>2021-12-29T13:01:23Z</time>
      </trkpt>
      <trkpt lat="44.69821" lon="6.00326">
        <ele>1289</ele>
        <time>2021-12-29T13:01:25Z</time>
      </trkpt>
      <trkpt lat="44.69827" lon="6.00319">
        <ele>1289</ele>
        <time>2021-12-29T13:01:26Z</time>
      </trkpt>
      <trkpt lat="44.69834" lon="6.00314">
        <ele>1288</ele>
        <time>2021-12-29T13:01:27Z</time>
      </trkpt>
      <trkpt lat="44.69843" lon="6.00312">
        <ele>1289</ele>
        <time>2021-12-29T13:01:29Z</time>
      </trkpt>
      <trkpt lat="44.69862" lon="6.00313">
        <ele>1288</ele>
        <time>2021-12-29T13:01:32Z</time>
      </trkpt>
      <trkpt lat="44.69945" lon="6.0033">
        <ele>1285</ele>
        <time>2021-12-29T13:01:47Z</time>
      </trkpt>
      <trkpt lat="44.69953" lon="6.00334">
        <ele>1284</ele>
        <time>2021-12-29T13:01:49Z</time>
      </trkpt>
      <trkpt lat="44.6996" lon="6.00341">
        <ele>1284</ele>
        <time>2021-12-29T13:01:50Z</time>
      </trkpt>
      <trkpt lat="44.69976" lon="6.00363">
        <ele>1281</ele>
        <time>2021-12-29T13:01:54Z</time>
      </trkpt>
      <trkpt lat="44.69982" lon="6.00366">
        <ele>1281</ele>
        <time>2021-12-29T13:01:55Z</time>
      </trkpt>
      <trkpt lat="44.69988" lon="6.00365">
        <ele>1282</ele>
        <time>2021-12-29T13:01:57Z</time>
      </trkpt>
      <trkpt lat="44.69994" lon="6.0036">
        <ele>1283</ele>
        <time>2021-12-29T13:01:58Z</time>
      </trkpt>
      <trkpt lat="44.70008" lon="6.00328">
        <ele>1292</ele>
        <time>2021-12-29T13:02:03Z</time>
      </trkpt>
      <trkpt lat="44.70015" lon="6.00317">
        <ele>1296</ele>
        <time>2021-12-29T13:02:04Z</time>
      </trkpt>
      <trkpt lat="44.70062" lon="6.00289">
        <ele>1307</ele>
        <time>2021-12-29T13:02:14Z</time>
      </trkpt>
      <trkpt lat="44.70069" lon="6.00286">
        <ele>1308</ele>
        <time>2021-12-29T13:02:15Z</time>
      </trkpt>
      <trkpt lat="44.70076" lon="6.00286">
        <ele>1309</ele>
        <time>2021-12-29T13:02:16Z</time>
      </trkpt>
      <trkpt lat="44.70087" lon="6.00294">
        <ele>1307</ele>
        <time>2021-12-29T13:02:18Z</time>
      </trkpt>
      <trkpt lat="44.70112" lon="6.00337">
        <ele>1299</ele>
        <time>2021-12-29T13:02:25Z</time>
      </trkpt>
      <trkpt lat="44.70117" lon="6.00341">
        <ele>1299</ele>
        <time>2021-12-29T13:02:26Z</time>
      </trkpt>
      <trkpt lat="44.70123" lon="6.00344">
        <ele>1300</ele>
        <time>2021-12-29T13:02:27Z</time>
      </trkpt>
      <trkpt lat="44.7013" lon="6.00343">
        <ele>1301</ele>
        <time>2021-12-29T13:02:29Z</time>
      </trkpt>
      <trkpt lat="44.70151" lon="6.00329">
        <ele>1308</ele>
        <time>2021-12-29T13:02:33Z</time>
      </trkpt>
      <trkpt lat="44.70214" lon="6.00276">
        <ele>1323</ele>
        <time>2021-12-29T13:02:46Z</time>
      </trkpt>
      <trkpt lat="44.70252" lon="6.00254">
        <ele>1327</ele>
        <time>2021-12-29T13:02:53Z</time>
      </trkpt>
      <trkpt lat="44.70288" lon="6.00242">
        <ele>1326</ele>
        <time>2021-12-29T13:03:00Z</time>
      </trkpt>
      <trkpt lat="44.70303" lon="6.00234">
        <ele>1327</ele>
        <time>2021-12-29T13:03:03Z</time>
      </trkpt>
      <trkpt lat="44.70321" lon="6.0022">
        <ele>1329</ele>
        <time>2021-12-29T13:03:06Z</time>
      </trkpt>
      <trkpt lat="44.70328" lon="6.00211">
        <ele>1330</ele>
        <time>2021-12-29T13:03:08Z</time>
      </trkpt>
      <trkpt lat="44.70331" lon="6.00205">
        <ele>1331</ele>
        <time>2021-12-29T13:03:09Z</time>
      </trkpt>
      <trkpt lat="44.70332" lon="6.00198">
        <ele>1333</ele>
        <time>2021-12-29T13:03:10Z</time>
      </trkpt>
      <trkpt lat="44.7033" lon="6.00193">
        <ele>1335</ele>
        <time>2021-12-29T13:03:11Z</time>
      </trkpt>
      <trkpt lat="44.70327" lon="6.00192">
        <ele>1335</ele>
        <time>2021-12-29T13:03:11Z</time>
      </trkpt>
      <trkpt lat="44.70299" lon="6.00207">
        <ele>1335</ele>
        <time>2021-12-29T13:03:16Z</time>
      </trkpt>
      <trkpt lat="44.70289" lon="6.00209">
        <ele>1336</ele>
        <time>2021-12-29T13:03:18Z</time>
      </trkpt>
      <trkpt lat="44.70246" lon="6.00203">
        <ele>1343</ele>
        <time>2021-12-29T13:03:26Z</time>
      </trkpt>
      <trkpt lat="44.70166" lon="6.00211">
        <ele>1345</ele>
        <time>2021-12-29T13:03:40Z</time>
      </trkpt>
      <trkpt lat="44.70149" lon="6.00208">
        <ele>1342</ele>
        <time>2021-12-29T13:03:43Z</time>
      </trkpt>
      <trkpt lat="44.70136" lon="6.00201">
        <ele>1342</ele>
        <time>2021-12-29T13:03:46Z</time>
      </trkpt>
      <trkpt lat="44.70131" lon="6.00195">
        <ele>1342</ele>
        <time>2021-12-29T13:03:47Z</time>
      </trkpt>
      <trkpt lat="44.70119" lon="6.00154">
        <ele>1352</ele>
        <time>2021-12-29T13:03:52Z</time>
      </trkpt>
      <trkpt lat="44.70114" lon="6.00143">
        <ele>1355</ele>
        <time>2021-12-29T13:03:54Z</time>
      </trkpt>
      <trkpt lat="44.70107" lon="6.00134">
        <ele>1357</ele>
        <time>2021-12-29T13:03:56Z</time>
      </trkpt>
      <trkpt lat="44.70084" lon="6.00113">
        <ele>1360</ele>
        <time>2021-12-29T13:04:01Z</time>
      </trkpt>
      <trkpt lat="44.7007" lon="6.00095">
        <ele>1364</ele>
        <time>2021-12-29T13:04:04Z</time>
      </trkpt>
      <trkpt lat="44.70054" lon="6.00082">
        <ele>1367</ele>
        <time>2021-12-29T13:04:07Z</time>
      </trkpt>
      <trkpt lat="44.7004" lon="6.00078">
        <ele>1366</ele>
        <time>2021-12-29T13:04:10Z</time>
      </trkpt>
      <trkpt lat="44.70026" lon="6.00076">
        <ele>1365</ele>
        <time>2021-12-29T13:04:12Z</time>
      </trkpt>
      <trkpt lat="44.7" lon="6.0007">
        <ele>1364</ele>
        <time>2021-12-29T13:04:17Z</time>
      </trkpt>
      <trkpt lat="44.69972" lon="6.00059">
        <ele>1370</ele>
        <time>2021-12-29T13:04:22Z</time>
      </trkpt>
      <trkpt lat="44.69918" lon="6.00047">
        <ele>1377</ele>
        <time>2021-12-29T13:04:32Z</time>
      </trkpt>
      <trkpt lat="44.6985" lon="6.00046">
        <ele>1384</ele>
        <time>2021-12-29T13:04:44Z</time>
      </trkpt>
      <trkpt lat="44.6979" lon="6.00049">
        <ele>1382</ele>
        <time>2021-12-29T13:04:55Z</time>
      </trkpt>
      <trkpt lat="44.69771" lon="6.00046">
        <ele>1383</ele>
        <time>2021-12-29T13:04:58Z</time>
      </trkpt>
      <trkpt lat="44.6975" lon="6.00039">
        <ele>1385</ele>
        <time>2021-12-29T13:05:02Z</time>
      </trkpt>
      <trkpt lat="44.69737" lon="6.00032">
        <ele>1386</ele>
        <time>2021-12-29T13:05:04Z</time>
      </trkpt>
      <trkpt lat="44.69731" lon="6.00026">
        <ele>1388</ele>
        <time>2021-12-29T13:05:06Z</time>
      </trkpt>
      <trkpt lat="44.6967" lon="5.99949">
        <ele>1406</ele>
        <time>2021-12-29T13:05:20Z</time>
      </trkpt>
      <trkpt lat="44.69657" lon="5.99943">
        <ele>1406</ele>
        <time>2021-12-29T13:05:23Z</time>
      </trkpt>
      <trkpt lat="44.69644" lon="5.99942">
        <ele>1404</ele>
        <time>2021-12-29T13:05:25Z</time>
      </trkpt>
      <trkpt lat="44.69609" lon="5.9995">
        <ele>1396</ele>
        <time>2021-12-29T13:05:31Z</time>
      </trkpt>
      <trkpt lat="44.69584" lon="5.99946">
        <ele>1394</ele>
        <time>2021-12-29T13:05:36Z</time>
      </trkpt>
      <trkpt lat="44.69566" lon="5.99938">
        <ele>1394</ele>
        <time>2021-12-29T13:05:39Z</time>
      </trkpt>
      <trkpt lat="44.6955" lon="5.99926">
        <ele>1396</ele>
        <time>2021-12-29T13:05:43Z</time>
      </trkpt>
      <trkpt lat="44.69537" lon="5.99913">
        <ele>1398</ele>
        <time>2021-12-29T13:05:45Z</time>
      </trkpt>
      <trkpt lat="44.69532" lon="5.99905">
        <ele>1399</ele>
        <time>2021-12-29T13:05:47Z</time>
      </trkpt>
      <trkpt lat="44.69506" lon="5.99852">
        <ele>1407</ele>
        <time>2021-12-29T13:05:55Z</time>
      </trkpt>
      <trkpt lat="44.69497" lon="5.99829">
        <ele>1409</ele>
        <time>2021-12-29T13:05:58Z</time>
      </trkpt>
      <trkpt lat="44.69489" lon="5.99775">
        <ele>1416</ele>
        <time>2021-12-29T13:06:05Z</time>
      </trkpt>
      <trkpt lat="44.69486" lon="5.99761">
        <ele>1417</ele>
        <time>2021-12-29T13:06:07Z</time>
      </trkpt>
      <trkpt lat="44.6947" lon="5.99715">
        <ele>1422</ele>
        <time>2021-12-29T13:06:13Z</time>
      </trkpt>
      <trkpt lat="44.69449" lon="5.9967">
        <ele>1425</ele>
        <time>2021-12-29T13:06:20Z</time>
      </trkpt>
      <trkpt lat="44.69438" lon="5.99638">
        <ele>1428</ele>
        <time>2021-12-29T13:06:25Z</time>
      </trkpt>
      <trkpt lat="44.69414" lon="5.99586">
        <ele>1429</ele>
        <time>2021-12-29T13:06:33Z</time>
      </trkpt>
      <trkpt lat="44.69414" lon="5.99575">
        <ele>1432</ele>
        <time>2021-12-29T13:06:34Z</time>
      </trkpt>
      <trkpt lat="44.69418" lon="5.99574">
        <ele>1434</ele>
        <time>2021-12-29T13:06:35Z</time>
      </trkpt>
      <trkpt lat="44.69421" lon="5.99577">
        <ele>1435</ele>
        <time>2021-12-29T13:06:35Z</time>
      </trkpt>
      <trkpt lat="44.6943" lon="5.99597">
        <ele>1435</ele>
        <time>2021-12-29T13:06:38Z</time>
      </trkpt>
      <trkpt lat="44.69443" lon="5.99617">
        <ele>1437</ele>
        <time>2021-12-29T13:06:42Z</time>
      </trkpt>
      <trkpt lat="44.69496" lon="5.99679">
        <ele>1446</ele>
        <time>2021-12-29T13:06:54Z</time>
      </trkpt>
      <trkpt lat="44.69501" lon="5.99687">
        <ele>1446</ele>
        <time>2021-12-29T13:06:55Z</time>
      </trkpt>
      <trkpt lat="44.69514" lon="5.99711">
        <ele>1443</ele>
        <time>2021-12-29T13:06:59Z</time>
      </trkpt>
      <trkpt lat="44.69519" lon="5.99717">
        <ele>1443</ele>
        <time>2021-12-29T13:07:00Z</time>
      </trkpt>
      <trkpt lat="44.69537" lon="5.99724">
        <ele>1447</ele>
        <time>2021-12-29T13:07:04Z</time>
      </trkpt>
      <trkpt lat="44.69551" lon="5.99732">
        <ele>1449</ele>
        <time>2021-12-29T13:07:06Z</time>
      </trkpt>
      <trkpt lat="44.69557" lon="5.99738">
        <ele>1449</ele>
        <time>2021-12-29T13:07:08Z</time>
      </trkpt>
      <trkpt lat="44.69569" lon="5.99756">
        <ele>1448</ele>
        <time>2021-12-29T13:07:11Z</time>
      </trkpt>
      <trkpt lat="44.69581" lon="5.99767">
        <ele>1449</ele>
        <time>2021-12-29T13:07:13Z</time>
      </trkpt>
      <trkpt lat="44.69593" lon="5.99771">
        <ele>1451</ele>
        <time>2021-12-29T13:07:16Z</time>
      </trkpt>
      <trkpt lat="44.69611" lon="5.9977">
        <ele>1456</ele>
        <time>2021-12-29T13:07:19Z</time>
      </trkpt>
      <trkpt lat="44.69655" lon="5.99783">
        <ele>1461</ele>
        <time>2021-12-29T13:07:27Z</time>
      </trkpt>
      <trkpt lat="44.69665" lon="5.99785">
        <ele>1463</ele>
        <time>2021-12-29T13:07:29Z</time>
      </trkpt>
      <trkpt lat="44.69701" lon="5.99783">
        <ele>1469</ele>
        <time>2021-12-29T13:07:35Z</time>
      </trkpt>
      <trkpt lat="44.69714" lon="5.99786">
        <ele>1470</ele>
        <time>2021-12-29T13:07:37Z</time>
      </trkpt>
      <trkpt lat="44.69755" lon="5.99808">
        <ele>1468</ele>
        <time>2021-12-29T13:07:45Z</time>
      </trkpt>
      <trkpt lat="44.69806" lon="5.99817">
        <ele>1469</ele>
        <time>2021-12-29T13:07:54Z</time>
      </trkpt>
      <trkpt lat="44.69823" lon="5.99817">
        <ele>1471</ele>
        <time>2021-12-29T13:07:57Z</time>
      </trkpt>
      <trkpt lat="44.69831" lon="5.99814">
        <ele>1473</ele>
        <time>2021-12-29T13:07:59Z</time>
      </trkpt>
      <trkpt lat="44.69838" lon="5.9981">
        <ele>1475</ele>
        <time>2021-12-29T13:08:00Z</time>
      </trkpt>
      <trkpt lat="44.6986" lon="5.99792">
        <ele>1484</ele>
        <time>2021-12-29T13:08:05Z</time>
      </trkpt>
      <trkpt lat="44.69868" lon="5.9979">
        <ele>1486</ele>
        <time>2021-12-29T13:08:06Z</time>
      </trkpt>
      <trkpt lat="44.69875" lon="5.9979">
        <ele>1486</ele>
        <time>2021-12-29T13:08:07Z</time>
      </trkpt>
      <trkpt lat="44.69902" lon="5.99807">
        <ele>1481</ele>
        <time>2021-12-29T13:08:13Z</time>
      </trkpt>
      <trkpt lat="44.69905" lon="5.99805">
        <ele>1482</ele>
        <time>2021-12-29T13:08:13Z</time>
      </trkpt>
      <trkpt lat="44.69908" lon="5.99799">
        <ele>1485</ele>
        <time>2021-12-29T13:08:14Z</time>
      </trkpt>
      <trkpt lat="44.69907" lon="5.99793">
        <ele>1488</ele>
        <time>2021-12-29T13:08:15Z</time>
      </trkpt>
      <trkpt lat="44.69904" lon="5.99788">
        <ele>1490</ele>
        <time>2021-12-29T13:08:16Z</time>
      </trkpt>
      <trkpt lat="44.69874" lon="5.99768">
        <ele>1496</ele>
        <time>2021-12-29T13:08:22Z</time>
      </trkpt>
      <trkpt lat="44.69858" lon="5.99764">
        <ele>1496</ele>
        <time>2021-12-29T13:08:25Z</time>
      </trkpt>
      <trkpt lat="44.69821" lon="5.99765">
        <ele>1492</ele>
        <time>2021-12-29T13:08:31Z</time>
      </trkpt>
      <trkpt lat="44.69806" lon="5.99759">
        <ele>1492</ele>
        <time>2021-12-29T13:08:34Z</time>
      </trkpt>
      <trkpt lat="44.69792" lon="5.99747">
        <ele>1495</ele>
        <time>2021-12-29T13:08:37Z</time>
      </trkpt>
      <trkpt lat="44.69767" lon="5.99712">
        <ele>1506</ele>
        <time>2021-12-29T13:08:43Z</time>
      </trkpt>
      <trkpt lat="44.69753" lon="5.99695">
        <ele>1511</ele>
        <time>2021-12-29T13:08:46Z</time>
      </trkpt>
      <trkpt lat="44.69691" lon="5.99652">
        <ele>1517</ele>
        <time>2021-12-29T13:08:59Z</time>
      </trkpt>
      <trkpt lat="44.69602" lon="5.99565">
        <ele>1532</ele>
        <time>2021-12-29T13:09:18Z</time>
      </trkpt>
      <trkpt lat="44.69581" lon="5.99536">
        <ele>1535</ele>
        <time>2021-12-29T13:09:23Z</time>
      </trkpt>
      <trkpt lat="44.69569" lon="5.99512">
        <ele>1538</ele>
        <time>2021-12-29T13:09:27Z</time>
      </trkpt>
      <trkpt lat="44.69561" lon="5.99489">
        <ele>1541</ele>
        <time>2021-12-29T13:09:30Z</time>
      </trkpt>
      <trkpt lat="44.69544" lon="5.99431">
        <ele>1549</ele>
        <time>2021-12-29T13:09:38Z</time>
      </trkpt>
      <trkpt lat="44.69533" lon="5.99368">
        <ele>1562</ele>
        <time>2021-12-29T13:09:46Z</time>
      </trkpt>
      <trkpt lat="44.69528" lon="5.99353">
        <ele>1563</ele>
        <time>2021-12-29T13:09:48Z</time>
      </trkpt>
      <trkpt lat="44.69514" lon="5.99322">
        <ele>1567</ele>
        <time>2021-12-29T13:09:53Z</time>
      </trkpt>
      <trkpt lat="44.69466" lon="5.99268">
        <ele>1567</ele>
        <time>2021-12-29T13:10:04Z</time>
      </trkpt>
      <trkpt lat="44.69453" lon="5.99242">
        <ele>1575</ele>
        <time>2021-12-29T13:10:08Z</time>
      </trkpt>
      <trkpt lat="44.69434" lon="5.99227">
        <ele>1575</ele>
        <time>2021-12-29T13:10:12Z</time>
      </trkpt>
      <trkpt lat="44.69418" lon="5.99207">
        <ele>1580</ele>
        <time>2021-12-29T13:10:16Z</time>
      </trkpt>
      <trkpt lat="44.694" lon="5.99197">
        <ele>1580</ele>
        <time>2021-12-29T13:10:19Z</time>
      </trkpt>
      <trkpt lat="44.69387" lon="5.99175">
        <ele>1590</ele>
        <time>2021-12-29T13:10:23Z</time>
      </trkpt>
      <trkpt lat="44.69377" lon="5.99165">
        <ele>1592</ele>
        <time>2021-12-29T13:10:25Z</time>
      </trkpt>
      <trkpt lat="44.69368" lon="5.99159">
        <ele>1592</ele>
        <time>2021-12-29T13:10:27Z</time>
      </trkpt>
      <trkpt lat="44.69331" lon="5.9914">
        <ele>1584</ele>
        <time>2021-12-29T13:10:34Z</time>
      </trkpt>
      <trkpt lat="44.69324" lon="5.99139">
        <ele>1580</ele>
        <time>2021-12-29T13:10:35Z</time>
      </trkpt>
      <trkpt lat="44.69314" lon="5.99141">
        <ele>1574</ele>
        <time>2021-12-29T13:10:37Z</time>
      </trkpt>
      <trkpt lat="44.69308" lon="5.99139">
        <ele>1571</ele>
        <time>2021-12-29T13:10:38Z</time>
      </trkpt>
      <trkpt lat="44.69305" lon="5.99137">
        <ele>1570</ele>
        <time>2021-12-29T13:10:38Z</time>
      </trkpt>
      <trkpt lat="44.69304" lon="5.99132">
        <ele>1571</ele>
        <time>2021-12-29T13:10:39Z</time>
      </trkpt>
      <trkpt lat="44.69303" lon="5.99107">
        <ele>1579</ele>
        <time>2021-12-29T13:10:42Z</time>
      </trkpt>
      <trkpt lat="44.69294" lon="5.99085">
        <ele>1580</ele>
        <time>2021-12-29T13:10:45Z</time>
      </trkpt>
      <trkpt lat="44.69293" lon="5.99079">
        <ele>1581</ele>
        <time>2021-12-29T13:10:46Z</time>
      </trkpt>
      <trkpt lat="44.69293" lon="5.99068">
        <ele>1584</ele>
        <time>2021-12-29T13:10:48Z</time>
      </trkpt>
      <trkpt lat="44.69299" lon="5.99021">
        <ele>1601</ele>
        <time>2021-12-29T13:10:54Z</time>
      </trkpt>
      <trkpt lat="44.69291" lon="5.99001">
        <ele>1600</ele>
        <time>2021-12-29T13:10:57Z</time>
      </trkpt>
      <trkpt lat="44.6929" lon="5.98982">
        <ele>1605</ele>
        <time>2021-12-29T13:10:59Z</time>
      </trkpt>
      <trkpt lat="44.69281" lon="5.98952">
        <ele>1605</ele>
        <time>2021-12-29T13:11:03Z</time>
      </trkpt>
      <trkpt lat="44.69281" lon="5.98926">
        <ele>1612</ele>
        <time>2021-12-29T13:11:06Z</time>
      </trkpt>
      <trkpt lat="44.69279" lon="5.98912">
        <ele>1614</ele>
        <time>2021-12-29T13:11:08Z</time>
      </trkpt>
      <trkpt lat="44.69264" lon="5.98862">
        <ele>1621</ele>
        <time>2021-12-29T13:11:15Z</time>
      </trkpt>
      <trkpt lat="44.69246" lon="5.98825">
        <ele>1622</ele>
        <time>2021-12-29T13:11:21Z</time>
      </trkpt>
      <trkpt lat="44.69231" lon="5.98804">
        <ele>1622</ele>
        <time>2021-12-29T13:11:25Z</time>
      </trkpt>
      <trkpt lat="44.69216" lon="5.98776">
        <ele>1626</ele>
        <time>2021-12-29T13:11:29Z</time>
      </trkpt>
      <trkpt lat="44.69205" lon="5.98759">
        <ele>1627</ele>
        <time>2021-12-29T13:11:32Z</time>
      </trkpt>
      <trkpt lat="44.69174" lon="5.98707">
        <ele>1629</ele>
        <time>2021-12-29T13:11:40Z</time>
      </trkpt>
      <trkpt lat="44.69166" lon="5.98695">
        <ele>1630</ele>
        <time>2021-12-29T13:11:43Z</time>
      </trkpt>
      <trkpt lat="44.69154" lon="5.98687">
        <ele>1627</ele>
        <time>2021-12-29T13:11:45Z</time>
      </trkpt>
      <trkpt lat="44.69134" lon="5.98677">
        <ele>1620</ele>
        <time>2021-12-29T13:11:49Z</time>
      </trkpt>
      <trkpt lat="44.69129" lon="5.9867">
        <ele>1621</ele>
        <time>2021-12-29T13:11:50Z</time>
      </trkpt>
      <trkpt lat="44.69131" lon="5.98663">
        <ele>1625</ele>
        <time>2021-12-29T13:11:51Z</time>
      </trkpt>
      <trkpt lat="44.69142" lon="5.98665">
        <ele>1630</ele>
        <time>2021-12-29T13:11:53Z</time>
      </trkpt>
      <trkpt lat="44.69165" lon="5.9868">
        <ele>1637</ele>
        <time>2021-12-29T13:11:57Z</time>
      </trkpt>
      <trkpt lat="44.6919" lon="5.98701">
        <ele>1641</ele>
        <time>2021-12-29T13:12:03Z</time>
      </trkpt>
      <trkpt lat="44.69212" lon="5.98725">
        <ele>1645</ele>
        <time>2021-12-29T13:12:07Z</time>
      </trkpt>
      <trkpt lat="44.69237" lon="5.98756">
        <ele>1651</ele>
        <time>2021-12-29T13:12:13Z</time>
      </trkpt>
      <trkpt lat="44.69259" lon="5.9879">
        <ele>1650</ele>
        <time>2021-12-29T13:12:19Z</time>
      </trkpt>
      <trkpt lat="44.69262" lon="5.98792">
        <ele>1652</ele>
        <time>2021-12-29T13:12:20Z</time>
      </trkpt>
      <trkpt lat="44.69266" lon="5.98791">
        <ele>1656</ele>
        <time>2021-12-29T13:12:21Z</time>
      </trkpt>
      <trkpt lat="44.69266" lon="5.98785">
        <ele>1659</ele>
        <time>2021-12-29T13:12:21Z</time>
      </trkpt>
      <trkpt lat="44.69263" lon="5.98779">
        <ele>1659</ele>
        <time>2021-12-29T13:12:22Z</time>
      </trkpt>
      <trkpt lat="44.69259" lon="5.98776">
        <ele>1657</ele>
        <time>2021-12-29T13:12:23Z</time>
      </trkpt>
      <trkpt lat="44.69237" lon="5.98734">
        <ele>1659</ele>
        <time>2021-12-29T13:12:30Z</time>
      </trkpt>
      <trkpt lat="44.69219" lon="5.98707">
        <ele>1657</ele>
        <time>2021-12-29T13:12:34Z</time>
      </trkpt>
      <trkpt lat="44.69207" lon="5.98694">
        <ele>1654</ele>
        <time>2021-12-29T13:12:37Z</time>
      </trkpt>
      <trkpt lat="44.69167" lon="5.98641">
        <ele>1649</ele>
        <time>2021-12-29T13:12:47Z</time>
      </trkpt>
      <trkpt lat="44.69164" lon="5.98632">
        <ele>1649</ele>
        <time>2021-12-29T13:12:48Z</time>
      </trkpt>
      <trkpt lat="44.69163" lon="5.98615">
        <ele>1652</ele>
        <time>2021-12-29T13:12:50Z</time>
      </trkpt>
      <trkpt lat="44.69166" lon="5.98581">
        <ele>1659</ele>
        <time>2021-12-29T13:12:55Z</time>
      </trkpt>
      <trkpt lat="44.69171" lon="5.98566">
        <ele>1662</ele>
        <time>2021-12-29T13:12:57Z</time>
      </trkpt>
      <trkpt lat="44.69178" lon="5.9855">
        <ele>1664</ele>
        <time>2021-12-29T13:12:59Z</time>
      </trkpt>
      <trkpt lat="44.69214" lon="5.985">
        <ele>1670</ele>
        <time>2021-12-29T13:13:08Z</time>
      </trkpt>
      <trkpt lat="44.69249" lon="5.98437">
        <ele>1667</ele>
        <time>2021-12-29T13:13:18Z</time>
      </trkpt>
      <trkpt lat="44.69304" lon="5.98354">
        <ele>1672</ele>
        <time>2021-12-29T13:13:32Z</time>
      </trkpt>
      <trkpt lat="44.69323" lon="5.98313">
        <ele>1668</ele>
        <time>2021-12-29T13:13:39Z</time>
      </trkpt>
      <trkpt lat="44.69377" lon="5.98173">
        <ele>1655</ele>
        <time>2021-12-29T13:13:59Z</time>
      </trkpt>
      <trkpt lat="44.69393" lon="5.98139">
        <ele>1653</ele>
        <time>2021-12-29T13:14:04Z</time>
      </trkpt>
      <trkpt lat="44.6943" lon="5.9807">
        <ele>1646</ele>
        <time>2021-12-29T13:14:15Z</time>
      </trkpt>
      <trkpt lat="44.6946" lon="5.98002">
        <ele>1643</ele>
        <time>2021-12-29T13:14:25Z</time>
      </trkpt>
      <trkpt lat="44.6949" lon="5.97964">
        <ele>1638</ele>
        <time>2021-12-29T13:14:32Z</time>
      </trkpt>
      <trkpt lat="44.69542" lon="5.97875">
        <ele>1628</ele>
        <time>2021-12-29T13:14:47Z</time>
      </trkpt>
      <trkpt lat="44.69555" lon="5.97843">
        <ele>1625</ele>
        <time>2021-12-29T13:14:51Z</time>
      </trkpt>
      <trkpt lat="44.69571" lon="5.97782">
        <ele>1623</ele>
        <time>2021-12-29T13:15:00Z</time>
      </trkpt>
      <trkpt lat="44.69595" lon="5.97712">
        <ele>1618</ele>
        <time>2021-12-29T13:15:09Z</time>
      </trkpt>
      <trkpt lat="44.69619" lon="5.97672">
        <ele>1613</ele>
        <time>2021-12-29T13:15:16Z</time>
      </trkpt>
      <trkpt lat="44.69648" lon="5.97599">
        <ele>1609</ele>
        <time>2021-12-29T13:15:27Z</time>
      </trkpt>
      <trkpt lat="44.69676" lon="5.97537">
        <ele>1605</ele>
        <time>2021-12-29T13:15:36Z</time>
      </trkpt>
      <trkpt lat="44.69681" lon="5.97516">
        <ele>1604</ele>
        <time>2021-12-29T13:15:39Z</time>
      </trkpt>
      <trkpt lat="44.69685" lon="5.97428">
        <ele>1600</ele>
        <time>2021-12-29T13:15:50Z</time>
      </trkpt>
      <trkpt lat="44.69682" lon="5.97367">
        <ele>1594</ele>
        <time>2021-12-29T13:15:58Z</time>
      </trkpt>
      <trkpt lat="44.69684" lon="5.97363">
        <ele>1593</ele>
        <time>2021-12-29T13:15:58Z</time>
      </trkpt>
      <trkpt lat="44.69687" lon="5.97361">
        <ele>1592</ele>
        <time>2021-12-29T13:15:59Z</time>
      </trkpt>
      <trkpt lat="44.6969" lon="5.97363">
        <ele>1592</ele>
        <time>2021-12-29T13:15:59Z</time>
      </trkpt>
      <trkpt lat="44.69697" lon="5.97371">
        <ele>1591</ele>
        <time>2021-12-29T13:16:01Z</time>
      </trkpt>
      <trkpt lat="44.69742" lon="5.97454">
        <ele>1590</ele>
        <time>2021-12-29T13:16:14Z</time>
      </trkpt>
      <trkpt lat="44.69746" lon="5.97455">
        <ele>1589</ele>
        <time>2021-12-29T13:16:15Z</time>
      </trkpt>
      <trkpt lat="44.69752" lon="5.97451">
        <ele>1588</ele>
        <time>2021-12-29T13:16:16Z</time>
      </trkpt>
      <trkpt lat="44.69754" lon="5.97437">
        <ele>1586</ele>
        <time>2021-12-29T13:16:18Z</time>
      </trkpt>
      <trkpt lat="44.69753" lon="5.97386">
        <ele>1582</ele>
        <time>2021-12-29T13:16:24Z</time>
      </trkpt>
      <trkpt lat="44.69757" lon="5.97284">
        <ele>1573</ele>
        <time>2021-12-29T13:16:37Z</time>
      </trkpt>
      <trkpt lat="44.69755" lon="5.97256">
        <ele>1572</ele>
        <time>2021-12-29T13:16:41Z</time>
      </trkpt>
      <trkpt lat="44.69747" lon="5.9723">
        <ele>1572</ele>
        <time>2021-12-29T13:16:45Z</time>
      </trkpt>
      <trkpt lat="44.69735" lon="5.97209">
        <ele>1574</ele>
        <time>2021-12-29T13:16:48Z</time>
      </trkpt>
      <trkpt lat="44.69725" lon="5.97197">
        <ele>1576</ele>
        <time>2021-12-29T13:16:50Z</time>
      </trkpt>
      <trkpt lat="44.6972" lon="5.97187">
        <ele>1577</ele>
        <time>2021-12-29T13:16:52Z</time>
      </trkpt>
      <trkpt lat="44.69715" lon="5.97166">
        <ele>1578</ele>
        <time>2021-12-29T13:16:55Z</time>
      </trkpt>
      <trkpt lat="44.69714" lon="5.97149">
        <ele>1576</ele>
        <time>2021-12-29T13:16:57Z</time>
      </trkpt>
      <trkpt lat="44.69715" lon="5.97087">
        <ele>1569</ele>
        <time>2021-12-29T13:17:05Z</time>
      </trkpt>
      <trkpt lat="44.6972" lon="5.97061">
        <ele>1565</ele>
        <time>2021-12-29T13:17:08Z</time>
      </trkpt>
      <trkpt lat="44.69725" lon="5.9704">
        <ele>1561</ele>
        <time>2021-12-29T13:17:11Z</time>
      </trkpt>
      <trkpt lat="44.69728" lon="5.97018">
        <ele>1558</ele>
        <time>2021-12-29T13:17:14Z</time>
      </trkpt>
      <trkpt lat="44.69726" lon="5.96993">
        <ele>1556</ele>
        <time>2021-12-29T13:17:17Z</time>
      </trkpt>
      <trkpt lat="44.69717" lon="5.96924">
        <ele>1551</ele>
        <time>2021-12-29T13:17:26Z</time>
      </trkpt>
      <trkpt lat="44.697" lon="5.9685">
        <ele>1549</ele>
        <time>2021-12-29T13:17:36Z</time>
      </trkpt>
      <trkpt lat="44.69695" lon="5.96817">
        <ele>1548</ele>
        <time>2021-12-29T13:17:40Z</time>
      </trkpt>
      <trkpt lat="44.6969" lon="5.96743">
        <ele>1542</ele>
        <time>2021-12-29T13:17:49Z</time>
      </trkpt>
      <trkpt lat="44.69689" lon="5.96694">
        <ele>1539</ele>
        <time>2021-12-29T13:17:55Z</time>
      </trkpt>
      <trkpt lat="44.6969" lon="5.96662">
        <ele>1537</ele>
        <time>2021-12-29T13:17:59Z</time>
      </trkpt>
      <trkpt lat="44.69705" lon="5.96463">
        <ele>1531</ele>
        <time>2021-12-29T13:18:25Z</time>
      </trkpt>
      <trkpt lat="44.69749" lon="5.95897">
        <ele>1509</ele>
        <time>2021-12-29T13:19:37Z</time>
      </trkpt>
      <trkpt lat="44.69759" lon="5.95746">
        <ele>1506</ele>
        <time>2021-12-29T13:19:56Z</time>
      </trkpt>
      <trkpt lat="44.69769" lon="5.95633">
        <ele>1508</ele>
        <time>2021-12-29T13:20:10Z</time>
      </trkpt>
      <trkpt lat="44.69779" lon="5.95479">
        <ele>1509</ele>
        <time>2021-12-29T13:20:30Z</time>
      </trkpt>
      <trkpt lat="44.69776" lon="5.95448">
        <ele>1509</ele>
        <time>2021-12-29T13:20:34Z</time>
      </trkpt>
      <trkpt lat="44.69771" lon="5.95433">
        <ele>1510</ele>
        <time>2021-12-29T13:20:36Z</time>
      </trkpt>
      <trkpt lat="44.69762" lon="5.95412">
        <ele>1511</ele>
        <time>2021-12-29T13:20:39Z</time>
      </trkpt>
      <trkpt lat="44.69749" lon="5.95393">
        <ele>1512</ele>
        <time>2021-12-29T13:20:42Z</time>
      </trkpt>
      <trkpt lat="44.69653" lon="5.95302">
        <ele>1513</ele>
        <time>2021-12-29T13:21:03Z</time>
      </trkpt>
      <trkpt lat="44.69629" lon="5.95274">
        <ele>1513</ele>
        <time>2021-12-29T13:21:09Z</time>
      </trkpt>
      <trkpt lat="44.69602" lon="5.95236">
        <ele>1514</ele>
        <time>2021-12-29T13:21:15Z</time>
      </trkpt>
      <trkpt lat="44.69584" lon="5.95221">
        <ele>1516</ele>
        <time>2021-12-29T13:21:19Z</time>
      </trkpt>
      <trkpt lat="44.69572" lon="5.95218">
        <ele>1516</ele>
        <time>2021-12-29T13:21:21Z</time>
      </trkpt>
      <trkpt lat="44.69494" lon="5.95224">
        <ele>1514</ele>
        <time>2021-12-29T13:21:35Z</time>
      </trkpt>
      <trkpt lat="44.69441" lon="5.95238">
        <ele>1509</ele>
        <time>2021-12-29T13:21:45Z</time>
      </trkpt>
      <trkpt lat="44.6943" lon="5.95239">
        <ele>1508</ele>
        <time>2021-12-29T13:21:47Z</time>
      </trkpt>
      <trkpt lat="44.69289" lon="5.95232">
        <ele>1495</ele>
        <time>2021-12-29T13:22:12Z</time>
      </trkpt>
      <trkpt lat="44.6926" lon="5.95233">
        <ele>1492</ele>
        <time>2021-12-29T13:22:17Z</time>
      </trkpt>
      <trkpt lat="44.69233" lon="5.95239">
        <ele>1489</ele>
        <time>2021-12-29T13:22:22Z</time>
      </trkpt>
      <trkpt lat="44.69224" lon="5.95244">
        <ele>1488</ele>
        <time>2021-12-29T13:22:24Z</time>
      </trkpt>
      <trkpt lat="44.69167" lon="5.95289">
        <ele>1486</ele>
        <time>2021-12-29T13:22:35Z</time>
      </trkpt>
      <trkpt lat="44.69144" lon="5.95305">
        <ele>1484</ele>
        <time>2021-12-29T13:22:40Z</time>
      </trkpt>
      <trkpt lat="44.69086" lon="5.95322">
        <ele>1477</ele>
        <time>2021-12-29T13:22:50Z</time>
      </trkpt>
      <trkpt lat="44.69073" lon="5.95327">
        <ele>1476</ele>
        <time>2021-12-29T13:22:53Z</time>
      </trkpt>
      <trkpt lat="44.69057" lon="5.95336">
        <ele>1474</ele>
        <time>2021-12-29T13:22:56Z</time>
      </trkpt>
      <trkpt lat="44.6899" lon="5.95395">
        <ele>1472</ele>
        <time>2021-12-29T13:23:10Z</time>
      </trkpt>
      <trkpt lat="44.68948" lon="5.95425">
        <ele>1468</ele>
        <time>2021-12-29T13:23:18Z</time>
      </trkpt>
      <trkpt lat="44.68895" lon="5.95468">
        <ele>1465</ele>
        <time>2021-12-29T13:23:29Z</time>
      </trkpt>
      <trkpt lat="44.68873" lon="5.95482">
        <ele>1464</ele>
        <time>2021-12-29T13:23:33Z</time>
      </trkpt>
      <trkpt lat="44.68862" lon="5.95487">
        <ele>1462</ele>
        <time>2021-12-29T13:23:35Z</time>
      </trkpt>
      <trkpt lat="44.68798" lon="5.95503">
        <ele>1454</ele>
        <time>2021-12-29T13:23:47Z</time>
      </trkpt>
      <trkpt lat="44.68777" lon="5.95511">
        <ele>1453</ele>
        <time>2021-12-29T13:23:51Z</time>
      </trkpt>
      <trkpt lat="44.68747" lon="5.95528">
        <ele>1451</ele>
        <time>2021-12-29T13:23:57Z</time>
      </trkpt>
      <trkpt lat="44.68708" lon="5.95536">
        <ele>1447</ele>
        <time>2021-12-29T13:24:04Z</time>
      </trkpt>
      <trkpt lat="44.6866" lon="5.95552">
        <ele>1443</ele>
        <time>2021-12-29T13:24:12Z</time>
      </trkpt>
      <trkpt lat="44.68538" lon="5.95596">
        <ele>1431</ele>
        <time>2021-12-29T13:24:35Z</time>
      </trkpt>
      <trkpt lat="44.68498" lon="5.95614">
        <ele>1429</ele>
        <time>2021-12-29T13:24:42Z</time>
      </trkpt>
      <trkpt lat="44.6849" lon="5.95616">
        <ele>1429</ele>
        <time>2021-12-29T13:24:44Z</time>
      </trkpt>
      <trkpt lat="44.68482" lon="5.95615">
        <ele>1429</ele>
        <time>2021-12-29T13:24:45Z</time>
      </trkpt>
      <trkpt lat="44.68474" lon="5.95609">
        <ele>1427</ele>
        <time>2021-12-29T13:24:47Z</time>
      </trkpt>
      <trkpt lat="44.68462" lon="5.95593">
        <ele>1422</ele>
        <time>2021-12-29T13:24:50Z</time>
      </trkpt>
      <trkpt lat="44.68446" lon="5.95578">
        <ele>1417</ele>
        <time>2021-12-29T13:24:53Z</time>
      </trkpt>
      <trkpt lat="44.68437" lon="5.95576">
        <ele>1416</ele>
        <time>2021-12-29T13:24:55Z</time>
      </trkpt>
      <trkpt lat="44.68425" lon="5.95577">
        <ele>1416</ele>
        <time>2021-12-29T13:24:57Z</time>
      </trkpt>
      <trkpt lat="44.68372" lon="5.95595">
        <ele>1410</ele>
        <time>2021-12-29T13:25:07Z</time>
      </trkpt>
      <trkpt lat="44.68352" lon="5.95609">
        <ele>1409</ele>
        <time>2021-12-29T13:25:11Z</time>
      </trkpt>
      <trkpt lat="44.68296" lon="5.95684">
        <ele>1416</ele>
        <time>2021-12-29T13:25:24Z</time>
      </trkpt>
      <trkpt lat="44.68287" lon="5.95693">
        <ele>1416</ele>
        <time>2021-12-29T13:25:26Z</time>
      </trkpt>
      <trkpt lat="44.68279" lon="5.95696">
        <ele>1415</ele>
        <time>2021-12-29T13:25:28Z</time>
      </trkpt>
      <trkpt lat="44.68269" lon="5.95695">
        <ele>1413</ele>
        <time>2021-12-29T13:25:30Z</time>
      </trkpt>
      <trkpt lat="44.68219" lon="5.95681">
        <ele>1403</ele>
        <time>2021-12-29T13:25:39Z</time>
      </trkpt>
      <trkpt lat="44.68206" lon="5.95682">
        <ele>1402</ele>
        <time>2021-12-29T13:25:41Z</time>
      </trkpt>
      <trkpt lat="44.68194" lon="5.95687">
        <ele>1402</ele>
        <time>2021-12-29T13:25:43Z</time>
      </trkpt>
      <trkpt lat="44.68149" lon="5.95702">
        <ele>1399</ele>
        <time>2021-12-29T13:25:51Z</time>
      </trkpt>
      <trkpt lat="44.68136" lon="5.95704">
        <ele>1398</ele>
        <time>2021-12-29T13:25:54Z</time>
      </trkpt>
      <trkpt lat="44.68131" lon="5.95703">
        <ele>1397</ele>
        <time>2021-12-29T13:25:55Z</time>
      </trkpt>
      <trkpt lat="44.68127" lon="5.95698">
        <ele>1396</ele>
        <time>2021-12-29T13:25:56Z</time>
      </trkpt>
      <trkpt lat="44.68124" lon="5.95685">
        <ele>1394</ele>
        <time>2021-12-29T13:25:57Z</time>
      </trkpt>
      <trkpt lat="44.68127" lon="5.95674">
        <ele>1392</ele>
        <time>2021-12-29T13:25:59Z</time>
      </trkpt>
      <trkpt lat="44.68134" lon="5.95668">
        <ele>1392</ele>
        <time>2021-12-29T13:26:00Z</time>
      </trkpt>
      <trkpt lat="44.68155" lon="5.95661">
        <ele>1393</ele>
        <time>2021-12-29T13:26:04Z</time>
      </trkpt>
      <trkpt lat="44.6817" lon="5.95652">
        <ele>1393</ele>
        <time>2021-12-29T13:26:07Z</time>
      </trkpt>
      <trkpt lat="44.68186" lon="5.95637">
        <ele>1392</ele>
        <time>2021-12-29T13:26:10Z</time>
      </trkpt>
      <trkpt lat="44.6822" lon="5.95599">
        <ele>1387</ele>
        <time>2021-12-29T13:26:18Z</time>
      </trkpt>
      <trkpt lat="44.6831" lon="5.95526">
        <ele>1384</ele>
        <time>2021-12-29T13:26:37Z</time>
      </trkpt>
      <trkpt lat="44.68317" lon="5.95518">
        <ele>1383</ele>
        <time>2021-12-29T13:26:38Z</time>
      </trkpt>
      <trkpt lat="44.6832" lon="5.95506">
        <ele>1381</ele>
        <time>2021-12-29T13:26:40Z</time>
      </trkpt>
      <trkpt lat="44.68317" lon="5.95498">
        <ele>1379</ele>
        <time>2021-12-29T13:26:41Z</time>
      </trkpt>
      <trkpt lat="44.68312" lon="5.95491">
        <ele>1378</ele>
        <time>2021-12-29T13:26:42Z</time>
      </trkpt>
      <trkpt lat="44.68305" lon="5.95488">
        <ele>1377</ele>
        <time>2021-12-29T13:26:44Z</time>
      </trkpt>
      <trkpt lat="44.68299" lon="5.9549">
        <ele>1377</ele>
        <time>2021-12-29T13:26:45Z</time>
      </trkpt>
      <trkpt lat="44.68228" lon="5.95543">
        <ele>1379</ele>
        <time>2021-12-29T13:26:59Z</time>
      </trkpt>
      <trkpt lat="44.68204" lon="5.95556">
        <ele>1379</ele>
        <time>2021-12-29T13:27:04Z</time>
      </trkpt>
      <trkpt lat="44.68193" lon="5.95558">
        <ele>1378</ele>
        <time>2021-12-29T13:27:06Z</time>
      </trkpt>
      <trkpt lat="44.68173" lon="5.95557">
        <ele>1376</ele>
        <time>2021-12-29T13:27:09Z</time>
      </trkpt>
      <trkpt lat="44.6816" lon="5.95559">
        <ele>1375</ele>
        <time>2021-12-29T13:27:11Z</time>
      </trkpt>
      <trkpt lat="44.68106" lon="5.95587">
        <ele>1376</ele>
        <time>2021-12-29T13:27:22Z</time>
      </trkpt>
      <trkpt lat="44.68084" lon="5.95594">
        <ele>1376</ele>
        <time>2021-12-29T13:27:26Z</time>
      </trkpt>
      <trkpt lat="44.68073" lon="5.95594">
        <ele>1375</ele>
        <time>2021-12-29T13:27:28Z</time>
      </trkpt>
      <trkpt lat="44.68034" lon="5.95583">
        <ele>1370</ele>
        <time>2021-12-29T13:27:35Z</time>
      </trkpt>
      <trkpt lat="44.68021" lon="5.95584">
        <ele>1370</ele>
        <time>2021-12-29T13:27:37Z</time>
      </trkpt>
      <trkpt lat="44.67972" lon="5.95601">
        <ele>1368</ele>
        <time>2021-12-29T13:27:46Z</time>
      </trkpt>
      <trkpt lat="44.67932" lon="5.95626">
        <ele>1368</ele>
        <time>2021-12-29T13:27:54Z</time>
      </trkpt>
      <trkpt lat="44.67926" lon="5.9563">
        <ele>1367</ele>
        <time>2021-12-29T13:27:55Z</time>
      </trkpt>
      <trkpt lat="44.67915" lon="5.95633">
        <ele>1367</ele>
        <time>2021-12-29T13:27:57Z</time>
      </trkpt>
      <trkpt lat="44.679" lon="5.95631">
        <ele>1366</ele>
        <time>2021-12-29T13:28:00Z</time>
      </trkpt>
      <trkpt lat="44.67769" lon="5.95594">
        <ele>1356</ele>
        <time>2021-12-29T13:28:23Z</time>
      </trkpt>
      <trkpt lat="44.67745" lon="5.95594">
        <ele>1354</ele>
        <time>2021-12-29T13:28:28Z</time>
      </trkpt>
      <trkpt lat="44.67688" lon="5.95606">
        <ele>1353</ele>
        <time>2021-12-29T13:28:38Z</time>
      </trkpt>
      <trkpt lat="44.67679" lon="5.95605">
        <ele>1352</ele>
        <time>2021-12-29T13:28:40Z</time>
      </trkpt>
      <trkpt lat="44.67664" lon="5.95596">
        <ele>1350</ele>
        <time>2021-12-29T13:28:42Z</time>
      </trkpt>
      <trkpt lat="44.67655" lon="5.95583">
        <ele>1349</ele>
        <time>2021-12-29T13:28:45Z</time>
      </trkpt>
      <trkpt lat="44.6755" lon="5.95433">
        <ele>1337</ele>
        <time>2021-12-29T13:29:11Z</time>
      </trkpt>
      <trkpt lat="44.67545" lon="5.95423">
        <ele>1336</ele>
        <time>2021-12-29T13:29:13Z</time>
      </trkpt>
      <trkpt lat="44.67544" lon="5.95415">
        <ele>1335</ele>
        <time>2021-12-29T13:29:14Z</time>
      </trkpt>
      <trkpt lat="44.67547" lon="5.954">
        <ele>1334</ele>
        <time>2021-12-29T13:29:16Z</time>
      </trkpt>
      <trkpt lat="44.67555" lon="5.95391">
        <ele>1333</ele>
        <time>2021-12-29T13:29:18Z</time>
      </trkpt>
      <trkpt lat="44.67561" lon="5.95386">
        <ele>1333</ele>
        <time>2021-12-29T13:29:19Z</time>
      </trkpt>
      <trkpt lat="44.67618" lon="5.9538">
        <ele>1330</ele>
        <time>2021-12-29T13:29:29Z</time>
      </trkpt>
      <trkpt lat="44.67632" lon="5.95376">
        <ele>1329</ele>
        <time>2021-12-29T13:29:32Z</time>
      </trkpt>
      <trkpt lat="44.67649" lon="5.95368">
        <ele>1328</ele>
        <time>2021-12-29T13:29:35Z</time>
      </trkpt>
      <trkpt lat="44.67676" lon="5.95349">
        <ele>1326</ele>
        <time>2021-12-29T13:29:40Z</time>
      </trkpt>
      <trkpt lat="44.67688" lon="5.95342">
        <ele>1326</ele>
        <time>2021-12-29T13:29:43Z</time>
      </trkpt>
      <trkpt lat="44.67699" lon="5.95333">
        <ele>1325</ele>
        <time>2021-12-29T13:29:45Z</time>
      </trkpt>
      <trkpt lat="44.67786" lon="5.95243">
        <ele>1318</ele>
        <time>2021-12-29T13:30:04Z</time>
      </trkpt>
      <trkpt lat="44.67818" lon="5.95204">
        <ele>1315</ele>
        <time>2021-12-29T13:30:12Z</time>
      </trkpt>
      <trkpt lat="44.67837" lon="5.95185">
        <ele>1313</ele>
        <time>2021-12-29T13:30:16Z</time>
      </trkpt>
      <trkpt lat="44.67895" lon="5.95151">
        <ele>1309</ele>
        <time>2021-12-29T13:30:27Z</time>
      </trkpt>
      <trkpt lat="44.67934" lon="5.9513">
        <ele>1308</ele>
        <time>2021-12-29T13:30:34Z</time>
      </trkpt>
      <trkpt lat="44.67947" lon="5.95118">
        <ele>1308</ele>
        <time>2021-12-29T13:30:37Z</time>
      </trkpt>
      <trkpt lat="44.67983" lon="5.95078">
        <ele>1305</ele>
        <time>2021-12-29T13:30:45Z</time>
      </trkpt>
      <trkpt lat="44.67998" lon="5.95063">
        <ele>1305</ele>
        <time>2021-12-29T13:30:49Z</time>
      </trkpt>
      <trkpt lat="44.68097" lon="5.95005">
        <ele>1298</ele>
        <time>2021-12-29T13:31:08Z</time>
      </trkpt>
      <trkpt lat="44.68112" lon="5.94996">
        <ele>1298</ele>
        <time>2021-12-29T13:31:11Z</time>
      </trkpt>
      <trkpt lat="44.68166" lon="5.94964">
        <ele>1297</ele>
        <time>2021-12-29T13:31:21Z</time>
      </trkpt>
      <trkpt lat="44.68219" lon="5.94946">
        <ele>1297</ele>
        <time>2021-12-29T13:31:31Z</time>
      </trkpt>
      <trkpt lat="44.68247" lon="5.94921">
        <ele>1293</ele>
        <time>2021-12-29T13:31:37Z</time>
      </trkpt>
      <trkpt lat="44.68283" lon="5.94901">
        <ele>1292</ele>
        <time>2021-12-29T13:31:43Z</time>
      </trkpt>
      <trkpt lat="44.68316" lon="5.94886">
        <ele>1291</ele>
        <time>2021-12-29T13:31:50Z</time>
      </trkpt>
      <trkpt lat="44.68345" lon="5.94875">
        <ele>1291</ele>
        <time>2021-12-29T13:31:55Z</time>
      </trkpt>
      <trkpt lat="44.68378" lon="5.94873">
        <ele>1292</ele>
        <time>2021-12-29T13:32:01Z</time>
      </trkpt>
      <trkpt lat="44.6849" lon="5.94816">
        <ele>1288</ele>
        <time>2021-12-29T13:32:22Z</time>
      </trkpt>
      <trkpt lat="44.68513" lon="5.94797">
        <ele>1287</ele>
        <time>2021-12-29T13:32:27Z</time>
      </trkpt>
      <trkpt lat="44.68685" lon="5.94642">
        <ele>1277</ele>
        <time>2021-12-29T13:33:03Z</time>
      </trkpt>
      <trkpt lat="44.68694" lon="5.94628">
        <ele>1276</ele>
        <time>2021-12-29T13:33:05Z</time>
      </trkpt>
      <trkpt lat="44.68699" lon="5.94613">
        <ele>1275</ele>
        <time>2021-12-29T13:33:08Z</time>
      </trkpt>
      <trkpt lat="44.68707" lon="5.94615">
        <ele>1275</ele>
        <time>2021-12-29T13:33:09Z</time>
      </trkpt>
      <trkpt lat="44.68712" lon="5.94613">
        <ele>1275</ele>
        <time>2021-12-29T13:33:10Z</time>
      </trkpt>
      <trkpt lat="44.68803" lon="5.94541">
        <ele>1273</ele>
        <time>2021-12-29T13:33:29Z</time>
      </trkpt>
      <trkpt lat="44.68822" lon="5.94529">
        <ele>1273</ele>
        <time>2021-12-29T13:33:32Z</time>
      </trkpt>
      <trkpt lat="44.68833" lon="5.94518">
        <ele>1273</ele>
        <time>2021-12-29T13:33:35Z</time>
      </trkpt>
      <trkpt lat="44.68851" lon="5.94492">
        <ele>1273</ele>
        <time>2021-12-29T13:33:39Z</time>
      </trkpt>
      <trkpt lat="44.68889" lon="5.94431">
        <ele>1272</ele>
        <time>2021-12-29T13:33:49Z</time>
      </trkpt>
      <trkpt lat="44.68905" lon="5.94408">
        <ele>1271</ele>
        <time>2021-12-29T13:33:54Z</time>
      </trkpt>
      <trkpt lat="44.68974" lon="5.94346">
        <ele>1271</ele>
        <time>2021-12-29T13:34:08Z</time>
      </trkpt>
      <trkpt lat="44.68985" lon="5.94338">
        <ele>1271</ele>
        <time>2021-12-29T13:34:10Z</time>
      </trkpt>
      <trkpt lat="44.69001" lon="5.9433">
        <ele>1271</ele>
        <time>2021-12-29T13:34:13Z</time>
      </trkpt>
      <trkpt lat="44.69162" lon="5.94197">
        <ele>1275</ele>
        <time>2021-12-29T13:34:47Z</time>
      </trkpt>
      <trkpt lat="44.69214" lon="5.9416">
        <ele>1276</ele>
        <time>2021-12-29T13:34:57Z</time>
      </trkpt>
      <trkpt lat="44.6927" lon="5.94129">
        <ele>1277</ele>
        <time>2021-12-29T13:35:08Z</time>
      </trkpt>
      <trkpt lat="44.69286" lon="5.94125">
        <ele>1278</ele>
        <time>2021-12-29T13:35:11Z</time>
      </trkpt>
      <trkpt lat="44.69313" lon="5.94126">
        <ele>1279</ele>
        <time>2021-12-29T13:35:15Z</time>
      </trkpt>
      <trkpt lat="44.69325" lon="5.94124">
        <ele>1280</ele>
        <time>2021-12-29T13:35:18Z</time>
      </trkpt>
      <trkpt lat="44.69362" lon="5.94107">
        <ele>1281</ele>
        <time>2021-12-29T13:35:24Z</time>
      </trkpt>
      <trkpt lat="44.69388" lon="5.9409">
        <ele>1281</ele>
        <time>2021-12-29T13:35:30Z</time>
      </trkpt>
      <trkpt lat="44.69395" lon="5.94084">
        <ele>1280</ele>
        <time>2021-12-29T13:35:31Z</time>
      </trkpt>
      <trkpt lat="44.69457" lon="5.93975">
        <ele>1279</ele>
        <time>2021-12-29T13:35:49Z</time>
      </trkpt>
      <trkpt lat="44.69467" lon="5.93949">
        <ele>1278</ele>
        <time>2021-12-29T13:35:52Z</time>
      </trkpt>
      <trkpt lat="44.69488" lon="5.9386">
        <ele>1277</ele>
        <time>2021-12-29T13:36:04Z</time>
      </trkpt>
      <trkpt lat="44.69508" lon="5.93759">
        <ele>1274</ele>
        <time>2021-12-29T13:36:18Z</time>
      </trkpt>
      <trkpt lat="44.69524" lon="5.93712">
        <ele>1272</ele>
        <time>2021-12-29T13:36:24Z</time>
      </trkpt>
      <trkpt lat="44.69585" lon="5.93614">
        <ele>1278</ele>
        <time>2021-12-29T13:36:41Z</time>
      </trkpt>
      <trkpt lat="44.69627" lon="5.93533">
        <ele>1278</ele>
        <time>2021-12-29T13:36:53Z</time>
      </trkpt>
      <trkpt lat="44.69629" lon="5.93522">
        <ele>1277</ele>
        <time>2021-12-29T13:36:55Z</time>
      </trkpt>
      <trkpt lat="44.69623" lon="5.93506">
        <ele>1273</ele>
        <time>2021-12-29T13:36:57Z</time>
      </trkpt>
      <trkpt lat="44.69622" lon="5.93498">
        <ele>1273</ele>
        <time>2021-12-29T13:36:58Z</time>
      </trkpt>
      <trkpt lat="44.69621" lon="5.93485">
        <ele>1276</ele>
        <time>2021-12-29T13:37:00Z</time>
      </trkpt>
      <trkpt lat="44.69624" lon="5.93466">
        <ele>1280</ele>
        <time>2021-12-29T13:37:02Z</time>
      </trkpt>
      <trkpt lat="44.69653" lon="5.9338">
        <ele>1290</ele>
        <time>2021-12-29T13:37:14Z</time>
      </trkpt>
      <trkpt lat="44.69674" lon="5.9334">
        <ele>1290</ele>
        <time>2021-12-29T13:37:20Z</time>
      </trkpt>
      <trkpt lat="44.69687" lon="5.93319">
        <ele>1294</ele>
        <time>2021-12-29T13:37:24Z</time>
      </trkpt>
      <trkpt lat="44.69695" lon="5.93311">
        <ele>1295</ele>
        <time>2021-12-29T13:37:26Z</time>
      </trkpt>
      <trkpt lat="44.69754" lon="5.9328">
        <ele>1286</ele>
        <time>2021-12-29T13:37:37Z</time>
      </trkpt>
      <trkpt lat="44.69774" lon="5.93272">
        <ele>1286</ele>
        <time>2021-12-29T13:37:41Z</time>
      </trkpt>
      <trkpt lat="44.69805" lon="5.93265">
        <ele>1288</ele>
        <time>2021-12-29T13:37:46Z</time>
      </trkpt>
      <trkpt lat="44.69824" lon="5.93257">
        <ele>1286</ele>
        <time>2021-12-29T13:37:50Z</time>
      </trkpt>
      <trkpt lat="44.6984" lon="5.93245">
        <ele>1284</ele>
        <time>2021-12-29T13:37:53Z</time>
      </trkpt>
      <trkpt lat="44.69891" lon="5.93149">
        <ele>1262</ele>
        <time>2021-12-29T13:38:08Z</time>
      </trkpt>
      <trkpt lat="44.69898" lon="5.93126">
        <ele>1259</ele>
        <time>2021-12-29T13:38:11Z</time>
      </trkpt>
      <trkpt lat="44.69899" lon="5.93105">
        <ele>1254</ele>
        <time>2021-12-29T13:38:14Z</time>
      </trkpt>
      <trkpt lat="44.69902" lon="5.93095">
        <ele>1251</ele>
        <time>2021-12-29T13:38:15Z</time>
      </trkpt>
      <trkpt lat="44.69908" lon="5.93084">
        <ele>1248</ele>
        <time>2021-12-29T13:38:17Z</time>
      </trkpt>
      <trkpt lat="44.69917" lon="5.93077">
        <ele>1246</ele>
        <time>2021-12-29T13:38:19Z</time>
      </trkpt>
      <trkpt lat="44.69928" lon="5.93073">
        <ele>1246</ele>
        <time>2021-12-29T13:38:21Z</time>
      </trkpt>
      <trkpt lat="44.69944" lon="5.93071">
        <ele>1246</ele>
        <time>2021-12-29T13:38:24Z</time>
      </trkpt>
      <trkpt lat="44.6996" lon="5.93073">
        <ele>1246</ele>
        <time>2021-12-29T13:38:27Z</time>
      </trkpt>
      <trkpt lat="44.70012" lon="5.93089">
        <ele>1251</ele>
        <time>2021-12-29T13:38:36Z</time>
      </trkpt>
      <trkpt lat="44.7002" lon="5.93089">
        <ele>1251</ele>
        <time>2021-12-29T13:38:38Z</time>
      </trkpt>
      <trkpt lat="44.7003" lon="5.93084">
        <ele>1248</ele>
        <time>2021-12-29T13:38:39Z</time>
      </trkpt>
      <trkpt lat="44.70038" lon="5.9307">
        <ele>1245</ele>
        <time>2021-12-29T13:38:42Z</time>
      </trkpt>
      <trkpt lat="44.70042" lon="5.9305">
        <ele>1241</ele>
        <time>2021-12-29T13:38:44Z</time>
      </trkpt>
      <trkpt lat="44.70043" lon="5.93038">
        <ele>1238</ele>
        <time>2021-12-29T13:38:46Z</time>
      </trkpt>
      <trkpt lat="44.70035" lon="5.92964">
        <ele>1238</ele>
        <time>2021-12-29T13:38:55Z</time>
      </trkpt>
      <trkpt lat="44.70035" lon="5.92943">
        <ele>1242</ele>
        <time>2021-12-29T13:38:58Z</time>
      </trkpt>
      <trkpt lat="44.70039" lon="5.92928">
        <ele>1244</ele>
        <time>2021-12-29T13:39:00Z</time>
      </trkpt>
      <trkpt lat="44.70044" lon="5.92921">
        <ele>1244</ele>
        <time>2021-12-29T13:39:01Z</time>
      </trkpt>
      <trkpt lat="44.70077" lon="5.92893">
        <ele>1242</ele>
        <time>2021-12-29T13:39:08Z</time>
      </trkpt>
      <trkpt lat="44.70083" lon="5.92885">
        <ele>1241</ele>
        <time>2021-12-29T13:39:10Z</time>
      </trkpt>
      <trkpt lat="44.70088" lon="5.92872">
        <ele>1242</ele>
        <time>2021-12-29T13:39:11Z</time>
      </trkpt>
      <trkpt lat="44.70091" lon="5.92854">
        <ele>1244</ele>
        <time>2021-12-29T13:39:14Z</time>
      </trkpt>
      <trkpt lat="44.70092" lon="5.92835">
        <ele>1246</ele>
        <time>2021-12-29T13:39:16Z</time>
      </trkpt>
      <trkpt lat="44.70091" lon="5.92817">
        <ele>1248</ele>
        <time>2021-12-29T13:39:18Z</time>
      </trkpt>
      <trkpt lat="44.70079" lon="5.92768">
        <ele>1255</ele>
        <time>2021-12-29T13:39:25Z</time>
      </trkpt>
      <trkpt lat="44.70076" lon="5.92753">
        <ele>1257</ele>
        <time>2021-12-29T13:39:27Z</time>
      </trkpt>
      <trkpt lat="44.70074" lon="5.92731">
        <ele>1260</ele>
        <time>2021-12-29T13:39:30Z</time>
      </trkpt>
      <trkpt lat="44.70078" lon="5.92656">
        <ele>1265</ele>
        <time>2021-12-29T13:39:39Z</time>
      </trkpt>
      <trkpt lat="44.70079" lon="5.92643">
        <ele>1266</ele>
        <time>2021-12-29T13:39:41Z</time>
      </trkpt>
      <trkpt lat="44.70085" lon="5.92626">
        <ele>1266</ele>
        <time>2021-12-29T13:39:43Z</time>
      </trkpt>
      <trkpt lat="44.70092" lon="5.92615">
        <ele>1266</ele>
        <time>2021-12-29T13:39:45Z</time>
      </trkpt>
      <trkpt lat="44.70101" lon="5.92608">
        <ele>1266</ele>
        <time>2021-12-29T13:39:47Z</time>
      </trkpt>
      <trkpt lat="44.70124" lon="5.92608">
        <ele>1262</ele>
        <time>2021-12-29T13:39:51Z</time>
      </trkpt>
      <trkpt lat="44.70135" lon="5.92605">
        <ele>1261</ele>
        <time>2021-12-29T13:39:53Z</time>
      </trkpt>
      <trkpt lat="44.70145" lon="5.92597">
        <ele>1261</ele>
        <time>2021-12-29T13:39:55Z</time>
      </trkpt>
      <trkpt lat="44.70153" lon="5.92585">
        <ele>1263</ele>
        <time>2021-12-29T13:39:57Z</time>
      </trkpt>
      <trkpt lat="44.70164" lon="5.92555">
        <ele>1267</ele>
        <time>2021-12-29T13:40:02Z</time>
      </trkpt>
      <trkpt lat="44.70168" lon="5.92538">
        <ele>1269</ele>
        <time>2021-12-29T13:40:04Z</time>
      </trkpt>
      <trkpt lat="44.70181" lon="5.92425">
        <ele>1275</ele>
        <time>2021-12-29T13:40:18Z</time>
      </trkpt>
      <trkpt lat="44.70184" lon="5.92404">
        <ele>1277</ele>
        <time>2021-12-29T13:40:21Z</time>
      </trkpt>
      <trkpt lat="44.70189" lon="5.92384">
        <ele>1279</ele>
        <time>2021-12-29T13:40:24Z</time>
      </trkpt>
      <trkpt lat="44.70197" lon="5.92368">
        <ele>1280</ele>
        <time>2021-12-29T13:40:26Z</time>
      </trkpt>
      <trkpt lat="44.70206" lon="5.92354">
        <ele>1281</ele>
        <time>2021-12-29T13:40:29Z</time>
      </trkpt>
      <trkpt lat="44.70239" lon="5.9232">
        <ele>1281</ele>
        <time>2021-12-29T13:40:36Z</time>
      </trkpt>
      <trkpt lat="44.70247" lon="5.92306">
        <ele>1281</ele>
        <time>2021-12-29T13:40:38Z</time>
      </trkpt>
      <trkpt lat="44.70252" lon="5.9229">
        <ele>1283</ele>
        <time>2021-12-29T13:40:40Z</time>
      </trkpt>
      <trkpt lat="44.70256" lon="5.92253">
        <ele>1287</ele>
        <time>2021-12-29T13:40:45Z</time>
      </trkpt>
      <trkpt lat="44.70256" lon="5.9223">
        <ele>1288</ele>
        <time>2021-12-29T13:40:48Z</time>
      </trkpt>
      <trkpt lat="44.70252" lon="5.92212">
        <ele>1290</ele>
        <time>2021-12-29T13:40:50Z</time>
      </trkpt>
      <trkpt lat="44.7024" lon="5.92181">
        <ele>1293</ele>
        <time>2021-12-29T13:40:55Z</time>
      </trkpt>
      <trkpt lat="44.70232" lon="5.92152">
        <ele>1296</ele>
        <time>2021-12-29T13:40:59Z</time>
      </trkpt>
      <trkpt lat="44.7023" lon="5.92129">
        <ele>1297</ele>
        <time>2021-12-29T13:41:02Z</time>
      </trkpt>
      <trkpt lat="44.70231" lon="5.92111">
        <ele>1298</ele>
        <time>2021-12-29T13:41:04Z</time>
      </trkpt>
      <trkpt lat="44.70234" lon="5.92093">
        <ele>1298</ele>
        <time>2021-12-29T13:41:06Z</time>
      </trkpt>
      <trkpt lat="44.70261" lon="5.92012">
        <ele>1302</ele>
        <time>2021-12-29T13:41:18Z</time>
      </trkpt>
      <trkpt lat="44.70285" lon="5.91971">
        <ele>1305</ele>
        <time>2021-12-29T13:41:24Z</time>
      </trkpt>
      <trkpt lat="44.70365" lon="5.91843">
        <ele>1312</ele>
        <time>2021-12-29T13:41:46Z</time>
      </trkpt>
      <trkpt lat="44.70372" lon="5.91826">
        <ele>1313</ele>
        <time>2021-12-29T13:41:48Z</time>
      </trkpt>
      <trkpt lat="44.70376" lon="5.91807">
        <ele>1314</ele>
        <time>2021-12-29T13:41:51Z</time>
      </trkpt>
      <trkpt lat="44.70379" lon="5.91788">
        <ele>1314</ele>
        <time>2021-12-29T13:41:53Z</time>
      </trkpt>
      <trkpt lat="44.7038" lon="5.91747">
        <ele>1316</ele>
        <time>2021-12-29T13:41:59Z</time>
      </trkpt>
      <trkpt lat="44.70378" lon="5.91726">
        <ele>1317</ele>
        <time>2021-12-29T13:42:01Z</time>
      </trkpt>
      <trkpt lat="44.70369" lon="5.91669">
        <ele>1322</ele>
        <time>2021-12-29T13:42:09Z</time>
      </trkpt>
      <trkpt lat="44.70367" lon="5.91648">
        <ele>1325</ele>
        <time>2021-12-29T13:42:11Z</time>
      </trkpt>
      <trkpt lat="44.70368" lon="5.91626">
        <ele>1328</ele>
        <time>2021-12-29T13:42:14Z</time>
      </trkpt>
      <trkpt lat="44.70375" lon="5.91593">
        <ele>1329</ele>
        <time>2021-12-29T13:42:18Z</time>
      </trkpt>
      <trkpt lat="44.70384" lon="5.91565">
        <ele>1331</ele>
        <time>2021-12-29T13:42:22Z</time>
      </trkpt>
      <trkpt lat="44.70421" lon="5.9149">
        <ele>1334</ele>
        <time>2021-12-29T13:42:34Z</time>
      </trkpt>
      <trkpt lat="44.70445" lon="5.91432">
        <ele>1337</ele>
        <time>2021-12-29T13:42:42Z</time>
      </trkpt>
      <trkpt lat="44.7046" lon="5.91388">
        <ele>1338</ele>
        <time>2021-12-29T13:42:48Z</time>
      </trkpt>
      <trkpt lat="44.7048" lon="5.91294">
        <ele>1344</ele>
        <time>2021-12-29T13:43:01Z</time>
      </trkpt>
      <trkpt lat="44.70494" lon="5.91249">
        <ele>1348</ele>
        <time>2021-12-29T13:43:07Z</time>
      </trkpt>
      <trkpt lat="44.70511" lon="5.91208">
        <ele>1350</ele>
        <time>2021-12-29T13:43:13Z</time>
      </trkpt>
      <trkpt lat="44.70565" lon="5.91105">
        <ele>1350</ele>
        <time>2021-12-29T13:43:29Z</time>
      </trkpt>
      <trkpt lat="44.70578" lon="5.9107">
        <ele>1352</ele>
        <time>2021-12-29T13:43:34Z</time>
      </trkpt>
      <trkpt lat="44.70581" lon="5.91051">
        <ele>1354</ele>
        <time>2021-12-29T13:43:37Z</time>
      </trkpt>
      <trkpt lat="44.70582" lon="5.91031">
        <ele>1356</ele>
        <time>2021-12-29T13:43:39Z</time>
      </trkpt>
      <trkpt lat="44.7058" lon="5.90888">
        <ele>1360</ele>
        <time>2021-12-29T13:43:57Z</time>
      </trkpt>
      <trkpt lat="44.70577" lon="5.9087">
        <ele>1358</ele>
        <time>2021-12-29T13:44:00Z</time>
      </trkpt>
      <trkpt lat="44.70572" lon="5.90853">
        <ele>1357</ele>
        <time>2021-12-29T13:44:02Z</time>
      </trkpt>
      <trkpt lat="44.70565" lon="5.90837">
        <ele>1356</ele>
        <time>2021-12-29T13:44:04Z</time>
      </trkpt>
      <trkpt lat="44.70556" lon="5.90823">
        <ele>1356</ele>
        <time>2021-12-29T13:44:07Z</time>
      </trkpt>
      <trkpt lat="44.70546" lon="5.90813">
        <ele>1356</ele>
        <time>2021-12-29T13:44:09Z</time>
      </trkpt>
      <trkpt lat="44.70535" lon="5.90806">
        <ele>1357</ele>
        <time>2021-12-29T13:44:11Z</time>
      </trkpt>
      <trkpt lat="44.70523" lon="5.90804">
        <ele>1358</ele>
        <time>2021-12-29T13:44:13Z</time>
      </trkpt>
      <trkpt lat="44.7051" lon="5.90806">
        <ele>1359</ele>
        <time>2021-12-29T13:44:16Z</time>
      </trkpt>
      <trkpt lat="44.7047" lon="5.90821">
        <ele>1360</ele>
        <time>2021-12-29T13:44:23Z</time>
      </trkpt>
      <trkpt lat="44.70455" lon="5.90822">
        <ele>1360</ele>
        <time>2021-12-29T13:44:26Z</time>
      </trkpt>
      <trkpt lat="44.70431" lon="5.9082">
        <ele>1359</ele>
        <time>2021-12-29T13:44:30Z</time>
      </trkpt>
      <trkpt lat="44.70408" lon="5.90815">
        <ele>1359</ele>
        <time>2021-12-29T13:44:34Z</time>
      </trkpt>
      <trkpt lat="44.70395" lon="5.90809">
        <ele>1359</ele>
        <time>2021-12-29T13:44:37Z</time>
      </trkpt>
      <trkpt lat="44.70379" lon="5.90798">
        <ele>1359</ele>
        <time>2021-12-29T13:44:40Z</time>
      </trkpt>
      <trkpt lat="44.70369" lon="5.90786">
        <ele>1359</ele>
        <time>2021-12-29T13:44:42Z</time>
      </trkpt>
      <trkpt lat="44.70364" lon="5.90772">
        <ele>1359</ele>
        <time>2021-12-29T13:44:44Z</time>
      </trkpt>
      <trkpt lat="44.70362" lon="5.90756">
        <ele>1358</ele>
        <time>2021-12-29T13:44:46Z</time>
      </trkpt>
      <trkpt lat="44.70363" lon="5.90741">
        <ele>1359</ele>
        <time>2021-12-29T13:44:48Z</time>
      </trkpt>
      <trkpt lat="44.70367" lon="5.90724">
        <ele>1361</ele>
        <time>2021-12-29T13:44:50Z</time>
      </trkpt>
      <trkpt lat="44.70375" lon="5.90711">
        <ele>1362</ele>
        <time>2021-12-29T13:44:52Z</time>
      </trkpt>
      <trkpt lat="44.70398" lon="5.90693">
        <ele>1364</ele>
        <time>2021-12-29T13:44:57Z</time>
      </trkpt>
      <trkpt lat="44.70435" lon="5.90675">
        <ele>1366</ele>
        <time>2021-12-29T13:45:04Z</time>
      </trkpt>
      <trkpt lat="44.70465" lon="5.90664">
        <ele>1367</ele>
        <time>2021-12-29T13:45:10Z</time>
      </trkpt>
      <trkpt lat="44.70495" lon="5.90657">
        <ele>1368</ele>
        <time>2021-12-29T13:45:15Z</time>
      </trkpt>
      <trkpt lat="44.7055" lon="5.90647">
        <ele>1370</ele>
        <time>2021-12-29T13:45:25Z</time>
      </trkpt>
      <trkpt lat="44.70554" lon="5.90644">
        <ele>1371</ele>
        <time>2021-12-29T13:45:26Z</time>
      </trkpt>
      <trkpt lat="44.70557" lon="5.90636">
        <ele>1373</ele>
        <time>2021-12-29T13:45:27Z</time>
      </trkpt>
      <trkpt lat="44.70557" lon="5.90631">
        <ele>1374</ele>
        <time>2021-12-29T13:45:27Z</time>
      </trkpt>
      <trkpt lat="44.70556" lon="5.90626">
        <ele>1374</ele>
        <time>2021-12-29T13:45:28Z</time>
      </trkpt>
      <trkpt lat="44.70547" lon="5.90619">
        <ele>1376</ele>
        <time>2021-12-29T13:45:30Z</time>
      </trkpt>
      <trkpt lat="44.70502" lon="5.90617">
        <ele>1377</ele>
        <time>2021-12-29T13:45:38Z</time>
      </trkpt>
      <trkpt lat="44.70454" lon="5.9061">
        <ele>1379</ele>
        <time>2021-12-29T13:45:47Z</time>
      </trkpt>
      <trkpt lat="44.70387" lon="5.9059">
        <ele>1383</ele>
        <time>2021-12-29T13:45:59Z</time>
      </trkpt>
      <trkpt lat="44.70368" lon="5.90587">
        <ele>1383</ele>
        <time>2021-12-29T13:46:02Z</time>
      </trkpt>
      <trkpt lat="44.70335" lon="5.90587">
        <ele>1382</ele>
        <time>2021-12-29T13:46:08Z</time>
      </trkpt>
      <trkpt lat="44.70299" lon="5.90579">
        <ele>1380</ele>
        <time>2021-12-29T13:46:14Z</time>
      </trkpt>
      <trkpt lat="44.70289" lon="5.90572">
        <ele>1380</ele>
        <time>2021-12-29T13:46:16Z</time>
      </trkpt>
      <trkpt lat="44.70282" lon="5.9056">
        <ele>1380</ele>
        <time>2021-12-29T13:46:18Z</time>
      </trkpt>
      <trkpt lat="44.70279" lon="5.90545">
        <ele>1382</ele>
        <time>2021-12-29T13:46:20Z</time>
      </trkpt>
      <trkpt lat="44.70278" lon="5.90528">
        <ele>1383</ele>
        <time>2021-12-29T13:46:23Z</time>
      </trkpt>
      <trkpt lat="44.70279" lon="5.90511">
        <ele>1385</ele>
        <time>2021-12-29T13:46:25Z</time>
      </trkpt>
      <trkpt lat="44.70294" lon="5.90437">
        <ele>1393</ele>
        <time>2021-12-29T13:46:34Z</time>
      </trkpt>
      <trkpt lat="44.703" lon="5.90398">
        <ele>1397</ele>
        <time>2021-12-29T13:46:39Z</time>
      </trkpt>
      <trkpt lat="44.70301" lon="5.90379">
        <ele>1398</ele>
        <time>2021-12-29T13:46:42Z</time>
      </trkpt>
      <trkpt lat="44.70299" lon="5.9036">
        <ele>1399</ele>
        <time>2021-12-29T13:46:44Z</time>
      </trkpt>
      <trkpt lat="44.70295" lon="5.90341">
        <ele>1400</ele>
        <time>2021-12-29T13:46:47Z</time>
      </trkpt>
      <trkpt lat="44.70284" lon="5.90305">
        <ele>1401</ele>
        <time>2021-12-29T13:46:52Z</time>
      </trkpt>
      <trkpt lat="44.70262" lon="5.90238">
        <ele>1404</ele>
        <time>2021-12-29T13:47:01Z</time>
      </trkpt>
      <trkpt lat="44.7021" lon="5.90099">
        <ele>1411</ele>
        <time>2021-12-29T13:47:21Z</time>
      </trkpt>
      <trkpt lat="44.70198" lon="5.90057">
        <ele>1413</ele>
        <time>2021-12-29T13:47:27Z</time>
      </trkpt>
      <trkpt lat="44.70192" lon="5.90013">
        <ele>1415</ele>
        <time>2021-12-29T13:47:32Z</time>
      </trkpt>
      <trkpt lat="44.70188" lon="5.89926">
        <ele>1420</ele>
        <time>2021-12-29T13:47:43Z</time>
      </trkpt>
      <trkpt lat="44.70184" lon="5.89882">
        <ele>1421</ele>
        <time>2021-12-29T13:47:49Z</time>
      </trkpt>
      <trkpt lat="44.7018" lon="5.8986">
        <ele>1421</ele>
        <time>2021-12-29T13:47:52Z</time>
      </trkpt>
      <trkpt lat="44.70175" lon="5.89839">
        <ele>1421</ele>
        <time>2021-12-29T13:47:55Z</time>
      </trkpt>
      <trkpt lat="44.70167" lon="5.89819">
        <ele>1420</ele>
        <time>2021-12-29T13:47:58Z</time>
      </trkpt>
      <trkpt lat="44.70103" lon="5.89702">
        <ele>1420</ele>
        <time>2021-12-29T13:48:16Z</time>
      </trkpt>
      <trkpt lat="44.70092" lon="5.89682">
        <ele>1420</ele>
        <time>2021-12-29T13:48:19Z</time>
      </trkpt>
      <trkpt lat="44.70068" lon="5.89648">
        <ele>1421</ele>
        <time>2021-12-29T13:48:25Z</time>
      </trkpt>
      <trkpt lat="44.70054" lon="5.89632">
        <ele>1421</ele>
        <time>2021-12-29T13:48:29Z</time>
      </trkpt>
      <trkpt lat="44.69983" lon="5.89565">
        <ele>1423</ele>
        <time>2021-12-29T13:48:44Z</time>
      </trkpt>
      <trkpt lat="44.69956" lon="5.89533">
        <ele>1425</ele>
        <time>2021-12-29T13:48:50Z</time>
      </trkpt>
      <trkpt lat="44.6994" lon="5.89507">
        <ele>1425</ele>
        <time>2021-12-29T13:48:55Z</time>
      </trkpt>
      <trkpt lat="44.69881" lon="5.8938">
        <ele>1429</ele>
        <time>2021-12-29T13:49:14Z</time>
      </trkpt>
      <trkpt lat="44.69874" lon="5.89359">
        <ele>1430</ele>
        <time>2021-12-29T13:49:17Z</time>
      </trkpt>
      <trkpt lat="44.69869" lon="5.89329">
        <ele>1430</ele>
        <time>2021-12-29T13:49:21Z</time>
      </trkpt>
      <trkpt lat="44.69864" lon="5.89284">
        <ele>1427</ele>
        <time>2021-12-29T13:49:26Z</time>
      </trkpt>
      <trkpt lat="44.69856" lon="5.89249">
        <ele>1426</ele>
        <time>2021-12-29T13:49:31Z</time>
      </trkpt>
      <trkpt lat="44.69848" lon="5.89224">
        <ele>1424</ele>
        <time>2021-12-29T13:49:34Z</time>
      </trkpt>
      <trkpt lat="44.69831" lon="5.89191">
        <ele>1422</ele>
        <time>2021-12-29T13:49:40Z</time>
      </trkpt>
      <trkpt lat="44.698" lon="5.89136">
        <ele>1419</ele>
        <time>2021-12-29T13:49:48Z</time>
      </trkpt>
      <trkpt lat="44.69766" lon="5.89086">
        <ele>1415</ele>
        <time>2021-12-29T13:49:57Z</time>
      </trkpt>
      <trkpt lat="44.6974" lon="5.8906">
        <ele>1413</ele>
        <time>2021-12-29T13:50:03Z</time>
      </trkpt>
      <trkpt lat="44.69722" lon="5.89045">
        <ele>1411</ele>
        <time>2021-12-29T13:50:07Z</time>
      </trkpt>
      <trkpt lat="44.69702" lon="5.89034">
        <ele>1410</ele>
        <time>2021-12-29T13:50:10Z</time>
      </trkpt>
      <trkpt lat="44.6967" lon="5.89024">
        <ele>1408</ele>
        <time>2021-12-29T13:50:16Z</time>
      </trkpt>
      <trkpt lat="44.69619" lon="5.89017">
        <ele>1406</ele>
        <time>2021-12-29T13:50:25Z</time>
      </trkpt>
      <trkpt lat="44.69556" lon="5.89016">
        <ele>1407</ele>
        <time>2021-12-29T13:50:37Z</time>
      </trkpt>
      <trkpt lat="44.69535" lon="5.89011">
        <ele>1407</ele>
        <time>2021-12-29T13:50:40Z</time>
      </trkpt>
      <trkpt lat="44.69519" lon="5.88998">
        <ele>1405</ele>
        <time>2021-12-29T13:50:44Z</time>
      </trkpt>
      <trkpt lat="44.69488" lon="5.88958">
        <ele>1398</ele>
        <time>2021-12-29T13:50:51Z</time>
      </trkpt>
      <trkpt lat="44.69477" lon="5.88947">
        <ele>1396</ele>
        <time>2021-12-29T13:50:54Z</time>
      </trkpt>
      <trkpt lat="44.69462" lon="5.88937">
        <ele>1394</ele>
        <time>2021-12-29T13:50:57Z</time>
      </trkpt>
      <trkpt lat="44.69404" lon="5.88911">
        <ele>1391</ele>
        <time>2021-12-29T13:51:07Z</time>
      </trkpt>
      <trkpt lat="44.6938" lon="5.88895">
        <ele>1391</ele>
        <time>2021-12-29T13:51:12Z</time>
      </trkpt>
      <trkpt lat="44.69367" lon="5.8888">
        <ele>1389</ele>
        <time>2021-12-29T13:51:15Z</time>
      </trkpt>
      <trkpt lat="44.69358" lon="5.88864">
        <ele>1388</ele>
        <time>2021-12-29T13:51:18Z</time>
      </trkpt>
      <trkpt lat="44.69338" lon="5.88814">
        <ele>1380</ele>
        <time>2021-12-29T13:51:25Z</time>
      </trkpt>
      <trkpt lat="44.6933" lon="5.88801">
        <ele>1378</ele>
        <time>2021-12-29T13:51:27Z</time>
      </trkpt>
      <trkpt lat="44.6932" lon="5.88794">
        <ele>1377</ele>
        <time>2021-12-29T13:51:29Z</time>
      </trkpt>
      <trkpt lat="44.6931" lon="5.88791">
        <ele>1376</ele>
        <time>2021-12-29T13:51:31Z</time>
      </trkpt>
      <trkpt lat="44.69297" lon="5.88792">
        <ele>1377</ele>
        <time>2021-12-29T13:51:33Z</time>
      </trkpt>
      <trkpt lat="44.69264" lon="5.88807">
        <ele>1382</ele>
        <time>2021-12-29T13:51:39Z</time>
      </trkpt>
      <trkpt lat="44.69249" lon="5.88808">
        <ele>1384</ele>
        <time>2021-12-29T13:51:42Z</time>
      </trkpt>
      <trkpt lat="44.69238" lon="5.88803">
        <ele>1386</ele>
        <time>2021-12-29T13:51:44Z</time>
      </trkpt>
      <trkpt lat="44.69226" lon="5.88786">
        <ele>1387</ele>
        <time>2021-12-29T13:51:47Z</time>
      </trkpt>
      <trkpt lat="44.69222" lon="5.88776">
        <ele>1386</ele>
        <time>2021-12-29T13:51:49Z</time>
      </trkpt>
      <trkpt lat="44.69218" lon="5.88749">
        <ele>1383</ele>
        <time>2021-12-29T13:51:52Z</time>
      </trkpt>
      <trkpt lat="44.69216" lon="5.88695">
        <ele>1376</ele>
        <time>2021-12-29T13:51:59Z</time>
      </trkpt>
      <trkpt lat="44.6921" lon="5.88676">
        <ele>1375</ele>
        <time>2021-12-29T13:52:02Z</time>
      </trkpt>
      <trkpt lat="44.69201" lon="5.8866">
        <ele>1375</ele>
        <time>2021-12-29T13:52:04Z</time>
      </trkpt>
      <trkpt lat="44.69188" lon="5.88646">
        <ele>1374</ele>
        <time>2021-12-29T13:52:07Z</time>
      </trkpt>
      <trkpt lat="44.69173" lon="5.88634">
        <ele>1374</ele>
        <time>2021-12-29T13:52:10Z</time>
      </trkpt>
      <trkpt lat="44.69067" lon="5.88571">
        <ele>1371</ele>
        <time>2021-12-29T13:52:31Z</time>
      </trkpt>
      <trkpt lat="44.69045" lon="5.88555">
        <ele>1369</ele>
        <time>2021-12-29T13:52:35Z</time>
      </trkpt>
      <trkpt lat="44.6903" lon="5.88542">
        <ele>1367</ele>
        <time>2021-12-29T13:52:38Z</time>
      </trkpt>
      <trkpt lat="44.69019" lon="5.88527">
        <ele>1364</ele>
        <time>2021-12-29T13:52:41Z</time>
      </trkpt>
      <trkpt lat="44.69008" lon="5.88509">
        <ele>1361</ele>
        <time>2021-12-29T13:52:44Z</time>
      </trkpt>
      <trkpt lat="44.68999" lon="5.88485">
        <ele>1358</ele>
        <time>2021-12-29T13:52:47Z</time>
      </trkpt>
      <trkpt lat="44.68979" lon="5.88402">
        <ele>1352</ele>
        <time>2021-12-29T13:52:58Z</time>
      </trkpt>
      <trkpt lat="44.6897" lon="5.88375">
        <ele>1351</ele>
        <time>2021-12-29T13:53:02Z</time>
      </trkpt>
      <trkpt lat="44.68929" lon="5.88288">
        <ele>1347</ele>
        <time>2021-12-29T13:53:15Z</time>
      </trkpt>
      <trkpt lat="44.68909" lon="5.88254">
        <ele>1346</ele>
        <time>2021-12-29T13:53:21Z</time>
      </trkpt>
      <trkpt lat="44.6884" lon="5.88148">
        <ele>1343</ele>
        <time>2021-12-29T13:53:39Z</time>
      </trkpt>
      <trkpt lat="44.68823" lon="5.88126">
        <ele>1341</ele>
        <time>2021-12-29T13:53:43Z</time>
      </trkpt>
      <trkpt lat="44.6881" lon="5.88113">
        <ele>1340</ele>
        <time>2021-12-29T13:53:46Z</time>
      </trkpt>
      <trkpt lat="44.68794" lon="5.88102">
        <ele>1339</ele>
        <time>2021-12-29T13:53:49Z</time>
      </trkpt>
      <trkpt lat="44.68774" lon="5.88095">
        <ele>1339</ele>
        <time>2021-12-29T13:53:53Z</time>
      </trkpt>
      <trkpt lat="44.68697" lon="5.88077">
        <ele>1340</ele>
        <time>2021-12-29T13:54:07Z</time>
      </trkpt>
      <trkpt lat="44.6868" lon="5.8807">
        <ele>1340</ele>
        <time>2021-12-29T13:54:10Z</time>
      </trkpt>
      <trkpt lat="44.6866" lon="5.88057">
        <ele>1340</ele>
        <time>2021-12-29T13:54:14Z</time>
      </trkpt>
      <trkpt lat="44.68623" lon="5.88019">
        <ele>1338</ele>
        <time>2021-12-29T13:54:22Z</time>
      </trkpt>
      <trkpt lat="44.68553" lon="5.87936">
        <ele>1334</ele>
        <time>2021-12-29T13:54:38Z</time>
      </trkpt>
      <trkpt lat="44.68524" lon="5.87895">
        <ele>1332</ele>
        <time>2021-12-29T13:54:46Z</time>
      </trkpt>
      <trkpt lat="44.68518" lon="5.87882">
        <ele>1331</ele>
        <time>2021-12-29T13:54:48Z</time>
      </trkpt>
      <trkpt lat="44.68509" lon="5.87857">
        <ele>1329</ele>
        <time>2021-12-29T13:54:51Z</time>
      </trkpt>
      <trkpt lat="44.68498" lon="5.87804">
        <ele>1324</ele>
        <time>2021-12-29T13:54:58Z</time>
      </trkpt>
      <trkpt lat="44.6849" lon="5.87781">
        <ele>1323</ele>
        <time>2021-12-29T13:55:01Z</time>
      </trkpt>
      <trkpt lat="44.68478" lon="5.87755">
        <ele>1322</ele>
        <time>2021-12-29T13:55:05Z</time>
      </trkpt>
      <trkpt lat="44.68463" lon="5.87731">
        <ele>1321</ele>
        <time>2021-12-29T13:55:09Z</time>
      </trkpt>
      <trkpt lat="44.68423" lon="5.87668">
        <ele>1318</ele>
        <time>2021-12-29T13:55:20Z</time>
      </trkpt>
      <trkpt lat="44.684" lon="5.87642">
        <ele>1317</ele>
        <time>2021-12-29T13:55:25Z</time>
      </trkpt>
      <trkpt lat="44.68381" lon="5.87627">
        <ele>1316</ele>
        <time>2021-12-29T13:55:29Z</time>
      </trkpt>
      <trkpt lat="44.68281" lon="5.87564">
        <ele>1318</ele>
        <time>2021-12-29T13:55:49Z</time>
      </trkpt>
      <trkpt lat="44.68224" lon="5.87521">
        <ele>1319</ele>
        <time>2021-12-29T13:56:00Z</time>
      </trkpt>
      <trkpt lat="44.68199" lon="5.87495">
        <ele>1318</ele>
        <time>2021-12-29T13:56:06Z</time>
      </trkpt>
      <trkpt lat="44.67989" lon="5.8725">
        <ele>1325</ele>
        <time>2021-12-29T13:56:54Z</time>
      </trkpt>
      <trkpt lat="44.67963" lon="5.87215">
        <ele>1327</ele>
        <time>2021-12-29T13:57:01Z</time>
      </trkpt>
      <trkpt lat="44.6794" lon="5.87179">
        <ele>1328</ele>
        <time>2021-12-29T13:57:07Z</time>
      </trkpt>
      <trkpt lat="44.67919" lon="5.87141">
        <ele>1329</ele>
        <time>2021-12-29T13:57:13Z</time>
      </trkpt>
      <trkpt lat="44.67912" lon="5.87122">
        <ele>1328</ele>
        <time>2021-12-29T13:57:16Z</time>
      </trkpt>
      <trkpt lat="44.67897" lon="5.87092">
        <ele>1327</ele>
        <time>2021-12-29T13:57:20Z</time>
      </trkpt>
      <trkpt lat="44.67882" lon="5.87071">
        <ele>1327</ele>
        <time>2021-12-29T13:57:24Z</time>
      </trkpt>
      <trkpt lat="44.67839" lon="5.87024">
        <ele>1329</ele>
        <time>2021-12-29T13:57:34Z</time>
      </trkpt>
      <trkpt lat="44.67816" lon="5.8701">
        <ele>1331</ele>
        <time>2021-12-29T13:57:38Z</time>
      </trkpt>
      <trkpt lat="44.67753" lon="5.86948">
        <ele>1335</ele>
        <time>2021-12-29T13:57:52Z</time>
      </trkpt>
      <trkpt lat="44.67736" lon="5.86926">
        <ele>1336</ele>
        <time>2021-12-29T13:57:56Z</time>
      </trkpt>
      <trkpt lat="44.6772" lon="5.86899">
        <ele>1337</ele>
        <time>2021-12-29T13:58:00Z</time>
      </trkpt>
      <trkpt lat="44.67665" lon="5.86777">
        <ele>1343</ele>
        <time>2021-12-29T13:58:19Z</time>
      </trkpt>
      <trkpt lat="44.6765" lon="5.86746">
        <ele>1343</ele>
        <time>2021-12-29T13:58:23Z</time>
      </trkpt>
      <trkpt lat="44.67636" lon="5.86727">
        <ele>1344</ele>
        <time>2021-12-29T13:58:27Z</time>
      </trkpt>
      <trkpt lat="44.67624" lon="5.8672">
        <ele>1346</ele>
        <time>2021-12-29T13:58:29Z</time>
      </trkpt>
      <trkpt lat="44.67614" lon="5.86719">
        <ele>1347</ele>
        <time>2021-12-29T13:58:31Z</time>
      </trkpt>
      <trkpt lat="44.6759" lon="5.86728">
        <ele>1350</ele>
        <time>2021-12-29T13:58:35Z</time>
      </trkpt>
      <trkpt lat="44.67553" lon="5.86745">
        <ele>1353</ele>
        <time>2021-12-29T13:58:42Z</time>
      </trkpt>
      <trkpt lat="44.67528" lon="5.86753">
        <ele>1354</ele>
        <time>2021-12-29T13:58:47Z</time>
      </trkpt>
      <trkpt lat="44.67509" lon="5.86757">
        <ele>1355</ele>
        <time>2021-12-29T13:58:50Z</time>
      </trkpt>
      <trkpt lat="44.67456" lon="5.86759">
        <ele>1359</ele>
        <time>2021-12-29T13:59:00Z</time>
      </trkpt>
      <trkpt lat="44.67434" lon="5.86756">
        <ele>1360</ele>
        <time>2021-12-29T13:59:04Z</time>
      </trkpt>
      <trkpt lat="44.67396" lon="5.86744">
        <ele>1363</ele>
        <time>2021-12-29T13:59:11Z</time>
      </trkpt>
      <trkpt lat="44.6735" lon="5.86721">
        <ele>1369</ele>
        <time>2021-12-29T13:59:19Z</time>
      </trkpt>
      <trkpt lat="44.67331" lon="5.86713">
        <ele>1371</ele>
        <time>2021-12-29T13:59:23Z</time>
      </trkpt>
      <trkpt lat="44.67314" lon="5.86708">
        <ele>1373</ele>
        <time>2021-12-29T13:59:26Z</time>
      </trkpt>
      <trkpt lat="44.6726" lon="5.86699">
        <ele>1378</ele>
        <time>2021-12-29T13:59:36Z</time>
      </trkpt>
      <trkpt lat="44.67236" lon="5.86692">
        <ele>1380</ele>
        <time>2021-12-29T13:59:40Z</time>
      </trkpt>
      <trkpt lat="44.67199" lon="5.86673">
        <ele>1383</ele>
        <time>2021-12-29T13:59:47Z</time>
      </trkpt>
      <trkpt lat="44.67159" lon="5.86649">
        <ele>1389</ele>
        <time>2021-12-29T13:59:55Z</time>
      </trkpt>
      <trkpt lat="44.67143" lon="5.86632">
        <ele>1390</ele>
        <time>2021-12-29T13:59:58Z</time>
      </trkpt>
      <trkpt lat="44.67132" lon="5.86611">
        <ele>1390</ele>
        <time>2021-12-29T14:00:01Z</time>
      </trkpt>
      <trkpt lat="44.67117" lon="5.86571">
        <ele>1390</ele>
        <time>2021-12-29T14:00:07Z</time>
      </trkpt>
      <trkpt lat="44.67103" lon="5.86551">
        <ele>1392</ele>
        <time>2021-12-29T14:00:11Z</time>
      </trkpt>
      <trkpt lat="44.67087" lon="5.86537">
        <ele>1394</ele>
        <time>2021-12-29T14:00:14Z</time>
      </trkpt>
      <trkpt lat="44.67058" lon="5.86525">
        <ele>1397</ele>
        <time>2021-12-29T14:00:19Z</time>
      </trkpt>
      <trkpt lat="44.6704" lon="5.86513">
        <ele>1399</ele>
        <time>2021-12-29T14:00:23Z</time>
      </trkpt>
      <trkpt lat="44.67025" lon="5.86497">
        <ele>1400</ele>
        <time>2021-12-29T14:00:26Z</time>
      </trkpt>
      <trkpt lat="44.67012" lon="5.86475">
        <ele>1401</ele>
        <time>2021-12-29T14:00:30Z</time>
      </trkpt>
      <trkpt lat="44.66993" lon="5.8645">
        <ele>1401</ele>
        <time>2021-12-29T14:00:35Z</time>
      </trkpt>
      <trkpt lat="44.66978" lon="5.86435">
        <ele>1402</ele>
        <time>2021-12-29T14:00:38Z</time>
      </trkpt>
      <trkpt lat="44.66959" lon="5.86425">
        <ele>1403</ele>
        <time>2021-12-29T14:00:42Z</time>
      </trkpt>
      <trkpt lat="44.66941" lon="5.8642">
        <ele>1404</ele>
        <time>2021-12-29T14:00:45Z</time>
      </trkpt>
      <trkpt lat="44.66911" lon="5.86417">
        <ele>1407</ele>
        <time>2021-12-29T14:00:50Z</time>
      </trkpt>
      <trkpt lat="44.66892" lon="5.86412">
        <ele>1410</ele>
        <time>2021-12-29T14:00:54Z</time>
      </trkpt>
      <trkpt lat="44.66875" lon="5.86404">
        <ele>1413</ele>
        <time>2021-12-29T14:00:57Z</time>
      </trkpt>
      <trkpt lat="44.66858" lon="5.86392">
        <ele>1416</ele>
        <time>2021-12-29T14:01:00Z</time>
      </trkpt>
      <trkpt lat="44.66842" lon="5.86374">
        <ele>1418</ele>
        <time>2021-12-29T14:01:04Z</time>
      </trkpt>
      <trkpt lat="44.66828" lon="5.86353">
        <ele>1419</ele>
        <time>2021-12-29T14:01:07Z</time>
      </trkpt>
      <trkpt lat="44.66786" lon="5.86249">
        <ele>1428</ele>
        <time>2021-12-29T14:01:23Z</time>
      </trkpt>
      <trkpt lat="44.66778" lon="5.86224">
        <ele>1429</ele>
        <time>2021-12-29T14:01:26Z</time>
      </trkpt>
      <trkpt lat="44.66777" lon="5.86206">
        <ele>1428</ele>
        <time>2021-12-29T14:01:28Z</time>
      </trkpt>
      <trkpt lat="44.66781" lon="5.86187">
        <ele>1427</ele>
        <time>2021-12-29T14:01:31Z</time>
      </trkpt>
      <trkpt lat="44.66789" lon="5.86171">
        <ele>1426</ele>
        <time>2021-12-29T14:01:33Z</time>
      </trkpt>
      <trkpt lat="44.66814" lon="5.86143">
        <ele>1425</ele>
        <time>2021-12-29T14:01:39Z</time>
      </trkpt>
      <trkpt lat="44.66818" lon="5.86132">
        <ele>1425</ele>
        <time>2021-12-29T14:01:41Z</time>
      </trkpt>
      <trkpt lat="44.6682" lon="5.86119">
        <ele>1426</ele>
        <time>2021-12-29T14:01:42Z</time>
      </trkpt>
      <trkpt lat="44.66819" lon="5.86085">
        <ele>1428</ele>
        <time>2021-12-29T14:01:47Z</time>
      </trkpt>
      <trkpt lat="44.66822" lon="5.86071">
        <ele>1428</ele>
        <time>2021-12-29T14:01:48Z</time>
      </trkpt>
      <trkpt lat="44.66835" lon="5.86047">
        <ele>1426</ele>
        <time>2021-12-29T14:01:52Z</time>
      </trkpt>
      <trkpt lat="44.66843" lon="5.86029">
        <ele>1426</ele>
        <time>2021-12-29T14:01:55Z</time>
      </trkpt>
      <trkpt lat="44.66845" lon="5.8601">
        <ele>1426</ele>
        <time>2021-12-29T14:01:57Z</time>
      </trkpt>
      <trkpt lat="44.66843" lon="5.86">
        <ele>1426</ele>
        <time>2021-12-29T14:01:59Z</time>
      </trkpt>
      <trkpt lat="44.66818" lon="5.85947">
        <ele>1427</ele>
        <time>2021-12-29T14:02:07Z</time>
      </trkpt>
      <trkpt lat="44.66753" lon="5.85819">
        <ele>1438</ele>
        <time>2021-12-29T14:02:27Z</time>
      </trkpt>
      <trkpt lat="44.66745" lon="5.85808">
        <ele>1439</ele>
        <time>2021-12-29T14:02:29Z</time>
      </trkpt>
      <trkpt lat="44.66736" lon="5.85802">
        <ele>1440</ele>
        <time>2021-12-29T14:02:30Z</time>
      </trkpt>
      <trkpt lat="44.66722" lon="5.85796">
        <ele>1440</ele>
        <time>2021-12-29T14:02:33Z</time>
      </trkpt>
      <trkpt lat="44.66666" lon="5.85779">
        <ele>1441</ele>
        <time>2021-12-29T14:02:43Z</time>
      </trkpt>
      <trkpt lat="44.66648" lon="5.85768">
        <ele>1441</ele>
        <time>2021-12-29T14:02:47Z</time>
      </trkpt>
      <trkpt lat="44.66638" lon="5.85759">
        <ele>1441</ele>
        <time>2021-12-29T14:02:49Z</time>
      </trkpt>
      <trkpt lat="44.66625" lon="5.85738">
        <ele>1441</ele>
        <time>2021-12-29T14:02:52Z</time>
      </trkpt>
      <trkpt lat="44.66616" lon="5.85709">
        <ele>1441</ele>
        <time>2021-12-29T14:02:56Z</time>
      </trkpt>
      <trkpt lat="44.66612" lon="5.85687">
        <ele>1442</ele>
        <time>2021-12-29T14:02:59Z</time>
      </trkpt>
      <trkpt lat="44.66605" lon="5.85612">
        <ele>1443</ele>
        <time>2021-12-29T14:03:09Z</time>
      </trkpt>
      <trkpt lat="44.66599" lon="5.8559">
        <ele>1443</ele>
        <time>2021-12-29T14:03:12Z</time>
      </trkpt>
      <trkpt lat="44.66594" lon="5.85583">
        <ele>1443</ele>
        <time>2021-12-29T14:03:13Z</time>
      </trkpt>
      <trkpt lat="44.66581" lon="5.8557">
        <ele>1442</ele>
        <time>2021-12-29T14:03:16Z</time>
      </trkpt>
      <trkpt lat="44.66392" lon="5.85443">
        <ele>1436</ele>
        <time>2021-12-29T14:03:53Z</time>
      </trkpt>
      <trkpt lat="44.66367" lon="5.85434">
        <ele>1435</ele>
        <time>2021-12-29T14:03:58Z</time>
      </trkpt>
      <trkpt lat="44.66351" lon="5.85434">
        <ele>1434</ele>
        <time>2021-12-29T14:04:01Z</time>
      </trkpt>
      <trkpt lat="44.66221" lon="5.85443">
        <ele>1428</ele>
        <time>2021-12-29T14:04:24Z</time>
      </trkpt>
      <trkpt lat="44.6608" lon="5.85442">
        <ele>1423</ele>
        <time>2021-12-29T14:04:49Z</time>
      </trkpt>
      <trkpt lat="44.66043" lon="5.85447">
        <ele>1422</ele>
        <time>2021-12-29T14:04:55Z</time>
      </trkpt>
      <trkpt lat="44.66031" lon="5.85451">
        <ele>1421</ele>
        <time>2021-12-29T14:04:58Z</time>
      </trkpt>
      <trkpt lat="44.6595" lon="5.85497">
        <ele>1413</ele>
        <time>2021-12-29T14:05:13Z</time>
      </trkpt>
      <trkpt lat="44.65936" lon="5.85501">
        <ele>1411</ele>
        <time>2021-12-29T14:05:16Z</time>
      </trkpt>
      <trkpt lat="44.65906" lon="5.85504">
        <ele>1408</ele>
        <time>2021-12-29T14:05:21Z</time>
      </trkpt>
      <trkpt lat="44.65876" lon="5.85501">
        <ele>1406</ele>
        <time>2021-12-29T14:05:26Z</time>
      </trkpt>
      <trkpt lat="44.65818" lon="5.85485">
        <ele>1402</ele>
        <time>2021-12-29T14:05:37Z</time>
      </trkpt>
      <trkpt lat="44.65768" lon="5.85474">
        <ele>1398</ele>
        <time>2021-12-29T14:05:46Z</time>
      </trkpt>
      <trkpt lat="44.65722" lon="5.85471">
        <ele>1395</ele>
        <time>2021-12-29T14:05:54Z</time>
      </trkpt>
      <trkpt lat="44.65684" lon="5.85474">
        <ele>1393</ele>
        <time>2021-12-29T14:06:01Z</time>
      </trkpt>
      <trkpt lat="44.6566" lon="5.85481">
        <ele>1390</ele>
        <time>2021-12-29T14:06:05Z</time>
      </trkpt>
      <trkpt lat="44.65647" lon="5.8549">
        <ele>1388</ele>
        <time>2021-12-29T14:06:08Z</time>
      </trkpt>
      <trkpt lat="44.6562" lon="5.85517">
        <ele>1382</ele>
        <time>2021-12-29T14:06:14Z</time>
      </trkpt>
      <trkpt lat="44.65578" lon="5.85574">
        <ele>1375</ele>
        <time>2021-12-29T14:06:24Z</time>
      </trkpt>
      <trkpt lat="44.65564" lon="5.85589">
        <ele>1375</ele>
        <time>2021-12-29T14:06:27Z</time>
      </trkpt>
      <trkpt lat="44.6555" lon="5.85601">
        <ele>1375</ele>
        <time>2021-12-29T14:06:30Z</time>
      </trkpt>
      <trkpt lat="44.65533" lon="5.85609">
        <ele>1375</ele>
        <time>2021-12-29T14:06:33Z</time>
      </trkpt>
      <trkpt lat="44.65488" lon="5.85617">
        <ele>1374</ele>
        <time>2021-12-29T14:06:41Z</time>
      </trkpt>
      <trkpt lat="44.65443" lon="5.8562">
        <ele>1371</ele>
        <time>2021-12-29T14:06:49Z</time>
      </trkpt>
      <trkpt lat="44.65345" lon="5.85643">
        <ele>1364</ele>
        <time>2021-12-29T14:07:07Z</time>
      </trkpt>
      <trkpt lat="44.65323" lon="5.85644">
        <ele>1364</ele>
        <time>2021-12-29T14:07:11Z</time>
      </trkpt>
      <trkpt lat="44.65298" lon="5.8564">
        <ele>1365</ele>
        <time>2021-12-29T14:07:15Z</time>
      </trkpt>
      <trkpt lat="44.65275" lon="5.85634">
        <ele>1366</ele>
        <time>2021-12-29T14:07:20Z</time>
      </trkpt>
      <trkpt lat="44.65249" lon="5.85623">
        <ele>1365</ele>
        <time>2021-12-29T14:07:24Z</time>
      </trkpt>
      <trkpt lat="44.65226" lon="5.85609">
        <ele>1365</ele>
        <time>2021-12-29T14:07:29Z</time>
      </trkpt>
      <trkpt lat="44.64967" lon="5.85406">
        <ele>1344</ele>
        <time>2021-12-29T14:08:22Z</time>
      </trkpt>
      <trkpt lat="44.64946" lon="5.85391">
        <ele>1344</ele>
        <time>2021-12-29T14:08:26Z</time>
      </trkpt>
      <trkpt lat="44.6491" lon="5.85372">
        <ele>1344</ele>
        <time>2021-12-29T14:08:33Z</time>
      </trkpt>
      <trkpt lat="44.64896" lon="5.85367">
        <ele>1343</ele>
        <time>2021-12-29T14:08:35Z</time>
      </trkpt>
      <trkpt lat="44.64675" lon="5.85315">
        <ele>1325</ele>
        <time>2021-12-29T14:09:15Z</time>
      </trkpt>
      <trkpt lat="44.64456" lon="5.85234">
        <ele>1306</ele>
        <time>2021-12-29T14:09:55Z</time>
      </trkpt>
      <trkpt lat="44.64437" lon="5.85221">
        <ele>1306</ele>
        <time>2021-12-29T14:09:59Z</time>
      </trkpt>
      <trkpt lat="44.64402" lon="5.85189">
        <ele>1307</ele>
        <time>2021-12-29T14:10:07Z</time>
      </trkpt>
      <trkpt lat="44.64361" lon="5.85168">
        <ele>1300</ele>
        <time>2021-12-29T14:10:14Z</time>
      </trkpt>
      <trkpt lat="44.64306" lon="5.85146">
        <ele>1291</ele>
        <time>2021-12-29T14:10:25Z</time>
      </trkpt>
      <trkpt lat="44.64278" lon="5.85127">
        <ele>1287</ele>
        <time>2021-12-29T14:10:30Z</time>
      </trkpt>
      <trkpt lat="44.64266" lon="5.85112">
        <ele>1287</ele>
        <time>2021-12-29T14:10:33Z</time>
      </trkpt>
      <trkpt lat="44.64238" lon="5.85064">
        <ele>1287</ele>
        <time>2021-12-29T14:10:41Z</time>
      </trkpt>
      <trkpt lat="44.6423" lon="5.85056">
        <ele>1286</ele>
        <time>2021-12-29T14:10:43Z</time>
      </trkpt>
      <trkpt lat="44.64223" lon="5.85053">
        <ele>1285</ele>
        <time>2021-12-29T14:10:44Z</time>
      </trkpt>
      <trkpt lat="44.64215" lon="5.85054">
        <ele>1283</ele>
        <time>2021-12-29T14:10:45Z</time>
      </trkpt>
      <trkpt lat="44.64208" lon="5.85058">
        <ele>1281</ele>
        <time>2021-12-29T14:10:47Z</time>
      </trkpt>
      <trkpt lat="44.64204" lon="5.85065">
        <ele>1278</ele>
        <time>2021-12-29T14:10:48Z</time>
      </trkpt>
      <trkpt lat="44.64202" lon="5.85075">
        <ele>1276</ele>
        <time>2021-12-29T14:10:49Z</time>
      </trkpt>
      <trkpt lat="44.64203" lon="5.85088">
        <ele>1274</ele>
        <time>2021-12-29T14:10:51Z</time>
      </trkpt>
      <trkpt lat="44.64208" lon="5.85101">
        <ele>1274</ele>
        <time>2021-12-29T14:10:53Z</time>
      </trkpt>
      <trkpt lat="44.64215" lon="5.85113">
        <ele>1274</ele>
        <time>2021-12-29T14:10:55Z</time>
      </trkpt>
      <trkpt lat="44.64278" lon="5.85165">
        <ele>1280</ele>
        <time>2021-12-29T14:11:08Z</time>
      </trkpt>
      <trkpt lat="44.64287" lon="5.85176">
        <ele>1281</ele>
        <time>2021-12-29T14:11:10Z</time>
      </trkpt>
      <trkpt lat="44.64292" lon="5.85189">
        <ele>1281</ele>
        <time>2021-12-29T14:11:12Z</time>
      </trkpt>
      <trkpt lat="44.64294" lon="5.85202">
        <ele>1281</ele>
        <time>2021-12-29T14:11:13Z</time>
      </trkpt>
      <trkpt lat="44.64293" lon="5.85213">
        <ele>1280</ele>
        <time>2021-12-29T14:11:15Z</time>
      </trkpt>
      <trkpt lat="44.64288" lon="5.85224">
        <ele>1279</ele>
        <time>2021-12-29T14:11:16Z</time>
      </trkpt>
      <trkpt lat="44.6428" lon="5.85232">
        <ele>1279</ele>
        <time>2021-12-29T14:11:18Z</time>
      </trkpt>
      <trkpt lat="44.64273" lon="5.85235">
        <ele>1278</ele>
        <time>2021-12-29T14:11:19Z</time>
      </trkpt>
      <trkpt lat="44.64264" lon="5.85235">
        <ele>1278</ele>
        <time>2021-12-29T14:11:21Z</time>
      </trkpt>
      <trkpt lat="44.64206" lon="5.85218">
        <ele>1271</ele>
        <time>2021-12-29T14:11:32Z</time>
      </trkpt>
      <trkpt lat="44.64169" lon="5.85205">
        <ele>1266</ele>
        <time>2021-12-29T14:11:38Z</time>
      </trkpt>
      <trkpt lat="44.64146" lon="5.85187">
        <ele>1266</ele>
        <time>2021-12-29T14:11:43Z</time>
      </trkpt>
      <trkpt lat="44.64137" lon="5.85175">
        <ele>1265</ele>
        <time>2021-12-29T14:11:45Z</time>
      </trkpt>
      <trkpt lat="44.64126" lon="5.85156">
        <ele>1264</ele>
        <time>2021-12-29T14:11:48Z</time>
      </trkpt>
      <trkpt lat="44.64091" lon="5.85079">
        <ele>1258</ele>
        <time>2021-12-29T14:12:00Z</time>
      </trkpt>
      <trkpt lat="44.64076" lon="5.8505">
        <ele>1256</ele>
        <time>2021-12-29T14:12:04Z</time>
      </trkpt>
      <trkpt lat="44.64062" lon="5.8503">
        <ele>1255</ele>
        <time>2021-12-29T14:12:08Z</time>
      </trkpt>
      <trkpt lat="44.64044" lon="5.85015">
        <ele>1252</ele>
        <time>2021-12-29T14:12:12Z</time>
      </trkpt>
      <trkpt lat="44.63886" lon="5.84939">
        <ele>1230</ele>
        <time>2021-12-29T14:12:41Z</time>
      </trkpt>
      <trkpt lat="44.63855" lon="5.84927">
        <ele>1223</ele>
        <time>2021-12-29T14:12:47Z</time>
      </trkpt>
      <trkpt lat="44.6384" lon="5.84925">
        <ele>1220</ele>
        <time>2021-12-29T14:12:50Z</time>
      </trkpt>
      <trkpt lat="44.63822" lon="5.84927">
        <ele>1218</ele>
        <time>2021-12-29T14:12:53Z</time>
      </trkpt>
      <trkpt lat="44.63802" lon="5.84939">
        <ele>1216</ele>
        <time>2021-12-29T14:12:57Z</time>
      </trkpt>
      <trkpt lat="44.63784" lon="5.84957">
        <ele>1216</ele>
        <time>2021-12-29T14:13:01Z</time>
      </trkpt>
      <trkpt lat="44.63715" lon="5.85057">
        <ele>1214</ele>
        <time>2021-12-29T14:13:18Z</time>
      </trkpt>
      <trkpt lat="44.637" lon="5.85076">
        <ele>1212</ele>
        <time>2021-12-29T14:13:22Z</time>
      </trkpt>
      <trkpt lat="44.63685" lon="5.85091">
        <ele>1212</ele>
        <time>2021-12-29T14:13:25Z</time>
      </trkpt>
      <trkpt lat="44.6367" lon="5.85101">
        <ele>1211</ele>
        <time>2021-12-29T14:13:28Z</time>
      </trkpt>
      <trkpt lat="44.63654" lon="5.85106">
        <ele>1210</ele>
        <time>2021-12-29T14:13:31Z</time>
      </trkpt>
      <trkpt lat="44.63637" lon="5.85108">
        <ele>1208</ele>
        <time>2021-12-29T14:13:34Z</time>
      </trkpt>
      <trkpt lat="44.63579" lon="5.85106">
        <ele>1199</ele>
        <time>2021-12-29T14:13:45Z</time>
      </trkpt>
      <trkpt lat="44.63553" lon="5.85103">
        <ele>1199</ele>
        <time>2021-12-29T14:13:49Z</time>
      </trkpt>
      <trkpt lat="44.63529" lon="5.85096">
        <ele>1199</ele>
        <time>2021-12-29T14:13:54Z</time>
      </trkpt>
      <trkpt lat="44.63507" lon="5.85086">
        <ele>1196</ele>
        <time>2021-12-29T14:13:58Z</time>
      </trkpt>
      <trkpt lat="44.63486" lon="5.85071">
        <ele>1193</ele>
        <time>2021-12-29T14:14:02Z</time>
      </trkpt>
      <trkpt lat="44.63466" lon="5.85054">
        <ele>1190</ele>
        <time>2021-12-29T14:14:06Z</time>
      </trkpt>
      <trkpt lat="44.63442" lon="5.85039">
        <ele>1187</ele>
        <time>2021-12-29T14:14:11Z</time>
      </trkpt>
      <trkpt lat="44.63431" lon="5.85038">
        <ele>1187</ele>
        <time>2021-12-29T14:14:13Z</time>
      </trkpt>
      <trkpt lat="44.63419" lon="5.85039">
        <ele>1187</ele>
        <time>2021-12-29T14:14:15Z</time>
      </trkpt>
      <trkpt lat="44.63375" lon="5.85054">
        <ele>1183</ele>
        <time>2021-12-29T14:14:23Z</time>
      </trkpt>
      <trkpt lat="44.63365" lon="5.85056">
        <ele>1181</ele>
        <time>2021-12-29T14:14:25Z</time>
      </trkpt>
      <trkpt lat="44.63356" lon="5.85056">
        <ele>1179</ele>
        <time>2021-12-29T14:14:26Z</time>
      </trkpt>
      <trkpt lat="44.63314" lon="5.85038">
        <ele>1179</ele>
        <time>2021-12-29T14:14:34Z</time>
      </trkpt>
      <trkpt lat="44.63295" lon="5.85032">
        <ele>1181</ele>
        <time>2021-12-29T14:14:38Z</time>
      </trkpt>
      <trkpt lat="44.6328" lon="5.8503">
        <ele>1182</ele>
        <time>2021-12-29T14:14:40Z</time>
      </trkpt>
      <trkpt lat="44.63266" lon="5.85031">
        <ele>1182</ele>
        <time>2021-12-29T14:14:43Z</time>
      </trkpt>
      <trkpt lat="44.63248" lon="5.85036">
        <ele>1181</ele>
        <time>2021-12-29T14:14:46Z</time>
      </trkpt>
      <trkpt lat="44.63211" lon="5.8505">
        <ele>1176</ele>
        <time>2021-12-29T14:14:53Z</time>
      </trkpt>
      <trkpt lat="44.63171" lon="5.85059">
        <ele>1173</ele>
        <time>2021-12-29T14:15:00Z</time>
      </trkpt>
      <trkpt lat="44.63115" lon="5.85065">
        <ele>1171</ele>
        <time>2021-12-29T14:15:10Z</time>
      </trkpt>
      <trkpt lat="44.63024" lon="5.85064">
        <ele>1168</ele>
        <time>2021-12-29T14:15:26Z</time>
      </trkpt>
      <trkpt lat="44.62983" lon="5.85069">
        <ele>1165</ele>
        <time>2021-12-29T14:15:33Z</time>
      </trkpt>
      <trkpt lat="44.62942" lon="5.8508">
        <ele>1160</ele>
        <time>2021-12-29T14:15:41Z</time>
      </trkpt>
      <trkpt lat="44.62906" lon="5.85093">
        <ele>1160</ele>
        <time>2021-12-29T14:15:48Z</time>
      </trkpt>
      <trkpt lat="44.62878" lon="5.85107">
        <ele>1163</ele>
        <time>2021-12-29T14:15:53Z</time>
      </trkpt>
      <trkpt lat="44.62788" lon="5.85167">
        <ele>1151</ele>
        <time>2021-12-29T14:16:11Z</time>
      </trkpt>
      <trkpt lat="44.62772" lon="5.85176">
        <ele>1151</ele>
        <time>2021-12-29T14:16:14Z</time>
      </trkpt>
      <trkpt lat="44.62735" lon="5.85189">
        <ele>1150</ele>
        <time>2021-12-29T14:16:20Z</time>
      </trkpt>
      <trkpt lat="44.62714" lon="5.85192">
        <ele>1149</ele>
        <time>2021-12-29T14:16:24Z</time>
      </trkpt>
      <trkpt lat="44.62652" lon="5.85196">
        <ele>1150</ele>
        <time>2021-12-29T14:16:35Z</time>
      </trkpt>
      <trkpt lat="44.62633" lon="5.85199">
        <ele>1152</ele>
        <time>2021-12-29T14:16:39Z</time>
      </trkpt>
      <trkpt lat="44.6262" lon="5.85204">
        <ele>1152</ele>
        <time>2021-12-29T14:16:41Z</time>
      </trkpt>
      <trkpt lat="44.62501" lon="5.85268">
        <ele>1143</ele>
        <time>2021-12-29T14:17:04Z</time>
      </trkpt>
      <trkpt lat="44.62448" lon="5.85289">
        <ele>1144</ele>
        <time>2021-12-29T14:17:13Z</time>
      </trkpt>
      <trkpt lat="44.62393" lon="5.85305">
        <ele>1144</ele>
        <time>2021-12-29T14:17:23Z</time>
      </trkpt>
      <trkpt lat="44.62338" lon="5.8534">
        <ele>1135</ele>
        <time>2021-12-29T14:17:34Z</time>
      </trkpt>
      <trkpt lat="44.62308" lon="5.85356">
        <ele>1135</ele>
        <time>2021-12-29T14:17:40Z</time>
      </trkpt>
      <trkpt lat="44.62114" lon="5.85449">
        <ele>1124</ele>
        <time>2021-12-29T14:18:16Z</time>
      </trkpt>
      <trkpt lat="44.61816" lon="5.85562">
        <ele>1116</ele>
        <time>2021-12-29T14:19:11Z</time>
      </trkpt>
      <trkpt lat="44.61662" lon="5.85643">
        <ele>1105</ele>
        <time>2021-12-29T14:19:41Z</time>
      </trkpt>
      <trkpt lat="44.61637" lon="5.85652">
        <ele>1104</ele>
        <time>2021-12-29T14:19:45Z</time>
      </trkpt>
      <trkpt lat="44.61531" lon="5.85674">
        <ele>1103</ele>
        <time>2021-12-29T14:20:04Z</time>
      </trkpt>
      <trkpt lat="44.61508" lon="5.85674">
        <ele>1104</ele>
        <time>2021-12-29T14:20:08Z</time>
      </trkpt>
      <trkpt lat="44.61442" lon="5.85663">
        <ele>1108</ele>
        <time>2021-12-29T14:20:20Z</time>
      </trkpt>
      <trkpt lat="44.6142" lon="5.85664">
        <ele>1108</ele>
        <time>2021-12-29T14:20:24Z</time>
      </trkpt>
      <trkpt lat="44.61401" lon="5.85668">
        <ele>1111</ele>
        <time>2021-12-29T14:20:27Z</time>
      </trkpt>
      <trkpt lat="44.61386" lon="5.85675">
        <ele>1113</ele>
        <time>2021-12-29T14:20:30Z</time>
      </trkpt>
      <trkpt lat="44.61371" lon="5.85685">
        <ele>1113</ele>
        <time>2021-12-29T14:20:33Z</time>
      </trkpt>
      <trkpt lat="44.61357" lon="5.857">
        <ele>1112</ele>
        <time>2021-12-29T14:20:36Z</time>
      </trkpt>
      <trkpt lat="44.61327" lon="5.85746">
        <ele>1101</ele>
        <time>2021-12-29T14:20:44Z</time>
      </trkpt>
      <trkpt lat="44.61314" lon="5.85761">
        <ele>1100</ele>
        <time>2021-12-29T14:20:47Z</time>
      </trkpt>
      <trkpt lat="44.61299" lon="5.85772">
        <ele>1101</ele>
        <time>2021-12-29T14:20:50Z</time>
      </trkpt>
      <trkpt lat="44.61279" lon="5.85781">
        <ele>1102</ele>
        <time>2021-12-29T14:20:54Z</time>
      </trkpt>
      <trkpt lat="44.61112" lon="5.8584">
        <ele>1089</ele>
        <time>2021-12-29T14:21:25Z</time>
      </trkpt>
      <trkpt lat="44.61076" lon="5.85846">
        <ele>1087</ele>
        <time>2021-12-29T14:21:31Z</time>
      </trkpt>
      <trkpt lat="44.61061" lon="5.85841">
        <ele>1086</ele>
        <time>2021-12-29T14:21:34Z</time>
      </trkpt>
      <trkpt lat="44.61049" lon="5.85832">
        <ele>1087</ele>
        <time>2021-12-29T14:21:36Z</time>
      </trkpt>
      <trkpt lat="44.61022" lon="5.85806">
        <ele>1097</ele>
        <time>2021-12-29T14:21:42Z</time>
      </trkpt>
      <trkpt lat="44.60931" lon="5.85754">
        <ele>1106</ele>
        <time>2021-12-29T14:22:00Z</time>
      </trkpt>
      <trkpt lat="44.60903" lon="5.8574">
        <ele>1104</ele>
        <time>2021-12-29T14:22:05Z</time>
      </trkpt>
      <trkpt lat="44.60877" lon="5.85732">
        <ele>1098</ele>
        <time>2021-12-29T14:22:10Z</time>
      </trkpt>
      <trkpt lat="44.60847" lon="5.85726">
        <ele>1088</ele>
        <time>2021-12-29T14:22:15Z</time>
      </trkpt>
      <trkpt lat="44.60842" lon="5.85726">
        <ele>1086</ele>
        <time>2021-12-29T14:22:16Z</time>
      </trkpt>
      <trkpt lat="44.60829" lon="5.85727">
        <ele>1082</ele>
        <time>2021-12-29T14:22:18Z</time>
      </trkpt>
      <trkpt lat="44.60784" lon="5.85742">
        <ele>1072</ele>
        <time>2021-12-29T14:22:26Z</time>
      </trkpt>
      <trkpt lat="44.60738" lon="5.85759">
        <ele>1070</ele>
        <time>2021-12-29T14:22:35Z</time>
      </trkpt>
      <trkpt lat="44.60726" lon="5.85758">
        <ele>1068</ele>
        <time>2021-12-29T14:22:37Z</time>
      </trkpt>
      <trkpt lat="44.607" lon="5.85749">
        <ele>1060</ele>
        <time>2021-12-29T14:22:42Z</time>
      </trkpt>
      <trkpt lat="44.60676" lon="5.85747">
        <ele>1057</ele>
        <time>2021-12-29T14:22:46Z</time>
      </trkpt>
      <trkpt lat="44.60662" lon="5.8575">
        <ele>1056</ele>
        <time>2021-12-29T14:22:49Z</time>
      </trkpt>
      <trkpt lat="44.60612" lon="5.85774">
        <ele>1059</ele>
        <time>2021-12-29T14:22:58Z</time>
      </trkpt>
      <trkpt lat="44.60577" lon="5.85788">
        <ele>1058</ele>
        <time>2021-12-29T14:23:04Z</time>
      </trkpt>
      <trkpt lat="44.60545" lon="5.85795">
        <ele>1056</ele>
        <time>2021-12-29T14:23:10Z</time>
      </trkpt>
      <trkpt lat="44.59903" lon="5.85799">
        <ele>1007</ele>
        <time>2021-12-29T14:25:04Z</time>
      </trkpt>
      <trkpt lat="44.59575" lon="5.85811">
        <ele>997</ele>
        <time>2021-12-29T14:26:03Z</time>
      </trkpt>
      <trkpt lat="44.59523" lon="5.8581">
        <ele>998</ele>
        <time>2021-12-29T14:26:12Z</time>
      </trkpt>
      <trkpt lat="44.59505" lon="5.85807">
        <ele>999</ele>
        <time>2021-12-29T14:26:15Z</time>
      </trkpt>
      <trkpt lat="44.59483" lon="5.85797">
        <ele>999</ele>
        <time>2021-12-29T14:26:19Z</time>
      </trkpt>
      <trkpt lat="44.59461" lon="5.85783">
        <ele>998</ele>
        <time>2021-12-29T14:26:24Z</time>
      </trkpt>
      <trkpt lat="44.59441" lon="5.85765">
        <ele>994</ele>
        <time>2021-12-29T14:26:28Z</time>
      </trkpt>
      <trkpt lat="44.59408" lon="5.85726">
        <ele>990</ele>
        <time>2021-12-29T14:26:36Z</time>
      </trkpt>
      <trkpt lat="44.59302" lon="5.85584">
        <ele>984</ele>
        <time>2021-12-29T14:27:02Z</time>
      </trkpt>
      <trkpt lat="44.59282" lon="5.85564">
        <ele>984</ele>
        <time>2021-12-29T14:27:06Z</time>
      </trkpt>
      <trkpt lat="44.59262" lon="5.85548">
        <ele>984</ele>
        <time>2021-12-29T14:27:10Z</time>
      </trkpt>
      <trkpt lat="44.59241" lon="5.85536">
        <ele>983</ele>
        <time>2021-12-29T14:27:14Z</time>
      </trkpt>
      <trkpt lat="44.59219" lon="5.85529">
        <ele>982</ele>
        <time>2021-12-29T14:27:18Z</time>
      </trkpt>
      <trkpt lat="44.59191" lon="5.85526">
        <ele>981</ele>
        <time>2021-12-29T14:27:23Z</time>
      </trkpt>
      <trkpt lat="44.59142" lon="5.85531">
        <ele>980</ele>
        <time>2021-12-29T14:27:32Z</time>
      </trkpt>
      <trkpt lat="44.58774" lon="5.85604">
        <ele>974</ele>
        <time>2021-12-29T14:28:38Z</time>
      </trkpt>
      <trkpt lat="44.58736" lon="5.85609">
        <ele>974</ele>
        <time>2021-12-29T14:28:45Z</time>
      </trkpt>
      <trkpt lat="44.58699" lon="5.85608">
        <ele>974</ele>
        <time>2021-12-29T14:28:51Z</time>
      </trkpt>
      <trkpt lat="44.58659" lon="5.85604">
        <ele>973</ele>
        <time>2021-12-29T14:28:59Z</time>
      </trkpt>
      <trkpt lat="44.58025" lon="5.85486">
        <ele>947</ele>
        <time>2021-12-29T14:30:52Z</time>
      </trkpt>
      <trkpt lat="44.58003" lon="5.8548">
        <ele>946</ele>
        <time>2021-12-29T14:30:56Z</time>
      </trkpt>
      <trkpt lat="44.57978" lon="5.8547">
        <ele>949</ele>
        <time>2021-12-29T14:31:01Z</time>
      </trkpt>
      <trkpt lat="44.57912" lon="5.85422">
        <ele>941</ele>
        <time>2021-12-29T14:31:14Z</time>
      </trkpt>
      <trkpt lat="44.57893" lon="5.85412">
        <ele>939</ele>
        <time>2021-12-29T14:31:18Z</time>
      </trkpt>
      <trkpt lat="44.57872" lon="5.85405">
        <ele>939</ele>
        <time>2021-12-29T14:31:22Z</time>
      </trkpt>
      <trkpt lat="44.57852" lon="5.85402">
        <ele>940</ele>
        <time>2021-12-29T14:31:25Z</time>
      </trkpt>
      <trkpt lat="44.5783" lon="5.85405">
        <ele>940</ele>
        <time>2021-12-29T14:31:29Z</time>
      </trkpt>
      <trkpt lat="44.57811" lon="5.85412">
        <ele>938</ele>
        <time>2021-12-29T14:31:33Z</time>
      </trkpt>
      <trkpt lat="44.57774" lon="5.85433">
        <ele>939</ele>
        <time>2021-12-29T14:31:40Z</time>
      </trkpt>
      <trkpt lat="44.57691" lon="5.85489">
        <ele>939</ele>
        <time>2021-12-29T14:31:56Z</time>
      </trkpt>
      <trkpt lat="44.57643" lon="5.85529">
        <ele>940</ele>
        <time>2021-12-29T14:32:06Z</time>
      </trkpt>
      <trkpt lat="44.57603" lon="5.8557">
        <ele>937</ele>
        <time>2021-12-29T14:32:15Z</time>
      </trkpt>
      <trkpt lat="44.57591" lon="5.85552">
        <ele>935</ele>
        <time>2021-12-29T14:32:18Z</time>
      </trkpt>
      <trkpt lat="44.57576" lon="5.85527">
        <ele>937</ele>
        <time>2021-12-29T14:32:22Z</time>
      </trkpt>
      <trkpt lat="44.57566" lon="5.85508">
        <ele>940</ele>
        <time>2021-12-29T14:32:25Z</time>
      </trkpt>
      <trkpt lat="44.57558" lon="5.85504">
        <ele>941</ele>
        <time>2021-12-29T14:32:27Z</time>
      </trkpt>
      <trkpt lat="44.57548" lon="5.85505">
        <ele>943</ele>
        <time>2021-12-29T14:32:28Z</time>
      </trkpt>
      <trkpt lat="44.57534" lon="5.85509">
        <ele>944</ele>
        <time>2021-12-29T14:32:31Z</time>
      </trkpt>
      <trkpt lat="44.57503" lon="5.85527">
        <ele>944</ele>
        <time>2021-12-29T14:32:37Z</time>
      </trkpt>
      <trkpt lat="44.57352" lon="5.85574">
        <ele>931</ele>
        <time>2021-12-29T14:33:04Z</time>
      </trkpt>
      <trkpt lat="44.57329" lon="5.85586">
        <ele>928</ele>
        <time>2021-12-29T14:33:09Z</time>
      </trkpt>
      <trkpt lat="44.57309" lon="5.856">
        <ele>927</ele>
        <time>2021-12-29T14:33:13Z</time>
      </trkpt>
      <trkpt lat="44.57239" lon="5.85666">
        <ele>923</ele>
        <time>2021-12-29T14:33:28Z</time>
      </trkpt>
      <trkpt lat="44.57205" lon="5.85689">
        <ele>922</ele>
        <time>2021-12-29T14:33:35Z</time>
      </trkpt>
      <trkpt lat="44.57165" lon="5.85704">
        <ele>921</ele>
        <time>2021-12-29T14:33:42Z</time>
      </trkpt>
      <trkpt lat="44.57152" lon="5.85704">
        <ele>921</ele>
        <time>2021-12-29T14:33:44Z</time>
      </trkpt>
      <trkpt lat="44.57113" lon="5.85695">
        <ele>919</ele>
        <time>2021-12-29T14:33:51Z</time>
      </trkpt>
      <trkpt lat="44.57093" lon="5.85694">
        <ele>918</ele>
        <time>2021-12-29T14:33:55Z</time>
      </trkpt>
      <trkpt lat="44.56764" lon="5.85724">
        <ele>915</ele>
        <time>2021-12-29T14:34:53Z</time>
      </trkpt>
      <trkpt lat="44.56739" lon="5.8573">
        <ele>915</ele>
        <time>2021-12-29T14:34:58Z</time>
      </trkpt>
      <trkpt lat="44.56718" lon="5.85738">
        <ele>915</ele>
        <time>2021-12-29T14:35:02Z</time>
      </trkpt>
      <trkpt lat="44.5665" lon="5.85791">
        <ele>908</ele>
        <time>2021-12-29T14:35:16Z</time>
      </trkpt>
      <trkpt lat="44.56641" lon="5.85795">
        <ele>907</ele>
        <time>2021-12-29T14:35:17Z</time>
      </trkpt>
      <trkpt lat="44.56623" lon="5.8579">
        <ele>907</ele>
        <time>2021-12-29T14:35:21Z</time>
      </trkpt>
      <trkpt lat="44.56598" lon="5.85776">
        <ele>907</ele>
        <time>2021-12-29T14:35:25Z</time>
      </trkpt>
      <trkpt lat="44.56574" lon="5.85765">
        <ele>906</ele>
        <time>2021-12-29T14:35:30Z</time>
      </trkpt>
      <trkpt lat="44.56488" lon="5.85744">
        <ele>902</ele>
        <time>2021-12-29T14:35:45Z</time>
      </trkpt>
      <trkpt lat="44.56468" lon="5.85742">
        <ele>901</ele>
        <time>2021-12-29T14:35:49Z</time>
      </trkpt>
      <trkpt lat="44.56434" lon="5.85744">
        <ele>898</ele>
        <time>2021-12-29T14:35:55Z</time>
      </trkpt>
      <trkpt lat="44.56402" lon="5.8574">
        <ele>896</ele>
        <time>2021-12-29T14:36:01Z</time>
      </trkpt>
      <trkpt lat="44.56371" lon="5.85729">
        <ele>896</ele>
        <time>2021-12-29T14:36:06Z</time>
      </trkpt>
      <trkpt lat="44.56334" lon="5.85722">
        <ele>893</ele>
        <time>2021-12-29T14:36:13Z</time>
      </trkpt>
      <trkpt lat="44.56298" lon="5.85722">
        <ele>892</ele>
        <time>2021-12-29T14:36:20Z</time>
      </trkpt>
      <trkpt lat="44.5614" lon="5.85765">
        <ele>887</ele>
        <time>2021-12-29T14:36:48Z</time>
      </trkpt>
      <trkpt lat="44.56121" lon="5.85766">
        <ele>887</ele>
        <time>2021-12-29T14:36:52Z</time>
      </trkpt>
      <trkpt lat="44.55456" lon="5.85674">
        <ele>869</ele>
        <time>2021-12-29T14:38:50Z</time>
      </trkpt>
      <trkpt lat="44.55208" lon="5.85636">
        <ele>867</ele>
        <time>2021-12-29T14:39:35Z</time>
      </trkpt>
      <trkpt lat="44.55174" lon="5.85633">
        <ele>868</ele>
        <time>2021-12-29T14:39:41Z</time>
      </trkpt>
      <trkpt lat="44.55134" lon="5.85635">
        <ele>865</ele>
        <time>2021-12-29T14:39:48Z</time>
      </trkpt>
      <trkpt lat="44.55117" lon="5.85633">
        <ele>864</ele>
        <time>2021-12-29T14:39:51Z</time>
      </trkpt>
      <trkpt lat="44.55082" lon="5.85618">
        <ele>862</ele>
        <time>2021-12-29T14:39:58Z</time>
      </trkpt>
      <trkpt lat="44.54996" lon="5.85565">
        <ele>863</ele>
        <time>2021-12-29T14:40:14Z</time>
      </trkpt>
      <trkpt lat="44.5495" lon="5.85545">
        <ele>862</ele>
        <time>2021-12-29T14:40:23Z</time>
      </trkpt>
      <trkpt lat="44.54915" lon="5.85533">
        <ele>860</ele>
        <time>2021-12-29T14:40:29Z</time>
      </trkpt>
      <trkpt lat="44.54878" lon="5.8553">
        <ele>858</ele>
        <time>2021-12-29T14:40:36Z</time>
      </trkpt>
      <trkpt lat="44.54847" lon="5.8553">
        <ele>855</ele>
        <time>2021-12-29T14:40:41Z</time>
      </trkpt>
      <trkpt lat="44.5481" lon="5.85532">
        <ele>853</ele>
        <time>2021-12-29T14:40:48Z</time>
      </trkpt>
      <trkpt lat="44.54805" lon="5.85535">
        <ele>853</ele>
        <time>2021-12-29T14:40:49Z</time>
      </trkpt>
      <trkpt lat="44.54744" lon="5.85405">
        <ele>855</ele>
        <time>2021-12-29T14:41:09Z</time>
      </trkpt>
      <trkpt lat="44.54583" lon="5.85096">
        <ele>847</ele>
        <time>2021-12-29T14:41:57Z</time>
      </trkpt>
      <trkpt lat="44.54386" lon="5.84722">
        <ele>845</ele>
        <time>2021-12-29T14:42:56Z</time>
      </trkpt>
      <trkpt lat="44.54364" lon="5.84672">
        <ele>846</ele>
        <time>2021-12-29T14:43:04Z</time>
      </trkpt>
      <trkpt lat="44.5431" lon="5.84567">
        <ele>849</ele>
        <time>2021-12-29T14:43:20Z</time>
      </trkpt>
      <trkpt lat="44.54275" lon="5.84509">
        <ele>849</ele>
        <time>2021-12-29T14:43:30Z</time>
      </trkpt>
      <trkpt lat="44.54172" lon="5.84315">
        <ele>846</ele>
        <time>2021-12-29T14:44:00Z</time>
      </trkpt>
      <trkpt lat="44.54088" lon="5.84149">
        <ele>846</ele>
        <time>2021-12-29T14:44:26Z</time>
      </trkpt>
      <trkpt lat="44.53932" lon="5.83849">
        <ele>829</ele>
        <time>2021-12-29T14:45:13Z</time>
      </trkpt>
      <trkpt lat="44.53772" lon="5.83541">
        <ele>824</ele>
        <time>2021-12-29T14:46:02Z</time>
      </trkpt>
      <trkpt lat="44.53755" lon="5.83504">
        <ele>823</ele>
        <time>2021-12-29T14:46:07Z</time>
      </trkpt>
      <trkpt lat="44.53745" lon="5.83479">
        <ele>823</ele>
        <time>2021-12-29T14:46:11Z</time>
      </trkpt>
      <trkpt lat="44.53683" lon="5.83239">
        <ele>824</ele>
        <time>2021-12-29T14:46:43Z</time>
      </trkpt>
      <trkpt lat="44.53678" lon="5.83213">
        <ele>825</ele>
        <time>2021-12-29T14:46:47Z</time>
      </trkpt>
      <trkpt lat="44.5366" lon="5.83139">
        <ele>825</ele>
        <time>2021-12-29T14:46:57Z</time>
      </trkpt>
      <trkpt lat="44.53652" lon="5.83116">
        <ele>826</ele>
        <time>2021-12-29T14:47:00Z</time>
      </trkpt>
      <trkpt lat="44.53623" lon="5.83003">
        <ele>832</ele>
        <time>2021-12-29T14:47:15Z</time>
      </trkpt>
      <trkpt lat="44.53605" lon="5.82958">
        <ele>831</ele>
        <time>2021-12-29T14:47:22Z</time>
      </trkpt>
      <trkpt lat="44.53581" lon="5.82925">
        <ele>827</ele>
        <time>2021-12-29T14:47:28Z</time>
      </trkpt>
      <trkpt lat="44.53557" lon="5.82886">
        <ele>828</ele>
        <time>2021-12-29T14:47:34Z</time>
      </trkpt>
      <trkpt lat="44.53497" lon="5.82767">
        <ele>826</ele>
        <time>2021-12-29T14:47:53Z</time>
      </trkpt>
      <trkpt lat="44.5348" lon="5.82727">
        <ele>826</ele>
        <time>2021-12-29T14:47:58Z</time>
      </trkpt>
      <trkpt lat="44.53361" lon="5.82403">
        <ele>827</ele>
        <time>2021-12-29T14:48:45Z</time>
      </trkpt>
      <trkpt lat="44.53344" lon="5.8234">
        <ele>824</ele>
        <time>2021-12-29T14:48:53Z</time>
      </trkpt>
      <trkpt lat="44.53348" lon="5.82336">
        <ele>825</ele>
        <time>2021-12-29T14:48:54Z</time>
      </trkpt>
      <trkpt lat="44.53348" lon="5.82329">
        <ele>825</ele>
        <time>2021-12-29T14:48:55Z</time>
      </trkpt>
      <trkpt lat="44.53346" lon="5.82325">
        <ele>825</ele>
        <time>2021-12-29T14:48:56Z</time>
      </trkpt>
      <trkpt lat="44.53342" lon="5.82323">
        <ele>824</ele>
        <time>2021-12-29T14:48:56Z</time>
      </trkpt>
      <trkpt lat="44.53316" lon="5.82174">
        <ele>823</ele>
        <time>2021-12-29T14:49:16Z</time>
      </trkpt>
      <trkpt lat="44.53315" lon="5.82131">
        <ele>824</ele>
        <time>2021-12-29T14:49:21Z</time>
      </trkpt>
      <trkpt lat="44.5332" lon="5.821">
        <ele>825</ele>
        <time>2021-12-29T14:49:25Z</time>
      </trkpt>
      <trkpt lat="44.53325" lon="5.82087">
        <ele>825</ele>
        <time>2021-12-29T14:49:27Z</time>
      </trkpt>
      <trkpt lat="44.53333" lon="5.8208">
        <ele>826</ele>
        <time>2021-12-29T14:49:29Z</time>
      </trkpt>
      <trkpt lat="44.53337" lon="5.82079">
        <ele>826</ele>
        <time>2021-12-29T14:49:30Z</time>
      </trkpt>
      <trkpt lat="44.53341" lon="5.82074">
        <ele>826</ele>
        <time>2021-12-29T14:49:31Z</time>
      </trkpt>
      <trkpt lat="44.53342" lon="5.82066">
        <ele>826</ele>
        <time>2021-12-29T14:49:32Z</time>
      </trkpt>
      <trkpt lat="44.53341" lon="5.82062">
        <ele>826</ele>
        <time>2021-12-29T14:49:32Z</time>
      </trkpt>
      <trkpt lat="44.53342" lon="5.82056">
        <ele>826</ele>
        <time>2021-12-29T14:49:33Z</time>
      </trkpt>
      <trkpt lat="44.53338" lon="5.82033">
        <ele>825</ele>
        <time>2021-12-29T14:49:36Z</time>
      </trkpt>
      <trkpt lat="44.53327" lon="5.81972">
        <ele>823</ele>
        <time>2021-12-29T14:49:44Z</time>
      </trkpt>
      <trkpt lat="44.53309" lon="5.81804">
        <ele>823</ele>
        <time>2021-12-29T14:50:05Z</time>
      </trkpt>
      <trkpt lat="44.53298" lon="5.81709">
        <ele>824</ele>
        <time>2021-12-29T14:50:18Z</time>
      </trkpt>
      <trkpt lat="44.53286" lon="5.81629">
        <ele>823</ele>
        <time>2021-12-29T14:50:28Z</time>
      </trkpt>
      <trkpt lat="44.53276" lon="5.81535">
        <ele>821</ele>
        <time>2021-12-29T14:50:40Z</time>
      </trkpt>
      <trkpt lat="44.53268" lon="5.8146">
        <ele>820</ele>
        <time>2021-12-29T14:50:50Z</time>
      </trkpt>
      <trkpt lat="44.53259" lon="5.81422">
        <ele>819</ele>
        <time>2021-12-29T14:50:55Z</time>
      </trkpt>
      <trkpt lat="44.53257" lon="5.81406">
        <ele>819</ele>
        <time>2021-12-29T14:50:57Z</time>
      </trkpt>
      <trkpt lat="44.53223" lon="5.81045">
        <ele>820</ele>
        <time>2021-12-29T14:51:43Z</time>
      </trkpt>
      <trkpt lat="44.53214" lon="5.80974">
        <ele>820</ele>
        <time>2021-12-29T14:51:52Z</time>
      </trkpt>
      <trkpt lat="44.53166" lon="5.80742">
        <ele>823</ele>
        <time>2021-12-29T14:52:23Z</time>
      </trkpt>
      <trkpt lat="44.53155" lon="5.80625">
        <ele>825</ele>
        <time>2021-12-29T14:52:38Z</time>
      </trkpt>
      <trkpt lat="44.53145" lon="5.80553">
        <ele>825</ele>
        <time>2021-12-29T14:52:47Z</time>
      </trkpt>
      <trkpt lat="44.53116" lon="5.8041">
        <ele>827</ele>
        <time>2021-12-29T14:53:06Z</time>
      </trkpt>
      <trkpt lat="44.53112" lon="5.80387">
        <ele>827</ele>
        <time>2021-12-29T14:53:09Z</time>
      </trkpt>
      <trkpt lat="44.53094" lon="5.80302">
        <ele>830</ele>
        <time>2021-12-29T14:53:20Z</time>
      </trkpt>
      <trkpt lat="44.53062" lon="5.80151">
        <ele>838</ele>
        <time>2021-12-29T14:53:40Z</time>
      </trkpt>
      <trkpt lat="44.53041" lon="5.80032">
        <ele>849</ele>
        <time>2021-12-29T14:53:56Z</time>
      </trkpt>
      <trkpt lat="44.53041" lon="5.80022">
        <ele>850</ele>
        <time>2021-12-29T14:53:57Z</time>
      </trkpt>
      <trkpt lat="44.53043" lon="5.80013">
        <ele>852</ele>
        <time>2021-12-29T14:53:58Z</time>
      </trkpt>
      <trkpt lat="44.53047" lon="5.80008">
        <ele>853</ele>
        <time>2021-12-29T14:53:59Z</time>
      </trkpt>
      <trkpt lat="44.53054" lon="5.80006">
        <ele>855</ele>
        <time>2021-12-29T14:54:00Z</time>
      </trkpt>
      <trkpt lat="44.53061" lon="5.80009">
        <ele>856</ele>
        <time>2021-12-29T14:54:02Z</time>
      </trkpt>
      <trkpt lat="44.53066" lon="5.80018">
        <ele>855</ele>
        <time>2021-12-29T14:54:03Z</time>
      </trkpt>
      <trkpt lat="44.53078" lon="5.80057">
        <ele>851</ele>
        <time>2021-12-29T14:54:09Z</time>
      </trkpt>
      <trkpt lat="44.53084" lon="5.8007">
        <ele>850</ele>
        <time>2021-12-29T14:54:10Z</time>
      </trkpt>
      <trkpt lat="44.53104" lon="5.80108">
        <ele>849</ele>
        <time>2021-12-29T14:54:16Z</time>
      </trkpt>
      <trkpt lat="44.53121" lon="5.80129">
        <ele>848</ele>
        <time>2021-12-29T14:54:21Z</time>
      </trkpt>
      <trkpt lat="44.53142" lon="5.80141">
        <ele>849</ele>
        <time>2021-12-29T14:54:25Z</time>
      </trkpt>
      <trkpt lat="44.53153" lon="5.80142">
        <ele>851</ele>
        <time>2021-12-29T14:54:27Z</time>
      </trkpt>
      <trkpt lat="44.53177" lon="5.80137">
        <ele>853</ele>
        <time>2021-12-29T14:54:31Z</time>
      </trkpt>
      <trkpt lat="44.53201" lon="5.80125">
        <ele>853</ele>
        <time>2021-12-29T14:54:35Z</time>
      </trkpt>
      <trkpt lat="44.53218" lon="5.80115">
        <ele>854</ele>
        <time>2021-12-29T14:54:39Z</time>
      </trkpt>
      <trkpt lat="44.53227" lon="5.80106">
        <ele>854</ele>
        <time>2021-12-29T14:54:41Z</time>
      </trkpt>
      <trkpt lat="44.53259" lon="5.80053">
        <ele>858</ele>
        <time>2021-12-29T14:54:49Z</time>
      </trkpt>
      <trkpt lat="44.5329" lon="5.79995">
        <ele>865</ele>
        <time>2021-12-29T14:54:59Z</time>
      </trkpt>
      <trkpt lat="44.53306" lon="5.79973">
        <ele>868</ele>
        <time>2021-12-29T14:55:03Z</time>
      </trkpt>
      <trkpt lat="44.53325" lon="5.79969">
        <ele>868</ele>
        <time>2021-12-29T14:55:06Z</time>
      </trkpt>
      <trkpt lat="44.53353" lon="5.79987">
        <ele>866</ele>
        <time>2021-12-29T14:55:11Z</time>
      </trkpt>
      <trkpt lat="44.53361" lon="5.79992">
        <ele>865</ele>
        <time>2021-12-29T14:55:13Z</time>
      </trkpt>
      <trkpt lat="44.5337" lon="5.79993">
        <ele>866</ele>
        <time>2021-12-29T14:55:15Z</time>
      </trkpt>
      <trkpt lat="44.53379" lon="5.79991">
        <ele>867</ele>
        <time>2021-12-29T14:55:16Z</time>
      </trkpt>
      <trkpt lat="44.53385" lon="5.79985">
        <ele>869</ele>
        <time>2021-12-29T14:55:18Z</time>
      </trkpt>
      <trkpt lat="44.53388" lon="5.79974">
        <ele>872</ele>
        <time>2021-12-29T14:55:19Z</time>
      </trkpt>
      <trkpt lat="44.53387" lon="5.79963">
        <ele>875</ele>
        <time>2021-12-29T14:55:20Z</time>
      </trkpt>
      <trkpt lat="44.53383" lon="5.79953">
        <ele>877</ele>
        <time>2021-12-29T14:55:22Z</time>
      </trkpt>
      <trkpt lat="44.53375" lon="5.79946">
        <ele>877</ele>
        <time>2021-12-29T14:55:24Z</time>
      </trkpt>
      <trkpt lat="44.5333" lon="5.79927">
        <ele>877</ele>
        <time>2021-12-29T14:55:32Z</time>
      </trkpt>
      <trkpt lat="44.53285" lon="5.799">
        <ele>885</ele>
        <time>2021-12-29T14:55:41Z</time>
      </trkpt>
      <trkpt lat="44.53275" lon="5.79897">
        <ele>885</ele>
        <time>2021-12-29T14:55:43Z</time>
      </trkpt>
      <trkpt lat="44.53264" lon="5.79897">
        <ele>886</ele>
        <time>2021-12-29T14:55:44Z</time>
      </trkpt>
      <trkpt lat="44.53254" lon="5.79902">
        <ele>885</ele>
        <time>2021-12-29T14:55:46Z</time>
      </trkpt>
      <trkpt lat="44.53245" lon="5.79911">
        <ele>884</ele>
        <time>2021-12-29T14:55:48Z</time>
      </trkpt>
      <trkpt lat="44.5319" lon="5.79984">
        <ele>879</ele>
        <time>2021-12-29T14:56:02Z</time>
      </trkpt>
      <trkpt lat="44.53173" lon="5.80002">
        <ele>879</ele>
        <time>2021-12-29T14:56:06Z</time>
      </trkpt>
      <trkpt lat="44.53163" lon="5.80007">
        <ele>878</ele>
        <time>2021-12-29T14:56:07Z</time>
      </trkpt>
      <trkpt lat="44.53154" lon="5.80007">
        <ele>876</ele>
        <time>2021-12-29T14:56:09Z</time>
      </trkpt>
      <trkpt lat="44.53145" lon="5.80003">
        <ele>874</ele>
        <time>2021-12-29T14:56:11Z</time>
      </trkpt>
      <trkpt lat="44.53137" lon="5.79994">
        <ele>874</ele>
        <time>2021-12-29T14:56:13Z</time>
      </trkpt>
      <trkpt lat="44.5313" lon="5.79982">
        <ele>875</ele>
        <time>2021-12-29T14:56:15Z</time>
      </trkpt>
      <trkpt lat="44.53126" lon="5.79967">
        <ele>876</ele>
        <time>2021-12-29T14:56:17Z</time>
      </trkpt>
      <trkpt lat="44.5312" lon="5.79892">
        <ele>884</ele>
        <time>2021-12-29T14:56:26Z</time>
      </trkpt>
      <trkpt lat="44.53122" lon="5.79851">
        <ele>887</ele>
        <time>2021-12-29T14:56:31Z</time>
      </trkpt>
      <trkpt lat="44.5313" lon="5.79799">
        <ele>890</ele>
        <time>2021-12-29T14:56:38Z</time>
      </trkpt>
      <trkpt lat="44.53135" lon="5.79784">
        <ele>891</ele>
        <time>2021-12-29T14:56:40Z</time>
      </trkpt>
      <trkpt lat="44.53143" lon="5.79772">
        <ele>891</ele>
        <time>2021-12-29T14:56:42Z</time>
      </trkpt>
      <trkpt lat="44.53153" lon="5.79763">
        <ele>892</ele>
        <time>2021-12-29T14:56:44Z</time>
      </trkpt>
      <trkpt lat="44.53165" lon="5.79757">
        <ele>893</ele>
        <time>2021-12-29T14:56:47Z</time>
      </trkpt>
      <trkpt lat="44.53178" lon="5.79753">
        <ele>894</ele>
        <time>2021-12-29T14:56:49Z</time>
      </trkpt>
      <trkpt lat="44.53379" lon="5.79718">
        <ele>908</ele>
        <time>2021-12-29T14:57:25Z</time>
      </trkpt>
      <trkpt lat="44.53396" lon="5.79713">
        <ele>909</ele>
        <time>2021-12-29T14:57:28Z</time>
      </trkpt>
      <trkpt lat="44.53414" lon="5.79705">
        <ele>910</ele>
        <time>2021-12-29T14:57:32Z</time>
      </trkpt>
      <trkpt lat="44.53553" lon="5.7963">
        <ele>911</ele>
        <time>2021-12-29T14:57:58Z</time>
      </trkpt>
      <trkpt lat="44.53588" lon="5.79608">
        <ele>912</ele>
        <time>2021-12-29T14:58:05Z</time>
      </trkpt>
      <trkpt lat="44.53628" lon="5.79576">
        <ele>914</ele>
        <time>2021-12-29T14:58:13Z</time>
      </trkpt>
      <trkpt lat="44.53662" lon="5.79542">
        <ele>915</ele>
        <time>2021-12-29T14:58:20Z</time>
      </trkpt>
      <trkpt lat="44.53677" lon="5.79522">
        <ele>916</ele>
        <time>2021-12-29T14:58:24Z</time>
      </trkpt>
      <trkpt lat="44.53687" lon="5.79504">
        <ele>916</ele>
        <time>2021-12-29T14:58:27Z</time>
      </trkpt>
      <trkpt lat="44.53698" lon="5.79477">
        <ele>917</ele>
        <time>2021-12-29T14:58:31Z</time>
      </trkpt>
      <trkpt lat="44.53708" lon="5.79433">
        <ele>918</ele>
        <time>2021-12-29T14:58:37Z</time>
      </trkpt>
      <trkpt lat="44.5371" lon="5.79377">
        <ele>917</ele>
        <time>2021-12-29T14:58:44Z</time>
      </trkpt>
      <trkpt lat="44.53708" lon="5.79354">
        <ele>917</ele>
        <time>2021-12-29T14:58:47Z</time>
      </trkpt>
      <trkpt lat="44.53663" lon="5.79106">
        <ele>911</ele>
        <time>2021-12-29T14:59:19Z</time>
      </trkpt>
      <trkpt lat="44.53662" lon="5.79082">
        <ele>910</ele>
        <time>2021-12-29T14:59:22Z</time>
      </trkpt>
      <trkpt lat="44.53661" lon="5.79011">
        <ele>908</ele>
        <time>2021-12-29T14:59:31Z</time>
      </trkpt>
      <trkpt lat="44.53665" lon="5.78967">
        <ele>904</ele>
        <time>2021-12-29T14:59:37Z</time>
      </trkpt>
      <trkpt lat="44.53676" lon="5.78924">
        <ele>902</ele>
        <time>2021-12-29T14:59:43Z</time>
      </trkpt>
      <trkpt lat="44.53755" lon="5.78671">
        <ele>885</ele>
        <time>2021-12-29T15:00:18Z</time>
      </trkpt>
      <trkpt lat="44.53794" lon="5.78554">
        <ele>883</ele>
        <time>2021-12-29T15:00:34Z</time>
      </trkpt>
      <trkpt lat="44.538" lon="5.7853">
        <ele>880</ele>
        <time>2021-12-29T15:00:37Z</time>
      </trkpt>
      <trkpt lat="44.53816" lon="5.78456">
        <ele>871</ele>
        <time>2021-12-29T15:00:47Z</time>
      </trkpt>
      <trkpt lat="44.53821" lon="5.78444">
        <ele>870</ele>
        <time>2021-12-29T15:00:49Z</time>
      </trkpt>
      <trkpt lat="44.53829" lon="5.78434">
        <ele>870</ele>
        <time>2021-12-29T15:00:51Z</time>
      </trkpt>
      <trkpt lat="44.53839" lon="5.78425">
        <ele>871</ele>
        <time>2021-12-29T15:00:53Z</time>
      </trkpt>
      <trkpt lat="44.53909" lon="5.78373">
        <ele>874</ele>
        <time>2021-12-29T15:01:07Z</time>
      </trkpt>
      <trkpt lat="44.53921" lon="5.7836">
        <ele>873</ele>
        <time>2021-12-29T15:01:10Z</time>
      </trkpt>
      <trkpt lat="44.5393" lon="5.78345">
        <ele>870</ele>
        <time>2021-12-29T15:01:12Z</time>
      </trkpt>
      <trkpt lat="44.53937" lon="5.7833">
        <ele>866</ele>
        <time>2021-12-29T15:01:15Z</time>
      </trkpt>
      <trkpt lat="44.53949" lon="5.78296">
        <ele>859</ele>
        <time>2021-12-29T15:01:19Z</time>
      </trkpt>
      <trkpt lat="44.53957" lon="5.78284">
        <ele>858</ele>
        <time>2021-12-29T15:01:22Z</time>
      </trkpt>
      <trkpt lat="44.5401" lon="5.78246">
        <ele>854</ele>
        <time>2021-12-29T15:01:32Z</time>
      </trkpt>
      <trkpt lat="44.54024" lon="5.78238">
        <ele>853</ele>
        <time>2021-12-29T15:01:35Z</time>
      </trkpt>
      <trkpt lat="44.54035" lon="5.78235">
        <ele>852</ele>
        <time>2021-12-29T15:01:37Z</time>
      </trkpt>
      <trkpt lat="44.54108" lon="5.78238">
        <ele>850</ele>
        <time>2021-12-29T15:01:50Z</time>
      </trkpt>
      <trkpt lat="44.54125" lon="5.78241">
        <ele>847</ele>
        <time>2021-12-29T15:01:53Z</time>
      </trkpt>
      <trkpt lat="44.54136" lon="5.78247">
        <ele>847</ele>
        <time>2021-12-29T15:01:55Z</time>
      </trkpt>
      <trkpt lat="44.54146" lon="5.78256">
        <ele>847</ele>
        <time>2021-12-29T15:01:57Z</time>
      </trkpt>
      <trkpt lat="44.54154" lon="5.78269">
        <ele>847</ele>
        <time>2021-12-29T15:01:59Z</time>
      </trkpt>
      <trkpt lat="44.54159" lon="5.78283">
        <ele>848</ele>
        <time>2021-12-29T15:02:01Z</time>
      </trkpt>
      <trkpt lat="44.54166" lon="5.78339">
        <ele>854</ele>
        <time>2021-12-29T15:02:08Z</time>
      </trkpt>
      <trkpt lat="44.54173" lon="5.78356">
        <ele>854</ele>
        <time>2021-12-29T15:02:11Z</time>
      </trkpt>
      <trkpt lat="44.54181" lon="5.78368">
        <ele>853</ele>
        <time>2021-12-29T15:02:13Z</time>
      </trkpt>
      <trkpt lat="44.54214" lon="5.78397">
        <ele>845</ele>
        <time>2021-12-29T15:02:20Z</time>
      </trkpt>
      <trkpt lat="44.54221" lon="5.78408">
        <ele>844</ele>
        <time>2021-12-29T15:02:22Z</time>
      </trkpt>
      <trkpt lat="44.54227" lon="5.78422">
        <ele>843</ele>
        <time>2021-12-29T15:02:24Z</time>
      </trkpt>
      <trkpt lat="44.5424" lon="5.78471">
        <ele>844</ele>
        <time>2021-12-29T15:02:30Z</time>
      </trkpt>
      <trkpt lat="44.54246" lon="5.78483">
        <ele>844</ele>
        <time>2021-12-29T15:02:32Z</time>
      </trkpt>
      <trkpt lat="44.54254" lon="5.78491">
        <ele>843</ele>
        <time>2021-12-29T15:02:34Z</time>
      </trkpt>
      <trkpt lat="44.54262" lon="5.78493">
        <ele>843</ele>
        <time>2021-12-29T15:02:36Z</time>
      </trkpt>
      <trkpt lat="44.54271" lon="5.78491">
        <ele>843</ele>
        <time>2021-12-29T15:02:37Z</time>
      </trkpt>
      <trkpt lat="44.54278" lon="5.78486">
        <ele>842</ele>
        <time>2021-12-29T15:02:39Z</time>
      </trkpt>
      <trkpt lat="44.54286" lon="5.78477">
        <ele>841</ele>
        <time>2021-12-29T15:02:40Z</time>
      </trkpt>
      <trkpt lat="44.54298" lon="5.78457">
        <ele>839</ele>
        <time>2021-12-29T15:02:44Z</time>
      </trkpt>
      <trkpt lat="44.54407" lon="5.78269">
        <ele>832</ele>
        <time>2021-12-29T15:03:14Z</time>
      </trkpt>
      <trkpt lat="44.54428" lon="5.78239">
        <ele>829</ele>
        <time>2021-12-29T15:03:20Z</time>
      </trkpt>
      <trkpt lat="44.5444" lon="5.78226">
        <ele>828</ele>
        <time>2021-12-29T15:03:22Z</time>
      </trkpt>
      <trkpt lat="44.5457" lon="5.78104">
        <ele>820</ele>
        <time>2021-12-29T15:03:50Z</time>
      </trkpt>
      <trkpt lat="44.54618" lon="5.78065">
        <ele>819</ele>
        <time>2021-12-29T15:04:00Z</time>
      </trkpt>
      <trkpt lat="44.54718" lon="5.77997">
        <ele>814</ele>
        <time>2021-12-29T15:04:20Z</time>
      </trkpt>
      <trkpt lat="44.54734" lon="5.77983">
        <ele>813</ele>
        <time>2021-12-29T15:04:23Z</time>
      </trkpt>
      <trkpt lat="44.54768" lon="5.77949">
        <ele>811</ele>
        <time>2021-12-29T15:04:31Z</time>
      </trkpt>
      <trkpt lat="44.54782" lon="5.77938">
        <ele>809</ele>
        <time>2021-12-29T15:04:34Z</time>
      </trkpt>
      <trkpt lat="44.54797" lon="5.77929">
        <ele>808</ele>
        <time>2021-12-29T15:04:36Z</time>
      </trkpt>
      <trkpt lat="44.54874" lon="5.77907">
        <ele>809</ele>
        <time>2021-12-29T15:04:50Z</time>
      </trkpt>
      <trkpt lat="44.54896" lon="5.77896">
        <ele>808</ele>
        <time>2021-12-29T15:04:55Z</time>
      </trkpt>
      <trkpt lat="44.54925" lon="5.77879">
        <ele>807</ele>
        <time>2021-12-29T15:05:00Z</time>
      </trkpt>
      <trkpt lat="44.55002" lon="5.77828">
        <ele>805</ele>
        <time>2021-12-29T15:05:15Z</time>
      </trkpt>
      <trkpt lat="44.55105" lon="5.77731">
        <ele>809</ele>
        <time>2021-12-29T15:05:37Z</time>
      </trkpt>
      <trkpt lat="44.55115" lon="5.7772">
        <ele>811</ele>
        <time>2021-12-29T15:05:40Z</time>
      </trkpt>
      <trkpt lat="44.5515" lon="5.7766">
        <ele>808</ele>
        <time>2021-12-29T15:05:50Z</time>
      </trkpt>
      <trkpt lat="44.55156" lon="5.77651">
        <ele>809</ele>
        <time>2021-12-29T15:05:51Z</time>
      </trkpt>
      <trkpt lat="44.55168" lon="5.77631">
        <ele>809</ele>
        <time>2021-12-29T15:05:54Z</time>
      </trkpt>
      <trkpt lat="44.55171" lon="5.77617">
        <ele>810</ele>
        <time>2021-12-29T15:05:56Z</time>
      </trkpt>
      <trkpt lat="44.55171" lon="5.77607">
        <ele>809</ele>
        <time>2021-12-29T15:05:58Z</time>
      </trkpt>
      <trkpt lat="44.55164" lon="5.7758">
        <ele>805</ele>
        <time>2021-12-29T15:06:01Z</time>
      </trkpt>
      <trkpt lat="44.55174" lon="5.77565">
        <ele>809</ele>
        <time>2021-12-29T15:06:04Z</time>
      </trkpt>
      <trkpt lat="44.55179" lon="5.77551">
        <ele>812</ele>
        <time>2021-12-29T15:06:06Z</time>
      </trkpt>
      <trkpt lat="44.55194" lon="5.77485">
        <ele>820</ele>
        <time>2021-12-29T15:06:15Z</time>
      </trkpt>
      <trkpt lat="44.55198" lon="5.77441">
        <ele>821</ele>
        <time>2021-12-29T15:06:20Z</time>
      </trkpt>
      <trkpt lat="44.55196" lon="5.77417">
        <ele>820</ele>
        <time>2021-12-29T15:06:23Z</time>
      </trkpt>
      <trkpt lat="44.55192" lon="5.77392">
        <ele>820</ele>
        <time>2021-12-29T15:06:26Z</time>
      </trkpt>
      <trkpt lat="44.55194" lon="5.77371">
        <ele>821</ele>
        <time>2021-12-29T15:06:29Z</time>
      </trkpt>
      <trkpt lat="44.55199" lon="5.77355">
        <ele>822</ele>
        <time>2021-12-29T15:06:31Z</time>
      </trkpt>
      <trkpt lat="44.55227" lon="5.77296">
        <ele>821</ele>
        <time>2021-12-29T15:06:40Z</time>
      </trkpt>
      <trkpt lat="44.55233" lon="5.77274">
        <ele>818</ele>
        <time>2021-12-29T15:06:43Z</time>
      </trkpt>
      <trkpt lat="44.55321" lon="5.76756">
        <ele>810</ele>
        <time>2021-12-29T15:07:51Z</time>
      </trkpt>
      <trkpt lat="44.5533" lon="5.76728">
        <ele>809</ele>
        <time>2021-12-29T15:07:55Z</time>
      </trkpt>
      <trkpt lat="44.55342" lon="5.76709">
        <ele>809</ele>
        <time>2021-12-29T15:07:58Z</time>
      </trkpt>
      <trkpt lat="44.55358" lon="5.76694">
        <ele>809</ele>
        <time>2021-12-29T15:08:01Z</time>
      </trkpt>
      <trkpt lat="44.55374" lon="5.76685">
        <ele>809</ele>
        <time>2021-12-29T15:08:04Z</time>
      </trkpt>
      <trkpt lat="44.55392" lon="5.76683">
        <ele>809</ele>
        <time>2021-12-29T15:08:08Z</time>
      </trkpt>
      <trkpt lat="44.55404" lon="5.76684">
        <ele>810</ele>
        <time>2021-12-29T15:08:10Z</time>
      </trkpt>
      <trkpt lat="44.55426" lon="5.76692">
        <ele>811</ele>
        <time>2021-12-29T15:08:14Z</time>
      </trkpt>
      <trkpt lat="44.55499" lon="5.76722">
        <ele>807</ele>
        <time>2021-12-29T15:08:27Z</time>
      </trkpt>
      <trkpt lat="44.5552" lon="5.76729">
        <ele>807</ele>
        <time>2021-12-29T15:08:31Z</time>
      </trkpt>
      <trkpt lat="44.55558" lon="5.76734">
        <ele>809</ele>
        <time>2021-12-29T15:08:38Z</time>
      </trkpt>
      <trkpt lat="44.55577" lon="5.7673">
        <ele>810</ele>
        <time>2021-12-29T15:08:41Z</time>
      </trkpt>
      <trkpt lat="44.55614" lon="5.7671">
        <ele>812</ele>
        <time>2021-12-29T15:08:49Z</time>
      </trkpt>
      <trkpt lat="44.55694" lon="5.76644">
        <ele>815</ele>
        <time>2021-12-29T15:09:05Z</time>
      </trkpt>
      <trkpt lat="44.55727" lon="5.76624">
        <ele>817</ele>
        <time>2021-12-29T15:09:11Z</time>
      </trkpt>
      <trkpt lat="44.55767" lon="5.76611">
        <ele>817</ele>
        <time>2021-12-29T15:09:19Z</time>
      </trkpt>
      <trkpt lat="44.5602" lon="5.76549">
        <ele>818</ele>
        <time>2021-12-29T15:10:04Z</time>
      </trkpt>
      <trkpt lat="44.56042" lon="5.76541">
        <ele>821</ele>
        <time>2021-12-29T15:10:08Z</time>
      </trkpt>
      <trkpt lat="44.56057" lon="5.76532">
        <ele>821</ele>
        <time>2021-12-29T15:10:11Z</time>
      </trkpt>
      <trkpt lat="44.56084" lon="5.76504">
        <ele>817</ele>
        <time>2021-12-29T15:10:17Z</time>
      </trkpt>
      <trkpt lat="44.56386" lon="5.76038">
        <ele>820</ele>
        <time>2021-12-29T15:11:37Z</time>
      </trkpt>
      <trkpt lat="44.56412" lon="5.76004">
        <ele>819</ele>
        <time>2021-12-29T15:11:44Z</time>
      </trkpt>
      <trkpt lat="44.56428" lon="5.75988">
        <ele>822</ele>
        <time>2021-12-29T15:11:47Z</time>
      </trkpt>
      <trkpt lat="44.56443" lon="5.75969">
        <ele>826</ele>
        <time>2021-12-29T15:11:51Z</time>
      </trkpt>
      <trkpt lat="44.56504" lon="5.75844">
        <ele>827</ele>
        <time>2021-12-29T15:12:10Z</time>
      </trkpt>
      <trkpt lat="44.56517" lon="5.75809">
        <ele>827</ele>
        <time>2021-12-29T15:12:15Z</time>
      </trkpt>
      <trkpt lat="44.56565" lon="5.75647">
        <ele>827</ele>
        <time>2021-12-29T15:12:37Z</time>
      </trkpt>
      <trkpt lat="44.56578" lon="5.75613">
        <ele>828</ele>
        <time>2021-12-29T15:12:42Z</time>
      </trkpt>
      <trkpt lat="44.56604" lon="5.75557">
        <ele>830</ele>
        <time>2021-12-29T15:12:50Z</time>
      </trkpt>
      <trkpt lat="44.56641" lon="5.75488">
        <ele>831</ele>
        <time>2021-12-29T15:13:01Z</time>
      </trkpt>
      <trkpt lat="44.56654" lon="5.75452">
        <ele>832</ele>
        <time>2021-12-29T15:13:06Z</time>
      </trkpt>
      <trkpt lat="44.56664" lon="5.75404">
        <ele>834</ele>
        <time>2021-12-29T15:13:13Z</time>
      </trkpt>
      <trkpt lat="44.56721" lon="5.74929">
        <ele>839</ele>
        <time>2021-12-29T15:14:14Z</time>
      </trkpt>
      <trkpt lat="44.56723" lon="5.74895">
        <ele>838</ele>
        <time>2021-12-29T15:14:18Z</time>
      </trkpt>
      <trkpt lat="44.56724" lon="5.74859">
        <ele>837</ele>
        <time>2021-12-29T15:14:23Z</time>
      </trkpt>
      <trkpt lat="44.56722" lon="5.74803">
        <ele>836</ele>
        <time>2021-12-29T15:14:30Z</time>
      </trkpt>
      <trkpt lat="44.56706" lon="5.74382">
        <ele>845</ele>
        <time>2021-12-29T15:15:23Z</time>
      </trkpt>
      <trkpt lat="44.56699" lon="5.74236">
        <ele>841</ele>
        <time>2021-12-29T15:15:42Z</time>
      </trkpt>
      <trkpt lat="44.56699" lon="5.74137">
        <ele>842</ele>
        <time>2021-12-29T15:15:54Z</time>
      </trkpt>
      <trkpt lat="44.56701" lon="5.74057">
        <ele>842</ele>
        <time>2021-12-29T15:16:05Z</time>
      </trkpt>
      <trkpt lat="44.56705" lon="5.74025">
        <ele>842</ele>
        <time>2021-12-29T15:16:09Z</time>
      </trkpt>
      <trkpt lat="44.56716" lon="5.73991">
        <ele>843</ele>
        <time>2021-12-29T15:16:13Z</time>
      </trkpt>
      <trkpt lat="44.56722" lon="5.73964">
        <ele>843</ele>
        <time>2021-12-29T15:16:17Z</time>
      </trkpt>
      <trkpt lat="44.56724" lon="5.7395">
        <ele>844</ele>
        <time>2021-12-29T15:16:19Z</time>
      </trkpt>
      <trkpt lat="44.56723" lon="5.73935">
        <ele>843</ele>
        <time>2021-12-29T15:16:21Z</time>
      </trkpt>
      <trkpt lat="44.56703" lon="5.73871">
        <ele>840</ele>
        <time>2021-12-29T15:16:30Z</time>
      </trkpt>
      <trkpt lat="44.56701" lon="5.73844">
        <ele>839</ele>
        <time>2021-12-29T15:16:33Z</time>
      </trkpt>
      <trkpt lat="44.56703" lon="5.7383">
        <ele>839</ele>
        <time>2021-12-29T15:16:35Z</time>
      </trkpt>
      <trkpt lat="44.56707" lon="5.73816">
        <ele>839</ele>
        <time>2021-12-29T15:16:37Z</time>
      </trkpt>
      <trkpt lat="44.56713" lon="5.73805">
        <ele>839</ele>
        <time>2021-12-29T15:16:39Z</time>
      </trkpt>
      <trkpt lat="44.56739" lon="5.73775">
        <ele>839</ele>
        <time>2021-12-29T15:16:44Z</time>
      </trkpt>
      <trkpt lat="44.56778" lon="5.73737">
        <ele>839</ele>
        <time>2021-12-29T15:16:53Z</time>
      </trkpt>
      <trkpt lat="44.56773" lon="5.73715">
        <ele>838</ele>
        <time>2021-12-29T15:16:56Z</time>
      </trkpt>
      <trkpt lat="44.5677" lon="5.73686">
        <ele>838</ele>
        <time>2021-12-29T15:17:00Z</time>
      </trkpt>
      <trkpt lat="44.56768" lon="5.73646">
        <ele>837</ele>
        <time>2021-12-29T15:17:05Z</time>
      </trkpt>
      <trkpt lat="44.5677" lon="5.73362">
        <ele>842</ele>
        <time>2021-12-29T15:17:41Z</time>
      </trkpt>
      <trkpt lat="44.56775" lon="5.73277">
        <ele>846</ele>
        <time>2021-12-29T15:17:51Z</time>
      </trkpt>
      <trkpt lat="44.56786" lon="5.73201">
        <ele>849</ele>
        <time>2021-12-29T15:18:01Z</time>
      </trkpt>
      <trkpt lat="44.56807" lon="5.73149">
        <ele>849</ele>
        <time>2021-12-29T15:18:09Z</time>
      </trkpt>
      <trkpt lat="44.56842" lon="5.73097">
        <ele>849</ele>
        <time>2021-12-29T15:18:18Z</time>
      </trkpt>
      <trkpt lat="44.5686" lon="5.73067">
        <ele>852</ele>
        <time>2021-12-29T15:18:23Z</time>
      </trkpt>
      <trkpt lat="44.56875" lon="5.73008">
        <ele>855</ele>
        <time>2021-12-29T15:18:31Z</time>
      </trkpt>
      <trkpt lat="44.56878" lon="5.72944">
        <ele>856</ele>
        <time>2021-12-29T15:18:39Z</time>
      </trkpt>
      <trkpt lat="44.56872" lon="5.72888">
        <ele>856</ele>
        <time>2021-12-29T15:18:46Z</time>
      </trkpt>
      <trkpt lat="44.56843" lon="5.72781">
        <ele>854</ele>
        <time>2021-12-29T15:19:01Z</time>
      </trkpt>
      <trkpt lat="44.56825" lon="5.72726">
        <ele>853</ele>
        <time>2021-12-29T15:19:08Z</time>
      </trkpt>
      <trkpt lat="44.56821" lon="5.72694">
        <ele>853</ele>
        <time>2021-12-29T15:19:12Z</time>
      </trkpt>
      <trkpt lat="44.56836" lon="5.72574">
        <ele>854</ele>
        <time>2021-12-29T15:19:28Z</time>
      </trkpt>
      <trkpt lat="44.56854" lon="5.72458">
        <ele>859</ele>
        <time>2021-12-29T15:19:43Z</time>
      </trkpt>
      <trkpt lat="44.56857" lon="5.72263">
        <ele>867</ele>
        <time>2021-12-29T15:20:08Z</time>
      </trkpt>
      <trkpt lat="44.56896" lon="5.72183">
        <ele>872</ele>
        <time>2021-12-29T15:20:20Z</time>
      </trkpt>
      <trkpt lat="44.5691" lon="5.72131">
        <ele>870</ele>
        <time>2021-12-29T15:20:27Z</time>
      </trkpt>
      <trkpt lat="44.56927" lon="5.7208">
        <ele>871</ele>
        <time>2021-12-29T15:20:34Z</time>
      </trkpt>
      <trkpt lat="44.56964" lon="5.72016">
        <ele>880</ele>
        <time>2021-12-29T15:20:45Z</time>
      </trkpt>
      <trkpt lat="44.57003" lon="5.71926">
        <ele>878</ele>
        <time>2021-12-29T15:20:58Z</time>
      </trkpt>
      <trkpt lat="44.57048" lon="5.71869">
        <ele>885</ele>
        <time>2021-12-29T15:21:09Z</time>
      </trkpt>
      <trkpt lat="44.57106" lon="5.7182">
        <ele>892</ele>
        <time>2021-12-29T15:21:21Z</time>
      </trkpt>
      <trkpt lat="44.57223" lon="5.7166">
        <ele>891</ele>
        <time>2021-12-29T15:21:50Z</time>
      </trkpt>
      <trkpt lat="44.57279" lon="5.71566">
        <ele>896</ele>
        <time>2021-12-29T15:22:05Z</time>
      </trkpt>
      <trkpt lat="44.57316" lon="5.71519">
        <ele>905</ele>
        <time>2021-12-29T15:22:14Z</time>
      </trkpt>
      <trkpt lat="44.57348" lon="5.71263">
        <ele>907</ele>
        <time>2021-12-29T15:22:47Z</time>
      </trkpt>
      <trkpt lat="44.57343" lon="5.71213">
        <ele>908</ele>
        <time>2021-12-29T15:22:54Z</time>
      </trkpt>
      <trkpt lat="44.57321" lon="5.71179">
        <ele>907</ele>
        <time>2021-12-29T15:22:59Z</time>
      </trkpt>
      <trkpt lat="44.57315" lon="5.71154">
        <ele>910</ele>
        <time>2021-12-29T15:23:03Z</time>
      </trkpt>
      <trkpt lat="44.57318" lon="5.71097">
        <ele>916</ele>
        <time>2021-12-29T15:23:10Z</time>
      </trkpt>
      <trkpt lat="44.57322" lon="5.71051">
        <ele>922</ele>
        <time>2021-12-29T15:23:16Z</time>
      </trkpt>
      <trkpt lat="44.5736" lon="5.70948">
        <ele>939</ele>
        <time>2021-12-29T15:23:31Z</time>
      </trkpt>
      <trkpt lat="44.57376" lon="5.70931">
        <ele>939</ele>
        <time>2021-12-29T15:23:34Z</time>
      </trkpt>
      <trkpt lat="44.57402" lon="5.70921">
        <ele>935</ele>
        <time>2021-12-29T15:23:39Z</time>
      </trkpt>
      <trkpt lat="44.57423" lon="5.7091">
        <ele>934</ele>
        <time>2021-12-29T15:23:43Z</time>
      </trkpt>
      <trkpt lat="44.57455" lon="5.70874">
        <ele>937</ele>
        <time>2021-12-29T15:23:50Z</time>
      </trkpt>
      <trkpt lat="44.57568" lon="5.70732">
        <ele>942</ele>
        <time>2021-12-29T15:24:17Z</time>
      </trkpt>
      <trkpt lat="44.57592" lon="5.70673">
        <ele>935</ele>
        <time>2021-12-29T15:24:26Z</time>
      </trkpt>
      <trkpt lat="44.57608" lon="5.7064">
        <ele>936</ele>
        <time>2021-12-29T15:24:31Z</time>
      </trkpt>
      <trkpt lat="44.57629" lon="5.70612">
        <ele>937</ele>
        <time>2021-12-29T15:24:36Z</time>
      </trkpt>
      <trkpt lat="44.57684" lon="5.70566">
        <ele>937</ele>
        <time>2021-12-29T15:24:47Z</time>
      </trkpt>
      <trkpt lat="44.57709" lon="5.70555">
        <ele>940</ele>
        <time>2021-12-29T15:24:52Z</time>
      </trkpt>
      <trkpt lat="44.57765" lon="5.7054">
        <ele>944</ele>
        <time>2021-12-29T15:25:02Z</time>
      </trkpt>
      <trkpt lat="44.57797" lon="5.70528">
        <ele>947</ele>
        <time>2021-12-29T15:25:08Z</time>
      </trkpt>
      <trkpt lat="44.5782" lon="5.70509">
        <ele>945</ele>
        <time>2021-12-29T15:25:13Z</time>
      </trkpt>
      <trkpt lat="44.57828" lon="5.70495">
        <ele>943</ele>
        <time>2021-12-29T15:25:15Z</time>
      </trkpt>
      <trkpt lat="44.57851" lon="5.70428">
        <ele>940</ele>
        <time>2021-12-29T15:25:25Z</time>
      </trkpt>
      <trkpt lat="44.57862" lon="5.70403">
        <ele>942</ele>
        <time>2021-12-29T15:25:28Z</time>
      </trkpt>
      <trkpt lat="44.57882" lon="5.70379">
        <ele>945</ele>
        <time>2021-12-29T15:25:33Z</time>
      </trkpt>
      <trkpt lat="44.5789" lon="5.70364">
        <ele>946</ele>
        <time>2021-12-29T15:25:35Z</time>
      </trkpt>
      <trkpt lat="44.57909" lon="5.70316">
        <ele>944</ele>
        <time>2021-12-29T15:25:42Z</time>
      </trkpt>
      <trkpt lat="44.57983" lon="5.70093">
        <ele>949</ele>
        <time>2021-12-29T15:26:14Z</time>
      </trkpt>
      <trkpt lat="44.57994" lon="5.70069">
        <ele>947</ele>
        <time>2021-12-29T15:26:17Z</time>
      </trkpt>
      <trkpt lat="44.58035" lon="5.70016">
        <ele>953</ele>
        <time>2021-12-29T15:26:27Z</time>
      </trkpt>
      <trkpt lat="44.58054" lon="5.69984">
        <ele>954</ele>
        <time>2021-12-29T15:26:32Z</time>
      </trkpt>
      <trkpt lat="44.5807" lon="5.69944">
        <ele>953</ele>
        <time>2021-12-29T15:26:38Z</time>
      </trkpt>
      <trkpt lat="44.58085" lon="5.69898">
        <ele>950</ele>
        <time>2021-12-29T15:26:45Z</time>
      </trkpt>
      <trkpt lat="44.58107" lon="5.69862">
        <ele>953</ele>
        <time>2021-12-29T15:26:51Z</time>
      </trkpt>
      <trkpt lat="44.58158" lon="5.69794">
        <ele>952</ele>
        <time>2021-12-29T15:27:03Z</time>
      </trkpt>
      <trkpt lat="44.58215" lon="5.69749">
        <ele>947</ele>
        <time>2021-12-29T15:27:15Z</time>
      </trkpt>
      <trkpt lat="44.58321" lon="5.69631">
        <ele>952</ele>
        <time>2021-12-29T15:27:39Z</time>
      </trkpt>
      <trkpt lat="44.58342" lon="5.69599">
        <ele>954</ele>
        <time>2021-12-29T15:27:44Z</time>
      </trkpt>
      <trkpt lat="44.58388" lon="5.69514">
        <ele>956</ele>
        <time>2021-12-29T15:27:58Z</time>
      </trkpt>
      <trkpt lat="44.5849" lon="5.6934">
        <ele>956</ele>
        <time>2021-12-29T15:28:26Z</time>
      </trkpt>
      <trkpt lat="44.58502" lon="5.693">
        <ele>955</ele>
        <time>2021-12-29T15:28:32Z</time>
      </trkpt>
      <trkpt lat="44.58507" lon="5.69226">
        <ele>953</ele>
        <time>2021-12-29T15:28:41Z</time>
      </trkpt>
      <trkpt lat="44.58515" lon="5.69201">
        <ele>956</ele>
        <time>2021-12-29T15:28:45Z</time>
      </trkpt>
      <trkpt lat="44.58538" lon="5.69149">
        <ele>964</ele>
        <time>2021-12-29T15:28:53Z</time>
      </trkpt>
      <trkpt lat="44.58552" lon="5.69087">
        <ele>963</ele>
        <time>2021-12-29T15:29:01Z</time>
      </trkpt>
      <trkpt lat="44.58561" lon="5.6902">
        <ele>960</ele>
        <time>2021-12-29T15:29:09Z</time>
      </trkpt>
      <trkpt lat="44.58576" lon="5.68955">
        <ele>959</ele>
        <time>2021-12-29T15:29:18Z</time>
      </trkpt>
      <trkpt lat="44.58613" lon="5.68855">
        <ele>963</ele>
        <time>2021-12-29T15:29:32Z</time>
      </trkpt>
      <trkpt lat="44.58671" lon="5.68682">
        <ele>962</ele>
        <time>2021-12-29T15:29:57Z</time>
      </trkpt>
      <trkpt lat="44.58688" lon="5.68648">
        <ele>964</ele>
        <time>2021-12-29T15:30:02Z</time>
      </trkpt>
      <trkpt lat="44.58709" lon="5.6862">
        <ele>966</ele>
        <time>2021-12-29T15:30:07Z</time>
      </trkpt>
      <trkpt lat="44.58801" lon="5.6854">
        <ele>974</ele>
        <time>2021-12-29T15:30:26Z</time>
      </trkpt>
      <trkpt lat="44.5886" lon="5.68481">
        <ele>977</ele>
        <time>2021-12-29T15:30:39Z</time>
      </trkpt>
      <trkpt lat="44.5893" lon="5.68393">
        <ele>979</ele>
        <time>2021-12-29T15:30:56Z</time>
      </trkpt>
      <trkpt lat="44.58947" lon="5.68378">
        <ele>981</ele>
        <time>2021-12-29T15:30:59Z</time>
      </trkpt>
      <trkpt lat="44.59023" lon="5.68336">
        <ele>983</ele>
        <time>2021-12-29T15:31:14Z</time>
      </trkpt>
      <trkpt lat="44.59058" lon="5.68313">
        <ele>984</ele>
        <time>2021-12-29T15:31:21Z</time>
      </trkpt>
      <trkpt lat="44.591" lon="5.68273">
        <ele>986</ele>
        <time>2021-12-29T15:31:30Z</time>
      </trkpt>
      <trkpt lat="44.59132" lon="5.68234">
        <ele>987</ele>
        <time>2021-12-29T15:31:37Z</time>
      </trkpt>
      <trkpt lat="44.59153" lon="5.68183">
        <ele>986</ele>
        <time>2021-12-29T15:31:45Z</time>
      </trkpt>
      <trkpt lat="44.59175" lon="5.68142">
        <ele>985</ele>
        <time>2021-12-29T15:31:51Z</time>
      </trkpt>
      <trkpt lat="44.59189" lon="5.681">
        <ele>985</ele>
        <time>2021-12-29T15:31:57Z</time>
      </trkpt>
      <trkpt lat="44.59242" lon="5.6793">
        <ele>986</ele>
        <time>2021-12-29T15:32:21Z</time>
      </trkpt>
      <trkpt lat="44.59274" lon="5.67863">
        <ele>990</ele>
        <time>2021-12-29T15:32:31Z</time>
      </trkpt>
      <trkpt lat="44.59282" lon="5.67836">
        <ele>990</ele>
        <time>2021-12-29T15:32:35Z</time>
      </trkpt>
      <trkpt lat="44.59306" lon="5.67711">
        <ele>993</ele>
        <time>2021-12-29T15:32:51Z</time>
      </trkpt>
      <trkpt lat="44.59306" lon="5.67686">
        <ele>993</ele>
        <time>2021-12-29T15:32:54Z</time>
      </trkpt>
      <trkpt lat="44.59296" lon="5.6765">
        <ele>994</ele>
        <time>2021-12-29T15:32:59Z</time>
      </trkpt>
      <trkpt lat="44.59294" lon="5.67624">
        <ele>996</ele>
        <time>2021-12-29T15:33:02Z</time>
      </trkpt>
      <trkpt lat="44.59297" lon="5.67561">
        <ele>1004</ele>
        <time>2021-12-29T15:33:10Z</time>
      </trkpt>
      <trkpt lat="44.59296" lon="5.67539">
        <ele>1006</ele>
        <time>2021-12-29T15:33:13Z</time>
      </trkpt>
      <trkpt lat="44.59288" lon="5.67518">
        <ele>1006</ele>
        <time>2021-12-29T15:33:16Z</time>
      </trkpt>
      <trkpt lat="44.59277" lon="5.67507">
        <ele>1005</ele>
        <time>2021-12-29T15:33:19Z</time>
      </trkpt>
      <trkpt lat="44.59255" lon="5.67493">
        <ele>1001</ele>
        <time>2021-12-29T15:33:23Z</time>
      </trkpt>
      <trkpt lat="44.59248" lon="5.67487">
        <ele>1000</ele>
        <time>2021-12-29T15:33:24Z</time>
      </trkpt>
      <trkpt lat="44.59243" lon="5.67471">
        <ele>1002</ele>
        <time>2021-12-29T15:33:27Z</time>
      </trkpt>
      <trkpt lat="44.5924" lon="5.67452">
        <ele>1003</ele>
        <time>2021-12-29T15:33:29Z</time>
      </trkpt>
      <trkpt lat="44.59246" lon="5.67353">
        <ele>1000</ele>
        <time>2021-12-29T15:33:42Z</time>
      </trkpt>
      <trkpt lat="44.59247" lon="5.67272">
        <ele>998</ele>
        <time>2021-12-29T15:33:52Z</time>
      </trkpt>
      <trkpt lat="44.59223" lon="5.67169">
        <ele>1004</ele>
        <time>2021-12-29T15:34:06Z</time>
      </trkpt>
      <trkpt lat="44.5919" lon="5.6703">
        <ele>1006</ele>
        <time>2021-12-29T15:34:24Z</time>
      </trkpt>
      <trkpt lat="44.59123" lon="5.66774">
        <ele>1021</ele>
        <time>2021-12-29T15:34:59Z</time>
      </trkpt>
      <trkpt lat="44.5912" lon="5.66695">
        <ele>1023</ele>
        <time>2021-12-29T15:35:09Z</time>
      </trkpt>
      <trkpt lat="44.59096" lon="5.66595">
        <ele>1016</ele>
        <time>2021-12-29T15:35:22Z</time>
      </trkpt>
      <trkpt lat="44.59091" lon="5.66558">
        <ele>1016</ele>
        <time>2021-12-29T15:35:27Z</time>
      </trkpt>
      <trkpt lat="44.59092" lon="5.66509">
        <ele>1019</ele>
        <time>2021-12-29T15:35:33Z</time>
      </trkpt>
      <trkpt lat="44.59101" lon="5.66477">
        <ele>1021</ele>
        <time>2021-12-29T15:35:38Z</time>
      </trkpt>
      <trkpt lat="44.59134" lon="5.66438">
        <ele>1024</ele>
        <time>2021-12-29T15:35:45Z</time>
      </trkpt>
      <trkpt lat="44.59136" lon="5.66425">
        <ele>1022</ele>
        <time>2021-12-29T15:35:47Z</time>
      </trkpt>
      <trkpt lat="44.59133" lon="5.66409">
        <ele>1020</ele>
        <time>2021-12-29T15:35:49Z</time>
      </trkpt>
      <trkpt lat="44.59104" lon="5.66361">
        <ele>1019</ele>
        <time>2021-12-29T15:35:57Z</time>
      </trkpt>
      <trkpt lat="44.59094" lon="5.6635">
        <ele>1019</ele>
        <time>2021-12-29T15:35:59Z</time>
      </trkpt>
      <trkpt lat="44.59066" lon="5.66331">
        <ele>1018</ele>
        <time>2021-12-29T15:36:05Z</time>
      </trkpt>
      <trkpt lat="44.59027" lon="5.66283">
        <ele>1022</ele>
        <time>2021-12-29T15:36:14Z</time>
      </trkpt>
      <trkpt lat="44.59006" lon="5.6627">
        <ele>1022</ele>
        <time>2021-12-29T15:36:18Z</time>
      </trkpt>
      <trkpt lat="44.58986" lon="5.6625">
        <ele>1023</ele>
        <time>2021-12-29T15:36:22Z</time>
      </trkpt>
      <trkpt lat="44.5897" lon="5.66189">
        <ele>1031</ele>
        <time>2021-12-29T15:36:31Z</time>
      </trkpt>
      <trkpt lat="44.58944" lon="5.66138">
        <ele>1035</ele>
        <time>2021-12-29T15:36:39Z</time>
      </trkpt>
      <trkpt lat="44.58896" lon="5.66082">
        <ele>1039</ele>
        <time>2021-12-29T15:36:50Z</time>
      </trkpt>
      <trkpt lat="44.58872" lon="5.66026">
        <ele>1044</ele>
        <time>2021-12-29T15:36:58Z</time>
      </trkpt>
      <trkpt lat="44.58866" lon="5.66005">
        <ele>1047</ele>
        <time>2021-12-29T15:37:01Z</time>
      </trkpt>
      <trkpt lat="44.58868" lon="5.65992">
        <ele>1049</ele>
        <time>2021-12-29T15:37:03Z</time>
      </trkpt>
      <trkpt lat="44.58875" lon="5.65996">
        <ele>1050</ele>
        <time>2021-12-29T15:37:04Z</time>
      </trkpt>
      <trkpt lat="44.58884" lon="5.66007">
        <ele>1050</ele>
        <time>2021-12-29T15:37:06Z</time>
      </trkpt>
      <trkpt lat="44.58901" lon="5.66019">
        <ele>1051</ele>
        <time>2021-12-29T15:37:09Z</time>
      </trkpt>
      <trkpt lat="44.58915" lon="5.66024">
        <ele>1053</ele>
        <time>2021-12-29T15:37:12Z</time>
      </trkpt>
      <trkpt lat="44.58951" lon="5.66028">
        <ele>1056</ele>
        <time>2021-12-29T15:37:18Z</time>
      </trkpt>
      <trkpt lat="44.58966" lon="5.66035">
        <ele>1057</ele>
        <time>2021-12-29T15:37:21Z</time>
      </trkpt>
      <trkpt lat="44.58974" lon="5.6605">
        <ele>1055</ele>
        <time>2021-12-29T15:37:24Z</time>
      </trkpt>
      <trkpt lat="44.58985" lon="5.66052">
        <ele>1056</ele>
        <time>2021-12-29T15:37:26Z</time>
      </trkpt>
      <trkpt lat="44.58991" lon="5.66048">
        <ele>1058</ele>
        <time>2021-12-29T15:37:27Z</time>
      </trkpt>
      <trkpt lat="44.58984" lon="5.66028">
        <ele>1060</ele>
        <time>2021-12-29T15:37:30Z</time>
      </trkpt>
      <trkpt lat="44.58974" lon="5.66022">
        <ele>1060</ele>
        <time>2021-12-29T15:37:32Z</time>
      </trkpt>
      <trkpt lat="44.58948" lon="5.65994">
        <ele>1062</ele>
        <time>2021-12-29T15:37:37Z</time>
      </trkpt>
      <trkpt lat="44.58901" lon="5.6593">
        <ele>1066</ele>
        <time>2021-12-29T15:37:49Z</time>
      </trkpt>
      <trkpt lat="44.58875" lon="5.65885">
        <ele>1068</ele>
        <time>2021-12-29T15:37:56Z</time>
      </trkpt>
      <trkpt lat="44.58793" lon="5.65698">
        <ele>1086</ele>
        <time>2021-12-29T15:38:24Z</time>
      </trkpt>
      <trkpt lat="44.5877" lon="5.65664">
        <ele>1088</ele>
        <time>2021-12-29T15:38:30Z</time>
      </trkpt>
      <trkpt lat="44.58743" lon="5.6563">
        <ele>1089</ele>
        <time>2021-12-29T15:38:37Z</time>
      </trkpt>
      <trkpt lat="44.58724" lon="5.65614">
        <ele>1089</ele>
        <time>2021-12-29T15:38:41Z</time>
      </trkpt>
      <trkpt lat="44.58708" lon="5.65607">
        <ele>1089</ele>
        <time>2021-12-29T15:38:44Z</time>
      </trkpt>
      <trkpt lat="44.58683" lon="5.6559">
        <ele>1089</ele>
        <time>2021-12-29T15:38:48Z</time>
      </trkpt>
      <trkpt lat="44.58669" lon="5.65558">
        <ele>1090</ele>
        <time>2021-12-29T15:38:53Z</time>
      </trkpt>
      <trkpt lat="44.58673" lon="5.65505">
        <ele>1094</ele>
        <time>2021-12-29T15:39:00Z</time>
      </trkpt>
      <trkpt lat="44.5867" lon="5.65472">
        <ele>1096</ele>
        <time>2021-12-29T15:39:04Z</time>
      </trkpt>
      <trkpt lat="44.58666" lon="5.65441">
        <ele>1097</ele>
        <time>2021-12-29T15:39:08Z</time>
      </trkpt>
      <trkpt lat="44.58655" lon="5.65397">
        <ele>1099</ele>
        <time>2021-12-29T15:39:14Z</time>
      </trkpt>
      <trkpt lat="44.58615" lon="5.65318">
        <ele>1100</ele>
        <time>2021-12-29T15:39:26Z</time>
      </trkpt>
      <trkpt lat="44.58613" lon="5.65298">
        <ele>1103</ele>
        <time>2021-12-29T15:39:29Z</time>
      </trkpt>
      <trkpt lat="44.58606" lon="5.6528">
        <ele>1104</ele>
        <time>2021-12-29T15:39:32Z</time>
      </trkpt>
      <trkpt lat="44.58594" lon="5.65265">
        <ele>1105</ele>
        <time>2021-12-29T15:39:34Z</time>
      </trkpt>
      <trkpt lat="44.58575" lon="5.6525">
        <ele>1105</ele>
        <time>2021-12-29T15:39:38Z</time>
      </trkpt>
      <trkpt lat="44.58527" lon="5.65235">
        <ele>1103</ele>
        <time>2021-12-29T15:39:47Z</time>
      </trkpt>
      <trkpt lat="44.58517" lon="5.65222">
        <ele>1103</ele>
        <time>2021-12-29T15:39:49Z</time>
      </trkpt>
      <trkpt lat="44.58492" lon="5.65167">
        <ele>1105</ele>
        <time>2021-12-29T15:39:58Z</time>
      </trkpt>
      <trkpt lat="44.58474" lon="5.65145">
        <ele>1105</ele>
        <time>2021-12-29T15:40:02Z</time>
      </trkpt>
      <trkpt lat="44.58454" lon="5.65115">
        <ele>1106</ele>
        <time>2021-12-29T15:40:07Z</time>
      </trkpt>
      <trkpt lat="44.58432" lon="5.65003">
        <ele>1114</ele>
        <time>2021-12-29T15:40:22Z</time>
      </trkpt>
      <trkpt lat="44.58421" lon="5.64966">
        <ele>1116</ele>
        <time>2021-12-29T15:40:27Z</time>
      </trkpt>
      <trkpt lat="44.58413" lon="5.64944">
        <ele>1118</ele>
        <time>2021-12-29T15:40:30Z</time>
      </trkpt>
      <trkpt lat="44.58402" lon="5.64931">
        <ele>1118</ele>
        <time>2021-12-29T15:40:33Z</time>
      </trkpt>
      <trkpt lat="44.58391" lon="5.64922">
        <ele>1117</ele>
        <time>2021-12-29T15:40:35Z</time>
      </trkpt>
      <trkpt lat="44.58385" lon="5.64909">
        <ele>1117</ele>
        <time>2021-12-29T15:40:37Z</time>
      </trkpt>
      <trkpt lat="44.58384" lon="5.64892">
        <ele>1118</ele>
        <time>2021-12-29T15:40:39Z</time>
      </trkpt>
      <trkpt lat="44.58385" lon="5.64868">
        <ele>1120</ele>
        <time>2021-12-29T15:40:42Z</time>
      </trkpt>
      <trkpt lat="44.58371" lon="5.64825">
        <ele>1119</ele>
        <time>2021-12-29T15:40:48Z</time>
      </trkpt>
      <trkpt lat="44.58368" lon="5.64811">
        <ele>1119</ele>
        <time>2021-12-29T15:40:50Z</time>
      </trkpt>
      <trkpt lat="44.58368" lon="5.64789">
        <ele>1120</ele>
        <time>2021-12-29T15:40:53Z</time>
      </trkpt>
      <trkpt lat="44.58372" lon="5.64771">
        <ele>1122</ele>
        <time>2021-12-29T15:40:55Z</time>
      </trkpt>
      <trkpt lat="44.58398" lon="5.64697">
        <ele>1131</ele>
        <time>2021-12-29T15:41:06Z</time>
      </trkpt>
      <trkpt lat="44.58398" lon="5.64676">
        <ele>1133</ele>
        <time>2021-12-29T15:41:08Z</time>
      </trkpt>
      <trkpt lat="44.58393" lon="5.64661">
        <ele>1134</ele>
        <time>2021-12-29T15:41:10Z</time>
      </trkpt>
      <trkpt lat="44.58378" lon="5.64638">
        <ele>1138</ele>
        <time>2021-12-29T15:41:14Z</time>
      </trkpt>
      <trkpt lat="44.58366" lon="5.64626">
        <ele>1140</ele>
        <time>2021-12-29T15:41:17Z</time>
      </trkpt>
      <trkpt lat="44.58317" lon="5.64608">
        <ele>1139</ele>
        <time>2021-12-29T15:41:26Z</time>
      </trkpt>
      <trkpt lat="44.58295" lon="5.64572">
        <ele>1148</ele>
        <time>2021-12-29T15:41:32Z</time>
      </trkpt>
      <trkpt lat="44.5828" lon="5.64567">
        <ele>1148</ele>
        <time>2021-12-29T15:41:35Z</time>
      </trkpt>
      <trkpt lat="44.58261" lon="5.64571">
        <ele>1146</ele>
        <time>2021-12-29T15:41:38Z</time>
      </trkpt>
      <trkpt lat="44.58246" lon="5.64569">
        <ele>1146</ele>
        <time>2021-12-29T15:41:41Z</time>
      </trkpt>
      <trkpt lat="44.5819" lon="5.64547">
        <ele>1151</ele>
        <time>2021-12-29T15:41:51Z</time>
      </trkpt>
      <trkpt lat="44.58162" lon="5.64545">
        <ele>1151</ele>
        <time>2021-12-29T15:41:56Z</time>
      </trkpt>
      <trkpt lat="44.58143" lon="5.64537">
        <ele>1154</ele>
        <time>2021-12-29T15:42:00Z</time>
      </trkpt>
      <trkpt lat="44.58128" lon="5.64523">
        <ele>1158</ele>
        <time>2021-12-29T15:42:03Z</time>
      </trkpt>
      <trkpt lat="44.58113" lon="5.64514">
        <ele>1160</ele>
        <time>2021-12-29T15:42:06Z</time>
      </trkpt>
      <trkpt lat="44.58091" lon="5.64514">
        <ele>1159</ele>
        <time>2021-12-29T15:42:10Z</time>
      </trkpt>
      <trkpt lat="44.58073" lon="5.64511">
        <ele>1158</ele>
        <time>2021-12-29T15:42:13Z</time>
      </trkpt>
      <trkpt lat="44.58046" lon="5.645">
        <ele>1159</ele>
        <time>2021-12-29T15:42:18Z</time>
      </trkpt>
      <trkpt lat="44.5802" lon="5.64482">
        <ele>1161</ele>
        <time>2021-12-29T15:42:23Z</time>
      </trkpt>
      <trkpt lat="44.57995" lon="5.64456">
        <ele>1166</ele>
        <time>2021-12-29T15:42:29Z</time>
      </trkpt>
      <trkpt lat="44.57985" lon="5.64441">
        <ele>1170</ele>
        <time>2021-12-29T15:42:31Z</time>
      </trkpt>
      <trkpt lat="44.57979" lon="5.64439">
        <ele>1171</ele>
        <time>2021-12-29T15:42:32Z</time>
      </trkpt>
      <trkpt lat="44.5796" lon="5.64448">
        <ele>1167</ele>
        <time>2021-12-29T15:42:36Z</time>
      </trkpt>
      <trkpt lat="44.57947" lon="5.64447">
        <ele>1167</ele>
        <time>2021-12-29T15:42:38Z</time>
      </trkpt>
      <trkpt lat="44.57934" lon="5.6444">
        <ele>1169</ele>
        <time>2021-12-29T15:42:41Z</time>
      </trkpt>
      <trkpt lat="44.57904" lon="5.64419">
        <ele>1176</ele>
        <time>2021-12-29T15:42:47Z</time>
      </trkpt>
      <trkpt lat="44.57896" lon="5.64417">
        <ele>1175</ele>
        <time>2021-12-29T15:42:48Z</time>
      </trkpt>
      <trkpt lat="44.57888" lon="5.64419">
        <ele>1174</ele>
        <time>2021-12-29T15:42:49Z</time>
      </trkpt>
      <trkpt lat="44.57872" lon="5.64434">
        <ele>1165</ele>
        <time>2021-12-29T15:42:53Z</time>
      </trkpt>
      <trkpt lat="44.57856" lon="5.64438">
        <ele>1161</ele>
        <time>2021-12-29T15:42:56Z</time>
      </trkpt>
      <trkpt lat="44.57831" lon="5.64432">
        <ele>1160</ele>
        <time>2021-12-29T15:43:00Z</time>
      </trkpt>
      <trkpt lat="44.5782" lon="5.64414">
        <ele>1165</ele>
        <time>2021-12-29T15:43:03Z</time>
      </trkpt>
      <trkpt lat="44.57734" lon="5.64314">
        <ele>1184</ele>
        <time>2021-12-29T15:43:23Z</time>
      </trkpt>
      <trkpt lat="44.57707" lon="5.64302">
        <ele>1181</ele>
        <time>2021-12-29T15:43:28Z</time>
      </trkpt>
      <trkpt lat="44.57695" lon="5.643">
        <ele>1178</ele>
        <time>2021-12-29T15:43:30Z</time>
      </trkpt>
      <trkpt lat="44.57682" lon="5.64287">
        <ele>1179</ele>
        <time>2021-12-29T15:43:33Z</time>
      </trkpt>
      <trkpt lat="44.57665" lon="5.64265">
        <ele>1181</ele>
        <time>2021-12-29T15:43:37Z</time>
      </trkpt>
      <trkpt lat="44.57645" lon="5.6423">
        <ele>1187</ele>
        <time>2021-12-29T15:43:43Z</time>
      </trkpt>
      <trkpt lat="44.57634" lon="5.64204">
        <ele>1190</ele>
        <time>2021-12-29T15:43:47Z</time>
      </trkpt>
      <trkpt lat="44.57618" lon="5.64159">
        <ele>1193</ele>
        <time>2021-12-29T15:43:53Z</time>
      </trkpt>
      <trkpt lat="44.57576" lon="5.64071">
        <ele>1195</ele>
        <time>2021-12-29T15:44:07Z</time>
      </trkpt>
      <trkpt lat="44.57564" lon="5.64037">
        <ele>1200</ele>
        <time>2021-12-29T15:44:11Z</time>
      </trkpt>
      <trkpt lat="44.57548" lon="5.63979">
        <ele>1204</ele>
        <time>2021-12-29T15:44:19Z</time>
      </trkpt>
      <trkpt lat="44.57533" lon="5.639">
        <ele>1208</ele>
        <time>2021-12-29T15:44:30Z</time>
      </trkpt>
      <trkpt lat="44.57511" lon="5.63826">
        <ele>1209</ele>
        <time>2021-12-29T15:44:40Z</time>
      </trkpt>
      <trkpt lat="44.57491" lon="5.63764">
        <ele>1216</ele>
        <time>2021-12-29T15:44:49Z</time>
      </trkpt>
      <trkpt lat="44.57496" lon="5.63739">
        <ele>1215</ele>
        <time>2021-12-29T15:44:52Z</time>
      </trkpt>
      <trkpt lat="44.57501" lon="5.63732">
        <ele>1214</ele>
        <time>2021-12-29T15:44:53Z</time>
      </trkpt>
      <trkpt lat="44.57505" lon="5.63719">
        <ele>1215</ele>
        <time>2021-12-29T15:44:55Z</time>
      </trkpt>
      <trkpt lat="44.57499" lon="5.63608">
        <ele>1217</ele>
        <time>2021-12-29T15:45:09Z</time>
      </trkpt>
      <trkpt lat="44.57496" lon="5.63591">
        <ele>1218</ele>
        <time>2021-12-29T15:45:11Z</time>
      </trkpt>
      <trkpt lat="44.57491" lon="5.6358">
        <ele>1219</ele>
        <time>2021-12-29T15:45:13Z</time>
      </trkpt>
      <trkpt lat="44.5748" lon="5.6357">
        <ele>1222</ele>
        <time>2021-12-29T15:45:15Z</time>
      </trkpt>
      <trkpt lat="44.57459" lon="5.63562">
        <ele>1223</ele>
        <time>2021-12-29T15:45:19Z</time>
      </trkpt>
      <trkpt lat="44.57443" lon="5.63541">
        <ele>1226</ele>
        <time>2021-12-29T15:45:23Z</time>
      </trkpt>
      <trkpt lat="44.57431" lon="5.6351">
        <ele>1227</ele>
        <time>2021-12-29T15:45:27Z</time>
      </trkpt>
      <trkpt lat="44.57432" lon="5.63474">
        <ele>1231</ele>
        <time>2021-12-29T15:45:32Z</time>
      </trkpt>
      <trkpt lat="44.57427" lon="5.63412">
        <ele>1238</ele>
        <time>2021-12-29T15:45:40Z</time>
      </trkpt>
      <trkpt lat="44.57431" lon="5.63367">
        <ele>1241</ele>
        <time>2021-12-29T15:45:46Z</time>
      </trkpt>
      <trkpt lat="44.57438" lon="5.63333">
        <ele>1244</ele>
        <time>2021-12-29T15:45:50Z</time>
      </trkpt>
      <trkpt lat="44.57434" lon="5.63268">
        <ele>1242</ele>
        <time>2021-12-29T15:45:58Z</time>
      </trkpt>
      <trkpt lat="44.57425" lon="5.63201">
        <ele>1241</ele>
        <time>2021-12-29T15:46:07Z</time>
      </trkpt>
      <trkpt lat="44.5742" lon="5.63184">
        <ele>1240</ele>
        <time>2021-12-29T15:46:09Z</time>
      </trkpt>
      <trkpt lat="44.57415" lon="5.63174">
        <ele>1240</ele>
        <time>2021-12-29T15:46:11Z</time>
      </trkpt>
      <trkpt lat="44.57407" lon="5.63169">
        <ele>1241</ele>
        <time>2021-12-29T15:46:12Z</time>
      </trkpt>
      <trkpt lat="44.5738" lon="5.63164">
        <ele>1242</ele>
        <time>2021-12-29T15:46:17Z</time>
      </trkpt>
      <trkpt lat="44.57357" lon="5.63137">
        <ele>1245</ele>
        <time>2021-12-29T15:46:23Z</time>
      </trkpt>
      <trkpt lat="44.57343" lon="5.63115">
        <ele>1246</ele>
        <time>2021-12-29T15:46:26Z</time>
      </trkpt>
      <trkpt lat="44.57335" lon="5.63094">
        <ele>1246</ele>
        <time>2021-12-29T15:46:29Z</time>
      </trkpt>
      <trkpt lat="44.57336" lon="5.63076">
        <ele>1246</ele>
        <time>2021-12-29T15:46:32Z</time>
      </trkpt>
      <trkpt lat="44.57332" lon="5.63066">
        <ele>1247</ele>
        <time>2021-12-29T15:46:33Z</time>
      </trkpt>
      <trkpt lat="44.57316" lon="5.6306">
        <ele>1247</ele>
        <time>2021-12-29T15:46:36Z</time>
      </trkpt>
      <trkpt lat="44.57302" lon="5.6306">
        <ele>1248</ele>
        <time>2021-12-29T15:46:39Z</time>
      </trkpt>
      <trkpt lat="44.57292" lon="5.63054">
        <ele>1249</ele>
        <time>2021-12-29T15:46:41Z</time>
      </trkpt>
      <trkpt lat="44.57278" lon="5.63038">
        <ele>1250</ele>
        <time>2021-12-29T15:46:44Z</time>
      </trkpt>
      <trkpt lat="44.57252" lon="5.63017">
        <ele>1251</ele>
        <time>2021-12-29T15:46:49Z</time>
      </trkpt>
      <trkpt lat="44.57236" lon="5.63013">
        <ele>1252</ele>
        <time>2021-12-29T15:46:52Z</time>
      </trkpt>
      <trkpt lat="44.5722" lon="5.63014">
        <ele>1252</ele>
        <time>2021-12-29T15:46:55Z</time>
      </trkpt>
      <trkpt lat="44.57204" lon="5.63007">
        <ele>1252</ele>
        <time>2021-12-29T15:46:58Z</time>
      </trkpt>
      <trkpt lat="44.57183" lon="5.62985">
        <ele>1253</ele>
        <time>2021-12-29T15:47:02Z</time>
      </trkpt>
      <trkpt lat="44.57175" lon="5.62964">
        <ele>1255</ele>
        <time>2021-12-29T15:47:05Z</time>
      </trkpt>
      <trkpt lat="44.57139" lon="5.62916">
        <ele>1262</ele>
        <time>2021-12-29T15:47:14Z</time>
      </trkpt>
      <trkpt lat="44.57133" lon="5.62917">
        <ele>1263</ele>
        <time>2021-12-29T15:47:15Z</time>
      </trkpt>
      <trkpt lat="44.57121" lon="5.6293">
        <ele>1264</ele>
        <time>2021-12-29T15:47:18Z</time>
      </trkpt>
      <trkpt lat="44.57136" lon="5.63008">
        <ele>1260</ele>
        <time>2021-12-29T15:47:28Z</time>
      </trkpt>
      <trkpt lat="44.57137" lon="5.63035">
        <ele>1261</ele>
        <time>2021-12-29T15:47:32Z</time>
      </trkpt>
      <trkpt lat="44.57134" lon="5.63059">
        <ele>1262</ele>
        <time>2021-12-29T15:47:35Z</time>
      </trkpt>
      <trkpt lat="44.57128" lon="5.63081">
        <ele>1263</ele>
        <time>2021-12-29T15:47:38Z</time>
      </trkpt>
      <trkpt lat="44.57115" lon="5.63095">
        <ele>1265</ele>
        <time>2021-12-29T15:47:41Z</time>
      </trkpt>
      <trkpt lat="44.571" lon="5.63107">
        <ele>1267</ele>
        <time>2021-12-29T15:47:44Z</time>
      </trkpt>
      <trkpt lat="44.57059" lon="5.63163">
        <ele>1260</ele>
        <time>2021-12-29T15:47:54Z</time>
      </trkpt>
      <trkpt lat="44.57042" lon="5.63182">
        <ele>1258</ele>
        <time>2021-12-29T15:47:58Z</time>
      </trkpt>
      <trkpt lat="44.57022" lon="5.63187">
        <ele>1254</ele>
        <time>2021-12-29T15:48:01Z</time>
      </trkpt>
      <trkpt lat="44.57014" lon="5.63192">
        <ele>1252</ele>
        <time>2021-12-29T15:48:03Z</time>
      </trkpt>
      <trkpt lat="44.56999" lon="5.63213">
        <ele>1251</ele>
        <time>2021-12-29T15:48:07Z</time>
      </trkpt>
      <trkpt lat="44.56945" lon="5.63283">
        <ele>1244</ele>
        <time>2021-12-29T15:48:20Z</time>
      </trkpt>
      <trkpt lat="44.5692" lon="5.63303">
        <ele>1240</ele>
        <time>2021-12-29T15:48:25Z</time>
      </trkpt>
      <trkpt lat="44.56876" lon="5.6333">
        <ele>1237</ele>
        <time>2021-12-29T15:48:34Z</time>
      </trkpt>
      <trkpt lat="44.56871" lon="5.6333">
        <ele>1236</ele>
        <time>2021-12-29T15:48:34Z</time>
      </trkpt>
      <trkpt lat="44.56868" lon="5.63323">
        <ele>1234</ele>
        <time>2021-12-29T15:48:35Z</time>
      </trkpt>
      <trkpt lat="44.5687" lon="5.63313">
        <ele>1232</ele>
        <time>2021-12-29T15:48:37Z</time>
      </trkpt>
      <trkpt lat="44.56902" lon="5.63269">
        <ele>1230</ele>
        <time>2021-12-29T15:48:45Z</time>
      </trkpt>
      <trkpt lat="44.56924" lon="5.63251">
        <ele>1232</ele>
        <time>2021-12-29T15:48:49Z</time>
      </trkpt>
      <trkpt lat="44.56932" lon="5.63238">
        <ele>1234</ele>
        <time>2021-12-29T15:48:51Z</time>
      </trkpt>
      <trkpt lat="44.56934" lon="5.6323">
        <ele>1234</ele>
        <time>2021-12-29T15:48:53Z</time>
      </trkpt>
      <trkpt lat="44.56931" lon="5.63221">
        <ele>1232</ele>
        <time>2021-12-29T15:48:54Z</time>
      </trkpt>
      <trkpt lat="44.56905" lon="5.63186">
        <ele>1223</ele>
        <time>2021-12-29T15:49:00Z</time>
      </trkpt>
      <trkpt lat="44.56897" lon="5.63159">
        <ele>1222</ele>
        <time>2021-12-29T15:49:04Z</time>
      </trkpt>
      <trkpt lat="44.56892" lon="5.63153">
        <ele>1222</ele>
        <time>2021-12-29T15:49:05Z</time>
      </trkpt>
      <trkpt lat="44.56859" lon="5.6315">
        <ele>1216</ele>
        <time>2021-12-29T15:49:11Z</time>
      </trkpt>
      <trkpt lat="44.56837" lon="5.63145">
        <ele>1212</ele>
        <time>2021-12-29T15:49:15Z</time>
      </trkpt>
      <trkpt lat="44.56819" lon="5.63136">
        <ele>1210</ele>
        <time>2021-12-29T15:49:18Z</time>
      </trkpt>
      <trkpt lat="44.56793" lon="5.63125">
        <ele>1207</ele>
        <time>2021-12-29T15:49:23Z</time>
      </trkpt>
      <trkpt lat="44.56785" lon="5.63118">
        <ele>1207</ele>
        <time>2021-12-29T15:49:25Z</time>
      </trkpt>
      <trkpt lat="44.56776" lon="5.63094">
        <ele>1209</ele>
        <time>2021-12-29T15:49:28Z</time>
      </trkpt>
      <trkpt lat="44.56773" lon="5.63091">
        <ele>1208</ele>
        <time>2021-12-29T15:49:29Z</time>
      </trkpt>
      <trkpt lat="44.56754" lon="5.63083">
        <ele>1206</ele>
        <time>2021-12-29T15:49:32Z</time>
      </trkpt>
      <trkpt lat="44.56738" lon="5.63072">
        <ele>1207</ele>
        <time>2021-12-29T15:49:36Z</time>
      </trkpt>
      <trkpt lat="44.56723" lon="5.63066">
        <ele>1207</ele>
        <time>2021-12-29T15:49:38Z</time>
      </trkpt>
      <trkpt lat="44.5671" lon="5.63065">
        <ele>1206</ele>
        <time>2021-12-29T15:49:41Z</time>
      </trkpt>
      <trkpt lat="44.56679" lon="5.63072">
        <ele>1200</ele>
        <time>2021-12-29T15:49:46Z</time>
      </trkpt>
      <trkpt lat="44.5664" lon="5.63084">
        <ele>1190</ele>
        <time>2021-12-29T15:49:53Z</time>
      </trkpt>
      <trkpt lat="44.56594" lon="5.63078">
        <ele>1184</ele>
        <time>2021-12-29T15:50:02Z</time>
      </trkpt>
      <trkpt lat="44.56588" lon="5.6307">
        <ele>1185</ele>
        <time>2021-12-29T15:50:03Z</time>
      </trkpt>
      <trkpt lat="44.56583" lon="5.63038">
        <ele>1192</ele>
        <time>2021-12-29T15:50:07Z</time>
      </trkpt>
      <trkpt lat="44.5658" lon="5.63029">
        <ele>1193</ele>
        <time>2021-12-29T15:50:09Z</time>
      </trkpt>
      <trkpt lat="44.56569" lon="5.63025">
        <ele>1192</ele>
        <time>2021-12-29T15:50:11Z</time>
      </trkpt>
      <trkpt lat="44.56497" lon="5.63018">
        <ele>1178</ele>
        <time>2021-12-29T15:50:23Z</time>
      </trkpt>
      <trkpt lat="44.56434" lon="5.6302">
        <ele>1171</ele>
        <time>2021-12-29T15:50:35Z</time>
      </trkpt>
      <trkpt lat="44.5643" lon="5.63031">
        <ele>1170</ele>
        <time>2021-12-29T15:50:36Z</time>
      </trkpt>
      <trkpt lat="44.5643" lon="5.63047">
        <ele>1169</ele>
        <time>2021-12-29T15:50:38Z</time>
      </trkpt>
      <trkpt lat="44.56436" lon="5.63079">
        <ele>1167</ele>
        <time>2021-12-29T15:50:42Z</time>
      </trkpt>
      <trkpt lat="44.56434" lon="5.63091">
        <ele>1166</ele>
        <time>2021-12-29T15:50:44Z</time>
      </trkpt>
      <trkpt lat="44.5643" lon="5.63101">
        <ele>1164</ele>
        <time>2021-12-29T15:50:45Z</time>
      </trkpt>
      <trkpt lat="44.56417" lon="5.63117">
        <ele>1161</ele>
        <time>2021-12-29T15:50:48Z</time>
      </trkpt>
      <trkpt lat="44.56394" lon="5.63134">
        <ele>1158</ele>
        <time>2021-12-29T15:50:53Z</time>
      </trkpt>
      <trkpt lat="44.56368" lon="5.63148">
        <ele>1156</ele>
        <time>2021-12-29T15:50:58Z</time>
      </trkpt>
      <trkpt lat="44.5632" lon="5.63158">
        <ele>1155</ele>
        <time>2021-12-29T15:51:07Z</time>
      </trkpt>
      <trkpt lat="44.56297" lon="5.63165">
        <ele>1156</ele>
        <time>2021-12-29T15:51:11Z</time>
      </trkpt>
      <trkpt lat="44.56281" lon="5.63175">
        <ele>1155</ele>
        <time>2021-12-29T15:51:14Z</time>
      </trkpt>
      <trkpt lat="44.56233" lon="5.63228">
        <ele>1143</ele>
        <time>2021-12-29T15:51:25Z</time>
      </trkpt>
      <trkpt lat="44.56221" lon="5.63237">
        <ele>1140</ele>
        <time>2021-12-29T15:51:27Z</time>
      </trkpt>
      <trkpt lat="44.56185" lon="5.63235">
        <ele>1140</ele>
        <time>2021-12-29T15:51:34Z</time>
      </trkpt>
      <trkpt lat="44.56134" lon="5.63239">
        <ele>1133</ele>
        <time>2021-12-29T15:51:43Z</time>
      </trkpt>
      <trkpt lat="44.5612" lon="5.63236">
        <ele>1132</ele>
        <time>2021-12-29T15:51:45Z</time>
      </trkpt>
      <trkpt lat="44.561" lon="5.63223">
        <ele>1133</ele>
        <time>2021-12-29T15:51:49Z</time>
      </trkpt>
      <trkpt lat="44.56081" lon="5.63215">
        <ele>1133</ele>
        <time>2021-12-29T15:51:53Z</time>
      </trkpt>
      <trkpt lat="44.56068" lon="5.63214">
        <ele>1129</ele>
        <time>2021-12-29T15:51:55Z</time>
      </trkpt>
      <trkpt lat="44.56036" lon="5.63216">
        <ele>1120</ele>
        <time>2021-12-29T15:52:01Z</time>
      </trkpt>
      <trkpt lat="44.56023" lon="5.63215">
        <ele>1117</ele>
        <time>2021-12-29T15:52:03Z</time>
      </trkpt>
      <trkpt lat="44.56015" lon="5.6321">
        <ele>1116</ele>
        <time>2021-12-29T15:52:05Z</time>
      </trkpt>
      <trkpt lat="44.5601" lon="5.632">
        <ele>1116</ele>
        <time>2021-12-29T15:52:06Z</time>
      </trkpt>
      <trkpt lat="44.56005" lon="5.63145">
        <ele>1117</ele>
        <time>2021-12-29T15:52:13Z</time>
      </trkpt>
      <trkpt lat="44.56008" lon="5.6312">
        <ele>1117</ele>
        <time>2021-12-29T15:52:16Z</time>
      </trkpt>
      <trkpt lat="44.56019" lon="5.63072">
        <ele>1117</ele>
        <time>2021-12-29T15:52:23Z</time>
      </trkpt>
      <trkpt lat="44.56021" lon="5.63036">
        <ele>1113</ele>
        <time>2021-12-29T15:52:27Z</time>
      </trkpt>
      <trkpt lat="44.56027" lon="5.63015">
        <ele>1112</ele>
        <time>2021-12-29T15:52:30Z</time>
      </trkpt>
      <trkpt lat="44.56048" lon="5.62985">
        <ele>1115</ele>
        <time>2021-12-29T15:52:36Z</time>
      </trkpt>
      <trkpt lat="44.56061" lon="5.62963">
        <ele>1116</ele>
        <time>2021-12-29T15:52:39Z</time>
      </trkpt>
      <trkpt lat="44.5607" lon="5.62941">
        <ele>1115</ele>
        <time>2021-12-29T15:52:42Z</time>
      </trkpt>
      <trkpt lat="44.56082" lon="5.62919">
        <ele>1114</ele>
        <time>2021-12-29T15:52:46Z</time>
      </trkpt>
      <trkpt lat="44.56084" lon="5.62913">
        <ele>1114</ele>
        <time>2021-12-29T15:52:47Z</time>
      </trkpt>
      <trkpt lat="44.56085" lon="5.62897">
        <ele>1115</ele>
        <time>2021-12-29T15:52:49Z</time>
      </trkpt>
      <trkpt lat="44.56081" lon="5.62887">
        <ele>1114</ele>
        <time>2021-12-29T15:52:50Z</time>
      </trkpt>
      <trkpt lat="44.56071" lon="5.62881">
        <ele>1113</ele>
        <time>2021-12-29T15:52:52Z</time>
      </trkpt>
      <trkpt lat="44.56059" lon="5.62883">
        <ele>1111</ele>
        <time>2021-12-29T15:52:54Z</time>
      </trkpt>
      <trkpt lat="44.56045" lon="5.6289">
        <ele>1109</ele>
        <time>2021-12-29T15:52:57Z</time>
      </trkpt>
      <trkpt lat="44.56038" lon="5.62891">
        <ele>1108</ele>
        <time>2021-12-29T15:52:58Z</time>
      </trkpt>
      <trkpt lat="44.56031" lon="5.62888">
        <ele>1107</ele>
        <time>2021-12-29T15:53:00Z</time>
      </trkpt>
      <trkpt lat="44.56026" lon="5.62879">
        <ele>1107</ele>
        <time>2021-12-29T15:53:01Z</time>
      </trkpt>
      <trkpt lat="44.56023" lon="5.62864">
        <ele>1108</ele>
        <time>2021-12-29T15:53:03Z</time>
      </trkpt>
      <trkpt lat="44.56024" lon="5.6283">
        <ele>1111</ele>
        <time>2021-12-29T15:53:07Z</time>
      </trkpt>
      <trkpt lat="44.56018" lon="5.62821">
        <ele>1111</ele>
        <time>2021-12-29T15:53:09Z</time>
      </trkpt>
      <trkpt lat="44.56011" lon="5.62819">
        <ele>1111</ele>
        <time>2021-12-29T15:53:10Z</time>
      </trkpt>
      <trkpt lat="44.56007" lon="5.6282">
        <ele>1111</ele>
        <time>2021-12-29T15:53:11Z</time>
      </trkpt>
      <trkpt lat="44.56" lon="5.62828">
        <ele>1109</ele>
        <time>2021-12-29T15:53:12Z</time>
      </trkpt>
      <trkpt lat="44.55982" lon="5.62864">
        <ele>1108</ele>
        <time>2021-12-29T15:53:18Z</time>
      </trkpt>
      <trkpt lat="44.5596" lon="5.62888">
        <ele>1109</ele>
        <time>2021-12-29T15:53:23Z</time>
      </trkpt>
      <trkpt lat="44.55932" lon="5.62923">
        <ele>1108</ele>
        <time>2021-12-29T15:53:30Z</time>
      </trkpt>
      <trkpt lat="44.55893" lon="5.62994">
        <ele>1107</ele>
        <time>2021-12-29T15:53:41Z</time>
      </trkpt>
      <trkpt lat="44.55884" lon="5.63019">
        <ele>1108</ele>
        <time>2021-12-29T15:53:45Z</time>
      </trkpt>
      <trkpt lat="44.55881" lon="5.63039">
        <ele>1108</ele>
        <time>2021-12-29T15:53:47Z</time>
      </trkpt>
      <trkpt lat="44.55881" lon="5.6309">
        <ele>1104</ele>
        <time>2021-12-29T15:53:54Z</time>
      </trkpt>
      <trkpt lat="44.55877" lon="5.63117">
        <ele>1103</ele>
        <time>2021-12-29T15:53:57Z</time>
      </trkpt>
      <trkpt lat="44.55869" lon="5.63145">
        <ele>1102</ele>
        <time>2021-12-29T15:54:01Z</time>
      </trkpt>
      <trkpt lat="44.55858" lon="5.63208">
        <ele>1092</ele>
        <time>2021-12-29T15:54:09Z</time>
      </trkpt>
      <trkpt lat="44.55855" lon="5.63216">
        <ele>1091</ele>
        <time>2021-12-29T15:54:10Z</time>
      </trkpt>
      <trkpt lat="44.55851" lon="5.63224">
        <ele>1089</ele>
        <time>2021-12-29T15:54:12Z</time>
      </trkpt>
      <trkpt lat="44.55833" lon="5.6324">
        <ele>1086</ele>
        <time>2021-12-29T15:54:15Z</time>
      </trkpt>
      <trkpt lat="44.55771" lon="5.63272">
        <ele>1084</ele>
        <time>2021-12-29T15:54:27Z</time>
      </trkpt>
      <trkpt lat="44.5576" lon="5.63276">
        <ele>1084</ele>
        <time>2021-12-29T15:54:29Z</time>
      </trkpt>
      <trkpt lat="44.55703" lon="5.63277">
        <ele>1082</ele>
        <time>2021-12-29T15:54:39Z</time>
      </trkpt>
      <trkpt lat="44.55673" lon="5.63281">
        <ele>1079</ele>
        <time>2021-12-29T15:54:45Z</time>
      </trkpt>
      <trkpt lat="44.55661" lon="5.63285">
        <ele>1076</ele>
        <time>2021-12-29T15:54:47Z</time>
      </trkpt>
      <trkpt lat="44.55647" lon="5.63292">
        <ele>1070</ele>
        <time>2021-12-29T15:54:49Z</time>
      </trkpt>
      <trkpt lat="44.55623" lon="5.63307">
        <ele>1063</ele>
        <time>2021-12-29T15:54:54Z</time>
      </trkpt>
      <trkpt lat="44.5559" lon="5.63339">
        <ele>1059</ele>
        <time>2021-12-29T15:55:01Z</time>
      </trkpt>
      <trkpt lat="44.55585" lon="5.6334">
        <ele>1058</ele>
        <time>2021-12-29T15:55:02Z</time>
      </trkpt>
      <trkpt lat="44.55581" lon="5.63339">
        <ele>1057</ele>
        <time>2021-12-29T15:55:03Z</time>
      </trkpt>
      <trkpt lat="44.55577" lon="5.6333">
        <ele>1055</ele>
        <time>2021-12-29T15:55:04Z</time>
      </trkpt>
      <trkpt lat="44.55577" lon="5.63321">
        <ele>1054</ele>
        <time>2021-12-29T15:55:05Z</time>
      </trkpt>
      <trkpt lat="44.5558" lon="5.63303">
        <ele>1054</ele>
        <time>2021-12-29T15:55:08Z</time>
      </trkpt>
      <trkpt lat="44.55591" lon="5.63251">
        <ele>1054</ele>
        <time>2021-12-29T15:55:15Z</time>
      </trkpt>
      <trkpt lat="44.55606" lon="5.63203">
        <ele>1054</ele>
        <time>2021-12-29T15:55:21Z</time>
      </trkpt>
      <trkpt lat="44.55611" lon="5.6318">
        <ele>1053</ele>
        <time>2021-12-29T15:55:24Z</time>
      </trkpt>
      <trkpt lat="44.55623" lon="5.63075">
        <ele>1047</ele>
        <time>2021-12-29T15:55:38Z</time>
      </trkpt>
      <trkpt lat="44.55632" lon="5.63046">
        <ele>1051</ele>
        <time>2021-12-29T15:55:42Z</time>
      </trkpt>
      <trkpt lat="44.55643" lon="5.63018">
        <ele>1056</ele>
        <time>2021-12-29T15:55:46Z</time>
      </trkpt>
      <trkpt lat="44.55647" lon="5.62941">
        <ele>1056</ele>
        <time>2021-12-29T15:55:56Z</time>
      </trkpt>
      <trkpt lat="44.55644" lon="5.62908">
        <ele>1052</ele>
        <time>2021-12-29T15:56:00Z</time>
      </trkpt>
      <trkpt lat="44.55646" lon="5.6289">
        <ele>1053</ele>
        <time>2021-12-29T15:56:02Z</time>
      </trkpt>
      <trkpt lat="44.55639" lon="5.62838">
        <ele>1046</ele>
        <time>2021-12-29T15:56:09Z</time>
      </trkpt>
      <trkpt lat="44.55631" lon="5.62805">
        <ele>1041</ele>
        <time>2021-12-29T15:56:13Z</time>
      </trkpt>
      <trkpt lat="44.55624" lon="5.62736">
        <ele>1039</ele>
        <time>2021-12-29T15:56:22Z</time>
      </trkpt>
      <trkpt lat="44.5562" lon="5.62715">
        <ele>1039</ele>
        <time>2021-12-29T15:56:25Z</time>
      </trkpt>
      <trkpt lat="44.55589" lon="5.62638">
        <ele>1029</ele>
        <time>2021-12-29T15:56:36Z</time>
      </trkpt>
      <trkpt lat="44.55572" lon="5.62603">
        <ele>1024</ele>
        <time>2021-12-29T15:56:41Z</time>
      </trkpt>
      <trkpt lat="44.55568" lon="5.62584">
        <ele>1025</ele>
        <time>2021-12-29T15:56:44Z</time>
      </trkpt>
      <trkpt lat="44.55567" lon="5.62559">
        <ele>1026</ele>
        <time>2021-12-29T15:56:47Z</time>
      </trkpt>
      <trkpt lat="44.55561" lon="5.62521">
        <ele>1025</ele>
        <time>2021-12-29T15:56:52Z</time>
      </trkpt>
      <trkpt lat="44.55557" lon="5.62506">
        <ele>1024</ele>
        <time>2021-12-29T15:56:54Z</time>
      </trkpt>
      <trkpt lat="44.55528" lon="5.62433">
        <ele>1013</ele>
        <time>2021-12-29T15:57:05Z</time>
      </trkpt>
      <trkpt lat="44.55525" lon="5.62421">
        <ele>1012</ele>
        <time>2021-12-29T15:57:06Z</time>
      </trkpt>
      <trkpt lat="44.55524" lon="5.62407">
        <ele>1011</ele>
        <time>2021-12-29T15:57:08Z</time>
      </trkpt>
      <trkpt lat="44.55527" lon="5.6225">
        <ele>1006</ele>
        <time>2021-12-29T15:57:28Z</time>
      </trkpt>
      <trkpt lat="44.55529" lon="5.62202">
        <ele>1005</ele>
        <time>2021-12-29T15:57:34Z</time>
      </trkpt>
      <trkpt lat="44.55527" lon="5.62192">
        <ele>1004</ele>
        <time>2021-12-29T15:57:35Z</time>
      </trkpt>
      <trkpt lat="44.55524" lon="5.6219">
        <ele>1003</ele>
        <time>2021-12-29T15:57:36Z</time>
      </trkpt>
      <trkpt lat="44.55516" lon="5.62189">
        <ele>1000</ele>
        <time>2021-12-29T15:57:37Z</time>
      </trkpt>
      <trkpt lat="44.55516" lon="5.62178">
        <ele>999</ele>
        <time>2021-12-29T15:57:39Z</time>
      </trkpt>
      <trkpt lat="44.55512" lon="5.62158">
        <ele>1000</ele>
        <time>2021-12-29T15:57:42Z</time>
      </trkpt>
      <trkpt lat="44.55508" lon="5.62147">
        <ele>1002</ele>
        <time>2021-12-29T15:57:43Z</time>
      </trkpt>
      <trkpt lat="44.55489" lon="5.6212">
        <ele>1005</ele>
        <time>2021-12-29T15:57:48Z</time>
      </trkpt>
      <trkpt lat="44.55468" lon="5.62089">
        <ele>1005</ele>
        <time>2021-12-29T15:57:53Z</time>
      </trkpt>
      <trkpt lat="44.55463" lon="5.62078">
        <ele>1006</ele>
        <time>2021-12-29T15:57:55Z</time>
      </trkpt>
      <trkpt lat="44.55449" lon="5.62029">
        <ele>1013</ele>
        <time>2021-12-29T15:58:02Z</time>
      </trkpt>
      <trkpt lat="44.55424" lon="5.61983">
        <ele>1006</ele>
        <time>2021-12-29T15:58:09Z</time>
      </trkpt>
      <trkpt lat="44.55422" lon="5.61969">
        <ele>1005</ele>
        <time>2021-12-29T15:58:11Z</time>
      </trkpt>
      <trkpt lat="44.55422" lon="5.61961">
        <ele>1005</ele>
        <time>2021-12-29T15:58:12Z</time>
      </trkpt>
      <trkpt lat="44.55426" lon="5.61947">
        <ele>1008</ele>
        <time>2021-12-29T15:58:14Z</time>
      </trkpt>
      <trkpt lat="44.55432" lon="5.61938">
        <ele>1012</ele>
        <time>2021-12-29T15:58:15Z</time>
      </trkpt>
      <trkpt lat="44.55441" lon="5.6192">
        <ele>1019</ele>
        <time>2021-12-29T15:58:18Z</time>
      </trkpt>
      <trkpt lat="44.5545" lon="5.61888">
        <ele>1024</ele>
        <time>2021-12-29T15:58:22Z</time>
      </trkpt>
      <trkpt lat="44.55451" lon="5.61877">
        <ele>1025</ele>
        <time>2021-12-29T15:58:24Z</time>
      </trkpt>
      <trkpt lat="44.55449" lon="5.61838">
        <ele>1023</ele>
        <time>2021-12-29T15:58:29Z</time>
      </trkpt>
      <trkpt lat="44.5545" lon="5.61821">
        <ele>1023</ele>
        <time>2021-12-29T15:58:31Z</time>
      </trkpt>
      <trkpt lat="44.55455" lon="5.61801">
        <ele>1025</ele>
        <time>2021-12-29T15:58:34Z</time>
      </trkpt>
      <trkpt lat="44.55462" lon="5.61743">
        <ele>1026</ele>
        <time>2021-12-29T15:58:41Z</time>
      </trkpt>
      <trkpt lat="44.55466" lon="5.61722">
        <ele>1027</ele>
        <time>2021-12-29T15:58:44Z</time>
      </trkpt>
      <trkpt lat="44.55481" lon="5.61674">
        <ele>1030</ele>
        <time>2021-12-29T15:58:51Z</time>
      </trkpt>
      <trkpt lat="44.55484" lon="5.61656">
        <ele>1029</ele>
        <time>2021-12-29T15:58:53Z</time>
      </trkpt>
      <trkpt lat="44.55544" lon="5.61421">
        <ele>1040</ele>
        <time>2021-12-29T15:59:25Z</time>
      </trkpt>
      <trkpt lat="44.5557" lon="5.61376">
        <ele>1044</ele>
        <time>2021-12-29T15:59:32Z</time>
      </trkpt>
      <trkpt lat="44.556" lon="5.61337">
        <ele>1048</ele>
        <time>2021-12-29T15:59:39Z</time>
      </trkpt>
      <trkpt lat="44.5569" lon="5.6124">
        <ele>1060</ele>
        <time>2021-12-29T15:59:59Z</time>
      </trkpt>
      <trkpt lat="44.55701" lon="5.6122">
        <ele>1060</ele>
        <time>2021-12-29T16:00:03Z</time>
      </trkpt>
      <trkpt lat="44.55711" lon="5.61177">
        <ele>1057</ele>
        <time>2021-12-29T16:00:08Z</time>
      </trkpt>
      <trkpt lat="44.55725" lon="5.61153">
        <ele>1058</ele>
        <time>2021-12-29T16:00:12Z</time>
      </trkpt>
      <trkpt lat="44.55743" lon="5.61137">
        <ele>1060</ele>
        <time>2021-12-29T16:00:16Z</time>
      </trkpt>
      <trkpt lat="44.55753" lon="5.61131">
        <ele>1061</ele>
        <time>2021-12-29T16:00:18Z</time>
      </trkpt>
      <trkpt lat="44.5581" lon="5.61112">
        <ele>1070</ele>
        <time>2021-12-29T16:00:28Z</time>
      </trkpt>
      <trkpt lat="44.5582" lon="5.61107">
        <ele>1071</ele>
        <time>2021-12-29T16:00:30Z</time>
      </trkpt>
      <trkpt lat="44.55833" lon="5.61094">
        <ele>1072</ele>
        <time>2021-12-29T16:00:33Z</time>
      </trkpt>
      <trkpt lat="44.55839" lon="5.61085">
        <ele>1073</ele>
        <time>2021-12-29T16:00:35Z</time>
      </trkpt>
      <trkpt lat="44.55845" lon="5.61072">
        <ele>1074</ele>
        <time>2021-12-29T16:00:37Z</time>
      </trkpt>
      <trkpt lat="44.55851" lon="5.61049">
        <ele>1077</ele>
        <time>2021-12-29T16:00:40Z</time>
      </trkpt>
      <trkpt lat="44.55852" lon="5.61037">
        <ele>1078</ele>
        <time>2021-12-29T16:00:41Z</time>
      </trkpt>
      <trkpt lat="44.5585" lon="5.61014">
        <ele>1079</ele>
        <time>2021-12-29T16:00:44Z</time>
      </trkpt>
      <trkpt lat="44.55846" lon="5.61001">
        <ele>1079</ele>
        <time>2021-12-29T16:00:46Z</time>
      </trkpt>
      <trkpt lat="44.55831" lon="5.60968">
        <ele>1081</ele>
        <time>2021-12-29T16:00:51Z</time>
      </trkpt>
      <trkpt lat="44.55817" lon="5.60945">
        <ele>1084</ele>
        <time>2021-12-29T16:00:55Z</time>
      </trkpt>
      <trkpt lat="44.55764" lon="5.60911">
        <ele>1089</ele>
        <time>2021-12-29T16:01:05Z</time>
      </trkpt>
      <trkpt lat="44.55754" lon="5.60909">
        <ele>1089</ele>
        <time>2021-12-29T16:01:07Z</time>
      </trkpt>
      <trkpt lat="44.55676" lon="5.60909">
        <ele>1094</ele>
        <time>2021-12-29T16:01:21Z</time>
      </trkpt>
      <trkpt lat="44.55653" lon="5.60915">
        <ele>1096</ele>
        <time>2021-12-29T16:01:25Z</time>
      </trkpt>
      <trkpt lat="44.55605" lon="5.60932">
        <ele>1100</ele>
        <time>2021-12-29T16:01:34Z</time>
      </trkpt>
      <trkpt lat="44.55516" lon="5.60959">
        <ele>1095</ele>
        <time>2021-12-29T16:01:50Z</time>
      </trkpt>
      <trkpt lat="44.55496" lon="5.60956">
        <ele>1095</ele>
        <time>2021-12-29T16:01:54Z</time>
      </trkpt>
      <trkpt lat="44.55485" lon="5.60948">
        <ele>1094</ele>
        <time>2021-12-29T16:01:56Z</time>
      </trkpt>
      <trkpt lat="44.55481" lon="5.60942">
        <ele>1095</ele>
        <time>2021-12-29T16:01:57Z</time>
      </trkpt>
      <trkpt lat="44.55475" lon="5.60926">
        <ele>1097</ele>
        <time>2021-12-29T16:01:59Z</time>
      </trkpt>
      <trkpt lat="44.55466" lon="5.60878">
        <ele>1101</ele>
        <time>2021-12-29T16:02:05Z</time>
      </trkpt>
      <trkpt lat="44.55465" lon="5.60841">
        <ele>1105</ele>
        <time>2021-12-29T16:02:10Z</time>
      </trkpt>
      <trkpt lat="44.55475" lon="5.60773">
        <ele>1117</ele>
        <time>2021-12-29T16:02:19Z</time>
      </trkpt>
      <trkpt lat="44.55474" lon="5.60753">
        <ele>1119</ele>
        <time>2021-12-29T16:02:21Z</time>
      </trkpt>
      <trkpt lat="44.55464" lon="5.60722">
        <ele>1121</ele>
        <time>2021-12-29T16:02:26Z</time>
      </trkpt>
      <trkpt lat="44.55454" lon="5.60699">
        <ele>1121</ele>
        <time>2021-12-29T16:02:29Z</time>
      </trkpt>
      <trkpt lat="44.55391" lon="5.60599">
        <ele>1125</ele>
        <time>2021-12-29T16:02:46Z</time>
      </trkpt>
      <trkpt lat="44.55381" lon="5.60586">
        <ele>1126</ele>
        <time>2021-12-29T16:02:49Z</time>
      </trkpt>
      <trkpt lat="44.55374" lon="5.60581">
        <ele>1125</ele>
        <time>2021-12-29T16:02:50Z</time>
      </trkpt>
      <trkpt lat="44.5536" lon="5.60574">
        <ele>1123</ele>
        <time>2021-12-29T16:02:53Z</time>
      </trkpt>
      <trkpt lat="44.55342" lon="5.60562">
        <ele>1122</ele>
        <time>2021-12-29T16:02:56Z</time>
      </trkpt>
      <trkpt lat="44.55335" lon="5.60555">
        <ele>1122</ele>
        <time>2021-12-29T16:02:58Z</time>
      </trkpt>
      <trkpt lat="44.5532" lon="5.60535">
        <ele>1128</ele>
        <time>2021-12-29T16:03:01Z</time>
      </trkpt>
      <trkpt lat="44.55307" lon="5.60528">
        <ele>1131</ele>
        <time>2021-12-29T16:03:04Z</time>
      </trkpt>
      <trkpt lat="44.55292" lon="5.60525">
        <ele>1132</ele>
        <time>2021-12-29T16:03:06Z</time>
      </trkpt>
      <trkpt lat="44.55252" lon="5.60523">
        <ele>1133</ele>
        <time>2021-12-29T16:03:14Z</time>
      </trkpt>
      <trkpt lat="44.55245" lon="5.60524">
        <ele>1134</ele>
        <time>2021-12-29T16:03:15Z</time>
      </trkpt>
      <trkpt lat="44.55228" lon="5.60532">
        <ele>1137</ele>
        <time>2021-12-29T16:03:18Z</time>
      </trkpt>
      <trkpt lat="44.55199" lon="5.60553">
        <ele>1140</ele>
        <time>2021-12-29T16:03:24Z</time>
      </trkpt>
      <trkpt lat="44.55188" lon="5.60568">
        <ele>1139</ele>
        <time>2021-12-29T16:03:27Z</time>
      </trkpt>
      <trkpt lat="44.55171" lon="5.60594">
        <ele>1137</ele>
        <time>2021-12-29T16:03:31Z</time>
      </trkpt>
      <trkpt lat="44.55164" lon="5.60608">
        <ele>1135</ele>
        <time>2021-12-29T16:03:33Z</time>
      </trkpt>
      <trkpt lat="44.55145" lon="5.60656">
        <ele>1125</ele>
        <time>2021-12-29T16:03:40Z</time>
      </trkpt>
      <trkpt lat="44.55137" lon="5.60668">
        <ele>1122</ele>
        <time>2021-12-29T16:03:42Z</time>
      </trkpt>
      <trkpt lat="44.5513" lon="5.60674">
        <ele>1121</ele>
        <time>2021-12-29T16:03:44Z</time>
      </trkpt>
      <trkpt lat="44.55123" lon="5.60675">
        <ele>1121</ele>
        <time>2021-12-29T16:03:45Z</time>
      </trkpt>
      <trkpt lat="44.55113" lon="5.6067">
        <ele>1123</ele>
        <time>2021-12-29T16:03:47Z</time>
      </trkpt>
      <trkpt lat="44.55104" lon="5.6066">
        <ele>1126</ele>
        <time>2021-12-29T16:03:49Z</time>
      </trkpt>
      <trkpt lat="44.55092" lon="5.60632">
        <ele>1134</ele>
        <time>2021-12-29T16:03:53Z</time>
      </trkpt>
      <trkpt lat="44.55073" lon="5.606">
        <ele>1139</ele>
        <time>2021-12-29T16:03:58Z</time>
      </trkpt>
      <trkpt lat="44.55065" lon="5.60582">
        <ele>1140</ele>
        <time>2021-12-29T16:04:01Z</time>
      </trkpt>
      <trkpt lat="44.55052" lon="5.60545">
        <ele>1143</ele>
        <time>2021-12-29T16:04:06Z</time>
      </trkpt>
      <trkpt lat="44.55039" lon="5.60514">
        <ele>1144</ele>
        <time>2021-12-29T16:04:11Z</time>
      </trkpt>
      <trkpt lat="44.55037" lon="5.60508">
        <ele>1144</ele>
        <time>2021-12-29T16:04:12Z</time>
      </trkpt>
      <trkpt lat="44.55038" lon="5.60496">
        <ele>1147</ele>
        <time>2021-12-29T16:04:13Z</time>
      </trkpt>
      <trkpt lat="44.55046" lon="5.6047">
        <ele>1154</ele>
        <time>2021-12-29T16:04:17Z</time>
      </trkpt>
      <trkpt lat="44.55048" lon="5.60455">
        <ele>1157</ele>
        <time>2021-12-29T16:04:19Z</time>
      </trkpt>
      <trkpt lat="44.55048" lon="5.60433">
        <ele>1159</ele>
        <time>2021-12-29T16:04:21Z</time>
      </trkpt>
      <trkpt lat="44.55047" lon="5.6042">
        <ele>1160</ele>
        <time>2021-12-29T16:04:23Z</time>
      </trkpt>
      <trkpt lat="44.55044" lon="5.6041">
        <ele>1161</ele>
        <time>2021-12-29T16:04:25Z</time>
      </trkpt>
      <trkpt lat="44.55036" lon="5.6039">
        <ele>1160</ele>
        <time>2021-12-29T16:04:27Z</time>
      </trkpt>
      <trkpt lat="44.55014" lon="5.60363">
        <ele>1154</ele>
        <time>2021-12-29T16:04:33Z</time>
      </trkpt>
      <trkpt lat="44.55007" lon="5.6035">
        <ele>1153</ele>
        <time>2021-12-29T16:04:35Z</time>
      </trkpt>
      <trkpt lat="44.55001" lon="5.60323">
        <ele>1153</ele>
        <time>2021-12-29T16:04:38Z</time>
      </trkpt>
      <trkpt lat="44.55002" lon="5.60311">
        <ele>1153</ele>
        <time>2021-12-29T16:04:40Z</time>
      </trkpt>
      <trkpt lat="44.55004" lon="5.60305">
        <ele>1154</ele>
        <time>2021-12-29T16:04:41Z</time>
      </trkpt>
      <trkpt lat="44.55029" lon="5.60268">
        <ele>1164</ele>
        <time>2021-12-29T16:04:47Z</time>
      </trkpt>
      <trkpt lat="44.55037" lon="5.6025">
        <ele>1167</ele>
        <time>2021-12-29T16:04:50Z</time>
      </trkpt>
      <trkpt lat="44.55039" lon="5.60226">
        <ele>1167</ele>
        <time>2021-12-29T16:04:53Z</time>
      </trkpt>
      <trkpt lat="44.55039" lon="5.60195">
        <ele>1167</ele>
        <time>2021-12-29T16:04:57Z</time>
      </trkpt>
      <trkpt lat="44.55041" lon="5.60181">
        <ele>1167</ele>
        <time>2021-12-29T16:04:59Z</time>
      </trkpt>
      <trkpt lat="44.55054" lon="5.60126">
        <ele>1174</ele>
        <time>2021-12-29T16:05:06Z</time>
      </trkpt>
      <trkpt lat="44.55053" lon="5.60103">
        <ele>1176</ele>
        <time>2021-12-29T16:05:09Z</time>
      </trkpt>
      <trkpt lat="44.5505" lon="5.60092">
        <ele>1176</ele>
        <time>2021-12-29T16:05:10Z</time>
      </trkpt>
      <trkpt lat="44.55043" lon="5.60077">
        <ele>1175</ele>
        <time>2021-12-29T16:05:13Z</time>
      </trkpt>
      <trkpt lat="44.55024" lon="5.60054">
        <ele>1173</ele>
        <time>2021-12-29T16:05:17Z</time>
      </trkpt>
      <trkpt lat="44.55005" lon="5.60021">
        <ele>1172</ele>
        <time>2021-12-29T16:05:23Z</time>
      </trkpt>
      <trkpt lat="44.55002" lon="5.60006">
        <ele>1174</ele>
        <time>2021-12-29T16:05:24Z</time>
      </trkpt>
      <trkpt lat="44.54982" lon="5.59883">
        <ele>1184</ele>
        <time>2021-12-29T16:05:40Z</time>
      </trkpt>
      <trkpt lat="44.54974" lon="5.59859">
        <ele>1185</ele>
        <time>2021-12-29T16:05:44Z</time>
      </trkpt>
      <trkpt lat="44.54959" lon="5.59832">
        <ele>1184</ele>
        <time>2021-12-29T16:05:48Z</time>
      </trkpt>
      <trkpt lat="44.5495" lon="5.59819">
        <ele>1182</ele>
        <time>2021-12-29T16:05:50Z</time>
      </trkpt>
      <trkpt lat="44.54937" lon="5.59812">
        <ele>1179</ele>
        <time>2021-12-29T16:05:53Z</time>
      </trkpt>
      <trkpt lat="44.54912" lon="5.59806">
        <ele>1176</ele>
        <time>2021-12-29T16:05:57Z</time>
      </trkpt>
      <trkpt lat="44.54901" lon="5.59806">
        <ele>1177</ele>
        <time>2021-12-29T16:05:59Z</time>
      </trkpt>
      <trkpt lat="44.54869" lon="5.59814">
        <ele>1180</ele>
        <time>2021-12-29T16:06:05Z</time>
      </trkpt>
      <trkpt lat="44.54856" lon="5.59809">
        <ele>1181</ele>
        <time>2021-12-29T16:06:08Z</time>
      </trkpt>
      <trkpt lat="44.54848" lon="5.598">
        <ele>1181</ele>
        <time>2021-12-29T16:06:09Z</time>
      </trkpt>
      <trkpt lat="44.54842" lon="5.59784">
        <ele>1181</ele>
        <time>2021-12-29T16:06:12Z</time>
      </trkpt>
      <trkpt lat="44.54839" lon="5.59761">
        <ele>1181</ele>
        <time>2021-12-29T16:06:15Z</time>
      </trkpt>
      <trkpt lat="44.5484" lon="5.59749">
        <ele>1180</ele>
        <time>2021-12-29T16:06:16Z</time>
      </trkpt>
      <trkpt lat="44.54852" lon="5.59703">
        <ele>1178</ele>
        <time>2021-12-29T16:06:22Z</time>
      </trkpt>
      <trkpt lat="44.54855" lon="5.59688">
        <ele>1177</ele>
        <time>2021-12-29T16:06:24Z</time>
      </trkpt>
      <trkpt lat="44.54858" lon="5.59604">
        <ele>1175</ele>
        <time>2021-12-29T16:06:35Z</time>
      </trkpt>
      <trkpt lat="44.54862" lon="5.59569">
        <ele>1174</ele>
        <time>2021-12-29T16:06:40Z</time>
      </trkpt>
      <trkpt lat="44.5488" lon="5.59469">
        <ele>1168</ele>
        <time>2021-12-29T16:06:53Z</time>
      </trkpt>
      <trkpt lat="44.54886" lon="5.59424">
        <ele>1167</ele>
        <time>2021-12-29T16:06:58Z</time>
      </trkpt>
      <trkpt lat="44.54885" lon="5.59379">
        <ele>1168</ele>
        <time>2021-12-29T16:07:04Z</time>
      </trkpt>
      <trkpt lat="44.54877" lon="5.59334">
        <ele>1173</ele>
        <time>2021-12-29T16:07:10Z</time>
      </trkpt>
      <trkpt lat="44.54879" lon="5.59325">
        <ele>1172</ele>
        <time>2021-12-29T16:07:11Z</time>
      </trkpt>
      <trkpt lat="44.54885" lon="5.59319">
        <ele>1170</ele>
        <time>2021-12-29T16:07:13Z</time>
      </trkpt>
      <trkpt lat="44.54892" lon="5.59319">
        <ele>1166</ele>
        <time>2021-12-29T16:07:14Z</time>
      </trkpt>
      <trkpt lat="44.54898" lon="5.59323">
        <ele>1164</ele>
        <time>2021-12-29T16:07:15Z</time>
      </trkpt>
      <trkpt lat="44.54903" lon="5.59334">
        <ele>1161</ele>
        <time>2021-12-29T16:07:17Z</time>
      </trkpt>
      <trkpt lat="44.54898" lon="5.59393">
        <ele>1162</ele>
        <time>2021-12-29T16:07:24Z</time>
      </trkpt>
      <trkpt lat="44.549" lon="5.59434">
        <ele>1160</ele>
        <time>2021-12-29T16:07:29Z</time>
      </trkpt>
      <trkpt lat="44.54896" lon="5.5949">
        <ele>1160</ele>
        <time>2021-12-29T16:07:37Z</time>
      </trkpt>
      <trkpt lat="44.54896" lon="5.59518">
        <ele>1159</ele>
        <time>2021-12-29T16:07:40Z</time>
      </trkpt>
      <trkpt lat="44.54898" lon="5.59544">
        <ele>1158</ele>
        <time>2021-12-29T16:07:43Z</time>
      </trkpt>
      <trkpt lat="44.54911" lon="5.59621">
        <ele>1155</ele>
        <time>2021-12-29T16:07:53Z</time>
      </trkpt>
      <trkpt lat="44.54917" lon="5.59638">
        <ele>1154</ele>
        <time>2021-12-29T16:07:56Z</time>
      </trkpt>
      <trkpt lat="44.54926" lon="5.59648">
        <ele>1156</ele>
        <time>2021-12-29T16:07:58Z</time>
      </trkpt>
      <trkpt lat="44.54933" lon="5.59649">
        <ele>1157</ele>
        <time>2021-12-29T16:07:59Z</time>
      </trkpt>
      <trkpt lat="44.54942" lon="5.59647">
        <ele>1158</ele>
        <time>2021-12-29T16:08:01Z</time>
      </trkpt>
      <trkpt lat="44.54964" lon="5.59618">
        <ele>1156</ele>
        <time>2021-12-29T16:08:06Z</time>
      </trkpt>
      <trkpt lat="44.54992" lon="5.59588">
        <ele>1152</ele>
        <time>2021-12-29T16:08:12Z</time>
      </trkpt>
      <trkpt lat="44.55008" lon="5.59566">
        <ele>1150</ele>
        <time>2021-12-29T16:08:16Z</time>
      </trkpt>
      <trkpt lat="44.55036" lon="5.59511">
        <ele>1145</ele>
        <time>2021-12-29T16:08:25Z</time>
      </trkpt>
      <trkpt lat="44.55061" lon="5.59475">
        <ele>1144</ele>
        <time>2021-12-29T16:08:31Z</time>
      </trkpt>
      <trkpt lat="44.55066" lon="5.59462">
        <ele>1142</ele>
        <time>2021-12-29T16:08:33Z</time>
      </trkpt>
      <trkpt lat="44.55074" lon="5.59434">
        <ele>1137</ele>
        <time>2021-12-29T16:08:37Z</time>
      </trkpt>
      <trkpt lat="44.55085" lon="5.59418">
        <ele>1135</ele>
        <time>2021-12-29T16:08:40Z</time>
      </trkpt>
      <trkpt lat="44.55094" lon="5.59409">
        <ele>1134</ele>
        <time>2021-12-29T16:08:42Z</time>
      </trkpt>
      <trkpt lat="44.55106" lon="5.59402">
        <ele>1134</ele>
        <time>2021-12-29T16:08:44Z</time>
      </trkpt>
      <trkpt lat="44.55143" lon="5.59393">
        <ele>1138</ele>
        <time>2021-12-29T16:08:51Z</time>
      </trkpt>
      <trkpt lat="44.55157" lon="5.59386">
        <ele>1138</ele>
        <time>2021-12-29T16:08:53Z</time>
      </trkpt>
      <trkpt lat="44.55164" lon="5.59379">
        <ele>1137</ele>
        <time>2021-12-29T16:08:55Z</time>
      </trkpt>
      <trkpt lat="44.55178" lon="5.59357">
        <ele>1134</ele>
        <time>2021-12-29T16:08:59Z</time>
      </trkpt>
      <trkpt lat="44.55191" lon="5.59341">
        <ele>1133</ele>
        <time>2021-12-29T16:09:02Z</time>
      </trkpt>
      <trkpt lat="44.55212" lon="5.59325">
        <ele>1137</ele>
        <time>2021-12-29T16:09:06Z</time>
      </trkpt>
      <trkpt lat="44.55217" lon="5.59318">
        <ele>1138</ele>
        <time>2021-12-29T16:09:07Z</time>
      </trkpt>
      <trkpt lat="44.55221" lon="5.5931">
        <ele>1137</ele>
        <time>2021-12-29T16:09:09Z</time>
      </trkpt>
      <trkpt lat="44.55222" lon="5.59301">
        <ele>1136</ele>
        <time>2021-12-29T16:09:10Z</time>
      </trkpt>
      <trkpt lat="44.55222" lon="5.59253">
        <ele>1126</ele>
        <time>2021-12-29T16:09:16Z</time>
      </trkpt>
      <trkpt lat="44.55223" lon="5.59233">
        <ele>1123</ele>
        <time>2021-12-29T16:09:18Z</time>
      </trkpt>
      <trkpt lat="44.55227" lon="5.59205">
        <ele>1120</ele>
        <time>2021-12-29T16:09:22Z</time>
      </trkpt>
      <trkpt lat="44.55232" lon="5.59184">
        <ele>1118</ele>
        <time>2021-12-29T16:09:25Z</time>
      </trkpt>
      <trkpt lat="44.55247" lon="5.59163">
        <ele>1119</ele>
        <time>2021-12-29T16:09:28Z</time>
      </trkpt>
      <trkpt lat="44.55257" lon="5.59156">
        <ele>1120</ele>
        <time>2021-12-29T16:09:30Z</time>
      </trkpt>
      <trkpt lat="44.55281" lon="5.59148">
        <ele>1122</ele>
        <time>2021-12-29T16:09:35Z</time>
      </trkpt>
      <trkpt lat="44.5529" lon="5.59136">
        <ele>1120</ele>
        <time>2021-12-29T16:09:37Z</time>
      </trkpt>
      <trkpt lat="44.55292" lon="5.59127">
        <ele>1118</ele>
        <time>2021-12-29T16:09:38Z</time>
      </trkpt>
      <trkpt lat="44.55291" lon="5.5912">
        <ele>1116</ele>
        <time>2021-12-29T16:09:39Z</time>
      </trkpt>
      <trkpt lat="44.55285" lon="5.59109">
        <ele>1113</ele>
        <time>2021-12-29T16:09:41Z</time>
      </trkpt>
      <trkpt lat="44.55279" lon="5.59106">
        <ele>1112</ele>
        <time>2021-12-29T16:09:42Z</time>
      </trkpt>
      <trkpt lat="44.55271" lon="5.59106">
        <ele>1111</ele>
        <time>2021-12-29T16:09:43Z</time>
      </trkpt>
      <trkpt lat="44.55264" lon="5.59109">
        <ele>1111</ele>
        <time>2021-12-29T16:09:45Z</time>
      </trkpt>
      <trkpt lat="44.5524" lon="5.59129">
        <ele>1111</ele>
        <time>2021-12-29T16:09:50Z</time>
      </trkpt>
      <trkpt lat="44.55226" lon="5.59152">
        <ele>1111</ele>
        <time>2021-12-29T16:09:54Z</time>
      </trkpt>
      <trkpt lat="44.55221" lon="5.59163">
        <ele>1111</ele>
        <time>2021-12-29T16:09:55Z</time>
      </trkpt>
      <trkpt lat="44.55199" lon="5.59229">
        <ele>1113</ele>
        <time>2021-12-29T16:10:04Z</time>
      </trkpt>
      <trkpt lat="44.55196" lon="5.59246">
        <ele>1114</ele>
        <time>2021-12-29T16:10:07Z</time>
      </trkpt>
      <trkpt lat="44.55195" lon="5.59271">
        <ele>1119</ele>
        <time>2021-12-29T16:10:10Z</time>
      </trkpt>
      <trkpt lat="44.55192" lon="5.5928">
        <ele>1120</ele>
        <time>2021-12-29T16:10:11Z</time>
      </trkpt>
      <trkpt lat="44.55152" lon="5.59323">
        <ele>1116</ele>
        <time>2021-12-29T16:10:20Z</time>
      </trkpt>
      <trkpt lat="44.55139" lon="5.5933">
        <ele>1116</ele>
        <time>2021-12-29T16:10:23Z</time>
      </trkpt>
      <trkpt lat="44.55125" lon="5.59335">
        <ele>1115</ele>
        <time>2021-12-29T16:10:25Z</time>
      </trkpt>
      <trkpt lat="44.55068" lon="5.59341">
        <ele>1111</ele>
        <time>2021-12-29T16:10:35Z</time>
      </trkpt>
      <trkpt lat="44.55048" lon="5.59354">
        <ele>1115</ele>
        <time>2021-12-29T16:10:39Z</time>
      </trkpt>
      <trkpt lat="44.55037" lon="5.59365">
        <ele>1117</ele>
        <time>2021-12-29T16:10:42Z</time>
      </trkpt>
      <trkpt lat="44.55028" lon="5.59371">
        <ele>1118</ele>
        <time>2021-12-29T16:10:43Z</time>
      </trkpt>
      <trkpt lat="44.55018" lon="5.5937">
        <ele>1118</ele>
        <time>2021-12-29T16:10:45Z</time>
      </trkpt>
      <trkpt lat="44.55013" lon="5.59366">
        <ele>1117</ele>
        <time>2021-12-29T16:10:46Z</time>
      </trkpt>
      <trkpt lat="44.55008" lon="5.59355">
        <ele>1116</ele>
        <time>2021-12-29T16:10:48Z</time>
      </trkpt>
      <trkpt lat="44.55007" lon="5.59344">
        <ele>1115</ele>
        <time>2021-12-29T16:10:49Z</time>
      </trkpt>
      <trkpt lat="44.55008" lon="5.59332">
        <ele>1113</ele>
        <time>2021-12-29T16:10:51Z</time>
      </trkpt>
      <trkpt lat="44.55041" lon="5.59174">
        <ele>1099</ele>
        <time>2021-12-29T16:11:12Z</time>
      </trkpt>
      <trkpt lat="44.55043" lon="5.59147">
        <ele>1098</ele>
        <time>2021-12-29T16:11:15Z</time>
      </trkpt>
      <trkpt lat="44.55047" lon="5.59065">
        <ele>1095</ele>
        <time>2021-12-29T16:11:26Z</time>
      </trkpt>
      <trkpt lat="44.55049" lon="5.58952">
        <ele>1093</ele>
        <time>2021-12-29T16:11:40Z</time>
      </trkpt>
      <trkpt lat="44.55052" lon="5.58892">
        <ele>1095</ele>
        <time>2021-12-29T16:11:48Z</time>
      </trkpt>
      <trkpt lat="44.55062" lon="5.58821">
        <ele>1096</ele>
        <time>2021-12-29T16:11:57Z</time>
      </trkpt>
      <trkpt lat="44.55073" lon="5.58779">
        <ele>1094</ele>
        <time>2021-12-29T16:12:02Z</time>
      </trkpt>
      <trkpt lat="44.55089" lon="5.58704">
        <ele>1093</ele>
        <time>2021-12-29T16:12:12Z</time>
      </trkpt>
      <trkpt lat="44.55102" lon="5.58667">
        <ele>1092</ele>
        <time>2021-12-29T16:12:18Z</time>
      </trkpt>
      <trkpt lat="44.55112" lon="5.5865">
        <ele>1090</ele>
        <time>2021-12-29T16:12:20Z</time>
      </trkpt>
      <trkpt lat="44.5517" lon="5.58581">
        <ele>1077</ele>
        <time>2021-12-29T16:12:34Z</time>
      </trkpt>
      <trkpt lat="44.5522" lon="5.58538">
        <ele>1066</ele>
        <time>2021-12-29T16:12:44Z</time>
      </trkpt>
      <trkpt lat="44.55229" lon="5.58529">
        <ele>1065</ele>
        <time>2021-12-29T16:12:46Z</time>
      </trkpt>
      <trkpt lat="44.55245" lon="5.58502">
        <ele>1064</ele>
        <time>2021-12-29T16:12:51Z</time>
      </trkpt>
      <trkpt lat="44.5526" lon="5.58472">
        <ele>1062</ele>
        <time>2021-12-29T16:12:55Z</time>
      </trkpt>
      <trkpt lat="44.55294" lon="5.58385">
        <ele>1060</ele>
        <time>2021-12-29T16:13:08Z</time>
      </trkpt>
      <trkpt lat="44.55301" lon="5.5836">
        <ele>1059</ele>
        <time>2021-12-29T16:13:11Z</time>
      </trkpt>
      <trkpt lat="44.55306" lon="5.5832">
        <ele>1059</ele>
        <time>2021-12-29T16:13:16Z</time>
      </trkpt>
      <trkpt lat="44.55306" lon="5.5828">
        <ele>1061</ele>
        <time>2021-12-29T16:13:22Z</time>
      </trkpt>
      <trkpt lat="44.55309" lon="5.58252">
        <ele>1062</ele>
        <time>2021-12-29T16:13:25Z</time>
      </trkpt>
      <trkpt lat="44.55328" lon="5.58192">
        <ele>1063</ele>
        <time>2021-12-29T16:13:33Z</time>
      </trkpt>
      <trkpt lat="44.55342" lon="5.58167">
        <ele>1061</ele>
        <time>2021-12-29T16:13:38Z</time>
      </trkpt>
      <trkpt lat="44.55349" lon="5.5816">
        <ele>1060</ele>
        <time>2021-12-29T16:13:39Z</time>
      </trkpt>
      <trkpt lat="44.55376" lon="5.5814">
        <ele>1051</ele>
        <time>2021-12-29T16:13:44Z</time>
      </trkpt>
      <trkpt lat="44.55388" lon="5.58124">
        <ele>1049</ele>
        <time>2021-12-29T16:13:47Z</time>
      </trkpt>
      <trkpt lat="44.55408" lon="5.58069">
        <ele>1049</ele>
        <time>2021-12-29T16:13:55Z</time>
      </trkpt>
      <trkpt lat="44.55433" lon="5.58009">
        <ele>1048</ele>
        <time>2021-12-29T16:14:04Z</time>
      </trkpt>
      <trkpt lat="44.55443" lon="5.57991">
        <ele>1047</ele>
        <time>2021-12-29T16:14:07Z</time>
      </trkpt>
      <trkpt lat="44.5546" lon="5.57969">
        <ele>1045</ele>
        <time>2021-12-29T16:14:11Z</time>
      </trkpt>
      <trkpt lat="44.55474" lon="5.57945">
        <ele>1045</ele>
        <time>2021-12-29T16:14:15Z</time>
      </trkpt>
      <trkpt lat="44.55486" lon="5.57922">
        <ele>1046</ele>
        <time>2021-12-29T16:14:19Z</time>
      </trkpt>
      <trkpt lat="44.55503" lon="5.57908">
        <ele>1045</ele>
        <time>2021-12-29T16:14:22Z</time>
      </trkpt>
      <trkpt lat="44.55518" lon="5.57907">
        <ele>1045</ele>
        <time>2021-12-29T16:14:25Z</time>
      </trkpt>
      <trkpt lat="44.5556" lon="5.57923">
        <ele>1037</ele>
        <time>2021-12-29T16:14:33Z</time>
      </trkpt>
      <trkpt lat="44.55583" lon="5.57927">
        <ele>1034</ele>
        <time>2021-12-29T16:14:37Z</time>
      </trkpt>
      <trkpt lat="44.55618" lon="5.57926">
        <ele>1034</ele>
        <time>2021-12-29T16:14:43Z</time>
      </trkpt>
      <trkpt lat="44.55667" lon="5.57942">
        <ele>1027</ele>
        <time>2021-12-29T16:14:52Z</time>
      </trkpt>
      <trkpt lat="44.5568" lon="5.57943">
        <ele>1024</ele>
        <time>2021-12-29T16:14:54Z</time>
      </trkpt>
      <trkpt lat="44.55688" lon="5.57941">
        <ele>1023</ele>
        <time>2021-12-29T16:14:56Z</time>
      </trkpt>
      <trkpt lat="44.55704" lon="5.57932">
        <ele>1022</ele>
        <time>2021-12-29T16:14:59Z</time>
      </trkpt>
      <trkpt lat="44.55735" lon="5.57901">
        <ele>1023</ele>
        <time>2021-12-29T16:15:05Z</time>
      </trkpt>
      <trkpt lat="44.55777" lon="5.57848">
        <ele>1021</ele>
        <time>2021-12-29T16:15:15Z</time>
      </trkpt>
      <trkpt lat="44.55799" lon="5.57817">
        <ele>1019</ele>
        <time>2021-12-29T16:15:21Z</time>
      </trkpt>
      <trkpt lat="44.55818" lon="5.57781">
        <ele>1016</ele>
        <time>2021-12-29T16:15:27Z</time>
      </trkpt>
      <trkpt lat="44.55826" lon="5.57762">
        <ele>1014</ele>
        <time>2021-12-29T16:15:30Z</time>
      </trkpt>
      <trkpt lat="44.55836" lon="5.57723">
        <ele>1014</ele>
        <time>2021-12-29T16:15:35Z</time>
      </trkpt>
      <trkpt lat="44.55848" lon="5.57652">
        <ele>1016</ele>
        <time>2021-12-29T16:15:44Z</time>
      </trkpt>
      <trkpt lat="44.55854" lon="5.576">
        <ele>1017</ele>
        <time>2021-12-29T16:15:51Z</time>
      </trkpt>
      <trkpt lat="44.55858" lon="5.57586">
        <ele>1015</ele>
        <time>2021-12-29T16:15:53Z</time>
      </trkpt>
      <trkpt lat="44.5588" lon="5.57517">
        <ele>1009</ele>
        <time>2021-12-29T16:16:02Z</time>
      </trkpt>
      <trkpt lat="44.55902" lon="5.57432">
        <ele>1004</ele>
        <time>2021-12-29T16:16:14Z</time>
      </trkpt>
      <trkpt lat="44.55908" lon="5.57398">
        <ele>1003</ele>
        <time>2021-12-29T16:16:18Z</time>
      </trkpt>
      <trkpt lat="44.55911" lon="5.57347">
        <ele>1004</ele>
        <time>2021-12-29T16:16:25Z</time>
      </trkpt>
      <trkpt lat="44.55916" lon="5.57332">
        <ele>1001</ele>
        <time>2021-12-29T16:16:27Z</time>
      </trkpt>
      <trkpt lat="44.55922" lon="5.57327">
        <ele>998</ele>
        <time>2021-12-29T16:16:28Z</time>
      </trkpt>
      <trkpt lat="44.55926" lon="5.57327">
        <ele>996</ele>
        <time>2021-12-29T16:16:29Z</time>
      </trkpt>
      <trkpt lat="44.55931" lon="5.57329">
        <ele>993</ele>
        <time>2021-12-29T16:16:30Z</time>
      </trkpt>
      <trkpt lat="44.55938" lon="5.57339">
        <ele>990</ele>
        <time>2021-12-29T16:16:31Z</time>
      </trkpt>
      <trkpt lat="44.55937" lon="5.57349">
        <ele>990</ele>
        <time>2021-12-29T16:16:33Z</time>
      </trkpt>
      <trkpt lat="44.5593" lon="5.57385">
        <ele>992</ele>
        <time>2021-12-29T16:16:37Z</time>
      </trkpt>
      <trkpt lat="44.55925" lon="5.57432">
        <ele>992</ele>
        <time>2021-12-29T16:16:43Z</time>
      </trkpt>
      <trkpt lat="44.55918" lon="5.57537">
        <ele>988</ele>
        <time>2021-12-29T16:16:57Z</time>
      </trkpt>
      <trkpt lat="44.55909" lon="5.57596">
        <ele>989</ele>
        <time>2021-12-29T16:17:04Z</time>
      </trkpt>
      <trkpt lat="44.55894" lon="5.57877">
        <ele>975</ele>
        <time>2021-12-29T16:17:40Z</time>
      </trkpt>
      <trkpt lat="44.55887" lon="5.57934">
        <ele>973</ele>
        <time>2021-12-29T16:17:47Z</time>
      </trkpt>
      <trkpt lat="44.55876" lon="5.58004">
        <ele>969</ele>
        <time>2021-12-29T16:17:57Z</time>
      </trkpt>
      <trkpt lat="44.55854" lon="5.5808">
        <ele>963</ele>
        <time>2021-12-29T16:18:07Z</time>
      </trkpt>
      <trkpt lat="44.55845" lon="5.58097">
        <ele>963</ele>
        <time>2021-12-29T16:18:10Z</time>
      </trkpt>
      <trkpt lat="44.55832" lon="5.58111">
        <ele>962</ele>
        <time>2021-12-29T16:18:13Z</time>
      </trkpt>
      <trkpt lat="44.55823" lon="5.58124">
        <ele>960</ele>
        <time>2021-12-29T16:18:15Z</time>
      </trkpt>
      <trkpt lat="44.55821" lon="5.5813">
        <ele>959</ele>
        <time>2021-12-29T16:18:16Z</time>
      </trkpt>
      <trkpt lat="44.55821" lon="5.58144">
        <ele>956</ele>
        <time>2021-12-29T16:18:17Z</time>
      </trkpt>
      <trkpt lat="44.55825" lon="5.58154">
        <ele>954</ele>
        <time>2021-12-29T16:18:19Z</time>
      </trkpt>
      <trkpt lat="44.55832" lon="5.58157">
        <ele>955</ele>
        <time>2021-12-29T16:18:20Z</time>
      </trkpt>
      <trkpt lat="44.55837" lon="5.58156">
        <ele>954</ele>
        <time>2021-12-29T16:18:21Z</time>
      </trkpt>
      <trkpt lat="44.55842" lon="5.58152">
        <ele>954</ele>
        <time>2021-12-29T16:18:22Z</time>
      </trkpt>
      <trkpt lat="44.55849" lon="5.58143">
        <ele>954</ele>
        <time>2021-12-29T16:18:24Z</time>
      </trkpt>
      <trkpt lat="44.55858" lon="5.58122">
        <ele>956</ele>
        <time>2021-12-29T16:18:27Z</time>
      </trkpt>
      <trkpt lat="44.55877" lon="5.58088">
        <ele>958</ele>
        <time>2021-12-29T16:18:32Z</time>
      </trkpt>
      <trkpt lat="44.5591" lon="5.58035">
        <ele>958</ele>
        <time>2021-12-29T16:18:41Z</time>
      </trkpt>
      <trkpt lat="44.55924" lon="5.58002">
        <ele>957</ele>
        <time>2021-12-29T16:18:46Z</time>
      </trkpt>
      <trkpt lat="44.55944" lon="5.57934">
        <ele>953</ele>
        <time>2021-12-29T16:18:56Z</time>
      </trkpt>
      <trkpt lat="44.55955" lon="5.57885">
        <ele>951</ele>
        <time>2021-12-29T16:19:02Z</time>
      </trkpt>
      <trkpt lat="44.55963" lon="5.57806">
        <ele>950</ele>
        <time>2021-12-29T16:19:12Z</time>
      </trkpt>
      <trkpt lat="44.55967" lon="5.57785">
        <ele>950</ele>
        <time>2021-12-29T16:19:15Z</time>
      </trkpt>
      <trkpt lat="44.55975" lon="5.57756">
        <ele>950</ele>
        <time>2021-12-29T16:19:19Z</time>
      </trkpt>
      <trkpt lat="44.55993" lon="5.57712">
        <ele>946</ele>
        <time>2021-12-29T16:19:25Z</time>
      </trkpt>
      <trkpt lat="44.56003" lon="5.57668">
        <ele>944</ele>
        <time>2021-12-29T16:19:31Z</time>
      </trkpt>
      <trkpt lat="44.56011" lon="5.57643">
        <ele>943</ele>
        <time>2021-12-29T16:19:35Z</time>
      </trkpt>
      <trkpt lat="44.56027" lon="5.57603">
        <ele>938</ele>
        <time>2021-12-29T16:19:40Z</time>
      </trkpt>
      <trkpt lat="44.56036" lon="5.57565">
        <ele>937</ele>
        <time>2021-12-29T16:19:46Z</time>
      </trkpt>
      <trkpt lat="44.56046" lon="5.57537">
        <ele>936</ele>
        <time>2021-12-29T16:19:49Z</time>
      </trkpt>
      <trkpt lat="44.56083" lon="5.57452">
        <ele>932</ele>
        <time>2021-12-29T16:20:02Z</time>
      </trkpt>
      <trkpt lat="44.56092" lon="5.5743">
        <ele>929</ele>
        <time>2021-12-29T16:20:05Z</time>
      </trkpt>
      <trkpt lat="44.561" lon="5.57402">
        <ele>924</ele>
        <time>2021-12-29T16:20:09Z</time>
      </trkpt>
      <trkpt lat="44.56101" lon="5.57376">
        <ele>920</ele>
        <time>2021-12-29T16:20:12Z</time>
      </trkpt>
      <trkpt lat="44.56097" lon="5.57364">
        <ele>921</ele>
        <time>2021-12-29T16:20:14Z</time>
      </trkpt>
      <trkpt lat="44.56088" lon="5.57348">
        <ele>923</ele>
        <time>2021-12-29T16:20:17Z</time>
      </trkpt>
      <trkpt lat="44.56078" lon="5.57338">
        <ele>926</ele>
        <time>2021-12-29T16:20:19Z</time>
      </trkpt>
      <trkpt lat="44.56051" lon="5.57323">
        <ele>934</ele>
        <time>2021-12-29T16:20:24Z</time>
      </trkpt>
      <trkpt lat="44.56036" lon="5.57309">
        <ele>937</ele>
        <time>2021-12-29T16:20:27Z</time>
      </trkpt>
      <trkpt lat="44.56031" lon="5.57301">
        <ele>937</ele>
        <time>2021-12-29T16:20:29Z</time>
      </trkpt>
      <trkpt lat="44.56019" lon="5.57263">
        <ele>934</ele>
        <time>2021-12-29T16:20:34Z</time>
      </trkpt>
      <trkpt lat="44.56011" lon="5.57233">
        <ele>934</ele>
        <time>2021-12-29T16:20:38Z</time>
      </trkpt>
      <trkpt lat="44.56006" lon="5.57205">
        <ele>935</ele>
        <time>2021-12-29T16:20:42Z</time>
      </trkpt>
      <trkpt lat="44.56006" lon="5.57188">
        <ele>934</ele>
        <time>2021-12-29T16:20:44Z</time>
      </trkpt>
      <trkpt lat="44.56011" lon="5.57162">
        <ele>931</ele>
        <time>2021-12-29T16:20:47Z</time>
      </trkpt>
      <trkpt lat="44.56032" lon="5.57098">
        <ele>929</ele>
        <time>2021-12-29T16:20:56Z</time>
      </trkpt>
      <trkpt lat="44.56043" lon="5.5708">
        <ele>927</ele>
        <time>2021-12-29T16:20:59Z</time>
      </trkpt>
      <trkpt lat="44.56057" lon="5.57068">
        <ele>925</ele>
        <time>2021-12-29T16:21:02Z</time>
      </trkpt>
      <trkpt lat="44.56119" lon="5.57025">
        <ele>917</ele>
        <time>2021-12-29T16:21:14Z</time>
      </trkpt>
      <trkpt lat="44.56134" lon="5.5701">
        <ele>916</ele>
        <time>2021-12-29T16:21:18Z</time>
      </trkpt>
      <trkpt lat="44.56147" lon="5.56994">
        <ele>916</ele>
        <time>2021-12-29T16:21:21Z</time>
      </trkpt>
      <trkpt lat="44.56163" lon="5.56979">
        <ele>914</ele>
        <time>2021-12-29T16:21:24Z</time>
      </trkpt>
      <trkpt lat="44.56212" lon="5.56953">
        <ele>903</ele>
        <time>2021-12-29T16:21:33Z</time>
      </trkpt>
      <trkpt lat="44.56221" lon="5.56946">
        <ele>901</ele>
        <time>2021-12-29T16:21:35Z</time>
      </trkpt>
      <trkpt lat="44.56232" lon="5.56932">
        <ele>900</ele>
        <time>2021-12-29T16:21:38Z</time>
      </trkpt>
      <trkpt lat="44.56242" lon="5.56909">
        <ele>899</ele>
        <time>2021-12-29T16:21:41Z</time>
      </trkpt>
      <trkpt lat="44.56249" lon="5.56882">
        <ele>899</ele>
        <time>2021-12-29T16:21:45Z</time>
      </trkpt>
      <trkpt lat="44.5625" lon="5.56826">
        <ele>905</ele>
        <time>2021-12-29T16:21:52Z</time>
      </trkpt>
      <trkpt lat="44.56252" lon="5.56809">
        <ele>905</ele>
        <time>2021-12-29T16:21:54Z</time>
      </trkpt>
      <trkpt lat="44.56258" lon="5.56793">
        <ele>904</ele>
        <time>2021-12-29T16:21:57Z</time>
      </trkpt>
      <trkpt lat="44.5628" lon="5.56748">
        <ele>900</ele>
        <time>2021-12-29T16:22:03Z</time>
      </trkpt>
      <trkpt lat="44.56295" lon="5.56701">
        <ele>894</ele>
        <time>2021-12-29T16:22:10Z</time>
      </trkpt>
      <trkpt lat="44.56299" lon="5.56685">
        <ele>892</ele>
        <time>2021-12-29T16:22:12Z</time>
      </trkpt>
      <trkpt lat="44.56301" lon="5.56649">
        <ele>888</ele>
        <time>2021-12-29T16:22:17Z</time>
      </trkpt>
      <trkpt lat="44.56296" lon="5.56621">
        <ele>884</ele>
        <time>2021-12-29T16:22:20Z</time>
      </trkpt>
      <trkpt lat="44.56284" lon="5.5659">
        <ele>882</ele>
        <time>2021-12-29T16:22:25Z</time>
      </trkpt>
      <trkpt lat="44.56277" lon="5.56579">
        <ele>882</ele>
        <time>2021-12-29T16:22:27Z</time>
      </trkpt>
      <trkpt lat="44.56253" lon="5.56552">
        <ele>884</ele>
        <time>2021-12-29T16:22:32Z</time>
      </trkpt>
      <trkpt lat="44.56233" lon="5.56525">
        <ele>889</ele>
        <time>2021-12-29T16:22:37Z</time>
      </trkpt>
      <trkpt lat="44.56228" lon="5.56508">
        <ele>889</ele>
        <time>2021-12-29T16:22:39Z</time>
      </trkpt>
      <trkpt lat="44.56226" lon="5.56482">
        <ele>890</ele>
        <time>2021-12-29T16:22:43Z</time>
      </trkpt>
      <trkpt lat="44.56227" lon="5.56452">
        <ele>892</ele>
        <time>2021-12-29T16:22:47Z</time>
      </trkpt>
      <trkpt lat="44.56229" lon="5.56442">
        <ele>891</ele>
        <time>2021-12-29T16:22:48Z</time>
      </trkpt>
      <trkpt lat="44.56237" lon="5.56425">
        <ele>888</ele>
        <time>2021-12-29T16:22:50Z</time>
      </trkpt>
      <trkpt lat="44.56266" lon="5.56388">
        <ele>886</ele>
        <time>2021-12-29T16:22:57Z</time>
      </trkpt>
      <trkpt lat="44.56282" lon="5.56372">
        <ele>885</ele>
        <time>2021-12-29T16:23:01Z</time>
      </trkpt>
      <trkpt lat="44.56307" lon="5.56356">
        <ele>879</ele>
        <time>2021-12-29T16:23:06Z</time>
      </trkpt>
      <trkpt lat="44.56319" lon="5.56347">
        <ele>876</ele>
        <time>2021-12-29T16:23:08Z</time>
      </trkpt>
      <trkpt lat="44.56324" lon="5.56341">
        <ele>875</ele>
        <time>2021-12-29T16:23:09Z</time>
      </trkpt>
      <trkpt lat="44.56333" lon="5.56325">
        <ele>873</ele>
        <time>2021-12-29T16:23:12Z</time>
      </trkpt>
      <trkpt lat="44.56347" lon="5.56274">
        <ele>871</ele>
        <time>2021-12-29T16:23:19Z</time>
      </trkpt>
      <trkpt lat="44.56351" lon="5.56256">
        <ele>871</ele>
        <time>2021-12-29T16:23:21Z</time>
      </trkpt>
      <trkpt lat="44.56354" lon="5.56201">
        <ele>872</ele>
        <time>2021-12-29T16:23:28Z</time>
      </trkpt>
      <trkpt lat="44.56367" lon="5.5615">
        <ele>870</ele>
        <time>2021-12-29T16:23:35Z</time>
      </trkpt>
      <trkpt lat="44.56372" lon="5.56102">
        <ele>874</ele>
        <time>2021-12-29T16:23:41Z</time>
      </trkpt>
      <trkpt lat="44.56378" lon="5.56087">
        <ele>874</ele>
        <time>2021-12-29T16:23:44Z</time>
      </trkpt>
      <trkpt lat="44.56388" lon="5.56075">
        <ele>872</ele>
        <time>2021-12-29T16:23:46Z</time>
      </trkpt>
      <trkpt lat="44.56409" lon="5.56064">
        <ele>867</ele>
        <time>2021-12-29T16:23:50Z</time>
      </trkpt>
      <trkpt lat="44.56427" lon="5.56061">
        <ele>864</ele>
        <time>2021-12-29T16:23:53Z</time>
      </trkpt>
      <trkpt lat="44.5646" lon="5.56067">
        <ele>858</ele>
        <time>2021-12-29T16:23:59Z</time>
      </trkpt>
      <trkpt lat="44.56466" lon="5.56066">
        <ele>857</ele>
        <time>2021-12-29T16:24:00Z</time>
      </trkpt>
      <trkpt lat="44.56477" lon="5.56059">
        <ele>856</ele>
        <time>2021-12-29T16:24:02Z</time>
      </trkpt>
      <trkpt lat="44.56481" lon="5.56051">
        <ele>856</ele>
        <time>2021-12-29T16:24:03Z</time>
      </trkpt>
      <trkpt lat="44.56484" lon="5.56042">
        <ele>856</ele>
        <time>2021-12-29T16:24:05Z</time>
      </trkpt>
      <trkpt lat="44.56485" lon="5.56032">
        <ele>857</ele>
        <time>2021-12-29T16:24:06Z</time>
      </trkpt>
      <trkpt lat="44.56481" lon="5.56011">
        <ele>859</ele>
        <time>2021-12-29T16:24:09Z</time>
      </trkpt>
      <trkpt lat="44.56479" lon="5.55991">
        <ele>861</ele>
        <time>2021-12-29T16:24:11Z</time>
      </trkpt>
      <trkpt lat="44.56483" lon="5.55973">
        <ele>862</ele>
        <time>2021-12-29T16:24:14Z</time>
      </trkpt>
      <trkpt lat="44.56497" lon="5.55954">
        <ele>860</ele>
        <time>2021-12-29T16:24:17Z</time>
      </trkpt>
      <trkpt lat="44.56519" lon="5.55933">
        <ele>855</ele>
        <time>2021-12-29T16:24:22Z</time>
      </trkpt>
      <trkpt lat="44.56529" lon="5.55923">
        <ele>853</ele>
        <time>2021-12-29T16:24:24Z</time>
      </trkpt>
      <trkpt lat="44.56536" lon="5.55912">
        <ele>852</ele>
        <time>2021-12-29T16:24:26Z</time>
      </trkpt>
      <trkpt lat="44.56545" lon="5.55895">
        <ele>850</ele>
        <time>2021-12-29T16:24:29Z</time>
      </trkpt>
      <trkpt lat="44.56551" lon="5.55877">
        <ele>848</ele>
        <time>2021-12-29T16:24:31Z</time>
      </trkpt>
      <trkpt lat="44.56553" lon="5.55857">
        <ele>848</ele>
        <time>2021-12-29T16:24:34Z</time>
      </trkpt>
      <trkpt lat="44.56552" lon="5.55838">
        <ele>848</ele>
        <time>2021-12-29T16:24:36Z</time>
      </trkpt>
      <trkpt lat="44.56547" lon="5.55811">
        <ele>845</ele>
        <time>2021-12-29T16:24:40Z</time>
      </trkpt>
      <trkpt lat="44.56547" lon="5.55797">
        <ele>842</ele>
        <time>2021-12-29T16:24:41Z</time>
      </trkpt>
      <trkpt lat="44.5655" lon="5.55791">
        <ele>841</ele>
        <time>2021-12-29T16:24:42Z</time>
      </trkpt>
      <trkpt lat="44.56557" lon="5.55785">
        <ele>838</ele>
        <time>2021-12-29T16:24:44Z</time>
      </trkpt>
      <trkpt lat="44.56567" lon="5.55788">
        <ele>836</ele>
        <time>2021-12-29T16:24:46Z</time>
      </trkpt>
      <trkpt lat="44.56571" lon="5.55795">
        <ele>836</ele>
        <time>2021-12-29T16:24:47Z</time>
      </trkpt>
      <trkpt lat="44.56573" lon="5.55807">
        <ele>838</ele>
        <time>2021-12-29T16:24:48Z</time>
      </trkpt>
      <trkpt lat="44.56575" lon="5.5585">
        <ele>843</ele>
        <time>2021-12-29T16:24:54Z</time>
      </trkpt>
      <trkpt lat="44.56581" lon="5.55895">
        <ele>841</ele>
        <time>2021-12-29T16:25:00Z</time>
      </trkpt>
      <trkpt lat="44.56581" lon="5.55909">
        <ele>841</ele>
        <time>2021-12-29T16:25:01Z</time>
      </trkpt>
      <trkpt lat="44.56577" lon="5.55926">
        <ele>841</ele>
        <time>2021-12-29T16:25:04Z</time>
      </trkpt>
      <trkpt lat="44.5656" lon="5.55964">
        <ele>843</ele>
        <time>2021-12-29T16:25:09Z</time>
      </trkpt>
      <trkpt lat="44.56559" lon="5.5598">
        <ele>842</ele>
        <time>2021-12-29T16:25:11Z</time>
      </trkpt>
      <trkpt lat="44.56564" lon="5.55994">
        <ele>840</ele>
        <time>2021-12-29T16:25:13Z</time>
      </trkpt>
      <trkpt lat="44.56592" lon="5.56023">
        <ele>832</ele>
        <time>2021-12-29T16:25:20Z</time>
      </trkpt>
      <trkpt lat="44.56606" lon="5.56045">
        <ele>830</ele>
        <time>2021-12-29T16:25:23Z</time>
      </trkpt>
      <trkpt lat="44.56609" lon="5.56056">
        <ele>830</ele>
        <time>2021-12-29T16:25:25Z</time>
      </trkpt>
      <trkpt lat="44.56612" lon="5.56085">
        <ele>829</ele>
        <time>2021-12-29T16:25:29Z</time>
      </trkpt>
      <trkpt lat="44.56609" lon="5.56128">
        <ele>827</ele>
        <time>2021-12-29T16:25:34Z</time>
      </trkpt>
      <trkpt lat="44.56605" lon="5.5614">
        <ele>827</ele>
        <time>2021-12-29T16:25:36Z</time>
      </trkpt>
      <trkpt lat="44.56596" lon="5.56157">
        <ele>826</ele>
        <time>2021-12-29T16:25:38Z</time>
      </trkpt>
      <trkpt lat="44.56584" lon="5.56167">
        <ele>827</ele>
        <time>2021-12-29T16:25:41Z</time>
      </trkpt>
      <trkpt lat="44.56576" lon="5.5617">
        <ele>827</ele>
        <time>2021-12-29T16:25:42Z</time>
      </trkpt>
      <trkpt lat="44.56498" lon="5.56184">
        <ele>828</ele>
        <time>2021-12-29T16:25:56Z</time>
      </trkpt>
      <trkpt lat="44.56486" lon="5.56194">
        <ele>829</ele>
        <time>2021-12-29T16:25:59Z</time>
      </trkpt>
      <trkpt lat="44.5648" lon="5.56206">
        <ele>829</ele>
        <time>2021-12-29T16:26:01Z</time>
      </trkpt>
      <trkpt lat="44.56477" lon="5.56215">
        <ele>828</ele>
        <time>2021-12-29T16:26:02Z</time>
      </trkpt>
      <trkpt lat="44.56473" lon="5.56234">
        <ele>826</ele>
        <time>2021-12-29T16:26:04Z</time>
      </trkpt>
      <trkpt lat="44.56473" lon="5.56252">
        <ele>824</ele>
        <time>2021-12-29T16:26:07Z</time>
      </trkpt>
      <trkpt lat="44.56479" lon="5.5633">
        <ele>819</ele>
        <time>2021-12-29T16:26:17Z</time>
      </trkpt>
      <trkpt lat="44.5648" lon="5.56406">
        <ele>814</ele>
        <time>2021-12-29T16:26:26Z</time>
      </trkpt>
      <trkpt lat="44.56478" lon="5.56435">
        <ele>813</ele>
        <time>2021-12-29T16:26:30Z</time>
      </trkpt>
      <trkpt lat="44.56475" lon="5.56462">
        <ele>812</ele>
        <time>2021-12-29T16:26:33Z</time>
      </trkpt>
      <trkpt lat="44.56469" lon="5.56488">
        <ele>812</ele>
        <time>2021-12-29T16:26:37Z</time>
      </trkpt>
      <trkpt lat="44.56466" lon="5.56511">
        <ele>813</ele>
        <time>2021-12-29T16:26:40Z</time>
      </trkpt>
      <trkpt lat="44.56468" lon="5.56527">
        <ele>814</ele>
        <time>2021-12-29T16:26:42Z</time>
      </trkpt>
      <trkpt lat="44.56474" lon="5.56538">
        <ele>813</ele>
        <time>2021-12-29T16:26:44Z</time>
      </trkpt>
      <trkpt lat="44.56493" lon="5.56555">
        <ele>809</ele>
        <time>2021-12-29T16:26:48Z</time>
      </trkpt>
      <trkpt lat="44.56511" lon="5.56577">
        <ele>805</ele>
        <time>2021-12-29T16:26:52Z</time>
      </trkpt>
      <trkpt lat="44.56518" lon="5.56591">
        <ele>804</ele>
        <time>2021-12-29T16:26:54Z</time>
      </trkpt>
      <trkpt lat="44.5653" lon="5.5662">
        <ele>803</ele>
        <time>2021-12-29T16:26:58Z</time>
      </trkpt>
      <trkpt lat="44.56541" lon="5.56657">
        <ele>802</ele>
        <time>2021-12-29T16:27:03Z</time>
      </trkpt>
      <trkpt lat="44.56554" lon="5.56787">
        <ele>797</ele>
        <time>2021-12-29T16:27:20Z</time>
      </trkpt>
      <trkpt lat="44.56555" lon="5.5682">
        <ele>795</ele>
        <time>2021-12-29T16:27:24Z</time>
      </trkpt>
      <trkpt lat="44.5654" lon="5.56902">
        <ele>795</ele>
        <time>2021-12-29T16:27:35Z</time>
      </trkpt>
      <trkpt lat="44.56537" lon="5.56929">
        <ele>794</ele>
        <time>2021-12-29T16:27:38Z</time>
      </trkpt>
      <trkpt lat="44.56535" lon="5.5694">
        <ele>794</ele>
        <time>2021-12-29T16:27:40Z</time>
      </trkpt>
      <trkpt lat="44.5652" lon="5.56976">
        <ele>795</ele>
        <time>2021-12-29T16:27:45Z</time>
      </trkpt>
      <trkpt lat="44.56519" lon="5.56982">
        <ele>795</ele>
        <time>2021-12-29T16:27:46Z</time>
      </trkpt>
      <trkpt lat="44.5652" lon="5.56994">
        <ele>794</ele>
        <time>2021-12-29T16:27:48Z</time>
      </trkpt>
      <trkpt lat="44.56523" lon="5.56999">
        <ele>793</ele>
        <time>2021-12-29T16:27:48Z</time>
      </trkpt>
      <trkpt lat="44.5653" lon="5.57004">
        <ele>791</ele>
        <time>2021-12-29T16:27:50Z</time>
      </trkpt>
      <trkpt lat="44.5654" lon="5.57">
        <ele>789</ele>
        <time>2021-12-29T16:27:52Z</time>
      </trkpt>
      <trkpt lat="44.56544" lon="5.56993">
        <ele>788</ele>
        <time>2021-12-29T16:27:53Z</time>
      </trkpt>
      <trkpt lat="44.56546" lon="5.56984">
        <ele>788</ele>
        <time>2021-12-29T16:27:54Z</time>
      </trkpt>
      <trkpt lat="44.56553" lon="5.56937">
        <ele>789</ele>
        <time>2021-12-29T16:28:00Z</time>
      </trkpt>
      <trkpt lat="44.56558" lon="5.56915">
        <ele>788</ele>
        <time>2021-12-29T16:28:03Z</time>
      </trkpt>
      <trkpt lat="44.56567" lon="5.5689">
        <ele>787</ele>
        <time>2021-12-29T16:28:06Z</time>
      </trkpt>
      <trkpt lat="44.56579" lon="5.56864">
        <ele>785</ele>
        <time>2021-12-29T16:28:10Z</time>
      </trkpt>
      <trkpt lat="44.56588" lon="5.56848">
        <ele>784</ele>
        <time>2021-12-29T16:28:13Z</time>
      </trkpt>
      <trkpt lat="44.56597" lon="5.56829">
        <ele>783</ele>
        <time>2021-12-29T16:28:16Z</time>
      </trkpt>
      <trkpt lat="44.56614" lon="5.5678">
        <ele>780</ele>
        <time>2021-12-29T16:28:23Z</time>
      </trkpt>
      <trkpt lat="44.56636" lon="5.56736">
        <ele>776</ele>
        <time>2021-12-29T16:28:30Z</time>
      </trkpt>
      <trkpt lat="44.56667" lon="5.56632">
        <ele>772</ele>
        <time>2021-12-29T16:28:44Z</time>
      </trkpt>
      <trkpt lat="44.56684" lon="5.56591">
        <ele>770</ele>
        <time>2021-12-29T16:28:50Z</time>
      </trkpt>
      <trkpt lat="44.56719" lon="5.56499">
        <ele>764</ele>
        <time>2021-12-29T16:29:03Z</time>
      </trkpt>
      <trkpt lat="44.56738" lon="5.56472">
        <ele>763</ele>
        <time>2021-12-29T16:29:08Z</time>
      </trkpt>
      <trkpt lat="44.56744" lon="5.56466">
        <ele>763</ele>
        <time>2021-12-29T16:29:09Z</time>
      </trkpt>
      <trkpt lat="44.56751" lon="5.56461">
        <ele>762</ele>
        <time>2021-12-29T16:29:11Z</time>
      </trkpt>
      <trkpt lat="44.56793" lon="5.56431">
        <ele>760</ele>
        <time>2021-12-29T16:29:19Z</time>
      </trkpt>
      <trkpt lat="44.56876" lon="5.56355">
        <ele>759</ele>
        <time>2021-12-29T16:29:37Z</time>
      </trkpt>
      <trkpt lat="44.5689" lon="5.5634">
        <ele>758</ele>
        <time>2021-12-29T16:29:40Z</time>
      </trkpt>
      <trkpt lat="44.56934" lon="5.56277">
        <ele>757</ele>
        <time>2021-12-29T16:29:51Z</time>
      </trkpt>
      <trkpt lat="44.5694" lon="5.5627">
        <ele>757</ele>
        <time>2021-12-29T16:29:52Z</time>
      </trkpt>
      <trkpt lat="44.5695" lon="5.56265">
        <ele>757</ele>
        <time>2021-12-29T16:29:54Z</time>
      </trkpt>
      <trkpt lat="44.56971" lon="5.56265">
        <ele>757</ele>
        <time>2021-12-29T16:29:58Z</time>
      </trkpt>
      <trkpt lat="44.5698" lon="5.56261">
        <ele>756</ele>
        <time>2021-12-29T16:30:00Z</time>
      </trkpt>
      <trkpt lat="44.56989" lon="5.56249">
        <ele>755</ele>
        <time>2021-12-29T16:30:02Z</time>
      </trkpt>
      <trkpt lat="44.56992" lon="5.5624">
        <ele>755</ele>
        <time>2021-12-29T16:30:03Z</time>
      </trkpt>
      <trkpt lat="44.57031" lon="5.5605">
        <ele>748</ele>
        <time>2021-12-29T16:30:28Z</time>
      </trkpt>
      <trkpt lat="44.57035" lon="5.56009">
        <ele>745</ele>
        <time>2021-12-29T16:30:33Z</time>
      </trkpt>
      <trkpt lat="44.57032" lon="5.55797">
        <ele>740</ele>
        <time>2021-12-29T16:31:00Z</time>
      </trkpt>
      <trkpt lat="44.57032" lon="5.55768">
        <ele>741</ele>
        <time>2021-12-29T16:31:04Z</time>
      </trkpt>
      <trkpt lat="44.57029" lon="5.55745">
        <ele>741</ele>
        <time>2021-12-29T16:31:07Z</time>
      </trkpt>
      <trkpt lat="44.57021" lon="5.55716">
        <ele>742</ele>
        <time>2021-12-29T16:31:11Z</time>
      </trkpt>
      <trkpt lat="44.57013" lon="5.557">
        <ele>742</ele>
        <time>2021-12-29T16:31:13Z</time>
      </trkpt>
      <trkpt lat="44.56988" lon="5.55663">
        <ele>740</ele>
        <time>2021-12-29T16:31:20Z</time>
      </trkpt>
      <trkpt lat="44.56964" lon="5.55605">
        <ele>740</ele>
        <time>2021-12-29T16:31:28Z</time>
      </trkpt>
      <trkpt lat="44.56683" lon="5.54752">
        <ele>726</ele>
        <time>2021-12-29T16:33:27Z</time>
      </trkpt>
      <trkpt lat="44.56673" lon="5.54733">
        <ele>726</ele>
        <time>2021-12-29T16:33:30Z</time>
      </trkpt>
      <trkpt lat="44.56652" lon="5.54702">
        <ele>727</ele>
        <time>2021-12-29T16:33:36Z</time>
      </trkpt>
      <trkpt lat="44.56349" lon="5.54296">
        <ele>719</ele>
        <time>2021-12-29T16:34:50Z</time>
      </trkpt>
      <trkpt lat="44.56333" lon="5.54279">
        <ele>722</ele>
        <time>2021-12-29T16:34:54Z</time>
      </trkpt>
      <trkpt lat="44.56311" lon="5.54266">
        <ele>722</ele>
        <time>2021-12-29T16:34:58Z</time>
      </trkpt>
      <trkpt lat="44.5626" lon="5.54251">
        <ele>719</ele>
        <time>2021-12-29T16:35:08Z</time>
      </trkpt>
      <trkpt lat="44.56239" lon="5.54248">
        <ele>717</ele>
        <time>2021-12-29T16:35:11Z</time>
      </trkpt>
      <trkpt lat="44.56205" lon="5.54247">
        <ele>714</ele>
        <time>2021-12-29T16:35:17Z</time>
      </trkpt>
      <trkpt lat="44.5618" lon="5.54249">
        <ele>711</ele>
        <time>2021-12-29T16:35:22Z</time>
      </trkpt>
      <trkpt lat="44.56155" lon="5.54247">
        <ele>709</ele>
        <time>2021-12-29T16:35:26Z</time>
      </trkpt>
      <trkpt lat="44.5593" lon="5.5411">
        <ele>706</ele>
        <time>2021-12-29T16:36:10Z</time>
      </trkpt>
      <trkpt lat="44.55917" lon="5.54105">
        <ele>706</ele>
        <time>2021-12-29T16:36:12Z</time>
      </trkpt>
      <trkpt lat="44.55901" lon="5.54101">
        <ele>706</ele>
        <time>2021-12-29T16:36:15Z</time>
      </trkpt>
      <trkpt lat="44.5587" lon="5.54105">
        <ele>706</ele>
        <time>2021-12-29T16:36:21Z</time>
      </trkpt>
      <trkpt lat="44.55853" lon="5.54112">
        <ele>706</ele>
        <time>2021-12-29T16:36:24Z</time>
      </trkpt>
      <trkpt lat="44.55784" lon="5.54158">
        <ele>704</ele>
        <time>2021-12-29T16:36:37Z</time>
      </trkpt>
      <trkpt lat="44.55719" lon="5.54197">
        <ele>704</ele>
        <time>2021-12-29T16:36:50Z</time>
      </trkpt>
      <trkpt lat="44.55708" lon="5.54202">
        <ele>704</ele>
        <time>2021-12-29T16:36:52Z</time>
      </trkpt>
      <trkpt lat="44.557" lon="5.54204">
        <ele>704</ele>
        <time>2021-12-29T16:36:54Z</time>
      </trkpt>
      <trkpt lat="44.55684" lon="5.54206">
        <ele>705</ele>
        <time>2021-12-29T16:36:56Z</time>
      </trkpt>
      <trkpt lat="44.55665" lon="5.542">
        <ele>706</ele>
        <time>2021-12-29T16:37:00Z</time>
      </trkpt>
      <trkpt lat="44.55644" lon="5.54186">
        <ele>705</ele>
        <time>2021-12-29T16:37:04Z</time>
      </trkpt>
      <trkpt lat="44.55369" lon="5.5394">
        <ele>702</ele>
        <time>2021-12-29T16:38:02Z</time>
      </trkpt>
      <trkpt lat="44.55341" lon="5.53918">
        <ele>699</ele>
        <time>2021-12-29T16:38:08Z</time>
      </trkpt>
      <trkpt lat="44.55312" lon="5.53898">
        <ele>703</ele>
        <time>2021-12-29T16:38:13Z</time>
      </trkpt>
      <trkpt lat="44.55283" lon="5.53882">
        <ele>703</ele>
        <time>2021-12-29T16:38:19Z</time>
      </trkpt>
      <trkpt lat="44.55067" lon="5.53777">
        <ele>694</ele>
        <time>2021-12-29T16:39:00Z</time>
      </trkpt>
      <trkpt lat="44.54996" lon="5.53745">
        <ele>690</ele>
        <time>2021-12-29T16:39:13Z</time>
      </trkpt>
      <trkpt lat="44.5498" lon="5.53735">
        <ele>689</ele>
        <time>2021-12-29T16:39:16Z</time>
      </trkpt>
      <trkpt lat="44.54969" lon="5.53724">
        <ele>688</ele>
        <time>2021-12-29T16:39:18Z</time>
      </trkpt>
      <trkpt lat="44.54963" lon="5.53715">
        <ele>688</ele>
        <time>2021-12-29T16:39:20Z</time>
      </trkpt>
      <trkpt lat="44.54958" lon="5.53702">
        <ele>688</ele>
        <time>2021-12-29T16:39:22Z</time>
      </trkpt>
      <trkpt lat="44.54953" lon="5.53677">
        <ele>688</ele>
        <time>2021-12-29T16:39:25Z</time>
      </trkpt>
      <trkpt lat="44.54952" lon="5.53663">
        <ele>688</ele>
        <time>2021-12-29T16:39:27Z</time>
      </trkpt>
      <trkpt lat="44.54954" lon="5.53648">
        <ele>688</ele>
        <time>2021-12-29T16:39:29Z</time>
      </trkpt>
      <trkpt lat="44.5496" lon="5.53625">
        <ele>688</ele>
        <time>2021-12-29T16:39:32Z</time>
      </trkpt>
      <trkpt lat="44.55076" lon="5.53456">
        <ele>688</ele>
        <time>2021-12-29T16:40:02Z</time>
      </trkpt>
      <trkpt lat="44.55106" lon="5.53408">
        <ele>689</ele>
        <time>2021-12-29T16:40:10Z</time>
      </trkpt>
      <trkpt lat="44.55141" lon="5.53341">
        <ele>691</ele>
        <time>2021-12-29T16:40:20Z</time>
      </trkpt>
      <trkpt lat="44.55163" lon="5.53288">
        <ele>686</ele>
        <time>2021-12-29T16:40:28Z</time>
      </trkpt>
      <trkpt lat="44.55216" lon="5.53123">
        <ele>688</ele>
        <time>2021-12-29T16:40:51Z</time>
      </trkpt>
      <trkpt lat="44.55238" lon="5.5305">
        <ele>688</ele>
        <time>2021-12-29T16:41:01Z</time>
      </trkpt>
      <trkpt lat="44.55244" lon="5.53027">
        <ele>687</ele>
        <time>2021-12-29T16:41:04Z</time>
      </trkpt>
      <trkpt lat="44.5525" lon="5.52985">
        <ele>685</ele>
        <time>2021-12-29T16:41:10Z</time>
      </trkpt>
      <trkpt lat="44.55252" lon="5.52958">
        <ele>685</ele>
        <time>2021-12-29T16:41:13Z</time>
      </trkpt>
      <trkpt lat="44.55251" lon="5.52704">
        <ele>680</ele>
        <time>2021-12-29T16:41:45Z</time>
      </trkpt>
      <trkpt lat="44.55257" lon="5.52629">
        <ele>678</ele>
        <time>2021-12-29T16:41:55Z</time>
      </trkpt>
      <trkpt lat="44.55262" lon="5.52602">
        <ele>678</ele>
        <time>2021-12-29T16:41:58Z</time>
      </trkpt>
      <trkpt lat="44.55269" lon="5.5258">
        <ele>678</ele>
        <time>2021-12-29T16:42:02Z</time>
      </trkpt>
      <trkpt lat="44.55278" lon="5.5256">
        <ele>678</ele>
        <time>2021-12-29T16:42:05Z</time>
      </trkpt>
      <trkpt lat="44.55289" lon="5.52541">
        <ele>678</ele>
        <time>2021-12-29T16:42:08Z</time>
      </trkpt>
      <trkpt lat="44.55308" lon="5.5252">
        <ele>677</ele>
        <time>2021-12-29T16:42:12Z</time>
      </trkpt>
      <trkpt lat="44.55537" lon="5.52331">
        <ele>671</ele>
        <time>2021-12-29T16:42:59Z</time>
      </trkpt>
      <trkpt lat="44.55563" lon="5.52307">
        <ele>672</ele>
        <time>2021-12-29T16:43:05Z</time>
      </trkpt>
      <trkpt lat="44.55592" lon="5.52274">
        <ele>672</ele>
        <time>2021-12-29T16:43:11Z</time>
      </trkpt>
      <trkpt lat="44.55706" lon="5.52133">
        <ele>668</ele>
        <time>2021-12-29T16:43:38Z</time>
      </trkpt>
      <trkpt lat="44.55821" lon="5.51986">
        <ele>664</ele>
        <time>2021-12-29T16:44:06Z</time>
      </trkpt>
      <trkpt lat="44.56216" lon="5.51492">
        <ele>659</ele>
        <time>2021-12-29T16:45:40Z</time>
      </trkpt>
      <trkpt lat="44.56242" lon="5.51458">
        <ele>658</ele>
        <time>2021-12-29T16:45:47Z</time>
      </trkpt>
      <trkpt lat="44.56496" lon="5.51056">
        <ele>654</ele>
        <time>2021-12-29T16:46:55Z</time>
      </trkpt>
      <trkpt lat="44.56661" lon="5.50767">
        <ele>654</ele>
        <time>2021-12-29T16:47:42Z</time>
      </trkpt>
      <trkpt lat="44.56708" lon="5.50652">
        <ele>654</ele>
        <time>2021-12-29T16:47:58Z</time>
      </trkpt>
      <trkpt lat="44.56723" lon="5.5061">
        <ele>653</ele>
        <time>2021-12-29T16:48:04Z</time>
      </trkpt>
      <trkpt lat="44.56734" lon="5.50573">
        <ele>652</ele>
        <time>2021-12-29T16:48:09Z</time>
      </trkpt>
      <trkpt lat="44.56751" lon="5.50495">
        <ele>652</ele>
        <time>2021-12-29T16:48:20Z</time>
      </trkpt>
      <trkpt lat="44.56762" lon="5.50432">
        <ele>657</ele>
        <time>2021-12-29T16:48:28Z</time>
      </trkpt>
      <trkpt lat="44.56776" lon="5.50358">
        <ele>656</ele>
        <time>2021-12-29T16:48:38Z</time>
      </trkpt>
      <trkpt lat="44.56788" lon="5.50326">
        <ele>655</ele>
        <time>2021-12-29T16:48:42Z</time>
      </trkpt>
      <trkpt lat="44.56799" lon="5.50308">
        <ele>654</ele>
        <time>2021-12-29T16:48:45Z</time>
      </trkpt>
      <trkpt lat="44.56813" lon="5.50296">
        <ele>654</ele>
        <time>2021-12-29T16:48:48Z</time>
      </trkpt>
      <trkpt lat="44.56822" lon="5.50291">
        <ele>654</ele>
        <time>2021-12-29T16:48:50Z</time>
      </trkpt>
      <trkpt lat="44.56838" lon="5.50287">
        <ele>654</ele>
        <time>2021-12-29T16:48:53Z</time>
      </trkpt>
      <trkpt lat="44.5699" lon="5.50268">
        <ele>649</ele>
        <time>2021-12-29T16:49:20Z</time>
      </trkpt>
      <trkpt lat="44.57027" lon="5.50262">
        <ele>648</ele>
        <time>2021-12-29T16:49:27Z</time>
      </trkpt>
      <trkpt lat="44.5707" lon="5.50249">
        <ele>646</ele>
        <time>2021-12-29T16:49:34Z</time>
      </trkpt>
      <trkpt lat="44.57133" lon="5.50218">
        <ele>646</ele>
        <time>2021-12-29T16:49:46Z</time>
      </trkpt>
      <trkpt lat="44.57213" lon="5.50162">
        <ele>646</ele>
        <time>2021-12-29T16:50:02Z</time>
      </trkpt>
      <trkpt lat="44.57278" lon="5.50096">
        <ele>646</ele>
        <time>2021-12-29T16:50:17Z</time>
      </trkpt>
      <trkpt lat="44.5732" lon="5.50044">
        <ele>645</ele>
        <time>2021-12-29T16:50:27Z</time>
      </trkpt>
      <trkpt lat="44.57367" lon="5.49952">
        <ele>644</ele>
        <time>2021-12-29T16:50:41Z</time>
      </trkpt>
      <trkpt lat="44.57757" lon="5.48935">
        <ele>643</ele>
        <time>2021-12-29T16:53:07Z</time>
      </trkpt>
      <trkpt lat="44.57922" lon="5.48517">
        <ele>645</ele>
        <time>2021-12-29T16:54:08Z</time>
      </trkpt>
      <trkpt lat="44.57933" lon="5.48494">
        <ele>646</ele>
        <time>2021-12-29T16:54:11Z</time>
      </trkpt>
      <trkpt lat="44.57961" lon="5.48449">
        <ele>646</ele>
        <time>2021-12-29T16:54:19Z</time>
      </trkpt>
      <trkpt lat="44.58016" lon="5.48382">
        <ele>644</ele>
        <time>2021-12-29T16:54:32Z</time>
      </trkpt>
      <trkpt lat="44.58086" lon="5.48304">
        <ele>641</ele>
        <time>2021-12-29T16:54:48Z</time>
      </trkpt>
      <trkpt lat="44.58124" lon="5.48268">
        <ele>639</ele>
        <time>2021-12-29T16:54:56Z</time>
      </trkpt>
      <trkpt lat="44.58158" lon="5.4824">
        <ele>638</ele>
        <time>2021-12-29T16:55:03Z</time>
      </trkpt>
      <trkpt lat="44.58211" lon="5.482">
        <ele>639</ele>
        <time>2021-12-29T16:55:14Z</time>
      </trkpt>
      <trkpt lat="44.58235" lon="5.48186">
        <ele>639</ele>
        <time>2021-12-29T16:55:18Z</time>
      </trkpt>
      <trkpt lat="44.58306" lon="5.48157">
        <ele>638</ele>
        <time>2021-12-29T16:55:31Z</time>
      </trkpt>
      <trkpt lat="44.58345" lon="5.48133">
        <ele>638</ele>
        <time>2021-12-29T16:55:39Z</time>
      </trkpt>
      <trkpt lat="44.58431" lon="5.48068">
        <ele>638</ele>
        <time>2021-12-29T16:55:56Z</time>
      </trkpt>
      <trkpt lat="44.58822" lon="5.4776">
        <ele>637</ele>
        <time>2021-12-29T16:57:16Z</time>
      </trkpt>
      <trkpt lat="44.58925" lon="5.47674">
        <ele>635</ele>
        <time>2021-12-29T16:57:37Z</time>
      </trkpt>
      <trkpt lat="44.59048" lon="5.47568">
        <ele>635</ele>
        <time>2021-12-29T16:58:03Z</time>
      </trkpt>
      <trkpt lat="44.59337" lon="5.47313">
        <ele>634</ele>
        <time>2021-12-29T16:59:04Z</time>
      </trkpt>
      <trkpt lat="44.59392" lon="5.47262">
        <ele>633</ele>
        <time>2021-12-29T16:59:16Z</time>
      </trkpt>
      <trkpt lat="44.59468" lon="5.47168">
        <ele>636</ele>
        <time>2021-12-29T16:59:34Z</time>
      </trkpt>
      <trkpt lat="44.59532" lon="5.47133">
        <ele>636</ele>
        <time>2021-12-29T16:59:46Z</time>
      </trkpt>
      <trkpt lat="44.59557" lon="5.47116">
        <ele>635</ele>
        <time>2021-12-29T16:59:51Z</time>
      </trkpt>
      <trkpt lat="44.59691" lon="5.46996">
        <ele>634</ele>
        <time>2021-12-29T17:00:19Z</time>
      </trkpt>
      <trkpt lat="44.59853" lon="5.46853">
        <ele>633</ele>
        <time>2021-12-29T17:00:53Z</time>
      </trkpt>
      <trkpt lat="44.60051" lon="5.46676">
        <ele>636</ele>
        <time>2021-12-29T17:01:35Z</time>
      </trkpt>
      <trkpt lat="44.60193" lon="5.46548">
        <ele>638</ele>
        <time>2021-12-29T17:02:05Z</time>
      </trkpt>
      <trkpt lat="44.60226" lon="5.46514">
        <ele>641</ele>
        <time>2021-12-29T17:02:12Z</time>
      </trkpt>
      <trkpt lat="44.60248" lon="5.46488">
        <ele>642</ele>
        <time>2021-12-29T17:02:17Z</time>
      </trkpt>
      <trkpt lat="44.60265" lon="5.46461">
        <ele>647</ele>
        <time>2021-12-29T17:02:22Z</time>
      </trkpt>
      <trkpt lat="44.60276" lon="5.46434">
        <ele>648</ele>
        <time>2021-12-29T17:02:26Z</time>
      </trkpt>
      <trkpt lat="44.60281" lon="5.46412">
        <ele>647</ele>
        <time>2021-12-29T17:02:29Z</time>
      </trkpt>
      <trkpt lat="44.60285" lon="5.46383">
        <ele>647</ele>
        <time>2021-12-29T17:02:32Z</time>
      </trkpt>
      <trkpt lat="44.60286" lon="5.46351">
        <ele>646</ele>
        <time>2021-12-29T17:02:37Z</time>
      </trkpt>
      <trkpt lat="44.60278" lon="5.46318">
        <ele>644</ele>
        <time>2021-12-29T17:02:41Z</time>
      </trkpt>
      <trkpt lat="44.60263" lon="5.46284">
        <ele>644</ele>
        <time>2021-12-29T17:02:46Z</time>
      </trkpt>
      <trkpt lat="44.60249" lon="5.46266">
        <ele>642</ele>
        <time>2021-12-29T17:02:49Z</time>
      </trkpt>
      <trkpt lat="44.60229" lon="5.46248">
        <ele>643</ele>
        <time>2021-12-29T17:02:54Z</time>
      </trkpt>
      <trkpt lat="44.60206" lon="5.46236">
        <ele>644</ele>
        <time>2021-12-29T17:02:58Z</time>
      </trkpt>
      <trkpt lat="44.60154" lon="5.4622">
        <ele>637</ele>
        <time>2021-12-29T17:03:07Z</time>
      </trkpt>
      <trkpt lat="44.60143" lon="5.46218">
        <ele>634</ele>
        <time>2021-12-29T17:03:09Z</time>
      </trkpt>
      <trkpt lat="44.6013" lon="5.46221">
        <ele>631</ele>
        <time>2021-12-29T17:03:12Z</time>
      </trkpt>
      <trkpt lat="44.60082" lon="5.46256">
        <ele>627</ele>
        <time>2021-12-29T17:03:21Z</time>
      </trkpt>
      <trkpt lat="44.60062" lon="5.46273">
        <ele>627</ele>
        <time>2021-12-29T17:03:26Z</time>
      </trkpt>
      <trkpt lat="44.60042" lon="5.46301">
        <ele>630</ele>
        <time>2021-12-29T17:03:31Z</time>
      </trkpt>
      <trkpt lat="44.59996" lon="5.46338">
        <ele>629</ele>
        <time>2021-12-29T17:03:40Z</time>
      </trkpt>
      <trkpt lat="44.59962" lon="5.46351">
        <ele>631</ele>
        <time>2021-12-29T17:03:46Z</time>
      </trkpt>
      <trkpt lat="44.59925" lon="5.46355">
        <ele>630</ele>
        <time>2021-12-29T17:03:53Z</time>
      </trkpt>
      <trkpt lat="44.59902" lon="5.46346">
        <ele>629</ele>
        <time>2021-12-29T17:03:57Z</time>
      </trkpt>
      <trkpt lat="44.59877" lon="5.46327">
        <ele>628</ele>
        <time>2021-12-29T17:04:02Z</time>
      </trkpt>
      <trkpt lat="44.59837" lon="5.46286">
        <ele>627</ele>
        <time>2021-12-29T17:04:11Z</time>
      </trkpt>
      <trkpt lat="44.59812" lon="5.46234">
        <ele>625</ele>
        <time>2021-12-29T17:04:19Z</time>
      </trkpt>
      <trkpt lat="44.59795" lon="5.46187">
        <ele>626</ele>
        <time>2021-12-29T17:04:26Z</time>
      </trkpt>
      <trkpt lat="44.5979" lon="5.46136">
        <ele>624</ele>
        <time>2021-12-29T17:04:32Z</time>
      </trkpt>
      <trkpt lat="44.59788" lon="5.46097">
        <ele>623</ele>
        <time>2021-12-29T17:04:37Z</time>
      </trkpt>
      <trkpt lat="44.59794" lon="5.45991">
        <ele>620</ele>
        <time>2021-12-29T17:04:51Z</time>
      </trkpt>
      <trkpt lat="44.598" lon="5.45956">
        <ele>617</ele>
        <time>2021-12-29T17:04:55Z</time>
      </trkpt>
      <trkpt lat="44.59811" lon="5.45934">
        <ele>612</ele>
        <time>2021-12-29T17:04:59Z</time>
      </trkpt>
      <trkpt lat="44.59823" lon="5.45916">
        <ele>608</ele>
        <time>2021-12-29T17:05:02Z</time>
      </trkpt>
      <trkpt lat="44.5985" lon="5.459">
        <ele>605</ele>
        <time>2021-12-29T17:05:07Z</time>
      </trkpt>
      <trkpt lat="44.59877" lon="5.45896">
        <ele>607</ele>
        <time>2021-12-29T17:05:12Z</time>
      </trkpt>
      <trkpt lat="44.59903" lon="5.45896">
        <ele>609</ele>
        <time>2021-12-29T17:05:16Z</time>
      </trkpt>
      <trkpt lat="44.59929" lon="5.45902">
        <ele>608</ele>
        <time>2021-12-29T17:05:21Z</time>
      </trkpt>
      <trkpt lat="44.59965" lon="5.459">
        <ele>609</ele>
        <time>2021-12-29T17:05:27Z</time>
      </trkpt>
      <trkpt lat="44.59992" lon="5.4589">
        <ele>612</ele>
        <time>2021-12-29T17:05:32Z</time>
      </trkpt>
      <trkpt lat="44.60026" lon="5.45862">
        <ele>615</ele>
        <time>2021-12-29T17:05:39Z</time>
      </trkpt>
      <trkpt lat="44.60066" lon="5.45842">
        <ele>613</ele>
        <time>2021-12-29T17:05:47Z</time>
      </trkpt>
      <trkpt lat="44.60091" lon="5.45838">
        <ele>610</ele>
        <time>2021-12-29T17:05:51Z</time>
      </trkpt>
      <trkpt lat="44.60113" lon="5.45843">
        <ele>607</ele>
        <time>2021-12-29T17:05:55Z</time>
      </trkpt>
      <trkpt lat="44.60126" lon="5.45854">
        <ele>604</ele>
        <time>2021-12-29T17:05:58Z</time>
      </trkpt>
      <trkpt lat="44.60156" lon="5.45892">
        <ele>599</ele>
        <time>2021-12-29T17:06:05Z</time>
      </trkpt>
      <trkpt lat="44.6017" lon="5.45898">
        <ele>599</ele>
        <time>2021-12-29T17:06:08Z</time>
      </trkpt>
      <trkpt lat="44.6019" lon="5.45896">
        <ele>603</ele>
        <time>2021-12-29T17:06:11Z</time>
      </trkpt>
      <trkpt lat="44.60231" lon="5.45868">
        <ele>606</ele>
        <time>2021-12-29T17:06:20Z</time>
      </trkpt>
      <trkpt lat="44.6024" lon="5.4586">
        <ele>605</ele>
        <time>2021-12-29T17:06:21Z</time>
      </trkpt>
      <trkpt lat="44.60246" lon="5.4585">
        <ele>603</ele>
        <time>2021-12-29T17:06:23Z</time>
      </trkpt>
      <trkpt lat="44.60251" lon="5.45833">
        <ele>599</ele>
        <time>2021-12-29T17:06:25Z</time>
      </trkpt>
      <trkpt lat="44.60257" lon="5.45822">
        <ele>598</ele>
        <time>2021-12-29T17:06:27Z</time>
      </trkpt>
      <trkpt lat="44.60266" lon="5.45811">
        <ele>598</ele>
        <time>2021-12-29T17:06:29Z</time>
      </trkpt>
      <trkpt lat="44.60298" lon="5.45794">
        <ele>598</ele>
        <time>2021-12-29T17:06:35Z</time>
      </trkpt>
      <trkpt lat="44.60322" lon="5.45769">
        <ele>593</ele>
        <time>2021-12-29T17:06:41Z</time>
      </trkpt>
      <trkpt lat="44.60382" lon="5.45698">
        <ele>595</ele>
        <time>2021-12-29T17:06:55Z</time>
      </trkpt>
      <trkpt lat="44.6048" lon="5.45574">
        <ele>581</ele>
        <time>2021-12-29T17:07:18Z</time>
      </trkpt>
      <trkpt lat="44.60512" lon="5.45543">
        <ele>578</ele>
        <time>2021-12-29T17:07:25Z</time>
      </trkpt>
      <trkpt lat="44.60577" lon="5.45511">
        <ele>580</ele>
        <time>2021-12-29T17:07:37Z</time>
      </trkpt>
      <trkpt lat="44.60623" lon="5.45493">
        <ele>581</ele>
        <time>2021-12-29T17:07:46Z</time>
      </trkpt>
      <trkpt lat="44.6064" lon="5.45479">
        <ele>579</ele>
        <time>2021-12-29T17:07:49Z</time>
      </trkpt>
      <trkpt lat="44.60703" lon="5.4541">
        <ele>570</ele>
        <time>2021-12-29T17:08:04Z</time>
      </trkpt>
      <trkpt lat="44.60745" lon="5.45381">
        <ele>569</ele>
        <time>2021-12-29T17:08:12Z</time>
      </trkpt>
      <trkpt lat="44.60794" lon="5.45364">
        <ele>569</ele>
        <time>2021-12-29T17:08:21Z</time>
      </trkpt>
      <trkpt lat="44.60822" lon="5.45365">
        <ele>571</ele>
        <time>2021-12-29T17:08:26Z</time>
      </trkpt>
      <trkpt lat="44.60856" lon="5.45379">
        <ele>576</ele>
        <time>2021-12-29T17:08:32Z</time>
      </trkpt>
      <trkpt lat="44.60893" lon="5.45374">
        <ele>575</ele>
        <time>2021-12-29T17:08:39Z</time>
      </trkpt>
      <trkpt lat="44.60929" lon="5.45356">
        <ele>572</ele>
        <time>2021-12-29T17:08:46Z</time>
      </trkpt>
      <trkpt lat="44.60952" lon="5.45337">
        <ele>569</ele>
        <time>2021-12-29T17:08:50Z</time>
      </trkpt>
      <trkpt lat="44.60964" lon="5.45319">
        <ele>567</ele>
        <time>2021-12-29T17:08:53Z</time>
      </trkpt>
      <trkpt lat="44.60978" lon="5.45284">
        <ele>563</ele>
        <time>2021-12-29T17:08:59Z</time>
      </trkpt>
      <trkpt lat="44.60996" lon="5.45245">
        <ele>559</ele>
        <time>2021-12-29T17:09:04Z</time>
      </trkpt>
      <trkpt lat="44.61014" lon="5.45229">
        <ele>559</ele>
        <time>2021-12-29T17:09:08Z</time>
      </trkpt>
      <trkpt lat="44.61042" lon="5.45218">
        <ele>559</ele>
        <time>2021-12-29T17:09:13Z</time>
      </trkpt>
      <trkpt lat="44.61068" lon="5.45222">
        <ele>561</ele>
        <time>2021-12-29T17:09:18Z</time>
      </trkpt>
      <trkpt lat="44.61111" lon="5.45239">
        <ele>563</ele>
        <time>2021-12-29T17:09:26Z</time>
      </trkpt>
      <trkpt lat="44.61137" lon="5.45257">
        <ele>564</ele>
        <time>2021-12-29T17:09:31Z</time>
      </trkpt>
      <trkpt lat="44.61172" lon="5.45274">
        <ele>565</ele>
        <time>2021-12-29T17:09:38Z</time>
      </trkpt>
      <trkpt lat="44.61241" lon="5.45295">
        <ele>565</ele>
        <time>2021-12-29T17:09:50Z</time>
      </trkpt>
      <trkpt lat="44.61271" lon="5.45301">
        <ele>565</ele>
        <time>2021-12-29T17:09:56Z</time>
      </trkpt>
      <trkpt lat="44.61313" lon="5.45303">
        <ele>565</ele>
        <time>2021-12-29T17:10:03Z</time>
      </trkpt>
      <trkpt lat="44.61356" lon="5.45298">
        <ele>566</ele>
        <time>2021-12-29T17:10:11Z</time>
      </trkpt>
      <trkpt lat="44.61418" lon="5.45287">
        <ele>568</ele>
        <time>2021-12-29T17:10:22Z</time>
      </trkpt>
      <trkpt lat="44.61443" lon="5.45281">
        <ele>568</ele>
        <time>2021-12-29T17:10:26Z</time>
      </trkpt>
      <trkpt lat="44.61498" lon="5.45257">
        <ele>568</ele>
        <time>2021-12-29T17:10:37Z</time>
      </trkpt>
      <trkpt lat="44.61505" lon="5.45251">
        <ele>568</ele>
        <time>2021-12-29T17:10:38Z</time>
      </trkpt>
      <trkpt lat="44.61585" lon="5.45149">
        <ele>563</ele>
        <time>2021-12-29T17:10:57Z</time>
      </trkpt>
      <trkpt lat="44.61597" lon="5.45136">
        <ele>562</ele>
        <time>2021-12-29T17:11:00Z</time>
      </trkpt>
      <trkpt lat="44.61617" lon="5.451">
        <ele>562</ele>
        <time>2021-12-29T17:11:06Z</time>
      </trkpt>
      <trkpt lat="44.61622" lon="5.45086">
        <ele>562</ele>
        <time>2021-12-29T17:11:08Z</time>
      </trkpt>
      <trkpt lat="44.61635" lon="5.45062">
        <ele>561</ele>
        <time>2021-12-29T17:11:12Z</time>
      </trkpt>
      <trkpt lat="44.61681" lon="5.44953">
        <ele>557</ele>
        <time>2021-12-29T17:11:28Z</time>
      </trkpt>
      <trkpt lat="44.61688" lon="5.44935">
        <ele>556</ele>
        <time>2021-12-29T17:11:30Z</time>
      </trkpt>
      <trkpt lat="44.61857" lon="5.44527">
        <ele>543</ele>
        <time>2021-12-29T17:12:30Z</time>
      </trkpt>
      <trkpt lat="44.61868" lon="5.44496">
        <ele>542</ele>
        <time>2021-12-29T17:12:34Z</time>
      </trkpt>
      <trkpt lat="44.61875" lon="5.44463">
        <ele>542</ele>
        <time>2021-12-29T17:12:39Z</time>
      </trkpt>
      <trkpt lat="44.61879" lon="5.44425">
        <ele>542</ele>
        <time>2021-12-29T17:12:44Z</time>
      </trkpt>
      <trkpt lat="44.61881" lon="5.44409">
        <ele>542</ele>
        <time>2021-12-29T17:12:46Z</time>
      </trkpt>
      <trkpt lat="44.61891" lon="5.44373">
        <ele>543</ele>
        <time>2021-12-29T17:12:51Z</time>
      </trkpt>
      <trkpt lat="44.61909" lon="5.44348">
        <ele>544</ele>
        <time>2021-12-29T17:12:55Z</time>
      </trkpt>
      <trkpt lat="44.61971" lon="5.44274">
        <ele>543</ele>
        <time>2021-12-29T17:13:10Z</time>
      </trkpt>
      <trkpt lat="44.62021" lon="5.44223">
        <ele>543</ele>
        <time>2021-12-29T17:13:21Z</time>
      </trkpt>
      <trkpt lat="44.62129" lon="5.44107">
        <ele>541</ele>
        <time>2021-12-29T17:13:45Z</time>
      </trkpt>
      <trkpt lat="44.62146" lon="5.44088">
        <ele>540</ele>
        <time>2021-12-29T17:13:49Z</time>
      </trkpt>
      <trkpt lat="44.62278" lon="5.43945">
        <ele>541</ele>
        <time>2021-12-29T17:14:18Z</time>
      </trkpt>
      <trkpt lat="44.62438" lon="5.43774">
        <ele>538</ele>
        <time>2021-12-29T17:14:54Z</time>
      </trkpt>
      <trkpt lat="44.62547" lon="5.43662">
        <ele>537</ele>
        <time>2021-12-29T17:15:18Z</time>
      </trkpt>
      <trkpt lat="44.63194" lon="5.42962">
        <ele>528</ele>
        <time>2021-12-29T17:17:43Z</time>
      </trkpt>
      <trkpt lat="44.63326" lon="5.42849">
        <ele>526</ele>
        <time>2021-12-29T17:18:11Z</time>
      </trkpt>
      <trkpt lat="44.6352" lon="5.4271">
        <ele>522</ele>
        <time>2021-12-29T17:18:50Z</time>
      </trkpt>
      <trkpt lat="44.63691" lon="5.42604">
        <ele>517</ele>
        <time>2021-12-29T17:19:23Z</time>
      </trkpt>
      <trkpt lat="44.63834" lon="5.42501">
        <ele>515</ele>
        <time>2021-12-29T17:19:52Z</time>
      </trkpt>
      <trkpt lat="44.63907" lon="5.4244">
        <ele>514</ele>
        <time>2021-12-29T17:20:07Z</time>
      </trkpt>
      <trkpt lat="44.63957" lon="5.42386">
        <ele>514</ele>
        <time>2021-12-29T17:20:18Z</time>
      </trkpt>
      <trkpt lat="44.64115" lon="5.42209">
        <ele>512</ele>
        <time>2021-12-29T17:20:54Z</time>
      </trkpt>
      <trkpt lat="44.64149" lon="5.42181">
        <ele>511</ele>
        <time>2021-12-29T17:21:01Z</time>
      </trkpt>
      <trkpt lat="44.6441" lon="5.41999">
        <ele>512</ele>
        <time>2021-12-29T17:21:53Z</time>
      </trkpt>
      <trkpt lat="44.64423" lon="5.4199">
        <ele>512</ele>
        <time>2021-12-29T17:21:55Z</time>
      </trkpt>
      <trkpt lat="44.64495" lon="5.4194">
        <ele>517</ele>
        <time>2021-12-29T17:22:10Z</time>
      </trkpt>
      <trkpt lat="44.6466" lon="5.41814">
        <ele>513</ele>
        <time>2021-12-29T17:22:43Z</time>
      </trkpt>
      <trkpt lat="44.64743" lon="5.41767">
        <ele>518</ele>
        <time>2021-12-29T17:22:59Z</time>
      </trkpt>
      <trkpt lat="44.64841" lon="5.41697">
        <ele>526</ele>
        <time>2021-12-29T17:23:18Z</time>
      </trkpt>
      <trkpt lat="44.6486" lon="5.41686">
        <ele>526</ele>
        <time>2021-12-29T17:23:22Z</time>
      </trkpt>
      <trkpt lat="44.64953" lon="5.41641">
        <ele>519</ele>
        <time>2021-12-29T17:23:40Z</time>
      </trkpt>
      <trkpt lat="44.64985" lon="5.4162">
        <ele>516</ele>
        <time>2021-12-29T17:23:46Z</time>
      </trkpt>
      <trkpt lat="44.65004" lon="5.41598">
        <ele>515</ele>
        <time>2021-12-29T17:23:50Z</time>
      </trkpt>
      <trkpt lat="44.65105" lon="5.41465">
        <ele>518</ele>
        <time>2021-12-29T17:24:15Z</time>
      </trkpt>
      <trkpt lat="44.65089" lon="5.41413">
        <ele>519</ele>
        <time>2021-12-29T17:24:22Z</time>
      </trkpt>
      <trkpt lat="44.65066" lon="5.41366">
        <ele>519</ele>
        <time>2021-12-29T17:24:29Z</time>
      </trkpt>
      <trkpt lat="44.65011" lon="5.41305">
        <ele>522</ele>
        <time>2021-12-29T17:24:42Z</time>
      </trkpt>
      <trkpt lat="44.64997" lon="5.41285">
        <ele>523</ele>
        <time>2021-12-29T17:24:45Z</time>
      </trkpt>
      <trkpt lat="44.64992" lon="5.41266">
        <ele>523</ele>
        <time>2021-12-29T17:24:48Z</time>
      </trkpt>
      <trkpt lat="44.64992" lon="5.41223">
        <ele>522</ele>
        <time>2021-12-29T17:24:53Z</time>
      </trkpt>
      <trkpt lat="44.6498" lon="5.41172">
        <ele>524</ele>
        <time>2021-12-29T17:25:00Z</time>
      </trkpt>
      <trkpt lat="44.64964" lon="5.41124">
        <ele>526</ele>
        <time>2021-12-29T17:25:07Z</time>
      </trkpt>
      <trkpt lat="44.64935" lon="5.41083">
        <ele>531</ele>
        <time>2021-12-29T17:25:14Z</time>
      </trkpt>
      <trkpt lat="44.64901" lon="5.41039">
        <ele>537</ele>
        <time>2021-12-29T17:25:22Z</time>
      </trkpt>
      <trkpt lat="44.6488" lon="5.41003">
        <ele>540</ele>
        <time>2021-12-29T17:25:28Z</time>
      </trkpt>
      <trkpt lat="44.64877" lon="5.40987">
        <ele>541</ele>
        <time>2021-12-29T17:25:30Z</time>
      </trkpt>
      <trkpt lat="44.64875" lon="5.40972">
        <ele>541</ele>
        <time>2021-12-29T17:25:32Z</time>
      </trkpt>
      <trkpt lat="44.64878" lon="5.40933">
        <ele>539</ele>
        <time>2021-12-29T17:25:37Z</time>
      </trkpt>
      <trkpt lat="44.64876" lon="5.40893">
        <ele>539</ele>
        <time>2021-12-29T17:25:42Z</time>
      </trkpt>
      <trkpt lat="44.64869" lon="5.40861">
        <ele>542</ele>
        <time>2021-12-29T17:25:47Z</time>
      </trkpt>
      <trkpt lat="44.64856" lon="5.40824">
        <ele>545</ele>
        <time>2021-12-29T17:25:52Z</time>
      </trkpt>
      <trkpt lat="44.64847" lon="5.40805">
        <ele>547</ele>
        <time>2021-12-29T17:25:55Z</time>
      </trkpt>
      <trkpt lat="44.64825" lon="5.40769">
        <ele>552</ele>
        <time>2021-12-29T17:26:01Z</time>
      </trkpt>
      <trkpt lat="44.6482" lon="5.4075">
        <ele>553</ele>
        <time>2021-12-29T17:26:03Z</time>
      </trkpt>
      <trkpt lat="44.64819" lon="5.40722">
        <ele>552</ele>
        <time>2021-12-29T17:26:07Z</time>
      </trkpt>
      <trkpt lat="44.64817" lon="5.40713">
        <ele>553</ele>
        <time>2021-12-29T17:26:08Z</time>
      </trkpt>
      <trkpt lat="44.64814" lon="5.40708">
        <ele>553</ele>
        <time>2021-12-29T17:26:09Z</time>
      </trkpt>
      <trkpt lat="44.64809" lon="5.40712">
        <ele>555</ele>
        <time>2021-12-29T17:26:10Z</time>
      </trkpt>
      <trkpt lat="44.64807" lon="5.40742">
        <ele>558</ele>
        <time>2021-12-29T17:26:14Z</time>
      </trkpt>
      <trkpt lat="44.64799" lon="5.40821">
        <ele>561</ele>
        <time>2021-12-29T17:26:24Z</time>
      </trkpt>
      <trkpt lat="44.64791" lon="5.40851">
        <ele>562</ele>
        <time>2021-12-29T17:26:28Z</time>
      </trkpt>
      <trkpt lat="44.64776" lon="5.40872">
        <ele>565</ele>
        <time>2021-12-29T17:26:32Z</time>
      </trkpt>
      <trkpt lat="44.64724" lon="5.40905">
        <ele>577</ele>
        <time>2021-12-29T17:26:42Z</time>
      </trkpt>
      <trkpt lat="44.64709" lon="5.40926">
        <ele>582</ele>
        <time>2021-12-29T17:26:45Z</time>
      </trkpt>
      <trkpt lat="44.64703" lon="5.40928">
        <ele>584</ele>
        <time>2021-12-29T17:26:47Z</time>
      </trkpt>
      <trkpt lat="44.64699" lon="5.40924">
        <ele>585</ele>
        <time>2021-12-29T17:26:47Z</time>
      </trkpt>
      <trkpt lat="44.64699" lon="5.40914">
        <ele>585</ele>
        <time>2021-12-29T17:26:49Z</time>
      </trkpt>
      <trkpt lat="44.64703" lon="5.40905">
        <ele>584</ele>
        <time>2021-12-29T17:26:50Z</time>
      </trkpt>
      <trkpt lat="44.64742" lon="5.40865">
        <ele>575</ele>
        <time>2021-12-29T17:26:59Z</time>
      </trkpt>
      <trkpt lat="44.64747" lon="5.40853">
        <ele>575</ele>
        <time>2021-12-29T17:27:00Z</time>
      </trkpt>
      <trkpt lat="44.64751" lon="5.40826">
        <ele>576</ele>
        <time>2021-12-29T17:27:04Z</time>
      </trkpt>
      <trkpt lat="44.64753" lon="5.40751">
        <ele>579</ele>
        <time>2021-12-29T17:27:13Z</time>
      </trkpt>
      <trkpt lat="44.64749" lon="5.40722">
        <ele>577</ele>
        <time>2021-12-29T17:27:17Z</time>
      </trkpt>
      <trkpt lat="44.64743" lon="5.40703">
        <ele>575</ele>
        <time>2021-12-29T17:27:20Z</time>
      </trkpt>
      <trkpt lat="44.64735" lon="5.40697">
        <ele>576</ele>
        <time>2021-12-29T17:27:21Z</time>
      </trkpt>
      <trkpt lat="44.64725" lon="5.40697">
        <ele>577</ele>
        <time>2021-12-29T17:27:23Z</time>
      </trkpt>
      <trkpt lat="44.64703" lon="5.40706">
        <ele>581</ele>
        <time>2021-12-29T17:27:27Z</time>
      </trkpt>
      <trkpt lat="44.64674" lon="5.4073">
        <ele>588</ele>
        <time>2021-12-29T17:27:33Z</time>
      </trkpt>
      <trkpt lat="44.64643" lon="5.4076">
        <ele>594</ele>
        <time>2021-12-29T17:27:40Z</time>
      </trkpt>
      <trkpt lat="44.64611" lon="5.40783">
        <ele>598</ele>
        <time>2021-12-29T17:27:46Z</time>
      </trkpt>
      <trkpt lat="44.64598" lon="5.40785">
        <ele>598</ele>
        <time>2021-12-29T17:27:49Z</time>
      </trkpt>
      <trkpt lat="44.64587" lon="5.4078">
        <ele>598</ele>
        <time>2021-12-29T17:27:51Z</time>
      </trkpt>
      <trkpt lat="44.64571" lon="5.40749">
        <ele>595</ele>
        <time>2021-12-29T17:27:56Z</time>
      </trkpt>
      <trkpt lat="44.64553" lon="5.40724">
        <ele>598</ele>
        <time>2021-12-29T17:28:00Z</time>
      </trkpt>
      <trkpt lat="44.64549" lon="5.40706">
        <ele>599</ele>
        <time>2021-12-29T17:28:02Z</time>
      </trkpt>
      <trkpt lat="44.6456" lon="5.40674">
        <ele>598</ele>
        <time>2021-12-29T17:28:07Z</time>
      </trkpt>
      <trkpt lat="44.64563" lon="5.40652">
        <ele>598</ele>
        <time>2021-12-29T17:28:10Z</time>
      </trkpt>
      <trkpt lat="44.64564" lon="5.40615">
        <ele>598</ele>
        <time>2021-12-29T17:28:14Z</time>
      </trkpt>
      <trkpt lat="44.64554" lon="5.40573">
        <ele>602</ele>
        <time>2021-12-29T17:28:20Z</time>
      </trkpt>
      <trkpt lat="44.64546" lon="5.40548">
        <ele>604</ele>
        <time>2021-12-29T17:28:24Z</time>
      </trkpt>
      <trkpt lat="44.64546" lon="5.40531">
        <ele>604</ele>
        <time>2021-12-29T17:28:26Z</time>
      </trkpt>
      <trkpt lat="44.64567" lon="5.40492">
        <ele>600</ele>
        <time>2021-12-29T17:28:32Z</time>
      </trkpt>
      <trkpt lat="44.64572" lon="5.40475">
        <ele>600</ele>
        <time>2021-12-29T17:28:34Z</time>
      </trkpt>
      <trkpt lat="44.6457" lon="5.40444">
        <ele>603</ele>
        <time>2021-12-29T17:28:38Z</time>
      </trkpt>
      <trkpt lat="44.64575" lon="5.40432">
        <ele>603</ele>
        <time>2021-12-29T17:28:40Z</time>
      </trkpt>
      <trkpt lat="44.64596" lon="5.40409">
        <ele>601</ele>
        <time>2021-12-29T17:28:45Z</time>
      </trkpt>
      <trkpt lat="44.64612" lon="5.40376">
        <ele>601</ele>
        <time>2021-12-29T17:28:50Z</time>
      </trkpt>
      <trkpt lat="44.64617" lon="5.40359">
        <ele>601</ele>
        <time>2021-12-29T17:28:52Z</time>
      </trkpt>
      <trkpt lat="44.64618" lon="5.40348">
        <ele>602</ele>
        <time>2021-12-29T17:28:53Z</time>
      </trkpt>
      <trkpt lat="44.64613" lon="5.40313">
        <ele>608</ele>
        <time>2021-12-29T17:28:58Z</time>
      </trkpt>
      <trkpt lat="44.64616" lon="5.4029">
        <ele>611</ele>
        <time>2021-12-29T17:29:01Z</time>
      </trkpt>
      <trkpt lat="44.64631" lon="5.40259">
        <ele>612</ele>
        <time>2021-12-29T17:29:06Z</time>
      </trkpt>
      <trkpt lat="44.6464" lon="5.40247">
        <ele>612</ele>
        <time>2021-12-29T17:29:08Z</time>
      </trkpt>
      <trkpt lat="44.64653" lon="5.40237">
        <ele>612</ele>
        <time>2021-12-29T17:29:10Z</time>
      </trkpt>
      <trkpt lat="44.64698" lon="5.40193">
        <ele>615</ele>
        <time>2021-12-29T17:29:20Z</time>
      </trkpt>
      <trkpt lat="44.6473" lon="5.40181">
        <ele>615</ele>
        <time>2021-12-29T17:29:26Z</time>
      </trkpt>
      <trkpt lat="44.64746" lon="5.40164">
        <ele>618</ele>
        <time>2021-12-29T17:29:30Z</time>
      </trkpt>
      <trkpt lat="44.64788" lon="5.40142">
        <ele>620</ele>
        <time>2021-12-29T17:29:38Z</time>
      </trkpt>
      <trkpt lat="44.6482" lon="5.40131">
        <ele>619</ele>
        <time>2021-12-29T17:29:44Z</time>
      </trkpt>
      <trkpt lat="44.64833" lon="5.40119">
        <ele>620</ele>
        <time>2021-12-29T17:29:46Z</time>
      </trkpt>
      <trkpt lat="44.64846" lon="5.40099">
        <ele>621</ele>
        <time>2021-12-29T17:29:50Z</time>
      </trkpt>
      <trkpt lat="44.64854" lon="5.4008">
        <ele>622</ele>
        <time>2021-12-29T17:29:53Z</time>
      </trkpt>
      <trkpt lat="44.64855" lon="5.40064">
        <ele>623</ele>
        <time>2021-12-29T17:29:55Z</time>
      </trkpt>
      <trkpt lat="44.64849" lon="5.40048">
        <ele>627</ele>
        <time>2021-12-29T17:29:57Z</time>
      </trkpt>
      <trkpt lat="44.64848" lon="5.40036">
        <ele>628</ele>
        <time>2021-12-29T17:29:58Z</time>
      </trkpt>
      <trkpt lat="44.64851" lon="5.40027">
        <ele>628</ele>
        <time>2021-12-29T17:30:00Z</time>
      </trkpt>
      <trkpt lat="44.6486" lon="5.40008">
        <ele>626</ele>
        <time>2021-12-29T17:30:03Z</time>
      </trkpt>
      <trkpt lat="44.64866" lon="5.39988">
        <ele>624</ele>
        <time>2021-12-29T17:30:05Z</time>
      </trkpt>
      <trkpt lat="44.64866" lon="5.39973">
        <ele>623</ele>
        <time>2021-12-29T17:30:07Z</time>
      </trkpt>
      <trkpt lat="44.6486" lon="5.39955">
        <ele>624</ele>
        <time>2021-12-29T17:30:10Z</time>
      </trkpt>
      <trkpt lat="44.64823" lon="5.3991">
        <ele>633</ele>
        <time>2021-12-29T17:30:18Z</time>
      </trkpt>
      <trkpt lat="44.64804" lon="5.3988">
        <ele>636</ele>
        <time>2021-12-29T17:30:23Z</time>
      </trkpt>
      <trkpt lat="44.64754" lon="5.39814">
        <ele>646</ele>
        <time>2021-12-29T17:30:36Z</time>
      </trkpt>
      <trkpt lat="44.64744" lon="5.398">
        <ele>647</ele>
        <time>2021-12-29T17:30:38Z</time>
      </trkpt>
      <trkpt lat="44.64729" lon="5.39748">
        <ele>644</ele>
        <time>2021-12-29T17:30:45Z</time>
      </trkpt>
      <trkpt lat="44.64719" lon="5.39726">
        <ele>642</ele>
        <time>2021-12-29T17:30:49Z</time>
      </trkpt>
      <trkpt lat="44.64712" lon="5.39717">
        <ele>642</ele>
        <time>2021-12-29T17:30:50Z</time>
      </trkpt>
      <trkpt lat="44.64702" lon="5.39716">
        <ele>644</ele>
        <time>2021-12-29T17:30:52Z</time>
      </trkpt>
      <trkpt lat="44.64681" lon="5.39727">
        <ele>650</ele>
        <time>2021-12-29T17:30:56Z</time>
      </trkpt>
      <trkpt lat="44.64668" lon="5.39728">
        <ele>653</ele>
        <time>2021-12-29T17:30:58Z</time>
      </trkpt>
      <trkpt lat="44.64642" lon="5.39718">
        <ele>655</ele>
        <time>2021-12-29T17:31:03Z</time>
      </trkpt>
      <trkpt lat="44.64618" lon="5.39722">
        <ele>659</ele>
        <time>2021-12-29T17:31:07Z</time>
      </trkpt>
      <trkpt lat="44.64573" lon="5.39698">
        <ele>663</ele>
        <time>2021-12-29T17:31:16Z</time>
      </trkpt>
      <trkpt lat="44.64559" lon="5.39685">
        <ele>664</ele>
        <time>2021-12-29T17:31:19Z</time>
      </trkpt>
      <trkpt lat="44.64554" lon="5.39677">
        <ele>665</ele>
        <time>2021-12-29T17:31:20Z</time>
      </trkpt>
      <trkpt lat="44.64556" lon="5.39662">
        <ele>664</ele>
        <time>2021-12-29T17:31:22Z</time>
      </trkpt>
      <trkpt lat="44.6456" lon="5.39659">
        <ele>664</ele>
        <time>2021-12-29T17:31:23Z</time>
      </trkpt>
      <trkpt lat="44.64577" lon="5.39655">
        <ele>661</ele>
        <time>2021-12-29T17:31:26Z</time>
      </trkpt>
      <trkpt lat="44.64592" lon="5.39648">
        <ele>659</ele>
        <time>2021-12-29T17:31:29Z</time>
      </trkpt>
      <trkpt lat="44.64615" lon="5.39644">
        <ele>655</ele>
        <time>2021-12-29T17:31:33Z</time>
      </trkpt>
      <trkpt lat="44.64624" lon="5.39639">
        <ele>654</ele>
        <time>2021-12-29T17:31:35Z</time>
      </trkpt>
      <trkpt lat="44.64631" lon="5.39625">
        <ele>653</ele>
        <time>2021-12-29T17:31:37Z</time>
      </trkpt>
      <trkpt lat="44.64634" lon="5.39562">
        <ele>654</ele>
        <time>2021-12-29T17:31:45Z</time>
      </trkpt>
      <trkpt lat="44.64631" lon="5.39544">
        <ele>654</ele>
        <time>2021-12-29T17:31:47Z</time>
      </trkpt>
      <trkpt lat="44.64624" lon="5.39532">
        <ele>656</ele>
        <time>2021-12-29T17:31:49Z</time>
      </trkpt>
      <trkpt lat="44.64612" lon="5.3952">
        <ele>659</ele>
        <time>2021-12-29T17:31:52Z</time>
      </trkpt>
      <trkpt lat="44.6457" lon="5.39486">
        <ele>670</ele>
        <time>2021-12-29T17:32:01Z</time>
      </trkpt>
      <trkpt lat="44.64557" lon="5.3946">
        <ele>674</ele>
        <time>2021-12-29T17:32:05Z</time>
      </trkpt>
      <trkpt lat="44.64557" lon="5.39449">
        <ele>675</ele>
        <time>2021-12-29T17:32:06Z</time>
      </trkpt>
      <trkpt lat="44.64561" lon="5.39443">
        <ele>675</ele>
        <time>2021-12-29T17:32:07Z</time>
      </trkpt>
      <trkpt lat="44.64568" lon="5.39439">
        <ele>675</ele>
        <time>2021-12-29T17:32:08Z</time>
      </trkpt>
      <trkpt lat="44.64588" lon="5.39437">
        <ele>672</ele>
        <time>2021-12-29T17:32:12Z</time>
      </trkpt>
      <trkpt lat="44.64616" lon="5.39408">
        <ele>670</ele>
        <time>2021-12-29T17:32:18Z</time>
      </trkpt>
      <trkpt lat="44.64656" lon="5.39373">
        <ele>668</ele>
        <time>2021-12-29T17:32:26Z</time>
      </trkpt>
      <trkpt lat="44.64663" lon="5.39358">
        <ele>669</ele>
        <time>2021-12-29T17:32:29Z</time>
      </trkpt>
      <trkpt lat="44.64668" lon="5.3934">
        <ele>672</ele>
        <time>2021-12-29T17:32:31Z</time>
      </trkpt>
      <trkpt lat="44.64667" lon="5.39315">
        <ele>674</ele>
        <time>2021-12-29T17:32:34Z</time>
      </trkpt>
      <trkpt lat="44.64658" lon="5.39286">
        <ele>678</ele>
        <time>2021-12-29T17:32:38Z</time>
      </trkpt>
      <trkpt lat="44.64658" lon="5.39257">
        <ele>679</ele>
        <time>2021-12-29T17:32:42Z</time>
      </trkpt>
      <trkpt lat="44.64668" lon="5.39227">
        <ele>677</ele>
        <time>2021-12-29T17:32:46Z</time>
      </trkpt>
      <trkpt lat="44.64657" lon="5.39206">
        <ele>678</ele>
        <time>2021-12-29T17:32:50Z</time>
      </trkpt>
      <trkpt lat="44.64648" lon="5.39194">
        <ele>679</ele>
        <time>2021-12-29T17:32:52Z</time>
      </trkpt>
      <trkpt lat="44.64634" lon="5.39152">
        <ele>675</ele>
        <time>2021-12-29T17:32:58Z</time>
      </trkpt>
      <trkpt lat="44.64619" lon="5.39138">
        <ele>673</ele>
        <time>2021-12-29T17:33:01Z</time>
      </trkpt>
      <trkpt lat="44.64598" lon="5.39136">
        <ele>674</ele>
        <time>2021-12-29T17:33:05Z</time>
      </trkpt>
      <trkpt lat="44.6454" lon="5.39145">
        <ele>683</ele>
        <time>2021-12-29T17:33:15Z</time>
      </trkpt>
      <trkpt lat="44.64517" lon="5.39141">
        <ele>685</ele>
        <time>2021-12-29T17:33:19Z</time>
      </trkpt>
      <trkpt lat="44.64478" lon="5.39147">
        <ele>692</ele>
        <time>2021-12-29T17:33:26Z</time>
      </trkpt>
      <trkpt lat="44.64464" lon="5.39138">
        <ele>693</ele>
        <time>2021-12-29T17:33:29Z</time>
      </trkpt>
      <trkpt lat="44.64451" lon="5.3912">
        <ele>692</ele>
        <time>2021-12-29T17:33:32Z</time>
      </trkpt>
      <trkpt lat="44.64438" lon="5.39085">
        <ele>690</ele>
        <time>2021-12-29T17:33:37Z</time>
      </trkpt>
      <trkpt lat="44.6442" lon="5.39059">
        <ele>691</ele>
        <time>2021-12-29T17:33:42Z</time>
      </trkpt>
      <trkpt lat="44.6439" lon="5.39031">
        <ele>696</ele>
        <time>2021-12-29T17:33:48Z</time>
      </trkpt>
      <trkpt lat="44.64376" lon="5.39008">
        <ele>697</ele>
        <time>2021-12-29T17:33:52Z</time>
      </trkpt>
      <trkpt lat="44.64366" lon="5.3897">
        <ele>697</ele>
        <time>2021-12-29T17:33:57Z</time>
      </trkpt>
      <trkpt lat="44.64288" lon="5.38841">
        <ele>714</ele>
        <time>2021-12-29T17:34:18Z</time>
      </trkpt>
      <trkpt lat="44.64279" lon="5.38816">
        <ele>719</ele>
        <time>2021-12-29T17:34:22Z</time>
      </trkpt>
      <trkpt lat="44.64315" lon="5.38748">
        <ele>720</ele>
        <time>2021-12-29T17:34:33Z</time>
      </trkpt>
      <trkpt lat="44.64349" lon="5.38725">
        <ele>722</ele>
        <time>2021-12-29T17:34:39Z</time>
      </trkpt>
      <trkpt lat="44.64366" lon="5.38727">
        <ele>721</ele>
        <time>2021-12-29T17:34:42Z</time>
      </trkpt>
      <trkpt lat="44.64385" lon="5.38751">
        <ele>714</ele>
        <time>2021-12-29T17:34:47Z</time>
      </trkpt>
      <trkpt lat="44.64478" lon="5.38753">
        <ele>718</ele>
        <time>2021-12-29T17:35:04Z</time>
      </trkpt>
      <trkpt lat="44.64505" lon="5.38763">
        <ele>716</ele>
        <time>2021-12-29T17:35:09Z</time>
      </trkpt>
      <trkpt lat="44.64529" lon="5.38763">
        <ele>715</ele>
        <time>2021-12-29T17:35:13Z</time>
      </trkpt>
      <trkpt lat="44.6456" lon="5.38745">
        <ele>717</ele>
        <time>2021-12-29T17:35:19Z</time>
      </trkpt>
      <trkpt lat="44.64589" lon="5.38721">
        <ele>714</ele>
        <time>2021-12-29T17:35:25Z</time>
      </trkpt>
      <trkpt lat="44.64597" lon="5.38701">
        <ele>711</ele>
        <time>2021-12-29T17:35:28Z</time>
      </trkpt>
      <trkpt lat="44.64597" lon="5.38681">
        <ele>711</ele>
        <time>2021-12-29T17:35:30Z</time>
      </trkpt>
      <trkpt lat="44.6459" lon="5.38664">
        <ele>714</ele>
        <time>2021-12-29T17:35:33Z</time>
      </trkpt>
      <trkpt lat="44.64558" lon="5.38648">
        <ele>719</ele>
        <time>2021-12-29T17:35:39Z</time>
      </trkpt>
      <trkpt lat="44.64536" lon="5.38626">
        <ele>721</ele>
        <time>2021-12-29T17:35:44Z</time>
      </trkpt>
      <trkpt lat="44.64522" lon="5.38619">
        <ele>723</ele>
        <time>2021-12-29T17:35:46Z</time>
      </trkpt>
      <trkpt lat="44.64495" lon="5.38622">
        <ele>730</ele>
        <time>2021-12-29T17:35:51Z</time>
      </trkpt>
      <trkpt lat="44.64473" lon="5.38608">
        <ele>733</ele>
        <time>2021-12-29T17:35:55Z</time>
      </trkpt>
      <trkpt lat="44.64459" lon="5.38603">
        <ele>735</ele>
        <time>2021-12-29T17:35:58Z</time>
      </trkpt>
      <trkpt lat="44.64452" lon="5.38596">
        <ele>737</ele>
        <time>2021-12-29T17:35:59Z</time>
      </trkpt>
      <trkpt lat="44.64449" lon="5.38581">
        <ele>738</ele>
        <time>2021-12-29T17:36:01Z</time>
      </trkpt>
      <trkpt lat="44.64448" lon="5.38557">
        <ele>738</ele>
        <time>2021-12-29T17:36:04Z</time>
      </trkpt>
      <trkpt lat="44.64436" lon="5.38484">
        <ele>742</ele>
        <time>2021-12-29T17:36:14Z</time>
      </trkpt>
      <trkpt lat="44.64436" lon="5.38466">
        <ele>743</ele>
        <time>2021-12-29T17:36:16Z</time>
      </trkpt>
      <trkpt lat="44.64433" lon="5.38452">
        <ele>744</ele>
        <time>2021-12-29T17:36:18Z</time>
      </trkpt>
      <trkpt lat="44.64427" lon="5.38437">
        <ele>747</ele>
        <time>2021-12-29T17:36:20Z</time>
      </trkpt>
      <trkpt lat="44.64422" lon="5.3842">
        <ele>749</ele>
        <time>2021-12-29T17:36:23Z</time>
      </trkpt>
      <trkpt lat="44.64426" lon="5.38406">
        <ele>749</ele>
        <time>2021-12-29T17:36:24Z</time>
      </trkpt>
      <trkpt lat="44.64441" lon="5.38379">
        <ele>744</ele>
        <time>2021-12-29T17:36:29Z</time>
      </trkpt>
      <trkpt lat="44.64446" lon="5.38363">
        <ele>743</ele>
        <time>2021-12-29T17:36:31Z</time>
      </trkpt>
      <trkpt lat="44.64445" lon="5.38334">
        <ele>746</ele>
        <time>2021-12-29T17:36:35Z</time>
      </trkpt>
      <trkpt lat="44.64439" lon="5.38308">
        <ele>754</ele>
        <time>2021-12-29T17:36:38Z</time>
      </trkpt>
      <trkpt lat="44.64426" lon="5.38264">
        <ele>768</ele>
        <time>2021-12-29T17:36:44Z</time>
      </trkpt>
      <trkpt lat="44.64423" lon="5.38248">
        <ele>772</ele>
        <time>2021-12-29T17:36:46Z</time>
      </trkpt>
      <trkpt lat="44.64428" lon="5.38235">
        <ele>775</ele>
        <time>2021-12-29T17:36:48Z</time>
      </trkpt>
      <trkpt lat="44.64437" lon="5.38232">
        <ele>773</ele>
        <time>2021-12-29T17:36:50Z</time>
      </trkpt>
      <trkpt lat="44.64447" lon="5.38233">
        <ele>768</ele>
        <time>2021-12-29T17:36:52Z</time>
      </trkpt>
      <trkpt lat="44.64453" lon="5.38223">
        <ele>770</ele>
        <time>2021-12-29T17:36:53Z</time>
      </trkpt>
      <trkpt lat="44.64455" lon="5.38214">
        <ele>773</ele>
        <time>2021-12-29T17:36:54Z</time>
      </trkpt>
      <trkpt lat="44.64459" lon="5.38209">
        <ele>774</ele>
        <time>2021-12-29T17:36:55Z</time>
      </trkpt>
      <trkpt lat="44.64466" lon="5.38212">
        <ele>770</ele>
        <time>2021-12-29T17:36:57Z</time>
      </trkpt>
      <trkpt lat="44.64474" lon="5.38212">
        <ele>767</ele>
        <time>2021-12-29T17:36:58Z</time>
      </trkpt>
      <trkpt lat="44.64483" lon="5.38198">
        <ele>770</ele>
        <time>2021-12-29T17:37:00Z</time>
      </trkpt>
      <trkpt lat="44.64491" lon="5.38196">
        <ele>768</ele>
        <time>2021-12-29T17:37:02Z</time>
      </trkpt>
      <trkpt lat="44.64502" lon="5.38199">
        <ele>764</ele>
        <time>2021-12-29T17:37:04Z</time>
      </trkpt>
      <trkpt lat="44.64532" lon="5.38193">
        <ele>766</ele>
        <time>2021-12-29T17:37:09Z</time>
      </trkpt>
      <trkpt lat="44.64542" lon="5.38198">
        <ele>763</ele>
        <time>2021-12-29T17:37:11Z</time>
      </trkpt>
      <trkpt lat="44.64549" lon="5.38198">
        <ele>763</ele>
        <time>2021-12-29T17:37:12Z</time>
      </trkpt>
      <trkpt lat="44.64558" lon="5.38188">
        <ele>768</ele>
        <time>2021-12-29T17:37:14Z</time>
      </trkpt>
      <trkpt lat="44.64574" lon="5.38184">
        <ele>769</ele>
        <time>2021-12-29T17:37:17Z</time>
      </trkpt>
      <trkpt lat="44.64592" lon="5.38201">
        <ele>760</ele>
        <time>2021-12-29T17:37:21Z</time>
      </trkpt>
      <trkpt lat="44.64605" lon="5.38209">
        <ele>758</ele>
        <time>2021-12-29T17:37:24Z</time>
      </trkpt>
      <trkpt lat="44.64616" lon="5.38227">
        <ele>751</ele>
        <time>2021-12-29T17:37:27Z</time>
      </trkpt>
      <trkpt lat="44.64638" lon="5.38235">
        <ele>750</ele>
        <time>2021-12-29T17:37:31Z</time>
      </trkpt>
      <trkpt lat="44.64653" lon="5.3823">
        <ele>755</ele>
        <time>2021-12-29T17:37:34Z</time>
      </trkpt>
      <trkpt lat="44.64675" lon="5.38189">
        <ele>769</ele>
        <time>2021-12-29T17:37:40Z</time>
      </trkpt>
      <trkpt lat="44.64695" lon="5.38164">
        <ele>772</ele>
        <time>2021-12-29T17:37:45Z</time>
      </trkpt>
      <trkpt lat="44.64719" lon="5.38157">
        <ele>768</ele>
        <time>2021-12-29T17:37:49Z</time>
      </trkpt>
      <trkpt lat="44.64733" lon="5.38151">
        <ele>765</ele>
        <time>2021-12-29T17:37:52Z</time>
      </trkpt>
      <trkpt lat="44.64736" lon="5.3814">
        <ele>765</ele>
        <time>2021-12-29T17:37:53Z</time>
      </trkpt>
      <trkpt lat="44.64734" lon="5.38122">
        <ele>766</ele>
        <time>2021-12-29T17:37:56Z</time>
      </trkpt>
      <trkpt lat="44.6471" lon="5.38086">
        <ele>775</ele>
        <time>2021-12-29T17:38:02Z</time>
      </trkpt>
      <trkpt lat="44.64695" lon="5.38017">
        <ele>780</ele>
        <time>2021-12-29T17:38:11Z</time>
      </trkpt>
      <trkpt lat="44.64683" lon="5.37975">
        <ele>786</ele>
        <time>2021-12-29T17:38:17Z</time>
      </trkpt>
      <trkpt lat="44.64686" lon="5.37954">
        <ele>786</ele>
        <time>2021-12-29T17:38:19Z</time>
      </trkpt>
      <trkpt lat="44.64693" lon="5.37931">
        <ele>783</ele>
        <time>2021-12-29T17:38:23Z</time>
      </trkpt>
      <trkpt lat="44.64689" lon="5.3791">
        <ele>787</ele>
        <time>2021-12-29T17:38:25Z</time>
      </trkpt>
      <trkpt lat="44.64684" lon="5.37893">
        <ele>791</ele>
        <time>2021-12-29T17:38:28Z</time>
      </trkpt>
      <trkpt lat="44.64684" lon="5.3787">
        <ele>794</ele>
        <time>2021-12-29T17:38:31Z</time>
      </trkpt>
      <trkpt lat="44.64693" lon="5.37836">
        <ele>794</ele>
        <time>2021-12-29T17:38:35Z</time>
      </trkpt>
      <trkpt lat="44.64747" lon="5.37741">
        <ele>791</ele>
        <time>2021-12-29T17:38:51Z</time>
      </trkpt>
      <trkpt lat="44.64753" lon="5.37724">
        <ele>792</ele>
        <time>2021-12-29T17:38:53Z</time>
      </trkpt>
      <trkpt lat="44.64755" lon="5.37708">
        <ele>795</ele>
        <time>2021-12-29T17:38:55Z</time>
      </trkpt>
      <trkpt lat="44.64752" lon="5.37679">
        <ele>803</ele>
        <time>2021-12-29T17:38:59Z</time>
      </trkpt>
      <trkpt lat="44.64765" lon="5.37648">
        <ele>804</ele>
        <time>2021-12-29T17:39:03Z</time>
      </trkpt>
      <trkpt lat="44.64789" lon="5.37613">
        <ele>800</ele>
        <time>2021-12-29T17:39:09Z</time>
      </trkpt>
      <trkpt lat="44.64802" lon="5.37592">
        <ele>798</ele>
        <time>2021-12-29T17:39:13Z</time>
      </trkpt>
      <trkpt lat="44.64806" lon="5.37573">
        <ele>798</ele>
        <time>2021-12-29T17:39:15Z</time>
      </trkpt>
      <trkpt lat="44.64809" lon="5.37546">
        <ele>798</ele>
        <time>2021-12-29T17:39:19Z</time>
      </trkpt>
      <trkpt lat="44.64807" lon="5.37525">
        <ele>800</ele>
        <time>2021-12-29T17:39:22Z</time>
      </trkpt>
      <trkpt lat="44.64795" lon="5.37503">
        <ele>807</ele>
        <time>2021-12-29T17:39:25Z</time>
      </trkpt>
      <trkpt lat="44.64773" lon="5.37453">
        <ele>815</ele>
        <time>2021-12-29T17:39:33Z</time>
      </trkpt>
      <trkpt lat="44.64756" lon="5.37405">
        <ele>820</ele>
        <time>2021-12-29T17:39:39Z</time>
      </trkpt>
      <trkpt lat="44.64748" lon="5.37376">
        <ele>822</ele>
        <time>2021-12-29T17:39:43Z</time>
      </trkpt>
      <trkpt lat="44.64748" lon="5.37348">
        <ele>821</ele>
        <time>2021-12-29T17:39:47Z</time>
      </trkpt>
      <trkpt lat="44.64752" lon="5.37327">
        <ele>818</ele>
        <time>2021-12-29T17:39:50Z</time>
      </trkpt>
      <trkpt lat="44.64754" lon="5.37296">
        <ele>816</ele>
        <time>2021-12-29T17:39:53Z</time>
      </trkpt>
      <trkpt lat="44.64752" lon="5.37278">
        <ele>816</ele>
        <time>2021-12-29T17:39:56Z</time>
      </trkpt>
      <trkpt lat="44.64748" lon="5.37269">
        <ele>818</ele>
        <time>2021-12-29T17:39:57Z</time>
      </trkpt>
      <trkpt lat="44.64732" lon="5.37252">
        <ele>826</ele>
        <time>2021-12-29T17:40:01Z</time>
      </trkpt>
      <trkpt lat="44.64724" lon="5.37238">
        <ele>832</ele>
        <time>2021-12-29T17:40:03Z</time>
      </trkpt>
      <trkpt lat="44.64723" lon="5.37218">
        <ele>835</ele>
        <time>2021-12-29T17:40:06Z</time>
      </trkpt>
      <trkpt lat="44.64738" lon="5.37179">
        <ele>832</ele>
        <time>2021-12-29T17:40:11Z</time>
      </trkpt>
      <trkpt lat="44.64793" lon="5.37084">
        <ele>832</ele>
        <time>2021-12-29T17:40:27Z</time>
      </trkpt>
      <trkpt lat="44.64806" lon="5.37058">
        <ele>828</ele>
        <time>2021-12-29T17:40:31Z</time>
      </trkpt>
      <trkpt lat="44.6481" lon="5.37034">
        <ele>828</ele>
        <time>2021-12-29T17:40:34Z</time>
      </trkpt>
      <trkpt lat="44.64803" lon="5.37006">
        <ele>833</ele>
        <time>2021-12-29T17:40:38Z</time>
      </trkpt>
      <trkpt lat="44.64786" lon="5.36964">
        <ele>846</ele>
        <time>2021-12-29T17:40:44Z</time>
      </trkpt>
      <trkpt lat="44.64784" lon="5.36939">
        <ele>849</ele>
        <time>2021-12-29T17:40:47Z</time>
      </trkpt>
      <trkpt lat="44.64796" lon="5.36909">
        <ele>847</ele>
        <time>2021-12-29T17:40:51Z</time>
      </trkpt>
      <trkpt lat="44.64816" lon="5.36881">
        <ele>845</ele>
        <time>2021-12-29T17:40:56Z</time>
      </trkpt>
      <trkpt lat="44.64819" lon="5.36865">
        <ele>848</ele>
        <time>2021-12-29T17:40:58Z</time>
      </trkpt>
      <trkpt lat="44.64827" lon="5.36849">
        <ele>849</ele>
        <time>2021-12-29T17:41:01Z</time>
      </trkpt>
      <trkpt lat="44.64846" lon="5.36837">
        <ele>845</ele>
        <time>2021-12-29T17:41:04Z</time>
      </trkpt>
      <trkpt lat="44.6486" lon="5.3682">
        <ele>845</ele>
        <time>2021-12-29T17:41:08Z</time>
      </trkpt>
      <trkpt lat="44.64869" lon="5.36801">
        <ele>847</ele>
        <time>2021-12-29T17:41:11Z</time>
      </trkpt>
      <trkpt lat="44.64873" lon="5.36782">
        <ele>850</ele>
        <time>2021-12-29T17:41:13Z</time>
      </trkpt>
      <trkpt lat="44.64892" lon="5.36753">
        <ele>851</ele>
        <time>2021-12-29T17:41:18Z</time>
      </trkpt>
      <trkpt lat="44.64904" lon="5.36729">
        <ele>851</ele>
        <time>2021-12-29T17:41:22Z</time>
      </trkpt>
      <trkpt lat="44.6491" lon="5.36712">
        <ele>852</ele>
        <time>2021-12-29T17:41:24Z</time>
      </trkpt>
      <trkpt lat="44.64912" lon="5.367">
        <ele>853</ele>
        <time>2021-12-29T17:41:26Z</time>
      </trkpt>
      <trkpt lat="44.64912" lon="5.36683">
        <ele>856</ele>
        <time>2021-12-29T17:41:28Z</time>
      </trkpt>
      <trkpt lat="44.64916" lon="5.36651">
        <ele>856</ele>
        <time>2021-12-29T17:41:32Z</time>
      </trkpt>
      <trkpt lat="44.64918" lon="5.36629">
        <ele>853</ele>
        <time>2021-12-29T17:41:35Z</time>
      </trkpt>
      <trkpt lat="44.64909" lon="5.36599">
        <ele>855</ele>
        <time>2021-12-29T17:41:39Z</time>
      </trkpt>
      <trkpt lat="44.64892" lon="5.36561">
        <ele>858</ele>
        <time>2021-12-29T17:41:45Z</time>
      </trkpt>
      <trkpt lat="44.64877" lon="5.3654">
        <ele>862</ele>
        <time>2021-12-29T17:41:48Z</time>
      </trkpt>
      <trkpt lat="44.64839" lon="5.36508">
        <ele>875</ele>
        <time>2021-12-29T17:41:56Z</time>
      </trkpt>
      <trkpt lat="44.64831" lon="5.36497">
        <ele>877</ele>
        <time>2021-12-29T17:41:58Z</time>
      </trkpt>
      <trkpt lat="44.64829" lon="5.3648">
        <ele>877</ele>
        <time>2021-12-29T17:42:01Z</time>
      </trkpt>
      <trkpt lat="44.6483" lon="5.36463">
        <ele>876</ele>
        <time>2021-12-29T17:42:03Z</time>
      </trkpt>
      <trkpt lat="44.64835" lon="5.36444">
        <ele>873</ele>
        <time>2021-12-29T17:42:05Z</time>
      </trkpt>
      <trkpt lat="44.64844" lon="5.36418">
        <ele>868</ele>
        <time>2021-12-29T17:42:09Z</time>
      </trkpt>
      <trkpt lat="44.64844" lon="5.36386">
        <ele>868</ele>
        <time>2021-12-29T17:42:13Z</time>
      </trkpt>
      <trkpt lat="44.64838" lon="5.36359">
        <ele>870</ele>
        <time>2021-12-29T17:42:17Z</time>
      </trkpt>
      <trkpt lat="44.64815" lon="5.36327">
        <ele>880</ele>
        <time>2021-12-29T17:42:22Z</time>
      </trkpt>
      <trkpt lat="44.64809" lon="5.36311">
        <ele>882</ele>
        <time>2021-12-29T17:42:25Z</time>
      </trkpt>
      <trkpt lat="44.64808" lon="5.36284">
        <ele>882</ele>
        <time>2021-12-29T17:42:28Z</time>
      </trkpt>
      <trkpt lat="44.64817" lon="5.36231">
        <ele>879</ele>
        <time>2021-12-29T17:42:35Z</time>
      </trkpt>
      <trkpt lat="44.64821" lon="5.36185">
        <ele>879</ele>
        <time>2021-12-29T17:42:41Z</time>
      </trkpt>
      <trkpt lat="44.64819" lon="5.36162">
        <ele>881</ele>
        <time>2021-12-29T17:42:44Z</time>
      </trkpt>
      <trkpt lat="44.64821" lon="5.36139">
        <ele>882</ele>
        <time>2021-12-29T17:42:47Z</time>
      </trkpt>
      <trkpt lat="44.64828" lon="5.36105">
        <ele>881</ele>
        <time>2021-12-29T17:42:51Z</time>
      </trkpt>
      <trkpt lat="44.64828" lon="5.3609">
        <ele>882</ele>
        <time>2021-12-29T17:42:53Z</time>
      </trkpt>
      <trkpt lat="44.64822" lon="5.36071">
        <ele>885</ele>
        <time>2021-12-29T17:42:56Z</time>
      </trkpt>
      <trkpt lat="44.64807" lon="5.36043">
        <ele>892</ele>
        <time>2021-12-29T17:43:00Z</time>
      </trkpt>
      <trkpt lat="44.64803" lon="5.36032">
        <ele>894</ele>
        <time>2021-12-29T17:43:02Z</time>
      </trkpt>
      <trkpt lat="44.64803" lon="5.36016">
        <ele>895</ele>
        <time>2021-12-29T17:43:04Z</time>
      </trkpt>
      <trkpt lat="44.64821" lon="5.35909">
        <ele>899</ele>
        <time>2021-12-29T17:43:18Z</time>
      </trkpt>
      <trkpt lat="44.64847" lon="5.3586">
        <ele>892</ele>
        <time>2021-12-29T17:43:25Z</time>
      </trkpt>
      <trkpt lat="44.64852" lon="5.35842">
        <ele>891</ele>
        <time>2021-12-29T17:43:28Z</time>
      </trkpt>
      <trkpt lat="44.64854" lon="5.3582">
        <ele>890</ele>
        <time>2021-12-29T17:43:31Z</time>
      </trkpt>
      <trkpt lat="44.64851" lon="5.35798">
        <ele>890</ele>
        <time>2021-12-29T17:43:33Z</time>
      </trkpt>
      <trkpt lat="44.64841" lon="5.35794">
        <ele>893</ele>
        <time>2021-12-29T17:43:35Z</time>
      </trkpt>
      <trkpt lat="44.64815" lon="5.358">
        <ele>901</ele>
        <time>2021-12-29T17:43:40Z</time>
      </trkpt>
      <trkpt lat="44.648" lon="5.35795">
        <ele>904</ele>
        <time>2021-12-29T17:43:43Z</time>
      </trkpt>
      <trkpt lat="44.64788" lon="5.35784">
        <ele>907</ele>
        <time>2021-12-29T17:43:45Z</time>
      </trkpt>
      <trkpt lat="44.64776" lon="5.35768">
        <ele>908</ele>
        <time>2021-12-29T17:43:48Z</time>
      </trkpt>
      <trkpt lat="44.64771" lon="5.35771">
        <ele>910</ele>
        <time>2021-12-29T17:43:49Z</time>
      </trkpt>
      <trkpt lat="44.6477" lon="5.35777">
        <ele>911</ele>
        <time>2021-12-29T17:43:50Z</time>
      </trkpt>
      <trkpt lat="44.64775" lon="5.35787">
        <ele>910</ele>
        <time>2021-12-29T17:43:52Z</time>
      </trkpt>
      <trkpt lat="44.64785" lon="5.358">
        <ele>909</ele>
        <time>2021-12-29T17:43:54Z</time>
      </trkpt>
      <trkpt lat="44.64794" lon="5.35817">
        <ele>908</ele>
        <time>2021-12-29T17:43:57Z</time>
      </trkpt>
      <trkpt lat="44.64797" lon="5.35839">
        <ele>908</ele>
        <time>2021-12-29T17:43:59Z</time>
      </trkpt>
      <trkpt lat="44.64793" lon="5.3586">
        <ele>909</ele>
        <time>2021-12-29T17:44:02Z</time>
      </trkpt>
      <trkpt lat="44.64784" lon="5.35884">
        <ele>912</ele>
        <time>2021-12-29T17:44:06Z</time>
      </trkpt>
      <trkpt lat="44.64773" lon="5.35946">
        <ele>913</ele>
        <time>2021-12-29T17:44:14Z</time>
      </trkpt>
      <trkpt lat="44.64756" lon="5.35973">
        <ele>917</ele>
        <time>2021-12-29T17:44:18Z</time>
      </trkpt>
      <trkpt lat="44.64748" lon="5.35991">
        <ele>919</ele>
        <time>2021-12-29T17:44:21Z</time>
      </trkpt>
      <trkpt lat="44.64733" lon="5.36048">
        <ele>920</ele>
        <time>2021-12-29T17:44:29Z</time>
      </trkpt>
      <trkpt lat="44.64716" lon="5.36089">
        <ele>925</ele>
        <time>2021-12-29T17:44:35Z</time>
      </trkpt>
      <trkpt lat="44.64711" lon="5.36131">
        <ele>927</ele>
        <time>2021-12-29T17:44:40Z</time>
      </trkpt>
      <trkpt lat="44.64713" lon="5.36161">
        <ele>926</ele>
        <time>2021-12-29T17:44:44Z</time>
      </trkpt>
      <trkpt lat="44.6472" lon="5.36201">
        <ele>922</ele>
        <time>2021-12-29T17:44:49Z</time>
      </trkpt>
      <trkpt lat="44.64716" lon="5.36221">
        <ele>923</ele>
        <time>2021-12-29T17:44:52Z</time>
      </trkpt>
      <trkpt lat="44.64699" lon="5.3626">
        <ele>929</ele>
        <time>2021-12-29T17:44:58Z</time>
      </trkpt>
      <trkpt lat="44.64683" lon="5.3628">
        <ele>935</ele>
        <time>2021-12-29T17:45:01Z</time>
      </trkpt>
      <trkpt lat="44.64668" lon="5.36321">
        <ele>940</ele>
        <time>2021-12-29T17:45:07Z</time>
      </trkpt>
      <trkpt lat="44.64658" lon="5.36379">
        <ele>946</ele>
        <time>2021-12-29T17:45:15Z</time>
      </trkpt>
      <trkpt lat="44.64658" lon="5.36411">
        <ele>946</ele>
        <time>2021-12-29T17:45:19Z</time>
      </trkpt>
      <trkpt lat="44.64664" lon="5.36443">
        <ele>946</ele>
        <time>2021-12-29T17:45:23Z</time>
      </trkpt>
      <trkpt lat="44.6466" lon="5.36471">
        <ele>952</ele>
        <time>2021-12-29T17:45:27Z</time>
      </trkpt>
      <trkpt lat="44.64663" lon="5.36508">
        <ele>954</ele>
        <time>2021-12-29T17:45:31Z</time>
      </trkpt>
      <trkpt lat="44.64671" lon="5.3653">
        <ele>953</ele>
        <time>2021-12-29T17:45:34Z</time>
      </trkpt>
      <trkpt lat="44.64671" lon="5.36542">
        <ele>955</ele>
        <time>2021-12-29T17:45:36Z</time>
      </trkpt>
      <trkpt lat="44.64667" lon="5.36546">
        <ele>957</ele>
        <time>2021-12-29T17:45:37Z</time>
      </trkpt>
      <trkpt lat="44.64658" lon="5.36532">
        <ele>960</ele>
        <time>2021-12-29T17:45:39Z</time>
      </trkpt>
      <trkpt lat="44.64653" lon="5.36508">
        <ele>960</ele>
        <time>2021-12-29T17:45:42Z</time>
      </trkpt>
      <trkpt lat="44.64627" lon="5.3642">
        <ele>966</ele>
        <time>2021-12-29T17:45:54Z</time>
      </trkpt>
      <trkpt lat="44.64623" lon="5.36389">
        <ele>967</ele>
        <time>2021-12-29T17:45:58Z</time>
      </trkpt>
      <trkpt lat="44.64622" lon="5.3636">
        <ele>967</ele>
        <time>2021-12-29T17:46:02Z</time>
      </trkpt>
      <trkpt lat="44.64625" lon="5.36321">
        <ele>964</ele>
        <time>2021-12-29T17:46:07Z</time>
      </trkpt>
      <trkpt lat="44.6462" lon="5.36282">
        <ele>967</ele>
        <time>2021-12-29T17:46:12Z</time>
      </trkpt>
      <trkpt lat="44.64608" lon="5.36201">
        <ele>975</ele>
        <time>2021-12-29T17:46:23Z</time>
      </trkpt>
      <trkpt lat="44.64602" lon="5.36182">
        <ele>979</ele>
        <time>2021-12-29T17:46:25Z</time>
      </trkpt>
      <trkpt lat="44.64605" lon="5.36161">
        <ele>978</ele>
        <time>2021-12-29T17:46:28Z</time>
      </trkpt>
      <trkpt lat="44.64611" lon="5.36141">
        <ele>976</ele>
        <time>2021-12-29T17:46:31Z</time>
      </trkpt>
      <trkpt lat="44.64616" lon="5.36097">
        <ele>975</ele>
        <time>2021-12-29T17:46:36Z</time>
      </trkpt>
      <trkpt lat="44.6461" lon="5.35999">
        <ele>983</ele>
        <time>2021-12-29T17:46:49Z</time>
      </trkpt>
      <trkpt lat="44.64611" lon="5.35963">
        <ele>984</ele>
        <time>2021-12-29T17:46:53Z</time>
      </trkpt>
      <trkpt lat="44.64608" lon="5.35891">
        <ele>988</ele>
        <time>2021-12-29T17:47:02Z</time>
      </trkpt>
      <trkpt lat="44.64599" lon="5.35845">
        <ele>992</ele>
        <time>2021-12-29T17:47:08Z</time>
      </trkpt>
      <trkpt lat="44.64601" lon="5.35801">
        <ele>990</ele>
        <time>2021-12-29T17:47:14Z</time>
      </trkpt>
      <trkpt lat="44.64592" lon="5.35744">
        <ele>992</ele>
        <time>2021-12-29T17:47:21Z</time>
      </trkpt>
      <trkpt lat="44.64562" lon="5.35659">
        <ele>1004</ele>
        <time>2021-12-29T17:47:33Z</time>
      </trkpt>
      <trkpt lat="44.6456" lon="5.35569">
        <ele>1005</ele>
        <time>2021-12-29T17:47:45Z</time>
      </trkpt>
      <trkpt lat="44.64568" lon="5.35461">
        <ele>1012</ele>
        <time>2021-12-29T17:47:59Z</time>
      </trkpt>
      <trkpt lat="44.64586" lon="5.35341">
        <ele>1014</ele>
        <time>2021-12-29T17:48:14Z</time>
      </trkpt>
      <trkpt lat="44.6459" lon="5.35303">
        <ele>1014</ele>
        <time>2021-12-29T17:48:19Z</time>
      </trkpt>
      <trkpt lat="44.64592" lon="5.35166">
        <ele>1030</ele>
        <time>2021-12-29T17:48:36Z</time>
      </trkpt>
      <trkpt lat="44.64596" lon="5.35137">
        <ele>1029</ele>
        <time>2021-12-29T17:48:40Z</time>
      </trkpt>
      <trkpt lat="44.64605" lon="5.3509">
        <ele>1025</ele>
        <time>2021-12-29T17:48:46Z</time>
      </trkpt>
      <trkpt lat="44.64608" lon="5.35061">
        <ele>1024</ele>
        <time>2021-12-29T17:48:50Z</time>
      </trkpt>
      <trkpt lat="44.64606" lon="5.35019">
        <ele>1027</ele>
        <time>2021-12-29T17:48:55Z</time>
      </trkpt>
      <trkpt lat="44.64582" lon="5.34963">
        <ele>1040</ele>
        <time>2021-12-29T17:49:04Z</time>
      </trkpt>
      <trkpt lat="44.64578" lon="5.34935">
        <ele>1040</ele>
        <time>2021-12-29T17:49:07Z</time>
      </trkpt>
      <trkpt lat="44.64576" lon="5.34905">
        <ele>1040</ele>
        <time>2021-12-29T17:49:11Z</time>
      </trkpt>
      <trkpt lat="44.64578" lon="5.34866">
        <ele>1041</ele>
        <time>2021-12-29T17:49:16Z</time>
      </trkpt>
      <trkpt lat="44.64583" lon="5.34832">
        <ele>1042</ele>
        <time>2021-12-29T17:49:20Z</time>
      </trkpt>
      <trkpt lat="44.64604" lon="5.34736">
        <ele>1047</ele>
        <time>2021-12-29T17:49:33Z</time>
      </trkpt>
      <trkpt lat="44.64623" lon="5.34677">
        <ele>1039</ele>
        <time>2021-12-29T17:49:41Z</time>
      </trkpt>
      <trkpt lat="44.64625" lon="5.34625">
        <ele>1039</ele>
        <time>2021-12-29T17:49:48Z</time>
      </trkpt>
      <trkpt lat="44.64623" lon="5.34558">
        <ele>1035</ele>
        <time>2021-12-29T17:49:56Z</time>
      </trkpt>
      <trkpt lat="44.64603" lon="5.34499">
        <ele>1038</ele>
        <time>2021-12-29T17:50:05Z</time>
      </trkpt>
      <trkpt lat="44.64584" lon="5.34472">
        <ele>1047</ele>
        <time>2021-12-29T17:50:09Z</time>
      </trkpt>
      <trkpt lat="44.64581" lon="5.34465">
        <ele>1046</ele>
        <time>2021-12-29T17:50:10Z</time>
      </trkpt>
      <trkpt lat="44.64579" lon="5.34437">
        <ele>1038</ele>
        <time>2021-12-29T17:50:14Z</time>
      </trkpt>
      <trkpt lat="44.64575" lon="5.34419">
        <ele>1034</ele>
        <time>2021-12-29T17:50:16Z</time>
      </trkpt>
      <trkpt lat="44.64561" lon="5.34394">
        <ele>1032</ele>
        <time>2021-12-29T17:50:20Z</time>
      </trkpt>
      <trkpt lat="44.64556" lon="5.34375">
        <ele>1029</ele>
        <time>2021-12-29T17:50:23Z</time>
      </trkpt>
      <trkpt lat="44.6455" lon="5.34364">
        <ele>1029</ele>
        <time>2021-12-29T17:50:25Z</time>
      </trkpt>
      <trkpt lat="44.6452" lon="5.34326">
        <ele>1035</ele>
        <time>2021-12-29T17:50:32Z</time>
      </trkpt>
      <trkpt lat="44.64503" lon="5.34299">
        <ele>1040</ele>
        <time>2021-12-29T17:50:36Z</time>
      </trkpt>
      <trkpt lat="44.64492" lon="5.34272">
        <ele>1037</ele>
        <time>2021-12-29T17:50:40Z</time>
      </trkpt>
      <trkpt lat="44.64484" lon="5.34262">
        <ele>1035</ele>
        <time>2021-12-29T17:50:42Z</time>
      </trkpt>
      <trkpt lat="44.64474" lon="5.34255">
        <ele>1034</ele>
        <time>2021-12-29T17:50:44Z</time>
      </trkpt>
      <trkpt lat="44.644" lon="5.34234">
        <ele>1036</ele>
        <time>2021-12-29T17:50:58Z</time>
      </trkpt>
      <trkpt lat="44.64344" lon="5.3422">
        <ele>1032</ele>
        <time>2021-12-29T17:51:08Z</time>
      </trkpt>
      <trkpt lat="44.64341" lon="5.34222">
        <ele>1031</ele>
        <time>2021-12-29T17:51:08Z</time>
      </trkpt>
      <trkpt lat="44.64341" lon="5.34229">
        <ele>1028</ele>
        <time>2021-12-29T17:51:09Z</time>
      </trkpt>
      <trkpt lat="44.64357" lon="5.34238">
        <ele>1028</ele>
        <time>2021-12-29T17:51:12Z</time>
      </trkpt>
      <trkpt lat="44.64408" lon="5.3428">
        <ele>1028</ele>
        <time>2021-12-29T17:51:23Z</time>
      </trkpt>
      <trkpt lat="44.64413" lon="5.34288">
        <ele>1028</ele>
        <time>2021-12-29T17:51:24Z</time>
      </trkpt>
      <trkpt lat="44.64412" lon="5.34295">
        <ele>1026</ele>
        <time>2021-12-29T17:51:25Z</time>
      </trkpt>
      <trkpt lat="44.64407" lon="5.34296">
        <ele>1025</ele>
        <time>2021-12-29T17:51:26Z</time>
      </trkpt>
      <trkpt lat="44.64396" lon="5.34285">
        <ele>1024</ele>
        <time>2021-12-29T17:51:28Z</time>
      </trkpt>
      <trkpt lat="44.6437" lon="5.34274">
        <ele>1021</ele>
        <time>2021-12-29T17:51:33Z</time>
      </trkpt>
      <trkpt lat="44.64305" lon="5.3425">
        <ele>1013</ele>
        <time>2021-12-29T17:51:45Z</time>
      </trkpt>
      <trkpt lat="44.64283" lon="5.34237">
        <ele>1011</ele>
        <time>2021-12-29T17:51:49Z</time>
      </trkpt>
      <trkpt lat="44.64216" lon="5.34189">
        <ele>1006</ele>
        <time>2021-12-29T17:52:03Z</time>
      </trkpt>
      <trkpt lat="44.64195" lon="5.34178">
        <ele>1001</ele>
        <time>2021-12-29T17:52:07Z</time>
      </trkpt>
      <trkpt lat="44.64173" lon="5.34156">
        <ele>998</ele>
        <time>2021-12-29T17:52:12Z</time>
      </trkpt>
      <trkpt lat="44.64132" lon="5.34083">
        <ele>995</ele>
        <time>2021-12-29T17:52:23Z</time>
      </trkpt>
      <trkpt lat="44.64116" lon="5.34045">
        <ele>992</ele>
        <time>2021-12-29T17:52:29Z</time>
      </trkpt>
      <trkpt lat="44.64104" lon="5.33996">
        <ele>993</ele>
        <time>2021-12-29T17:52:36Z</time>
      </trkpt>
      <trkpt lat="44.64095" lon="5.33977">
        <ele>993</ele>
        <time>2021-12-29T17:52:38Z</time>
      </trkpt>
      <trkpt lat="44.64063" lon="5.33943">
        <ele>984</ele>
        <time>2021-12-29T17:52:46Z</time>
      </trkpt>
      <trkpt lat="44.64045" lon="5.33911">
        <ele>984</ele>
        <time>2021-12-29T17:52:51Z</time>
      </trkpt>
      <trkpt lat="44.63975" lon="5.33845">
        <ele>969</ele>
        <time>2021-12-29T17:53:06Z</time>
      </trkpt>
      <trkpt lat="44.6396" lon="5.33815">
        <ele>967</ele>
        <time>2021-12-29T17:53:10Z</time>
      </trkpt>
      <trkpt lat="44.63952" lon="5.33768">
        <ele>966</ele>
        <time>2021-12-29T17:53:17Z</time>
      </trkpt>
      <trkpt lat="44.63968" lon="5.33676">
        <ele>958</ele>
        <time>2021-12-29T17:53:29Z</time>
      </trkpt>
      <trkpt lat="44.63979" lon="5.33652">
        <ele>957</ele>
        <time>2021-12-29T17:53:32Z</time>
      </trkpt>
      <trkpt lat="44.64001" lon="5.33635">
        <ele>963</ele>
        <time>2021-12-29T17:53:37Z</time>
      </trkpt>
      <trkpt lat="44.64025" lon="5.33599">
        <ele>965</ele>
        <time>2021-12-29T17:53:43Z</time>
      </trkpt>
      <trkpt lat="44.64035" lon="5.33564">
        <ele>964</ele>
        <time>2021-12-29T17:53:48Z</time>
      </trkpt>
      <trkpt lat="44.64033" lon="5.3354">
        <ele>960</ele>
        <time>2021-12-29T17:53:51Z</time>
      </trkpt>
      <trkpt lat="44.64013" lon="5.33464">
        <ele>945</ele>
        <time>2021-12-29T17:54:01Z</time>
      </trkpt>
      <trkpt lat="44.63994" lon="5.33373">
        <ele>934</ele>
        <time>2021-12-29T17:54:13Z</time>
      </trkpt>
      <trkpt lat="44.63993" lon="5.33345">
        <ele>932</ele>
        <time>2021-12-29T17:54:17Z</time>
      </trkpt>
      <trkpt lat="44.63997" lon="5.33323">
        <ele>930</ele>
        <time>2021-12-29T17:54:19Z</time>
      </trkpt>
      <trkpt lat="44.64009" lon="5.33308">
        <ele>929</ele>
        <time>2021-12-29T17:54:22Z</time>
      </trkpt>
      <trkpt lat="44.64041" lon="5.33292">
        <ele>936</ele>
        <time>2021-12-29T17:54:28Z</time>
      </trkpt>
      <trkpt lat="44.6406" lon="5.33269">
        <ele>936</ele>
        <time>2021-12-29T17:54:33Z</time>
      </trkpt>
      <trkpt lat="44.64075" lon="5.33236">
        <ele>931</ele>
        <time>2021-12-29T17:54:38Z</time>
      </trkpt>
      <trkpt lat="44.64094" lon="5.33154">
        <ele>921</ele>
        <time>2021-12-29T17:54:49Z</time>
      </trkpt>
      <trkpt lat="44.64106" lon="5.33085">
        <ele>916</ele>
        <time>2021-12-29T17:54:58Z</time>
      </trkpt>
      <trkpt lat="44.64114" lon="5.33056">
        <ele>921</ele>
        <time>2021-12-29T17:55:02Z</time>
      </trkpt>
      <trkpt lat="44.64114" lon="5.33042">
        <ele>922</ele>
        <time>2021-12-29T17:55:03Z</time>
      </trkpt>
      <trkpt lat="44.64097" lon="5.32995">
        <ele>913</ele>
        <time>2021-12-29T17:55:10Z</time>
      </trkpt>
      <trkpt lat="44.64077" lon="5.32956">
        <ele>902</ele>
        <time>2021-12-29T17:55:16Z</time>
      </trkpt>
      <trkpt lat="44.64076" lon="5.32941">
        <ele>901</ele>
        <time>2021-12-29T17:55:18Z</time>
      </trkpt>
      <trkpt lat="44.64125" lon="5.32835">
        <ele>901</ele>
        <time>2021-12-29T17:55:34Z</time>
      </trkpt>
      <trkpt lat="44.64156" lon="5.32793">
        <ele>899</ele>
        <time>2021-12-29T17:55:42Z</time>
      </trkpt>
      <trkpt lat="44.64182" lon="5.32753">
        <ele>896</ele>
        <time>2021-12-29T17:55:49Z</time>
      </trkpt>
      <trkpt lat="44.64187" lon="5.32742">
        <ele>895</ele>
        <time>2021-12-29T17:55:50Z</time>
      </trkpt>
      <trkpt lat="44.64188" lon="5.32723">
        <ele>889</ele>
        <time>2021-12-29T17:55:53Z</time>
      </trkpt>
      <trkpt lat="44.64192" lon="5.32713">
        <ele>888</ele>
        <time>2021-12-29T17:55:54Z</time>
      </trkpt>
      <trkpt lat="44.64226" lon="5.32662">
        <ele>889</ele>
        <time>2021-12-29T17:56:03Z</time>
      </trkpt>
      <trkpt lat="44.64238" lon="5.32624">
        <ele>896</ele>
        <time>2021-12-29T17:56:08Z</time>
      </trkpt>
      <trkpt lat="44.64238" lon="5.32607">
        <ele>896</ele>
        <time>2021-12-29T17:56:10Z</time>
      </trkpt>
      <trkpt lat="44.64229" lon="5.32597">
        <ele>893</ele>
        <time>2021-12-29T17:56:12Z</time>
      </trkpt>
      <trkpt lat="44.6421" lon="5.32584">
        <ele>886</ele>
        <time>2021-12-29T17:56:16Z</time>
      </trkpt>
      <trkpt lat="44.64196" lon="5.32569">
        <ele>886</ele>
        <time>2021-12-29T17:56:19Z</time>
      </trkpt>
      <trkpt lat="44.64184" lon="5.3256">
        <ele>885</ele>
        <time>2021-12-29T17:56:22Z</time>
      </trkpt>
      <trkpt lat="44.64102" lon="5.32524">
        <ele>867</ele>
        <time>2021-12-29T17:56:37Z</time>
      </trkpt>
      <trkpt lat="44.64034" lon="5.3246">
        <ele>858</ele>
        <time>2021-12-29T17:56:51Z</time>
      </trkpt>
      <trkpt lat="44.63995" lon="5.32405">
        <ele>858</ele>
        <time>2021-12-29T17:57:01Z</time>
      </trkpt>
      <trkpt lat="44.63954" lon="5.32362">
        <ele>855</ele>
        <time>2021-12-29T17:57:10Z</time>
      </trkpt>
      <trkpt lat="44.63891" lon="5.32348">
        <ele>837</ele>
        <time>2021-12-29T17:57:22Z</time>
      </trkpt>
      <trkpt lat="44.6386" lon="5.32334">
        <ele>834</ele>
        <time>2021-12-29T17:57:28Z</time>
      </trkpt>
      <trkpt lat="44.63845" lon="5.32324">
        <ele>831</ele>
        <time>2021-12-29T17:57:31Z</time>
      </trkpt>
      <trkpt lat="44.63838" lon="5.32311">
        <ele>830</ele>
        <time>2021-12-29T17:57:33Z</time>
      </trkpt>
      <trkpt lat="44.63822" lon="5.32226">
        <ele>826</ele>
        <time>2021-12-29T17:57:44Z</time>
      </trkpt>
      <trkpt lat="44.63822" lon="5.32189">
        <ele>824</ele>
        <time>2021-12-29T17:57:48Z</time>
      </trkpt>
      <trkpt lat="44.6384" lon="5.32044">
        <ele>820</ele>
        <time>2021-12-29T17:58:07Z</time>
      </trkpt>
      <trkpt lat="44.63848" lon="5.32014">
        <ele>820</ele>
        <time>2021-12-29T17:58:11Z</time>
      </trkpt>
      <trkpt lat="44.63857" lon="5.31998">
        <ele>821</ele>
        <time>2021-12-29T17:58:14Z</time>
      </trkpt>
      <trkpt lat="44.63873" lon="5.31984">
        <ele>824</ele>
        <time>2021-12-29T17:58:17Z</time>
      </trkpt>
      <trkpt lat="44.63886" lon="5.31962">
        <ele>826</ele>
        <time>2021-12-29T17:58:21Z</time>
      </trkpt>
      <trkpt lat="44.63891" lon="5.31941">
        <ele>826</ele>
        <time>2021-12-29T17:58:23Z</time>
      </trkpt>
      <trkpt lat="44.63892" lon="5.31914">
        <ele>823</ele>
        <time>2021-12-29T17:58:27Z</time>
      </trkpt>
      <trkpt lat="44.63835" lon="5.31737">
        <ele>804</ele>
        <time>2021-12-29T17:58:51Z</time>
      </trkpt>
      <trkpt lat="44.63836" lon="5.31716">
        <ele>803</ele>
        <time>2021-12-29T17:58:54Z</time>
      </trkpt>
      <trkpt lat="44.63844" lon="5.31704">
        <ele>804</ele>
        <time>2021-12-29T17:58:56Z</time>
      </trkpt>
      <trkpt lat="44.63871" lon="5.31688">
        <ele>810</ele>
        <time>2021-12-29T17:59:01Z</time>
      </trkpt>
      <trkpt lat="44.63881" lon="5.31673">
        <ele>811</ele>
        <time>2021-12-29T17:59:04Z</time>
      </trkpt>
      <trkpt lat="44.6388" lon="5.31653">
        <ele>810</ele>
        <time>2021-12-29T17:59:07Z</time>
      </trkpt>
      <trkpt lat="44.63864" lon="5.31614">
        <ele>806</ele>
        <time>2021-12-29T17:59:12Z</time>
      </trkpt>
      <trkpt lat="44.63849" lon="5.31591">
        <ele>801</ele>
        <time>2021-12-29T17:59:16Z</time>
      </trkpt>
      <trkpt lat="44.6383" lon="5.31566">
        <ele>796</ele>
        <time>2021-12-29T17:59:21Z</time>
      </trkpt>
      <trkpt lat="44.63814" lon="5.31533">
        <ele>791</ele>
        <time>2021-12-29T17:59:26Z</time>
      </trkpt>
      <trkpt lat="44.63802" lon="5.31498">
        <ele>787</ele>
        <time>2021-12-29T17:59:31Z</time>
      </trkpt>
      <trkpt lat="44.63807" lon="5.31465">
        <ele>784</ele>
        <time>2021-12-29T17:59:35Z</time>
      </trkpt>
      <trkpt lat="44.63818" lon="5.31425">
        <ele>784</ele>
        <time>2021-12-29T17:59:41Z</time>
      </trkpt>
      <trkpt lat="44.63839" lon="5.3137">
        <ele>778</ele>
        <time>2021-12-29T17:59:48Z</time>
      </trkpt>
      <trkpt lat="44.63862" lon="5.31343">
        <ele>776</ele>
        <time>2021-12-29T17:59:54Z</time>
      </trkpt>
      <trkpt lat="44.63886" lon="5.31327">
        <ele>778</ele>
        <time>2021-12-29T17:59:58Z</time>
      </trkpt>
      <trkpt lat="44.63938" lon="5.31312">
        <ele>790</ele>
        <time>2021-12-29T18:00:08Z</time>
      </trkpt>
      <trkpt lat="44.63943" lon="5.31302">
        <ele>791</ele>
        <time>2021-12-29T18:00:09Z</time>
      </trkpt>
      <trkpt lat="44.63942" lon="5.31282">
        <ele>791</ele>
        <time>2021-12-29T18:00:12Z</time>
      </trkpt>
      <trkpt lat="44.63929" lon="5.31263">
        <ele>784</ele>
        <time>2021-12-29T18:00:15Z</time>
      </trkpt>
      <trkpt lat="44.63892" lon="5.31235">
        <ele>770</ele>
        <time>2021-12-29T18:00:23Z</time>
      </trkpt>
      <trkpt lat="44.63861" lon="5.31199">
        <ele>764</ele>
        <time>2021-12-29T18:00:30Z</time>
      </trkpt>
      <trkpt lat="44.63837" lon="5.3118">
        <ele>759</ele>
        <time>2021-12-29T18:00:35Z</time>
      </trkpt>
      <trkpt lat="44.63822" lon="5.31161">
        <ele>758</ele>
        <time>2021-12-29T18:00:38Z</time>
      </trkpt>
      <trkpt lat="44.63803" lon="5.31157">
        <ele>755</ele>
        <time>2021-12-29T18:00:42Z</time>
      </trkpt>
      <trkpt lat="44.6377" lon="5.31155">
        <ele>748</ele>
        <time>2021-12-29T18:00:48Z</time>
      </trkpt>
      <trkpt lat="44.6375" lon="5.31164">
        <ele>741</ele>
        <time>2021-12-29T18:00:52Z</time>
      </trkpt>
      <trkpt lat="44.63734" lon="5.31161">
        <ele>736</ele>
        <time>2021-12-29T18:00:54Z</time>
      </trkpt>
      <trkpt lat="44.63716" lon="5.31145">
        <ele>734</ele>
        <time>2021-12-29T18:00:58Z</time>
      </trkpt>
      <trkpt lat="44.63688" lon="5.31126">
        <ele>729</ele>
        <time>2021-12-29T18:01:04Z</time>
      </trkpt>
      <trkpt lat="44.63674" lon="5.31109">
        <ele>729</ele>
        <time>2021-12-29T18:01:07Z</time>
      </trkpt>
      <trkpt lat="44.63669" lon="5.31092">
        <ele>732</ele>
        <time>2021-12-29T18:01:09Z</time>
      </trkpt>
      <trkpt lat="44.6367" lon="5.31065">
        <ele>735</ele>
        <time>2021-12-29T18:01:13Z</time>
      </trkpt>
      <trkpt lat="44.6367" lon="5.31016">
        <ele>736</ele>
        <time>2021-12-29T18:01:19Z</time>
      </trkpt>
      <trkpt lat="44.63676" lon="5.3097">
        <ele>731</ele>
        <time>2021-12-29T18:01:25Z</time>
      </trkpt>
      <trkpt lat="44.63674" lon="5.30961">
        <ele>729</ele>
        <time>2021-12-29T18:01:26Z</time>
      </trkpt>
      <trkpt lat="44.63669" lon="5.30955">
        <ele>727</ele>
        <time>2021-12-29T18:01:27Z</time>
      </trkpt>
      <trkpt lat="44.63663" lon="5.30959">
        <ele>726</ele>
        <time>2021-12-29T18:01:28Z</time>
      </trkpt>
      <trkpt lat="44.63637" lon="5.3102">
        <ele>725</ele>
        <time>2021-12-29T18:01:37Z</time>
      </trkpt>
      <trkpt lat="44.63624" lon="5.31036">
        <ele>719</ele>
        <time>2021-12-29T18:01:41Z</time>
      </trkpt>
      <trkpt lat="44.63605" lon="5.31042">
        <ele>712</ele>
        <time>2021-12-29T18:01:44Z</time>
      </trkpt>
      <trkpt lat="44.63587" lon="5.3104">
        <ele>706</ele>
        <time>2021-12-29T18:01:47Z</time>
      </trkpt>
      <trkpt lat="44.63551" lon="5.31007">
        <ele>705</ele>
        <time>2021-12-29T18:01:55Z</time>
      </trkpt>
      <trkpt lat="44.63523" lon="5.30974">
        <ele>704</ele>
        <time>2021-12-29T18:02:01Z</time>
      </trkpt>
      <trkpt lat="44.635" lon="5.30931">
        <ele>704</ele>
        <time>2021-12-29T18:02:08Z</time>
      </trkpt>
      <trkpt lat="44.63472" lon="5.30864">
        <ele>696</ele>
        <time>2021-12-29T18:02:18Z</time>
      </trkpt>
      <trkpt lat="44.63475" lon="5.30812">
        <ele>693</ele>
        <time>2021-12-29T18:02:25Z</time>
      </trkpt>
      <trkpt lat="44.63474" lon="5.30792">
        <ele>692</ele>
        <time>2021-12-29T18:02:27Z</time>
      </trkpt>
      <trkpt lat="44.63456" lon="5.30648">
        <ele>677</ele>
        <time>2021-12-29T18:02:46Z</time>
      </trkpt>
      <trkpt lat="44.63454" lon="5.30614">
        <ele>672</ele>
        <time>2021-12-29T18:02:50Z</time>
      </trkpt>
      <trkpt lat="44.63462" lon="5.30554">
        <ele>668</ele>
        <time>2021-12-29T18:02:58Z</time>
      </trkpt>
      <trkpt lat="44.63489" lon="5.30421">
        <ele>661</ele>
        <time>2021-12-29T18:03:15Z</time>
      </trkpt>
      <trkpt lat="44.63496" lon="5.30354">
        <ele>654</ele>
        <time>2021-12-29T18:03:24Z</time>
      </trkpt>
      <trkpt lat="44.63495" lon="5.30287">
        <ele>650</ele>
        <time>2021-12-29T18:03:32Z</time>
      </trkpt>
      <trkpt lat="44.63487" lon="5.30251">
        <ele>645</ele>
        <time>2021-12-29T18:03:37Z</time>
      </trkpt>
      <trkpt lat="44.6345" lon="5.3013">
        <ele>630</ele>
        <time>2021-12-29T18:03:54Z</time>
      </trkpt>
      <trkpt lat="44.63425" lon="5.30026">
        <ele>621</ele>
        <time>2021-12-29T18:04:08Z</time>
      </trkpt>
      <trkpt lat="44.63425" lon="5.30011">
        <ele>620</ele>
        <time>2021-12-29T18:04:10Z</time>
      </trkpt>
      <trkpt lat="44.63437" lon="5.29984">
        <ele>619</ele>
        <time>2021-12-29T18:04:14Z</time>
      </trkpt>
      <trkpt lat="44.63437" lon="5.29974">
        <ele>616</ele>
        <time>2021-12-29T18:04:15Z</time>
      </trkpt>
      <trkpt lat="44.63434" lon="5.29968">
        <ele>614</ele>
        <time>2021-12-29T18:04:16Z</time>
      </trkpt>
      <trkpt lat="44.63425" lon="5.2997">
        <ele>612</ele>
        <time>2021-12-29T18:04:17Z</time>
      </trkpt>
      <trkpt lat="44.63417" lon="5.29985">
        <ele>613</ele>
        <time>2021-12-29T18:04:20Z</time>
      </trkpt>
      <trkpt lat="44.63408" lon="5.30011">
        <ele>613</ele>
        <time>2021-12-29T18:04:23Z</time>
      </trkpt>
      <trkpt lat="44.63409" lon="5.30043">
        <ele>614</ele>
        <time>2021-12-29T18:04:27Z</time>
      </trkpt>
      <trkpt lat="44.63405" lon="5.30142">
        <ele>606</ele>
        <time>2021-12-29T18:04:40Z</time>
      </trkpt>
      <trkpt lat="44.63407" lon="5.30223">
        <ele>598</ele>
        <time>2021-12-29T18:04:50Z</time>
      </trkpt>
      <trkpt lat="44.63407" lon="5.3025">
        <ele>595</ele>
        <time>2021-12-29T18:04:54Z</time>
      </trkpt>
      <trkpt lat="44.63397" lon="5.30332">
        <ele>595</ele>
        <time>2021-12-29T18:05:04Z</time>
      </trkpt>
      <trkpt lat="44.6336" lon="5.30405">
        <ele>585</ele>
        <time>2021-12-29T18:05:16Z</time>
      </trkpt>
      <trkpt lat="44.63298" lon="5.30498">
        <ele>570</ele>
        <time>2021-12-29T18:05:32Z</time>
      </trkpt>
      <trkpt lat="44.6329" lon="5.30526">
        <ele>573</ele>
        <time>2021-12-29T18:05:36Z</time>
      </trkpt>
      <trkpt lat="44.63291" lon="5.30555">
        <ele>581</ele>
        <time>2021-12-29T18:05:39Z</time>
      </trkpt>
      <trkpt lat="44.63287" lon="5.30568">
        <ele>583</ele>
        <time>2021-12-29T18:05:41Z</time>
      </trkpt>
      <trkpt lat="44.63276" lon="5.30579">
        <ele>581</ele>
        <time>2021-12-29T18:05:43Z</time>
      </trkpt>
      <trkpt lat="44.63216" lon="5.30569">
        <ele>560</ele>
        <time>2021-12-29T18:05:54Z</time>
      </trkpt>
      <trkpt lat="44.63163" lon="5.30586">
        <ele>555</ele>
        <time>2021-12-29T18:06:04Z</time>
      </trkpt>
      <trkpt lat="44.63133" lon="5.30613">
        <ele>557</ele>
        <time>2021-12-29T18:06:10Z</time>
      </trkpt>
      <trkpt lat="44.63114" lon="5.30619">
        <ele>554</ele>
        <time>2021-12-29T18:06:14Z</time>
      </trkpt>
      <trkpt lat="44.63076" lon="5.30611">
        <ele>539</ele>
        <time>2021-12-29T18:06:20Z</time>
      </trkpt>
      <trkpt lat="44.63055" lon="5.30623">
        <ele>531</ele>
        <time>2021-12-29T18:06:24Z</time>
      </trkpt>
      <trkpt lat="44.63046" lon="5.30617">
        <ele>525</ele>
        <time>2021-12-29T18:06:26Z</time>
      </trkpt>
      <trkpt lat="44.63049" lon="5.30604">
        <ele>525</ele>
        <time>2021-12-29T18:06:28Z</time>
      </trkpt>
      <trkpt lat="44.63074" lon="5.30588">
        <ele>533</ele>
        <time>2021-12-29T18:06:33Z</time>
      </trkpt>
      <trkpt lat="44.63099" lon="5.30585">
        <ele>540</ele>
        <time>2021-12-29T18:06:37Z</time>
      </trkpt>
      <trkpt lat="44.63113" lon="5.30581">
        <ele>542</ele>
        <time>2021-12-29T18:06:40Z</time>
      </trkpt>
      <trkpt lat="44.63123" lon="5.30556">
        <ele>535</ele>
        <time>2021-12-29T18:06:44Z</time>
      </trkpt>
      <trkpt lat="44.63152" lon="5.30518">
        <ele>526</ele>
        <time>2021-12-29T18:06:51Z</time>
      </trkpt>
      <trkpt lat="44.63197" lon="5.30495">
        <ele>529</ele>
        <time>2021-12-29T18:06:59Z</time>
      </trkpt>
      <trkpt lat="44.63223" lon="5.30496">
        <ele>536</ele>
        <time>2021-12-29T18:07:04Z</time>
      </trkpt>
      <trkpt lat="44.63227" lon="5.30482">
        <ele>534</ele>
        <time>2021-12-29T18:07:06Z</time>
      </trkpt>
      <trkpt lat="44.63227" lon="5.30392">
        <ele>515</ele>
        <time>2021-12-29T18:07:17Z</time>
      </trkpt>
      <trkpt lat="44.63218" lon="5.30359">
        <ele>506</ele>
        <time>2021-12-29T18:07:21Z</time>
      </trkpt>
      <trkpt lat="44.63219" lon="5.30337">
        <ele>503</ele>
        <time>2021-12-29T18:07:24Z</time>
      </trkpt>
      <trkpt lat="44.6324" lon="5.30313">
        <ele>507</ele>
        <time>2021-12-29T18:07:29Z</time>
      </trkpt>
      <trkpt lat="44.6324" lon="5.30301">
        <ele>505</ele>
        <time>2021-12-29T18:07:31Z</time>
      </trkpt>
      <trkpt lat="44.63231" lon="5.30295">
        <ele>500</ele>
        <time>2021-12-29T18:07:32Z</time>
      </trkpt>
      <trkpt lat="44.63212" lon="5.30311">
        <ele>496</ele>
        <time>2021-12-29T18:07:36Z</time>
      </trkpt>
      <trkpt lat="44.63193" lon="5.3033">
        <ele>492</ele>
        <time>2021-12-29T18:07:40Z</time>
      </trkpt>
      <trkpt lat="44.63186" lon="5.30358">
        <ele>493</ele>
        <time>2021-12-29T18:07:44Z</time>
      </trkpt>
      <trkpt lat="44.63187" lon="5.30411">
        <ele>502</ele>
        <time>2021-12-29T18:07:51Z</time>
      </trkpt>
      <trkpt lat="44.63173" lon="5.30424">
        <ele>499</ele>
        <time>2021-12-29T18:07:54Z</time>
      </trkpt>
      <trkpt lat="44.63122" lon="5.30412">
        <ele>485</ele>
        <time>2021-12-29T18:08:03Z</time>
      </trkpt>
      <trkpt lat="44.63083" lon="5.30421">
        <ele>480</ele>
        <time>2021-12-29T18:08:10Z</time>
      </trkpt>
      <trkpt lat="44.63062" lon="5.30409">
        <ele>478</ele>
        <time>2021-12-29T18:08:14Z</time>
      </trkpt>
      <trkpt lat="44.63035" lon="5.30379">
        <ele>472</ele>
        <time>2021-12-29T18:08:20Z</time>
      </trkpt>
      <trkpt lat="44.63004" lon="5.30351">
        <ele>465</ele>
        <time>2021-12-29T18:08:27Z</time>
      </trkpt>
      <trkpt lat="44.62962" lon="5.30306">
        <ele>452</ele>
        <time>2021-12-29T18:08:36Z</time>
      </trkpt>
      <trkpt lat="44.6294" lon="5.30303">
        <ele>450</ele>
        <time>2021-12-29T18:08:40Z</time>
      </trkpt>
      <trkpt lat="44.6293" lon="5.30295">
        <ele>448</ele>
        <time>2021-12-29T18:08:42Z</time>
      </trkpt>
      <trkpt lat="44.62938" lon="5.30281">
        <ele>447</ele>
        <time>2021-12-29T18:08:45Z</time>
      </trkpt>
      <trkpt lat="44.62964" lon="5.3027">
        <ele>446</ele>
        <time>2021-12-29T18:08:49Z</time>
      </trkpt>
      <trkpt lat="44.63012" lon="5.30266">
        <ele>448</ele>
        <time>2021-12-29T18:08:58Z</time>
      </trkpt>
      <trkpt lat="44.63046" lon="5.30255">
        <ele>448</ele>
        <time>2021-12-29T18:09:04Z</time>
      </trkpt>
      <trkpt lat="44.63058" lon="5.30238">
        <ele>447</ele>
        <time>2021-12-29T18:09:07Z</time>
      </trkpt>
      <trkpt lat="44.63053" lon="5.30212">
        <ele>446</ele>
        <time>2021-12-29T18:09:11Z</time>
      </trkpt>
      <trkpt lat="44.63097" lon="5.30201">
        <ele>448</ele>
        <time>2021-12-29T18:09:19Z</time>
      </trkpt>
      <trkpt lat="44.63107" lon="5.30193">
        <ele>450</ele>
        <time>2021-12-29T18:09:21Z</time>
      </trkpt>
      <trkpt lat="44.63118" lon="5.30176">
        <ele>452</ele>
        <time>2021-12-29T18:09:23Z</time>
      </trkpt>
      <trkpt lat="44.63126" lon="5.30145">
        <ele>455</ele>
        <time>2021-12-29T18:09:28Z</time>
      </trkpt>
      <trkpt lat="44.63157" lon="5.29934">
        <ele>464</ele>
        <time>2021-12-29T18:09:55Z</time>
      </trkpt>
      <trkpt lat="44.63156" lon="5.29898">
        <ele>465</ele>
        <time>2021-12-29T18:10:00Z</time>
      </trkpt>
      <trkpt lat="44.63151" lon="5.29877">
        <ele>466</ele>
        <time>2021-12-29T18:10:02Z</time>
      </trkpt>
      <trkpt lat="44.63136" lon="5.29832">
        <ele>468</ele>
        <time>2021-12-29T18:10:09Z</time>
      </trkpt>
      <trkpt lat="44.63127" lon="5.29781">
        <ele>467</ele>
        <time>2021-12-29T18:10:15Z</time>
      </trkpt>
      <trkpt lat="44.63125" lon="5.29745">
        <ele>465</ele>
        <time>2021-12-29T18:10:20Z</time>
      </trkpt>
      <trkpt lat="44.63127" lon="5.29727">
        <ele>463</ele>
        <time>2021-12-29T18:10:22Z</time>
      </trkpt>
      <trkpt lat="44.63135" lon="5.29702">
        <ele>459</ele>
        <time>2021-12-29T18:10:26Z</time>
      </trkpt>
      <trkpt lat="44.63145" lon="5.29681">
        <ele>454</ele>
        <time>2021-12-29T18:10:29Z</time>
      </trkpt>
      <trkpt lat="44.63157" lon="5.29666">
        <ele>448</ele>
        <time>2021-12-29T18:10:32Z</time>
      </trkpt>
      <trkpt lat="44.63173" lon="5.2965">
        <ele>447</ele>
        <time>2021-12-29T18:10:35Z</time>
      </trkpt>
      <trkpt lat="44.63261" lon="5.296">
        <ele>445</ele>
        <time>2021-12-29T18:10:52Z</time>
      </trkpt>
      <trkpt lat="44.63277" lon="5.29595">
        <ele>444</ele>
        <time>2021-12-29T18:10:55Z</time>
      </trkpt>
      <trkpt lat="44.63293" lon="5.296">
        <ele>446</ele>
        <time>2021-12-29T18:10:58Z</time>
      </trkpt>
      <trkpt lat="44.63346" lon="5.29625">
        <ele>457</ele>
        <time>2021-12-29T18:11:08Z</time>
      </trkpt>
      <trkpt lat="44.63382" lon="5.29632">
        <ele>462</ele>
        <time>2021-12-29T18:11:14Z</time>
      </trkpt>
      <trkpt lat="44.63402" lon="5.29638">
        <ele>465</ele>
        <time>2021-12-29T18:11:18Z</time>
      </trkpt>
      <trkpt lat="44.63439" lon="5.29637">
        <ele>466</ele>
        <time>2021-12-29T18:11:25Z</time>
      </trkpt>
      <trkpt lat="44.6346" lon="5.2964">
        <ele>468</ele>
        <time>2021-12-29T18:11:28Z</time>
      </trkpt>
      <trkpt lat="44.63479" lon="5.29636">
        <ele>467</ele>
        <time>2021-12-29T18:11:32Z</time>
      </trkpt>
      <trkpt lat="44.63519" lon="5.29599">
        <ele>460</ele>
        <time>2021-12-29T18:11:40Z</time>
      </trkpt>
      <trkpt lat="44.63539" lon="5.2957">
        <ele>462</ele>
        <time>2021-12-29T18:11:45Z</time>
      </trkpt>
      <trkpt lat="44.63548" lon="5.29535">
        <ele>462</ele>
        <time>2021-12-29T18:11:50Z</time>
      </trkpt>
      <trkpt lat="44.63551" lon="5.29495">
        <ele>458</ele>
        <time>2021-12-29T18:11:55Z</time>
      </trkpt>
      <trkpt lat="44.63552" lon="5.29399">
        <ele>453</ele>
        <time>2021-12-29T18:12:07Z</time>
      </trkpt>
      <trkpt lat="44.63561" lon="5.29381">
        <ele>451</ele>
        <time>2021-12-29T18:12:10Z</time>
      </trkpt>
      <trkpt lat="44.63598" lon="5.29338">
        <ele>445</ele>
        <time>2021-12-29T18:12:19Z</time>
      </trkpt>
      <trkpt lat="44.6361" lon="5.29309">
        <ele>448</ele>
        <time>2021-12-29T18:12:23Z</time>
      </trkpt>
      <trkpt lat="44.6366" lon="5.29288">
        <ele>452</ele>
        <time>2021-12-29T18:12:32Z</time>
      </trkpt>
      <trkpt lat="44.63729" lon="5.29226">
        <ele>451</ele>
        <time>2021-12-29T18:12:47Z</time>
      </trkpt>
      <trkpt lat="44.63748" lon="5.29198">
        <ele>446</ele>
        <time>2021-12-29T18:12:52Z</time>
      </trkpt>
      <trkpt lat="44.63751" lon="5.29174">
        <ele>441</ele>
        <time>2021-12-29T18:12:55Z</time>
      </trkpt>
      <trkpt lat="44.6375" lon="5.29154">
        <ele>438</ele>
        <time>2021-12-29T18:12:57Z</time>
      </trkpt>
      <trkpt lat="44.63752" lon="5.29133">
        <ele>437</ele>
        <time>2021-12-29T18:13:00Z</time>
      </trkpt>
      <trkpt lat="44.63755" lon="5.29122">
        <ele>436</ele>
        <time>2021-12-29T18:13:01Z</time>
      </trkpt>
      <trkpt lat="44.63762" lon="5.2911">
        <ele>436</ele>
        <time>2021-12-29T18:13:03Z</time>
      </trkpt>
      <trkpt lat="44.63768" lon="5.29104">
        <ele>436</ele>
        <time>2021-12-29T18:13:05Z</time>
      </trkpt>
      <trkpt lat="44.63776" lon="5.29102">
        <ele>436</ele>
        <time>2021-12-29T18:13:06Z</time>
      </trkpt>
      <trkpt lat="44.63782" lon="5.29105">
        <ele>436</ele>
        <time>2021-12-29T18:13:07Z</time>
      </trkpt>
      <trkpt lat="44.63787" lon="5.29111">
        <ele>436</ele>
        <time>2021-12-29T18:13:08Z</time>
      </trkpt>
      <trkpt lat="44.63794" lon="5.2913">
        <ele>437</ele>
        <time>2021-12-29T18:13:11Z</time>
      </trkpt>
      <trkpt lat="44.63805" lon="5.29149">
        <ele>438</ele>
        <time>2021-12-29T18:13:14Z</time>
      </trkpt>
      <trkpt lat="44.63816" lon="5.29162">
        <ele>439</ele>
        <time>2021-12-29T18:13:17Z</time>
      </trkpt>
      <trkpt lat="44.63857" lon="5.29185">
        <ele>447</ele>
        <time>2021-12-29T18:13:25Z</time>
      </trkpt>
      <trkpt lat="44.63876" lon="5.29183">
        <ele>448</ele>
        <time>2021-12-29T18:13:28Z</time>
      </trkpt>
      <trkpt lat="44.63894" lon="5.29165">
        <ele>445</ele>
        <time>2021-12-29T18:13:32Z</time>
      </trkpt>
      <trkpt lat="44.63949" lon="5.29073">
        <ele>437</ele>
        <time>2021-12-29T18:13:47Z</time>
      </trkpt>
      <trkpt lat="44.63958" lon="5.29039">
        <ele>436</ele>
        <time>2021-12-29T18:13:52Z</time>
      </trkpt>
      <trkpt lat="44.63968" lon="5.29022">
        <ele>434</ele>
        <time>2021-12-29T18:13:55Z</time>
      </trkpt>
      <trkpt lat="44.6398" lon="5.29018">
        <ele>432</ele>
        <time>2021-12-29T18:13:57Z</time>
      </trkpt>
      <trkpt lat="44.63995" lon="5.29029">
        <ele>432</ele>
        <time>2021-12-29T18:14:00Z</time>
      </trkpt>
      <trkpt lat="44.64005" lon="5.29054">
        <ele>436</ele>
        <time>2021-12-29T18:14:03Z</time>
      </trkpt>
      <trkpt lat="44.64007" lon="5.29089">
        <ele>443</ele>
        <time>2021-12-29T18:14:08Z</time>
      </trkpt>
      <trkpt lat="44.64011" lon="5.2912">
        <ele>453</ele>
        <time>2021-12-29T18:14:12Z</time>
      </trkpt>
      <trkpt lat="44.64029" lon="5.29142">
        <ele>454</ele>
        <time>2021-12-29T18:14:16Z</time>
      </trkpt>
      <trkpt lat="44.64045" lon="5.29146">
        <ele>448</ele>
        <time>2021-12-29T18:14:19Z</time>
      </trkpt>
      <trkpt lat="44.64072" lon="5.29166">
        <ele>436</ele>
        <time>2021-12-29T18:14:24Z</time>
      </trkpt>
      <trkpt lat="44.64095" lon="5.29193">
        <ele>439</ele>
        <time>2021-12-29T18:14:30Z</time>
      </trkpt>
      <trkpt lat="44.64111" lon="5.29202">
        <ele>438</ele>
        <time>2021-12-29T18:14:33Z</time>
      </trkpt>
      <trkpt lat="44.6413" lon="5.29221">
        <ele>436</ele>
        <time>2021-12-29T18:14:37Z</time>
      </trkpt>
      <trkpt lat="44.64151" lon="5.29259">
        <ele>431</ele>
        <time>2021-12-29T18:14:43Z</time>
      </trkpt>
      <trkpt lat="44.64179" lon="5.29302">
        <ele>430</ele>
        <time>2021-12-29T18:14:50Z</time>
      </trkpt>
      <trkpt lat="44.64215" lon="5.29347">
        <ele>433</ele>
        <time>2021-12-29T18:14:59Z</time>
      </trkpt>
      <trkpt lat="44.64235" lon="5.29368">
        <ele>434</ele>
        <time>2021-12-29T18:15:03Z</time>
      </trkpt>
      <trkpt lat="44.64267" lon="5.29392">
        <ele>434</ele>
        <time>2021-12-29T18:15:10Z</time>
      </trkpt>
      <trkpt lat="44.64303" lon="5.29388">
        <ele>430</ele>
        <time>2021-12-29T18:15:16Z</time>
      </trkpt>
      <trkpt lat="44.64344" lon="5.29421">
        <ele>434</ele>
        <time>2021-12-29T18:15:25Z</time>
      </trkpt>
      <trkpt lat="44.64383" lon="5.29439">
        <ele>437</ele>
        <time>2021-12-29T18:15:32Z</time>
      </trkpt>
      <trkpt lat="44.64409" lon="5.29444">
        <ele>436</ele>
        <time>2021-12-29T18:15:37Z</time>
      </trkpt>
      <trkpt lat="44.64449" lon="5.2946">
        <ele>441</ele>
        <time>2021-12-29T18:15:44Z</time>
      </trkpt>
      <trkpt lat="44.64465" lon="5.29461">
        <ele>440</ele>
        <time>2021-12-29T18:15:47Z</time>
      </trkpt>
      <trkpt lat="44.64497" lon="5.29454">
        <ele>436</ele>
        <time>2021-12-29T18:15:53Z</time>
      </trkpt>
      <trkpt lat="44.6452" lon="5.29461">
        <ele>442</ele>
        <time>2021-12-29T18:15:57Z</time>
      </trkpt>
      <trkpt lat="44.64544" lon="5.29454">
        <ele>443</ele>
        <time>2021-12-29T18:16:01Z</time>
      </trkpt>
      <trkpt lat="44.64556" lon="5.29445">
        <ele>441</ele>
        <time>2021-12-29T18:16:04Z</time>
      </trkpt>
      <trkpt lat="44.64563" lon="5.29421">
        <ele>434</ele>
        <time>2021-12-29T18:16:07Z</time>
      </trkpt>
      <trkpt lat="44.64574" lon="5.29406">
        <ele>432</ele>
        <time>2021-12-29T18:16:10Z</time>
      </trkpt>
      <trkpt lat="44.646" lon="5.2939">
        <ele>436</ele>
        <time>2021-12-29T18:16:15Z</time>
      </trkpt>
      <trkpt lat="44.6461" lon="5.29371">
        <ele>435</ele>
        <time>2021-12-29T18:16:18Z</time>
      </trkpt>
      <trkpt lat="44.64631" lon="5.29342">
        <ele>435</ele>
        <time>2021-12-29T18:16:23Z</time>
      </trkpt>
      <trkpt lat="44.64643" lon="5.29308">
        <ele>432</ele>
        <time>2021-12-29T18:16:28Z</time>
      </trkpt>
      <trkpt lat="44.64662" lon="5.29272">
        <ele>430</ele>
        <time>2021-12-29T18:16:33Z</time>
      </trkpt>
      <trkpt lat="44.64698" lon="5.29166">
        <ele>417</ele>
        <time>2021-12-29T18:16:48Z</time>
      </trkpt>
      <trkpt lat="44.64719" lon="5.29119">
        <ele>417</ele>
        <time>2021-12-29T18:16:55Z</time>
      </trkpt>
      <trkpt lat="44.64739" lon="5.29094">
        <ele>417</ele>
        <time>2021-12-29T18:17:00Z</time>
      </trkpt>
      <trkpt lat="44.64752" lon="5.29075">
        <ele>417</ele>
        <time>2021-12-29T18:17:03Z</time>
      </trkpt>
      <trkpt lat="44.64757" lon="5.2906">
        <ele>418</ele>
        <time>2021-12-29T18:17:06Z</time>
      </trkpt>
      <trkpt lat="44.64758" lon="5.29037">
        <ele>418</ele>
        <time>2021-12-29T18:17:08Z</time>
      </trkpt>
      <trkpt lat="44.64748" lon="5.29009">
        <ele>415</ele>
        <time>2021-12-29T18:17:12Z</time>
      </trkpt>
      <trkpt lat="44.64747" lon="5.28979">
        <ele>413</ele>
        <time>2021-12-29T18:17:16Z</time>
      </trkpt>
      <trkpt lat="44.64751" lon="5.28956">
        <ele>412</ele>
        <time>2021-12-29T18:17:19Z</time>
      </trkpt>
      <trkpt lat="44.64764" lon="5.28937">
        <ele>413</ele>
        <time>2021-12-29T18:17:23Z</time>
      </trkpt>
      <trkpt lat="44.64822" lon="5.28888">
        <ele>416</ele>
        <time>2021-12-29T18:17:35Z</time>
      </trkpt>
      <trkpt lat="44.64903" lon="5.28844">
        <ele>417</ele>
        <time>2021-12-29T18:17:50Z</time>
      </trkpt>
      <trkpt lat="44.64923" lon="5.28829">
        <ele>415</ele>
        <time>2021-12-29T18:17:54Z</time>
      </trkpt>
      <trkpt lat="44.64983" lon="5.28742">
        <ele>410</ele>
        <time>2021-12-29T18:18:09Z</time>
      </trkpt>
      <trkpt lat="44.65007" lon="5.28724">
        <ele>411</ele>
        <time>2021-12-29T18:18:14Z</time>
      </trkpt>
      <trkpt lat="44.65081" lon="5.2871">
        <ele>410</ele>
        <time>2021-12-29T18:18:28Z</time>
      </trkpt>
      <trkpt lat="44.65124" lon="5.28686">
        <ele>408</ele>
        <time>2021-12-29T18:18:36Z</time>
      </trkpt>
      <trkpt lat="44.65151" lon="5.28678">
        <ele>406</ele>
        <time>2021-12-29T18:18:41Z</time>
      </trkpt>
      <trkpt lat="44.65246" lon="5.28687">
        <ele>406</ele>
        <time>2021-12-29T18:18:58Z</time>
      </trkpt>
      <trkpt lat="44.65284" lon="5.28687">
        <ele>403</ele>
        <time>2021-12-29T18:19:04Z</time>
      </trkpt>
      <trkpt lat="44.65302" lon="5.28686">
        <ele>401</ele>
        <time>2021-12-29T18:19:08Z</time>
      </trkpt>
      <trkpt lat="44.65304" lon="5.28678">
        <ele>399</ele>
        <time>2021-12-29T18:19:09Z</time>
      </trkpt>
      <trkpt lat="44.6532" lon="5.28634">
        <ele>395</ele>
        <time>2021-12-29T18:19:15Z</time>
      </trkpt>
      <trkpt lat="44.65334" lon="5.28593">
        <ele>390</ele>
        <time>2021-12-29T18:19:21Z</time>
      </trkpt>
      <trkpt lat="44.65352" lon="5.2847">
        <ele>399</ele>
        <time>2021-12-29T18:19:37Z</time>
      </trkpt>
      <trkpt lat="44.65371" lon="5.28363">
        <ele>410</ele>
        <time>2021-12-29T18:19:51Z</time>
      </trkpt>
      <trkpt lat="44.65381" lon="5.28335">
        <ele>410</ele>
        <time>2021-12-29T18:19:54Z</time>
      </trkpt>
      <trkpt lat="44.65408" lon="5.28296">
        <ele>406</ele>
        <time>2021-12-29T18:20:01Z</time>
      </trkpt>
      <trkpt lat="44.65415" lon="5.28289">
        <ele>404</ele>
        <time>2021-12-29T18:20:03Z</time>
      </trkpt>
      <trkpt lat="44.65431" lon="5.28278">
        <ele>403</ele>
        <time>2021-12-29T18:20:06Z</time>
      </trkpt>
      <trkpt lat="44.65499" lon="5.28248">
        <ele>390</ele>
        <time>2021-12-29T18:20:19Z</time>
      </trkpt>
      <trkpt lat="44.65541" lon="5.28233">
        <ele>398</ele>
        <time>2021-12-29T18:20:26Z</time>
      </trkpt>
      <trkpt lat="44.65583" lon="5.28232">
        <ele>396</ele>
        <time>2021-12-29T18:20:34Z</time>
      </trkpt>
      <trkpt lat="44.65639" lon="5.28259">
        <ele>396</ele>
        <time>2021-12-29T18:20:44Z</time>
      </trkpt>
      <trkpt lat="44.65728" lon="5.28323">
        <ele>387</ele>
        <time>2021-12-29T18:21:02Z</time>
      </trkpt>
      <trkpt lat="44.65748" lon="5.28327">
        <ele>387</ele>
        <time>2021-12-29T18:21:06Z</time>
      </trkpt>
      <trkpt lat="44.65772" lon="5.28324">
        <ele>388</ele>
        <time>2021-12-29T18:21:10Z</time>
      </trkpt>
      <trkpt lat="44.65873" lon="5.28288">
        <ele>407</ele>
        <time>2021-12-29T18:21:29Z</time>
      </trkpt>
      <trkpt lat="44.6589" lon="5.28285">
        <ele>406</ele>
        <time>2021-12-29T18:21:32Z</time>
      </trkpt>
      <trkpt lat="44.65902" lon="5.28285">
        <ele>404</ele>
        <time>2021-12-29T18:21:34Z</time>
      </trkpt>
      <trkpt lat="44.65935" lon="5.28294">
        <ele>392</ele>
        <time>2021-12-29T18:21:40Z</time>
      </trkpt>
      <trkpt lat="44.6595" lon="5.2829">
        <ele>390</ele>
        <time>2021-12-29T18:21:43Z</time>
      </trkpt>
      <trkpt lat="44.65961" lon="5.28279">
        <ele>389</ele>
        <time>2021-12-29T18:21:45Z</time>
      </trkpt>
      <trkpt lat="44.65987" lon="5.28221">
        <ele>394</ele>
        <time>2021-12-29T18:21:54Z</time>
      </trkpt>
      <trkpt lat="44.65998" lon="5.28187">
        <ele>401</ele>
        <time>2021-12-29T18:21:58Z</time>
      </trkpt>
      <trkpt lat="44.66031" lon="5.28109">
        <ele>395</ele>
        <time>2021-12-29T18:22:10Z</time>
      </trkpt>
      <trkpt lat="44.66037" lon="5.28089">
        <ele>393</ele>
        <time>2021-12-29T18:22:13Z</time>
      </trkpt>
      <trkpt lat="44.66039" lon="5.28074">
        <ele>391</ele>
        <time>2021-12-29T18:22:15Z</time>
      </trkpt>
      <trkpt lat="44.66038" lon="5.28056">
        <ele>390</ele>
        <time>2021-12-29T18:22:17Z</time>
      </trkpt>
      <trkpt lat="44.66026" lon="5.27999">
        <ele>392</ele>
        <time>2021-12-29T18:22:24Z</time>
      </trkpt>
      <trkpt lat="44.66014" lon="5.27963">
        <ele>392</ele>
        <time>2021-12-29T18:22:29Z</time>
      </trkpt>
      <trkpt lat="44.66009" lon="5.27927">
        <ele>387</ele>
        <time>2021-12-29T18:22:34Z</time>
      </trkpt>
      <trkpt lat="44.66004" lon="5.27913">
        <ele>385</ele>
        <time>2021-12-29T18:22:36Z</time>
      </trkpt>
      <trkpt lat="44.65994" lon="5.27899">
        <ele>386</ele>
        <time>2021-12-29T18:22:39Z</time>
      </trkpt>
      <trkpt lat="44.65981" lon="5.27884">
        <ele>390</ele>
        <time>2021-12-29T18:22:42Z</time>
      </trkpt>
      <trkpt lat="44.65971" lon="5.27864">
        <ele>393</ele>
        <time>2021-12-29T18:22:45Z</time>
      </trkpt>
      <trkpt lat="44.65965" lon="5.2784">
        <ele>395</ele>
        <time>2021-12-29T18:22:48Z</time>
      </trkpt>
      <trkpt lat="44.65964" lon="5.27776">
        <ele>400</ele>
        <time>2021-12-29T18:22:56Z</time>
      </trkpt>
      <trkpt lat="44.65966" lon="5.27746">
        <ele>401</ele>
        <time>2021-12-29T18:23:00Z</time>
      </trkpt>
      <trkpt lat="44.65976" lon="5.27701">
        <ele>406</ele>
        <time>2021-12-29T18:23:06Z</time>
      </trkpt>
      <trkpt lat="44.65983" lon="5.27686">
        <ele>406</ele>
        <time>2021-12-29T18:23:08Z</time>
      </trkpt>
      <trkpt lat="44.66009" lon="5.27668">
        <ele>398</ele>
        <time>2021-12-29T18:23:13Z</time>
      </trkpt>
      <trkpt lat="44.66025" lon="5.27661">
        <ele>395</ele>
        <time>2021-12-29T18:23:16Z</time>
      </trkpt>
      <trkpt lat="44.66039" lon="5.27659">
        <ele>391</ele>
        <time>2021-12-29T18:23:19Z</time>
      </trkpt>
      <trkpt lat="44.66057" lon="5.27659">
        <ele>385</ele>
        <time>2021-12-29T18:23:22Z</time>
      </trkpt>
      <trkpt lat="44.66066" lon="5.27655">
        <ele>383</ele>
        <time>2021-12-29T18:23:24Z</time>
      </trkpt>
      <trkpt lat="44.66074" lon="5.27648">
        <ele>383</ele>
        <time>2021-12-29T18:23:25Z</time>
      </trkpt>
      <trkpt lat="44.66079" lon="5.27639">
        <ele>386</ele>
        <time>2021-12-29T18:23:27Z</time>
      </trkpt>
      <trkpt lat="44.66089" lon="5.27629">
        <ele>388</ele>
        <time>2021-12-29T18:23:29Z</time>
      </trkpt>
      <trkpt lat="44.6612" lon="5.27613">
        <ele>387</ele>
        <time>2021-12-29T18:23:35Z</time>
      </trkpt>
      <trkpt lat="44.66133" lon="5.27601">
        <ele>388</ele>
        <time>2021-12-29T18:23:37Z</time>
      </trkpt>
      <trkpt lat="44.66147" lon="5.27571">
        <ele>390</ele>
        <time>2021-12-29T18:23:42Z</time>
      </trkpt>
      <trkpt lat="44.66155" lon="5.27534">
        <ele>392</ele>
        <time>2021-12-29T18:23:47Z</time>
      </trkpt>
      <trkpt lat="44.66182" lon="5.27475">
        <ele>390</ele>
        <time>2021-12-29T18:23:56Z</time>
      </trkpt>
      <trkpt lat="44.66184" lon="5.27465">
        <ele>390</ele>
        <time>2021-12-29T18:23:57Z</time>
      </trkpt>
      <trkpt lat="44.66185" lon="5.27446">
        <ele>391</ele>
        <time>2021-12-29T18:23:59Z</time>
      </trkpt>
      <trkpt lat="44.66173" lon="5.27351">
        <ele>392</ele>
        <time>2021-12-29T18:24:12Z</time>
      </trkpt>
      <trkpt lat="44.66175" lon="5.27319">
        <ele>393</ele>
        <time>2021-12-29T18:24:16Z</time>
      </trkpt>
      <trkpt lat="44.66216" lon="5.27191">
        <ele>396</ele>
        <time>2021-12-29T18:24:34Z</time>
      </trkpt>
      <trkpt lat="44.66224" lon="5.27176">
        <ele>394</ele>
        <time>2021-12-29T18:24:36Z</time>
      </trkpt>
      <trkpt lat="44.66231" lon="5.27167">
        <ele>393</ele>
        <time>2021-12-29T18:24:38Z</time>
      </trkpt>
      <trkpt lat="44.66237" lon="5.27162">
        <ele>391</ele>
        <time>2021-12-29T18:24:39Z</time>
      </trkpt>
      <trkpt lat="44.66248" lon="5.2716">
        <ele>388</ele>
        <time>2021-12-29T18:24:41Z</time>
      </trkpt>
      <trkpt lat="44.66262" lon="5.27162">
        <ele>387</ele>
        <time>2021-12-29T18:24:43Z</time>
      </trkpt>
      <trkpt lat="44.66295" lon="5.27169">
        <ele>388</ele>
        <time>2021-12-29T18:24:49Z</time>
      </trkpt>
      <trkpt lat="44.66326" lon="5.27177">
        <ele>388</ele>
        <time>2021-12-29T18:24:55Z</time>
      </trkpt>
      <trkpt lat="44.66353" lon="5.27178">
        <ele>384</ele>
        <time>2021-12-29T18:25:00Z</time>
      </trkpt>
      <trkpt lat="44.66366" lon="5.27172">
        <ele>382</ele>
        <time>2021-12-29T18:25:02Z</time>
      </trkpt>
      <trkpt lat="44.66377" lon="5.27163">
        <ele>382</ele>
        <time>2021-12-29T18:25:04Z</time>
      </trkpt>
      <trkpt lat="44.66428" lon="5.27116">
        <ele>383</ele>
        <time>2021-12-29T18:25:15Z</time>
      </trkpt>
      <trkpt lat="44.66478" lon="5.27045">
        <ele>389</ele>
        <time>2021-12-29T18:25:28Z</time>
      </trkpt>
      <trkpt lat="44.66498" lon="5.27027">
        <ele>389</ele>
        <time>2021-12-29T18:25:32Z</time>
      </trkpt>
      <trkpt lat="44.66523" lon="5.27021">
        <ele>387</ele>
        <time>2021-12-29T18:25:37Z</time>
      </trkpt>
      <trkpt lat="44.66556" lon="5.27026">
        <ele>381</ele>
        <time>2021-12-29T18:25:42Z</time>
      </trkpt>
      <trkpt lat="44.66572" lon="5.27023">
        <ele>380</ele>
        <time>2021-12-29T18:25:45Z</time>
      </trkpt>
      <trkpt lat="44.66587" lon="5.27012">
        <ele>379</ele>
        <time>2021-12-29T18:25:48Z</time>
      </trkpt>
      <trkpt lat="44.66595" lon="5.26995">
        <ele>382</ele>
        <time>2021-12-29T18:25:51Z</time>
      </trkpt>
      <trkpt lat="44.66601" lon="5.26972">
        <ele>387</ele>
        <time>2021-12-29T18:25:54Z</time>
      </trkpt>
      <trkpt lat="44.66613" lon="5.26951">
        <ele>391</ele>
        <time>2021-12-29T18:25:57Z</time>
      </trkpt>
      <trkpt lat="44.66633" lon="5.26952">
        <ele>390</ele>
        <time>2021-12-29T18:26:01Z</time>
      </trkpt>
      <trkpt lat="44.66657" lon="5.2696">
        <ele>387</ele>
        <time>2021-12-29T18:26:05Z</time>
      </trkpt>
      <trkpt lat="44.66695" lon="5.26988">
        <ele>381</ele>
        <time>2021-12-29T18:26:13Z</time>
      </trkpt>
      <trkpt lat="44.66717" lon="5.27009">
        <ele>377</ele>
        <time>2021-12-29T18:26:18Z</time>
      </trkpt>
      <trkpt lat="44.66759" lon="5.27003">
        <ele>378</ele>
        <time>2021-12-29T18:26:25Z</time>
      </trkpt>
      <trkpt lat="44.668" lon="5.26981">
        <ele>370</ele>
        <time>2021-12-29T18:26:33Z</time>
      </trkpt>
      <trkpt lat="44.66809" lon="5.26963">
        <ele>372</ele>
        <time>2021-12-29T18:26:36Z</time>
      </trkpt>
      <trkpt lat="44.66816" lon="5.26926">
        <ele>380</ele>
        <time>2021-12-29T18:26:41Z</time>
      </trkpt>
      <trkpt lat="44.66822" lon="5.2688">
        <ele>385</ele>
        <time>2021-12-29T18:26:47Z</time>
      </trkpt>
      <trkpt lat="44.66835" lon="5.26854">
        <ele>386</ele>
        <time>2021-12-29T18:26:51Z</time>
      </trkpt>
      <trkpt lat="44.66872" lon="5.26832">
        <ele>393</ele>
        <time>2021-12-29T18:26:58Z</time>
      </trkpt>
      <trkpt lat="44.6689" lon="5.26843">
        <ele>392</ele>
        <time>2021-12-29T18:27:01Z</time>
      </trkpt>
      <trkpt lat="44.66919" lon="5.26901">
        <ele>381</ele>
        <time>2021-12-29T18:27:10Z</time>
      </trkpt>
      <trkpt lat="44.66938" lon="5.26926">
        <ele>380</ele>
        <time>2021-12-29T18:27:15Z</time>
      </trkpt>
      <trkpt lat="44.67045" lon="5.26963">
        <ele>386</ele>
        <time>2021-12-29T18:27:35Z</time>
      </trkpt>
      <trkpt lat="44.6706" lon="5.2697">
        <ele>386</ele>
        <time>2021-12-29T18:27:37Z</time>
      </trkpt>
      <trkpt lat="44.67082" lon="5.26996">
        <ele>379</ele>
        <time>2021-12-29T18:27:42Z</time>
      </trkpt>
      <trkpt lat="44.67099" lon="5.27008">
        <ele>373</ele>
        <time>2021-12-29T18:27:46Z</time>
      </trkpt>
      <trkpt lat="44.67112" lon="5.27009">
        <ele>371</ele>
        <time>2021-12-29T18:27:48Z</time>
      </trkpt>
      <trkpt lat="44.67138" lon="5.26993">
        <ele>375</ele>
        <time>2021-12-29T18:27:53Z</time>
      </trkpt>
      <trkpt lat="44.67156" lon="5.26969">
        <ele>382</ele>
        <time>2021-12-29T18:27:58Z</time>
      </trkpt>
      <trkpt lat="44.67181" lon="5.26951">
        <ele>382</ele>
        <time>2021-12-29T18:28:03Z</time>
      </trkpt>
      <trkpt lat="44.672" lon="5.26946">
        <ele>376</ele>
        <time>2021-12-29T18:28:06Z</time>
      </trkpt>
      <trkpt lat="44.67216" lon="5.26949">
        <ele>368</ele>
        <time>2021-12-29T18:28:09Z</time>
      </trkpt>
      <trkpt lat="44.67229" lon="5.26946">
        <ele>364</ele>
        <time>2021-12-29T18:28:11Z</time>
      </trkpt>
      <trkpt lat="44.67239" lon="5.26931">
        <ele>362</ele>
        <time>2021-12-29T18:28:14Z</time>
      </trkpt>
      <trkpt lat="44.67239" lon="5.26907">
        <ele>366</ele>
        <time>2021-12-29T18:28:17Z</time>
      </trkpt>
      <trkpt lat="44.67206" lon="5.26801">
        <ele>395</ele>
        <time>2021-12-29T18:28:32Z</time>
      </trkpt>
      <trkpt lat="44.67206" lon="5.26783">
        <ele>395</ele>
        <time>2021-12-29T18:28:34Z</time>
      </trkpt>
      <trkpt lat="44.67215" lon="5.26767">
        <ele>392</ele>
        <time>2021-12-29T18:28:36Z</time>
      </trkpt>
      <trkpt lat="44.67244" lon="5.26767">
        <ele>380</ele>
        <time>2021-12-29T18:28:42Z</time>
      </trkpt>
      <trkpt lat="44.67253" lon="5.26759">
        <ele>377</ele>
        <time>2021-12-29T18:28:43Z</time>
      </trkpt>
      <trkpt lat="44.67265" lon="5.26728">
        <ele>377</ele>
        <time>2021-12-29T18:28:48Z</time>
      </trkpt>
      <trkpt lat="44.67277" lon="5.26667">
        <ele>382</ele>
        <time>2021-12-29T18:28:56Z</time>
      </trkpt>
      <trkpt lat="44.67273" lon="5.26634">
        <ele>393</ele>
        <time>2021-12-29T18:29:00Z</time>
      </trkpt>
      <trkpt lat="44.67277" lon="5.2661">
        <ele>397</ele>
        <time>2021-12-29T18:29:03Z</time>
      </trkpt>
      <trkpt lat="44.67289" lon="5.26604">
        <ele>393</ele>
        <time>2021-12-29T18:29:06Z</time>
      </trkpt>
      <trkpt lat="44.67327" lon="5.26602">
        <ele>377</ele>
        <time>2021-12-29T18:29:12Z</time>
      </trkpt>
      <trkpt lat="44.67338" lon="5.26599">
        <ele>374</ele>
        <time>2021-12-29T18:29:14Z</time>
      </trkpt>
      <trkpt lat="44.67351" lon="5.26589">
        <ele>375</ele>
        <time>2021-12-29T18:29:17Z</time>
      </trkpt>
      <trkpt lat="44.67394" lon="5.26542">
        <ele>381</ele>
        <time>2021-12-29T18:29:27Z</time>
      </trkpt>
      <trkpt lat="44.67406" lon="5.26536">
        <ele>381</ele>
        <time>2021-12-29T18:29:29Z</time>
      </trkpt>
      <trkpt lat="44.67432" lon="5.26527">
        <ele>377</ele>
        <time>2021-12-29T18:29:34Z</time>
      </trkpt>
      <trkpt lat="44.67437" lon="5.26523">
        <ele>376</ele>
        <time>2021-12-29T18:29:35Z</time>
      </trkpt>
      <trkpt lat="44.67446" lon="5.2651">
        <ele>378</ele>
        <time>2021-12-29T18:29:37Z</time>
      </trkpt>
      <trkpt lat="44.67463" lon="5.26473">
        <ele>386</ele>
        <time>2021-12-29T18:29:43Z</time>
      </trkpt>
      <trkpt lat="44.67478" lon="5.26457">
        <ele>388</ele>
        <time>2021-12-29T18:29:46Z</time>
      </trkpt>
      <trkpt lat="44.67491" lon="5.2645">
        <ele>386</ele>
        <time>2021-12-29T18:29:48Z</time>
      </trkpt>
      <trkpt lat="44.67549" lon="5.26427">
        <ele>378</ele>
        <time>2021-12-29T18:29:59Z</time>
      </trkpt>
      <trkpt lat="44.67596" lon="5.26391">
        <ele>384</ele>
        <time>2021-12-29T18:30:09Z</time>
      </trkpt>
      <trkpt lat="44.6762" lon="5.26383">
        <ele>386</ele>
        <time>2021-12-29T18:30:13Z</time>
      </trkpt>
      <trkpt lat="44.67687" lon="5.26391">
        <ele>381</ele>
        <time>2021-12-29T18:30:25Z</time>
      </trkpt>
      <trkpt lat="44.67745" lon="5.26402">
        <ele>381</ele>
        <time>2021-12-29T18:30:35Z</time>
      </trkpt>
      <trkpt lat="44.67805" lon="5.26427">
        <ele>367</ele>
        <time>2021-12-29T18:30:47Z</time>
      </trkpt>
      <trkpt lat="44.6781" lon="5.26428">
        <ele>366</ele>
        <time>2021-12-29T18:30:47Z</time>
      </trkpt>
      <trkpt lat="44.6782" lon="5.26424">
        <ele>367</ele>
        <time>2021-12-29T18:30:49Z</time>
      </trkpt>
      <trkpt lat="44.67823" lon="5.26418">
        <ele>368</ele>
        <time>2021-12-29T18:30:50Z</time>
      </trkpt>
      <trkpt lat="44.67825" lon="5.26411">
        <ele>370</ele>
        <time>2021-12-29T18:30:51Z</time>
      </trkpt>
      <trkpt lat="44.67827" lon="5.26388">
        <ele>373</ele>
        <time>2021-12-29T18:30:54Z</time>
      </trkpt>
      <trkpt lat="44.67825" lon="5.263">
        <ele>381</ele>
        <time>2021-12-29T18:31:05Z</time>
      </trkpt>
      <trkpt lat="44.67836" lon="5.26239">
        <ele>375</ele>
        <time>2021-12-29T18:31:13Z</time>
      </trkpt>
      <trkpt lat="44.67838" lon="5.26198">
        <ele>371</ele>
        <time>2021-12-29T18:31:18Z</time>
      </trkpt>
      <trkpt lat="44.67832" lon="5.26102">
        <ele>364</ele>
        <time>2021-12-29T18:31:31Z</time>
      </trkpt>
      <trkpt lat="44.67814" lon="5.26054">
        <ele>366</ele>
        <time>2021-12-29T18:31:37Z</time>
      </trkpt>
      <trkpt lat="44.67809" lon="5.26028">
        <ele>367</ele>
        <time>2021-12-29T18:31:41Z</time>
      </trkpt>
      <trkpt lat="44.67808" lon="5.26013">
        <ele>366</ele>
        <time>2021-12-29T18:31:43Z</time>
      </trkpt>
      <trkpt lat="44.6781" lon="5.25998">
        <ele>366</ele>
        <time>2021-12-29T18:31:45Z</time>
      </trkpt>
      <trkpt lat="44.67817" lon="5.25971">
        <ele>365</ele>
        <time>2021-12-29T18:31:48Z</time>
      </trkpt>
      <trkpt lat="44.67828" lon="5.25952">
        <ele>363</ele>
        <time>2021-12-29T18:31:51Z</time>
      </trkpt>
      <trkpt lat="44.67836" lon="5.25945">
        <ele>362</ele>
        <time>2021-12-29T18:31:53Z</time>
      </trkpt>
      <trkpt lat="44.67845" lon="5.2594">
        <ele>363</ele>
        <time>2021-12-29T18:31:55Z</time>
      </trkpt>
      <trkpt lat="44.67855" lon="5.2594">
        <ele>364</ele>
        <time>2021-12-29T18:31:57Z</time>
      </trkpt>
      <trkpt lat="44.67872" lon="5.25949">
        <ele>365</ele>
        <time>2021-12-29T18:32:00Z</time>
      </trkpt>
      <trkpt lat="44.67885" lon="5.25964">
        <ele>364</ele>
        <time>2021-12-29T18:32:03Z</time>
      </trkpt>
      <trkpt lat="44.67956" lon="5.26028">
        <ele>351</ele>
        <time>2021-12-29T18:32:18Z</time>
      </trkpt>
      <trkpt lat="44.67963" lon="5.26032">
        <ele>350</ele>
        <time>2021-12-29T18:32:19Z</time>
      </trkpt>
      <trkpt lat="44.67977" lon="5.26037">
        <ele>348</ele>
        <time>2021-12-29T18:32:22Z</time>
      </trkpt>
      <trkpt lat="44.67991" lon="5.26033">
        <ele>349</ele>
        <time>2021-12-29T18:32:24Z</time>
      </trkpt>
      <trkpt lat="44.68087" lon="5.25986">
        <ele>351</ele>
        <time>2021-12-29T18:32:42Z</time>
      </trkpt>
      <trkpt lat="44.68097" lon="5.25978">
        <ele>351</ele>
        <time>2021-12-29T18:32:44Z</time>
      </trkpt>
      <trkpt lat="44.68112" lon="5.25958">
        <ele>354</ele>
        <time>2021-12-29T18:32:48Z</time>
      </trkpt>
      <trkpt lat="44.68136" lon="5.25914">
        <ele>360</ele>
        <time>2021-12-29T18:32:55Z</time>
      </trkpt>
      <trkpt lat="44.68141" lon="5.25907">
        <ele>361</ele>
        <time>2021-12-29T18:32:56Z</time>
      </trkpt>
      <trkpt lat="44.68148" lon="5.25903">
        <ele>360</ele>
        <time>2021-12-29T18:32:58Z</time>
      </trkpt>
      <trkpt lat="44.68156" lon="5.25903">
        <ele>358</ele>
        <time>2021-12-29T18:32:59Z</time>
      </trkpt>
      <trkpt lat="44.68163" lon="5.25907">
        <ele>355</ele>
        <time>2021-12-29T18:33:00Z</time>
      </trkpt>
      <trkpt lat="44.68182" lon="5.25926">
        <ele>348</ele>
        <time>2021-12-29T18:33:05Z</time>
      </trkpt>
      <trkpt lat="44.68196" lon="5.25936">
        <ele>345</ele>
        <time>2021-12-29T18:33:07Z</time>
      </trkpt>
      <trkpt lat="44.68206" lon="5.25939">
        <ele>344</ele>
        <time>2021-12-29T18:33:09Z</time>
      </trkpt>
      <trkpt lat="44.6822" lon="5.25936">
        <ele>344</ele>
        <time>2021-12-29T18:33:12Z</time>
      </trkpt>
      <trkpt lat="44.68265" lon="5.25896">
        <ele>352</ele>
        <time>2021-12-29T18:33:21Z</time>
      </trkpt>
      <trkpt lat="44.68281" lon="5.25874">
        <ele>355</ele>
        <time>2021-12-29T18:33:25Z</time>
      </trkpt>
      <trkpt lat="44.68316" lon="5.25847">
        <ele>351</ele>
        <time>2021-12-29T18:33:32Z</time>
      </trkpt>
      <trkpt lat="44.68351" lon="5.25802">
        <ele>358</ele>
        <time>2021-12-29T18:33:41Z</time>
      </trkpt>
      <trkpt lat="44.68361" lon="5.25794">
        <ele>360</ele>
        <time>2021-12-29T18:33:43Z</time>
      </trkpt>
      <trkpt lat="44.68405" lon="5.25793">
        <ele>352</ele>
        <time>2021-12-29T18:33:51Z</time>
      </trkpt>
      <trkpt lat="44.68435" lon="5.25785">
        <ele>355</ele>
        <time>2021-12-29T18:33:56Z</time>
      </trkpt>
      <trkpt lat="44.68456" lon="5.25794">
        <ele>350</ele>
        <time>2021-12-29T18:34:00Z</time>
      </trkpt>
      <trkpt lat="44.68479" lon="5.258">
        <ele>346</ele>
        <time>2021-12-29T18:34:04Z</time>
      </trkpt>
      <trkpt lat="44.68546" lon="5.25796">
        <ele>352</ele>
        <time>2021-12-29T18:34:16Z</time>
      </trkpt>
      <trkpt lat="44.68652" lon="5.25835">
        <ele>349</ele>
        <time>2021-12-29T18:34:36Z</time>
      </trkpt>
      <trkpt lat="44.68703" lon="5.2586">
        <ele>350</ele>
        <time>2021-12-29T18:34:45Z</time>
      </trkpt>
      <trkpt lat="44.68726" lon="5.25878">
        <ele>347</ele>
        <time>2021-12-29T18:34:50Z</time>
      </trkpt>
      <trkpt lat="44.6874" lon="5.25901">
        <ele>341</ele>
        <time>2021-12-29T18:34:54Z</time>
      </trkpt>
      <trkpt lat="44.6876" lon="5.25943">
        <ele>331</ele>
        <time>2021-12-29T18:35:00Z</time>
      </trkpt>
      <trkpt lat="44.68775" lon="5.25958">
        <ele>330</ele>
        <time>2021-12-29T18:35:03Z</time>
      </trkpt>
      <trkpt lat="44.68807" lon="5.25976">
        <ele>330</ele>
        <time>2021-12-29T18:35:09Z</time>
      </trkpt>
      <trkpt lat="44.68946" lon="5.26011">
        <ele>324</ele>
        <time>2021-12-29T18:35:35Z</time>
      </trkpt>
      <trkpt lat="44.6906" lon="5.25994">
        <ele>321</ele>
        <time>2021-12-29T18:35:55Z</time>
      </trkpt>
      <trkpt lat="44.69106" lon="5.25965">
        <ele>328</ele>
        <time>2021-12-29T18:36:04Z</time>
      </trkpt>
      <trkpt lat="44.69155" lon="5.25945">
        <ele>325</ele>
        <time>2021-12-29T18:36:13Z</time>
      </trkpt>
      <trkpt lat="44.69213" lon="5.25912">
        <ele>326</ele>
        <time>2021-12-29T18:36:24Z</time>
      </trkpt>
      <trkpt lat="44.6923" lon="5.25913">
        <ele>322</ele>
        <time>2021-12-29T18:36:27Z</time>
      </trkpt>
      <trkpt lat="44.69284" lon="5.25937">
        <ele>310</ele>
        <time>2021-12-29T18:36:37Z</time>
      </trkpt>
      <trkpt lat="44.69316" lon="5.25931">
        <ele>310</ele>
        <time>2021-12-29T18:36:43Z</time>
      </trkpt>
      <trkpt lat="44.69357" lon="5.25918">
        <ele>308</ele>
        <time>2021-12-29T18:36:51Z</time>
      </trkpt>
      <trkpt lat="44.69389" lon="5.25892">
        <ele>307</ele>
        <time>2021-12-29T18:36:57Z</time>
      </trkpt>
      <trkpt lat="44.69423" lon="5.25856">
        <ele>306</ele>
        <time>2021-12-29T18:37:05Z</time>
      </trkpt>
      <trkpt lat="44.69447" lon="5.25811">
        <ele>306</ele>
        <time>2021-12-29T18:37:12Z</time>
      </trkpt>
      <trkpt lat="44.69464" lon="5.25723">
        <ele>308</ele>
        <time>2021-12-29T18:37:23Z</time>
      </trkpt>
      <trkpt lat="44.69477" lon="5.25702">
        <ele>306</ele>
        <time>2021-12-29T18:37:27Z</time>
      </trkpt>
      <trkpt lat="44.69493" lon="5.25664">
        <ele>303</ele>
        <time>2021-12-29T18:37:32Z</time>
      </trkpt>
      <trkpt lat="44.69531" lon="5.25595">
        <ele>303</ele>
        <time>2021-12-29T18:37:43Z</time>
      </trkpt>
      <trkpt lat="44.69567" lon="5.25541">
        <ele>303</ele>
        <time>2021-12-29T18:37:53Z</time>
      </trkpt>
      <trkpt lat="44.69575" lon="5.25514">
        <ele>304</ele>
        <time>2021-12-29T18:37:57Z</time>
      </trkpt>
      <trkpt lat="44.69587" lon="5.2545">
        <ele>307</ele>
        <time>2021-12-29T18:38:05Z</time>
      </trkpt>
      <trkpt lat="44.69602" lon="5.25393">
        <ele>307</ele>
        <time>2021-12-29T18:38:13Z</time>
      </trkpt>
      <trkpt lat="44.69633" lon="5.25288">
        <ele>300</ele>
        <time>2021-12-29T18:38:27Z</time>
      </trkpt>
      <trkpt lat="44.69635" lon="5.25227">
        <ele>298</ele>
        <time>2021-12-29T18:38:35Z</time>
      </trkpt>
      <trkpt lat="44.69618" lon="5.25043">
        <ele>300</ele>
        <time>2021-12-29T18:38:58Z</time>
      </trkpt>
      <trkpt lat="44.69627" lon="5.24909">
        <ele>298</ele>
        <time>2021-12-29T18:39:15Z</time>
      </trkpt>
      <trkpt lat="44.69614" lon="5.24779">
        <ele>296</ele>
        <time>2021-12-29T18:39:32Z</time>
      </trkpt>
      <trkpt lat="44.69575" lon="5.24595">
        <ele>292</ele>
        <time>2021-12-29T18:39:56Z</time>
      </trkpt>
      <trkpt lat="44.69529" lon="5.24432">
        <ele>291</ele>
        <time>2021-12-29T18:40:18Z</time>
      </trkpt>
      <trkpt lat="44.69459" lon="5.24294">
        <ele>293</ele>
        <time>2021-12-29T18:40:40Z</time>
      </trkpt>
      <trkpt lat="44.6938" lon="5.24155">
        <ele>294</ele>
        <time>2021-12-29T18:41:02Z</time>
      </trkpt>
      <trkpt lat="44.69311" lon="5.24037">
        <ele>289</ele>
        <time>2021-12-29T18:41:22Z</time>
      </trkpt>
      <trkpt lat="44.69254" lon="5.23986">
        <ele>291</ele>
        <time>2021-12-29T18:41:34Z</time>
      </trkpt>
      <trkpt lat="44.69196" lon="5.23957">
        <ele>292</ele>
        <time>2021-12-29T18:41:45Z</time>
      </trkpt>
      <trkpt lat="44.69114" lon="5.23926">
        <ele>292</ele>
        <time>2021-12-29T18:42:00Z</time>
      </trkpt>
      <trkpt lat="44.69045" lon="5.2388">
        <ele>295</ele>
        <time>2021-12-29T18:42:13Z</time>
      </trkpt>
      <trkpt lat="44.68966" lon="5.23821">
        <ele>290</ele>
        <time>2021-12-29T18:42:29Z</time>
      </trkpt>
      <trkpt lat="44.6897" lon="5.23814">
        <ele>290</ele>
        <time>2021-12-29T18:42:30Z</time>
      </trkpt>
      <trkpt lat="44.68991" lon="5.23772">
        <ele>291</ele>
        <time>2021-12-29T18:42:37Z</time>
      </trkpt>
      <trkpt lat="44.68996" lon="5.23763">
        <ele>292</ele>
        <time>2021-12-29T18:42:38Z</time>
      </trkpt>
      <trkpt lat="44.68922" lon="5.23635">
        <ele>291</ele>
        <time>2021-12-29T18:42:59Z</time>
      </trkpt>
      <trkpt lat="44.68905" lon="5.2358">
        <ele>294</ele>
        <time>2021-12-29T18:43:07Z</time>
      </trkpt>
      <trkpt lat="44.68891" lon="5.2352">
        <ele>294</ele>
        <time>2021-12-29T18:43:15Z</time>
      </trkpt>
      <trkpt lat="44.68882" lon="5.2345">
        <ele>294</ele>
        <time>2021-12-29T18:43:24Z</time>
      </trkpt>
      <trkpt lat="44.68883" lon="5.23176">
        <ele>294</ele>
        <time>2021-12-29T18:43:58Z</time>
      </trkpt>
      <trkpt lat="44.68878" lon="5.23109">
        <ele>296</ele>
        <time>2021-12-29T18:44:07Z</time>
      </trkpt>
      <trkpt lat="44.68862" lon="5.23012">
        <ele>290</ele>
        <time>2021-12-29T18:44:19Z</time>
      </trkpt>
      <trkpt lat="44.6886" lon="5.22927">
        <ele>286</ele>
        <time>2021-12-29T18:44:30Z</time>
      </trkpt>
      <trkpt lat="44.68873" lon="5.22839">
        <ele>283</ele>
        <time>2021-12-29T18:44:42Z</time>
      </trkpt>
      <trkpt lat="44.69026" lon="5.22002">
        <ele>277</ele>
        <time>2021-12-29T18:46:31Z</time>
      </trkpt>
      <trkpt lat="44.69038" lon="5.21909">
        <ele>278</ele>
        <time>2021-12-29T18:46:43Z</time>
      </trkpt>
      <trkpt lat="44.69052" lon="5.21824">
        <ele>280</ele>
        <time>2021-12-29T18:46:54Z</time>
      </trkpt>
      <trkpt lat="44.69081" lon="5.21747">
        <ele>276</ele>
        <time>2021-12-29T18:47:05Z</time>
      </trkpt>
      <trkpt lat="44.69119" lon="5.21685">
        <ele>286</ele>
        <time>2021-12-29T18:47:15Z</time>
      </trkpt>
      <trkpt lat="44.69147" lon="5.21633">
        <ele>290</ele>
        <time>2021-12-29T18:47:23Z</time>
      </trkpt>
      <trkpt lat="44.69169" lon="5.21577">
        <ele>290</ele>
        <time>2021-12-29T18:47:32Z</time>
      </trkpt>
      <trkpt lat="44.69177" lon="5.21518">
        <ele>295</ele>
        <time>2021-12-29T18:47:39Z</time>
      </trkpt>
      <trkpt lat="44.6917" lon="5.21472">
        <ele>293</ele>
        <time>2021-12-29T18:47:45Z</time>
      </trkpt>
      <trkpt lat="44.69156" lon="5.21433">
        <ele>292</ele>
        <time>2021-12-29T18:47:51Z</time>
      </trkpt>
      <trkpt lat="44.69136" lon="5.21396">
        <ele>294</ele>
        <time>2021-12-29T18:47:57Z</time>
      </trkpt>
      <trkpt lat="44.69088" lon="5.21337">
        <ele>281</ele>
        <time>2021-12-29T18:48:08Z</time>
      </trkpt>
      <trkpt lat="44.68989" lon="5.21224">
        <ele>283</ele>
        <time>2021-12-29T18:48:31Z</time>
      </trkpt>
      <trkpt lat="44.68979" lon="5.2119">
        <ele>287</ele>
        <time>2021-12-29T18:48:35Z</time>
      </trkpt>
      <trkpt lat="44.6898" lon="5.21157">
        <ele>289</ele>
        <time>2021-12-29T18:48:39Z</time>
      </trkpt>
      <trkpt lat="44.6902" lon="5.21063">
        <ele>291</ele>
        <time>2021-12-29T18:48:53Z</time>
      </trkpt>
      <trkpt lat="44.69026" lon="5.21015">
        <ele>289</ele>
        <time>2021-12-29T18:48:59Z</time>
      </trkpt>
      <trkpt lat="44.69024" lon="5.20956">
        <ele>284</ele>
        <time>2021-12-29T18:49:07Z</time>
      </trkpt>
      <trkpt lat="44.69034" lon="5.20907">
        <ele>284</ele>
        <time>2021-12-29T18:49:13Z</time>
      </trkpt>
      <trkpt lat="44.69058" lon="5.20853">
        <ele>283</ele>
        <time>2021-12-29T18:49:21Z</time>
      </trkpt>
      <trkpt lat="44.69101" lon="5.2079">
        <ele>282</ele>
        <time>2021-12-29T18:49:32Z</time>
      </trkpt>
      <trkpt lat="44.69191" lon="5.20672">
        <ele>280</ele>
        <time>2021-12-29T18:49:54Z</time>
      </trkpt>
      <trkpt lat="44.69258" lon="5.20569">
        <ele>277</ele>
        <time>2021-12-29T18:50:12Z</time>
      </trkpt>
      <trkpt lat="44.69292" lon="5.20505">
        <ele>272</ele>
        <time>2021-12-29T18:50:22Z</time>
      </trkpt>
      <trkpt lat="44.69377" lon="5.20327">
        <ele>271</ele>
        <time>2021-12-29T18:50:49Z</time>
      </trkpt>
      <trkpt lat="44.69406" lon="5.20264">
        <ele>275</ele>
        <time>2021-12-29T18:50:59Z</time>
      </trkpt>
      <trkpt lat="44.69455" lon="5.20118">
        <ele>277</ele>
        <time>2021-12-29T18:51:19Z</time>
      </trkpt>
      <trkpt lat="44.69466" lon="5.2009">
        <ele>276</ele>
        <time>2021-12-29T18:51:23Z</time>
      </trkpt>
      <trkpt lat="44.69474" lon="5.20095">
        <ele>276</ele>
        <time>2021-12-29T18:51:25Z</time>
      </trkpt>
      <trkpt lat="44.69484" lon="5.20096">
        <ele>276</ele>
        <time>2021-12-29T18:51:27Z</time>
      </trkpt>
      <trkpt lat="44.69494" lon="5.20088">
        <ele>276</ele>
        <time>2021-12-29T18:51:29Z</time>
      </trkpt>
      <trkpt lat="44.69501" lon="5.20076">
        <ele>276</ele>
        <time>2021-12-29T18:51:31Z</time>
      </trkpt>
      <trkpt lat="44.69505" lon="5.20064">
        <ele>275</ele>
        <time>2021-12-29T18:51:32Z</time>
      </trkpt>
      <trkpt lat="44.69507" lon="5.20051">
        <ele>274</ele>
        <time>2021-12-29T18:51:34Z</time>
      </trkpt>
      <trkpt lat="44.69506" lon="5.20037">
        <ele>273</ele>
        <time>2021-12-29T18:51:36Z</time>
      </trkpt>
      <trkpt lat="44.695" lon="5.20018">
        <ele>274</ele>
        <time>2021-12-29T18:51:38Z</time>
      </trkpt>
      <trkpt lat="44.69478" lon="5.19981">
        <ele>274</ele>
        <time>2021-12-29T18:51:44Z</time>
      </trkpt>
      <trkpt lat="44.69473" lon="5.19968">
        <ele>275</ele>
        <time>2021-12-29T18:51:46Z</time>
      </trkpt>
      <trkpt lat="44.6947" lon="5.19953">
        <ele>275</ele>
        <time>2021-12-29T18:51:48Z</time>
      </trkpt>
      <trkpt lat="44.6947" lon="5.19937">
        <ele>275</ele>
        <time>2021-12-29T18:51:50Z</time>
      </trkpt>
      <trkpt lat="44.69468" lon="5.19921">
        <ele>275</ele>
        <time>2021-12-29T18:51:52Z</time>
      </trkpt>
      <trkpt lat="44.69464" lon="5.19912">
        <ele>276</ele>
        <time>2021-12-29T18:51:54Z</time>
      </trkpt>
    </trkseg>
  </trk>
  <trk>
    <name><![CDATA[1000 DU SUD 2022_J3_2]]></name>
    <trkseg>
      <trkpt lat="44.69495" lon="5.20082">
        <ele>276.9</ele>
      </trkpt>
    </trkseg>
  </trk>
</gpx>